<?xml version='1.0' encoding='UTF-8'?><gpx version="1.1" creator="JPX - https://github.com/jenetics/jpx" xmlns="http://www.topografix.com/GPX/1/1"><trk><trkseg><trkpt lat="42.1498752" lon="14.5853022"><ele>198.6</ele><time>2026-03-25T11:15:04.843Z</time></trkpt><trkpt lat="42.14995" lon="14.5852333"><ele>200.2</ele><time>2026-03-25T11:17:20.843Z</time></trkpt><trkpt lat="42.1500217" lon="14.5852733"><ele>201.8</ele><time>2026-03-25T11:17:23.844Z</time></trkpt><trkpt lat="42.1501567" lon="14.58528"><ele>203.4</ele><time>2026-03-25T11:17:29.843Z</time></trkpt><trkpt lat="42.15024" lon="14.5852283"><ele>205.0</ele><time>2026-03-25T11:17:32.843Z</time></trkpt><trkpt lat="42.1503117" lon="14.58517"><ele>204.99999999999997</ele><time>2026-03-25T11:17:35.843Z</time></trkpt><trkpt lat="42.1503683" lon="14.5851183"><ele>205.0</ele><time>2026-03-25T11:17:38.843Z</time></trkpt><trkpt lat="42.1504533" lon="14.5851117"><ele>205.0</ele><time>2026-03-25T11:17:41.843Z</time></trkpt><trkpt lat="42.15053" lon="14.5850917"><ele>205.0</ele><time>2026-03-25T11:17:44.843Z</time></trkpt><trkpt lat="42.150615" lon="14.5850467"><ele>204.99999999999997</ele><time>2026-03-25T11:17:47.843Z</time></trkpt><trkpt lat="42.15069" lon="14.5850317"><ele>205.0</ele><time>2026-03-25T11:17:50.843Z</time></trkpt><trkpt lat="42.15076" lon="14.5850467"><ele>205.16666666666666</ele><time>2026-03-25T11:17:54.843Z</time></trkpt><trkpt lat="42.1508183" lon="14.5849933"><ele>205.33333333333331</ele><time>2026-03-25T11:17:58.843Z</time></trkpt><trkpt lat="42.150885" lon="14.58495"><ele>205.5</ele><time>2026-03-25T11:18:02.843Z</time></trkpt><trkpt lat="42.1509583" lon="14.584925"><ele>205.66666666666669</ele><time>2026-03-25T11:18:05.843Z</time></trkpt><trkpt lat="42.1510433" lon="14.5849233"><ele>205.83333333333334</ele><time>2026-03-25T11:18:08.843Z</time></trkpt><trkpt lat="42.15112" lon="14.5849567"><ele>206.0</ele><time>2026-03-25T11:18:10.844Z</time></trkpt><trkpt lat="42.1512067" lon="14.5850083"><ele>206.00000000000003</ele><time>2026-03-25T11:18:12.843Z</time></trkpt><trkpt lat="42.1512967" lon="14.5849883"><ele>206.0</ele><time>2026-03-25T11:18:14.843Z</time></trkpt><trkpt lat="42.1513583" lon="14.58496"><ele>206.0</ele><time>2026-03-25T11:18:16.843Z</time></trkpt><trkpt lat="42.15142" lon="14.584925"><ele>206.0</ele><time>2026-03-25T11:18:21.843Z</time></trkpt><trkpt lat="42.1515317" lon="14.58492"><ele>206.00000000000003</ele><time>2026-03-25T11:18:46.843Z</time></trkpt><trkpt lat="42.1516067" lon="14.584925"><ele>206.0</ele><time>2026-03-25T11:18:49.843Z</time></trkpt><trkpt lat="42.15167" lon="14.5848317"><ele>204.8</ele><time>2026-03-25T11:18:52.843Z</time></trkpt><trkpt lat="42.1516983" lon="14.5847233"><ele>203.60000000000002</ele><time>2026-03-25T11:18:54.843Z</time></trkpt><trkpt lat="42.15173" lon="14.58456"><ele>202.4</ele><time>2026-03-25T11:18:56.843Z</time></trkpt><trkpt lat="42.1517617" lon="14.5843817"><ele>201.2</ele><time>2026-03-25T11:18:58.844Z</time></trkpt><trkpt lat="42.1517733" lon="14.5842833"><ele>200.0</ele><time>2026-03-25T11:18:59.843Z</time></trkpt><trkpt lat="42.151785" lon="14.5841883"><ele>199.66666666666669</ele><time>2026-03-25T11:19:00.843Z</time></trkpt><trkpt lat="42.1517933" lon="14.5841033"><ele>199.33333333333334</ele><time>2026-03-25T11:19:01.843Z</time></trkpt><trkpt lat="42.1518033" lon="14.5840167"><ele>199.0</ele><time>2026-03-25T11:19:02.843Z</time></trkpt><trkpt lat="42.1518183" lon="14.5839233"><ele>198.66666666666669</ele><time>2026-03-25T11:19:03.843Z</time></trkpt><trkpt lat="42.1518333" lon="14.583835"><ele>198.33333333333334</ele><time>2026-03-25T11:19:04.843Z</time></trkpt><trkpt lat="42.1518467" lon="14.5836783"><ele>198.0</ele><time>2026-03-25T11:19:06.843Z</time></trkpt><trkpt lat="42.1518367" lon="14.5835283"><ele>196.8</ele><time>2026-03-25T11:19:08.844Z</time></trkpt><trkpt lat="42.1518467" lon="14.58339"><ele>195.60000000000002</ele><time>2026-03-25T11:19:10.844Z</time></trkpt><trkpt lat="42.1518867" lon="14.583245"><ele>194.39999999999998</ele><time>2026-03-25T11:19:12.843Z</time></trkpt><trkpt lat="42.1519667" lon="14.5831267"><ele>193.2</ele><time>2026-03-25T11:19:14.843Z</time></trkpt><trkpt lat="42.1520583" lon="14.58307"><ele>192.0</ele><time>2026-03-25T11:19:16.843Z</time></trkpt><trkpt lat="42.15213" lon="14.5831083"><ele>192.0</ele><time>2026-03-25T11:19:18.843Z</time></trkpt><trkpt lat="42.1522133" lon="14.5832017"><ele>192.0</ele><time>2026-03-25T11:19:20.843Z</time></trkpt><trkpt lat="42.1523017" lon="14.583315"><ele>192.0</ele><time>2026-03-25T11:19:22.843Z</time></trkpt><trkpt lat="42.1523883" lon="14.58343"><ele>192.0</ele><time>2026-03-25T11:19:24.843Z</time></trkpt><trkpt lat="42.1524383" lon="14.5834967"><ele>192.0</ele><time>2026-03-25T11:19:25.843Z</time></trkpt><trkpt lat="42.1524883" lon="14.5835683"><ele>190.66666666666666</ele><time>2026-03-25T11:19:26.844Z</time></trkpt><trkpt lat="42.1525483" lon="14.5836383"><ele>189.33333333333334</ele><time>2026-03-25T11:19:27.843Z</time></trkpt><trkpt lat="42.1526067" lon="14.5837117"><ele>188.0</ele><time>2026-03-25T11:19:28.843Z</time></trkpt><trkpt lat="42.152665" lon="14.583785"><ele>186.66666666666669</ele><time>2026-03-25T11:19:29.844Z</time></trkpt><trkpt lat="42.1527183" lon="14.5838633"><ele>185.33333333333334</ele><time>2026-03-25T11:19:30.843Z</time></trkpt><trkpt lat="42.1527767" lon="14.58394"><ele>184.0</ele><time>2026-03-25T11:19:31.844Z</time></trkpt><trkpt lat="42.1528383" lon="14.5840183"><ele>184.0</ele><time>2026-03-25T11:19:32.844Z</time></trkpt><trkpt lat="42.152895" lon="14.58409"><ele>184.0</ele><time>2026-03-25T11:19:33.843Z</time></trkpt><trkpt lat="42.1529533" lon="14.5841767"><ele>184.0</ele><time>2026-03-25T11:19:34.843Z</time></trkpt><trkpt lat="42.1530217" lon="14.5842617"><ele>184.0</ele><time>2026-03-25T11:19:35.843Z</time></trkpt><trkpt lat="42.1530833" lon="14.5843383"><ele>184.0</ele><time>2026-03-25T11:19:36.843Z</time></trkpt><trkpt lat="42.153135" lon="14.5844183"><ele>184.0</ele><time>2026-03-25T11:19:37.844Z</time></trkpt><trkpt lat="42.1531817" lon="14.5845083"><ele>183.0</ele><time>2026-03-25T11:19:38.843Z</time></trkpt><trkpt lat="42.1532133" lon="14.5846033"><ele>182.0</ele><time>2026-03-25T11:19:39.843Z</time></trkpt><trkpt lat="42.1532417" lon="14.5847017"><ele>181.0</ele><time>2026-03-25T11:19:40.844Z</time></trkpt><trkpt lat="42.1532617" lon="14.5848"><ele>180.0</ele><time>2026-03-25T11:19:41.843Z</time></trkpt><trkpt lat="42.1532767" lon="14.5848967"><ele>179.0</ele><time>2026-03-25T11:19:42.843Z</time></trkpt><trkpt lat="42.1532917" lon="14.5849917"><ele>178.0</ele><time>2026-03-25T11:19:43.843Z</time></trkpt><trkpt lat="42.1533017" lon="14.5850783"><ele>177.0</ele><time>2026-03-25T11:19:44.843Z</time></trkpt><trkpt lat="42.1533167" lon="14.5852167"><ele>177.0</ele><time>2026-03-25T11:19:46.844Z</time></trkpt><trkpt lat="42.1533733" lon="14.5852817"><ele>177.0</ele><time>2026-03-25T11:19:48.843Z</time></trkpt><trkpt lat="42.1534817" lon="14.5852617"><ele>177.0</ele><time>2026-03-25T11:19:50.843Z</time></trkpt><trkpt lat="42.1536083" lon="14.5852317"><ele>177.0</ele><time>2026-03-25T11:19:52.843Z</time></trkpt><trkpt lat="42.1536817" lon="14.58523"><ele>177.0</ele><time>2026-03-25T11:19:53.844Z</time></trkpt><trkpt lat="42.1537567" lon="14.585225"><ele>177.0</ele><time>2026-03-25T11:19:54.844Z</time></trkpt><trkpt lat="42.1538317" lon="14.5852217"><ele>177.0</ele><time>2026-03-25T11:19:55.843Z</time></trkpt><trkpt lat="42.1539067" lon="14.58522"><ele>177.0</ele><time>2026-03-25T11:19:56.843Z</time></trkpt><trkpt lat="42.153985" lon="14.5852167"><ele>177.0</ele><time>2026-03-25T11:19:57.843Z</time></trkpt><trkpt lat="42.1540667" lon="14.5852217"><ele>177.0</ele><time>2026-03-25T11:19:58.843Z</time></trkpt><trkpt lat="42.15415" lon="14.5852233"><ele>177.0</ele><time>2026-03-25T11:19:59.843Z</time></trkpt><trkpt lat="42.1542317" lon="14.5852317"><ele>176.16666666666666</ele><time>2026-03-25T11:20:00.843Z</time></trkpt><trkpt lat="42.1543117" lon="14.5852483"><ele>175.33333333333334</ele><time>2026-03-25T11:20:01.843Z</time></trkpt><trkpt lat="42.15439" lon="14.5852833"><ele>174.5</ele><time>2026-03-25T11:20:02.843Z</time></trkpt><trkpt lat="42.1544617" lon="14.5853367"><ele>173.66666666666669</ele><time>2026-03-25T11:20:03.843Z</time></trkpt><trkpt lat="42.1545183" lon="14.5854033"><ele>172.83333333333334</ele><time>2026-03-25T11:20:04.844Z</time></trkpt><trkpt lat="42.154565" lon="14.5854883"><ele>172.0</ele><time>2026-03-25T11:20:05.843Z</time></trkpt><trkpt lat="42.15461" lon="14.58557"><ele>171.71428571428572</ele><time>2026-03-25T11:20:06.843Z</time></trkpt><trkpt lat="42.15465" lon="14.5856517"><ele>171.42857142857144</ele><time>2026-03-25T11:20:07.843Z</time></trkpt><trkpt lat="42.154685" lon="14.5857367"><ele>171.14285714285717</ele><time>2026-03-25T11:20:08.843Z</time></trkpt><trkpt lat="42.15472" lon="14.5858233"><ele>170.85714285714286</ele><time>2026-03-25T11:20:09.843Z</time></trkpt><trkpt lat="42.1547517" lon="14.5859083"><ele>170.57142857142856</ele><time>2026-03-25T11:20:10.843Z</time></trkpt><trkpt lat="42.154785" lon="14.5859917"><ele>170.2857142857143</ele><time>2026-03-25T11:20:11.843Z</time></trkpt><trkpt lat="42.154825" lon="14.58608"><ele>170.0</ele><time>2026-03-25T11:20:12.844Z</time></trkpt><trkpt lat="42.1548633" lon="14.5861633"><ele>169.0</ele><time>2026-03-25T11:20:13.843Z</time></trkpt><trkpt lat="42.1548983" lon="14.5862533"><ele>168.0</ele><time>2026-03-25T11:20:14.844Z</time></trkpt><trkpt lat="42.1549383" lon="14.586345"><ele>167.0</ele><time>2026-03-25T11:20:15.844Z</time></trkpt><trkpt lat="42.1549783" lon="14.5864267"><ele>166.0</ele><time>2026-03-25T11:20:16.843Z</time></trkpt><trkpt lat="42.1550233" lon="14.5865117"><ele>165.0</ele><time>2026-03-25T11:20:17.843Z</time></trkpt><trkpt lat="42.1550717" lon="14.5866033"><ele>164.0</ele><time>2026-03-25T11:20:18.843Z</time></trkpt><trkpt lat="42.1551183" lon="14.5866883"><ele>163.99999999999997</ele><time>2026-03-25T11:20:19.843Z</time></trkpt><trkpt lat="42.1551633" lon="14.5867717"><ele>164.0</ele><time>2026-03-25T11:20:20.843Z</time></trkpt><trkpt lat="42.1552133" lon="14.58685"><ele>164.0</ele><time>2026-03-25T11:20:21.843Z</time></trkpt><trkpt lat="42.1552633" lon="14.5869183"><ele>164.0</ele><time>2026-03-25T11:20:22.843Z</time></trkpt><trkpt lat="42.155315" lon="14.5869817"><ele>164.0</ele><time>2026-03-25T11:20:23.843Z</time></trkpt><trkpt lat="42.1553683" lon="14.5870517"><ele>163.99999999999997</ele><time>2026-03-25T11:20:24.843Z</time></trkpt><trkpt lat="42.1554183" lon="14.5871233"><ele>164.0</ele><time>2026-03-25T11:20:25.843Z</time></trkpt><trkpt lat="42.1554667" lon="14.5871933"><ele>164.14285714285714</ele><time>2026-03-25T11:20:26.843Z</time></trkpt><trkpt lat="42.1555217" lon="14.587255"><ele>164.28571428571428</ele><time>2026-03-25T11:20:27.843Z</time></trkpt><trkpt lat="42.1555733" lon="14.58732"><ele>164.42857142857144</ele><time>2026-03-25T11:20:28.843Z</time></trkpt><trkpt lat="42.155625" lon="14.5873883"><ele>164.57142857142856</ele><time>2026-03-25T11:20:29.843Z</time></trkpt><trkpt lat="42.1556733" lon="14.58746"><ele>164.71428571428572</ele><time>2026-03-25T11:20:30.843Z</time></trkpt><trkpt lat="42.155725" lon="14.5875233"><ele>164.85714285714286</ele><time>2026-03-25T11:20:31.843Z</time></trkpt><trkpt lat="42.155775" lon="14.587595"><ele>165.0</ele><time>2026-03-25T11:20:32.843Z</time></trkpt><trkpt lat="42.1558217" lon="14.5876633"><ele>165.00000000000003</ele><time>2026-03-25T11:20:33.843Z</time></trkpt><trkpt lat="42.1558717" lon="14.5877367"><ele>165.0</ele><time>2026-03-25T11:20:34.843Z</time></trkpt><trkpt lat="42.15592" lon="14.58781"><ele>165.0</ele><time>2026-03-25T11:20:35.844Z</time></trkpt><trkpt lat="42.1559633" lon="14.587885"><ele>165.0</ele><time>2026-03-25T11:20:36.844Z</time></trkpt><trkpt lat="42.156" lon="14.58796"><ele>165.0</ele><time>2026-03-25T11:20:37.844Z</time></trkpt><trkpt lat="42.1560383" lon="14.588035"><ele>165.00000000000003</ele><time>2026-03-25T11:20:38.843Z</time></trkpt><trkpt lat="42.1560767" lon="14.5881083"><ele>165.0</ele><time>2026-03-25T11:20:39.843Z</time></trkpt><trkpt lat="42.1561167" lon="14.5881767"><ele>164.0</ele><time>2026-03-25T11:20:40.844Z</time></trkpt><trkpt lat="42.1561933" lon="14.5882967"><ele>163.0</ele><time>2026-03-25T11:20:42.843Z</time></trkpt><trkpt lat="42.15626" lon="14.5884267"><ele>162.0</ele><time>2026-03-25T11:20:44.843Z</time></trkpt><trkpt lat="42.1563333" lon="14.5885483"><ele>161.0</ele><time>2026-03-25T11:20:46.843Z</time></trkpt><trkpt lat="42.156375" lon="14.588615"><ele>160.0</ele><time>2026-03-25T11:20:47.843Z</time></trkpt><trkpt lat="42.1564583" lon="14.5887283"><ele>159.75</ele><time>2026-03-25T11:20:49.843Z</time></trkpt><trkpt lat="42.1565467" lon="14.5888433"><ele>159.5</ele><time>2026-03-25T11:20:51.844Z</time></trkpt><trkpt lat="42.156625" lon="14.5889567"><ele>159.25</ele><time>2026-03-25T11:20:53.844Z</time></trkpt><trkpt lat="42.156695" lon="14.5890633"><ele>159.0</ele><time>2026-03-25T11:20:55.843Z</time></trkpt><trkpt lat="42.1567667" lon="14.589195"><ele>159.0</ele><time>2026-03-25T11:20:57.843Z</time></trkpt><trkpt lat="42.15684" lon="14.5893183"><ele>159.0</ele><time>2026-03-25T11:20:59.843Z</time></trkpt><trkpt lat="42.15692" lon="14.5894367"><ele>159.0</ele><time>2026-03-25T11:21:01.843Z</time></trkpt><trkpt lat="42.15701" lon="14.58954"><ele>159.0</ele><time>2026-03-25T11:21:03.843Z</time></trkpt><trkpt lat="42.1570617" lon="14.58959"><ele>159.0</ele><time>2026-03-25T11:21:04.843Z</time></trkpt><trkpt lat="42.1571617" lon="14.5896867"><ele>158.75</ele><time>2026-03-25T11:21:06.843Z</time></trkpt><trkpt lat="42.1572583" lon="14.5897683"><ele>158.5</ele><time>2026-03-25T11:21:08.843Z</time></trkpt><trkpt lat="42.1573517" lon="14.5898517"><ele>158.25</ele><time>2026-03-25T11:21:10.843Z</time></trkpt><trkpt lat="42.15746" lon="14.589935"><ele>158.0</ele><time>2026-03-25T11:21:12.843Z</time></trkpt><trkpt lat="42.1575633" lon="14.59002"><ele>158.0</ele><time>2026-03-25T11:21:14.843Z</time></trkpt><trkpt lat="42.15767" lon="14.59011"><ele>158.0</ele><time>2026-03-25T11:21:16.843Z</time></trkpt><trkpt lat="42.1577233" lon="14.5901567"><ele>158.0</ele><time>2026-03-25T11:21:17.843Z</time></trkpt><trkpt lat="42.157825" lon="14.590245"><ele>158.0</ele><time>2026-03-25T11:21:19.843Z</time></trkpt><trkpt lat="42.1579217" lon="14.5903167"><ele>158.0</ele><time>2026-03-25T11:21:21.844Z</time></trkpt><trkpt lat="42.1580233" lon="14.5904033"><ele>157.83333333333331</ele><time>2026-03-25T11:21:23.843Z</time></trkpt><trkpt lat="42.1580767" lon="14.59045"><ele>157.66666666666666</ele><time>2026-03-25T11:21:24.843Z</time></trkpt><trkpt lat="42.15813" lon="14.5904967"><ele>157.5</ele><time>2026-03-25T11:21:25.843Z</time></trkpt><trkpt lat="42.1582267" lon="14.590585"><ele>157.33333333333334</ele><time>2026-03-25T11:21:27.844Z</time></trkpt><trkpt lat="42.158275" lon="14.59064"><ele>157.16666666666669</ele><time>2026-03-25T11:21:28.844Z</time></trkpt><trkpt lat="42.1583617" lon="14.5907417"><ele>157.0</ele><time>2026-03-25T11:21:30.843Z</time></trkpt><trkpt lat="42.1584117" lon="14.5907983"><ele>156.99999999999997</ele><time>2026-03-25T11:21:31.843Z</time></trkpt><trkpt lat="42.158455" lon="14.5908617"><ele>157.0</ele><time>2026-03-25T11:21:32.843Z</time></trkpt><trkpt lat="42.1585083" lon="14.590925"><ele>157.0</ele><time>2026-03-25T11:21:33.843Z</time></trkpt><trkpt lat="42.15856" lon="14.590985"><ele>157.0</ele><time>2026-03-25T11:21:34.843Z</time></trkpt><trkpt lat="42.1586117" lon="14.5910467"><ele>157.0</ele><time>2026-03-25T11:21:35.843Z</time></trkpt><trkpt lat="42.1586617" lon="14.5911067"><ele>156.99999999999997</ele><time>2026-03-25T11:21:36.843Z</time></trkpt><trkpt lat="42.1587133" lon="14.5911717"><ele>157.0</ele><time>2026-03-25T11:21:37.843Z</time></trkpt><trkpt lat="42.158765" lon="14.591235"><ele>156.6</ele><time>2026-03-25T11:21:38.843Z</time></trkpt><trkpt lat="42.1588233" lon="14.5912883"><ele>156.2</ele><time>2026-03-25T11:21:39.843Z</time></trkpt><trkpt lat="42.15888" lon="14.59134"><ele>155.8</ele><time>2026-03-25T11:21:40.843Z</time></trkpt><trkpt lat="42.1589333" lon="14.5913917"><ele>155.4</ele><time>2026-03-25T11:21:41.843Z</time></trkpt><trkpt lat="42.1590233" lon="14.5915133"><ele>155.0</ele><time>2026-03-25T11:21:43.843Z</time></trkpt><trkpt lat="42.1591167" lon="14.591635"><ele>154.85714285714286</ele><time>2026-03-25T11:21:45.843Z</time></trkpt><trkpt lat="42.1591683" lon="14.591695"><ele>154.71428571428572</ele><time>2026-03-25T11:21:46.843Z</time></trkpt><trkpt lat="42.15922" lon="14.5917483"><ele>154.57142857142856</ele><time>2026-03-25T11:21:47.844Z</time></trkpt><trkpt lat="42.1592767" lon="14.5918033"><ele>154.42857142857144</ele><time>2026-03-25T11:21:48.843Z</time></trkpt><trkpt lat="42.15933" lon="14.5918583"><ele>154.28571428571428</ele><time>2026-03-25T11:21:49.843Z</time></trkpt><trkpt lat="42.159385" lon="14.59191"><ele>154.14285714285714</ele><time>2026-03-25T11:21:50.843Z</time></trkpt><trkpt lat="42.1594367" lon="14.5919617"><ele>154.0</ele><time>2026-03-25T11:21:51.843Z</time></trkpt><trkpt lat="42.1594933" lon="14.5920133"><ele>153.83333333333334</ele><time>2026-03-25T11:21:52.844Z</time></trkpt><trkpt lat="42.1595967" lon="14.59212"><ele>153.66666666666669</ele><time>2026-03-25T11:21:54.844Z</time></trkpt><trkpt lat="42.1596533" lon="14.5921683"><ele>153.5</ele><time>2026-03-25T11:21:55.843Z</time></trkpt><trkpt lat="42.1597067" lon="14.5922183"><ele>153.33333333333334</ele><time>2026-03-25T11:21:56.843Z</time></trkpt><trkpt lat="42.1597567" lon="14.592275"><ele>153.16666666666666</ele><time>2026-03-25T11:21:57.844Z</time></trkpt><trkpt lat="42.1598117" lon="14.5923433"><ele>153.0</ele><time>2026-03-25T11:21:58.844Z</time></trkpt><trkpt lat="42.1598583" lon="14.592405"><ele>152.83333333333334</ele><time>2026-03-25T11:21:59.844Z</time></trkpt><trkpt lat="42.1599133" lon="14.5924567"><ele>152.66666666666666</ele><time>2026-03-25T11:22:00.844Z</time></trkpt><trkpt lat="42.16002" lon="14.5925483"><ele>152.5</ele><time>2026-03-25T11:22:02.844Z</time></trkpt><trkpt lat="42.16007" lon="14.5926"><ele>152.33333333333331</ele><time>2026-03-25T11:22:03.845Z</time></trkpt><trkpt lat="42.1601633" lon="14.5927167"><ele>152.16666666666666</ele><time>2026-03-25T11:22:05.845Z</time></trkpt><trkpt lat="42.1602117" lon="14.5927717"><ele>152.0</ele><time>2026-03-25T11:22:06.844Z</time></trkpt><trkpt lat="42.1602617" lon="14.5928267"><ele>151.7142857142857</ele><time>2026-03-25T11:22:07.845Z</time></trkpt><trkpt lat="42.16031" lon="14.592885"><ele>151.42857142857144</ele><time>2026-03-25T11:22:08.844Z</time></trkpt><trkpt lat="42.1603567" lon="14.5929467"><ele>151.14285714285714</ele><time>2026-03-25T11:22:09.844Z</time></trkpt><trkpt lat="42.1604017" lon="14.59301"><ele>150.85714285714283</ele><time>2026-03-25T11:22:10.844Z</time></trkpt><trkpt lat="42.16045" lon="14.5930683"><ele>150.57142857142856</ele><time>2026-03-25T11:22:11.844Z</time></trkpt><trkpt lat="42.1604983" lon="14.5931283"><ele>150.28571428571428</ele><time>2026-03-25T11:22:12.844Z</time></trkpt><trkpt lat="42.1605483" lon="14.59319"><ele>150.0</ele><time>2026-03-25T11:22:13.845Z</time></trkpt><trkpt lat="42.1606" lon="14.593255"><ele>150.0</ele><time>2026-03-25T11:22:14.844Z</time></trkpt><trkpt lat="42.1606883" lon="14.5933733"><ele>150.0</ele><time>2026-03-25T11:22:16.844Z</time></trkpt><trkpt lat="42.160735" lon="14.5934417"><ele>150.0</ele><time>2026-03-25T11:22:17.844Z</time></trkpt><trkpt lat="42.160785" lon="14.5935067"><ele>150.0</ele><time>2026-03-25T11:22:18.844Z</time></trkpt><trkpt lat="42.1608333" lon="14.5935667"><ele>150.0</ele><time>2026-03-25T11:22:19.845Z</time></trkpt><trkpt lat="42.1609267" lon="14.5936917"><ele>149.57142857142856</ele><time>2026-03-25T11:22:21.844Z</time></trkpt><trkpt lat="42.1609733" lon="14.5937567"><ele>149.14285714285714</ele><time>2026-03-25T11:22:22.844Z</time></trkpt><trkpt lat="42.1610233" lon="14.5938183"><ele>148.71428571428572</ele><time>2026-03-25T11:22:23.845Z</time></trkpt><trkpt lat="42.1610733" lon="14.5938817"><ele>148.28571428571428</ele><time>2026-03-25T11:22:24.845Z</time></trkpt><trkpt lat="42.161125" lon="14.5939467"><ele>147.85714285714286</ele><time>2026-03-25T11:22:25.844Z</time></trkpt><trkpt lat="42.161175" lon="14.594015"><ele>147.42857142857142</ele><time>2026-03-25T11:22:26.844Z</time></trkpt><trkpt lat="42.1612217" lon="14.594075"><ele>147.0</ele><time>2026-03-25T11:22:27.844Z</time></trkpt><trkpt lat="42.1612667" lon="14.5941433"><ele>147.0</ele><time>2026-03-25T11:22:28.844Z</time></trkpt><trkpt lat="42.1613167" lon="14.5942083"><ele>147.0</ele><time>2026-03-25T11:22:29.844Z</time></trkpt><trkpt lat="42.161365" lon="14.59427"><ele>147.0</ele><time>2026-03-25T11:22:30.844Z</time></trkpt><trkpt lat="42.161415" lon="14.5943283"><ele>147.0</ele><time>2026-03-25T11:22:31.845Z</time></trkpt><trkpt lat="42.1614633" lon="14.594395"><ele>147.0</ele><time>2026-03-25T11:22:32.844Z</time></trkpt><trkpt lat="42.161515" lon="14.59446"><ele>147.0</ele><time>2026-03-25T11:22:33.844Z</time></trkpt><trkpt lat="42.161565" lon="14.5945217"><ele>147.0</ele><time>2026-03-25T11:22:34.844Z</time></trkpt><trkpt lat="42.161615" lon="14.594585"><ele>146.16666666666666</ele><time>2026-03-25T11:22:35.844Z</time></trkpt><trkpt lat="42.161665" lon="14.59465"><ele>145.33333333333334</ele><time>2026-03-25T11:22:36.844Z</time></trkpt><trkpt lat="42.1617117" lon="14.594715"><ele>144.5</ele><time>2026-03-25T11:22:37.844Z</time></trkpt><trkpt lat="42.16176" lon="14.5947767"><ele>143.66666666666669</ele><time>2026-03-25T11:22:38.844Z</time></trkpt><trkpt lat="42.1618117" lon="14.594835"><ele>142.83333333333334</ele><time>2026-03-25T11:22:39.844Z</time></trkpt><trkpt lat="42.16186" lon="14.5948933"><ele>142.0</ele><time>2026-03-25T11:22:40.844Z</time></trkpt><trkpt lat="42.1619433" lon="14.5950167"><ele>142.0</ele><time>2026-03-25T11:22:42.845Z</time></trkpt><trkpt lat="42.161995" lon="14.595085"><ele>142.0</ele><time>2026-03-25T11:22:43.845Z</time></trkpt><trkpt lat="42.16204" lon="14.59515"><ele>142.0</ele><time>2026-03-25T11:22:44.844Z</time></trkpt><trkpt lat="42.1620817" lon="14.5952183"><ele>142.0</ele><time>2026-03-25T11:22:45.845Z</time></trkpt><trkpt lat="42.1621567" lon="14.595355"><ele>142.0</ele><time>2026-03-25T11:22:47.844Z</time></trkpt><trkpt lat="42.1622017" lon="14.59542"><ele>142.0</ele><time>2026-03-25T11:22:48.844Z</time></trkpt><trkpt lat="42.16228" lon="14.595555"><ele>142.0</ele><time>2026-03-25T11:22:50.844Z</time></trkpt><trkpt lat="42.1623567" lon="14.595685"><ele>142.0</ele><time>2026-03-25T11:22:52.844Z</time></trkpt><trkpt lat="42.1624" lon="14.59575"><ele>142.0</ele><time>2026-03-25T11:22:53.844Z</time></trkpt><trkpt lat="42.1624467" lon="14.5958117"><ele>142.0</ele><time>2026-03-25T11:22:54.844Z</time></trkpt><trkpt lat="42.162485" lon="14.59588"><ele>142.0</ele><time>2026-03-25T11:22:55.844Z</time></trkpt><trkpt lat="42.162525" lon="14.5959467"><ele>142.0</ele><time>2026-03-25T11:22:56.844Z</time></trkpt><trkpt lat="42.162565" lon="14.5960133"><ele>142.0</ele><time>2026-03-25T11:22:57.844Z</time></trkpt><trkpt lat="42.1626067" lon="14.5960867"><ele>141.83333333333334</ele><time>2026-03-25T11:22:58.845Z</time></trkpt><trkpt lat="42.1626483" lon="14.596155"><ele>141.66666666666669</ele><time>2026-03-25T11:22:59.844Z</time></trkpt><trkpt lat="42.1627233" lon="14.5962883"><ele>141.5</ele><time>2026-03-25T11:23:01.844Z</time></trkpt><trkpt lat="42.162765" lon="14.5963617"><ele>141.33333333333334</ele><time>2026-03-25T11:23:02.844Z</time></trkpt><trkpt lat="42.1628083" lon="14.596435"><ele>141.16666666666666</ele><time>2026-03-25T11:23:03.844Z</time></trkpt><trkpt lat="42.1628517" lon="14.5965067"><ele>141.0</ele><time>2026-03-25T11:23:04.844Z</time></trkpt><trkpt lat="42.162895" lon="14.5965767"><ele>141.0</ele><time>2026-03-25T11:23:05.844Z</time></trkpt><trkpt lat="42.1629383" lon="14.59665"><ele>141.0</ele><time>2026-03-25T11:23:06.844Z</time></trkpt><trkpt lat="42.16298" lon="14.5967233"><ele>141.0</ele><time>2026-03-25T11:23:07.844Z</time></trkpt><trkpt lat="42.1630217" lon="14.5967933"><ele>141.0</ele><time>2026-03-25T11:23:08.844Z</time></trkpt><trkpt lat="42.1630617" lon="14.5968633"><ele>141.0</ele><time>2026-03-25T11:23:09.844Z</time></trkpt><trkpt lat="42.1631017" lon="14.5969317"><ele>141.0</ele><time>2026-03-25T11:23:10.844Z</time></trkpt><trkpt lat="42.16318" lon="14.5970567"><ele>140.42857142857144</ele><time>2026-03-25T11:23:12.844Z</time></trkpt><trkpt lat="42.1632183" lon="14.59713"><ele>139.85714285714286</ele><time>2026-03-25T11:23:13.845Z</time></trkpt><trkpt lat="42.1632617" lon="14.5972017"><ele>139.28571428571428</ele><time>2026-03-25T11:23:14.844Z</time></trkpt><trkpt lat="42.1633083" lon="14.5972667"><ele>138.71428571428572</ele><time>2026-03-25T11:23:15.845Z</time></trkpt><trkpt lat="42.16335" lon="14.597335"><ele>138.14285714285714</ele><time>2026-03-25T11:23:16.844Z</time></trkpt><trkpt lat="42.16339" lon="14.597405"><ele>137.57142857142858</ele><time>2026-03-25T11:23:17.844Z</time></trkpt><trkpt lat="42.163435" lon="14.597475"><ele>137.0</ele><time>2026-03-25T11:23:18.844Z</time></trkpt><trkpt lat="42.1634817" lon="14.5975433"><ele>137.0</ele><time>2026-03-25T11:23:19.844Z</time></trkpt><trkpt lat="42.1635633" lon="14.59766"><ele>137.0</ele><time>2026-03-25T11:23:21.844Z</time></trkpt><trkpt lat="42.1636517" lon="14.597775"><ele>137.0</ele><time>2026-03-25T11:23:23.845Z</time></trkpt><trkpt lat="42.1637083" lon="14.5978283"><ele>137.0</ele><time>2026-03-25T11:23:24.844Z</time></trkpt><trkpt lat="42.1637717" lon="14.597865"><ele>137.0</ele><time>2026-03-25T11:23:25.844Z</time></trkpt><trkpt lat="42.1638367" lon="14.5978917"><ele>137.0</ele><time>2026-03-25T11:23:26.844Z</time></trkpt><trkpt lat="42.1639" lon="14.5979167"><ele>136.83333333333331</ele><time>2026-03-25T11:23:27.844Z</time></trkpt><trkpt lat="42.1639717" lon="14.59795"><ele>136.66666666666666</ele><time>2026-03-25T11:23:28.844Z</time></trkpt><trkpt lat="42.16404" lon="14.5979833"><ele>136.5</ele><time>2026-03-25T11:23:29.844Z</time></trkpt><trkpt lat="42.1641033" lon="14.5980217"><ele>136.33333333333334</ele><time>2026-03-25T11:23:30.844Z</time></trkpt><trkpt lat="42.1641667" lon="14.5980517"><ele>136.16666666666669</ele><time>2026-03-25T11:23:31.844Z</time></trkpt><trkpt lat="42.16428" lon="14.5981367"><ele>136.0</ele><time>2026-03-25T11:23:33.844Z</time></trkpt><trkpt lat="42.1643383" lon="14.5981867"><ele>135.7142857142857</ele><time>2026-03-25T11:23:34.844Z</time></trkpt><trkpt lat="42.1643967" lon="14.5982367"><ele>135.42857142857142</ele><time>2026-03-25T11:23:35.844Z</time></trkpt><trkpt lat="42.164455" lon="14.598285"><ele>135.14285714285714</ele><time>2026-03-25T11:23:36.844Z</time></trkpt><trkpt lat="42.1645067" lon="14.5983367"><ele>134.85714285714283</ele><time>2026-03-25T11:23:37.844Z</time></trkpt><trkpt lat="42.1645583" lon="14.5983917"><ele>134.57142857142856</ele><time>2026-03-25T11:23:38.844Z</time></trkpt><trkpt lat="42.1646117" lon="14.5984517"><ele>134.28571428571428</ele><time>2026-03-25T11:23:39.844Z</time></trkpt><trkpt lat="42.1646617" lon="14.5985117"><ele>134.0</ele><time>2026-03-25T11:23:40.844Z</time></trkpt><trkpt lat="42.1647133" lon="14.5985783"><ele>134.0</ele><time>2026-03-25T11:23:41.844Z</time></trkpt><trkpt lat="42.1647633" lon="14.5986467"><ele>134.0</ele><time>2026-03-25T11:23:42.844Z</time></trkpt><trkpt lat="42.164815" lon="14.5987117"><ele>134.0</ele><time>2026-03-25T11:23:43.844Z</time></trkpt><trkpt lat="42.1648617" lon="14.5987717"><ele>134.0</ele><time>2026-03-25T11:23:44.844Z</time></trkpt><trkpt lat="42.16494" lon="14.5989083"><ele>134.0</ele><time>2026-03-25T11:23:46.844Z</time></trkpt><trkpt lat="42.164985" lon="14.5989717"><ele>134.0</ele><time>2026-03-25T11:23:47.845Z</time></trkpt><trkpt lat="42.1650617" lon="14.5991033"><ele>133.6</ele><time>2026-03-25T11:23:49.844Z</time></trkpt><trkpt lat="42.1651017" lon="14.59917"><ele>133.2</ele><time>2026-03-25T11:23:50.844Z</time></trkpt><trkpt lat="42.1651367" lon="14.5992417"><ele>132.79999999999998</ele><time>2026-03-25T11:23:51.845Z</time></trkpt><trkpt lat="42.1651867" lon="14.5993933"><ele>132.4</ele><time>2026-03-25T11:23:53.845Z</time></trkpt><trkpt lat="42.1652283" lon="14.5995417"><ele>132.0</ele><time>2026-03-25T11:23:55.844Z</time></trkpt><trkpt lat="42.16527" lon="14.5996883"><ele>132.0</ele><time>2026-03-25T11:23:57.845Z</time></trkpt><trkpt lat="42.1653167" lon="14.5998383"><ele>132.0</ele><time>2026-03-25T11:23:59.845Z</time></trkpt><trkpt lat="42.1653883" lon="14.5999733"><ele>132.0</ele><time>2026-03-25T11:24:01.845Z</time></trkpt><trkpt lat="42.165435" lon="14.6000333"><ele>132.0</ele><time>2026-03-25T11:24:02.844Z</time></trkpt><trkpt lat="42.1655267" lon="14.600135"><ele>132.0</ele><time>2026-03-25T11:24:04.845Z</time></trkpt><trkpt lat="42.1656067" lon="14.60025"><ele>131.75</ele><time>2026-03-25T11:24:06.844Z</time></trkpt><trkpt lat="42.165685" lon="14.600375"><ele>131.5</ele><time>2026-03-25T11:24:08.844Z</time></trkpt><trkpt lat="42.1657733" lon="14.60047"><ele>131.25</ele><time>2026-03-25T11:24:10.844Z</time></trkpt><trkpt lat="42.1658633" lon="14.6005717"><ele>131.0</ele><time>2026-03-25T11:24:12.844Z</time></trkpt><trkpt lat="42.1659583" lon="14.6006833"><ele>130.8</ele><time>2026-03-25T11:24:14.844Z</time></trkpt><trkpt lat="42.1660067" lon="14.6007433"><ele>130.6</ele><time>2026-03-25T11:24:15.844Z</time></trkpt><trkpt lat="42.1661" lon="14.600845"><ele>130.4</ele><time>2026-03-25T11:24:17.844Z</time></trkpt><trkpt lat="42.1661917" lon="14.6009517"><ele>130.2</ele><time>2026-03-25T11:24:19.844Z</time></trkpt><trkpt lat="42.16629" lon="14.6010483"><ele>130.0</ele><time>2026-03-25T11:24:21.844Z</time></trkpt><trkpt lat="42.1663867" lon="14.6011417"><ele>129.75</ele><time>2026-03-25T11:24:23.844Z</time></trkpt><trkpt lat="42.1664783" lon="14.6012217"><ele>129.5</ele><time>2026-03-25T11:24:25.845Z</time></trkpt><trkpt lat="42.1665617" lon="14.6013083"><ele>129.25</ele><time>2026-03-25T11:24:27.844Z</time></trkpt><trkpt lat="42.1666467" lon="14.6014133"><ele>129.0</ele><time>2026-03-25T11:24:29.845Z</time></trkpt><trkpt lat="42.16673" lon="14.6015417"><ele>128.5</ele><time>2026-03-25T11:24:31.844Z</time></trkpt><trkpt lat="42.1668233" lon="14.6016433"><ele>128.0</ele><time>2026-03-25T11:24:33.844Z</time></trkpt><trkpt lat="42.1669117" lon="14.6017517"><ele>127.5</ele><time>2026-03-25T11:24:35.844Z</time></trkpt><trkpt lat="42.1670067" lon="14.6018533"><ele>127.0</ele><time>2026-03-25T11:24:37.844Z</time></trkpt><trkpt lat="42.1670933" lon="14.6019683"><ele>126.8</ele><time>2026-03-25T11:24:39.844Z</time></trkpt><trkpt lat="42.1671783" lon="14.6020767"><ele>126.6</ele><time>2026-03-25T11:24:41.844Z</time></trkpt><trkpt lat="42.1672233" lon="14.6021383"><ele>126.39999999999999</ele><time>2026-03-25T11:24:42.844Z</time></trkpt><trkpt lat="42.1672667" lon="14.6022033"><ele>126.19999999999999</ele><time>2026-03-25T11:24:43.845Z</time></trkpt><trkpt lat="42.167355" lon="14.60232"><ele>126.0</ele><time>2026-03-25T11:24:45.844Z</time></trkpt><trkpt lat="42.1674467" lon="14.6024133"><ele>125.5</ele><time>2026-03-25T11:24:47.844Z</time></trkpt><trkpt lat="42.16754" lon="14.6025217"><ele>125.0</ele><time>2026-03-25T11:24:49.844Z</time></trkpt><trkpt lat="42.1676183" lon="14.602635"><ele>124.5</ele><time>2026-03-25T11:24:51.844Z</time></trkpt><trkpt lat="42.1677017" lon="14.602735"><ele>124.0</ele><time>2026-03-25T11:24:53.844Z</time></trkpt><trkpt lat="42.16779" lon="14.60283"><ele>124.25</ele><time>2026-03-25T11:24:55.844Z</time></trkpt><trkpt lat="42.167875" lon="14.6029367"><ele>124.5</ele><time>2026-03-25T11:24:57.844Z</time></trkpt><trkpt lat="42.167965" lon="14.6030517"><ele>124.75</ele><time>2026-03-25T11:24:59.844Z</time></trkpt><trkpt lat="42.1680467" lon="14.6031583"><ele>125.0</ele><time>2026-03-25T11:25:01.844Z</time></trkpt><trkpt lat="42.16813" lon="14.6032783"><ele>124.25</ele><time>2026-03-25T11:25:03.844Z</time></trkpt><trkpt lat="42.1682033" lon="14.603405"><ele>123.5</ele><time>2026-03-25T11:25:05.844Z</time></trkpt><trkpt lat="42.16828" lon="14.603535"><ele>122.75</ele><time>2026-03-25T11:25:07.844Z</time></trkpt><trkpt lat="42.1683483" lon="14.60367"><ele>122.0</ele><time>2026-03-25T11:25:09.844Z</time></trkpt><trkpt lat="42.16842" lon="14.6038033"><ele>122.0</ele><time>2026-03-25T11:25:11.844Z</time></trkpt><trkpt lat="42.16849" lon="14.603935"><ele>122.0</ele><time>2026-03-25T11:25:13.844Z</time></trkpt><trkpt lat="42.1685717" lon="14.60405"><ele>122.0</ele><time>2026-03-25T11:25:15.844Z</time></trkpt><trkpt lat="42.1686533" lon="14.6041667"><ele>122.0</ele><time>2026-03-25T11:25:17.844Z</time></trkpt><trkpt lat="42.168735" lon="14.6042833"><ele>122.0</ele><time>2026-03-25T11:25:19.844Z</time></trkpt><trkpt lat="42.1688167" lon="14.604385"><ele>121.99999999999999</ele><time>2026-03-25T11:25:21.844Z</time></trkpt><trkpt lat="42.1689033" lon="14.604495"><ele>121.99999999999999</ele><time>2026-03-25T11:25:23.844Z</time></trkpt><trkpt lat="42.16899" lon="14.604605"><ele>122.0</ele><time>2026-03-25T11:25:25.844Z</time></trkpt><trkpt lat="42.16904" lon="14.6046583"><ele>122.0</ele><time>2026-03-25T11:25:26.844Z</time></trkpt><trkpt lat="42.16912" lon="14.6047717"><ele>121.25</ele><time>2026-03-25T11:25:28.844Z</time></trkpt><trkpt lat="42.1691967" lon="14.604885"><ele>120.5</ele><time>2026-03-25T11:25:30.844Z</time></trkpt><trkpt lat="42.1692683" lon="14.6049917"><ele>119.75</ele><time>2026-03-25T11:25:32.844Z</time></trkpt><trkpt lat="42.1693483" lon="14.6051067"><ele>119.0</ele><time>2026-03-25T11:25:34.844Z</time></trkpt><trkpt lat="42.1694267" lon="14.6052183"><ele>119.0</ele><time>2026-03-25T11:25:36.844Z</time></trkpt><trkpt lat="42.16951" lon="14.6053283"><ele>119.0</ele><time>2026-03-25T11:25:38.844Z</time></trkpt><trkpt lat="42.1695983" lon="14.6054333"><ele>119.0</ele><time>2026-03-25T11:25:40.845Z</time></trkpt><trkpt lat="42.1696867" lon="14.6055417"><ele>119.0</ele><time>2026-03-25T11:25:42.844Z</time></trkpt><trkpt lat="42.1697733" lon="14.6056433"><ele>118.5</ele><time>2026-03-25T11:25:44.845Z</time></trkpt><trkpt lat="42.1698667" lon="14.6057583"><ele>118.0</ele><time>2026-03-25T11:25:46.845Z</time></trkpt><trkpt lat="42.1699583" lon="14.60585"><ele>117.5</ele><time>2026-03-25T11:25:48.844Z</time></trkpt><trkpt lat="42.17004" lon="14.6059533"><ele>117.0</ele><time>2026-03-25T11:25:50.845Z</time></trkpt><trkpt lat="42.17013" lon="14.60606"><ele>117.0</ele><time>2026-03-25T11:25:52.844Z</time></trkpt><trkpt lat="42.170215" lon="14.6061633"><ele>117.0</ele><time>2026-03-25T11:25:54.844Z</time></trkpt><trkpt lat="42.1703033" lon="14.60626"><ele>117.0</ele><time>2026-03-25T11:25:56.844Z</time></trkpt><trkpt lat="42.1704" lon="14.6063567"><ele>117.0</ele><time>2026-03-25T11:25:58.844Z</time></trkpt><trkpt lat="42.1704767" lon="14.6064633"><ele>117.0</ele><time>2026-03-25T11:26:00.844Z</time></trkpt><trkpt lat="42.1705517" lon="14.6065817"><ele>117.0</ele><time>2026-03-25T11:26:02.844Z</time></trkpt><trkpt lat="42.1706317" lon="14.6066917"><ele>117.0</ele><time>2026-03-25T11:26:04.844Z</time></trkpt><trkpt lat="42.1707117" lon="14.6068033"><ele>117.0</ele><time>2026-03-25T11:26:06.844Z</time></trkpt><trkpt lat="42.1707967" lon="14.6069117"><ele>116.6</ele><time>2026-03-25T11:26:08.844Z</time></trkpt><trkpt lat="42.17088" lon="14.60702"><ele>116.19999999999999</ele><time>2026-03-25T11:26:10.844Z</time></trkpt><trkpt lat="42.170965" lon="14.60713"><ele>115.8</ele><time>2026-03-25T11:26:12.844Z</time></trkpt><trkpt lat="42.171045" lon="14.6072383"><ele>115.4</ele><time>2026-03-25T11:26:14.844Z</time></trkpt><trkpt lat="42.1710883" lon="14.6073"><ele>115.0</ele><time>2026-03-25T11:26:15.844Z</time></trkpt><trkpt lat="42.17117" lon="14.6074117"><ele>115.0</ele><time>2026-03-25T11:26:17.845Z</time></trkpt><trkpt lat="42.17125" lon="14.6075317"><ele>115.0</ele><time>2026-03-25T11:26:19.845Z</time></trkpt><trkpt lat="42.1713267" lon="14.6076433"><ele>115.0</ele><time>2026-03-25T11:26:21.844Z</time></trkpt><trkpt lat="42.1714" lon="14.6077767"><ele>115.0</ele><time>2026-03-25T11:26:23.845Z</time></trkpt><trkpt lat="42.1714783" lon="14.6078867"><ele>114.4</ele><time>2026-03-25T11:26:25.844Z</time></trkpt><trkpt lat="42.17152" lon="14.6079533"><ele>113.8</ele><time>2026-03-25T11:26:26.844Z</time></trkpt><trkpt lat="42.1715617" lon="14.6080183"><ele>113.19999999999999</ele><time>2026-03-25T11:26:27.844Z</time></trkpt><trkpt lat="42.1716383" lon="14.60813"><ele>112.6</ele><time>2026-03-25T11:26:29.844Z</time></trkpt><trkpt lat="42.17171" lon="14.6082367"><ele>112.0</ele><time>2026-03-25T11:26:31.844Z</time></trkpt><trkpt lat="42.1717967" lon="14.6083417"><ele>112.0</ele><time>2026-03-25T11:26:33.844Z</time></trkpt><trkpt lat="42.1718417" lon="14.608405"><ele>111.99999999999999</ele><time>2026-03-25T11:26:34.844Z</time></trkpt><trkpt lat="42.1719267" lon="14.6085283"><ele>111.99999999999999</ele><time>2026-03-25T11:26:36.844Z</time></trkpt><trkpt lat="42.17202" lon="14.608625"><ele>112.0</ele><time>2026-03-25T11:26:38.844Z</time></trkpt><trkpt lat="42.1721183" lon="14.6087233"><ele>112.0</ele><time>2026-03-25T11:26:40.845Z</time></trkpt><trkpt lat="42.1722117" lon="14.6088217"><ele>111.0</ele><time>2026-03-25T11:26:42.844Z</time></trkpt><trkpt lat="42.1722967" lon="14.6089283"><ele>110.0</ele><time>2026-03-25T11:26:44.844Z</time></trkpt><trkpt lat="42.1723783" lon="14.6090483"><ele>109.0</ele><time>2026-03-25T11:26:46.844Z</time></trkpt><trkpt lat="42.1724617" lon="14.6091733"><ele>108.0</ele><time>2026-03-25T11:26:48.844Z</time></trkpt><trkpt lat="42.1725467" lon="14.6093033"><ele>108.0</ele><time>2026-03-25T11:26:50.845Z</time></trkpt><trkpt lat="42.172635" lon="14.60942"><ele>108.00000000000001</ele><time>2026-03-25T11:26:52.844Z</time></trkpt><trkpt lat="42.1727283" lon="14.6095267"><ele>108.00000000000001</ele><time>2026-03-25T11:26:54.844Z</time></trkpt><trkpt lat="42.17284" lon="14.6096017"><ele>108.0</ele><time>2026-03-25T11:26:56.844Z</time></trkpt><trkpt lat="42.1729017" lon="14.6096267"><ele>108.0</ele><time>2026-03-25T11:26:57.844Z</time></trkpt><trkpt lat="42.1729667" lon="14.609655"><ele>106.66666666666667</ele><time>2026-03-25T11:26:58.844Z</time></trkpt><trkpt lat="42.1730267" lon="14.6096917"><ele>105.33333333333334</ele><time>2026-03-25T11:26:59.844Z</time></trkpt><trkpt lat="42.1730833" lon="14.6097383"><ele>104.0</ele><time>2026-03-25T11:27:00.844Z</time></trkpt><trkpt lat="42.173135" lon="14.6097917"><ele>102.66666666666667</ele><time>2026-03-25T11:27:01.844Z</time></trkpt><trkpt lat="42.1732283" lon="14.6098933"><ele>101.33333333333334</ele><time>2026-03-25T11:27:03.844Z</time></trkpt><trkpt lat="42.1733183" lon="14.60999"><ele>100.0</ele><time>2026-03-25T11:27:05.845Z</time></trkpt><trkpt lat="42.17341" lon="14.610075"><ele>99.83333333333334</ele><time>2026-03-25T11:27:07.844Z</time></trkpt><trkpt lat="42.1734683" lon="14.61011"><ele>99.66666666666667</ele><time>2026-03-25T11:27:08.844Z</time></trkpt><trkpt lat="42.1735383" lon="14.6101233"><ele>99.5</ele><time>2026-03-25T11:27:09.844Z</time></trkpt><trkpt lat="42.1736133" lon="14.61011"><ele>99.33333333333334</ele><time>2026-03-25T11:27:10.844Z</time></trkpt><trkpt lat="42.1736783" lon="14.6100867"><ele>99.16666666666667</ele><time>2026-03-25T11:27:11.844Z</time></trkpt><trkpt lat="42.1737933" lon="14.6100567"><ele>99.0</ele><time>2026-03-25T11:27:13.844Z</time></trkpt><trkpt lat="42.1738883" lon="14.61006"><ele>99.0</ele><time>2026-03-25T11:27:15.844Z</time></trkpt><trkpt lat="42.174" lon="14.61008"><ele>99.0</ele><time>2026-03-25T11:27:17.845Z</time></trkpt><trkpt lat="42.1740967" lon="14.6101067"><ele>99.0</ele><time>2026-03-25T11:27:19.844Z</time></trkpt><trkpt lat="42.1741917" lon="14.61013"><ele>99.0</ele><time>2026-03-25T11:27:21.844Z</time></trkpt><trkpt lat="42.1742833" lon="14.6101617"><ele>99.0</ele><time>2026-03-25T11:27:23.844Z</time></trkpt><trkpt lat="42.1743783" lon="14.61019"><ele>98.0</ele><time>2026-03-25T11:27:25.844Z</time></trkpt><trkpt lat="42.1744633" lon="14.6102233"><ele>97.0</ele><time>2026-03-25T11:27:27.845Z</time></trkpt><trkpt lat="42.1745433" lon="14.6102533"><ele>96.0</ele><time>2026-03-25T11:27:29.844Z</time></trkpt><trkpt lat="42.17462" lon="14.6102817"><ele>95.0</ele><time>2026-03-25T11:27:31.844Z</time></trkpt><trkpt lat="42.1747" lon="14.6103067"><ele>94.0</ele><time>2026-03-25T11:27:33.844Z</time></trkpt><trkpt lat="42.1747783" lon="14.6103217"><ele>93.0</ele><time>2026-03-25T11:27:35.844Z</time></trkpt><trkpt lat="42.1748667" lon="14.61034"><ele>89.4</ele><time>2026-03-25T11:27:37.845Z</time></trkpt><trkpt lat="42.1749533" lon="14.61036"><ele>85.80000000000001</ele><time>2026-03-25T11:27:39.844Z</time></trkpt><trkpt lat="42.1750383" lon="14.6103783"><ele>82.2</ele><time>2026-03-25T11:27:41.844Z</time></trkpt><trkpt lat="42.1751267" lon="14.6103983"><ele>78.6</ele><time>2026-03-25T11:27:43.845Z</time></trkpt><trkpt lat="42.1752267" lon="14.6104267"><ele>75.0</ele><time>2026-03-25T11:27:45.844Z</time></trkpt><trkpt lat="42.1753167" lon="14.6104583"><ele>75.0</ele><time>2026-03-25T11:27:47.844Z</time></trkpt><trkpt lat="42.1754" lon="14.61047"><ele>75.0</ele><time>2026-03-25T11:27:49.844Z</time></trkpt><trkpt lat="42.1754733" lon="14.6104833"><ele>75.0</ele><time>2026-03-25T11:27:51.844Z</time></trkpt><trkpt lat="42.1755433" lon="14.61049"><ele>75.0</ele><time>2026-03-25T11:27:53.844Z</time></trkpt><trkpt lat="42.1756233" lon="14.6105033"><ele>75.0</ele><time>2026-03-25T11:27:55.844Z</time></trkpt><trkpt lat="42.1757" lon="14.61051"><ele>75.0</ele><time>2026-03-25T11:27:57.844Z</time></trkpt><trkpt lat="42.1757717" lon="14.61053"><ele>73.5</ele><time>2026-03-25T11:27:59.844Z</time></trkpt><trkpt lat="42.1758367" lon="14.61058"><ele>72.0</ele><time>2026-03-25T11:28:01.844Z</time></trkpt><trkpt lat="42.1758983" lon="14.6106483"><ele>70.5</ele><time>2026-03-25T11:28:03.844Z</time></trkpt><trkpt lat="42.1759467" lon="14.6107117"><ele>69.0</ele><time>2026-03-25T11:28:05.844Z</time></trkpt><trkpt lat="42.1760133" lon="14.61079"><ele>67.5</ele><time>2026-03-25T11:28:08.845Z</time></trkpt><trkpt lat="42.17607" lon="14.610865"><ele>66.0</ele><time>2026-03-25T11:28:11.844Z</time></trkpt><trkpt lat="42.176135" lon="14.610955"><ele>66.0</ele><time>2026-03-25T11:28:14.844Z</time></trkpt><trkpt lat="42.1762033" lon="14.6110333"><ele>66.0</ele><time>2026-03-25T11:28:17.844Z</time></trkpt><trkpt lat="42.17626" lon="14.6110983"><ele>66.0</ele><time>2026-03-25T11:28:20.844Z</time></trkpt><trkpt lat="42.1763233" lon="14.6111817"><ele>66.0</ele><time>2026-03-25T11:28:23.844Z</time></trkpt><trkpt lat="42.1763783" lon="14.6112467"><ele>66.0</ele><time>2026-03-25T11:28:25.844Z</time></trkpt><trkpt lat="42.1764317" lon="14.61132"><ele>66.0</ele><time>2026-03-25T11:28:27.845Z</time></trkpt><trkpt lat="42.1764933" lon="14.6113983"><ele>64.6</ele><time>2026-03-25T11:28:29.844Z</time></trkpt><trkpt lat="42.17656" lon="14.6114733"><ele>63.199999999999996</ele><time>2026-03-25T11:28:31.844Z</time></trkpt><trkpt lat="42.1766367" lon="14.61153"><ele>61.800000000000004</ele><time>2026-03-25T11:28:33.844Z</time></trkpt><trkpt lat="42.1767433" lon="14.61154"><ele>60.400000000000006</ele><time>2026-03-25T11:28:35.844Z</time></trkpt><trkpt lat="42.17685" lon="14.611515"><ele>59.0</ele><time>2026-03-25T11:28:37.844Z</time></trkpt><trkpt lat="42.1769533" lon="14.611455"><ele>59.0</ele><time>2026-03-25T11:28:39.844Z</time></trkpt><trkpt lat="42.17706" lon="14.6114267"><ele>59.00000000000001</ele><time>2026-03-25T11:28:41.844Z</time></trkpt><trkpt lat="42.177165" lon="14.6114083"><ele>59.00000000000001</ele><time>2026-03-25T11:28:43.844Z</time></trkpt><trkpt lat="42.1772533" lon="14.6113983"><ele>59.0</ele><time>2026-03-25T11:28:45.845Z</time></trkpt><trkpt lat="42.177335" lon="14.61137"><ele>59.0</ele><time>2026-03-25T11:28:47.844Z</time></trkpt><trkpt lat="42.1774017" lon="14.61135"><ele>58.50000000000001</ele><time>2026-03-25T11:28:49.844Z</time></trkpt><trkpt lat="42.1774783" lon="14.6113367"><ele>58.0</ele><time>2026-03-25T11:28:51.844Z</time></trkpt><trkpt lat="42.1775633" lon="14.61133"><ele>57.5</ele><time>2026-03-25T11:28:53.844Z</time></trkpt><trkpt lat="42.17765" lon="14.61132"><ele>57.0</ele><time>2026-03-25T11:28:55.844Z</time></trkpt><trkpt lat="42.1777433" lon="14.6113067"><ele>56.50000000000001</ele><time>2026-03-25T11:28:57.844Z</time></trkpt><trkpt lat="42.1778267" lon="14.6112983"><ele>56.0</ele><time>2026-03-25T11:28:59.844Z</time></trkpt><trkpt lat="42.1779067" lon="14.611295"><ele>56.0</ele><time>2026-03-25T11:29:01.844Z</time></trkpt><trkpt lat="42.17798" lon="14.6112967"><ele>55.99999999999999</ele><time>2026-03-25T11:29:03.844Z</time></trkpt><trkpt lat="42.17806" lon="14.6113333"><ele>55.99999999999999</ele><time>2026-03-25T11:29:05.844Z</time></trkpt><trkpt lat="42.17814" lon="14.6113983"><ele>56.0</ele><time>2026-03-25T11:29:07.845Z</time></trkpt><trkpt lat="42.178225" lon="14.6114667"><ele>56.0</ele><time>2026-03-25T11:29:09.845Z</time></trkpt><trkpt lat="42.178315" lon="14.611525"><ele>55.8</ele><time>2026-03-25T11:29:11.845Z</time></trkpt><trkpt lat="42.178415" lon="14.611575"><ele>55.599999999999994</ele><time>2026-03-25T11:29:13.845Z</time></trkpt><trkpt lat="42.1785117" lon="14.61161"><ele>55.4</ele><time>2026-03-25T11:29:15.844Z</time></trkpt><trkpt lat="42.17861" lon="14.6116367"><ele>55.2</ele><time>2026-03-25T11:29:17.844Z</time></trkpt><trkpt lat="42.1787033" lon="14.6116633"><ele>55.0</ele><time>2026-03-25T11:29:19.844Z</time></trkpt><trkpt lat="42.1788033" lon="14.61166"><ele>54.99999999999999</ele><time>2026-03-25T11:29:21.844Z</time></trkpt><trkpt lat="42.178895" lon="14.611675"><ele>55.0</ele><time>2026-03-25T11:29:23.844Z</time></trkpt><trkpt lat="42.1789883" lon="14.6116867"><ele>55.0</ele><time>2026-03-25T11:29:25.844Z</time></trkpt><trkpt lat="42.1790733" lon="14.6116933"><ele>55.0</ele><time>2026-03-25T11:29:27.844Z</time></trkpt><trkpt lat="42.1791533" lon="14.6116983"><ele>54.99999999999999</ele><time>2026-03-25T11:29:29.844Z</time></trkpt><trkpt lat="42.1792283" lon="14.6116933"><ele>55.0</ele><time>2026-03-25T11:29:31.844Z</time></trkpt><trkpt lat="42.1793017" lon="14.6116867"><ele>54.8</ele><time>2026-03-25T11:29:33.844Z</time></trkpt><trkpt lat="42.1793833" lon="14.6116767"><ele>54.6</ele><time>2026-03-25T11:29:35.844Z</time></trkpt><trkpt lat="42.1794667" lon="14.6116633"><ele>54.400000000000006</ele><time>2026-03-25T11:29:37.845Z</time></trkpt><trkpt lat="42.1795533" lon="14.6116467"><ele>54.2</ele><time>2026-03-25T11:29:39.844Z</time></trkpt><trkpt lat="42.1796467" lon="14.6116417"><ele>54.0</ele><time>2026-03-25T11:29:41.844Z</time></trkpt><trkpt lat="42.1797517" lon="14.6116517"><ele>53.400000000000006</ele><time>2026-03-25T11:29:43.844Z</time></trkpt><trkpt lat="42.1798517" lon="14.6116767"><ele>52.800000000000004</ele><time>2026-03-25T11:29:45.844Z</time></trkpt><trkpt lat="42.17996" lon="14.61169"><ele>52.2</ele><time>2026-03-25T11:29:47.844Z</time></trkpt><trkpt lat="42.1800717" lon="14.6116817"><ele>51.599999999999994</ele><time>2026-03-25T11:29:49.844Z</time></trkpt><trkpt lat="42.1801783" lon="14.6116433"><ele>51.0</ele><time>2026-03-25T11:29:51.844Z</time></trkpt><trkpt lat="42.1802833" lon="14.6115967"><ele>51.0</ele><time>2026-03-25T11:29:53.844Z</time></trkpt><trkpt lat="42.1803867" lon="14.61153"><ele>51.0</ele><time>2026-03-25T11:29:55.844Z</time></trkpt><trkpt lat="42.180485" lon="14.6114567"><ele>51.0</ele><time>2026-03-25T11:29:57.844Z</time></trkpt><trkpt lat="42.1805683" lon="14.611395"><ele>51.0</ele><time>2026-03-25T11:29:59.844Z</time></trkpt><trkpt lat="42.18064" lon="14.6113367"><ele>51.0</ele><time>2026-03-25T11:30:01.844Z</time></trkpt><trkpt lat="42.1807117" lon="14.6112983"><ele>50.4</ele><time>2026-03-25T11:30:03.844Z</time></trkpt><trkpt lat="42.1807967" lon="14.61125"><ele>49.8</ele><time>2026-03-25T11:30:05.845Z</time></trkpt><trkpt lat="42.1808733" lon="14.6112017"><ele>49.199999999999996</ele><time>2026-03-25T11:30:07.845Z</time></trkpt><trkpt lat="42.180955" lon="14.6111333"><ele>48.599999999999994</ele><time>2026-03-25T11:30:09.844Z</time></trkpt><trkpt lat="42.18104" lon="14.61107"><ele>48.0</ele><time>2026-03-25T11:30:11.844Z</time></trkpt><trkpt lat="42.181125" lon="14.6110183"><ele>48.599999999999994</ele><time>2026-03-25T11:30:13.845Z</time></trkpt><trkpt lat="42.1812083" lon="14.61099"><ele>49.199999999999996</ele><time>2026-03-25T11:30:15.844Z</time></trkpt><trkpt lat="42.1812983" lon="14.6109633"><ele>49.8</ele><time>2026-03-25T11:30:17.844Z</time></trkpt><trkpt lat="42.1813883" lon="14.61093"><ele>50.4</ele><time>2026-03-25T11:30:19.844Z</time></trkpt><trkpt lat="42.1814767" lon="14.6108867"><ele>51.0</ele><time>2026-03-25T11:30:21.844Z</time></trkpt><trkpt lat="42.18156" lon="14.610845"><ele>51.0</ele><time>2026-03-25T11:30:23.845Z</time></trkpt><trkpt lat="42.1816533" lon="14.6108183"><ele>51.0</ele><time>2026-03-25T11:30:25.844Z</time></trkpt><trkpt lat="42.1817667" lon="14.61079"><ele>51.0</ele><time>2026-03-25T11:30:27.845Z</time></trkpt><trkpt lat="42.18183" lon="14.6107767"><ele>51.0</ele><time>2026-03-25T11:30:28.844Z</time></trkpt><trkpt lat="42.1818933" lon="14.6107617"><ele>51.0</ele><time>2026-03-25T11:30:29.844Z</time></trkpt><trkpt lat="42.1820133" lon="14.6107417"><ele>51.0</ele><time>2026-03-25T11:30:31.844Z</time></trkpt><trkpt lat="42.1821367" lon="14.61074"><ele>51.0</ele><time>2026-03-25T11:30:33.844Z</time></trkpt><trkpt lat="42.1822033" lon="14.61074"><ele>51.0</ele><time>2026-03-25T11:30:34.844Z</time></trkpt><trkpt lat="42.18227" lon="14.6107433"><ele>51.0</ele><time>2026-03-25T11:30:35.844Z</time></trkpt><trkpt lat="42.1823383" lon="14.61075"><ele>51.0</ele><time>2026-03-25T11:30:36.845Z</time></trkpt><trkpt lat="42.1824083" lon="14.61076"><ele>51.0</ele><time>2026-03-25T11:30:37.844Z</time></trkpt><trkpt lat="42.182475" lon="14.6107583"><ele>50.666666666666664</ele><time>2026-03-25T11:30:38.844Z</time></trkpt><trkpt lat="42.182605" lon="14.6107633"><ele>50.33333333333333</ele><time>2026-03-25T11:30:40.844Z</time></trkpt><trkpt lat="42.1826683" lon="14.6107683"><ele>50.0</ele><time>2026-03-25T11:30:41.845Z</time></trkpt><trkpt lat="42.182735" lon="14.6107717"><ele>49.666666666666664</ele><time>2026-03-25T11:30:42.844Z</time></trkpt><trkpt lat="42.1828033" lon="14.6107717"><ele>49.33333333333333</ele><time>2026-03-25T11:30:43.845Z</time></trkpt><trkpt lat="42.182875" lon="14.6107767"><ele>49.0</ele><time>2026-03-25T11:30:44.844Z</time></trkpt><trkpt lat="42.1829467" lon="14.610765"><ele>48.99999999999999</ele><time>2026-03-25T11:30:45.845Z</time></trkpt><trkpt lat="42.183025" lon="14.6107683"><ele>49.0</ele><time>2026-03-25T11:30:46.844Z</time></trkpt><trkpt lat="42.183095" lon="14.6107733"><ele>49.0</ele><time>2026-03-25T11:30:47.844Z</time></trkpt><trkpt lat="42.1831567" lon="14.610805"><ele>49.0</ele><time>2026-03-25T11:30:48.844Z</time></trkpt><trkpt lat="42.18328" lon="14.61085"><ele>48.99999999999999</ele><time>2026-03-25T11:30:50.845Z</time></trkpt><trkpt lat="42.183345" lon="14.6108667"><ele>49.0</ele><time>2026-03-25T11:30:51.844Z</time></trkpt><trkpt lat="42.1834117" lon="14.610875"><ele>48.2</ele><time>2026-03-25T11:30:52.844Z</time></trkpt><trkpt lat="42.183475" lon="14.610875"><ele>47.400000000000006</ele><time>2026-03-25T11:30:53.845Z</time></trkpt><trkpt lat="42.183585" lon="14.6108583"><ele>46.6</ele><time>2026-03-25T11:30:55.844Z</time></trkpt><trkpt lat="42.18367" lon="14.610835"><ele>45.8</ele><time>2026-03-25T11:30:57.844Z</time></trkpt><trkpt lat="42.1837617" lon="14.6108167"><ele>45.0</ele><time>2026-03-25T11:30:59.844Z</time></trkpt><trkpt lat="42.1838717" lon="14.6107933"><ele>45.0</ele><time>2026-03-25T11:31:01.844Z</time></trkpt><trkpt lat="42.1839367" lon="14.6107817"><ele>45.0</ele><time>2026-03-25T11:31:02.844Z</time></trkpt><trkpt lat="42.184005" lon="14.6107633"><ele>45.0</ele><time>2026-03-25T11:31:03.844Z</time></trkpt><trkpt lat="42.18408" lon="14.6107367"><ele>45.0</ele><time>2026-03-25T11:31:04.844Z</time></trkpt><trkpt lat="42.1841433" lon="14.61071"><ele>45.0</ele><time>2026-03-25T11:31:05.844Z</time></trkpt><trkpt lat="42.1842583" lon="14.6106567"><ele>45.0</ele><time>2026-03-25T11:31:07.844Z</time></trkpt><trkpt lat="42.184365" lon="14.6106383"><ele>44.666666666666664</ele><time>2026-03-25T11:31:09.844Z</time></trkpt><trkpt lat="42.184455" lon="14.6106683"><ele>44.333333333333336</ele><time>2026-03-25T11:31:11.844Z</time></trkpt><trkpt lat="42.184525" lon="14.6107217"><ele>44.0</ele><time>2026-03-25T11:31:13.845Z</time></trkpt><trkpt lat="42.1845717" lon="14.61081"><ele>43.66666666666667</ele><time>2026-03-25T11:31:16.844Z</time></trkpt><trkpt lat="42.184625" lon="14.6109183"><ele>43.333333333333336</ele><time>2026-03-25T11:31:19.845Z</time></trkpt><trkpt lat="42.184675" lon="14.6109833"><ele>43.0</ele><time>2026-03-25T11:31:21.844Z</time></trkpt><trkpt lat="42.18472" lon="14.6110633"><ele>43.00000000000001</ele><time>2026-03-25T11:31:23.844Z</time></trkpt><trkpt lat="42.1847333" lon="14.6111517"><ele>43.0</ele><time>2026-03-25T11:31:25.844Z</time></trkpt><trkpt lat="42.1847033" lon="14.611235"><ele>43.0</ele><time>2026-03-25T11:31:27.845Z</time></trkpt><trkpt lat="42.1846667" lon="14.6113233"><ele>43.0</ele><time>2026-03-25T11:31:29.844Z</time></trkpt><trkpt lat="42.1846267" lon="14.611405"><ele>43.0</ele><time>2026-03-25T11:31:31.845Z</time></trkpt><trkpt lat="42.1845967" lon="14.6114867"><ele>43.00000000000001</ele><time>2026-03-25T11:31:33.844Z</time></trkpt><trkpt lat="42.18456" lon="14.6115833"><ele>43.0</ele><time>2026-03-25T11:31:37.845Z</time></trkpt><trkpt lat="42.1845333" lon="14.6116767"><ele>43.5</ele><time>2026-03-25T11:31:41.844Z</time></trkpt><trkpt lat="42.1845433" lon="14.611765"><ele>44.0</ele><time>2026-03-25T11:31:44.844Z</time></trkpt><trkpt lat="42.184585" lon="14.6118483"><ele>44.5</ele><time>2026-03-25T11:31:46.844Z</time></trkpt><trkpt lat="42.18463" lon="14.6119117"><ele>45.0</ele><time>2026-03-25T11:31:48.844Z</time></trkpt><trkpt lat="42.1846867" lon="14.6119683"><ele>45.5</ele><time>2026-03-25T11:31:50.845Z</time></trkpt><trkpt lat="42.1847633" lon="14.6120417"><ele>46.0</ele><time>2026-03-25T11:31:52.844Z</time></trkpt><trkpt lat="42.1848383" lon="14.61211"><ele>47.0</ele><time>2026-03-25T11:31:54.844Z</time></trkpt><trkpt lat="42.1849083" lon="14.6121633"><ele>48.0</ele><time>2026-03-25T11:31:56.845Z</time></trkpt><trkpt lat="42.1849833" lon="14.6122183"><ele>49.0</ele><time>2026-03-25T11:31:58.844Z</time></trkpt><trkpt lat="42.1850633" lon="14.612265"><ele>50.0</ele><time>2026-03-25T11:32:00.845Z</time></trkpt><trkpt lat="42.1851467" lon="14.6123083"><ele>50.99999999999999</ele><time>2026-03-25T11:32:02.844Z</time></trkpt><trkpt lat="42.1852367" lon="14.6123583"><ele>52.0</ele><time>2026-03-25T11:32:04.844Z</time></trkpt><trkpt lat="42.185325" lon="14.6124067"><ele>52.0</ele><time>2026-03-25T11:32:06.844Z</time></trkpt><trkpt lat="42.1854067" lon="14.6124683"><ele>52.0</ele><time>2026-03-25T11:32:08.844Z</time></trkpt><trkpt lat="42.1854933" lon="14.6125167"><ele>52.0</ele><time>2026-03-25T11:32:10.844Z</time></trkpt><trkpt lat="42.185605" lon="14.6126033"><ele>52.0</ele><time>2026-03-25T11:32:12.845Z</time></trkpt><trkpt lat="42.18566" lon="14.61266"><ele>52.0</ele><time>2026-03-25T11:32:13.844Z</time></trkpt><trkpt lat="42.1857567" lon="14.6127383"><ele>53.2</ele><time>2026-03-25T11:32:15.844Z</time></trkpt><trkpt lat="42.1858483" lon="14.6128083"><ele>54.400000000000006</ele><time>2026-03-25T11:32:17.844Z</time></trkpt><trkpt lat="42.185935" lon="14.612905"><ele>55.599999999999994</ele><time>2026-03-25T11:32:19.844Z</time></trkpt><trkpt lat="42.18603" lon="14.6129833"><ele>56.8</ele><time>2026-03-25T11:32:21.845Z</time></trkpt><trkpt lat="42.18609" lon="14.6130433"><ele>58.0</ele><time>2026-03-25T11:32:22.844Z</time></trkpt><trkpt lat="42.1861817" lon="14.6131083"><ele>58.0</ele><time>2026-03-25T11:32:24.844Z</time></trkpt><trkpt lat="42.1862683" lon="14.61317"><ele>58.0</ele><time>2026-03-25T11:32:26.845Z</time></trkpt><trkpt lat="42.1863583" lon="14.61325"><ele>58.0</ele><time>2026-03-25T11:32:28.844Z</time></trkpt><trkpt lat="42.1864417" lon="14.613325"><ele>58.0</ele><time>2026-03-25T11:32:30.844Z</time></trkpt><trkpt lat="42.1865283" lon="14.6134117"><ele>58.0</ele><time>2026-03-25T11:32:32.844Z</time></trkpt><trkpt lat="42.1866067" lon="14.613475"><ele>57.8</ele><time>2026-03-25T11:32:34.844Z</time></trkpt><trkpt lat="42.1866867" lon="14.6135583"><ele>57.599999999999994</ele><time>2026-03-25T11:32:36.844Z</time></trkpt><trkpt lat="42.18677" lon="14.613635"><ele>57.400000000000006</ele><time>2026-03-25T11:32:38.844Z</time></trkpt><trkpt lat="42.1868533" lon="14.6137233"><ele>57.2</ele><time>2026-03-25T11:32:40.844Z</time></trkpt><trkpt lat="42.18694" lon="14.613815"><ele>57.0</ele><time>2026-03-25T11:32:42.844Z</time></trkpt><trkpt lat="42.1870383" lon="14.61391"><ele>57.0</ele><time>2026-03-25T11:32:44.844Z</time></trkpt><trkpt lat="42.1871367" lon="14.6139983"><ele>57.0</ele><time>2026-03-25T11:32:46.845Z</time></trkpt><trkpt lat="42.18724" lon="14.6140817"><ele>57.0</ele><time>2026-03-25T11:32:48.844Z</time></trkpt><trkpt lat="42.187295" lon="14.614145"><ele>57.0</ele><time>2026-03-25T11:32:49.844Z</time></trkpt><trkpt lat="42.1873933" lon="14.6142317"><ele>57.0</ele><time>2026-03-25T11:32:51.844Z</time></trkpt><trkpt lat="42.1874917" lon="14.6143033"><ele>57.2</ele><time>2026-03-25T11:32:53.844Z</time></trkpt><trkpt lat="42.18759" lon="14.6143583"><ele>57.400000000000006</ele><time>2026-03-25T11:32:55.844Z</time></trkpt><trkpt lat="42.1876917" lon="14.6143867"><ele>57.599999999999994</ele><time>2026-03-25T11:32:57.845Z</time></trkpt><trkpt lat="42.187785" lon="14.614415"><ele>57.8</ele><time>2026-03-25T11:32:59.844Z</time></trkpt><trkpt lat="42.1878883" lon="14.6144783"><ele>58.0</ele><time>2026-03-25T11:33:01.844Z</time></trkpt><trkpt lat="42.18798" lon="14.6145917"><ele>58.0</ele><time>2026-03-25T11:33:03.844Z</time></trkpt><trkpt lat="42.1880217" lon="14.6146567"><ele>58.0</ele><time>2026-03-25T11:33:04.844Z</time></trkpt><trkpt lat="42.1881117" lon="14.6147583"><ele>58.0</ele><time>2026-03-25T11:33:06.844Z</time></trkpt><trkpt lat="42.1882017" lon="14.61486"><ele>58.0</ele><time>2026-03-25T11:33:08.845Z</time></trkpt><trkpt lat="42.1882967" lon="14.6149667"><ele>58.0</ele><time>2026-03-25T11:33:10.844Z</time></trkpt><trkpt lat="42.1883467" lon="14.615025"><ele>57.33333333333333</ele><time>2026-03-25T11:33:11.844Z</time></trkpt><trkpt lat="42.1883967" lon="14.6150767"><ele>56.666666666666664</ele><time>2026-03-25T11:33:12.845Z</time></trkpt><trkpt lat="42.188445" lon="14.6151483"><ele>56.0</ele><time>2026-03-25T11:33:13.844Z</time></trkpt><trkpt lat="42.1885" lon="14.61522"><ele>55.33333333333333</ele><time>2026-03-25T11:33:14.844Z</time></trkpt><trkpt lat="42.1885567" lon="14.61528"><ele>54.666666666666664</ele><time>2026-03-25T11:33:15.844Z</time></trkpt><trkpt lat="42.1886667" lon="14.615355"><ele>54.0</ele><time>2026-03-25T11:33:17.845Z</time></trkpt><trkpt lat="42.1887783" lon="14.6154367"><ele>54.0</ele><time>2026-03-25T11:33:19.844Z</time></trkpt><trkpt lat="42.188875" lon="14.6154817"><ele>54.00000000000001</ele><time>2026-03-25T11:33:21.844Z</time></trkpt><trkpt lat="42.1889733" lon="14.6155267"><ele>54.00000000000001</ele><time>2026-03-25T11:33:23.844Z</time></trkpt><trkpt lat="42.1890717" lon="14.6155767"><ele>54.0</ele><time>2026-03-25T11:33:25.844Z</time></trkpt><trkpt lat="42.1891533" lon="14.61563"><ele>54.0</ele><time>2026-03-25T11:33:27.844Z</time></trkpt><trkpt lat="42.189235" lon="14.6156883"><ele>50.2</ele><time>2026-03-25T11:33:29.845Z</time></trkpt><trkpt lat="42.1893133" lon="14.6157183"><ele>46.400000000000006</ele><time>2026-03-25T11:33:31.844Z</time></trkpt><trkpt lat="42.1893933" lon="14.6157483"><ele>42.6</ele><time>2026-03-25T11:33:33.845Z</time></trkpt><trkpt lat="42.1894883" lon="14.61578"><ele>38.8</ele><time>2026-03-25T11:33:35.844Z</time></trkpt><trkpt lat="42.189585" lon="14.6158083"><ele>35.0</ele><time>2026-03-25T11:33:37.844Z</time></trkpt><trkpt lat="42.1896983" lon="14.6158367"><ele>35.0</ele><time>2026-03-25T11:33:39.844Z</time></trkpt><trkpt lat="42.1898233" lon="14.61584"><ele>35.0</ele><time>2026-03-25T11:33:41.844Z</time></trkpt><trkpt lat="42.1898983" lon="14.6158583"><ele>35.0</ele><time>2026-03-25T11:33:42.845Z</time></trkpt><trkpt lat="42.1900267" lon="14.61583"><ele>35.0</ele><time>2026-03-25T11:33:44.844Z</time></trkpt><trkpt lat="42.1900933" lon="14.61582"><ele>35.0</ele><time>2026-03-25T11:33:45.844Z</time></trkpt><trkpt lat="42.190155" lon="14.6157983"><ele>34.0</ele><time>2026-03-25T11:33:46.845Z</time></trkpt><trkpt lat="42.1902183" lon="14.6157817"><ele>33.0</ele><time>2026-03-25T11:33:47.844Z</time></trkpt><trkpt lat="42.1903317" lon="14.6157717"><ele>32.0</ele><time>2026-03-25T11:33:49.844Z</time></trkpt><trkpt lat="42.190435" lon="14.6157633"><ele>31.0</ele><time>2026-03-25T11:33:51.844Z</time></trkpt><trkpt lat="42.19054" lon="14.6157733"><ele>30.0</ele><time>2026-03-25T11:33:53.845Z</time></trkpt><trkpt lat="42.1906467" lon="14.6158167"><ele>28.6</ele><time>2026-03-25T11:33:55.844Z</time></trkpt><trkpt lat="42.1907083" lon="14.6158467"><ele>27.2</ele><time>2026-03-25T11:33:56.844Z</time></trkpt><trkpt lat="42.19077" lon="14.6158683"><ele>25.799999999999997</ele><time>2026-03-25T11:33:57.844Z</time></trkpt><trkpt lat="42.19089" lon="14.6158917"><ele>24.4</ele><time>2026-03-25T11:33:59.844Z</time></trkpt><trkpt lat="42.1909983" lon="14.61588"><ele>23.0</ele><time>2026-03-25T11:34:01.845Z</time></trkpt><trkpt lat="42.19111" lon="14.6158933"><ele>23.0</ele><time>2026-03-25T11:34:03.845Z</time></trkpt><trkpt lat="42.1912017" lon="14.615925"><ele>23.0</ele><time>2026-03-25T11:34:05.844Z</time></trkpt><trkpt lat="42.1912833" lon="14.6160033"><ele>23.0</ele><time>2026-03-25T11:34:07.844Z</time></trkpt><trkpt lat="42.19132" lon="14.6160817"><ele>23.0</ele><time>2026-03-25T11:34:08.844Z</time></trkpt><trkpt lat="42.1913733" lon="14.6162217"><ele>23.0</ele><time>2026-03-25T11:34:10.844Z</time></trkpt><trkpt lat="42.19143" lon="14.616355"><ele>22.25</ele><time>2026-03-25T11:34:12.844Z</time></trkpt><trkpt lat="42.1914683" lon="14.616435"><ele>21.5</ele><time>2026-03-25T11:34:13.844Z</time></trkpt><trkpt lat="42.1915483" lon="14.6165683"><ele>20.75</ele><time>2026-03-25T11:34:15.844Z</time></trkpt><trkpt lat="42.1916333" lon="14.61671"><ele>20.0</ele><time>2026-03-25T11:34:17.844Z</time></trkpt><trkpt lat="42.1917167" lon="14.6168283"><ele>20.0</ele><time>2026-03-25T11:34:19.844Z</time></trkpt><trkpt lat="42.1918017" lon="14.61693"><ele>20.0</ele><time>2026-03-25T11:34:21.845Z</time></trkpt><trkpt lat="42.1918833" lon="14.6170333"><ele>20.0</ele><time>2026-03-25T11:34:23.844Z</time></trkpt><trkpt lat="42.1919667" lon="14.6171433"><ele>20.0</ele><time>2026-03-25T11:34:25.845Z</time></trkpt><trkpt lat="42.19204" lon="14.6172517"><ele>20.5</ele><time>2026-03-25T11:34:27.845Z</time></trkpt><trkpt lat="42.1921117" lon="14.6173617"><ele>21.0</ele><time>2026-03-25T11:34:29.844Z</time></trkpt><trkpt lat="42.1922017" lon="14.617445"><ele>21.5</ele><time>2026-03-25T11:34:31.844Z</time></trkpt><trkpt lat="42.1923" lon="14.61752"><ele>22.0</ele><time>2026-03-25T11:34:33.844Z</time></trkpt><trkpt lat="42.1924183" lon="14.6175583"><ele>22.0</ele><time>2026-03-25T11:34:35.844Z</time></trkpt><trkpt lat="42.1925333" lon="14.617565"><ele>22.0</ele><time>2026-03-25T11:34:37.844Z</time></trkpt><trkpt lat="42.1926417" lon="14.61754"><ele>22.0</ele><time>2026-03-25T11:34:39.844Z</time></trkpt><trkpt lat="42.19274" lon="14.6174867"><ele>22.0</ele><time>2026-03-25T11:34:41.845Z</time></trkpt><trkpt lat="42.1928417" lon="14.6174317"><ele>22.0</ele><time>2026-03-25T11:34:43.844Z</time></trkpt><trkpt lat="42.1929433" lon="14.61738"><ele>22.0</ele><time>2026-03-25T11:34:45.845Z</time></trkpt><trkpt lat="42.1930417" lon="14.617325"><ele>22.0</ele><time>2026-03-25T11:34:47.845Z</time></trkpt><trkpt lat="42.19311" lon="14.6173133"><ele>22.0</ele><time>2026-03-25T11:34:48.844Z</time></trkpt><trkpt lat="42.193225" lon="14.6172733"><ele>22.0</ele><time>2026-03-25T11:34:50.845Z</time></trkpt><trkpt lat="42.193335" lon="14.6172183"><ele>22.0</ele><time>2026-03-25T11:34:52.844Z</time></trkpt><trkpt lat="42.193455" lon="14.6171967"><ele>21.200000000000003</ele><time>2026-03-25T11:34:54.844Z</time></trkpt><trkpt lat="42.1935617" lon="14.617235"><ele>20.400000000000002</ele><time>2026-03-25T11:34:56.844Z</time></trkpt><trkpt lat="42.193635" lon="14.6173367"><ele>19.6</ele><time>2026-03-25T11:34:58.844Z</time></trkpt><trkpt lat="42.193655" lon="14.617455"><ele>18.8</ele><time>2026-03-25T11:35:00.844Z</time></trkpt><trkpt lat="42.1936633" lon="14.6175967"><ele>18.0</ele><time>2026-03-25T11:35:02.844Z</time></trkpt><trkpt lat="42.19367" lon="14.6177317"><ele>20.25</ele><time>2026-03-25T11:35:04.844Z</time></trkpt><trkpt lat="42.193675" lon="14.61789"><ele>22.5</ele><time>2026-03-25T11:35:06.844Z</time></trkpt><trkpt lat="42.1936833" lon="14.6180417"><ele>24.75</ele><time>2026-03-25T11:35:08.845Z</time></trkpt><trkpt lat="42.1937117" lon="14.6182"><ele>27.0</ele><time>2026-03-25T11:35:10.844Z</time></trkpt><trkpt lat="42.193725" lon="14.6183567"><ele>27.0</ele><time>2026-03-25T11:35:12.844Z</time></trkpt><trkpt lat="42.1937433" lon="14.6184967"><ele>27.000000000000004</ele><time>2026-03-25T11:35:14.844Z</time></trkpt><trkpt lat="42.19376" lon="14.6186433"><ele>27.000000000000004</ele><time>2026-03-25T11:35:16.844Z</time></trkpt><trkpt lat="42.1937767" lon="14.6187983"><ele>27.0</ele><time>2026-03-25T11:35:18.844Z</time></trkpt><trkpt lat="42.1938067" lon="14.61895"><ele>27.0</ele><time>2026-03-25T11:35:20.844Z</time></trkpt><trkpt lat="42.1938367" lon="14.6190833"><ele>28.400000000000002</ele><time>2026-03-25T11:35:22.845Z</time></trkpt><trkpt lat="42.1938733" lon="14.6192167"><ele>29.800000000000004</ele><time>2026-03-25T11:35:24.845Z</time></trkpt><trkpt lat="42.19391" lon="14.6193533"><ele>31.2</ele><time>2026-03-25T11:35:26.844Z</time></trkpt><trkpt lat="42.1939533" lon="14.6194933"><ele>32.6</ele><time>2026-03-25T11:35:28.844Z</time></trkpt><trkpt lat="42.193995" lon="14.6196233"><ele>34.0</ele><time>2026-03-25T11:35:30.845Z</time></trkpt><trkpt lat="42.1940283" lon="14.6197467"><ele>29.8</ele><time>2026-03-25T11:35:32.845Z</time></trkpt><trkpt lat="42.1940617" lon="14.6198733"><ele>25.599999999999998</ele><time>2026-03-25T11:35:34.844Z</time></trkpt><trkpt lat="42.1941" lon="14.6199967"><ele>21.4</ele><time>2026-03-25T11:35:36.844Z</time></trkpt><trkpt lat="42.194145" lon="14.62014"><ele>17.2</ele><time>2026-03-25T11:35:38.845Z</time></trkpt><trkpt lat="42.1941833" lon="14.6202783"><ele>13.0</ele><time>2026-03-25T11:35:40.845Z</time></trkpt><trkpt lat="42.1942133" lon="14.62042"><ele>13.0</ele><time>2026-03-25T11:35:42.844Z</time></trkpt><trkpt lat="42.19425" lon="14.62056"><ele>13.0</ele><time>2026-03-25T11:35:44.844Z</time></trkpt><trkpt lat="42.19429" lon="14.6206983"><ele>13.0</ele><time>2026-03-25T11:35:46.844Z</time></trkpt><trkpt lat="42.194325" lon="14.6208383"><ele>13.0</ele><time>2026-03-25T11:35:48.844Z</time></trkpt><trkpt lat="42.1943667" lon="14.6209817"><ele>13.0</ele><time>2026-03-25T11:35:50.844Z</time></trkpt><trkpt lat="42.1944117" lon="14.6211233"><ele>13.2</ele><time>2026-03-25T11:35:52.845Z</time></trkpt><trkpt lat="42.194455" lon="14.6212617"><ele>13.4</ele><time>2026-03-25T11:35:54.844Z</time></trkpt><trkpt lat="42.19451" lon="14.6214017"><ele>13.599999999999998</ele><time>2026-03-25T11:35:56.844Z</time></trkpt><trkpt lat="42.1945733" lon="14.6215233"><ele>13.799999999999999</ele><time>2026-03-25T11:35:58.844Z</time></trkpt><trkpt lat="42.19464" lon="14.6216417"><ele>14.0</ele><time>2026-03-25T11:36:00.845Z</time></trkpt><trkpt lat="42.1947167" lon="14.6217583"><ele>14.0</ele><time>2026-03-25T11:36:02.844Z</time></trkpt><trkpt lat="42.1947867" lon="14.6218733"><ele>14.0</ele><time>2026-03-25T11:36:04.844Z</time></trkpt><trkpt lat="42.19486" lon="14.6219983"><ele>14.0</ele><time>2026-03-25T11:36:06.845Z</time></trkpt><trkpt lat="42.194935" lon="14.6221033"><ele>14.0</ele><time>2026-03-25T11:36:08.844Z</time></trkpt><trkpt lat="42.1950067" lon="14.6222267"><ele>13.2</ele><time>2026-03-25T11:36:10.844Z</time></trkpt><trkpt lat="42.195075" lon="14.6223383"><ele>12.399999999999999</ele><time>2026-03-25T11:36:12.844Z</time></trkpt><trkpt lat="42.1951483" lon="14.6224417"><ele>11.6</ele><time>2026-03-25T11:36:14.844Z</time></trkpt><trkpt lat="42.1952017" lon="14.622585"><ele>10.8</ele><time>2026-03-25T11:36:16.844Z</time></trkpt><trkpt lat="42.195235" lon="14.6226617"><ele>10.0</ele><time>2026-03-25T11:36:17.844Z</time></trkpt><trkpt lat="42.1952883" lon="14.6227917"><ele>10.6</ele><time>2026-03-25T11:36:19.845Z</time></trkpt><trkpt lat="42.1953317" lon="14.62292"><ele>11.2</ele><time>2026-03-25T11:36:21.844Z</time></trkpt><trkpt lat="42.195365" lon="14.6230567"><ele>11.8</ele><time>2026-03-25T11:36:23.844Z</time></trkpt><trkpt lat="42.19539" lon="14.623185"><ele>12.4</ele><time>2026-03-25T11:36:25.844Z</time></trkpt><trkpt lat="42.19541" lon="14.62331"><ele>13.0</ele><time>2026-03-25T11:36:27.844Z</time></trkpt><trkpt lat="42.1954283" lon="14.62343"><ele>13.0</ele><time>2026-03-25T11:36:29.844Z</time></trkpt><trkpt lat="42.1954483" lon="14.6235533"><ele>13.0</ele><time>2026-03-25T11:36:31.844Z</time></trkpt><trkpt lat="42.1954767" lon="14.6237"><ele>13.0</ele><time>2026-03-25T11:36:33.844Z</time></trkpt><trkpt lat="42.1955033" lon="14.6238517"><ele>13.0</ele><time>2026-03-25T11:36:35.845Z</time></trkpt><trkpt lat="42.19554" lon="14.6240233"><ele>12.75</ele><time>2026-03-25T11:36:37.844Z</time></trkpt><trkpt lat="42.1955733" lon="14.6241567"><ele>12.5</ele><time>2026-03-25T11:36:39.844Z</time></trkpt><trkpt lat="42.1955917" lon="14.624305"><ele>12.25</ele><time>2026-03-25T11:36:41.844Z</time></trkpt><trkpt lat="42.19562" lon="14.62445"><ele>12.0</ele><time>2026-03-25T11:36:43.845Z</time></trkpt><trkpt lat="42.1956517" lon="14.624615"><ele>11.4</ele><time>2026-03-25T11:36:45.844Z</time></trkpt><trkpt lat="42.1956783" lon="14.6247733"><ele>10.799999999999999</ele><time>2026-03-25T11:36:47.844Z</time></trkpt><trkpt lat="42.1956933" lon="14.62493"><ele>10.2</ele><time>2026-03-25T11:36:49.844Z</time></trkpt><trkpt lat="42.1957033" lon="14.6250733"><ele>9.6</ele><time>2026-03-25T11:36:51.845Z</time></trkpt><trkpt lat="42.1957033" lon="14.6252067"><ele>9.0</ele><time>2026-03-25T11:36:53.844Z</time></trkpt><trkpt lat="42.1957083" lon="14.62535"><ele>8.8</ele><time>2026-03-25T11:36:55.845Z</time></trkpt><trkpt lat="42.1957083" lon="14.625505"><ele>8.600000000000001</ele><time>2026-03-25T11:36:57.844Z</time></trkpt><trkpt lat="42.1957083" lon="14.6256383"><ele>8.4</ele><time>2026-03-25T11:36:59.844Z</time></trkpt><trkpt lat="42.1957017" lon="14.6257633"><ele>8.200000000000001</ele><time>2026-03-25T11:37:01.844Z</time></trkpt><trkpt lat="42.1956917" lon="14.625885"><ele>8.0</ele><time>2026-03-25T11:37:03.845Z</time></trkpt><trkpt lat="42.1956567" lon="14.6260217"><ele>8.200000000000001</ele><time>2026-03-25T11:37:05.844Z</time></trkpt><trkpt lat="42.1955883" lon="14.62612"><ele>8.4</ele><time>2026-03-25T11:37:07.844Z</time></trkpt><trkpt lat="42.1955217" lon="14.62622"><ele>8.600000000000001</ele><time>2026-03-25T11:37:09.845Z</time></trkpt><trkpt lat="42.1954633" lon="14.6263267"><ele>8.8</ele><time>2026-03-25T11:37:11.844Z</time></trkpt><trkpt lat="42.19541" lon="14.62643"><ele>9.0</ele><time>2026-03-25T11:37:13.844Z</time></trkpt><trkpt lat="42.195365" lon="14.6265217"><ele>9.0</ele><time>2026-03-25T11:37:15.844Z</time></trkpt><trkpt lat="42.1953233" lon="14.6265983"><ele>9.0</ele><time>2026-03-25T11:37:17.845Z</time></trkpt><trkpt lat="42.1952817" lon="14.6266933"><ele>9.0</ele><time>2026-03-25T11:37:19.844Z</time></trkpt><trkpt lat="42.195255" lon="14.6268"><ele>9.0</ele><time>2026-03-25T11:37:21.844Z</time></trkpt><trkpt lat="42.1952433" lon="14.6269133"><ele>9.0</ele><time>2026-03-25T11:37:23.844Z</time></trkpt><trkpt lat="42.19525" lon="14.627035"><ele>9.0</ele><time>2026-03-25T11:37:25.844Z</time></trkpt><trkpt lat="42.1952533" lon="14.6271267"><ele>9.0</ele><time>2026-03-25T11:37:27.844Z</time></trkpt><trkpt lat="42.1952417" lon="14.6272367"><ele>9.0</ele><time>2026-03-25T11:37:30.844Z</time></trkpt><trkpt lat="42.1952483" lon="14.62733"><ele>9.0</ele><time>2026-03-25T11:37:32.844Z</time></trkpt><trkpt lat="42.1952883" lon="14.6274533"><ele>9.0</ele><time>2026-03-25T11:37:34.844Z</time></trkpt><trkpt lat="42.1953483" lon="14.627595"><ele>9.0</ele><time>2026-03-25T11:37:36.845Z</time></trkpt><trkpt lat="42.1953817" lon="14.6276683"><ele>9.0</ele><time>2026-03-25T11:37:37.844Z</time></trkpt><trkpt lat="42.195455" lon="14.6277933"><ele>8.8</ele><time>2026-03-25T11:37:39.844Z</time></trkpt><trkpt lat="42.1955217" lon="14.6279433"><ele>8.600000000000001</ele><time>2026-03-25T11:37:41.845Z</time></trkpt><trkpt lat="42.1955733" lon="14.6280617"><ele>8.4</ele><time>2026-03-25T11:37:43.845Z</time></trkpt><trkpt lat="42.195625" lon="14.628195"><ele>8.200000000000001</ele><time>2026-03-25T11:37:45.844Z</time></trkpt><trkpt lat="42.195685" lon="14.628305"><ele>8.0</ele><time>2026-03-25T11:37:47.844Z</time></trkpt><trkpt lat="42.1957417" lon="14.6283983"><ele>7.333333333333333</ele><time>2026-03-25T11:37:49.844Z</time></trkpt><trkpt lat="42.195785" lon="14.62851"><ele>6.666666666666666</ele><time>2026-03-25T11:37:51.844Z</time></trkpt><trkpt lat="42.1958167" lon="14.6286083"><ele>6.0</ele><time>2026-03-25T11:37:53.844Z</time></trkpt><trkpt lat="42.19586" lon="14.6287017"><ele>5.333333333333333</ele><time>2026-03-25T11:37:55.844Z</time></trkpt><trkpt lat="42.1959033" lon="14.62879"><ele>4.666666666666666</ele><time>2026-03-25T11:37:57.844Z</time></trkpt><trkpt lat="42.1959483" lon="14.6288717"><ele>4.0</ele><time>2026-03-25T11:37:59.844Z</time></trkpt><trkpt lat="42.195995" lon="14.6289467"><ele>3.9999999999999996</ele><time>2026-03-25T11:38:01.845Z</time></trkpt><trkpt lat="42.1960433" lon="14.629035"><ele>4.0</ele><time>2026-03-25T11:38:03.845Z</time></trkpt><trkpt lat="42.196075" lon="14.62915"><ele>4.0</ele><time>2026-03-25T11:38:05.844Z</time></trkpt><trkpt lat="42.196055" lon="14.6292433"><ele>4.0</ele><time>2026-03-25T11:38:07.844Z</time></trkpt><trkpt lat="42.1960217" lon="14.62933"><ele>3.9999999999999996</ele><time>2026-03-25T11:38:09.844Z</time></trkpt><trkpt lat="42.1959833" lon="14.6294133"><ele>4.0</ele><time>2026-03-25T11:38:11.844Z</time></trkpt><trkpt lat="42.1959417" lon="14.6295117"><ele>3.833333333333333</ele><time>2026-03-25T11:38:13.844Z</time></trkpt><trkpt lat="42.195905" lon="14.6296117"><ele>3.6666666666666665</ele><time>2026-03-25T11:38:15.844Z</time></trkpt><trkpt lat="42.1958733" lon="14.62972"><ele>3.5</ele><time>2026-03-25T11:38:17.844Z</time></trkpt><trkpt lat="42.1958433" lon="14.62983"><ele>3.333333333333333</ele><time>2026-03-25T11:38:19.844Z</time></trkpt><trkpt lat="42.1958117" lon="14.6299217"><ele>3.1666666666666665</ele><time>2026-03-25T11:38:21.844Z</time></trkpt><trkpt lat="42.1957717" lon="14.6299983"><ele>3.0</ele><time>2026-03-25T11:38:23.844Z</time></trkpt><trkpt lat="42.195735" lon="14.6300967"><ele>3.0</ele><time>2026-03-25T11:38:25.844Z</time></trkpt><trkpt lat="42.1957017" lon="14.6301967"><ele>3.0</ele><time>2026-03-25T11:38:27.844Z</time></trkpt><trkpt lat="42.1956717" lon="14.6303033"><ele>3.0</ele><time>2026-03-25T11:38:29.844Z</time></trkpt><trkpt lat="42.19564" lon="14.6304233"><ele>3.0</ele><time>2026-03-25T11:38:31.844Z</time></trkpt><trkpt lat="42.1956117" lon="14.6305333"><ele>3.0</ele><time>2026-03-25T11:38:33.844Z</time></trkpt><trkpt lat="42.1955817" lon="14.6306517"><ele>3.0</ele><time>2026-03-25T11:38:35.845Z</time></trkpt><trkpt lat="42.1955517" lon="14.63077"><ele>3.1666666666666665</ele><time>2026-03-25T11:38:37.844Z</time></trkpt><trkpt lat="42.1955167" lon="14.6308883"><ele>3.333333333333333</ele><time>2026-03-25T11:38:39.844Z</time></trkpt><trkpt lat="42.195485" lon="14.6309983"><ele>3.5</ele><time>2026-03-25T11:38:41.844Z</time></trkpt><trkpt lat="42.1954517" lon="14.6311067"><ele>3.6666666666666665</ele><time>2026-03-25T11:38:43.845Z</time></trkpt><trkpt lat="42.19543" lon="14.6312233"><ele>3.833333333333333</ele><time>2026-03-25T11:38:45.844Z</time></trkpt><trkpt lat="42.1954067" lon="14.6313333"><ele>4.0</ele><time>2026-03-25T11:38:47.844Z</time></trkpt><trkpt lat="42.1953767" lon="14.6314633"><ele>3.9999999999999996</ele><time>2026-03-25T11:38:49.844Z</time></trkpt><trkpt lat="42.1953467" lon="14.6315817"><ele>4.0</ele><time>2026-03-25T11:38:51.844Z</time></trkpt><trkpt lat="42.1953117" lon="14.6316833"><ele>4.0</ele><time>2026-03-25T11:38:53.844Z</time></trkpt><trkpt lat="42.1952767" lon="14.63178"><ele>4.0</ele><time>2026-03-25T11:38:55.845Z</time></trkpt><trkpt lat="42.1952433" lon="14.6319017"><ele>3.9999999999999996</ele><time>2026-03-25T11:38:57.844Z</time></trkpt><trkpt lat="42.195205" lon="14.6320183"><ele>4.0</ele><time>2026-03-25T11:38:59.844Z</time></trkpt><trkpt lat="42.1951817" lon="14.6321383"><ele>4.166666666666666</ele><time>2026-03-25T11:39:01.845Z</time></trkpt><trkpt lat="42.1951517" lon="14.63225"><ele>4.333333333333333</ele><time>2026-03-25T11:39:03.844Z</time></trkpt><trkpt lat="42.19512" lon="14.63236"><ele>4.5</ele><time>2026-03-25T11:39:05.844Z</time></trkpt><trkpt lat="42.195085" lon="14.6324733"><ele>4.666666666666667</ele><time>2026-03-25T11:39:07.844Z</time></trkpt><trkpt lat="42.1950483" lon="14.6325783"><ele>4.833333333333334</ele><time>2026-03-25T11:39:09.844Z</time></trkpt><trkpt lat="42.1950183" lon="14.6326833"><ele>5.0</ele><time>2026-03-25T11:39:11.844Z</time></trkpt><trkpt lat="42.1949833" lon="14.632795"><ele>5.166666666666667</ele><time>2026-03-25T11:39:13.845Z</time></trkpt><trkpt lat="42.1949517" lon="14.63291"><ele>5.333333333333334</ele><time>2026-03-25T11:39:15.845Z</time></trkpt><trkpt lat="42.1949233" lon="14.6330217"><ele>5.5</ele><time>2026-03-25T11:39:17.844Z</time></trkpt><trkpt lat="42.19489" lon="14.6331367"><ele>5.666666666666667</ele><time>2026-03-25T11:39:19.845Z</time></trkpt><trkpt lat="42.1948583" lon="14.6332433"><ele>5.833333333333333</ele><time>2026-03-25T11:39:21.844Z</time></trkpt><trkpt lat="42.1948233" lon="14.6333483"><ele>6.0</ele><time>2026-03-25T11:39:23.845Z</time></trkpt><trkpt lat="42.194795" lon="14.633455"><ele>6.0</ele><time>2026-03-25T11:39:25.844Z</time></trkpt><trkpt lat="42.1947617" lon="14.6335567"><ele>6.0</ele><time>2026-03-25T11:39:27.844Z</time></trkpt><trkpt lat="42.194735" lon="14.6336717"><ele>6.0</ele><time>2026-03-25T11:39:29.844Z</time></trkpt><trkpt lat="42.1947083" lon="14.6337867"><ele>6.0</ele><time>2026-03-25T11:39:31.844Z</time></trkpt><trkpt lat="42.1946767" lon="14.633905"><ele>6.0</ele><time>2026-03-25T11:39:33.844Z</time></trkpt><trkpt lat="42.1946467" lon="14.6340017"><ele>6.0</ele><time>2026-03-25T11:39:35.844Z</time></trkpt><trkpt lat="42.1946083" lon="14.6340883"><ele>5.666666666666667</ele><time>2026-03-25T11:39:37.844Z</time></trkpt><trkpt lat="42.1945683" lon="14.6341933"><ele>5.333333333333333</ele><time>2026-03-25T11:39:39.845Z</time></trkpt><trkpt lat="42.1945383" lon="14.6343017"><ele>5.0</ele><time>2026-03-25T11:39:41.844Z</time></trkpt><trkpt lat="42.1945133" lon="14.6344083"><ele>4.666666666666666</ele><time>2026-03-25T11:39:43.845Z</time></trkpt><trkpt lat="42.1944867" lon="14.6345117"><ele>4.333333333333333</ele><time>2026-03-25T11:39:45.844Z</time></trkpt><trkpt lat="42.1944633" lon="14.634615"><ele>4.0</ele><time>2026-03-25T11:39:47.844Z</time></trkpt><trkpt lat="42.1944383" lon="14.63472"><ele>3.6666666666666665</ele><time>2026-03-25T11:39:49.844Z</time></trkpt><trkpt lat="42.19441" lon="14.6348133"><ele>3.333333333333333</ele><time>2026-03-25T11:39:51.844Z</time></trkpt><trkpt lat="42.1943817" lon="14.6349117"><ele>3.0</ele><time>2026-03-25T11:39:53.844Z</time></trkpt><trkpt lat="42.1943583" lon="14.63501"><ele>2.6666666666666665</ele><time>2026-03-25T11:39:55.844Z</time></trkpt><trkpt lat="42.19434" lon="14.6351117"><ele>2.333333333333333</ele><time>2026-03-25T11:39:57.844Z</time></trkpt><trkpt lat="42.1942917" lon="14.6352217"><ele>2.0</ele><time>2026-03-25T11:39:59.844Z</time></trkpt><trkpt lat="42.19425" lon="14.635325"><ele>1.8333333333333333</ele><time>2026-03-25T11:40:01.845Z</time></trkpt><trkpt lat="42.194225" lon="14.63543"><ele>1.6666666666666665</ele><time>2026-03-25T11:40:03.844Z</time></trkpt><trkpt lat="42.1941933" lon="14.6355267"><ele>1.5</ele><time>2026-03-25T11:40:05.844Z</time></trkpt><trkpt lat="42.1941583" lon="14.63563"><ele>1.3333333333333333</ele><time>2026-03-25T11:40:07.844Z</time></trkpt><trkpt lat="42.1941333" lon="14.6357283"><ele>1.1666666666666665</ele><time>2026-03-25T11:40:09.844Z</time></trkpt><trkpt lat="42.1941067" lon="14.6358317"><ele>1.0</ele><time>2026-03-25T11:40:11.844Z</time></trkpt><trkpt lat="42.1940733" lon="14.63594"><ele>1.0</ele><time>2026-03-25T11:40:13.844Z</time></trkpt><trkpt lat="42.1940433" lon="14.636055"><ele>1.0</ele><time>2026-03-25T11:40:15.844Z</time></trkpt><trkpt lat="42.1940117" lon="14.6361717"><ele>1.0</ele><time>2026-03-25T11:40:17.844Z</time></trkpt><trkpt lat="42.1939883" lon="14.6362933"><ele>1.0</ele><time>2026-03-25T11:40:19.844Z</time></trkpt><trkpt lat="42.193955" lon="14.636405"><ele>1.0</ele><time>2026-03-25T11:40:21.844Z</time></trkpt><trkpt lat="42.1939133" lon="14.6365133"><ele>0.9999999999999999</ele><time>2026-03-25T11:40:23.844Z</time></trkpt><trkpt lat="42.1938733" lon="14.6366117"><ele>1.0</ele><time>2026-03-25T11:40:25.844Z</time></trkpt><trkpt lat="42.1938433" lon="14.6367233"><ele>1.0</ele><time>2026-03-25T11:40:27.844Z</time></trkpt><trkpt lat="42.193815" lon="14.6368367"><ele>1.0</ele><time>2026-03-25T11:40:29.844Z</time></trkpt><trkpt lat="42.1937917" lon="14.63695"><ele>0.9999999999999999</ele><time>2026-03-25T11:40:31.844Z</time></trkpt><trkpt lat="42.19376" lon="14.6370567"><ele>1.0</ele><time>2026-03-25T11:40:33.845Z</time></trkpt><trkpt lat="42.1937217" lon="14.6371767"><ele>0.9999999999999999</ele><time>2026-03-25T11:40:35.844Z</time></trkpt><trkpt lat="42.193695" lon="14.637275"><ele>1.0</ele><time>2026-03-25T11:40:37.845Z</time></trkpt><trkpt lat="42.1936683" lon="14.6373767"><ele>1.0</ele><time>2026-03-25T11:40:39.844Z</time></trkpt><trkpt lat="42.193635" lon="14.6374817"><ele>1.0</ele><time>2026-03-25T11:40:41.844Z</time></trkpt><trkpt lat="42.1936117" lon="14.6375867"><ele>0.9999999999999999</ele><time>2026-03-25T11:40:43.844Z</time></trkpt><trkpt lat="42.193585" lon="14.6377017"><ele>1.0</ele><time>2026-03-25T11:40:45.845Z</time></trkpt><trkpt lat="42.1935583" lon="14.6378017"><ele>0.9999999999999999</ele><time>2026-03-25T11:40:47.844Z</time></trkpt><trkpt lat="42.1935267" lon="14.6379067"><ele>1.0</ele><time>2026-03-25T11:40:49.844Z</time></trkpt><trkpt lat="42.193495" lon="14.6380117"><ele>1.0</ele><time>2026-03-25T11:40:51.844Z</time></trkpt><trkpt lat="42.1934567" lon="14.6381083"><ele>1.0</ele><time>2026-03-25T11:40:53.844Z</time></trkpt><trkpt lat="42.1934233" lon="14.6382133"><ele>0.9999999999999999</ele><time>2026-03-25T11:40:55.844Z</time></trkpt><trkpt lat="42.193415" lon="14.638315"><ele>1.0</ele><time>2026-03-25T11:40:57.845Z</time></trkpt><trkpt lat="42.1934067" lon="14.63841"><ele>0.9999999999999999</ele><time>2026-03-25T11:40:59.844Z</time></trkpt><trkpt lat="42.193385" lon="14.63851"><ele>1.0</ele><time>2026-03-25T11:41:01.844Z</time></trkpt><trkpt lat="42.19336" lon="14.6386233"><ele>1.0</ele><time>2026-03-25T11:41:03.844Z</time></trkpt><trkpt lat="42.193335" lon="14.63874"><ele>1.0</ele><time>2026-03-25T11:41:05.844Z</time></trkpt><trkpt lat="42.1933083" lon="14.6388517"><ele>0.9999999999999999</ele><time>2026-03-25T11:41:07.844Z</time></trkpt><trkpt lat="42.1932817" lon="14.638965"><ele>1.0</ele><time>2026-03-25T11:41:09.845Z</time></trkpt><trkpt lat="42.1932517" lon="14.6390733"><ele>0.9999999999999999</ele><time>2026-03-25T11:41:11.844Z</time></trkpt><trkpt lat="42.1932217" lon="14.63919"><ele>1.0</ele><time>2026-03-25T11:41:13.844Z</time></trkpt><trkpt lat="42.1931917" lon="14.6392967"><ele>1.0</ele><time>2026-03-25T11:41:15.844Z</time></trkpt><trkpt lat="42.193165" lon="14.6394033"><ele>1.0</ele><time>2026-03-25T11:41:17.844Z</time></trkpt><trkpt lat="42.19314" lon="14.6395067"><ele>0.9999999999999999</ele><time>2026-03-25T11:41:19.845Z</time></trkpt><trkpt lat="42.1931383" lon="14.6395917"><ele>1.0</ele><time>2026-03-25T11:41:22.844Z</time></trkpt><trkpt lat="42.1932083" lon="14.6395533"><ele>0.6666666666666666</ele><time>2026-03-25T11:41:26.844Z</time></trkpt><trkpt lat="42.193245" lon="14.6394333"><ele>0.3333333333333333</ele><time>2026-03-25T11:41:29.845Z</time></trkpt><trkpt lat="42.1932683" lon="14.6393517"><ele>0.0</ele><time>2026-03-25T11:41:31.844Z</time></trkpt><trkpt lat="42.1932983" lon="14.6392733"><ele>-0.3333333333333333</ele><time>2026-03-25T11:41:33.844Z</time></trkpt><trkpt lat="42.1933217" lon="14.6391833"><ele>-0.6666666666666666</ele><time>2026-03-25T11:41:37.844Z</time></trkpt><trkpt lat="42.19334" lon="14.6390367"><ele>-1.0</ele><time>2026-03-25T11:41:49.844Z</time></trkpt><trkpt lat="42.193275" lon="14.6390783"><ele>-0.9999999999999999</ele><time>2026-03-25T11:41:54.844Z</time></trkpt><trkpt lat="42.19324" lon="14.6391883"><ele>-1.0</ele><time>2026-03-25T11:41:57.844Z</time></trkpt><trkpt lat="42.193215" lon="14.63928"><ele>-1.0</ele><time>2026-03-25T11:41:59.844Z</time></trkpt><trkpt lat="42.1931833" lon="14.6393733"><ele>-1.0</ele><time>2026-03-25T11:42:01.845Z</time></trkpt><trkpt lat="42.1931583" lon="14.639475"><ele>-0.9999999999999999</ele><time>2026-03-25T11:42:03.844Z</time></trkpt><trkpt lat="42.19313" lon="14.6395817"><ele>-1.0</ele><time>2026-03-25T11:42:05.844Z</time></trkpt><trkpt lat="42.1931" lon="14.6396917"><ele>-0.9999999999999999</ele><time>2026-03-25T11:42:07.845Z</time></trkpt><trkpt lat="42.1930717" lon="14.6397967"><ele>-1.0</ele><time>2026-03-25T11:42:09.844Z</time></trkpt><trkpt lat="42.1930433" lon="14.6399083"><ele>-1.0</ele><time>2026-03-25T11:42:11.844Z</time></trkpt><trkpt lat="42.193015" lon="14.640015"><ele>-1.0</ele><time>2026-03-25T11:42:13.844Z</time></trkpt><trkpt lat="42.1929783" lon="14.6401317"><ele>-0.9999999999999999</ele><time>2026-03-25T11:42:15.844Z</time></trkpt><trkpt lat="42.1929517" lon="14.6402433"><ele>-1.0</ele><time>2026-03-25T11:42:17.844Z</time></trkpt><trkpt lat="42.192925" lon="14.640355"><ele>-0.8333333333333333</ele><time>2026-03-25T11:42:19.845Z</time></trkpt><trkpt lat="42.1929017" lon="14.6404567"><ele>-0.6666666666666666</ele><time>2026-03-25T11:42:21.844Z</time></trkpt><trkpt lat="42.1928733" lon="14.64057"><ele>-0.5</ele><time>2026-03-25T11:42:23.845Z</time></trkpt><trkpt lat="42.19284" lon="14.64069"><ele>-0.3333333333333333</ele><time>2026-03-25T11:42:25.844Z</time></trkpt><trkpt lat="42.192805" lon="14.6408033"><ele>-0.16666666666666666</ele><time>2026-03-25T11:42:27.844Z</time></trkpt><trkpt lat="42.1927717" lon="14.6409117"><ele>0.0</ele><time>2026-03-25T11:42:29.844Z</time></trkpt><trkpt lat="42.192735" lon="14.64101"><ele>0.0</ele><time>2026-03-25T11:42:31.845Z</time></trkpt><trkpt lat="42.192695" lon="14.6411183"><ele>0.0</ele><time>2026-03-25T11:42:33.844Z</time></trkpt><trkpt lat="42.1926633" lon="14.64122"><ele>0.0</ele><time>2026-03-25T11:42:35.845Z</time></trkpt><trkpt lat="42.19263" lon="14.6413283"><ele>0.0</ele><time>2026-03-25T11:42:37.844Z</time></trkpt><trkpt lat="42.1925983" lon="14.6414283"><ele>0.0</ele><time>2026-03-25T11:42:39.844Z</time></trkpt><trkpt lat="42.1925683" lon="14.6415267"><ele>0.0</ele><time>2026-03-25T11:42:41.844Z</time></trkpt><trkpt lat="42.1925383" lon="14.641635"><ele>0.0</ele><time>2026-03-25T11:42:43.845Z</time></trkpt><trkpt lat="42.192515" lon="14.641755"><ele>0.0</ele><time>2026-03-25T11:42:45.844Z</time></trkpt><trkpt lat="42.1924883" lon="14.6418617"><ele>0.0</ele><time>2026-03-25T11:42:47.844Z</time></trkpt><trkpt lat="42.192465" lon="14.6419717"><ele>0.0</ele><time>2026-03-25T11:42:49.844Z</time></trkpt><trkpt lat="42.192435" lon="14.642085"><ele>0.0</ele><time>2026-03-25T11:42:51.845Z</time></trkpt><trkpt lat="42.1924017" lon="14.6421917"><ele>0.0</ele><time>2026-03-25T11:42:53.844Z</time></trkpt><trkpt lat="42.1923717" lon="14.6423"><ele>0.0</ele><time>2026-03-25T11:42:55.845Z</time></trkpt><trkpt lat="42.1923333" lon="14.6424067"><ele>0.0</ele><time>2026-03-25T11:42:57.845Z</time></trkpt><trkpt lat="42.1922867" lon="14.6424983"><ele>0.0</ele><time>2026-03-25T11:42:59.844Z</time></trkpt><trkpt lat="42.1922267" lon="14.6425817"><ele>0.0</ele><time>2026-03-25T11:43:01.844Z</time></trkpt><trkpt lat="42.1921583" lon="14.6426667"><ele>0.0</ele><time>2026-03-25T11:43:03.844Z</time></trkpt><trkpt lat="42.1920867" lon="14.6427533"><ele>0.0</ele><time>2026-03-25T11:43:05.844Z</time></trkpt><trkpt lat="42.1920267" lon="14.642845"><ele>0.0</ele><time>2026-03-25T11:43:07.844Z</time></trkpt><trkpt lat="42.1919633" lon="14.6429283"><ele>0.0</ele><time>2026-03-25T11:43:09.844Z</time></trkpt><trkpt lat="42.1919017" lon="14.6430217"><ele>0.0</ele><time>2026-03-25T11:43:11.844Z</time></trkpt><trkpt lat="42.1918317" lon="14.6431033"><ele>0.0</ele><time>2026-03-25T11:43:13.844Z</time></trkpt><trkpt lat="42.1917667" lon="14.6431783"><ele>0.0</ele><time>2026-03-25T11:43:15.844Z</time></trkpt><trkpt lat="42.1916983" lon="14.6432467"><ele>0.0</ele><time>2026-03-25T11:43:17.844Z</time></trkpt><trkpt lat="42.19163" lon="14.643315"><ele>0.0</ele><time>2026-03-25T11:43:19.844Z</time></trkpt><trkpt lat="42.1915667" lon="14.6433917"><ele>0.0</ele><time>2026-03-25T11:43:21.844Z</time></trkpt><trkpt lat="42.191505" lon="14.6434733"><ele>0.0</ele><time>2026-03-25T11:43:23.845Z</time></trkpt><trkpt lat="42.1914483" lon="14.6435617"><ele>0.0</ele><time>2026-03-25T11:43:25.844Z</time></trkpt><trkpt lat="42.1913983" lon="14.64366"><ele>0.0</ele><time>2026-03-25T11:43:27.844Z</time></trkpt><trkpt lat="42.191345" lon="14.643755"><ele>0.0</ele><time>2026-03-25T11:43:29.844Z</time></trkpt><trkpt lat="42.1912967" lon="14.6438467"><ele>0.3333333333333333</ele><time>2026-03-25T11:43:31.844Z</time></trkpt><trkpt lat="42.1912533" lon="14.64394"><ele>0.6666666666666666</ele><time>2026-03-25T11:43:33.844Z</time></trkpt><trkpt lat="42.1912117" lon="14.6440317"><ele>1.0</ele><time>2026-03-25T11:43:35.844Z</time></trkpt><trkpt lat="42.191165" lon="14.6441217"><ele>1.3333333333333333</ele><time>2026-03-25T11:43:37.844Z</time></trkpt><trkpt lat="42.1911117" lon="14.6441967"><ele>1.6666666666666665</ele><time>2026-03-25T11:43:39.844Z</time></trkpt><trkpt lat="42.19106" lon="14.6442733"><ele>2.0</ele><time>2026-03-25T11:43:41.844Z</time></trkpt><trkpt lat="42.1909867" lon="14.644335"><ele>1.9999999999999998</ele><time>2026-03-25T11:43:43.844Z</time></trkpt><trkpt lat="42.1909083" lon="14.64437"><ele>2.0</ele><time>2026-03-25T11:43:45.845Z</time></trkpt><trkpt lat="42.190825" lon="14.644395"><ele>2.0</ele><time>2026-03-25T11:43:47.844Z</time></trkpt><trkpt lat="42.1907483" lon="14.6444233"><ele>2.0</ele><time>2026-03-25T11:43:49.844Z</time></trkpt><trkpt lat="42.1906683" lon="14.6444467"><ele>1.9999999999999998</ele><time>2026-03-25T11:43:51.845Z</time></trkpt><trkpt lat="42.1905867" lon="14.6444733"><ele>2.0</ele><time>2026-03-25T11:43:53.844Z</time></trkpt><trkpt lat="42.190505" lon="14.6445017"><ele>2.142857142857143</ele><time>2026-03-25T11:43:55.844Z</time></trkpt><trkpt lat="42.1904267" lon="14.64453"><ele>2.2857142857142856</ele><time>2026-03-25T11:43:57.845Z</time></trkpt><trkpt lat="42.19035" lon="14.6445633"><ele>2.4285714285714284</ele><time>2026-03-25T11:43:59.845Z</time></trkpt><trkpt lat="42.19029" lon="14.6445983"><ele>2.571428571428571</ele><time>2026-03-25T11:44:01.844Z</time></trkpt><trkpt lat="42.19024" lon="14.6446583"><ele>2.7142857142857144</ele><time>2026-03-25T11:44:03.844Z</time></trkpt><trkpt lat="42.1902133" lon="14.6447417"><ele>2.8571428571428568</ele><time>2026-03-25T11:44:05.845Z</time></trkpt><trkpt lat="42.190185" lon="14.6448233"><ele>3.0</ele><time>2026-03-25T11:44:07.844Z</time></trkpt><trkpt lat="42.1901567" lon="14.6449033"><ele>3.0</ele><time>2026-03-25T11:44:09.844Z</time></trkpt><trkpt lat="42.1901267" lon="14.6449867"><ele>3.0</ele><time>2026-03-25T11:44:11.844Z</time></trkpt><trkpt lat="42.1900933" lon="14.6451083"><ele>3.0</ele><time>2026-03-25T11:44:14.844Z</time></trkpt><trkpt lat="42.190055" lon="14.6452133"><ele>3.0</ele><time>2026-03-25T11:44:17.844Z</time></trkpt><trkpt lat="42.1900267" lon="14.6453"><ele>3.0</ele><time>2026-03-25T11:44:20.844Z</time></trkpt><trkpt lat="42.1899917" lon="14.645375"><ele>3.0</ele><time>2026-03-25T11:44:23.844Z</time></trkpt><trkpt lat="42.1899467" lon="14.64545"><ele>2.9999999999999996</ele><time>2026-03-25T11:44:26.844Z</time></trkpt><trkpt lat="42.1899133" lon="14.6455233"><ele>3.0</ele><time>2026-03-25T11:44:29.844Z</time></trkpt><trkpt lat="42.189875" lon="14.64562"><ele>3.0</ele><time>2026-03-25T11:44:33.845Z</time></trkpt><trkpt lat="42.1898467" lon="14.6457"><ele>3.0</ele><time>2026-03-25T11:44:36.845Z</time></trkpt><trkpt lat="42.18982" lon="14.6457833"><ele>3.0</ele><time>2026-03-25T11:44:39.844Z</time></trkpt><trkpt lat="42.1897967" lon="14.64588"><ele>2.9999999999999996</ele><time>2026-03-25T11:44:42.844Z</time></trkpt><trkpt lat="42.189775" lon="14.645985"><ele>3.0</ele><time>2026-03-25T11:44:45.845Z</time></trkpt><trkpt lat="42.1897583" lon="14.6461"><ele>3.3333333333333335</ele><time>2026-03-25T11:44:48.845Z</time></trkpt><trkpt lat="42.18976" lon="14.64622"><ele>3.666666666666667</ele><time>2026-03-25T11:44:51.844Z</time></trkpt><trkpt lat="42.1897517" lon="14.6463467"><ele>4.0</ele><time>2026-03-25T11:44:54.844Z</time></trkpt><trkpt lat="42.1897417" lon="14.646435"><ele>4.333333333333334</ele><time>2026-03-25T11:44:56.844Z</time></trkpt><trkpt lat="42.18973" lon="14.64653"><ele>4.666666666666667</ele><time>2026-03-25T11:44:58.844Z</time></trkpt><trkpt lat="42.1897217" lon="14.6466267"><ele>5.0</ele><time>2026-03-25T11:45:00.844Z</time></trkpt><trkpt lat="42.1897217" lon="14.6467117"><ele>5.0</ele><time>2026-03-25T11:45:02.844Z</time></trkpt><trkpt lat="42.1897333" lon="14.6467983"><ele>5.0</ele><time>2026-03-25T11:45:04.844Z</time></trkpt><trkpt lat="42.189745" lon="14.646925"><ele>5.0</ele><time>2026-03-25T11:45:07.844Z</time></trkpt><trkpt lat="42.1897467" lon="14.647015"><ele>5.0</ele><time>2026-03-25T11:45:09.844Z</time></trkpt><trkpt lat="42.1897433" lon="14.647105"><ele>5.0</ele><time>2026-03-25T11:45:11.844Z</time></trkpt><trkpt lat="42.1897383" lon="14.647195"><ele>5.0</ele><time>2026-03-25T11:45:13.844Z</time></trkpt><trkpt lat="42.1897367" lon="14.647285"><ele>5.0</ele><time>2026-03-25T11:45:15.844Z</time></trkpt><trkpt lat="42.1897333" lon="14.64738"><ele>4.857142857142857</ele><time>2026-03-25T11:45:17.844Z</time></trkpt><trkpt lat="42.189735" lon="14.6474717"><ele>4.714285714285714</ele><time>2026-03-25T11:45:19.845Z</time></trkpt><trkpt lat="42.18973" lon="14.64757"><ele>4.571428571428571</ele><time>2026-03-25T11:45:21.845Z</time></trkpt><trkpt lat="42.1897283" lon="14.6476667"><ele>4.428571428571429</ele><time>2026-03-25T11:45:23.844Z</time></trkpt><trkpt lat="42.1897233" lon="14.6477567"><ele>4.285714285714286</ele><time>2026-03-25T11:45:25.844Z</time></trkpt><trkpt lat="42.1897183" lon="14.6478433"><ele>4.142857142857142</ele><time>2026-03-25T11:45:27.845Z</time></trkpt><trkpt lat="42.1897117" lon="14.64793"><ele>4.0</ele><time>2026-03-25T11:45:29.844Z</time></trkpt><trkpt lat="42.18971" lon="14.64803"><ele>4.428571428571429</ele><time>2026-03-25T11:45:31.844Z</time></trkpt><trkpt lat="42.1897083" lon="14.6481283"><ele>4.857142857142857</ele><time>2026-03-25T11:45:33.844Z</time></trkpt><trkpt lat="42.1897033" lon="14.648225"><ele>5.285714285714286</ele><time>2026-03-25T11:45:35.845Z</time></trkpt><trkpt lat="42.1896933" lon="14.64831"><ele>5.714285714285714</ele><time>2026-03-25T11:45:37.844Z</time></trkpt><trkpt lat="42.1896817" lon="14.6484367"><ele>6.142857142857142</ele><time>2026-03-25T11:45:40.844Z</time></trkpt><trkpt lat="42.18968" lon="14.6485233"><ele>6.571428571428571</ele><time>2026-03-25T11:45:42.844Z</time></trkpt><trkpt lat="42.189675" lon="14.6486133"><ele>7.0</ele><time>2026-03-25T11:45:44.844Z</time></trkpt><trkpt lat="42.1896733" lon="14.6487067"><ele>7.571428571428571</ele><time>2026-03-25T11:45:46.845Z</time></trkpt><trkpt lat="42.1896667" lon="14.6487933"><ele>8.142857142857142</ele><time>2026-03-25T11:45:48.844Z</time></trkpt><trkpt lat="42.1896633" lon="14.6488783"><ele>8.714285714285715</ele><time>2026-03-25T11:45:50.844Z</time></trkpt><trkpt lat="42.1896583" lon="14.6489667"><ele>9.285714285714285</ele><time>2026-03-25T11:45:52.844Z</time></trkpt><trkpt lat="42.18965" lon="14.649095"><ele>9.857142857142858</ele><time>2026-03-25T11:45:55.845Z</time></trkpt><trkpt lat="42.18965" lon="14.6491883"><ele>10.428571428571429</ele><time>2026-03-25T11:45:57.844Z</time></trkpt><trkpt lat="42.1896417" lon="14.6492817"><ele>11.0</ele><time>2026-03-25T11:45:59.845Z</time></trkpt><trkpt lat="42.189635" lon="14.649395"><ele>12.571428571428571</ele><time>2026-03-25T11:46:02.844Z</time></trkpt><trkpt lat="42.18963" lon="14.649485"><ele>14.142857142857142</ele><time>2026-03-25T11:46:05.844Z</time></trkpt><trkpt lat="42.18962" lon="14.6495733"><ele>15.714285714285715</ele><time>2026-03-25T11:46:09.844Z</time></trkpt><trkpt lat="42.1896283" lon="14.6496633"><ele>17.285714285714285</ele><time>2026-03-25T11:46:13.844Z</time></trkpt><trkpt lat="42.1895633" lon="14.6496083"><ele>18.857142857142858</ele><time>2026-03-25T11:46:58.845Z</time></trkpt><trkpt lat="42.18949" lon="14.64964"><ele>20.42857142857143</ele><time>2026-03-25T11:47:01.845Z</time></trkpt><trkpt lat="42.1894183" lon="14.6496767"><ele>22.0</ele><time>2026-03-25T11:47:04.844Z</time></trkpt><trkpt lat="42.1893667" lon="14.64973"><ele>22.0</ele><time>2026-03-25T11:47:08.844Z</time></trkpt><trkpt lat="42.1893517" lon="14.6498133"><ele>22.0</ele><time>2026-03-25T11:47:12.844Z</time></trkpt><trkpt lat="42.1893333" lon="14.649915"><ele>22.0</ele><time>2026-03-25T11:47:16.845Z</time></trkpt><trkpt lat="42.1893" lon="14.64999"><ele>22.0</ele><time>2026-03-25T11:47:22.844Z</time></trkpt><trkpt lat="42.18926" lon="14.650065"><ele>22.0</ele><time>2026-03-25T11:47:26.844Z</time></trkpt><trkpt lat="42.1892333" lon="14.6501633"><ele>22.0</ele><time>2026-03-25T11:47:32.844Z</time></trkpt><trkpt lat="42.1891967" lon="14.6502333"><ele>22.0</ele><time>2026-03-25T11:47:36.844Z</time></trkpt><trkpt lat="42.1891867" lon="14.650335"><ele>23.0</ele><time>2026-03-25T11:47:40.844Z</time></trkpt><trkpt lat="42.189175" lon="14.6504217"><ele>24.0</ele><time>2026-03-25T11:47:43.845Z</time></trkpt><trkpt lat="42.1891583" lon="14.6505317"><ele>25.0</ele><time>2026-03-25T11:47:47.844Z</time></trkpt><trkpt lat="42.1891433" lon="14.65063"><ele>26.0</ele><time>2026-03-25T11:47:50.844Z</time></trkpt><trkpt lat="42.1891217" lon="14.6507267"><ele>27.000000000000004</ele><time>2026-03-25T11:47:54.844Z</time></trkpt><trkpt lat="42.189085" lon="14.6508267"><ele>28.0</ele><time>2026-03-25T11:47:58.844Z</time></trkpt><trkpt lat="42.1890417" lon="14.650935"><ele>32.0</ele><time>2026-03-25T11:48:01.844Z</time></trkpt><trkpt lat="42.1889983" lon="14.6510183"><ele>36.0</ele><time>2026-03-25T11:48:04.845Z</time></trkpt><trkpt lat="42.1889717" lon="14.65111"><ele>40.0</ele><time>2026-03-25T11:48:08.844Z</time></trkpt><trkpt lat="42.1889233" lon="14.6512317"><ele>44.0</ele><time>2026-03-25T11:48:13.844Z</time></trkpt><trkpt lat="42.1888417" lon="14.6514"><ele>48.0</ele><time>2026-03-25T11:48:18.844Z</time></trkpt><trkpt lat="42.188815" lon="14.651495"><ele>48.0</ele><time>2026-03-25T11:48:21.845Z</time></trkpt><trkpt lat="42.1887817" lon="14.6515967"><ele>48.0</ele><time>2026-03-25T11:48:25.844Z</time></trkpt><trkpt lat="42.1887467" lon="14.6517083"><ele>48.0</ele><time>2026-03-25T11:48:28.844Z</time></trkpt><trkpt lat="42.188735" lon="14.651825"><ele>48.0</ele><time>2026-03-25T11:48:31.844Z</time></trkpt><trkpt lat="42.18872" lon="14.6519217"><ele>48.0</ele><time>2026-03-25T11:48:33.844Z</time></trkpt><trkpt lat="42.188685" lon="14.6520267"><ele>48.0</ele><time>2026-03-25T11:48:35.845Z</time></trkpt><trkpt lat="42.188655" lon="14.6521033"><ele>47.166666666666664</ele><time>2026-03-25T11:48:36.844Z</time></trkpt><trkpt lat="42.1886017" lon="14.6522117"><ele>46.333333333333336</ele><time>2026-03-25T11:48:38.844Z</time></trkpt><trkpt lat="42.188565" lon="14.6523233"><ele>45.5</ele><time>2026-03-25T11:48:40.845Z</time></trkpt><trkpt lat="42.18853" lon="14.6524217"><ele>44.66666666666667</ele><time>2026-03-25T11:48:43.844Z</time></trkpt><trkpt lat="42.1885083" lon="14.652505"><ele>43.833333333333336</ele><time>2026-03-25T11:48:45.844Z</time></trkpt><trkpt lat="42.188495" lon="14.65261"><ele>43.0</ele><time>2026-03-25T11:48:48.845Z</time></trkpt><trkpt lat="42.1884617" lon="14.6527"><ele>43.0</ele><time>2026-03-25T11:48:51.845Z</time></trkpt><trkpt lat="42.188435" lon="14.6527883"><ele>43.0</ele><time>2026-03-25T11:48:53.845Z</time></trkpt><trkpt lat="42.188415" lon="14.65293"><ele>43.0</ele><time>2026-03-25T11:48:55.844Z</time></trkpt><trkpt lat="42.18837" lon="14.6530017"><ele>43.0</ele><time>2026-03-25T11:48:57.844Z</time></trkpt><trkpt lat="42.1883317" lon="14.6530783"><ele>43.0</ele><time>2026-03-25T11:48:59.844Z</time></trkpt><trkpt lat="42.1882967" lon="14.6531617"><ele>43.0</ele><time>2026-03-25T11:49:01.844Z</time></trkpt><trkpt lat="42.1882667" lon="14.653255"><ele>43.333333333333336</ele><time>2026-03-25T11:49:03.844Z</time></trkpt><trkpt lat="42.188235" lon="14.65334"><ele>43.66666666666667</ele><time>2026-03-25T11:49:05.844Z</time></trkpt><trkpt lat="42.1881933" lon="14.6534433"><ele>44.0</ele><time>2026-03-25T11:49:07.844Z</time></trkpt><trkpt lat="42.188165" lon="14.6535317"><ele>44.333333333333336</ele><time>2026-03-25T11:49:09.844Z</time></trkpt><trkpt lat="42.1881283" lon="14.65361"><ele>44.666666666666664</ele><time>2026-03-25T11:49:11.845Z</time></trkpt><trkpt lat="42.188095" lon="14.6536933"><ele>45.0</ele><time>2026-03-25T11:49:13.844Z</time></trkpt><trkpt lat="42.1880483" lon="14.6538117"><ele>45.0</ele><time>2026-03-25T11:49:15.844Z</time></trkpt><trkpt lat="42.1879967" lon="14.6539283"><ele>45.0</ele><time>2026-03-25T11:49:17.845Z</time></trkpt><trkpt lat="42.1879617" lon="14.6540267"><ele>45.0</ele><time>2026-03-25T11:49:19.845Z</time></trkpt><trkpt lat="42.18792" lon="14.6541317"><ele>45.0</ele><time>2026-03-25T11:49:22.844Z</time></trkpt><trkpt lat="42.1878817" lon="14.6542433"><ele>45.0</ele><time>2026-03-25T11:49:25.844Z</time></trkpt><trkpt lat="42.18784" lon="14.65435"><ele>45.0</ele><time>2026-03-25T11:49:28.844Z</time></trkpt><trkpt lat="42.1877883" lon="14.6544533"><ele>45.0</ele><time>2026-03-25T11:49:31.845Z</time></trkpt><trkpt lat="42.187755" lon="14.6545383"><ele>45.0</ele><time>2026-03-25T11:49:33.844Z</time></trkpt><trkpt lat="42.18773" lon="14.6546683"><ele>45.0</ele><time>2026-03-25T11:49:36.844Z</time></trkpt><trkpt lat="42.1877117" lon="14.6548317"><ele>45.0</ele><time>2026-03-25T11:49:38.844Z</time></trkpt><trkpt lat="42.1876917" lon="14.6549217"><ele>43.2</ele><time>2026-03-25T11:49:39.844Z</time></trkpt><trkpt lat="42.18769" lon="14.6550517"><ele>41.4</ele><time>2026-03-25T11:49:41.844Z</time></trkpt><trkpt lat="42.1876867" lon="14.6551917"><ele>39.6</ele><time>2026-03-25T11:49:43.844Z</time></trkpt><trkpt lat="42.18769" lon="14.6553267"><ele>37.8</ele><time>2026-03-25T11:49:45.845Z</time></trkpt><trkpt lat="42.1876933" lon="14.6554417"><ele>36.0</ele><time>2026-03-25T11:49:47.844Z</time></trkpt><trkpt lat="42.1876717" lon="14.65555"><ele>34.0</ele><time>2026-03-25T11:49:49.844Z</time></trkpt><trkpt lat="42.1876433" lon="14.6556617"><ele>32.0</ele><time>2026-03-25T11:49:51.844Z</time></trkpt><trkpt lat="42.1876267" lon="14.6557717"><ele>30.0</ele><time>2026-03-25T11:49:53.844Z</time></trkpt><trkpt lat="42.1876117" lon="14.6558783"><ele>28.0</ele><time>2026-03-25T11:49:55.845Z</time></trkpt><trkpt lat="42.1875967" lon="14.655975"><ele>26.0</ele><time>2026-03-25T11:49:57.845Z</time></trkpt><trkpt lat="42.18758" lon="14.6560733"><ele>24.0</ele><time>2026-03-25T11:49:59.844Z</time></trkpt><trkpt lat="42.187585" lon="14.65619"><ele>22.833333333333332</ele><time>2026-03-25T11:50:02.845Z</time></trkpt><trkpt lat="42.1875717" lon="14.6562933"><ele>21.666666666666668</ele><time>2026-03-25T11:50:05.844Z</time></trkpt><trkpt lat="42.1875567" lon="14.6563867"><ele>20.5</ele><time>2026-03-25T11:50:08.844Z</time></trkpt><trkpt lat="42.1875583" lon="14.6564783"><ele>19.333333333333336</ele><time>2026-03-25T11:50:11.844Z</time></trkpt><trkpt lat="42.1875217" lon="14.656595"><ele>18.166666666666668</ele><time>2026-03-25T11:50:14.844Z</time></trkpt><trkpt lat="42.1874917" lon="14.6566917"><ele>17.0</ele><time>2026-03-25T11:50:16.844Z</time></trkpt><trkpt lat="42.18746" lon="14.656795"><ele>17.0</ele><time>2026-03-25T11:50:18.844Z</time></trkpt><trkpt lat="42.1874117" lon="14.656905"><ele>17.0</ele><time>2026-03-25T11:50:20.844Z</time></trkpt><trkpt lat="42.187375" lon="14.6570217"><ele>17.0</ele><time>2026-03-25T11:50:22.845Z</time></trkpt><trkpt lat="42.1873367" lon="14.65714"><ele>17.0</ele><time>2026-03-25T11:50:24.844Z</time></trkpt><trkpt lat="42.1873083" lon="14.6572417"><ele>17.0</ele><time>2026-03-25T11:50:26.844Z</time></trkpt><trkpt lat="42.187265" lon="14.6573433"><ele>18.0</ele><time>2026-03-25T11:50:28.844Z</time></trkpt><trkpt lat="42.1872183" lon="14.657445"><ele>19.0</ele><time>2026-03-25T11:50:30.845Z</time></trkpt><trkpt lat="42.18717" lon="14.65755"><ele>20.0</ele><time>2026-03-25T11:50:32.844Z</time></trkpt><trkpt lat="42.18713" lon="14.6576517"><ele>21.0</ele><time>2026-03-25T11:50:34.844Z</time></trkpt><trkpt lat="42.18709" lon="14.6577517"><ele>22.0</ele><time>2026-03-25T11:50:36.844Z</time></trkpt><trkpt lat="42.1870533" lon="14.6578517"><ele>23.0</ele><time>2026-03-25T11:50:38.844Z</time></trkpt><trkpt lat="42.1870233" lon="14.65795"><ele>23.0</ele><time>2026-03-25T11:50:40.844Z</time></trkpt><trkpt lat="42.18699" lon="14.6580483"><ele>23.0</ele><time>2026-03-25T11:50:42.844Z</time></trkpt><trkpt lat="42.1869617" lon="14.6581483"><ele>23.0</ele><time>2026-03-25T11:50:44.844Z</time></trkpt><trkpt lat="42.1869367" lon="14.6582367"><ele>23.0</ele><time>2026-03-25T11:50:46.845Z</time></trkpt><trkpt lat="42.18691" lon="14.658325"><ele>23.0</ele><time>2026-03-25T11:50:48.844Z</time></trkpt><trkpt lat="42.18688" lon="14.6584033"><ele>23.0</ele><time>2026-03-25T11:50:50.844Z</time></trkpt><trkpt lat="42.1868367" lon="14.658505"><ele>22.0</ele><time>2026-03-25T11:50:52.844Z</time></trkpt><trkpt lat="42.1868017" lon="14.6586183"><ele>21.0</ele><time>2026-03-25T11:50:54.844Z</time></trkpt><trkpt lat="42.186775" lon="14.6587233"><ele>20.0</ele><time>2026-03-25T11:50:56.844Z</time></trkpt><trkpt lat="42.1867433" lon="14.6588183"><ele>19.0</ele><time>2026-03-25T11:50:58.844Z</time></trkpt><trkpt lat="42.18671" lon="14.6589183"><ele>18.0</ele><time>2026-03-25T11:51:00.844Z</time></trkpt><trkpt lat="42.1866817" lon="14.6590283"><ele>17.0</ele><time>2026-03-25T11:51:02.844Z</time></trkpt><trkpt lat="42.1866467" lon="14.6591433"><ele>17.0</ele><time>2026-03-25T11:51:04.844Z</time></trkpt><trkpt lat="42.1866083" lon="14.659265"><ele>17.0</ele><time>2026-03-25T11:51:06.845Z</time></trkpt><trkpt lat="42.1865833" lon="14.6593717"><ele>17.0</ele><time>2026-03-25T11:51:08.844Z</time></trkpt><trkpt lat="42.186555" lon="14.65948"><ele>17.0</ele><time>2026-03-25T11:51:10.844Z</time></trkpt><trkpt lat="42.186525" lon="14.65959"><ele>17.0</ele><time>2026-03-25T11:51:12.844Z</time></trkpt><trkpt lat="42.1864983" lon="14.6596833"><ele>17.0</ele><time>2026-03-25T11:51:14.844Z</time></trkpt><trkpt lat="42.1864733" lon="14.659795"><ele>19.166666666666668</ele><time>2026-03-25T11:51:16.844Z</time></trkpt><trkpt lat="42.1864433" lon="14.6599167"><ele>21.333333333333336</ele><time>2026-03-25T11:51:18.845Z</time></trkpt><trkpt lat="42.18642" lon="14.6600133"><ele>23.5</ele><time>2026-03-25T11:51:20.844Z</time></trkpt><trkpt lat="42.1863833" lon="14.6601133"><ele>25.666666666666668</ele><time>2026-03-25T11:51:22.844Z</time></trkpt><trkpt lat="42.1863517" lon="14.6602167"><ele>27.833333333333332</ele><time>2026-03-25T11:51:24.844Z</time></trkpt><trkpt lat="42.1863217" lon="14.6603183"><ele>30.0</ele><time>2026-03-25T11:51:26.844Z</time></trkpt><trkpt lat="42.1862883" lon="14.660415"><ele>30.0</ele><time>2026-03-25T11:51:28.844Z</time></trkpt><trkpt lat="42.1862533" lon="14.6605083"><ele>30.0</ele><time>2026-03-25T11:51:30.844Z</time></trkpt><trkpt lat="42.1862167" lon="14.6605917"><ele>30.0</ele><time>2026-03-25T11:51:32.844Z</time></trkpt><trkpt lat="42.1861783" lon="14.6606833"><ele>30.0</ele><time>2026-03-25T11:51:34.844Z</time></trkpt><trkpt lat="42.1861517" lon="14.6607733"><ele>30.0</ele><time>2026-03-25T11:51:36.844Z</time></trkpt><trkpt lat="42.1861067" lon="14.66086"><ele>30.0</ele><time>2026-03-25T11:51:38.844Z</time></trkpt><trkpt lat="42.1860633" lon="14.66095"><ele>30.0</ele><time>2026-03-25T11:51:40.845Z</time></trkpt><trkpt lat="42.186035" lon="14.6610333"><ele>30.0</ele><time>2026-03-25T11:51:42.844Z</time></trkpt><trkpt lat="42.1859917" lon="14.6611117"><ele>30.0</ele><time>2026-03-25T11:51:44.844Z</time></trkpt><trkpt lat="42.1859467" lon="14.6611933"><ele>30.0</ele><time>2026-03-25T11:51:46.845Z</time></trkpt><trkpt lat="42.1859033" lon="14.6612633"><ele>30.0</ele><time>2026-03-25T11:51:48.844Z</time></trkpt><trkpt lat="42.1858667" lon="14.66134"><ele>30.0</ele><time>2026-03-25T11:51:50.844Z</time></trkpt><trkpt lat="42.1858367" lon="14.6614583"><ele>30.0</ele><time>2026-03-25T11:51:53.844Z</time></trkpt><trkpt lat="42.1858167" lon="14.6615467"><ele>28.833333333333332</ele><time>2026-03-25T11:51:55.844Z</time></trkpt><trkpt lat="42.185785" lon="14.661625"><ele>27.666666666666668</ele><time>2026-03-25T11:51:57.844Z</time></trkpt><trkpt lat="42.185745" lon="14.6617183"><ele>26.5</ele><time>2026-03-25T11:51:59.845Z</time></trkpt><trkpt lat="42.1856933" lon="14.6618183"><ele>25.333333333333336</ele><time>2026-03-25T11:52:01.844Z</time></trkpt><trkpt lat="42.18565" lon="14.6619267"><ele>24.166666666666668</ele><time>2026-03-25T11:52:04.844Z</time></trkpt><trkpt lat="42.1856083" lon="14.6620167"><ele>23.0</ele><time>2026-03-25T11:52:06.844Z</time></trkpt><trkpt lat="42.1855483" lon="14.66211"><ele>25.666666666666668</ele><time>2026-03-25T11:52:08.844Z</time></trkpt><trkpt lat="42.1855183" lon="14.662185"><ele>28.333333333333336</ele><time>2026-03-25T11:52:10.844Z</time></trkpt><trkpt lat="42.185485" lon="14.6622617"><ele>31.0</ele><time>2026-03-25T11:52:12.844Z</time></trkpt><trkpt lat="42.185465" lon="14.6623467"><ele>33.666666666666664</ele><time>2026-03-25T11:52:14.844Z</time></trkpt><trkpt lat="42.1854417" lon="14.6624333"><ele>36.333333333333336</ele><time>2026-03-25T11:52:16.845Z</time></trkpt><trkpt lat="42.18541" lon="14.6625467"><ele>39.0</ele><time>2026-03-25T11:52:18.844Z</time></trkpt><trkpt lat="42.1853633" lon="14.6626633"><ele>39.0</ele><time>2026-03-25T11:52:20.844Z</time></trkpt><trkpt lat="42.1853417" lon="14.66277"><ele>39.0</ele><time>2026-03-25T11:52:22.844Z</time></trkpt><trkpt lat="42.1853083" lon="14.6628817"><ele>39.0</ele><time>2026-03-25T11:52:24.844Z</time></trkpt><trkpt lat="42.185275" lon="14.6629717"><ele>39.0</ele><time>2026-03-25T11:52:26.844Z</time></trkpt><trkpt lat="42.1852417" lon="14.6630683"><ele>39.0</ele><time>2026-03-25T11:52:28.844Z</time></trkpt><trkpt lat="42.1852133" lon="14.66317"><ele>39.0</ele><time>2026-03-25T11:52:30.844Z</time></trkpt><trkpt lat="42.1851833" lon="14.6632633"><ele>37.833333333333336</ele><time>2026-03-25T11:52:32.844Z</time></trkpt><trkpt lat="42.18515" lon="14.66335"><ele>36.666666666666664</ele><time>2026-03-25T11:52:34.844Z</time></trkpt><trkpt lat="42.1851167" lon="14.66348"><ele>35.5</ele><time>2026-03-25T11:52:37.844Z</time></trkpt><trkpt lat="42.1850833" lon="14.6636"><ele>34.33333333333333</ele><time>2026-03-25T11:52:40.844Z</time></trkpt><trkpt lat="42.1850483" lon="14.6637067"><ele>33.166666666666664</ele><time>2026-03-25T11:52:43.845Z</time></trkpt><trkpt lat="42.185005" lon="14.6638033"><ele>32.0</ele><time>2026-03-25T11:52:46.845Z</time></trkpt><trkpt lat="42.1849467" lon="14.6640767"><ele>32.166666666666664</ele><time>2026-03-25T11:53:03.844Z</time></trkpt><trkpt lat="42.1848883" lon="14.6641917"><ele>32.33333333333333</ele><time>2026-03-25T11:53:06.845Z</time></trkpt><trkpt lat="42.184845" lon="14.66428"><ele>32.5</ele><time>2026-03-25T11:53:08.844Z</time></trkpt><trkpt lat="42.1848067" lon="14.66436"><ele>32.666666666666664</ele><time>2026-03-25T11:53:10.843Z</time></trkpt><trkpt lat="42.184785" lon="14.664455"><ele>32.833333333333336</ele><time>2026-03-25T11:53:12.843Z</time></trkpt><trkpt lat="42.1847583" lon="14.6645633"><ele>33.0</ele><time>2026-03-25T11:53:14.844Z</time></trkpt><trkpt lat="42.1847317" lon="14.66466"><ele>33.0</ele><time>2026-03-25T11:53:16.843Z</time></trkpt><trkpt lat="42.1846983" lon="14.6647533"><ele>33.0</ele><time>2026-03-25T11:53:18.843Z</time></trkpt><trkpt lat="42.1846533" lon="14.6648583"><ele>33.0</ele><time>2026-03-25T11:53:20.843Z</time></trkpt><trkpt lat="42.1846067" lon="14.6649633"><ele>33.0</ele><time>2026-03-25T11:53:22.844Z</time></trkpt><trkpt lat="42.18457" lon="14.6650533"><ele>33.0</ele><time>2026-03-25T11:53:24.843Z</time></trkpt><trkpt lat="42.1845333" lon="14.665145"><ele>33.0</ele><time>2026-03-25T11:53:26.843Z</time></trkpt><trkpt lat="42.1845" lon="14.6652383"><ele>31.833333333333332</ele><time>2026-03-25T11:53:28.843Z</time></trkpt><trkpt lat="42.184465" lon="14.66533"><ele>30.666666666666664</ele><time>2026-03-25T11:53:30.844Z</time></trkpt><trkpt lat="42.1844317" lon="14.6654233"><ele>29.5</ele><time>2026-03-25T11:53:32.843Z</time></trkpt><trkpt lat="42.1843917" lon="14.6655167"><ele>28.333333333333332</ele><time>2026-03-25T11:53:34.843Z</time></trkpt><trkpt lat="42.1843583" lon="14.6656283"><ele>27.166666666666664</ele><time>2026-03-25T11:53:36.843Z</time></trkpt><trkpt lat="42.184325" lon="14.66573"><ele>26.0</ele><time>2026-03-25T11:53:38.843Z</time></trkpt><trkpt lat="42.184285" lon="14.6658283"><ele>25.999999999999996</ele><time>2026-03-25T11:53:40.843Z</time></trkpt><trkpt lat="42.1842483" lon="14.6659317"><ele>26.0</ele><time>2026-03-25T11:53:42.844Z</time></trkpt><trkpt lat="42.184215" lon="14.6660283"><ele>26.0</ele><time>2026-03-25T11:53:44.843Z</time></trkpt><trkpt lat="42.184185" lon="14.6661283"><ele>26.0</ele><time>2026-03-25T11:53:46.843Z</time></trkpt><trkpt lat="42.184145" lon="14.666225"><ele>25.999999999999996</ele><time>2026-03-25T11:53:48.843Z</time></trkpt><trkpt lat="42.18411" lon="14.6663283"><ele>26.0</ele><time>2026-03-25T11:53:50.843Z</time></trkpt><trkpt lat="42.1840783" lon="14.666425"><ele>26.333333333333332</ele><time>2026-03-25T11:53:52.843Z</time></trkpt><trkpt lat="42.1840417" lon="14.6665233"><ele>26.666666666666664</ele><time>2026-03-25T11:53:54.843Z</time></trkpt><trkpt lat="42.1840083" lon="14.66661"><ele>27.0</ele><time>2026-03-25T11:53:56.843Z</time></trkpt><trkpt lat="42.1839733" lon="14.6667017"><ele>27.333333333333336</ele><time>2026-03-25T11:53:58.843Z</time></trkpt><trkpt lat="42.183935" lon="14.66679"><ele>27.666666666666668</ele><time>2026-03-25T11:54:00.843Z</time></trkpt><trkpt lat="42.1839017" lon="14.66688"><ele>28.0</ele><time>2026-03-25T11:54:02.843Z</time></trkpt><trkpt lat="42.1838667" lon="14.6669717"><ele>28.0</ele><time>2026-03-25T11:54:04.843Z</time></trkpt><trkpt lat="42.18383" lon="14.6670667"><ele>28.0</ele><time>2026-03-25T11:54:06.843Z</time></trkpt><trkpt lat="42.1837917" lon="14.66715"><ele>28.0</ele><time>2026-03-25T11:54:08.843Z</time></trkpt><trkpt lat="42.1837633" lon="14.6672383"><ele>28.0</ele><time>2026-03-25T11:54:10.843Z</time></trkpt><trkpt lat="42.1837317" lon="14.6673233"><ele>28.0</ele><time>2026-03-25T11:54:12.844Z</time></trkpt><trkpt lat="42.183705" lon="14.6674083"><ele>28.0</ele><time>2026-03-25T11:54:14.843Z</time></trkpt><trkpt lat="42.1836717" lon="14.6675133"><ele>28.0</ele><time>2026-03-25T11:54:17.843Z</time></trkpt><trkpt lat="42.18363" lon="14.66759"><ele>28.000000000000004</ele><time>2026-03-25T11:54:20.843Z</time></trkpt><trkpt lat="42.1835883" lon="14.667665"><ele>28.0</ele><time>2026-03-25T11:54:24.843Z</time></trkpt><trkpt lat="42.1835683" lon="14.6677583"><ele>28.0</ele><time>2026-03-25T11:54:29.843Z</time></trkpt><trkpt lat="42.18357" lon="14.6679"><ele>28.0</ele><time>2026-03-25T11:55:10.843Z</time></trkpt><trkpt lat="42.1836267" lon="14.667815"><ele>28.000000000000004</ele><time>2026-03-25T11:55:15.843Z</time></trkpt><trkpt lat="42.18365" lon="14.6677267"><ele>28.0</ele><time>2026-03-25T11:55:18.843Z</time></trkpt><trkpt lat="42.1836833" lon="14.6676483"><ele>28.0</ele><time>2026-03-25T11:55:20.843Z</time></trkpt><trkpt lat="42.18372" lon="14.6675433"><ele>27.999999999999996</ele><time>2026-03-25T11:55:22.843Z</time></trkpt><trkpt lat="42.1837567" lon="14.6674317"><ele>27.999999999999996</ele><time>2026-03-25T11:55:24.843Z</time></trkpt><trkpt lat="42.1837933" lon="14.6673167"><ele>28.0</ele><time>2026-03-25T11:55:26.843Z</time></trkpt><trkpt lat="42.18383" lon="14.6671983"><ele>28.0</ele><time>2026-03-25T11:55:28.843Z</time></trkpt><trkpt lat="42.18387" lon="14.667085"><ele>28.0</ele><time>2026-03-25T11:55:30.843Z</time></trkpt><trkpt lat="42.1839067" lon="14.66697"><ele>27.999999999999996</ele><time>2026-03-25T11:55:32.843Z</time></trkpt><trkpt lat="42.1839467" lon="14.666855"><ele>27.999999999999996</ele><time>2026-03-25T11:55:34.843Z</time></trkpt><trkpt lat="42.18399" lon="14.66674"><ele>28.0</ele><time>2026-03-25T11:55:36.843Z</time></trkpt><trkpt lat="42.1840367" lon="14.6666283"><ele>28.0</ele><time>2026-03-25T11:55:38.843Z</time></trkpt><trkpt lat="42.1840783" lon="14.6665167"><ele>27.599999999999998</ele><time>2026-03-25T11:55:40.843Z</time></trkpt><trkpt lat="42.1841217" lon="14.66639"><ele>27.199999999999996</ele><time>2026-03-25T11:55:42.843Z</time></trkpt><trkpt lat="42.18417" lon="14.66626"><ele>26.8</ele><time>2026-03-25T11:55:44.844Z</time></trkpt><trkpt lat="42.1842217" lon="14.666125"><ele>26.4</ele><time>2026-03-25T11:55:46.843Z</time></trkpt><trkpt lat="42.1842683" lon="14.666"><ele>26.0</ele><time>2026-03-25T11:55:48.843Z</time></trkpt><trkpt lat="42.184315" lon="14.6658817"><ele>26.0</ele><time>2026-03-25T11:55:50.843Z</time></trkpt><trkpt lat="42.1843617" lon="14.66578"><ele>26.0</ele><time>2026-03-25T11:55:52.843Z</time></trkpt><trkpt lat="42.1844033" lon="14.6656683"><ele>26.0</ele><time>2026-03-25T11:55:54.843Z</time></trkpt><trkpt lat="42.1844467" lon="14.6655567"><ele>26.0</ele><time>2026-03-25T11:55:56.843Z</time></trkpt><trkpt lat="42.1844833" lon="14.6654367"><ele>26.0</ele><time>2026-03-25T11:55:58.843Z</time></trkpt><trkpt lat="42.1845167" lon="14.6653333"><ele>27.4</ele><time>2026-03-25T11:56:00.843Z</time></trkpt><trkpt lat="42.1845533" lon="14.665215"><ele>28.8</ele><time>2026-03-25T11:56:02.844Z</time></trkpt><trkpt lat="42.1846033" lon="14.66509"><ele>30.199999999999996</ele><time>2026-03-25T11:56:04.843Z</time></trkpt><trkpt lat="42.184655" lon="14.664975"><ele>31.599999999999998</ele><time>2026-03-25T11:56:06.843Z</time></trkpt><trkpt lat="42.1847083" lon="14.6648583"><ele>33.0</ele><time>2026-03-25T11:56:08.843Z</time></trkpt><trkpt lat="42.1847483" lon="14.6647417"><ele>33.0</ele><time>2026-03-25T11:56:10.843Z</time></trkpt><trkpt lat="42.1847833" lon="14.6646367"><ele>33.0</ele><time>2026-03-25T11:56:12.844Z</time></trkpt><trkpt lat="42.1848167" lon="14.664545"><ele>33.0</ele><time>2026-03-25T11:56:14.843Z</time></trkpt><trkpt lat="42.1848333" lon="14.6644383"><ele>33.0</ele><time>2026-03-25T11:56:16.843Z</time></trkpt><trkpt lat="42.1848483" lon="14.6643433"><ele>33.0</ele><time>2026-03-25T11:56:18.844Z</time></trkpt><trkpt lat="42.1848717" lon="14.6642583"><ele>33.0</ele><time>2026-03-25T11:56:20.843Z</time></trkpt><trkpt lat="42.1849167" lon="14.6641617"><ele>32.8</ele><time>2026-03-25T11:56:23.843Z</time></trkpt><trkpt lat="42.18498" lon="14.6640933"><ele>32.599999999999994</ele><time>2026-03-25T11:56:27.843Z</time></trkpt><trkpt lat="42.1850383" lon="14.663975"><ele>32.400000000000006</ele><time>2026-03-25T11:56:30.843Z</time></trkpt><trkpt lat="42.1850817" lon="14.6638517"><ele>32.2</ele><time>2026-03-25T11:56:32.843Z</time></trkpt><trkpt lat="42.185135" lon="14.663715"><ele>32.0</ele><time>2026-03-25T11:56:34.843Z</time></trkpt><trkpt lat="42.1851917" lon="14.6635833"><ele>32.0</ele><time>2026-03-25T11:56:36.843Z</time></trkpt><trkpt lat="42.18524" lon="14.6634433"><ele>32.0</ele><time>2026-03-25T11:56:38.843Z</time></trkpt><trkpt lat="42.18529" lon="14.6633067"><ele>32.0</ele><time>2026-03-25T11:56:40.844Z</time></trkpt><trkpt lat="42.1853383" lon="14.663175"><ele>32.0</ele><time>2026-03-25T11:56:42.843Z</time></trkpt><trkpt lat="42.1853683" lon="14.6630967"><ele>32.0</ele><time>2026-03-25T11:56:43.844Z</time></trkpt><trkpt lat="42.1854217" lon="14.6629733"><ele>32.0</ele><time>2026-03-25T11:56:45.843Z</time></trkpt><trkpt lat="42.1854667" lon="14.6628333"><ele>32.0</ele><time>2026-03-25T11:56:47.843Z</time></trkpt><trkpt lat="42.18551" lon="14.6627"><ele>32.0</ele><time>2026-03-25T11:56:49.843Z</time></trkpt><trkpt lat="42.185555" lon="14.6625667"><ele>32.0</ele><time>2026-03-25T11:56:51.844Z</time></trkpt><trkpt lat="42.1855917" lon="14.6624383"><ele>32.0</ele><time>2026-03-25T11:56:53.843Z</time></trkpt><trkpt lat="42.1856317" lon="14.662315"><ele>30.200000000000003</ele><time>2026-03-25T11:56:55.844Z</time></trkpt><trkpt lat="42.185685" lon="14.6621917"><ele>28.400000000000002</ele><time>2026-03-25T11:56:57.843Z</time></trkpt><trkpt lat="42.185735" lon="14.6620683"><ele>26.6</ele><time>2026-03-25T11:56:59.843Z</time></trkpt><trkpt lat="42.1857883" lon="14.66194"><ele>24.799999999999997</ele><time>2026-03-25T11:57:01.843Z</time></trkpt><trkpt lat="42.1858433" lon="14.6618183"><ele>23.0</ele><time>2026-03-25T11:57:03.843Z</time></trkpt><trkpt lat="42.185885" lon="14.6616983"><ele>23.0</ele><time>2026-03-25T11:57:05.843Z</time></trkpt><trkpt lat="42.18593" lon="14.661575"><ele>23.0</ele><time>2026-03-25T11:57:07.843Z</time></trkpt><trkpt lat="42.185985" lon="14.6614433"><ele>23.0</ele><time>2026-03-25T11:57:09.843Z</time></trkpt><trkpt lat="42.186045" lon="14.6613033"><ele>23.0</ele><time>2026-03-25T11:57:11.843Z</time></trkpt><trkpt lat="42.1861017" lon="14.661155"><ele>24.4</ele><time>2026-03-25T11:57:13.843Z</time></trkpt><trkpt lat="42.1861517" lon="14.66101"><ele>25.799999999999997</ele><time>2026-03-25T11:57:15.843Z</time></trkpt><trkpt lat="42.1861717" lon="14.6609267"><ele>27.2</ele><time>2026-03-25T11:57:16.843Z</time></trkpt><trkpt lat="42.1861933" lon="14.66084"><ele>28.6</ele><time>2026-03-25T11:57:17.843Z</time></trkpt><trkpt lat="42.1862367" lon="14.66067"><ele>30.0</ele><time>2026-03-25T11:57:19.843Z</time></trkpt><trkpt lat="42.18629" lon="14.6605067"><ele>30.0</ele><time>2026-03-25T11:57:21.843Z</time></trkpt><trkpt lat="42.1863217" lon="14.6604167"><ele>30.0</ele><time>2026-03-25T11:57:22.844Z</time></trkpt><trkpt lat="42.18635" lon="14.6603267"><ele>30.0</ele><time>2026-03-25T11:57:23.844Z</time></trkpt><trkpt lat="42.186375" lon="14.6602367"><ele>30.0</ele><time>2026-03-25T11:57:24.843Z</time></trkpt><trkpt lat="42.1864233" lon="14.6600883"><ele>30.0</ele><time>2026-03-25T11:57:26.843Z</time></trkpt><trkpt lat="42.18647" lon="14.65995"><ele>26.75</ele><time>2026-03-25T11:57:28.843Z</time></trkpt><trkpt lat="42.1865133" lon="14.6598167"><ele>23.5</ele><time>2026-03-25T11:57:30.843Z</time></trkpt><trkpt lat="42.1865583" lon="14.6596783"><ele>20.25</ele><time>2026-03-25T11:57:32.843Z</time></trkpt><trkpt lat="42.18661" lon="14.6595433"><ele>17.0</ele><time>2026-03-25T11:57:34.843Z</time></trkpt><trkpt lat="42.1866533" lon="14.6593883"><ele>17.0</ele><time>2026-03-25T11:57:36.843Z</time></trkpt><trkpt lat="42.1866983" lon="14.6592383"><ele>17.0</ele><time>2026-03-25T11:57:38.843Z</time></trkpt><trkpt lat="42.1867383" lon="14.659115"><ele>17.0</ele><time>2026-03-25T11:57:40.843Z</time></trkpt><trkpt lat="42.186775" lon="14.6590033"><ele>17.0</ele><time>2026-03-25T11:57:42.843Z</time></trkpt><trkpt lat="42.1868133" lon="14.6588767"><ele>17.0</ele><time>2026-03-25T11:57:44.843Z</time></trkpt><trkpt lat="42.186845" lon="14.6588017"><ele>17.0</ele><time>2026-03-25T11:57:45.843Z</time></trkpt><trkpt lat="42.1868767" lon="14.6586517"><ele>17.0</ele><time>2026-03-25T11:57:47.843Z</time></trkpt><trkpt lat="42.1869117" lon="14.6585133"><ele>17.0</ele><time>2026-03-25T11:57:49.843Z</time></trkpt><trkpt lat="42.1869533" lon="14.65838"><ele>17.0</ele><time>2026-03-25T11:57:51.843Z</time></trkpt><trkpt lat="42.187" lon="14.6582383"><ele>17.0</ele><time>2026-03-25T11:57:53.843Z</time></trkpt><trkpt lat="42.1870383" lon="14.6580917"><ele>18.2</ele><time>2026-03-25T11:57:55.843Z</time></trkpt><trkpt lat="42.1870817" lon="14.65795"><ele>19.4</ele><time>2026-03-25T11:57:57.843Z</time></trkpt><trkpt lat="42.187115" lon="14.6578083"><ele>20.599999999999998</ele><time>2026-03-25T11:57:59.843Z</time></trkpt><trkpt lat="42.1871633" lon="14.65767"><ele>21.799999999999997</ele><time>2026-03-25T11:58:01.844Z</time></trkpt><trkpt lat="42.1872117" lon="14.65754"><ele>23.0</ele><time>2026-03-25T11:58:03.844Z</time></trkpt><trkpt lat="42.1872633" lon="14.6574283"><ele>22.0</ele><time>2026-03-25T11:58:05.843Z</time></trkpt><trkpt lat="42.1873117" lon="14.6573183"><ele>21.0</ele><time>2026-03-25T11:58:07.843Z</time></trkpt><trkpt lat="42.1873517" lon="14.6572133"><ele>20.0</ele><time>2026-03-25T11:58:09.844Z</time></trkpt><trkpt lat="42.1873967" lon="14.6571083"><ele>19.0</ele><time>2026-03-25T11:58:11.843Z</time></trkpt><trkpt lat="42.18744" lon="14.65702"><ele>18.0</ele><time>2026-03-25T11:58:13.843Z</time></trkpt><trkpt lat="42.18748" lon="14.6569433"><ele>17.0</ele><time>2026-03-25T11:58:15.843Z</time></trkpt><trkpt lat="42.1875183" lon="14.6568467"><ele>17.0</ele><time>2026-03-25T11:58:17.843Z</time></trkpt><trkpt lat="42.18756" lon="14.6567383"><ele>17.0</ele><time>2026-03-25T11:58:19.843Z</time></trkpt><trkpt lat="42.1875917" lon="14.6566433"><ele>17.0</ele><time>2026-03-25T11:58:21.843Z</time></trkpt><trkpt lat="42.187615" lon="14.656545"><ele>17.0</ele><time>2026-03-25T11:58:24.843Z</time></trkpt><trkpt lat="42.1876067" lon="14.656455"><ele>17.0</ele><time>2026-03-25T11:58:27.843Z</time></trkpt><trkpt lat="42.187615" lon="14.6563667"><ele>17.0</ele><time>2026-03-25T11:58:31.843Z</time></trkpt><trkpt lat="42.1876283" lon="14.6562683"><ele>17.0</ele><time>2026-03-25T11:58:34.843Z</time></trkpt><trkpt lat="42.1876283" lon="14.656155"><ele>17.0</ele><time>2026-03-25T11:58:37.843Z</time></trkpt><trkpt lat="42.1876483" lon="14.6560517"><ele>17.0</ele><time>2026-03-25T11:58:40.843Z</time></trkpt><trkpt lat="42.1876633" lon="14.655955"><ele>17.0</ele><time>2026-03-25T11:58:43.843Z</time></trkpt><trkpt lat="42.18768" lon="14.6558517"><ele>17.0</ele><time>2026-03-25T11:58:46.843Z</time></trkpt><trkpt lat="42.1876917" lon="14.6557617"><ele>17.0</ele><time>2026-03-25T11:58:49.843Z</time></trkpt><trkpt lat="42.1877283" lon="14.6556783"><ele>17.999999999999996</ele><time>2026-03-25T11:58:53.843Z</time></trkpt><trkpt lat="42.1877417" lon="14.6555867"><ele>19.0</ele><time>2026-03-25T11:58:56.843Z</time></trkpt><trkpt lat="42.187735" lon="14.655495"><ele>20.0</ele><time>2026-03-25T11:58:59.844Z</time></trkpt><trkpt lat="42.1877233" lon="14.655395"><ele>21.0</ele><time>2026-03-25T11:59:03.843Z</time></trkpt><trkpt lat="42.1877133" lon="14.6552867"><ele>22.0</ele><time>2026-03-25T11:59:07.844Z</time></trkpt><trkpt lat="42.1876917" lon="14.655205"><ele>22.999999999999996</ele><time>2026-03-25T11:59:10.843Z</time></trkpt><trkpt lat="42.187665" lon="14.6551083"><ele>24.0</ele><time>2026-03-25T11:59:14.843Z</time></trkpt><trkpt lat="42.1876783" lon="14.6550233"><ele>26.0</ele><time>2026-03-25T11:59:19.844Z</time></trkpt><trkpt lat="42.1877267" lon="14.6549517"><ele>28.0</ele><time>2026-03-25T11:59:23.844Z</time></trkpt><trkpt lat="42.1877767" lon="14.6548717"><ele>30.0</ele><time>2026-03-25T11:59:26.843Z</time></trkpt><trkpt lat="42.1878317" lon="14.654785"><ele>32.0</ele><time>2026-03-25T11:59:29.843Z</time></trkpt><trkpt lat="42.1878733" lon="14.6546967"><ele>34.0</ele><time>2026-03-25T11:59:32.843Z</time></trkpt><trkpt lat="42.1878883" lon="14.6546083"><ele>36.0</ele><time>2026-03-25T11:59:34.843Z</time></trkpt><trkpt lat="42.18792" lon="14.6545183"><ele>37.5</ele><time>2026-03-25T11:59:36.843Z</time></trkpt><trkpt lat="42.18795" lon="14.654435"><ele>39.0</ele><time>2026-03-25T11:59:38.843Z</time></trkpt><trkpt lat="42.1879883" lon="14.6543383"><ele>40.5</ele><time>2026-03-25T11:59:41.843Z</time></trkpt><trkpt lat="42.1880217" lon="14.6542233"><ele>42.0</ele><time>2026-03-25T11:59:44.843Z</time></trkpt><trkpt lat="42.1880633" lon="14.654135"><ele>43.5</ele><time>2026-03-25T11:59:46.843Z</time></trkpt><trkpt lat="42.188105" lon="14.6540483"><ele>45.0</ele><time>2026-03-25T11:59:48.843Z</time></trkpt><trkpt lat="42.1881533" lon="14.6539333"><ele>42.857142857142854</ele><time>2026-03-25T11:59:50.843Z</time></trkpt><trkpt lat="42.18819" lon="14.653845"><ele>40.714285714285715</ele><time>2026-03-25T11:59:52.843Z</time></trkpt><trkpt lat="42.1882333" lon="14.653765"><ele>38.57142857142857</ele><time>2026-03-25T11:59:54.844Z</time></trkpt><trkpt lat="42.188285" lon="14.6536967"><ele>36.42857142857143</ele><time>2026-03-25T11:59:56.843Z</time></trkpt><trkpt lat="42.1883167" lon="14.65361"><ele>34.285714285714285</ele><time>2026-03-25T11:59:58.843Z</time></trkpt><trkpt lat="42.1883283" lon="14.6535217"><ele>32.142857142857146</ele><time>2026-03-25T12:00:00.843Z</time></trkpt><trkpt lat="42.1883583" lon="14.6534317"><ele>30.0</ele><time>2026-03-25T12:00:03.844Z</time></trkpt><trkpt lat="42.1884" lon="14.65333"><ele>30.0</ele><time>2026-03-25T12:00:06.843Z</time></trkpt><trkpt lat="42.188425" lon="14.6532467"><ele>30.0</ele><time>2026-03-25T12:00:09.843Z</time></trkpt><trkpt lat="42.188475" lon="14.6531533"><ele>30.0</ele><time>2026-03-25T12:00:12.843Z</time></trkpt><trkpt lat="42.1885183" lon="14.6530467"><ele>30.0</ele><time>2026-03-25T12:00:15.844Z</time></trkpt><trkpt lat="42.188555" lon="14.6529633"><ele>30.0</ele><time>2026-03-25T12:00:17.844Z</time></trkpt><trkpt lat="42.18861" lon="14.6528333"><ele>30.0</ele><time>2026-03-25T12:00:20.844Z</time></trkpt><trkpt lat="42.18864" lon="14.652735"><ele>32.166666666666664</ele><time>2026-03-25T12:00:22.843Z</time></trkpt><trkpt lat="42.1886583" lon="14.65262"><ele>34.333333333333336</ele><time>2026-03-25T12:00:24.843Z</time></trkpt><trkpt lat="42.18868" lon="14.6525033"><ele>36.5</ele><time>2026-03-25T12:00:26.843Z</time></trkpt><trkpt lat="42.1887" lon="14.6523817"><ele>38.66666666666667</ele><time>2026-03-25T12:00:28.843Z</time></trkpt><trkpt lat="42.18872" lon="14.652285"><ele>40.833333333333336</ele><time>2026-03-25T12:00:30.843Z</time></trkpt><trkpt lat="42.18874" lon="14.6521717"><ele>43.0</ele><time>2026-03-25T12:00:32.844Z</time></trkpt><trkpt lat="42.1887817" lon="14.652065"><ele>44.0</ele><time>2026-03-25T12:00:34.843Z</time></trkpt><trkpt lat="42.188815" lon="14.6519567"><ele>45.0</ele><time>2026-03-25T12:00:36.843Z</time></trkpt><trkpt lat="42.1888617" lon="14.6518517"><ele>46.0</ele><time>2026-03-25T12:00:38.843Z</time></trkpt><trkpt lat="42.1889117" lon="14.6517583"><ele>47.0</ele><time>2026-03-25T12:00:40.843Z</time></trkpt><trkpt lat="42.1889433" lon="14.6516183"><ele>48.0</ele><time>2026-03-25T12:00:42.843Z</time></trkpt><trkpt lat="42.1889517" lon="14.65149"><ele>48.0</ele><time>2026-03-25T12:00:44.843Z</time></trkpt><trkpt lat="42.188965" lon="14.651375"><ele>48.0</ele><time>2026-03-25T12:00:46.843Z</time></trkpt><trkpt lat="42.189" lon="14.6512783"><ele>48.0</ele><time>2026-03-25T12:00:48.843Z</time></trkpt><trkpt lat="42.1890367" lon="14.651205"><ele>48.0</ele><time>2026-03-25T12:00:50.843Z</time></trkpt><trkpt lat="42.1890667" lon="14.65112"><ele>48.0</ele><time>2026-03-25T12:00:52.843Z</time></trkpt><trkpt lat="42.1890867" lon="14.6510083"><ele>48.0</ele><time>2026-03-25T12:00:54.843Z</time></trkpt><trkpt lat="42.1891" lon="14.6508983"><ele>44.0</ele><time>2026-03-25T12:00:56.843Z</time></trkpt><trkpt lat="42.18915" lon="14.6507967"><ele>40.0</ele><time>2026-03-25T12:00:58.844Z</time></trkpt><trkpt lat="42.1891867" lon="14.65065"><ele>36.0</ele><time>2026-03-25T12:01:00.843Z</time></trkpt><trkpt lat="42.1892083" lon="14.6504967"><ele>32.0</ele><time>2026-03-25T12:01:02.843Z</time></trkpt><trkpt lat="42.189235" lon="14.6503733"><ele>28.0</ele><time>2026-03-25T12:01:04.843Z</time></trkpt><trkpt lat="42.1892817" lon="14.6501617"><ele>27.000000000000004</ele><time>2026-03-25T12:01:06.843Z</time></trkpt><trkpt lat="42.1892967" lon="14.650075"><ele>26.0</ele><time>2026-03-25T12:01:07.843Z</time></trkpt><trkpt lat="42.1893183" lon="14.64998"><ele>25.0</ele><time>2026-03-25T12:01:08.843Z</time></trkpt><trkpt lat="42.1893583" lon="14.6498383"><ele>24.0</ele><time>2026-03-25T12:01:10.843Z</time></trkpt><trkpt lat="42.189395" lon="14.6497517"><ele>23.0</ele><time>2026-03-25T12:01:12.843Z</time></trkpt><trkpt lat="42.1894567" lon="14.6496717"><ele>22.0</ele><time>2026-03-25T12:01:14.843Z</time></trkpt><trkpt lat="42.1895383" lon="14.6496167"><ele>22.0</ele><time>2026-03-25T12:01:16.844Z</time></trkpt><trkpt lat="42.18962" lon="14.649555"><ele>22.0</ele><time>2026-03-25T12:01:18.843Z</time></trkpt><trkpt lat="42.189655" lon="14.6494833"><ele>22.0</ele><time>2026-03-25T12:01:20.843Z</time></trkpt><trkpt lat="42.189665" lon="14.6493883"><ele>22.0</ele><time>2026-03-25T12:01:22.843Z</time></trkpt><trkpt lat="42.18967" lon="14.6492683"><ele>22.0</ele><time>2026-03-25T12:01:24.843Z</time></trkpt><trkpt lat="42.1896767" lon="14.6491383"><ele>22.0</ele><time>2026-03-25T12:01:26.843Z</time></trkpt><trkpt lat="42.189685" lon="14.6490067"><ele>19.8</ele><time>2026-03-25T12:01:28.843Z</time></trkpt><trkpt lat="42.1896933" lon="14.6488683"><ele>17.6</ele><time>2026-03-25T12:01:30.844Z</time></trkpt><trkpt lat="42.189705" lon="14.6487233"><ele>15.400000000000002</ele><time>2026-03-25T12:01:32.843Z</time></trkpt><trkpt lat="42.189715" lon="14.648585"><ele>13.200000000000001</ele><time>2026-03-25T12:01:34.843Z</time></trkpt><trkpt lat="42.1897333" lon="14.6484467"><ele>11.0</ele><time>2026-03-25T12:01:36.844Z</time></trkpt><trkpt lat="42.1897417" lon="14.64831"><ele>10.200000000000001</ele><time>2026-03-25T12:01:38.843Z</time></trkpt><trkpt lat="42.1897417" lon="14.64816"><ele>9.4</ele><time>2026-03-25T12:01:40.843Z</time></trkpt><trkpt lat="42.1897433" lon="14.6480633"><ele>8.6</ele><time>2026-03-25T12:01:41.844Z</time></trkpt><trkpt lat="42.1897383" lon="14.647935"><ele>7.8</ele><time>2026-03-25T12:01:43.843Z</time></trkpt><trkpt lat="42.1897467" lon="14.6478017"><ele>7.0</ele><time>2026-03-25T12:01:45.844Z</time></trkpt><trkpt lat="42.18975" lon="14.647665"><ele>6.3999999999999995</ele><time>2026-03-25T12:01:47.843Z</time></trkpt><trkpt lat="42.1897517" lon="14.6475317"><ele>5.799999999999999</ele><time>2026-03-25T12:01:49.843Z</time></trkpt><trkpt lat="42.1897617" lon="14.6474"><ele>5.2</ele><time>2026-03-25T12:01:51.843Z</time></trkpt><trkpt lat="42.1897633" lon="14.64727"><ele>4.6</ele><time>2026-03-25T12:01:53.843Z</time></trkpt><trkpt lat="42.1897633" lon="14.64714"><ele>4.0</ele><time>2026-03-25T12:01:55.843Z</time></trkpt><trkpt lat="42.18977" lon="14.6470117"><ele>4.2</ele><time>2026-03-25T12:01:57.843Z</time></trkpt><trkpt lat="42.189765" lon="14.64688"><ele>4.4</ele><time>2026-03-25T12:01:59.844Z</time></trkpt><trkpt lat="42.1897533" lon="14.6467483"><ele>4.6</ele><time>2026-03-25T12:02:01.844Z</time></trkpt><trkpt lat="42.189755" lon="14.6466183"><ele>4.8</ele><time>2026-03-25T12:02:03.843Z</time></trkpt><trkpt lat="42.18977" lon="14.6464933"><ele>5.0</ele><time>2026-03-25T12:02:05.843Z</time></trkpt><trkpt lat="42.1897783" lon="14.6463667"><ele>5.0</ele><time>2026-03-25T12:02:07.844Z</time></trkpt><trkpt lat="42.18978" lon="14.6462483"><ele>5.0</ele><time>2026-03-25T12:02:09.843Z</time></trkpt><trkpt lat="42.1897733" lon="14.6461317"><ele>5.0</ele><time>2026-03-25T12:02:11.843Z</time></trkpt><trkpt lat="42.18978" lon="14.6460233"><ele>5.0</ele><time>2026-03-25T12:02:13.844Z</time></trkpt><trkpt lat="42.1898017" lon="14.6459133"><ele>5.0</ele><time>2026-03-25T12:02:15.843Z</time></trkpt><trkpt lat="42.18984" lon="14.645795"><ele>5.0</ele><time>2026-03-25T12:02:17.843Z</time></trkpt><trkpt lat="42.1898867" lon="14.6456667"><ele>4.6</ele><time>2026-03-25T12:02:19.844Z</time></trkpt><trkpt lat="42.1899383" lon="14.6455317"><ele>4.2</ele><time>2026-03-25T12:02:21.843Z</time></trkpt><trkpt lat="42.1899983" lon="14.6454033"><ele>3.8</ele><time>2026-03-25T12:02:23.843Z</time></trkpt><trkpt lat="42.1900333" lon="14.6453267"><ele>3.4</ele><time>2026-03-25T12:02:24.843Z</time></trkpt><trkpt lat="42.1900883" lon="14.6451733"><ele>3.0</ele><time>2026-03-25T12:02:26.843Z</time></trkpt><trkpt lat="42.190115" lon="14.6450867"><ele>3.0</ele><time>2026-03-25T12:02:27.843Z</time></trkpt><trkpt lat="42.1901417" lon="14.6450017"><ele>3.0</ele><time>2026-03-25T12:02:28.843Z</time></trkpt><trkpt lat="42.1901733" lon="14.6449217"><ele>3.0</ele><time>2026-03-25T12:02:29.843Z</time></trkpt><trkpt lat="42.190215" lon="14.64479"><ele>3.0</ele><time>2026-03-25T12:02:31.843Z</time></trkpt><trkpt lat="42.1902333" lon="14.6446933"><ele>3.0</ele><time>2026-03-25T12:02:33.843Z</time></trkpt><trkpt lat="42.19028" lon="14.6446283"><ele>3.0</ele><time>2026-03-25T12:02:36.844Z</time></trkpt><trkpt lat="42.1903617" lon="14.6446033"><ele>3.0</ele><time>2026-03-25T12:02:38.843Z</time></trkpt><trkpt lat="42.19045" lon="14.64457"><ele>3.0</ele><time>2026-03-25T12:02:40.844Z</time></trkpt><trkpt lat="42.1905433" lon="14.644525"><ele>3.0</ele><time>2026-03-25T12:02:42.844Z</time></trkpt><trkpt lat="42.190635" lon="14.6444867"><ele>3.0</ele><time>2026-03-25T12:02:44.843Z</time></trkpt><trkpt lat="42.190735" lon="14.64445"><ele>3.0</ele><time>2026-03-25T12:02:46.843Z</time></trkpt><trkpt lat="42.1908383" lon="14.6444317"><ele>2.8</ele><time>2026-03-25T12:02:48.843Z</time></trkpt><trkpt lat="42.1909267" lon="14.6444"><ele>2.5999999999999996</ele><time>2026-03-25T12:02:50.843Z</time></trkpt><trkpt lat="42.1910183" lon="14.6443517"><ele>2.4000000000000004</ele><time>2026-03-25T12:02:52.843Z</time></trkpt><trkpt lat="42.191095" lon="14.64428"><ele>2.2</ele><time>2026-03-25T12:02:54.844Z</time></trkpt><trkpt lat="42.191165" lon="14.64418"><ele>2.0</ele><time>2026-03-25T12:02:56.844Z</time></trkpt><trkpt lat="42.19123" lon="14.64406"><ele>2.0</ele><time>2026-03-25T12:02:58.843Z</time></trkpt><trkpt lat="42.1912883" lon="14.6439333"><ele>2.0</ele><time>2026-03-25T12:03:00.843Z</time></trkpt><trkpt lat="42.191355" lon="14.643805"><ele>2.0</ele><time>2026-03-25T12:03:02.843Z</time></trkpt><trkpt lat="42.1914267" lon="14.643675"><ele>2.0</ele><time>2026-03-25T12:03:04.843Z</time></trkpt><trkpt lat="42.1914933" lon="14.6435517"><ele>1.5</ele><time>2026-03-25T12:03:06.843Z</time></trkpt><trkpt lat="42.1915683" lon="14.6434367"><ele>1.0</ele><time>2026-03-25T12:03:08.843Z</time></trkpt><trkpt lat="42.1916567" lon="14.64333"><ele>0.5</ele><time>2026-03-25T12:03:10.843Z</time></trkpt><trkpt lat="42.1917517" lon="14.6432317"><ele>0.0</ele><time>2026-03-25T12:03:12.843Z</time></trkpt><trkpt lat="42.1918417" lon="14.64313"><ele>0.0</ele><time>2026-03-25T12:03:14.843Z</time></trkpt><trkpt lat="42.19192" lon="14.6430267"><ele>0.0</ele><time>2026-03-25T12:03:16.843Z</time></trkpt><trkpt lat="42.1919917" lon="14.6429233"><ele>0.0</ele><time>2026-03-25T12:03:18.844Z</time></trkpt><trkpt lat="42.1920667" lon="14.6428083"><ele>0.0</ele><time>2026-03-25T12:03:20.844Z</time></trkpt><trkpt lat="42.19211" lon="14.6427417"><ele>0.0</ele><time>2026-03-25T12:03:21.843Z</time></trkpt><trkpt lat="42.1921933" lon="14.642645"><ele>0.0</ele><time>2026-03-25T12:03:23.843Z</time></trkpt><trkpt lat="42.1922767" lon="14.6425617"><ele>0.0</ele><time>2026-03-25T12:03:25.843Z</time></trkpt><trkpt lat="42.1923433" lon="14.6424417"><ele>0.0</ele><time>2026-03-25T12:03:27.843Z</time></trkpt><trkpt lat="42.1923967" lon="14.642315"><ele>0.0</ele><time>2026-03-25T12:03:29.844Z</time></trkpt><trkpt lat="42.1924367" lon="14.6421783"><ele>0.0</ele><time>2026-03-25T12:03:31.843Z</time></trkpt><trkpt lat="42.1924733" lon="14.6420383"><ele>0.0</ele><time>2026-03-25T12:03:33.843Z</time></trkpt><trkpt lat="42.192515" lon="14.6419017"><ele>0.0</ele><time>2026-03-25T12:03:35.843Z</time></trkpt><trkpt lat="42.1925533" lon="14.6417567"><ele>0.0</ele><time>2026-03-25T12:03:37.844Z</time></trkpt><trkpt lat="42.1925917" lon="14.6416167"><ele>0.0</ele><time>2026-03-25T12:03:39.843Z</time></trkpt><trkpt lat="42.1926267" lon="14.641475"><ele>0.0</ele><time>2026-03-25T12:03:41.843Z</time></trkpt><trkpt lat="42.1926617" lon="14.6413333"><ele>0.0</ele><time>2026-03-25T12:03:43.844Z</time></trkpt><trkpt lat="42.1926983" lon="14.6411883"><ele>0.0</ele><time>2026-03-25T12:03:45.843Z</time></trkpt><trkpt lat="42.1927367" lon="14.641045"><ele>0.0</ele><time>2026-03-25T12:03:47.843Z</time></trkpt><trkpt lat="42.1927733" lon="14.6409067"><ele>0.0</ele><time>2026-03-25T12:03:49.843Z</time></trkpt><trkpt lat="42.1928133" lon="14.64077"><ele>0.0</ele><time>2026-03-25T12:03:51.843Z</time></trkpt><trkpt lat="42.19285" lon="14.6406367"><ele>0.0</ele><time>2026-03-25T12:03:53.843Z</time></trkpt><trkpt lat="42.1928883" lon="14.6404933"><ele>0.0</ele><time>2026-03-25T12:03:55.844Z</time></trkpt><trkpt lat="42.1929283" lon="14.6403533"><ele>0.0</ele><time>2026-03-25T12:03:57.843Z</time></trkpt><trkpt lat="42.1929667" lon="14.6402183"><ele>0.0</ele><time>2026-03-25T12:03:59.843Z</time></trkpt><trkpt lat="42.1930033" lon="14.6400767"><ele>0.0</ele><time>2026-03-25T12:04:01.843Z</time></trkpt><trkpt lat="42.1930367" lon="14.6399317"><ele>-0.2</ele><time>2026-03-25T12:04:03.843Z</time></trkpt><trkpt lat="42.19307" lon="14.639785"><ele>-0.4</ele><time>2026-03-25T12:04:05.843Z</time></trkpt><trkpt lat="42.1931083" lon="14.6396417"><ele>-0.6000000000000001</ele><time>2026-03-25T12:04:07.844Z</time></trkpt><trkpt lat="42.1931467" lon="14.6395033"><ele>-0.8</ele><time>2026-03-25T12:04:09.843Z</time></trkpt><trkpt lat="42.193185" lon="14.6393683"><ele>-1.0</ele><time>2026-03-25T12:04:11.844Z</time></trkpt><trkpt lat="42.193225" lon="14.6392167"><ele>-1.0</ele><time>2026-03-25T12:04:13.843Z</time></trkpt><trkpt lat="42.19326" lon="14.6390833"><ele>-1.0</ele><time>2026-03-25T12:04:15.843Z</time></trkpt><trkpt lat="42.1932967" lon="14.638945"><ele>-1.0</ele><time>2026-03-25T12:04:17.843Z</time></trkpt><trkpt lat="42.1933317" lon="14.6388067"><ele>-1.0</ele><time>2026-03-25T12:04:19.844Z</time></trkpt><trkpt lat="42.1933683" lon="14.6386717"><ele>-1.0</ele><time>2026-03-25T12:04:21.843Z</time></trkpt><trkpt lat="42.1934017" lon="14.63854"><ele>-0.6000000000000001</ele><time>2026-03-25T12:04:23.843Z</time></trkpt><trkpt lat="42.1934267" lon="14.63842"><ele>-0.20000000000000007</ele><time>2026-03-25T12:04:25.843Z</time></trkpt><trkpt lat="42.1934433" lon="14.63829"><ele>0.20000000000000007</ele><time>2026-03-25T12:04:27.843Z</time></trkpt><trkpt lat="42.1934733" lon="14.6381583"><ele>0.6000000000000001</ele><time>2026-03-25T12:04:29.843Z</time></trkpt><trkpt lat="42.19351" lon="14.6380217"><ele>1.0</ele><time>2026-03-25T12:04:31.843Z</time></trkpt><trkpt lat="42.1935517" lon="14.6378833"><ele>1.0</ele><time>2026-03-25T12:04:33.843Z</time></trkpt><trkpt lat="42.19359" lon="14.6377433"><ele>1.0</ele><time>2026-03-25T12:04:35.843Z</time></trkpt><trkpt lat="42.1936333" lon="14.6376033"><ele>1.0</ele><time>2026-03-25T12:04:37.843Z</time></trkpt><trkpt lat="42.1936783" lon="14.6374733"><ele>1.0</ele><time>2026-03-25T12:04:39.843Z</time></trkpt><trkpt lat="42.1937133" lon="14.6373367"><ele>1.0</ele><time>2026-03-25T12:04:41.843Z</time></trkpt><trkpt lat="42.193755" lon="14.6371917"><ele>1.0</ele><time>2026-03-25T12:04:43.843Z</time></trkpt><trkpt lat="42.1938033" lon="14.63705"><ele>1.0</ele><time>2026-03-25T12:04:45.844Z</time></trkpt><trkpt lat="42.1938433" lon="14.6369183"><ele>1.0</ele><time>2026-03-25T12:04:47.843Z</time></trkpt><trkpt lat="42.1938833" lon="14.6367817"><ele>1.0</ele><time>2026-03-25T12:04:49.844Z</time></trkpt><trkpt lat="42.1939183" lon="14.6366433"><ele>1.0</ele><time>2026-03-25T12:04:51.843Z</time></trkpt><trkpt lat="42.1939533" lon="14.6365017"><ele>1.0</ele><time>2026-03-25T12:04:53.843Z</time></trkpt><trkpt lat="42.1939967" lon="14.636365"><ele>1.0</ele><time>2026-03-25T12:04:55.844Z</time></trkpt><trkpt lat="42.194035" lon="14.636225"><ele>1.0</ele><time>2026-03-25T12:04:57.843Z</time></trkpt><trkpt lat="42.1940717" lon="14.636075"><ele>1.0</ele><time>2026-03-25T12:04:59.843Z</time></trkpt><trkpt lat="42.1941083" lon="14.6359317"><ele>1.0</ele><time>2026-03-25T12:05:01.843Z</time></trkpt><trkpt lat="42.1941467" lon="14.6358"><ele>1.0</ele><time>2026-03-25T12:05:03.844Z</time></trkpt><trkpt lat="42.1941883" lon="14.635665"><ele>1.0</ele><time>2026-03-25T12:05:05.843Z</time></trkpt><trkpt lat="42.1942267" lon="14.63553"><ele>1.0</ele><time>2026-03-25T12:05:07.843Z</time></trkpt><trkpt lat="42.1942617" lon="14.6353933"><ele>1.0</ele><time>2026-03-25T12:05:09.843Z</time></trkpt><trkpt lat="42.1942967" lon="14.63525"><ele>1.2000000000000002</ele><time>2026-03-25T12:05:11.844Z</time></trkpt><trkpt lat="42.1943333" lon="14.6351117"><ele>1.4000000000000001</ele><time>2026-03-25T12:05:13.843Z</time></trkpt><trkpt lat="42.1943783" lon="14.6349783"><ele>1.6</ele><time>2026-03-25T12:05:15.843Z</time></trkpt><trkpt lat="42.1944233" lon="14.6348383"><ele>1.8</ele><time>2026-03-25T12:05:17.843Z</time></trkpt><trkpt lat="42.1944583" lon="14.6347017"><ele>2.0</ele><time>2026-03-25T12:05:19.843Z</time></trkpt><trkpt lat="42.1945" lon="14.634555"><ele>2.4000000000000004</ele><time>2026-03-25T12:05:21.843Z</time></trkpt><trkpt lat="42.1945383" lon="14.63442"><ele>2.8000000000000003</ele><time>2026-03-25T12:05:23.844Z</time></trkpt><trkpt lat="42.1945783" lon="14.634295"><ele>3.2</ele><time>2026-03-25T12:05:25.844Z</time></trkpt><trkpt lat="42.1946233" lon="14.63417"><ele>3.6</ele><time>2026-03-25T12:05:27.844Z</time></trkpt><trkpt lat="42.1946733" lon="14.6340367"><ele>4.0</ele><time>2026-03-25T12:05:29.843Z</time></trkpt><trkpt lat="42.1947183" lon="14.633905"><ele>4.0</ele><time>2026-03-25T12:05:31.844Z</time></trkpt><trkpt lat="42.19476" lon="14.6337617"><ele>4.0</ele><time>2026-03-25T12:05:33.843Z</time></trkpt><trkpt lat="42.1947967" lon="14.63363"><ele>4.0</ele><time>2026-03-25T12:05:35.843Z</time></trkpt><trkpt lat="42.1948317" lon="14.6334933"><ele>4.0</ele><time>2026-03-25T12:05:37.843Z</time></trkpt><trkpt lat="42.19487" lon="14.63334"><ele>4.0</ele><time>2026-03-25T12:05:39.844Z</time></trkpt><trkpt lat="42.1949083" lon="14.63321"><ele>4.2</ele><time>2026-03-25T12:05:41.843Z</time></trkpt><trkpt lat="42.1949517" lon="14.6330717"><ele>4.4</ele><time>2026-03-25T12:05:43.843Z</time></trkpt><trkpt lat="42.1949883" lon="14.632925"><ele>4.6</ele><time>2026-03-25T12:05:45.843Z</time></trkpt><trkpt lat="42.1950067" lon="14.6328417"><ele>4.8</ele><time>2026-03-25T12:05:46.843Z</time></trkpt><trkpt lat="42.1950433" lon="14.6327017"><ele>5.0</ele><time>2026-03-25T12:05:48.843Z</time></trkpt><trkpt lat="42.1950817" lon="14.6325667"><ele>5.0</ele><time>2026-03-25T12:05:50.843Z</time></trkpt><trkpt lat="42.1951233" lon="14.6324267"><ele>5.0</ele><time>2026-03-25T12:05:52.843Z</time></trkpt><trkpt lat="42.1951667" lon="14.6322833"><ele>5.0</ele><time>2026-03-25T12:05:54.843Z</time></trkpt><trkpt lat="42.1952067" lon="14.6321483"><ele>5.0</ele><time>2026-03-25T12:05:56.843Z</time></trkpt><trkpt lat="42.195245" lon="14.6320133"><ele>5.0</ele><time>2026-03-25T12:05:58.843Z</time></trkpt><trkpt lat="42.1952833" lon="14.6318683"><ele>4.75</ele><time>2026-03-25T12:06:00.843Z</time></trkpt><trkpt lat="42.195325" lon="14.6317167"><ele>4.5</ele><time>2026-03-25T12:06:02.843Z</time></trkpt><trkpt lat="42.1953617" lon="14.63158"><ele>4.25</ele><time>2026-03-25T12:06:04.843Z</time></trkpt><trkpt lat="42.1954017" lon="14.6314433"><ele>4.0</ele><time>2026-03-25T12:06:06.843Z</time></trkpt><trkpt lat="42.1954417" lon="14.6312983"><ele>4.0</ele><time>2026-03-25T12:06:08.844Z</time></trkpt><trkpt lat="42.195485" lon="14.6311533"><ele>4.0</ele><time>2026-03-25T12:06:10.843Z</time></trkpt><trkpt lat="42.195525" lon="14.6310083"><ele>4.0</ele><time>2026-03-25T12:06:12.843Z</time></trkpt><trkpt lat="42.1955633" lon="14.6308667"><ele>4.0</ele><time>2026-03-25T12:06:14.844Z</time></trkpt><trkpt lat="42.1956033" lon="14.6307217"><ele>4.0</ele><time>2026-03-25T12:06:16.843Z</time></trkpt><trkpt lat="42.1956433" lon="14.6305783"><ele>4.0</ele><time>2026-03-25T12:06:18.843Z</time></trkpt><trkpt lat="42.19568" lon="14.6304367"><ele>4.0</ele><time>2026-03-25T12:06:20.843Z</time></trkpt><trkpt lat="42.19572" lon="14.63029"><ele>4.0</ele><time>2026-03-25T12:06:22.843Z</time></trkpt><trkpt lat="42.19576" lon="14.6301417"><ele>4.0</ele><time>2026-03-25T12:06:24.843Z</time></trkpt><trkpt lat="42.1958017" lon="14.6299983"><ele>4.0</ele><time>2026-03-25T12:06:26.843Z</time></trkpt><trkpt lat="42.1958433" lon="14.629865"><ele>4.0</ele><time>2026-03-25T12:06:28.843Z</time></trkpt><trkpt lat="42.1958817" lon="14.629725"><ele>4.0</ele><time>2026-03-25T12:06:30.843Z</time></trkpt><trkpt lat="42.1959217" lon="14.6295883"><ele>4.0</ele><time>2026-03-25T12:06:32.843Z</time></trkpt><trkpt lat="42.1959683" lon="14.6294667"><ele>4.0</ele><time>2026-03-25T12:06:34.843Z</time></trkpt><trkpt lat="42.1960233" lon="14.6293583"><ele>4.0</ele><time>2026-03-25T12:06:36.843Z</time></trkpt><trkpt lat="42.1960617" lon="14.629225"><ele>4.0</ele><time>2026-03-25T12:06:38.843Z</time></trkpt><trkpt lat="42.1960917" lon="14.6290767"><ele>4.0</ele><time>2026-03-25T12:06:40.843Z</time></trkpt><trkpt lat="42.1961117" lon="14.6289167"><ele>4.0</ele><time>2026-03-25T12:06:42.844Z</time></trkpt><trkpt lat="42.1961233" lon="14.6287717"><ele>4.0</ele><time>2026-03-25T12:06:44.843Z</time></trkpt><trkpt lat="42.1961483" lon="14.628645"><ele>4.0</ele><time>2026-03-25T12:06:46.843Z</time></trkpt><trkpt lat="42.1961683" lon="14.62851"><ele>4.0</ele><time>2026-03-25T12:06:48.843Z</time></trkpt><trkpt lat="42.1962017" lon="14.6283933"><ele>4.0</ele><time>2026-03-25T12:06:50.843Z</time></trkpt><trkpt lat="42.1962383" lon="14.6282733"><ele>4.0</ele><time>2026-03-25T12:06:52.844Z</time></trkpt><trkpt lat="42.1962883" lon="14.6281433"><ele>4.0</ele><time>2026-03-25T12:06:54.843Z</time></trkpt><trkpt lat="42.19634" lon="14.627995"><ele>4.0</ele><time>2026-03-25T12:06:56.844Z</time></trkpt><trkpt lat="42.1963667" lon="14.6279167"><ele>4.0</ele><time>2026-03-25T12:06:57.843Z</time></trkpt><trkpt lat="42.1963917" lon="14.6278383"><ele>4.0</ele><time>2026-03-25T12:06:58.843Z</time></trkpt><trkpt lat="42.196445" lon="14.627685"><ele>4.0</ele><time>2026-03-25T12:07:00.843Z</time></trkpt><trkpt lat="42.1965" lon="14.6275367"><ele>3.6</ele><time>2026-03-25T12:07:02.844Z</time></trkpt><trkpt lat="42.1965517" lon="14.6273933"><ele>3.2</ele><time>2026-03-25T12:07:04.844Z</time></trkpt><trkpt lat="42.1966" lon="14.62725"><ele>2.8000000000000003</ele><time>2026-03-25T12:07:06.843Z</time></trkpt><trkpt lat="42.1966517" lon="14.6271217"><ele>2.4000000000000004</ele><time>2026-03-25T12:07:08.843Z</time></trkpt><trkpt lat="42.1966967" lon="14.6269967"><ele>2.0</ele><time>2026-03-25T12:07:10.843Z</time></trkpt><trkpt lat="42.196745" lon="14.6268633"><ele>1.5</ele><time>2026-03-25T12:07:12.844Z</time></trkpt><trkpt lat="42.1967933" lon="14.62672"><ele>1.0</ele><time>2026-03-25T12:07:14.843Z</time></trkpt><trkpt lat="42.19684" lon="14.6265867"><ele>0.5</ele><time>2026-03-25T12:07:16.843Z</time></trkpt><trkpt lat="42.19689" lon="14.626455"><ele>0.0</ele><time>2026-03-25T12:07:18.844Z</time></trkpt><trkpt lat="42.196935" lon="14.6263117"><ele>0.0</ele><time>2026-03-25T12:07:20.844Z</time></trkpt><trkpt lat="42.1969817" lon="14.6261767"><ele>0.0</ele><time>2026-03-25T12:07:22.843Z</time></trkpt><trkpt lat="42.1970267" lon="14.626045"><ele>0.0</ele><time>2026-03-25T12:07:24.844Z</time></trkpt><trkpt lat="42.1970733" lon="14.625915"><ele>0.0</ele><time>2026-03-25T12:07:26.843Z</time></trkpt><trkpt lat="42.19712" lon="14.6257817"><ele>0.0</ele><time>2026-03-25T12:07:28.844Z</time></trkpt><trkpt lat="42.1971733" lon="14.625645"><ele>1.0</ele><time>2026-03-25T12:07:30.843Z</time></trkpt><trkpt lat="42.19722" lon="14.6255033"><ele>2.0</ele><time>2026-03-25T12:07:32.843Z</time></trkpt><trkpt lat="42.1972683" lon="14.6253783"><ele>3.0</ele><time>2026-03-25T12:07:34.844Z</time></trkpt><trkpt lat="42.197315" lon="14.62524"><ele>4.0</ele><time>2026-03-25T12:07:36.844Z</time></trkpt><trkpt lat="42.1973617" lon="14.625105"><ele>5.0</ele><time>2026-03-25T12:07:38.843Z</time></trkpt><trkpt lat="42.197415" lon="14.6249683"><ele>5.0</ele><time>2026-03-25T12:07:40.843Z</time></trkpt><trkpt lat="42.1974667" lon="14.6248283"><ele>5.0</ele><time>2026-03-25T12:07:42.843Z</time></trkpt><trkpt lat="42.1975183" lon="14.6246883"><ele>5.0</ele><time>2026-03-25T12:07:44.844Z</time></trkpt><trkpt lat="42.1975617" lon="14.6245467"><ele>5.0</ele><time>2026-03-25T12:07:46.844Z</time></trkpt><trkpt lat="42.1976017" lon="14.624415"><ele>6.0</ele><time>2026-03-25T12:07:48.844Z</time></trkpt><trkpt lat="42.19765" lon="14.62427"><ele>7.0</ele><time>2026-03-25T12:07:50.844Z</time></trkpt><trkpt lat="42.197695" lon="14.6241283"><ele>8.0</ele><time>2026-03-25T12:07:52.844Z</time></trkpt><trkpt lat="42.1977383" lon="14.6239883"><ele>9.0</ele><time>2026-03-25T12:07:54.845Z</time></trkpt><trkpt lat="42.1977817" lon="14.6238433"><ele>9.0</ele><time>2026-03-25T12:07:56.844Z</time></trkpt><trkpt lat="42.1978217" lon="14.6237067"><ele>9.0</ele><time>2026-03-25T12:07:58.844Z</time></trkpt><trkpt lat="42.19786" lon="14.6235633"><ele>9.0</ele><time>2026-03-25T12:08:00.844Z</time></trkpt><trkpt lat="42.1978917" lon="14.6234283"><ele>9.0</ele><time>2026-03-25T12:08:02.844Z</time></trkpt><trkpt lat="42.197915" lon="14.62329"><ele>9.0</ele><time>2026-03-25T12:08:04.845Z</time></trkpt><trkpt lat="42.1979433" lon="14.6231383"><ele>9.4</ele><time>2026-03-25T12:08:06.844Z</time></trkpt><trkpt lat="42.197995" lon="14.6230067"><ele>9.8</ele><time>2026-03-25T12:08:08.845Z</time></trkpt><trkpt lat="42.19805" lon="14.6228683"><ele>10.200000000000001</ele><time>2026-03-25T12:08:10.844Z</time></trkpt><trkpt lat="42.1980933" lon="14.6227283"><ele>10.600000000000001</ele><time>2026-03-25T12:08:12.844Z</time></trkpt><trkpt lat="42.1981383" lon="14.6225933"><ele>11.0</ele><time>2026-03-25T12:08:14.844Z</time></trkpt><trkpt lat="42.1981833" lon="14.62245"><ele>10.4</ele><time>2026-03-25T12:08:16.844Z</time></trkpt><trkpt lat="42.19823" lon="14.622315"><ele>9.8</ele><time>2026-03-25T12:08:18.844Z</time></trkpt><trkpt lat="42.1982733" lon="14.622175"><ele>9.200000000000001</ele><time>2026-03-25T12:08:20.844Z</time></trkpt><trkpt lat="42.1983117" lon="14.62203"><ele>8.600000000000001</ele><time>2026-03-25T12:08:22.845Z</time></trkpt><trkpt lat="42.1983483" lon="14.6218917"><ele>8.0</ele><time>2026-03-25T12:08:24.844Z</time></trkpt><trkpt lat="42.1983883" lon="14.6217483"><ele>8.0</ele><time>2026-03-25T12:08:26.844Z</time></trkpt><trkpt lat="42.1984333" lon="14.6216"><ele>8.0</ele><time>2026-03-25T12:08:28.844Z</time></trkpt><trkpt lat="42.1984783" lon="14.62146"><ele>8.0</ele><time>2026-03-25T12:08:30.845Z</time></trkpt><trkpt lat="42.1985167" lon="14.6213267"><ele>8.0</ele><time>2026-03-25T12:08:32.845Z</time></trkpt><trkpt lat="42.1985583" lon="14.6211933"><ele>8.0</ele><time>2026-03-25T12:08:34.845Z</time></trkpt><trkpt lat="42.198595" lon="14.62106"><ele>8.200000000000001</ele><time>2026-03-25T12:08:36.844Z</time></trkpt><trkpt lat="42.1986333" lon="14.62092"><ele>8.4</ele><time>2026-03-25T12:08:38.844Z</time></trkpt><trkpt lat="42.19867" lon="14.6207833"><ele>8.600000000000001</ele><time>2026-03-25T12:08:40.844Z</time></trkpt><trkpt lat="42.1987067" lon="14.6206467"><ele>8.8</ele><time>2026-03-25T12:08:42.844Z</time></trkpt><trkpt lat="42.1987467" lon="14.6205033"><ele>9.0</ele><time>2026-03-25T12:08:44.844Z</time></trkpt><trkpt lat="42.1987883" lon="14.6203633"><ele>9.0</ele><time>2026-03-25T12:08:46.844Z</time></trkpt><trkpt lat="42.198825" lon="14.6202183"><ele>9.0</ele><time>2026-03-25T12:08:48.844Z</time></trkpt><trkpt lat="42.198865" lon="14.6200817"><ele>9.0</ele><time>2026-03-25T12:08:50.844Z</time></trkpt><trkpt lat="42.1989067" lon="14.6199333"><ele>9.0</ele><time>2026-03-25T12:08:52.844Z</time></trkpt><trkpt lat="42.19895" lon="14.619795"><ele>9.0</ele><time>2026-03-25T12:08:54.844Z</time></trkpt><trkpt lat="42.1989867" lon="14.6196717"><ele>9.0</ele><time>2026-03-25T12:08:56.845Z</time></trkpt><trkpt lat="42.19903" lon="14.6195433"><ele>9.0</ele><time>2026-03-25T12:08:58.844Z</time></trkpt><trkpt lat="42.1990717" lon="14.619405"><ele>9.0</ele><time>2026-03-25T12:09:00.845Z</time></trkpt><trkpt lat="42.1991133" lon="14.6192717"><ele>9.0</ele><time>2026-03-25T12:09:02.844Z</time></trkpt><trkpt lat="42.1991567" lon="14.6191483"><ele>7.8</ele><time>2026-03-25T12:09:04.844Z</time></trkpt><trkpt lat="42.1992" lon="14.6190267"><ele>6.6000000000000005</ele><time>2026-03-25T12:09:06.845Z</time></trkpt><trkpt lat="42.1992483" lon="14.6188983"><ele>5.4</ele><time>2026-03-25T12:09:08.845Z</time></trkpt><trkpt lat="42.19929" lon="14.6187733"><ele>4.2</ele><time>2026-03-25T12:09:10.844Z</time></trkpt><trkpt lat="42.1993333" lon="14.6186317"><ele>3.0</ele><time>2026-03-25T12:09:12.844Z</time></trkpt><trkpt lat="42.1993767" lon="14.618495"><ele>3.0</ele><time>2026-03-25T12:09:14.844Z</time></trkpt><trkpt lat="42.19942" lon="14.618355"><ele>3.0</ele><time>2026-03-25T12:09:16.845Z</time></trkpt><trkpt lat="42.199465" lon="14.6182083"><ele>3.0</ele><time>2026-03-25T12:09:18.844Z</time></trkpt><trkpt lat="42.199515" lon="14.61806"><ele>3.0</ele><time>2026-03-25T12:09:20.844Z</time></trkpt><trkpt lat="42.1995667" lon="14.617925"><ele>3.5999999999999996</ele><time>2026-03-25T12:09:22.844Z</time></trkpt><trkpt lat="42.1996117" lon="14.6177867"><ele>4.199999999999999</ele><time>2026-03-25T12:09:24.844Z</time></trkpt><trkpt lat="42.1996567" lon="14.6176567"><ele>4.8</ele><time>2026-03-25T12:09:26.845Z</time></trkpt><trkpt lat="42.1997017" lon="14.617525"><ele>5.3999999999999995</ele><time>2026-03-25T12:09:28.845Z</time></trkpt><trkpt lat="42.1997483" lon="14.617405"><ele>6.0</ele><time>2026-03-25T12:09:30.845Z</time></trkpt><trkpt lat="42.19979" lon="14.6172683"><ele>6.0</ele><time>2026-03-25T12:09:32.844Z</time></trkpt><trkpt lat="42.1998317" lon="14.6171317"><ele>6.0</ele><time>2026-03-25T12:09:34.844Z</time></trkpt><trkpt lat="42.19988" lon="14.6170017"><ele>6.0</ele><time>2026-03-25T12:09:36.844Z</time></trkpt><trkpt lat="42.1999233" lon="14.6168733"><ele>6.0</ele><time>2026-03-25T12:09:38.844Z</time></trkpt><trkpt lat="42.19997" lon="14.6167417"><ele>6.0</ele><time>2026-03-25T12:09:40.844Z</time></trkpt><trkpt lat="42.2000133" lon="14.61661"><ele>5.5</ele><time>2026-03-25T12:09:42.844Z</time></trkpt><trkpt lat="42.20006" lon="14.616475"><ele>5.0</ele><time>2026-03-25T12:09:44.844Z</time></trkpt><trkpt lat="42.2001067" lon="14.6163317"><ele>4.5</ele><time>2026-03-25T12:09:46.844Z</time></trkpt><trkpt lat="42.200155" lon="14.6161933"><ele>4.0</ele><time>2026-03-25T12:09:48.844Z</time></trkpt><trkpt lat="42.2002017" lon="14.6160583"><ele>4.0</ele><time>2026-03-25T12:09:50.845Z</time></trkpt><trkpt lat="42.2002483" lon="14.6159217"><ele>4.0</ele><time>2026-03-25T12:09:52.844Z</time></trkpt><trkpt lat="42.2002967" lon="14.6157833"><ele>4.0</ele><time>2026-03-25T12:09:54.844Z</time></trkpt><trkpt lat="42.2003483" lon="14.6156533"><ele>4.0</ele><time>2026-03-25T12:09:56.844Z</time></trkpt><trkpt lat="42.200405" lon="14.61553"><ele>4.0</ele><time>2026-03-25T12:09:58.844Z</time></trkpt><trkpt lat="42.20046" lon="14.615415"><ele>3.8000000000000003</ele><time>2026-03-25T12:10:00.844Z</time></trkpt><trkpt lat="42.200515" lon="14.615295"><ele>3.6000000000000005</ele><time>2026-03-25T12:10:02.844Z</time></trkpt><trkpt lat="42.200595" lon="14.615185"><ele>3.4</ele><time>2026-03-25T12:10:04.844Z</time></trkpt><trkpt lat="42.200635" lon="14.6151133"><ele>3.2</ele><time>2026-03-25T12:10:05.844Z</time></trkpt><trkpt lat="42.2006917" lon="14.614965"><ele>3.0</ele><time>2026-03-25T12:10:07.845Z</time></trkpt><trkpt lat="42.2007083" lon="14.6147983"><ele>3.0</ele><time>2026-03-25T12:10:09.844Z</time></trkpt><trkpt lat="42.2006933" lon="14.614665"><ele>3.0</ele><time>2026-03-25T12:10:11.845Z</time></trkpt><trkpt lat="42.2006967" lon="14.61455"><ele>3.0</ele><time>2026-03-25T12:10:13.845Z</time></trkpt><trkpt lat="42.2007333" lon="14.6144533"><ele>3.0</ele><time>2026-03-25T12:10:15.844Z</time></trkpt><trkpt lat="42.2007733" lon="14.6143383"><ele>3.0</ele><time>2026-03-25T12:10:17.845Z</time></trkpt><trkpt lat="42.2008033" lon="14.61422"><ele>3.4</ele><time>2026-03-25T12:10:19.844Z</time></trkpt><trkpt lat="42.2008367" lon="14.6140883"><ele>3.8</ele><time>2026-03-25T12:10:21.844Z</time></trkpt><trkpt lat="42.2008683" lon="14.6139483"><ele>4.2</ele><time>2026-03-25T12:10:23.844Z</time></trkpt><trkpt lat="42.2009033" lon="14.613815"><ele>4.6</ele><time>2026-03-25T12:10:25.844Z</time></trkpt><trkpt lat="42.2009517" lon="14.6136717"><ele>5.0</ele><time>2026-03-25T12:10:27.844Z</time></trkpt><trkpt lat="42.2009917" lon="14.6135233"><ele>5.4</ele><time>2026-03-25T12:10:29.844Z</time></trkpt><trkpt lat="42.2010167" lon="14.613435"><ele>5.8</ele><time>2026-03-25T12:10:30.844Z</time></trkpt><trkpt lat="42.20107" lon="14.6132867"><ele>6.199999999999999</ele><time>2026-03-25T12:10:32.845Z</time></trkpt><trkpt lat="42.2010983" lon="14.6132083"><ele>6.6</ele><time>2026-03-25T12:10:33.844Z</time></trkpt><trkpt lat="42.20115" lon="14.61306"><ele>7.0</ele><time>2026-03-25T12:10:35.844Z</time></trkpt><trkpt lat="42.201195" lon="14.6129067"><ele>7.000000000000001</ele><time>2026-03-25T12:10:37.844Z</time></trkpt><trkpt lat="42.2012183" lon="14.612825"><ele>7.0</ele><time>2026-03-25T12:10:38.844Z</time></trkpt><trkpt lat="42.201245" lon="14.6127467"><ele>7.0</ele><time>2026-03-25T12:10:39.844Z</time></trkpt><trkpt lat="42.2012867" lon="14.6125967"><ele>7.0</ele><time>2026-03-25T12:10:41.844Z</time></trkpt><trkpt lat="42.20133" lon="14.6124383"><ele>7.000000000000001</ele><time>2026-03-25T12:10:43.845Z</time></trkpt><trkpt lat="42.2013517" lon="14.6123583"><ele>7.0</ele><time>2026-03-25T12:10:44.845Z</time></trkpt><trkpt lat="42.2013767" lon="14.6122767"><ele>6.8</ele><time>2026-03-25T12:10:45.844Z</time></trkpt><trkpt lat="42.2014017" lon="14.612195"><ele>6.6</ele><time>2026-03-25T12:10:46.844Z</time></trkpt><trkpt lat="42.2014433" lon="14.6120367"><ele>6.3999999999999995</ele><time>2026-03-25T12:10:48.845Z</time></trkpt><trkpt lat="42.2014883" lon="14.6118967"><ele>6.199999999999999</ele><time>2026-03-25T12:10:50.844Z</time></trkpt><trkpt lat="42.201535" lon="14.6117517"><ele>6.0</ele><time>2026-03-25T12:10:52.844Z</time></trkpt><trkpt lat="42.2015817" lon="14.61162"><ele>5.8</ele><time>2026-03-25T12:10:54.844Z</time></trkpt><trkpt lat="42.201625" lon="14.61148"><ele>5.6</ele><time>2026-03-25T12:10:56.844Z</time></trkpt><trkpt lat="42.2016733" lon="14.6113433"><ele>5.4</ele><time>2026-03-25T12:10:58.844Z</time></trkpt><trkpt lat="42.2017183" lon="14.6112167"><ele>5.2</ele><time>2026-03-25T12:11:00.844Z</time></trkpt><trkpt lat="42.2017633" lon="14.6110917"><ele>5.0</ele><time>2026-03-25T12:11:02.845Z</time></trkpt><trkpt lat="42.20181" lon="14.610945"><ele>5.0</ele><time>2026-03-25T12:11:04.844Z</time></trkpt><trkpt lat="42.20185" lon="14.6108183"><ele>5.0</ele><time>2026-03-25T12:11:06.844Z</time></trkpt><trkpt lat="42.2018933" lon="14.6106867"><ele>5.0</ele><time>2026-03-25T12:11:08.844Z</time></trkpt><trkpt lat="42.2019367" lon="14.6105617"><ele>5.0</ele><time>2026-03-25T12:11:10.845Z</time></trkpt><trkpt lat="42.2019567" lon="14.6104117"><ele>5.0</ele><time>2026-03-25T12:11:12.845Z</time></trkpt><trkpt lat="42.2019667" lon="14.6102867"><ele>4.666666666666667</ele><time>2026-03-25T12:11:14.844Z</time></trkpt><trkpt lat="42.20197" lon="14.6101767"><ele>4.333333333333334</ele><time>2026-03-25T12:11:16.845Z</time></trkpt><trkpt lat="42.20197" lon="14.61006"><ele>4.0</ele><time>2026-03-25T12:11:19.844Z</time></trkpt><trkpt lat="42.2019883" lon="14.6099417"><ele>3.666666666666667</ele><time>2026-03-25T12:11:22.844Z</time></trkpt><trkpt lat="42.2020117" lon="14.6098233"><ele>3.3333333333333335</ele><time>2026-03-25T12:11:25.844Z</time></trkpt><trkpt lat="42.202045" lon="14.6097333"><ele>3.0</ele><time>2026-03-25T12:11:27.845Z</time></trkpt><trkpt lat="42.20208" lon="14.6096433"><ele>3.0</ele><time>2026-03-25T12:11:29.844Z</time></trkpt><trkpt lat="42.2021183" lon="14.6095317"><ele>3.0</ele><time>2026-03-25T12:11:31.844Z</time></trkpt><trkpt lat="42.2021667" lon="14.6094033"><ele>3.0</ele><time>2026-03-25T12:11:33.844Z</time></trkpt><trkpt lat="42.2022167" lon="14.60928"><ele>3.0</ele><time>2026-03-25T12:11:35.844Z</time></trkpt><trkpt lat="42.2022667" lon="14.609155"><ele>3.0</ele><time>2026-03-25T12:11:37.844Z</time></trkpt><trkpt lat="42.2023133" lon="14.60902"><ele>3.2</ele><time>2026-03-25T12:11:39.844Z</time></trkpt><trkpt lat="42.2023667" lon="14.6088917"><ele>3.4</ele><time>2026-03-25T12:11:41.845Z</time></trkpt><trkpt lat="42.202425" lon="14.60876"><ele>3.6000000000000005</ele><time>2026-03-25T12:11:43.844Z</time></trkpt><trkpt lat="42.2024767" lon="14.6086267"><ele>3.8000000000000003</ele><time>2026-03-25T12:11:45.844Z</time></trkpt><trkpt lat="42.2025333" lon="14.6084983"><ele>4.0</ele><time>2026-03-25T12:11:47.844Z</time></trkpt><trkpt lat="42.2025883" lon="14.608365"><ele>4.0</ele><time>2026-03-25T12:11:49.844Z</time></trkpt><trkpt lat="42.2026467" lon="14.6082267"><ele>4.0</ele><time>2026-03-25T12:11:51.844Z</time></trkpt><trkpt lat="42.202705" lon="14.6080917"><ele>4.0</ele><time>2026-03-25T12:11:53.845Z</time></trkpt><trkpt lat="42.20276" lon="14.6079633"><ele>4.0</ele><time>2026-03-25T12:11:55.844Z</time></trkpt><trkpt lat="42.20281" lon="14.6078483"><ele>4.0</ele><time>2026-03-25T12:11:57.844Z</time></trkpt><trkpt lat="42.202865" lon="14.60772"><ele>3.75</ele><time>2026-03-25T12:11:59.845Z</time></trkpt><trkpt lat="42.2029217" lon="14.607585"><ele>3.5</ele><time>2026-03-25T12:12:01.844Z</time></trkpt><trkpt lat="42.2029783" lon="14.6074533"><ele>3.25</ele><time>2026-03-25T12:12:03.844Z</time></trkpt><trkpt lat="42.2030383" lon="14.6073117"><ele>3.0</ele><time>2026-03-25T12:12:05.845Z</time></trkpt><trkpt lat="42.2031017" lon="14.6071767"><ele>3.0</ele><time>2026-03-25T12:12:07.845Z</time></trkpt><trkpt lat="42.2031633" lon="14.607045"><ele>3.0</ele><time>2026-03-25T12:12:09.844Z</time></trkpt><trkpt lat="42.20322" lon="14.6069117"><ele>3.0</ele><time>2026-03-25T12:12:11.844Z</time></trkpt><trkpt lat="42.203275" lon="14.6067817"><ele>3.0</ele><time>2026-03-25T12:12:13.844Z</time></trkpt><trkpt lat="42.203335" lon="14.6066383"><ele>2.5</ele><time>2026-03-25T12:12:15.844Z</time></trkpt><trkpt lat="42.203395" lon="14.606495"><ele>2.0</ele><time>2026-03-25T12:12:17.844Z</time></trkpt><trkpt lat="42.20346" lon="14.6063533"><ele>1.5</ele><time>2026-03-25T12:12:19.844Z</time></trkpt><trkpt lat="42.2035167" lon="14.6062233"><ele>1.0</ele><time>2026-03-25T12:12:21.845Z</time></trkpt><trkpt lat="42.2035717" lon="14.6060883"><ele>0.75</ele><time>2026-03-25T12:12:23.844Z</time></trkpt><trkpt lat="42.2036333" lon="14.60595"><ele>0.5</ele><time>2026-03-25T12:12:25.844Z</time></trkpt><trkpt lat="42.2036933" lon="14.6058117"><ele>0.25</ele><time>2026-03-25T12:12:27.844Z</time></trkpt><trkpt lat="42.203745" lon="14.605685"><ele>0.0</ele><time>2026-03-25T12:12:29.844Z</time></trkpt><trkpt lat="42.2038" lon="14.6055517"><ele>0.0</ele><time>2026-03-25T12:12:31.844Z</time></trkpt><trkpt lat="42.20386" lon="14.60542"><ele>0.0</ele><time>2026-03-25T12:12:33.844Z</time></trkpt><trkpt lat="42.20392" lon="14.6052783"><ele>0.0</ele><time>2026-03-25T12:12:35.844Z</time></trkpt><trkpt lat="42.20395" lon="14.6052033"><ele>0.0</ele><time>2026-03-25T12:12:36.845Z</time></trkpt><trkpt lat="42.20401" lon="14.605065"><ele>0.0</ele><time>2026-03-25T12:12:38.844Z</time></trkpt><trkpt lat="42.2040717" lon="14.6049267"><ele>0.0</ele><time>2026-03-25T12:12:40.845Z</time></trkpt><trkpt lat="42.20413" lon="14.604795"><ele>0.0</ele><time>2026-03-25T12:12:42.844Z</time></trkpt><trkpt lat="42.20419" lon="14.60466"><ele>0.0</ele><time>2026-03-25T12:12:44.844Z</time></trkpt><trkpt lat="42.2042517" lon="14.604525"><ele>0.0</ele><time>2026-03-25T12:12:46.844Z</time></trkpt><trkpt lat="42.20431" lon="14.60439"><ele>0.0</ele><time>2026-03-25T12:12:48.844Z</time></trkpt><trkpt lat="42.2043717" lon="14.6042517"><ele>0.0</ele><time>2026-03-25T12:12:50.844Z</time></trkpt><trkpt lat="42.2044283" lon="14.60411"><ele>0.0</ele><time>2026-03-25T12:12:52.844Z</time></trkpt><trkpt lat="42.2044867" lon="14.60397"><ele>0.0</ele><time>2026-03-25T12:12:54.844Z</time></trkpt><trkpt lat="42.2045483" lon="14.6038317"><ele>0.0</ele><time>2026-03-25T12:12:56.845Z</time></trkpt><trkpt lat="42.2046183" lon="14.6037133"><ele>0.0</ele><time>2026-03-25T12:12:58.844Z</time></trkpt><trkpt lat="42.204695" lon="14.6035933"><ele>0.0</ele><time>2026-03-25T12:13:00.845Z</time></trkpt><trkpt lat="42.2047583" lon="14.6034633"><ele>0.0</ele><time>2026-03-25T12:13:02.845Z</time></trkpt><trkpt lat="42.2048183" lon="14.6033383"><ele>1.0</ele><time>2026-03-25T12:13:04.845Z</time></trkpt><trkpt lat="42.2048767" lon="14.6031883"><ele>2.0</ele><time>2026-03-25T12:13:06.844Z</time></trkpt><trkpt lat="42.2049383" lon="14.6030483"><ele>3.0</ele><time>2026-03-25T12:13:08.844Z</time></trkpt><trkpt lat="42.2050017" lon="14.6029017"><ele>4.0</ele><time>2026-03-25T12:13:10.845Z</time></trkpt><trkpt lat="42.2050683" lon="14.602765"><ele>4.6</ele><time>2026-03-25T12:13:12.844Z</time></trkpt><trkpt lat="42.2051017" lon="14.60269"><ele>5.2</ele><time>2026-03-25T12:13:13.844Z</time></trkpt><trkpt lat="42.20516" lon="14.602555"><ele>5.799999999999999</ele><time>2026-03-25T12:13:15.844Z</time></trkpt><trkpt lat="42.2052183" lon="14.60242"><ele>6.3999999999999995</ele><time>2026-03-25T12:13:17.844Z</time></trkpt><trkpt lat="42.2052783" lon="14.602285"><ele>7.0</ele><time>2026-03-25T12:13:19.844Z</time></trkpt><trkpt lat="42.2053333" lon="14.6021683"><ele>7.0</ele><time>2026-03-25T12:13:21.845Z</time></trkpt><trkpt lat="42.2053933" lon="14.6020417"><ele>6.999999999999999</ele><time>2026-03-25T12:13:23.844Z</time></trkpt><trkpt lat="42.2054533" lon="14.6018983"><ele>6.999999999999999</ele><time>2026-03-25T12:13:25.844Z</time></trkpt><trkpt lat="42.205485" lon="14.6018233"><ele>7.0</ele><time>2026-03-25T12:13:26.844Z</time></trkpt><trkpt lat="42.2055483" lon="14.601685"><ele>7.0</ele><time>2026-03-25T12:13:28.844Z</time></trkpt><trkpt lat="42.20561" lon="14.6015433"><ele>7.25</ele><time>2026-03-25T12:13:30.844Z</time></trkpt><trkpt lat="42.20567" lon="14.601405"><ele>7.5</ele><time>2026-03-25T12:13:32.844Z</time></trkpt><trkpt lat="42.2057317" lon="14.6012633"><ele>7.75</ele><time>2026-03-25T12:13:34.844Z</time></trkpt><trkpt lat="42.2057883" lon="14.6011367"><ele>8.0</ele><time>2026-03-25T12:13:36.844Z</time></trkpt><trkpt lat="42.2058417" lon="14.6010083"><ele>8.0</ele><time>2026-03-25T12:13:38.845Z</time></trkpt><trkpt lat="42.2059017" lon="14.6008833"><ele>8.0</ele><time>2026-03-25T12:13:40.844Z</time></trkpt><trkpt lat="42.2059583" lon="14.6007467"><ele>8.0</ele><time>2026-03-25T12:13:42.844Z</time></trkpt><trkpt lat="42.20602" lon="14.6006033"><ele>8.0</ele><time>2026-03-25T12:13:44.844Z</time></trkpt><trkpt lat="42.2060783" lon="14.6004617"><ele>8.75</ele><time>2026-03-25T12:13:46.844Z</time></trkpt><trkpt lat="42.20615" lon="14.6003283"><ele>9.5</ele><time>2026-03-25T12:13:48.844Z</time></trkpt><trkpt lat="42.2062083" lon="14.6001933"><ele>10.25</ele><time>2026-03-25T12:13:50.844Z</time></trkpt><trkpt lat="42.2062633" lon="14.600065"><ele>11.0</ele><time>2026-03-25T12:13:52.844Z</time></trkpt><trkpt lat="42.2063183" lon="14.5999217"><ele>11.0</ele><time>2026-03-25T12:13:54.845Z</time></trkpt><trkpt lat="42.206375" lon="14.5997833"><ele>11.0</ele><time>2026-03-25T12:13:56.844Z</time></trkpt><trkpt lat="42.206435" lon="14.5996533"><ele>11.0</ele><time>2026-03-25T12:13:58.844Z</time></trkpt><trkpt lat="42.2064917" lon="14.5995117"><ele>11.0</ele><time>2026-03-25T12:14:00.844Z</time></trkpt><trkpt lat="42.2065483" lon="14.59938"><ele>10.4</ele><time>2026-03-25T12:14:02.844Z</time></trkpt><trkpt lat="42.20661" lon="14.5992533"><ele>9.8</ele><time>2026-03-25T12:14:04.844Z</time></trkpt><trkpt lat="42.2066717" lon="14.5991217"><ele>9.200000000000001</ele><time>2026-03-25T12:14:06.844Z</time></trkpt><trkpt lat="42.2067233" lon="14.5989867"><ele>8.600000000000001</ele><time>2026-03-25T12:14:08.844Z</time></trkpt><trkpt lat="42.20678" lon="14.5988633"><ele>8.0</ele><time>2026-03-25T12:14:10.844Z</time></trkpt><trkpt lat="42.2068417" lon="14.5987383"><ele>9.4</ele><time>2026-03-25T12:14:12.844Z</time></trkpt><trkpt lat="42.2068967" lon="14.598615"><ele>10.8</ele><time>2026-03-25T12:14:14.844Z</time></trkpt><trkpt lat="42.2069517" lon="14.5984867"><ele>12.2</ele><time>2026-03-25T12:14:16.844Z</time></trkpt><trkpt lat="42.2070117" lon="14.5983617"><ele>13.6</ele><time>2026-03-25T12:14:18.845Z</time></trkpt><trkpt lat="42.207065" lon="14.59824"><ele>15.0</ele><time>2026-03-25T12:14:20.844Z</time></trkpt><trkpt lat="42.2071233" lon="14.5981233"><ele>15.0</ele><time>2026-03-25T12:14:22.845Z</time></trkpt><trkpt lat="42.207175" lon="14.59799"><ele>15.0</ele><time>2026-03-25T12:14:24.845Z</time></trkpt><trkpt lat="42.2072383" lon="14.5978517"><ele>15.0</ele><time>2026-03-25T12:14:26.844Z</time></trkpt><trkpt lat="42.2072833" lon="14.5977183"><ele>15.0</ele><time>2026-03-25T12:14:28.844Z</time></trkpt><trkpt lat="42.2073367" lon="14.5975933"><ele>15.0</ele><time>2026-03-25T12:14:30.844Z</time></trkpt><trkpt lat="42.207395" lon="14.597465"><ele>14.8</ele><time>2026-03-25T12:14:32.844Z</time></trkpt><trkpt lat="42.2074533" lon="14.5973333"><ele>14.6</ele><time>2026-03-25T12:14:34.844Z</time></trkpt><trkpt lat="42.2075117" lon="14.5972083"><ele>14.399999999999999</ele><time>2026-03-25T12:14:36.844Z</time></trkpt><trkpt lat="42.2075633" lon="14.59708"><ele>14.2</ele><time>2026-03-25T12:14:38.845Z</time></trkpt><trkpt lat="42.207605" lon="14.5969433"><ele>14.0</ele><time>2026-03-25T12:14:40.844Z</time></trkpt><trkpt lat="42.2076533" lon="14.5967967"><ele>14.0</ele><time>2026-03-25T12:14:42.844Z</time></trkpt><trkpt lat="42.2077083" lon="14.5966567"><ele>13.999999999999998</ele><time>2026-03-25T12:14:44.844Z</time></trkpt><trkpt lat="42.2077667" lon="14.5965317"><ele>13.999999999999998</ele><time>2026-03-25T12:14:46.844Z</time></trkpt><trkpt lat="42.207825" lon="14.596405"><ele>14.0</ele><time>2026-03-25T12:14:48.844Z</time></trkpt><trkpt lat="42.20789" lon="14.5962817"><ele>14.0</ele><time>2026-03-25T12:14:50.844Z</time></trkpt><trkpt lat="42.207955" lon="14.5961567"><ele>14.799999999999999</ele><time>2026-03-25T12:14:52.844Z</time></trkpt><trkpt lat="42.2080083" lon="14.5960317"><ele>15.599999999999998</ele><time>2026-03-25T12:14:54.844Z</time></trkpt><trkpt lat="42.2080667" lon="14.5959133"><ele>16.4</ele><time>2026-03-25T12:14:56.845Z</time></trkpt><trkpt lat="42.2081317" lon="14.5957917"><ele>17.2</ele><time>2026-03-25T12:14:58.844Z</time></trkpt><trkpt lat="42.2081867" lon="14.595665"><ele>18.0</ele><time>2026-03-25T12:15:00.844Z</time></trkpt><trkpt lat="42.2082467" lon="14.5955433"><ele>17.2</ele><time>2026-03-25T12:15:02.844Z</time></trkpt><trkpt lat="42.2083067" lon="14.595425"><ele>16.4</ele><time>2026-03-25T12:15:04.844Z</time></trkpt><trkpt lat="42.2083683" lon="14.595305"><ele>15.599999999999998</ele><time>2026-03-25T12:15:06.844Z</time></trkpt><trkpt lat="42.208435" lon="14.595185"><ele>14.799999999999999</ele><time>2026-03-25T12:15:08.845Z</time></trkpt><trkpt lat="42.2085017" lon="14.5950667"><ele>14.0</ele><time>2026-03-25T12:15:10.845Z</time></trkpt><trkpt lat="42.20857" lon="14.5949367"><ele>14.0</ele><time>2026-03-25T12:15:12.844Z</time></trkpt><trkpt lat="42.2086367" lon="14.59481"><ele>14.0</ele><time>2026-03-25T12:15:14.844Z</time></trkpt><trkpt lat="42.20871" lon="14.5946917"><ele>14.0</ele><time>2026-03-25T12:15:16.845Z</time></trkpt><trkpt lat="42.20878" lon="14.594565"><ele>14.0</ele><time>2026-03-25T12:15:18.844Z</time></trkpt><trkpt lat="42.2088433" lon="14.594455"><ele>14.799999999999999</ele><time>2026-03-25T12:15:20.844Z</time></trkpt><trkpt lat="42.20891" lon="14.594345"><ele>15.599999999999998</ele><time>2026-03-25T12:15:22.844Z</time></trkpt><trkpt lat="42.208975" lon="14.5942367"><ele>16.4</ele><time>2026-03-25T12:15:24.844Z</time></trkpt><trkpt lat="42.2090433" lon="14.594115"><ele>17.2</ele><time>2026-03-25T12:15:26.844Z</time></trkpt><trkpt lat="42.20912" lon="14.5940033"><ele>18.0</ele><time>2026-03-25T12:15:28.844Z</time></trkpt><trkpt lat="42.2091917" lon="14.59389"><ele>17.0</ele><time>2026-03-25T12:15:30.844Z</time></trkpt><trkpt lat="42.2092617" lon="14.5937767"><ele>16.0</ele><time>2026-03-25T12:15:32.844Z</time></trkpt><trkpt lat="42.2093333" lon="14.59366"><ele>15.0</ele><time>2026-03-25T12:15:34.844Z</time></trkpt><trkpt lat="42.2094033" lon="14.5935467"><ele>14.0</ele><time>2026-03-25T12:15:36.844Z</time></trkpt><trkpt lat="42.209465" lon="14.5934317"><ele>13.0</ele><time>2026-03-25T12:15:38.844Z</time></trkpt><trkpt lat="42.2095233" lon="14.5933217"><ele>13.0</ele><time>2026-03-25T12:15:40.844Z</time></trkpt><trkpt lat="42.2095833" lon="14.5932117"><ele>13.0</ele><time>2026-03-25T12:15:42.844Z</time></trkpt><trkpt lat="42.2096417" lon="14.5930983"><ele>13.0</ele><time>2026-03-25T12:15:44.844Z</time></trkpt><trkpt lat="42.209715" lon="14.5929867"><ele>13.0</ele><time>2026-03-25T12:15:46.845Z</time></trkpt><trkpt lat="42.20978" lon="14.5928667"><ele>13.0</ele><time>2026-03-25T12:15:48.844Z</time></trkpt><trkpt lat="42.2098417" lon="14.5927417"><ele>11.5</ele><time>2026-03-25T12:15:50.845Z</time></trkpt><trkpt lat="42.209915" lon="14.5926233"><ele>10.0</ele><time>2026-03-25T12:15:52.844Z</time></trkpt><trkpt lat="42.2099883" lon="14.59251"><ele>8.5</ele><time>2026-03-25T12:15:54.845Z</time></trkpt><trkpt lat="42.2100517" lon="14.5923717"><ele>7.0</ele><time>2026-03-25T12:15:56.844Z</time></trkpt><trkpt lat="42.2101133" lon="14.5922283"><ele>7.0</ele><time>2026-03-25T12:15:58.845Z</time></trkpt><trkpt lat="42.2101683" lon="14.592095"><ele>6.999999999999999</ele><time>2026-03-25T12:16:00.844Z</time></trkpt><trkpt lat="42.2102283" lon="14.5919683"><ele>6.999999999999999</ele><time>2026-03-25T12:16:02.845Z</time></trkpt><trkpt lat="42.2102867" lon="14.591845"><ele>7.0</ele><time>2026-03-25T12:16:04.844Z</time></trkpt><trkpt lat="42.210345" lon="14.59172"><ele>7.0</ele><time>2026-03-25T12:16:06.845Z</time></trkpt><trkpt lat="42.2104033" lon="14.5915933"><ele>6.6</ele><time>2026-03-25T12:16:08.845Z</time></trkpt><trkpt lat="42.21046" lon="14.5914683"><ele>6.199999999999999</ele><time>2026-03-25T12:16:10.844Z</time></trkpt><trkpt lat="42.2105183" lon="14.591335"><ele>5.8</ele><time>2026-03-25T12:16:12.844Z</time></trkpt><trkpt lat="42.2105717" lon="14.5912017"><ele>5.4</ele><time>2026-03-25T12:16:14.844Z</time></trkpt><trkpt lat="42.2106233" lon="14.5910683"><ele>5.0</ele><time>2026-03-25T12:16:16.845Z</time></trkpt><trkpt lat="42.2106783" lon="14.590935"><ele>5.0</ele><time>2026-03-25T12:16:18.844Z</time></trkpt><trkpt lat="42.210725" lon="14.59081"><ele>5.0</ele><time>2026-03-25T12:16:20.844Z</time></trkpt><trkpt lat="42.21078" lon="14.5906833"><ele>5.0</ele><time>2026-03-25T12:16:22.844Z</time></trkpt><trkpt lat="42.2108333" lon="14.5905533"><ele>5.0</ele><time>2026-03-25T12:16:24.844Z</time></trkpt><trkpt lat="42.210885" lon="14.590415"><ele>5.0</ele><time>2026-03-25T12:16:26.845Z</time></trkpt><trkpt lat="42.2109417" lon="14.5902817"><ele>6.8</ele><time>2026-03-25T12:16:28.844Z</time></trkpt><trkpt lat="42.21099" lon="14.59015"><ele>8.6</ele><time>2026-03-25T12:16:30.844Z</time></trkpt><trkpt lat="42.211035" lon="14.5900217"><ele>10.399999999999999</ele><time>2026-03-25T12:16:32.844Z</time></trkpt><trkpt lat="42.2110917" lon="14.5898933"><ele>12.2</ele><time>2026-03-25T12:16:34.844Z</time></trkpt><trkpt lat="42.21114" lon="14.5897617"><ele>14.0</ele><time>2026-03-25T12:16:36.844Z</time></trkpt><trkpt lat="42.21119" lon="14.5896233"><ele>16.0</ele><time>2026-03-25T12:16:38.845Z</time></trkpt><trkpt lat="42.21124" lon="14.5894867"><ele>18.0</ele><time>2026-03-25T12:16:40.844Z</time></trkpt><trkpt lat="42.2112967" lon="14.5893617"><ele>20.0</ele><time>2026-03-25T12:16:42.844Z</time></trkpt><trkpt lat="42.2113467" lon="14.5892333"><ele>22.0</ele><time>2026-03-25T12:16:44.844Z</time></trkpt><trkpt lat="42.2114033" lon="14.5891033"><ele>24.0</ele><time>2026-03-25T12:16:46.844Z</time></trkpt><trkpt lat="42.2114633" lon="14.5889767"><ele>22.2</ele><time>2026-03-25T12:16:48.844Z</time></trkpt><trkpt lat="42.2115267" lon="14.5888667"><ele>20.4</ele><time>2026-03-25T12:16:50.844Z</time></trkpt><trkpt lat="42.2115883" lon="14.58874"><ele>18.6</ele><time>2026-03-25T12:16:52.844Z</time></trkpt><trkpt lat="42.2116467" lon="14.5886133"><ele>16.8</ele><time>2026-03-25T12:16:54.844Z</time></trkpt><trkpt lat="42.2117083" lon="14.5884917"><ele>15.0</ele><time>2026-03-25T12:16:56.844Z</time></trkpt><trkpt lat="42.2117633" lon="14.5883717"><ele>15.0</ele><time>2026-03-25T12:16:58.844Z</time></trkpt><trkpt lat="42.21182" lon="14.588245"><ele>15.0</ele><time>2026-03-25T12:17:00.844Z</time></trkpt><trkpt lat="42.2118767" lon="14.58812"><ele>15.0</ele><time>2026-03-25T12:17:02.844Z</time></trkpt><trkpt lat="42.211935" lon="14.5879917"><ele>15.0</ele><time>2026-03-25T12:17:04.844Z</time></trkpt><trkpt lat="42.2119983" lon="14.5878567"><ele>15.0</ele><time>2026-03-25T12:17:06.844Z</time></trkpt><trkpt lat="42.2120633" lon="14.5877267"><ele>16.25</ele><time>2026-03-25T12:17:08.844Z</time></trkpt><trkpt lat="42.212125" lon="14.5876033"><ele>17.5</ele><time>2026-03-25T12:17:10.844Z</time></trkpt><trkpt lat="42.2121867" lon="14.5874783"><ele>18.75</ele><time>2026-03-25T12:17:12.844Z</time></trkpt><trkpt lat="42.2122433" lon="14.5873517"><ele>20.0</ele><time>2026-03-25T12:17:14.844Z</time></trkpt><trkpt lat="42.2123083" lon="14.587215"><ele>17.8</ele><time>2026-03-25T12:17:16.844Z</time></trkpt><trkpt lat="42.2123717" lon="14.5870933"><ele>15.6</ele><time>2026-03-25T12:17:18.844Z</time></trkpt><trkpt lat="42.212435" lon="14.58698"><ele>13.4</ele><time>2026-03-25T12:17:20.845Z</time></trkpt><trkpt lat="42.2125017" lon="14.5868517"><ele>11.2</ele><time>2026-03-25T12:17:22.844Z</time></trkpt><trkpt lat="42.2125617" lon="14.5867233"><ele>9.0</ele><time>2026-03-25T12:17:24.845Z</time></trkpt><trkpt lat="42.2126183" lon="14.586595"><ele>9.0</ele><time>2026-03-25T12:17:26.844Z</time></trkpt><trkpt lat="42.2126783" lon="14.586465"><ele>9.0</ele><time>2026-03-25T12:17:28.844Z</time></trkpt><trkpt lat="42.2127417" lon="14.586335"><ele>9.0</ele><time>2026-03-25T12:17:30.844Z</time></trkpt><trkpt lat="42.2127983" lon="14.586215"><ele>9.0</ele><time>2026-03-25T12:17:32.845Z</time></trkpt><trkpt lat="42.21285" lon="14.5861017"><ele>9.0</ele><time>2026-03-25T12:17:34.844Z</time></trkpt><trkpt lat="42.2129" lon="14.586"><ele>8.571428571428573</ele><time>2026-03-25T12:17:36.844Z</time></trkpt><trkpt lat="42.2129383" lon="14.5859267"><ele>8.142857142857142</ele><time>2026-03-25T12:17:38.844Z</time></trkpt><trkpt lat="42.212975" lon="14.5858383"><ele>7.714285714285714</ele><time>2026-03-25T12:19:46.808Z</time></trkpt><trkpt lat="42.213025" lon="14.5857667"><ele>7.2857142857142865</ele><time>2026-03-25T12:19:51.808Z</time></trkpt><trkpt lat="42.2130717" lon="14.5857"><ele>6.857142857142858</ele><time>2026-03-25T12:19:57.809Z</time></trkpt><trkpt lat="42.2131133" lon="14.5856033"><ele>6.428571428571428</ele><time>2026-03-25T12:20:01.808Z</time></trkpt><trkpt lat="42.213155" lon="14.5855167"><ele>6.0</ele><time>2026-03-25T12:20:04.809Z</time></trkpt><trkpt lat="42.2132067" lon="14.58542"><ele>6.0</ele><time>2026-03-25T12:20:07.808Z</time></trkpt><trkpt lat="42.213245" lon="14.5853483"><ele>6.0</ele><time>2026-03-25T12:20:09.808Z</time></trkpt><trkpt lat="42.2132917" lon="14.5852667"><ele>6.0</ele><time>2026-03-25T12:20:11.809Z</time></trkpt><trkpt lat="42.2133433" lon="14.5851733"><ele>6.0</ele><time>2026-03-25T12:20:13.808Z</time></trkpt><trkpt lat="42.2133933" lon="14.5850817"><ele>6.0</ele><time>2026-03-25T12:20:15.809Z</time></trkpt><trkpt lat="42.2134467" lon="14.5849883"><ele>6.0</ele><time>2026-03-25T12:20:17.808Z</time></trkpt><trkpt lat="42.2135017" lon="14.5848767"><ele>7.199999999999999</ele><time>2026-03-25T12:20:19.808Z</time></trkpt><trkpt lat="42.21356" lon="14.58477"><ele>8.399999999999999</ele><time>2026-03-25T12:20:21.808Z</time></trkpt><trkpt lat="42.2136217" lon="14.5846633"><ele>9.6</ele><time>2026-03-25T12:20:23.808Z</time></trkpt><trkpt lat="42.213685" lon="14.584555"><ele>10.799999999999999</ele><time>2026-03-25T12:20:25.808Z</time></trkpt><trkpt lat="42.2137533" lon="14.5844483"><ele>12.0</ele><time>2026-03-25T12:20:27.809Z</time></trkpt><trkpt lat="42.2138167" lon="14.5843333"><ele>11.0</ele><time>2026-03-25T12:20:29.808Z</time></trkpt><trkpt lat="42.21388" lon="14.5842317"><ele>10.0</ele><time>2026-03-25T12:20:31.808Z</time></trkpt><trkpt lat="42.2139467" lon="14.5841217"><ele>9.0</ele><time>2026-03-25T12:20:33.808Z</time></trkpt><trkpt lat="42.2140133" lon="14.5840183"><ele>8.0</ele><time>2026-03-25T12:20:35.809Z</time></trkpt><trkpt lat="42.2140817" lon="14.5839083"><ele>7.0</ele><time>2026-03-25T12:20:37.808Z</time></trkpt><trkpt lat="42.2141517" lon="14.5838067"><ele>7.0</ele><time>2026-03-25T12:20:39.808Z</time></trkpt><trkpt lat="42.2142217" lon="14.5836967"><ele>6.999999999999999</ele><time>2026-03-25T12:20:41.809Z</time></trkpt><trkpt lat="42.2142917" lon="14.5835867"><ele>6.999999999999999</ele><time>2026-03-25T12:20:43.808Z</time></trkpt><trkpt lat="42.2143633" lon="14.58347"><ele>7.0</ele><time>2026-03-25T12:20:45.808Z</time></trkpt><trkpt lat="42.2144333" lon="14.5833517"><ele>7.0</ele><time>2026-03-25T12:20:47.809Z</time></trkpt><trkpt lat="42.2144983" lon="14.5832417"><ele>8.6</ele><time>2026-03-25T12:20:49.808Z</time></trkpt><trkpt lat="42.214565" lon="14.5831233"><ele>10.2</ele><time>2026-03-25T12:20:51.808Z</time></trkpt><trkpt lat="42.2146267" lon="14.58301"><ele>11.8</ele><time>2026-03-25T12:20:53.808Z</time></trkpt><trkpt lat="42.2146933" lon="14.5828983"><ele>13.4</ele><time>2026-03-25T12:20:55.808Z</time></trkpt><trkpt lat="42.21475" lon="14.582795"><ele>15.0</ele><time>2026-03-25T12:20:57.808Z</time></trkpt><trkpt lat="42.2148083" lon="14.58269"><ele>14.2</ele><time>2026-03-25T12:20:59.808Z</time></trkpt><trkpt lat="42.214865" lon="14.58258"><ele>13.4</ele><time>2026-03-25T12:21:01.808Z</time></trkpt><trkpt lat="42.2149133" lon="14.582475"><ele>12.600000000000001</ele><time>2026-03-25T12:21:03.809Z</time></trkpt><trkpt lat="42.2149483" lon="14.58236"><ele>11.8</ele><time>2026-03-25T12:21:05.808Z</time></trkpt><trkpt lat="42.2150033" lon="14.5822833"><ele>11.0</ele><time>2026-03-25T12:21:08.808Z</time></trkpt><trkpt lat="42.2150683" lon="14.5821967"><ele>11.0</ele><time>2026-03-25T12:21:11.809Z</time></trkpt><trkpt lat="42.2151033" lon="14.5821233"><ele>11.0</ele><time>2026-03-25T12:21:13.808Z</time></trkpt><trkpt lat="42.215135" lon="14.5820283"><ele>11.0</ele><time>2026-03-25T12:21:15.808Z</time></trkpt><trkpt lat="42.21517" lon="14.5819283"><ele>11.0</ele><time>2026-03-25T12:21:17.808Z</time></trkpt><trkpt lat="42.2152217" lon="14.5818417"><ele>11.0</ele><time>2026-03-25T12:21:19.809Z</time></trkpt><trkpt lat="42.2152667" lon="14.58175"><ele>11.0</ele><time>2026-03-25T12:21:21.808Z</time></trkpt><trkpt lat="42.2153117" lon="14.5816567"><ele>11.600000000000001</ele><time>2026-03-25T12:21:23.808Z</time></trkpt><trkpt lat="42.215365" lon="14.5815633"><ele>12.2</ele><time>2026-03-25T12:21:25.809Z</time></trkpt><trkpt lat="42.2154167" lon="14.581465"><ele>12.799999999999999</ele><time>2026-03-25T12:21:27.808Z</time></trkpt><trkpt lat="42.21547" lon="14.5813567"><ele>13.399999999999999</ele><time>2026-03-25T12:21:29.808Z</time></trkpt><trkpt lat="42.2155233" lon="14.5812583"><ele>14.0</ele><time>2026-03-25T12:21:31.808Z</time></trkpt><trkpt lat="42.2155683" lon="14.5811417"><ele>14.833333333333334</ele><time>2026-03-25T12:21:33.808Z</time></trkpt><trkpt lat="42.2156133" lon="14.58102"><ele>15.666666666666668</ele><time>2026-03-25T12:21:35.808Z</time></trkpt><trkpt lat="42.215655" lon="14.58093"><ele>16.5</ele><time>2026-03-25T12:21:37.808Z</time></trkpt><trkpt lat="42.215695" lon="14.58084"><ele>17.333333333333332</ele><time>2026-03-25T12:21:39.808Z</time></trkpt><trkpt lat="42.2157233" lon="14.580755"><ele>18.166666666666664</ele><time>2026-03-25T12:21:41.808Z</time></trkpt><trkpt lat="42.2157567" lon="14.5806683"><ele>19.0</ele><time>2026-03-25T12:21:43.808Z</time></trkpt><trkpt lat="42.2158033" lon="14.58058"><ele>18.166666666666664</ele><time>2026-03-25T12:21:45.808Z</time></trkpt><trkpt lat="42.21585" lon="14.5804967"><ele>17.333333333333332</ele><time>2026-03-25T12:21:47.809Z</time></trkpt><trkpt lat="42.2158933" lon="14.580405"><ele>16.5</ele><time>2026-03-25T12:21:49.808Z</time></trkpt><trkpt lat="42.2159333" lon="14.5803033"><ele>15.666666666666668</ele><time>2026-03-25T12:21:51.808Z</time></trkpt><trkpt lat="42.2159767" lon="14.580205"><ele>14.833333333333334</ele><time>2026-03-25T12:21:53.809Z</time></trkpt><trkpt lat="42.2160183" lon="14.58011"><ele>14.0</ele><time>2026-03-25T12:21:55.808Z</time></trkpt><trkpt lat="42.2160633" lon="14.5800217"><ele>14.000000000000002</ele><time>2026-03-25T12:21:57.808Z</time></trkpt><trkpt lat="42.2161017" lon="14.57993"><ele>14.0</ele><time>2026-03-25T12:21:59.808Z</time></trkpt><trkpt lat="42.2161433" lon="14.5798367"><ele>14.0</ele><time>2026-03-25T12:22:01.808Z</time></trkpt><trkpt lat="42.2161833" lon="14.5797433"><ele>14.0</ele><time>2026-03-25T12:22:03.808Z</time></trkpt><trkpt lat="42.2162217" lon="14.5796483"><ele>14.000000000000002</ele><time>2026-03-25T12:22:05.808Z</time></trkpt><trkpt lat="42.21626" lon="14.5795483"><ele>14.0</ele><time>2026-03-25T12:22:07.808Z</time></trkpt><trkpt lat="42.2163" lon="14.5794567"><ele>15.000000000000002</ele><time>2026-03-25T12:22:09.808Z</time></trkpt><trkpt lat="42.2163383" lon="14.5793667"><ele>16.0</ele><time>2026-03-25T12:22:11.808Z</time></trkpt><trkpt lat="42.2163833" lon="14.57927"><ele>17.0</ele><time>2026-03-25T12:22:13.808Z</time></trkpt><trkpt lat="42.2164183" lon="14.5791783"><ele>18.0</ele><time>2026-03-25T12:22:15.808Z</time></trkpt><trkpt lat="42.2164583" lon="14.5790883"><ele>19.0</ele><time>2026-03-25T12:22:17.808Z</time></trkpt><trkpt lat="42.2164983" lon="14.5789983"><ele>20.0</ele><time>2026-03-25T12:22:19.808Z</time></trkpt><trkpt lat="42.21654" lon="14.578905"><ele>18.833333333333336</ele><time>2026-03-25T12:22:21.808Z</time></trkpt><trkpt lat="42.2165917" lon="14.5787983"><ele>17.666666666666668</ele><time>2026-03-25T12:22:23.809Z</time></trkpt><trkpt lat="42.2166383" lon="14.5787033"><ele>16.5</ele><time>2026-03-25T12:22:25.808Z</time></trkpt><trkpt lat="42.2166817" lon="14.5786083"><ele>15.333333333333332</ele><time>2026-03-25T12:22:27.808Z</time></trkpt><trkpt lat="42.2167283" lon="14.5785"><ele>14.166666666666666</ele><time>2026-03-25T12:22:29.808Z</time></trkpt><trkpt lat="42.2167683" lon="14.5784017"><ele>13.0</ele><time>2026-03-25T12:22:31.808Z</time></trkpt><trkpt lat="42.2168117" lon="14.5783083"><ele>12.999999999999998</ele><time>2026-03-25T12:22:33.808Z</time></trkpt><trkpt lat="42.2168533" lon="14.57821"><ele>13.0</ele><time>2026-03-25T12:22:35.808Z</time></trkpt><trkpt lat="42.2169" lon="14.5781117"><ele>13.0</ele><time>2026-03-25T12:22:37.808Z</time></trkpt><trkpt lat="42.2169467" lon="14.5780133"><ele>13.0</ele><time>2026-03-25T12:22:39.808Z</time></trkpt><trkpt lat="42.2169867" lon="14.5779067"><ele>12.999999999999998</ele><time>2026-03-25T12:22:41.808Z</time></trkpt><trkpt lat="42.2170267" lon="14.5778133"><ele>13.0</ele><time>2026-03-25T12:22:43.808Z</time></trkpt><trkpt lat="42.2170633" lon="14.57772"><ele>14.166666666666666</ele><time>2026-03-25T12:22:45.808Z</time></trkpt><trkpt lat="42.2171183" lon="14.5776167"><ele>15.333333333333332</ele><time>2026-03-25T12:22:47.808Z</time></trkpt><trkpt lat="42.2171683" lon="14.5775167"><ele>16.5</ele><time>2026-03-25T12:22:49.808Z</time></trkpt><trkpt lat="42.2172183" lon="14.5774167"><ele>17.666666666666668</ele><time>2026-03-25T12:22:51.808Z</time></trkpt><trkpt lat="42.217265" lon="14.57732"><ele>18.833333333333336</ele><time>2026-03-25T12:22:53.808Z</time></trkpt><trkpt lat="42.2173017" lon="14.57723"><ele>20.0</ele><time>2026-03-25T12:22:55.808Z</time></trkpt><trkpt lat="42.21734" lon="14.5771383"><ele>18.666666666666668</ele><time>2026-03-25T12:22:57.808Z</time></trkpt><trkpt lat="42.217385" lon="14.5770467"><ele>17.333333333333336</ele><time>2026-03-25T12:22:59.808Z</time></trkpt><trkpt lat="42.2174267" lon="14.5769467"><ele>16.0</ele><time>2026-03-25T12:23:01.808Z</time></trkpt><trkpt lat="42.2174683" lon="14.5768467"><ele>14.666666666666668</ele><time>2026-03-25T12:23:03.809Z</time></trkpt><trkpt lat="42.2175183" lon="14.5767517"><ele>13.333333333333334</ele><time>2026-03-25T12:23:05.808Z</time></trkpt><trkpt lat="42.217565" lon="14.5766567"><ele>12.0</ele><time>2026-03-25T12:23:07.808Z</time></trkpt><trkpt lat="42.2176067" lon="14.57657"><ele>11.999999999999998</ele><time>2026-03-25T12:23:09.808Z</time></trkpt><trkpt lat="42.2176383" lon="14.5764867"><ele>12.0</ele><time>2026-03-25T12:23:11.808Z</time></trkpt><trkpt lat="42.2176717" lon="14.5764083"><ele>12.0</ele><time>2026-03-25T12:23:13.808Z</time></trkpt><trkpt lat="42.2177067" lon="14.5763333"><ele>12.0</ele><time>2026-03-25T12:23:15.808Z</time></trkpt><trkpt lat="42.217745" lon="14.5762533"><ele>12.0</ele><time>2026-03-25T12:23:17.808Z</time></trkpt><trkpt lat="42.217785" lon="14.5761767"><ele>11.999999999999998</ele><time>2026-03-25T12:23:19.808Z</time></trkpt><trkpt lat="42.2178267" lon="14.5760883"><ele>12.0</ele><time>2026-03-25T12:23:21.808Z</time></trkpt><trkpt lat="42.21787" lon="14.5760017"><ele>12.666666666666666</ele><time>2026-03-25T12:23:23.808Z</time></trkpt><trkpt lat="42.2179067" lon="14.5759283"><ele>13.333333333333332</ele><time>2026-03-25T12:23:25.808Z</time></trkpt><trkpt lat="42.217965" lon="14.5758333"><ele>14.0</ele><time>2026-03-25T12:23:28.809Z</time></trkpt><trkpt lat="42.2180083" lon="14.5757583"><ele>14.666666666666666</ele><time>2026-03-25T12:23:30.808Z</time></trkpt><trkpt lat="42.2180483" lon="14.5756667"><ele>15.333333333333332</ele><time>2026-03-25T12:23:32.808Z</time></trkpt><trkpt lat="42.2180883" lon="14.575575"><ele>16.0</ele><time>2026-03-25T12:23:34.808Z</time></trkpt><trkpt lat="42.218125" lon="14.5754917"><ele>14.999999999999998</ele><time>2026-03-25T12:23:36.808Z</time></trkpt><trkpt lat="42.2181567" lon="14.5754167"><ele>14.0</ele><time>2026-03-25T12:23:38.808Z</time></trkpt><trkpt lat="42.2181967" lon="14.5753083"><ele>13.0</ele><time>2026-03-25T12:23:41.808Z</time></trkpt><trkpt lat="42.2182383" lon="14.5752233"><ele>12.0</ele><time>2026-03-25T12:23:43.809Z</time></trkpt><trkpt lat="42.2182717" lon="14.5751133"><ele>11.0</ele><time>2026-03-25T12:23:46.808Z</time></trkpt><trkpt lat="42.2182533" lon="14.57503"><ele>10.0</ele><time>2026-03-25T12:23:49.808Z</time></trkpt><trkpt lat="42.2182533" lon="14.5749333"><ele>10.0</ele><time>2026-03-25T12:23:54.808Z</time></trkpt><trkpt lat="42.2182433" lon="14.5748433"><ele>10.0</ele><time>2026-03-25T12:24:02.808Z</time></trkpt><trkpt lat="42.2182733" lon="14.5747517"><ele>10.0</ele><time>2026-03-25T12:24:08.808Z</time></trkpt><trkpt lat="42.218305" lon="14.57467"><ele>10.0</ele><time>2026-03-25T12:24:12.808Z</time></trkpt><trkpt lat="42.2183533" lon="14.5745967"><ele>10.0</ele><time>2026-03-25T12:24:16.808Z</time></trkpt><trkpt lat="42.2183933" lon="14.5745233"><ele>10.0</ele><time>2026-03-25T12:24:20.809Z</time></trkpt><trkpt lat="42.2184433" lon="14.57445"><ele>10.0</ele><time>2026-03-25T12:24:24.808Z</time></trkpt><trkpt lat="42.218475" lon="14.57437"><ele>11.0</ele><time>2026-03-25T12:24:28.808Z</time></trkpt><trkpt lat="42.2185183" lon="14.5743017"><ele>12.0</ele><time>2026-03-25T12:24:31.809Z</time></trkpt><trkpt lat="42.218565" lon="14.5742167"><ele>13.0</ele><time>2026-03-25T12:24:35.808Z</time></trkpt><trkpt lat="42.2185983" lon="14.5741433"><ele>14.0</ele><time>2026-03-25T12:24:38.808Z</time></trkpt><trkpt lat="42.2186417" lon="14.57408"><ele>14.999999999999998</ele><time>2026-03-25T12:24:41.808Z</time></trkpt><trkpt lat="42.218695" lon="14.5739983"><ele>16.0</ele><time>2026-03-25T12:24:46.808Z</time></trkpt><trkpt lat="42.2187417" lon="14.57384"><ele>15.999999999999998</ele><time>2026-03-25T12:25:11.808Z</time></trkpt><trkpt lat="42.218775" lon="14.5737083"><ele>16.0</ele><time>2026-03-25T12:25:32.808Z</time></trkpt><trkpt lat="42.2188167" lon="14.5736167"><ele>16.0</ele><time>2026-03-25T12:25:37.808Z</time></trkpt><trkpt lat="42.2188617" lon="14.5735433"><ele>16.0</ele><time>2026-03-25T12:25:41.808Z</time></trkpt><trkpt lat="42.21891" lon="14.5734633"><ele>15.999999999999998</ele><time>2026-03-25T12:25:45.808Z</time></trkpt><trkpt lat="42.21894" lon="14.57338"><ele>16.0</ele><time>2026-03-25T12:25:50.808Z</time></trkpt><trkpt lat="42.2189817" lon="14.5733067"><ele>15.571428571428571</ele><time>2026-03-25T12:25:54.808Z</time></trkpt><trkpt lat="42.2190233" lon="14.573225"><ele>15.142857142857142</ele><time>2026-03-25T12:25:58.808Z</time></trkpt><trkpt lat="42.2190617" lon="14.5731417"><ele>14.714285714285714</ele><time>2026-03-25T12:26:02.808Z</time></trkpt><trkpt lat="42.2191" lon="14.5730617"><ele>14.285714285714285</ele><time>2026-03-25T12:26:06.808Z</time></trkpt><trkpt lat="42.21914" lon="14.57299"><ele>13.857142857142858</ele><time>2026-03-25T12:26:09.808Z</time></trkpt><trkpt lat="42.219185" lon="14.5729067"><ele>13.428571428571427</ele><time>2026-03-25T12:26:12.808Z</time></trkpt><trkpt lat="42.2192283" lon="14.57281"><ele>13.0</ele><time>2026-03-25T12:26:15.808Z</time></trkpt><trkpt lat="42.2192567" lon="14.5727267"><ele>12.999999999999998</ele><time>2026-03-25T12:26:18.808Z</time></trkpt><trkpt lat="42.219275" lon="14.5726283"><ele>13.0</ele><time>2026-03-25T12:26:21.808Z</time></trkpt><trkpt lat="42.2192783" lon="14.5725267"><ele>13.0</ele><time>2026-03-25T12:26:25.808Z</time></trkpt><trkpt lat="42.2192733" lon="14.5723817"><ele>13.0</ele><time>2026-03-25T12:26:58.808Z</time></trkpt><trkpt lat="42.2192133" lon="14.5723433"><ele>12.999999999999998</ele><time>2026-03-25T12:27:03.808Z</time></trkpt><trkpt lat="42.21914" lon="14.5723133"><ele>13.0</ele><time>2026-03-25T12:27:07.808Z</time></trkpt><trkpt lat="42.21908" lon="14.5722867"><ele>12.999999999999998</ele><time>2026-03-25T12:27:10.808Z</time></trkpt><trkpt lat="42.2190117" lon="14.5722733"><ele>13.0</ele><time>2026-03-25T12:27:13.808Z</time></trkpt><trkpt lat="42.2189383" lon="14.5722583"><ele>13.0</ele><time>2026-03-25T12:27:17.808Z</time></trkpt><trkpt lat="42.2188717" lon="14.57225"><ele>13.0</ele><time>2026-03-25T12:27:20.808Z</time></trkpt><trkpt lat="42.2188067" lon="14.5722967"><ele>12.999999999999998</ele><time>2026-03-25T12:27:24.809Z</time></trkpt><trkpt lat="42.2187417" lon="14.572355"><ele>13.0</ele><time>2026-03-25T12:27:29.808Z</time></trkpt><trkpt lat="42.21867" lon="14.5724317"><ele>13.857142857142858</ele><time>2026-03-25T12:27:32.808Z</time></trkpt><trkpt lat="42.2186083" lon="14.5725133"><ele>14.714285714285715</ele><time>2026-03-25T12:27:35.808Z</time></trkpt><trkpt lat="42.2185683" lon="14.572595"><ele>15.571428571428571</ele><time>2026-03-25T12:27:38.808Z</time></trkpt><trkpt lat="42.2185417" lon="14.5726733"><ele>16.42857142857143</ele><time>2026-03-25T12:27:41.809Z</time></trkpt><trkpt lat="42.2185017" lon="14.572765"><ele>17.28571428571429</ele><time>2026-03-25T12:27:44.809Z</time></trkpt><trkpt lat="42.21847" lon="14.5728417"><ele>18.142857142857142</ele><time>2026-03-25T12:27:46.808Z</time></trkpt><trkpt lat="42.218435" lon="14.5729233"><ele>19.0</ele><time>2026-03-25T12:27:48.808Z</time></trkpt><trkpt lat="42.2184017" lon="14.5729983"><ele>19.0</ele><time>2026-03-25T12:27:50.808Z</time></trkpt><trkpt lat="42.2183683" lon="14.5730833"><ele>19.0</ele><time>2026-03-25T12:27:52.808Z</time></trkpt><trkpt lat="42.218335" lon="14.5731667"><ele>19.0</ele><time>2026-03-25T12:27:54.808Z</time></trkpt><trkpt lat="42.2183033" lon="14.5732567"><ele>19.0</ele><time>2026-03-25T12:27:56.808Z</time></trkpt><trkpt lat="42.21827" lon="14.5733433"><ele>19.0</ele><time>2026-03-25T12:27:58.808Z</time></trkpt><trkpt lat="42.2182367" lon="14.5734317"><ele>19.0</ele><time>2026-03-25T12:28:00.808Z</time></trkpt><trkpt lat="42.2182033" lon="14.5735233"><ele>19.0</ele><time>2026-03-25T12:28:02.808Z</time></trkpt><trkpt lat="42.2181667" lon="14.57362"><ele>20.333333333333332</ele><time>2026-03-25T12:28:04.808Z</time></trkpt><trkpt lat="42.2181267" lon="14.5737083"><ele>21.666666666666664</ele><time>2026-03-25T12:28:06.809Z</time></trkpt><trkpt lat="42.2180867" lon="14.573805"><ele>23.0</ele><time>2026-03-25T12:28:08.808Z</time></trkpt><trkpt lat="42.2180483" lon="14.573895"><ele>24.333333333333332</ele><time>2026-03-25T12:28:10.808Z</time></trkpt><trkpt lat="42.2180083" lon="14.5739883"><ele>25.666666666666668</ele><time>2026-03-25T12:28:12.808Z</time></trkpt><trkpt lat="42.2179667" lon="14.57408"><ele>27.0</ele><time>2026-03-25T12:28:14.809Z</time></trkpt><trkpt lat="42.21792" lon="14.57417"><ele>27.0</ele><time>2026-03-25T12:28:16.808Z</time></trkpt><trkpt lat="42.2178667" lon="14.57426"><ele>27.0</ele><time>2026-03-25T12:28:18.808Z</time></trkpt><trkpt lat="42.2178067" lon="14.5743517"><ele>27.0</ele><time>2026-03-25T12:28:20.809Z</time></trkpt><trkpt lat="42.2177417" lon="14.574435"><ele>27.0</ele><time>2026-03-25T12:28:22.809Z</time></trkpt><trkpt lat="42.217675" lon="14.5745167"><ele>27.0</ele><time>2026-03-25T12:28:24.809Z</time></trkpt><trkpt lat="42.2176133" lon="14.5745967"><ele>27.0</ele><time>2026-03-25T12:28:26.808Z</time></trkpt><trkpt lat="42.217545" lon="14.5746683"><ele>27.666666666666668</ele><time>2026-03-25T12:28:28.808Z</time></trkpt><trkpt lat="42.21748" lon="14.5747383"><ele>28.333333333333336</ele><time>2026-03-25T12:28:30.808Z</time></trkpt><trkpt lat="42.2174117" lon="14.5748117"><ele>29.0</ele><time>2026-03-25T12:28:32.808Z</time></trkpt><trkpt lat="42.2173433" lon="14.57488"><ele>29.666666666666668</ele><time>2026-03-25T12:28:34.809Z</time></trkpt><trkpt lat="42.21728" lon="14.5749583"><ele>30.333333333333336</ele><time>2026-03-25T12:28:36.808Z</time></trkpt><trkpt lat="42.2172133" lon="14.57504"><ele>31.0</ele><time>2026-03-25T12:28:38.808Z</time></trkpt><trkpt lat="42.217145" lon="14.57512"><ele>31.000000000000004</ele><time>2026-03-25T12:28:40.808Z</time></trkpt><trkpt lat="42.2170883" lon="14.5752133"><ele>31.0</ele><time>2026-03-25T12:28:42.808Z</time></trkpt><trkpt lat="42.21704" lon="14.575315"><ele>31.0</ele><time>2026-03-25T12:28:44.808Z</time></trkpt><trkpt lat="42.2170033" lon="14.575425"><ele>31.0</ele><time>2026-03-25T12:28:46.809Z</time></trkpt><trkpt lat="42.2169767" lon="14.5755383"><ele>31.000000000000004</ele><time>2026-03-25T12:28:48.809Z</time></trkpt><trkpt lat="42.2169517" lon="14.5756433"><ele>31.0</ele><time>2026-03-25T12:28:50.808Z</time></trkpt><trkpt lat="42.2169333" lon="14.5757517"><ele>30.833333333333336</ele><time>2026-03-25T12:28:52.808Z</time></trkpt><trkpt lat="42.2169183" lon="14.57587"><ele>30.666666666666668</ele><time>2026-03-25T12:28:54.809Z</time></trkpt><trkpt lat="42.2169133" lon="14.5759883"><ele>30.5</ele><time>2026-03-25T12:28:56.808Z</time></trkpt><trkpt lat="42.2169083" lon="14.5761083"><ele>30.333333333333336</ele><time>2026-03-25T12:28:58.808Z</time></trkpt><trkpt lat="42.216905" lon="14.5762283"><ele>30.166666666666668</ele><time>2026-03-25T12:29:00.808Z</time></trkpt><trkpt lat="42.2169017" lon="14.57635"><ele>30.0</ele><time>2026-03-25T12:29:02.808Z</time></trkpt><trkpt lat="42.2168933" lon="14.576465"><ele>30.0</ele><time>2026-03-25T12:29:04.808Z</time></trkpt><trkpt lat="42.2168817" lon="14.576585"><ele>30.0</ele><time>2026-03-25T12:29:06.809Z</time></trkpt><trkpt lat="42.2168617" lon="14.576695"><ele>30.0</ele><time>2026-03-25T12:29:08.808Z</time></trkpt><trkpt lat="42.21684" lon="14.5768267"><ele>30.0</ele><time>2026-03-25T12:29:10.808Z</time></trkpt><trkpt lat="42.2168217" lon="14.5769417"><ele>30.0</ele><time>2026-03-25T12:29:12.808Z</time></trkpt><trkpt lat="42.21678" lon="14.5770483"><ele>28.0</ele><time>2026-03-25T12:29:14.808Z</time></trkpt><trkpt lat="42.2167433" lon="14.5771733"><ele>26.0</ele><time>2026-03-25T12:29:16.809Z</time></trkpt><trkpt lat="42.2166833" lon="14.5772883"><ele>24.0</ele><time>2026-03-25T12:29:18.808Z</time></trkpt><trkpt lat="42.2166283" lon="14.57741"><ele>22.0</ele><time>2026-03-25T12:29:20.808Z</time></trkpt><trkpt lat="42.216565" lon="14.57754"><ele>20.0</ele><time>2026-03-25T12:29:22.808Z</time></trkpt><trkpt lat="42.2164983" lon="14.5776717"><ele>20.5</ele><time>2026-03-25T12:29:24.808Z</time></trkpt><trkpt lat="42.2164367" lon="14.5777983"><ele>21.0</ele><time>2026-03-25T12:29:26.808Z</time></trkpt><trkpt lat="42.21637" lon="14.5779283"><ele>21.5</ele><time>2026-03-25T12:29:28.808Z</time></trkpt><trkpt lat="42.2163067" lon="14.5780483"><ele>22.0</ele><time>2026-03-25T12:29:30.808Z</time></trkpt><trkpt lat="42.216245" lon="14.578175"><ele>22.0</ele><time>2026-03-25T12:29:32.808Z</time></trkpt><trkpt lat="42.2161733" lon="14.5783"><ele>22.0</ele><time>2026-03-25T12:29:34.808Z</time></trkpt><trkpt lat="42.2161067" lon="14.5784283"><ele>22.0</ele><time>2026-03-25T12:29:36.808Z</time></trkpt><trkpt lat="42.216045" lon="14.5785617"><ele>22.0</ele><time>2026-03-25T12:29:38.809Z</time></trkpt><trkpt lat="42.21598" lon="14.5786967"><ele>21.5</ele><time>2026-03-25T12:29:40.808Z</time></trkpt><trkpt lat="42.215915" lon="14.5788267"><ele>21.0</ele><time>2026-03-25T12:29:42.808Z</time></trkpt><trkpt lat="42.215845" lon="14.578955"><ele>20.5</ele><time>2026-03-25T12:29:44.808Z</time></trkpt><trkpt lat="42.2157833" lon="14.579085"><ele>20.0</ele><time>2026-03-25T12:29:46.808Z</time></trkpt><trkpt lat="42.215715" lon="14.5792083"><ele>20.75</ele><time>2026-03-25T12:29:48.808Z</time></trkpt><trkpt lat="42.2156517" lon="14.5793383"><ele>21.5</ele><time>2026-03-25T12:29:50.808Z</time></trkpt><trkpt lat="42.2155867" lon="14.57947"><ele>22.25</ele><time>2026-03-25T12:29:52.808Z</time></trkpt><trkpt lat="42.21552" lon="14.5795983"><ele>23.0</ele><time>2026-03-25T12:29:54.808Z</time></trkpt><trkpt lat="42.2154517" lon="14.5797267"><ele>23.0</ele><time>2026-03-25T12:29:56.808Z</time></trkpt><trkpt lat="42.21542" lon="14.5798017"><ele>23.0</ele><time>2026-03-25T12:29:57.808Z</time></trkpt><trkpt lat="42.21535" lon="14.57993"><ele>23.0</ele><time>2026-03-25T12:29:59.809Z</time></trkpt><trkpt lat="42.2152867" lon="14.5800567"><ele>23.0</ele><time>2026-03-25T12:30:01.808Z</time></trkpt><trkpt lat="42.2152167" lon="14.5801917"><ele>23.0</ele><time>2026-03-25T12:30:03.808Z</time></trkpt><trkpt lat="42.2151517" lon="14.5803233"><ele>22.0</ele><time>2026-03-25T12:30:05.808Z</time></trkpt><trkpt lat="42.21509" lon="14.5804517"><ele>21.0</ele><time>2026-03-25T12:30:07.808Z</time></trkpt><trkpt lat="42.2150333" lon="14.5805817"><ele>20.0</ele><time>2026-03-25T12:30:09.808Z</time></trkpt><trkpt lat="42.21498" lon="14.5807117"><ele>19.0</ele><time>2026-03-25T12:30:11.808Z</time></trkpt><trkpt lat="42.2149167" lon="14.5808433"><ele>19.0</ele><time>2026-03-25T12:30:13.808Z</time></trkpt><trkpt lat="42.2148517" lon="14.5809767"><ele>19.0</ele><time>2026-03-25T12:30:15.808Z</time></trkpt><trkpt lat="42.2147783" lon="14.5811117"><ele>19.0</ele><time>2026-03-25T12:30:17.808Z</time></trkpt><trkpt lat="42.2147083" lon="14.58124"><ele>19.0</ele><time>2026-03-25T12:30:19.809Z</time></trkpt><trkpt lat="42.2146383" lon="14.5813683"><ele>20.2</ele><time>2026-03-25T12:30:21.808Z</time></trkpt><trkpt lat="42.2145717" lon="14.5814983"><ele>21.4</ele><time>2026-03-25T12:30:23.808Z</time></trkpt><trkpt lat="42.2145333" lon="14.5815717"><ele>22.6</ele><time>2026-03-25T12:30:24.808Z</time></trkpt><trkpt lat="42.2144933" lon="14.5816383"><ele>23.8</ele><time>2026-03-25T12:30:25.808Z</time></trkpt><trkpt lat="42.214425" lon="14.5817633"><ele>25.0</ele><time>2026-03-25T12:30:27.808Z</time></trkpt><trkpt lat="42.2143567" lon="14.5818967"><ele>23.8</ele><time>2026-03-25T12:30:29.808Z</time></trkpt><trkpt lat="42.214295" lon="14.5820167"><ele>22.6</ele><time>2026-03-25T12:30:31.808Z</time></trkpt><trkpt lat="42.214235" lon="14.5821367"><ele>21.4</ele><time>2026-03-25T12:30:33.808Z</time></trkpt><trkpt lat="42.2141833" lon="14.5822467"><ele>20.2</ele><time>2026-03-25T12:30:35.808Z</time></trkpt><trkpt lat="42.2141333" lon="14.5823633"><ele>19.0</ele><time>2026-03-25T12:30:37.809Z</time></trkpt><trkpt lat="42.21409" lon="14.5824617"><ele>19.0</ele><time>2026-03-25T12:30:39.808Z</time></trkpt><trkpt lat="42.2141033" lon="14.582555"><ele>19.0</ele><time>2026-03-25T12:30:42.808Z</time></trkpt><trkpt lat="42.2141817" lon="14.5825083"><ele>19.0</ele><time>2026-03-25T12:30:45.808Z</time></trkpt><trkpt lat="42.2142483" lon="14.58243"><ele>19.0</ele><time>2026-03-25T12:30:47.809Z</time></trkpt><trkpt lat="42.2143217" lon="14.5823933"><ele>19.0</ele><time>2026-03-25T12:30:49.808Z</time></trkpt><trkpt lat="42.2144083" lon="14.58246"><ele>19.0</ele><time>2026-03-25T12:30:51.809Z</time></trkpt><trkpt lat="42.214515" lon="14.58255"><ele>19.0</ele><time>2026-03-25T12:30:53.808Z</time></trkpt><trkpt lat="42.2146267" lon="14.5825967"><ele>19.0</ele><time>2026-03-25T12:30:55.808Z</time></trkpt><trkpt lat="42.214715" lon="14.5826017"><ele>19.0</ele><time>2026-03-25T12:30:57.808Z</time></trkpt><trkpt lat="42.2147833" lon="14.5825733"><ele>19.0</ele><time>2026-03-25T12:30:59.808Z</time></trkpt><trkpt lat="42.2148517" lon="14.58253"><ele>19.0</ele><time>2026-03-25T12:31:02.808Z</time></trkpt><trkpt lat="42.21481" lon="14.5825967"><ele>19.0</ele><time>2026-03-25T12:31:07.809Z</time></trkpt><trkpt lat="42.21475" lon="14.582665"><ele>19.0</ele><time>2026-03-25T12:31:09.808Z</time></trkpt><trkpt lat="42.2146917" lon="14.582755"><ele>19.0</ele><time>2026-03-25T12:31:11.808Z</time></trkpt><trkpt lat="42.2146417" lon="14.5828617"><ele>19.0</ele><time>2026-03-25T12:31:13.808Z</time></trkpt><trkpt lat="42.214585" lon="14.58297"><ele>19.0</ele><time>2026-03-25T12:31:15.808Z</time></trkpt><trkpt lat="42.214515" lon="14.583085"><ele>19.0</ele><time>2026-03-25T12:31:17.808Z</time></trkpt><trkpt lat="42.2144467" lon="14.583195"><ele>18.2</ele><time>2026-03-25T12:31:19.808Z</time></trkpt><trkpt lat="42.2143817" lon="14.5833083"><ele>17.4</ele><time>2026-03-25T12:31:21.808Z</time></trkpt><trkpt lat="42.214315" lon="14.5834233"><ele>16.6</ele><time>2026-03-25T12:31:23.809Z</time></trkpt><trkpt lat="42.2142483" lon="14.5835383"><ele>15.8</ele><time>2026-03-25T12:31:25.808Z</time></trkpt><trkpt lat="42.21418" lon="14.58365"><ele>15.0</ele><time>2026-03-25T12:31:27.809Z</time></trkpt><trkpt lat="42.2141133" lon="14.5837633"><ele>16.4</ele><time>2026-03-25T12:31:29.808Z</time></trkpt><trkpt lat="42.21405" lon="14.583885"><ele>17.8</ele><time>2026-03-25T12:31:31.808Z</time></trkpt><trkpt lat="42.2139767" lon="14.584005"><ele>19.200000000000003</ele><time>2026-03-25T12:31:33.809Z</time></trkpt><trkpt lat="42.2139033" lon="14.5841183"><ele>20.6</ele><time>2026-03-25T12:31:35.808Z</time></trkpt><trkpt lat="42.2138317" lon="14.584235"><ele>22.0</ele><time>2026-03-25T12:31:37.808Z</time></trkpt><trkpt lat="42.2137567" lon="14.5843617"><ele>22.0</ele><time>2026-03-25T12:31:39.809Z</time></trkpt><trkpt lat="42.21368" lon="14.5844817"><ele>22.0</ele><time>2026-03-25T12:31:41.808Z</time></trkpt><trkpt lat="42.2136083" lon="14.5846017"><ele>22.0</ele><time>2026-03-25T12:31:43.808Z</time></trkpt><trkpt lat="42.2135383" lon="14.58472"><ele>22.0</ele><time>2026-03-25T12:31:45.808Z</time></trkpt><trkpt lat="42.2134633" lon="14.58484"><ele>19.5</ele><time>2026-03-25T12:31:47.808Z</time></trkpt><trkpt lat="42.2133883" lon="14.584965"><ele>17.0</ele><time>2026-03-25T12:31:49.808Z</time></trkpt><trkpt lat="42.21332" lon="14.5850933"><ele>14.5</ele><time>2026-03-25T12:31:51.808Z</time></trkpt><trkpt lat="42.213255" lon="14.58522"><ele>12.0</ele><time>2026-03-25T12:31:53.808Z</time></trkpt><trkpt lat="42.2131933" lon="14.585345"><ele>12.8</ele><time>2026-03-25T12:31:55.808Z</time></trkpt><trkpt lat="42.2131283" lon="14.5854733"><ele>13.6</ele><time>2026-03-25T12:31:57.809Z</time></trkpt><trkpt lat="42.2130617" lon="14.5856067"><ele>14.400000000000002</ele><time>2026-03-25T12:31:59.808Z</time></trkpt><trkpt lat="42.2130217" lon="14.5856767"><ele>15.200000000000001</ele><time>2026-03-25T12:32:00.808Z</time></trkpt><trkpt lat="42.2129883" lon="14.58575"><ele>16.0</ele><time>2026-03-25T12:32:01.808Z</time></trkpt><trkpt lat="42.2129183" lon="14.5858867"><ele>16.0</ele><time>2026-03-25T12:32:03.808Z</time></trkpt><trkpt lat="42.21286" lon="14.5860267"><ele>16.0</ele><time>2026-03-25T12:32:05.808Z</time></trkpt><trkpt lat="42.2128" lon="14.5861533"><ele>16.0</ele><time>2026-03-25T12:32:07.808Z</time></trkpt><trkpt lat="42.2127283" lon="14.5862733"><ele>16.0</ele><time>2026-03-25T12:32:09.808Z</time></trkpt><trkpt lat="42.2126667" lon="14.5864033"><ele>14.25</ele><time>2026-03-25T12:32:11.808Z</time></trkpt><trkpt lat="42.2126033" lon="14.5865317"><ele>12.5</ele><time>2026-03-25T12:32:13.808Z</time></trkpt><trkpt lat="42.2125383" lon="14.5866633"><ele>10.75</ele><time>2026-03-25T12:32:15.808Z</time></trkpt><trkpt lat="42.212475" lon="14.5867983"><ele>9.0</ele><time>2026-03-25T12:32:17.808Z</time></trkpt><trkpt lat="42.21241" lon="14.5869333"><ele>8.0</ele><time>2026-03-25T12:32:19.808Z</time></trkpt><trkpt lat="42.2123467" lon="14.58706"><ele>7.0</ele><time>2026-03-25T12:32:21.808Z</time></trkpt><trkpt lat="42.2122883" lon="14.5871883"><ele>6.0</ele><time>2026-03-25T12:32:23.808Z</time></trkpt><trkpt lat="42.2122183" lon="14.58733"><ele>5.0</ele><time>2026-03-25T12:32:25.808Z</time></trkpt><trkpt lat="42.21215" lon="14.5874633"><ele>7.0</ele><time>2026-03-25T12:32:27.808Z</time></trkpt><trkpt lat="42.212085" lon="14.587595"><ele>9.0</ele><time>2026-03-25T12:32:29.808Z</time></trkpt><trkpt lat="42.212025" lon="14.5877217"><ele>11.0</ele><time>2026-03-25T12:32:31.808Z</time></trkpt><trkpt lat="42.2119683" lon="14.58785"><ele>13.0</ele><time>2026-03-25T12:32:33.808Z</time></trkpt><trkpt lat="42.2119133" lon="14.5879733"><ele>15.0</ele><time>2026-03-25T12:32:35.808Z</time></trkpt><trkpt lat="42.2118583" lon="14.5880983"><ele>15.0</ele><time>2026-03-25T12:32:37.809Z</time></trkpt><trkpt lat="42.2118033" lon="14.5882217"><ele>15.0</ele><time>2026-03-25T12:32:39.808Z</time></trkpt><trkpt lat="42.2117517" lon="14.5883367"><ele>15.0</ele><time>2026-03-25T12:32:41.808Z</time></trkpt><trkpt lat="42.21168" lon="14.5884533"><ele>15.0</ele><time>2026-03-25T12:32:43.808Z</time></trkpt><trkpt lat="42.211625" lon="14.588545"><ele>15.0</ele><time>2026-03-25T12:32:45.808Z</time></trkpt><trkpt lat="42.2115633" lon="14.588665"><ele>13.666666666666666</ele><time>2026-03-25T12:32:47.808Z</time></trkpt><trkpt lat="42.2115233" lon="14.5887383"><ele>12.333333333333334</ele><time>2026-03-25T12:32:48.809Z</time></trkpt><trkpt lat="42.2114883" lon="14.5888117"><ele>11.0</ele><time>2026-03-25T12:32:49.808Z</time></trkpt><trkpt lat="42.2114317" lon="14.58894"><ele>9.666666666666668</ele><time>2026-03-25T12:32:51.808Z</time></trkpt><trkpt lat="42.2113967" lon="14.589015"><ele>8.333333333333334</ele><time>2026-03-25T12:32:52.808Z</time></trkpt><trkpt lat="42.21136" lon="14.5890883"><ele>7.0</ele><time>2026-03-25T12:32:53.808Z</time></trkpt><trkpt lat="42.21131" lon="14.5892267"><ele>8.399999999999999</ele><time>2026-03-25T12:32:55.808Z</time></trkpt><trkpt lat="42.2112567" lon="14.589365"><ele>9.799999999999999</ele><time>2026-03-25T12:32:57.808Z</time></trkpt><trkpt lat="42.2112083" lon="14.5895"><ele>11.2</ele><time>2026-03-25T12:32:59.808Z</time></trkpt><trkpt lat="42.2111583" lon="14.5896417"><ele>12.6</ele><time>2026-03-25T12:33:01.808Z</time></trkpt><trkpt lat="42.2111267" lon="14.5897183"><ele>14.0</ele><time>2026-03-25T12:33:02.808Z</time></trkpt><trkpt lat="42.2110717" lon="14.5898617"><ele>14.0</ele><time>2026-03-25T12:33:04.808Z</time></trkpt><trkpt lat="42.2110167" lon="14.5900017"><ele>14.0</ele><time>2026-03-25T12:33:06.808Z</time></trkpt><trkpt lat="42.2109583" lon="14.5901417"><ele>14.0</ele><time>2026-03-25T12:33:08.808Z</time></trkpt><trkpt lat="42.2108983" lon="14.5902833"><ele>14.0</ele><time>2026-03-25T12:33:10.808Z</time></trkpt><trkpt lat="42.21084" lon="14.5904217"><ele>11.75</ele><time>2026-03-25T12:33:12.809Z</time></trkpt><trkpt lat="42.2107833" lon="14.5905583"><ele>9.5</ele><time>2026-03-25T12:33:14.809Z</time></trkpt><trkpt lat="42.2107283" lon="14.5907"><ele>7.25</ele><time>2026-03-25T12:33:16.809Z</time></trkpt><trkpt lat="42.2106733" lon="14.590845"><ele>5.0</ele><time>2026-03-25T12:33:18.808Z</time></trkpt><trkpt lat="42.2106183" lon="14.5909833"><ele>7.5</ele><time>2026-03-25T12:33:20.808Z</time></trkpt><trkpt lat="42.21056" lon="14.5911217"><ele>10.0</ele><time>2026-03-25T12:33:22.808Z</time></trkpt><trkpt lat="42.2105033" lon="14.5912567"><ele>12.5</ele><time>2026-03-25T12:33:24.808Z</time></trkpt><trkpt lat="42.2104467" lon="14.5913867"><ele>15.0</ele><time>2026-03-25T12:33:26.808Z</time></trkpt><trkpt lat="42.2103933" lon="14.5915217"><ele>15.0</ele><time>2026-03-25T12:33:28.808Z</time></trkpt><trkpt lat="42.2103367" lon="14.591655"><ele>15.0</ele><time>2026-03-25T12:33:30.808Z</time></trkpt><trkpt lat="42.2102733" lon="14.5917833"><ele>15.0</ele><time>2026-03-25T12:33:32.808Z</time></trkpt><trkpt lat="42.21022" lon="14.59191"><ele>15.0</ele><time>2026-03-25T12:33:34.808Z</time></trkpt><trkpt lat="42.21016" lon="14.5920433"><ele>13.0</ele><time>2026-03-25T12:33:36.808Z</time></trkpt><trkpt lat="42.2100983" lon="14.5921733"><ele>11.0</ele><time>2026-03-25T12:33:38.808Z</time></trkpt><trkpt lat="42.2100383" lon="14.592305"><ele>9.0</ele><time>2026-03-25T12:33:40.808Z</time></trkpt><trkpt lat="42.209975" lon="14.5924367"><ele>7.0</ele><time>2026-03-25T12:33:42.808Z</time></trkpt><trkpt lat="42.20991" lon="14.5925683"><ele>7.0</ele><time>2026-03-25T12:33:44.808Z</time></trkpt><trkpt lat="42.2098383" lon="14.5926983"><ele>7.0</ele><time>2026-03-25T12:33:46.809Z</time></trkpt><trkpt lat="42.2097717" lon="14.592815"><ele>7.0</ele><time>2026-03-25T12:33:48.808Z</time></trkpt><trkpt lat="42.2096983" lon="14.5929333"><ele>7.0</ele><time>2026-03-25T12:33:50.808Z</time></trkpt><trkpt lat="42.20963" lon="14.59305"><ele>8.5</ele><time>2026-03-25T12:33:52.809Z</time></trkpt><trkpt lat="42.2095583" lon="14.5931717"><ele>10.0</ele><time>2026-03-25T12:33:54.808Z</time></trkpt><trkpt lat="42.209485" lon="14.593295"><ele>11.5</ele><time>2026-03-25T12:33:56.809Z</time></trkpt><trkpt lat="42.20941" lon="14.5934167"><ele>13.0</ele><time>2026-03-25T12:33:58.809Z</time></trkpt><trkpt lat="42.2093383" lon="14.59354"><ele>11.25</ele><time>2026-03-25T12:34:00.808Z</time></trkpt><trkpt lat="42.2092683" lon="14.5936733"><ele>9.5</ele><time>2026-03-25T12:34:02.808Z</time></trkpt><trkpt lat="42.2092" lon="14.5937933"><ele>7.75</ele><time>2026-03-25T12:34:04.808Z</time></trkpt><trkpt lat="42.2091317" lon="14.5939117"><ele>6.0</ele><time>2026-03-25T12:34:06.808Z</time></trkpt><trkpt lat="42.2090617" lon="14.5940333"><ele>8.0</ele><time>2026-03-25T12:34:08.808Z</time></trkpt><trkpt lat="42.20899" lon="14.594155"><ele>10.0</ele><time>2026-03-25T12:34:10.808Z</time></trkpt><trkpt lat="42.208925" lon="14.5942883"><ele>12.0</ele><time>2026-03-25T12:34:12.808Z</time></trkpt><trkpt lat="42.2088483" lon="14.5944067"><ele>14.0</ele><time>2026-03-25T12:34:14.808Z</time></trkpt><trkpt lat="42.20877" lon="14.594525"><ele>14.0</ele><time>2026-03-25T12:34:16.808Z</time></trkpt><trkpt lat="42.2086967" lon="14.5946483"><ele>14.0</ele><time>2026-03-25T12:34:18.808Z</time></trkpt><trkpt lat="42.208625" lon="14.594775"><ele>14.0</ele><time>2026-03-25T12:34:20.808Z</time></trkpt><trkpt lat="42.2085533" lon="14.5949033"><ele>14.0</ele><time>2026-03-25T12:34:22.808Z</time></trkpt><trkpt lat="42.208485" lon="14.5950317"><ele>14.0</ele><time>2026-03-25T12:34:24.808Z</time></trkpt><trkpt lat="42.208415" lon="14.5951583"><ele>14.0</ele><time>2026-03-25T12:34:26.808Z</time></trkpt><trkpt lat="42.2083467" lon="14.5952883"><ele>14.0</ele><time>2026-03-25T12:34:28.809Z</time></trkpt><trkpt lat="42.20828" lon="14.5954217"><ele>14.0</ele><time>2026-03-25T12:34:30.808Z</time></trkpt><trkpt lat="42.2082117" lon="14.59554"><ele>14.0</ele><time>2026-03-25T12:34:32.809Z</time></trkpt><trkpt lat="42.2081483" lon="14.5956683"><ele>13.999999999999998</ele><time>2026-03-25T12:34:34.809Z</time></trkpt><trkpt lat="42.2080883" lon="14.595795"><ele>13.999999999999998</ele><time>2026-03-25T12:34:36.808Z</time></trkpt><trkpt lat="42.208025" lon="14.5959183"><ele>14.0</ele><time>2026-03-25T12:34:38.808Z</time></trkpt><trkpt lat="42.207965" lon="14.5960433"><ele>14.0</ele><time>2026-03-25T12:34:40.808Z</time></trkpt><trkpt lat="42.2079033" lon="14.5961733"><ele>14.0</ele><time>2026-03-25T12:34:42.808Z</time></trkpt><trkpt lat="42.207845" lon="14.596295"><ele>13.999999999999998</ele><time>2026-03-25T12:34:44.808Z</time></trkpt><trkpt lat="42.2077883" lon="14.59642"><ele>13.999999999999998</ele><time>2026-03-25T12:34:46.808Z</time></trkpt><trkpt lat="42.20773" lon="14.5965417"><ele>14.0</ele><time>2026-03-25T12:34:48.808Z</time></trkpt><trkpt lat="42.207675" lon="14.59668"><ele>14.0</ele><time>2026-03-25T12:34:50.808Z</time></trkpt><trkpt lat="42.2076217" lon="14.5968233"><ele>14.0</ele><time>2026-03-25T12:34:52.808Z</time></trkpt><trkpt lat="42.2075833" lon="14.5969667"><ele>14.0</ele><time>2026-03-25T12:34:54.809Z</time></trkpt><trkpt lat="42.2075283" lon="14.5971083"><ele>14.0</ele><time>2026-03-25T12:34:56.808Z</time></trkpt><trkpt lat="42.20747" lon="14.59725"><ele>14.0</ele><time>2026-03-25T12:34:58.808Z</time></trkpt><trkpt lat="42.2074083" lon="14.597385"><ele>14.25</ele><time>2026-03-25T12:35:00.808Z</time></trkpt><trkpt lat="42.207345" lon="14.5975233"><ele>14.5</ele><time>2026-03-25T12:35:02.808Z</time></trkpt><trkpt lat="42.2072833" lon="14.5976533"><ele>14.75</ele><time>2026-03-25T12:35:04.808Z</time></trkpt><trkpt lat="42.2072183" lon="14.5977783"><ele>15.0</ele><time>2026-03-25T12:35:06.808Z</time></trkpt><trkpt lat="42.2071567" lon="14.597905"><ele>15.0</ele><time>2026-03-25T12:35:08.808Z</time></trkpt><trkpt lat="42.2071017" lon="14.598035"><ele>15.0</ele><time>2026-03-25T12:35:10.808Z</time></trkpt><trkpt lat="42.2070367" lon="14.5981683"><ele>15.0</ele><time>2026-03-25T12:35:12.808Z</time></trkpt><trkpt lat="42.2069783" lon="14.5982983"><ele>15.0</ele><time>2026-03-25T12:35:14.808Z</time></trkpt><trkpt lat="42.2069217" lon="14.5984367"><ele>15.0</ele><time>2026-03-25T12:35:16.808Z</time></trkpt><trkpt lat="42.206865" lon="14.598575"><ele>15.0</ele><time>2026-03-25T12:35:18.809Z</time></trkpt><trkpt lat="42.2068083" lon="14.598715"><ele>15.0</ele><time>2026-03-25T12:35:20.808Z</time></trkpt><trkpt lat="42.2067517" lon="14.598855"><ele>15.0</ele><time>2026-03-25T12:35:22.808Z</time></trkpt><trkpt lat="42.20669" lon="14.59899"><ele>14.0</ele><time>2026-03-25T12:35:24.808Z</time></trkpt><trkpt lat="42.20663" lon="14.5991233"><ele>13.0</ele><time>2026-03-25T12:35:26.808Z</time></trkpt><trkpt lat="42.2065733" lon="14.5992583"><ele>12.0</ele><time>2026-03-25T12:35:28.808Z</time></trkpt><trkpt lat="42.2065183" lon="14.5993917"><ele>11.0</ele><time>2026-03-25T12:35:30.808Z</time></trkpt><trkpt lat="42.2064617" lon="14.59952"><ele>11.0</ele><time>2026-03-25T12:35:32.808Z</time></trkpt><trkpt lat="42.2064017" lon="14.5996517"><ele>11.0</ele><time>2026-03-25T12:35:34.808Z</time></trkpt><trkpt lat="42.2063383" lon="14.599785"><ele>11.0</ele><time>2026-03-25T12:35:36.809Z</time></trkpt><trkpt lat="42.2062817" lon="14.59992"><ele>11.0</ele><time>2026-03-25T12:35:38.809Z</time></trkpt><trkpt lat="42.2062233" lon="14.6000483"><ele>11.0</ele><time>2026-03-25T12:35:40.808Z</time></trkpt><trkpt lat="42.2061667" lon="14.6001867"><ele>11.0</ele><time>2026-03-25T12:35:42.808Z</time></trkpt><trkpt lat="42.2061083" lon="14.6003233"><ele>11.0</ele><time>2026-03-25T12:35:44.808Z</time></trkpt><trkpt lat="42.20605" lon="14.6004567"><ele>11.0</ele><time>2026-03-25T12:35:46.808Z</time></trkpt><trkpt lat="42.205995" lon="14.6005933"><ele>10.25</ele><time>2026-03-25T12:35:48.808Z</time></trkpt><trkpt lat="42.2059367" lon="14.6007267"><ele>9.5</ele><time>2026-03-25T12:35:50.809Z</time></trkpt><trkpt lat="42.20588" lon="14.6008617"><ele>8.75</ele><time>2026-03-25T12:35:52.808Z</time></trkpt><trkpt lat="42.2058267" lon="14.6009967"><ele>8.0</ele><time>2026-03-25T12:35:54.808Z</time></trkpt><trkpt lat="42.2057733" lon="14.6011317"><ele>8.75</ele><time>2026-03-25T12:35:56.809Z</time></trkpt><trkpt lat="42.20571" lon="14.601265"><ele>9.5</ele><time>2026-03-25T12:35:58.809Z</time></trkpt><trkpt lat="42.205655" lon="14.6013933"><ele>10.25</ele><time>2026-03-25T12:36:00.809Z</time></trkpt><trkpt lat="42.2055983" lon="14.6015233"><ele>11.0</ele><time>2026-03-25T12:36:02.808Z</time></trkpt><trkpt lat="42.205535" lon="14.6016533"><ele>11.0</ele><time>2026-03-25T12:36:04.808Z</time></trkpt><trkpt lat="42.205475" lon="14.6017917"><ele>11.0</ele><time>2026-03-25T12:36:06.808Z</time></trkpt><trkpt lat="42.2054117" lon="14.601925"><ele>11.0</ele><time>2026-03-25T12:36:08.808Z</time></trkpt><trkpt lat="42.20535" lon="14.60206"><ele>11.0</ele><time>2026-03-25T12:36:10.809Z</time></trkpt><trkpt lat="42.20529" lon="14.6021883"><ele>10.0</ele><time>2026-03-25T12:36:12.808Z</time></trkpt><trkpt lat="42.205225" lon="14.6023117"><ele>9.0</ele><time>2026-03-25T12:36:14.808Z</time></trkpt><trkpt lat="42.205165" lon="14.602445"><ele>8.0</ele><time>2026-03-25T12:36:16.808Z</time></trkpt><trkpt lat="42.2051017" lon="14.6025767"><ele>7.0</ele><time>2026-03-25T12:36:18.808Z</time></trkpt><trkpt lat="42.2050417" lon="14.6026983"><ele>7.0</ele><time>2026-03-25T12:36:20.808Z</time></trkpt><trkpt lat="42.2049833" lon="14.6028283"><ele>7.0</ele><time>2026-03-25T12:36:22.808Z</time></trkpt><trkpt lat="42.2049267" lon="14.602965"><ele>7.0</ele><time>2026-03-25T12:36:24.808Z</time></trkpt><trkpt lat="42.2048633" lon="14.603105"><ele>7.0</ele><time>2026-03-25T12:36:26.808Z</time></trkpt><trkpt lat="42.2048083" lon="14.6032417"><ele>5.8</ele><time>2026-03-25T12:36:28.808Z</time></trkpt><trkpt lat="42.2047483" lon="14.6033683"><ele>4.6</ele><time>2026-03-25T12:36:30.808Z</time></trkpt><trkpt lat="42.20469" lon="14.60349"><ele>3.4</ele><time>2026-03-25T12:36:32.809Z</time></trkpt><trkpt lat="42.2046283" lon="14.6036083"><ele>2.2</ele><time>2026-03-25T12:36:34.809Z</time></trkpt><trkpt lat="42.2045567" lon="14.6037217"><ele>1.0</ele><time>2026-03-25T12:36:36.809Z</time></trkpt><trkpt lat="42.20449" lon="14.6038467"><ele>0.75</ele><time>2026-03-25T12:36:38.809Z</time></trkpt><trkpt lat="42.20443" lon="14.6039783"><ele>0.5</ele><time>2026-03-25T12:36:40.809Z</time></trkpt><trkpt lat="42.204375" lon="14.6041117"><ele>0.25</ele><time>2026-03-25T12:36:42.808Z</time></trkpt><trkpt lat="42.2043233" lon="14.6042517"><ele>0.0</ele><time>2026-03-25T12:36:44.808Z</time></trkpt><trkpt lat="42.2042717" lon="14.604385"><ele>0.25</ele><time>2026-03-25T12:36:46.808Z</time></trkpt><trkpt lat="42.2042167" lon="14.6045217"><ele>0.5</ele><time>2026-03-25T12:36:48.808Z</time></trkpt><trkpt lat="42.20416" lon="14.60466"><ele>0.75</ele><time>2026-03-25T12:36:50.808Z</time></trkpt><trkpt lat="42.2041067" lon="14.604795"><ele>1.0</ele><time>2026-03-25T12:36:52.809Z</time></trkpt><trkpt lat="42.2040533" lon="14.60493"><ele>1.0</ele><time>2026-03-25T12:36:54.808Z</time></trkpt><trkpt lat="42.2039933" lon="14.6050567"><ele>1.0</ele><time>2026-03-25T12:36:56.808Z</time></trkpt><trkpt lat="42.2039333" lon="14.60518"><ele>1.0</ele><time>2026-03-25T12:36:58.808Z</time></trkpt><trkpt lat="42.20388" lon="14.605315"><ele>1.0</ele><time>2026-03-25T12:37:00.808Z</time></trkpt><trkpt lat="42.203825" lon="14.605445"><ele>1.0</ele><time>2026-03-25T12:37:02.808Z</time></trkpt><trkpt lat="42.2037667" lon="14.605575"><ele>1.0</ele><time>2026-03-25T12:37:04.808Z</time></trkpt><trkpt lat="42.20371" lon="14.605715"><ele>1.0</ele><time>2026-03-25T12:37:06.808Z</time></trkpt><trkpt lat="42.2036533" lon="14.605845"><ele>1.0</ele><time>2026-03-25T12:37:08.808Z</time></trkpt><trkpt lat="42.2036017" lon="14.605975"><ele>1.0</ele><time>2026-03-25T12:37:10.808Z</time></trkpt><trkpt lat="42.2035467" lon="14.6061"><ele>1.0</ele><time>2026-03-25T12:37:12.808Z</time></trkpt><trkpt lat="42.2034883" lon="14.6062333"><ele>1.0</ele><time>2026-03-25T12:37:14.808Z</time></trkpt><trkpt lat="42.2034267" lon="14.6063667"><ele>1.0</ele><time>2026-03-25T12:37:16.808Z</time></trkpt><trkpt lat="42.20337" lon="14.6064967"><ele>1.0</ele><time>2026-03-25T12:37:18.808Z</time></trkpt><trkpt lat="42.20331" lon="14.6066267"><ele>1.0</ele><time>2026-03-25T12:37:20.808Z</time></trkpt><trkpt lat="42.2032533" lon="14.606755"><ele>1.0</ele><time>2026-03-25T12:37:22.808Z</time></trkpt><trkpt lat="42.2031933" lon="14.60689"><ele>1.0</ele><time>2026-03-25T12:37:24.808Z</time></trkpt><trkpt lat="42.2031383" lon="14.6070283"><ele>1.0</ele><time>2026-03-25T12:37:26.809Z</time></trkpt><trkpt lat="42.20308" lon="14.607165"><ele>1.0</ele><time>2026-03-25T12:37:28.808Z</time></trkpt><trkpt lat="42.2030217" lon="14.6072967"><ele>1.5</ele><time>2026-03-25T12:37:30.809Z</time></trkpt><trkpt lat="42.2029633" lon="14.6074283"><ele>2.0</ele><time>2026-03-25T12:37:32.808Z</time></trkpt><trkpt lat="42.202905" lon="14.607565"><ele>2.5</ele><time>2026-03-25T12:37:34.809Z</time></trkpt><trkpt lat="42.2028483" lon="14.6077017"><ele>3.0</ele><time>2026-03-25T12:37:36.809Z</time></trkpt><trkpt lat="42.20279" lon="14.6078333"><ele>3.25</ele><time>2026-03-25T12:37:38.808Z</time></trkpt><trkpt lat="42.20273" lon="14.6079667"><ele>3.5</ele><time>2026-03-25T12:37:40.808Z</time></trkpt><trkpt lat="42.2026717" lon="14.6080967"><ele>3.75</ele><time>2026-03-25T12:37:42.808Z</time></trkpt><trkpt lat="42.2026233" lon="14.6082317"><ele>4.0</ele><time>2026-03-25T12:37:44.808Z</time></trkpt><trkpt lat="42.20256" lon="14.608355"><ele>4.0</ele><time>2026-03-25T12:37:46.808Z</time></trkpt><trkpt lat="42.2025017" lon="14.6084833"><ele>4.0</ele><time>2026-03-25T12:37:48.808Z</time></trkpt><trkpt lat="42.2024483" lon="14.608615"><ele>4.0</ele><time>2026-03-25T12:37:50.809Z</time></trkpt><trkpt lat="42.2023983" lon="14.608745"><ele>4.0</ele><time>2026-03-25T12:37:52.809Z</time></trkpt><trkpt lat="42.202345" lon="14.60887"><ele>4.0</ele><time>2026-03-25T12:37:54.808Z</time></trkpt><trkpt lat="42.20229" lon="14.609"><ele>3.8000000000000003</ele><time>2026-03-25T12:37:56.809Z</time></trkpt><trkpt lat="42.2022417" lon="14.60912"><ele>3.6000000000000005</ele><time>2026-03-25T12:37:58.808Z</time></trkpt><trkpt lat="42.2021933" lon="14.6092483"><ele>3.4</ele><time>2026-03-25T12:38:00.808Z</time></trkpt><trkpt lat="42.2021433" lon="14.6093767"><ele>3.2</ele><time>2026-03-25T12:38:02.808Z</time></trkpt><trkpt lat="42.2020983" lon="14.609495"><ele>3.0</ele><time>2026-03-25T12:38:04.808Z</time></trkpt><trkpt lat="42.202055" lon="14.609605"><ele>3.0</ele><time>2026-03-25T12:38:06.808Z</time></trkpt><trkpt lat="42.2020167" lon="14.609705"><ele>3.0</ele><time>2026-03-25T12:38:08.808Z</time></trkpt><trkpt lat="42.2019783" lon="14.6098"><ele>3.0</ele><time>2026-03-25T12:38:10.808Z</time></trkpt><trkpt lat="42.2019383" lon="14.6099083"><ele>3.0</ele><time>2026-03-25T12:38:12.808Z</time></trkpt><trkpt lat="42.2019233" lon="14.6100533"><ele>3.0</ele><time>2026-03-25T12:38:14.808Z</time></trkpt><trkpt lat="42.2019217" lon="14.610225"><ele>3.3333333333333335</ele><time>2026-03-25T12:38:16.809Z</time></trkpt><trkpt lat="42.2019233" lon="14.6103267"><ele>3.666666666666667</ele><time>2026-03-25T12:38:17.808Z</time></trkpt><trkpt lat="42.2019283" lon="14.6104267"><ele>4.0</ele><time>2026-03-25T12:38:18.808Z</time></trkpt><trkpt lat="42.2019233" lon="14.610515"><ele>4.333333333333334</ele><time>2026-03-25T12:38:19.808Z</time></trkpt><trkpt lat="42.201905" lon="14.6105983"><ele>4.666666666666667</ele><time>2026-03-25T12:38:20.809Z</time></trkpt><trkpt lat="42.201845" lon="14.6107483"><ele>5.0</ele><time>2026-03-25T12:38:22.808Z</time></trkpt><trkpt lat="42.2017983" lon="14.6108933"><ele>5.0</ele><time>2026-03-25T12:38:24.808Z</time></trkpt><trkpt lat="42.2017533" lon="14.611015"><ele>5.0</ele><time>2026-03-25T12:38:26.808Z</time></trkpt><trkpt lat="42.2017117" lon="14.61115"><ele>5.0</ele><time>2026-03-25T12:38:28.808Z</time></trkpt><trkpt lat="42.2016617" lon="14.6112817"><ele>5.0</ele><time>2026-03-25T12:38:30.808Z</time></trkpt><trkpt lat="42.20161" lon="14.6114167"><ele>5.0</ele><time>2026-03-25T12:38:32.808Z</time></trkpt><trkpt lat="42.20156" lon="14.6115483"><ele>5.0</ele><time>2026-03-25T12:38:34.808Z</time></trkpt><trkpt lat="42.2015117" lon="14.6116917"><ele>5.0</ele><time>2026-03-25T12:38:36.808Z</time></trkpt><trkpt lat="42.2014717" lon="14.6118333"><ele>5.0</ele><time>2026-03-25T12:38:38.808Z</time></trkpt><trkpt lat="42.2014367" lon="14.61196"><ele>5.0</ele><time>2026-03-25T12:38:40.808Z</time></trkpt><trkpt lat="42.2014017" lon="14.6120883"><ele>5.0</ele><time>2026-03-25T12:38:42.808Z</time></trkpt><trkpt lat="42.2013583" lon="14.612225"><ele>5.2</ele><time>2026-03-25T12:38:44.808Z</time></trkpt><trkpt lat="42.20132" lon="14.6123567"><ele>5.4</ele><time>2026-03-25T12:38:46.808Z</time></trkpt><trkpt lat="42.2012783" lon="14.6124933"><ele>5.6</ele><time>2026-03-25T12:38:48.808Z</time></trkpt><trkpt lat="42.201245" lon="14.61263"><ele>5.8</ele><time>2026-03-25T12:38:50.808Z</time></trkpt><trkpt lat="42.2012117" lon="14.6127617"><ele>6.0</ele><time>2026-03-25T12:38:52.808Z</time></trkpt><trkpt lat="42.2011767" lon="14.6128783"><ele>6.199999999999999</ele><time>2026-03-25T12:38:54.809Z</time></trkpt><trkpt lat="42.2011483" lon="14.613"><ele>6.3999999999999995</ele><time>2026-03-25T12:38:56.809Z</time></trkpt><trkpt lat="42.201115" lon="14.613125"><ele>6.6</ele><time>2026-03-25T12:38:58.808Z</time></trkpt><trkpt lat="42.2010733" lon="14.6132467"><ele>6.8</ele><time>2026-03-25T12:39:00.808Z</time></trkpt><trkpt lat="42.2010333" lon="14.61337"><ele>7.0</ele><time>2026-03-25T12:39:02.808Z</time></trkpt><trkpt lat="42.2010017" lon="14.61349"><ele>7.000000000000001</ele><time>2026-03-25T12:39:04.808Z</time></trkpt><trkpt lat="42.2009633" lon="14.613605"><ele>7.0</ele><time>2026-03-25T12:39:06.808Z</time></trkpt><trkpt lat="42.2009267" lon="14.6137133"><ele>7.0</ele><time>2026-03-25T12:39:08.809Z</time></trkpt><trkpt lat="42.2008883" lon="14.6138267"><ele>7.0</ele><time>2026-03-25T12:39:10.808Z</time></trkpt><trkpt lat="42.2008533" lon="14.613935"><ele>7.000000000000001</ele><time>2026-03-25T12:39:12.808Z</time></trkpt><trkpt lat="42.2008283" lon="14.614045"><ele>7.0</ele><time>2026-03-25T12:39:14.808Z</time></trkpt><trkpt lat="42.200795" lon="14.6141433"><ele>6.6</ele><time>2026-03-25T12:39:16.809Z</time></trkpt><trkpt lat="42.2007567" lon="14.6142433"><ele>6.199999999999999</ele><time>2026-03-25T12:39:18.808Z</time></trkpt><trkpt lat="42.20071" lon="14.6143567"><ele>5.8</ele><time>2026-03-25T12:39:20.809Z</time></trkpt><trkpt lat="42.2006783" lon="14.6144683"><ele>5.4</ele><time>2026-03-25T12:39:22.809Z</time></trkpt><trkpt lat="42.2006567" lon="14.6145833"><ele>5.0</ele><time>2026-03-25T12:39:24.808Z</time></trkpt><trkpt lat="42.2006383" lon="14.6147117"><ele>5.8</ele><time>2026-03-25T12:39:26.808Z</time></trkpt><trkpt lat="42.2006467" lon="14.6148583"><ele>6.6</ele><time>2026-03-25T12:39:28.809Z</time></trkpt><trkpt lat="42.2006283" lon="14.6149933"><ele>7.4</ele><time>2026-03-25T12:39:30.808Z</time></trkpt><trkpt lat="42.20059" lon="14.61511"><ele>8.2</ele><time>2026-03-25T12:39:32.808Z</time></trkpt><trkpt lat="42.20053" lon="14.615205"><ele>9.0</ele><time>2026-03-25T12:39:35.808Z</time></trkpt><trkpt lat="42.200485" lon="14.615265"><ele>8.166666666666666</ele><time>2026-03-25T12:39:37.808Z</time></trkpt><trkpt lat="42.20044" lon="14.61534"><ele>7.333333333333333</ele><time>2026-03-25T12:39:39.808Z</time></trkpt><trkpt lat="42.2003833" lon="14.61542"><ele>6.5</ele><time>2026-03-25T12:39:41.808Z</time></trkpt><trkpt lat="42.2003317" lon="14.6155133"><ele>5.666666666666666</ele><time>2026-03-25T12:39:43.808Z</time></trkpt><trkpt lat="42.2002867" lon="14.6156283"><ele>4.833333333333333</ele><time>2026-03-25T12:39:45.808Z</time></trkpt><trkpt lat="42.2002517" lon="14.6157367"><ele>4.0</ele><time>2026-03-25T12:39:47.808Z</time></trkpt><trkpt lat="42.2002117" lon="14.61584"><ele>3.9999999999999996</ele><time>2026-03-25T12:39:49.808Z</time></trkpt><trkpt lat="42.2001717" lon="14.6159533"><ele>4.0</ele><time>2026-03-25T12:39:51.808Z</time></trkpt><trkpt lat="42.2001333" lon="14.616055"><ele>4.0</ele><time>2026-03-25T12:39:53.808Z</time></trkpt><trkpt lat="42.200095" lon="14.61616"><ele>4.0</ele><time>2026-03-25T12:39:55.808Z</time></trkpt><trkpt lat="42.2000583" lon="14.6162633"><ele>3.9999999999999996</ele><time>2026-03-25T12:39:57.808Z</time></trkpt><trkpt lat="42.2000183" lon="14.61637"><ele>4.0</ele><time>2026-03-25T12:39:59.808Z</time></trkpt><trkpt lat="42.1999833" lon="14.6164767"><ele>4.4</ele><time>2026-03-25T12:40:01.808Z</time></trkpt><trkpt lat="42.1999483" lon="14.61659"><ele>4.800000000000001</ele><time>2026-03-25T12:40:03.808Z</time></trkpt><trkpt lat="42.199915" lon="14.6167033"><ele>5.199999999999999</ele><time>2026-03-25T12:40:05.808Z</time></trkpt><trkpt lat="42.1998767" lon="14.6168217"><ele>5.6</ele><time>2026-03-25T12:40:07.808Z</time></trkpt><trkpt lat="42.1998433" lon="14.61694"><ele>6.0</ele><time>2026-03-25T12:40:09.808Z</time></trkpt><trkpt lat="42.1998083" lon="14.6170583"><ele>6.0</ele><time>2026-03-25T12:40:11.809Z</time></trkpt><trkpt lat="42.1997667" lon="14.617175"><ele>6.0</ele><time>2026-03-25T12:40:13.809Z</time></trkpt><trkpt lat="42.199725" lon="14.617295"><ele>6.0</ele><time>2026-03-25T12:40:15.808Z</time></trkpt><trkpt lat="42.1996817" lon="14.617415"><ele>6.0</ele><time>2026-03-25T12:40:17.808Z</time></trkpt><trkpt lat="42.19964" lon="14.6175383"><ele>6.0</ele><time>2026-03-25T12:40:19.808Z</time></trkpt><trkpt lat="42.1995967" lon="14.6176633"><ele>6.0</ele><time>2026-03-25T12:40:21.808Z</time></trkpt><trkpt lat="42.19956" lon="14.61779"><ele>6.0</ele><time>2026-03-25T12:40:23.808Z</time></trkpt><trkpt lat="42.1995183" lon="14.617915"><ele>6.0</ele><time>2026-03-25T12:40:25.808Z</time></trkpt><trkpt lat="42.1994767" lon="14.6180383"><ele>6.0</ele><time>2026-03-25T12:40:27.808Z</time></trkpt><trkpt lat="42.1994283" lon="14.618155"><ele>6.0</ele><time>2026-03-25T12:40:29.809Z</time></trkpt><trkpt lat="42.199385" lon="14.6182717"><ele>5.3999999999999995</ele><time>2026-03-25T12:40:31.808Z</time></trkpt><trkpt lat="42.199345" lon="14.6183883"><ele>4.8</ele><time>2026-03-25T12:40:33.808Z</time></trkpt><trkpt lat="42.199305" lon="14.6185033"><ele>4.199999999999999</ele><time>2026-03-25T12:40:35.808Z</time></trkpt><trkpt lat="42.1992567" lon="14.6186183"><ele>3.5999999999999996</ele><time>2026-03-25T12:40:37.808Z</time></trkpt><trkpt lat="42.199225" lon="14.6187317"><ele>3.0</ele><time>2026-03-25T12:40:39.808Z</time></trkpt><trkpt lat="42.1991917" lon="14.61884"><ele>2.8</ele><time>2026-03-25T12:40:41.808Z</time></trkpt><trkpt lat="42.1991533" lon="14.61895"><ele>2.5999999999999996</ele><time>2026-03-25T12:40:43.808Z</time></trkpt><trkpt lat="42.1991133" lon="14.6190683"><ele>2.4000000000000004</ele><time>2026-03-25T12:40:45.808Z</time></trkpt><trkpt lat="42.199075" lon="14.6191867"><ele>2.2</ele><time>2026-03-25T12:40:47.808Z</time></trkpt><trkpt lat="42.19904" lon="14.6193067"><ele>2.0</ele><time>2026-03-25T12:40:49.808Z</time></trkpt><trkpt lat="42.199005" lon="14.61941"><ele>3.4000000000000004</ele><time>2026-03-25T12:40:51.808Z</time></trkpt><trkpt lat="42.198965" lon="14.6195317"><ele>4.800000000000001</ele><time>2026-03-25T12:40:53.808Z</time></trkpt><trkpt lat="42.1989283" lon="14.619655"><ele>6.2</ele><time>2026-03-25T12:40:55.809Z</time></trkpt><trkpt lat="42.198895" lon="14.619775"><ele>7.6000000000000005</ele><time>2026-03-25T12:40:57.808Z</time></trkpt><trkpt lat="42.19886" lon="14.6198967"><ele>9.0</ele><time>2026-03-25T12:40:59.809Z</time></trkpt><trkpt lat="42.1988217" lon="14.6200133"><ele>9.0</ele><time>2026-03-25T12:41:01.809Z</time></trkpt><trkpt lat="42.1987833" lon="14.6201367"><ele>9.0</ele><time>2026-03-25T12:41:03.809Z</time></trkpt><trkpt lat="42.19875" lon="14.6202633"><ele>9.0</ele><time>2026-03-25T12:41:05.808Z</time></trkpt><trkpt lat="42.198715" lon="14.6203817"><ele>9.0</ele><time>2026-03-25T12:41:07.809Z</time></trkpt><trkpt lat="42.1986817" lon="14.62051"><ele>9.0</ele><time>2026-03-25T12:41:09.808Z</time></trkpt><trkpt lat="42.198645" lon="14.6206383"><ele>9.0</ele><time>2026-03-25T12:41:11.808Z</time></trkpt><trkpt lat="42.1986133" lon="14.6207667"><ele>9.0</ele><time>2026-03-25T12:41:13.808Z</time></trkpt><trkpt lat="42.1985783" lon="14.62089"><ele>9.0</ele><time>2026-03-25T12:41:15.808Z</time></trkpt><trkpt lat="42.1985417" lon="14.6210017"><ele>9.0</ele><time>2026-03-25T12:41:17.808Z</time></trkpt><trkpt lat="42.1985033" lon="14.6211267"><ele>9.0</ele><time>2026-03-25T12:41:19.808Z</time></trkpt><trkpt lat="42.1984683" lon="14.6212533"><ele>8.8</ele><time>2026-03-25T12:41:21.808Z</time></trkpt><trkpt lat="42.19843" lon="14.62138"><ele>8.600000000000001</ele><time>2026-03-25T12:41:23.808Z</time></trkpt><trkpt lat="42.1983933" lon="14.6215067"><ele>8.4</ele><time>2026-03-25T12:41:25.808Z</time></trkpt><trkpt lat="42.198355" lon="14.6216317"><ele>8.200000000000001</ele><time>2026-03-25T12:41:27.808Z</time></trkpt><trkpt lat="42.1983167" lon="14.6217517"><ele>8.0</ele><time>2026-03-25T12:41:29.809Z</time></trkpt><trkpt lat="42.198285" lon="14.6218733"><ele>7.2</ele><time>2026-03-25T12:41:31.808Z</time></trkpt><trkpt lat="42.19825" lon="14.621995"><ele>6.4</ele><time>2026-03-25T12:41:33.809Z</time></trkpt><trkpt lat="42.1982183" lon="14.6221183"><ele>5.6000000000000005</ele><time>2026-03-25T12:41:35.808Z</time></trkpt><trkpt lat="42.1981817" lon="14.6222417"><ele>4.800000000000001</ele><time>2026-03-25T12:41:37.808Z</time></trkpt><trkpt lat="42.1981483" lon="14.6223667"><ele>4.0</ele><time>2026-03-25T12:41:39.808Z</time></trkpt><trkpt lat="42.198115" lon="14.6224967"><ele>5.4</ele><time>2026-03-25T12:41:41.808Z</time></trkpt><trkpt lat="42.1980767" lon="14.622615"><ele>6.800000000000001</ele><time>2026-03-25T12:41:43.808Z</time></trkpt><trkpt lat="42.1980417" lon="14.6227367"><ele>8.200000000000001</ele><time>2026-03-25T12:41:45.808Z</time></trkpt><trkpt lat="42.1980083" lon="14.6228617"><ele>9.600000000000001</ele><time>2026-03-25T12:41:47.809Z</time></trkpt><trkpt lat="42.197965" lon="14.622985"><ele>11.0</ele><time>2026-03-25T12:41:49.808Z</time></trkpt><trkpt lat="42.1979283" lon="14.6231167"><ele>11.0</ele><time>2026-03-25T12:41:51.808Z</time></trkpt><trkpt lat="42.1978933" lon="14.623245"><ele>11.0</ele><time>2026-03-25T12:41:53.808Z</time></trkpt><trkpt lat="42.1978583" lon="14.6233733"><ele>11.0</ele><time>2026-03-25T12:41:55.808Z</time></trkpt><trkpt lat="42.19783" lon="14.623505"><ele>11.0</ele><time>2026-03-25T12:41:57.809Z</time></trkpt><trkpt lat="42.1977967" lon="14.6236283"><ele>11.0</ele><time>2026-03-25T12:41:59.809Z</time></trkpt><trkpt lat="42.1977683" lon="14.6237633"><ele>10.600000000000001</ele><time>2026-03-25T12:42:01.808Z</time></trkpt><trkpt lat="42.1977317" lon="14.6238867"><ele>10.200000000000001</ele><time>2026-03-25T12:42:03.808Z</time></trkpt><trkpt lat="42.19769" lon="14.6240067"><ele>9.8</ele><time>2026-03-25T12:42:05.808Z</time></trkpt><trkpt lat="42.1976567" lon="14.6241283"><ele>9.4</ele><time>2026-03-25T12:42:07.808Z</time></trkpt><trkpt lat="42.1976167" lon="14.62425"><ele>9.0</ele><time>2026-03-25T12:42:09.808Z</time></trkpt><trkpt lat="42.1975767" lon="14.6243717"><ele>8.2</ele><time>2026-03-25T12:42:11.808Z</time></trkpt><trkpt lat="42.1975367" lon="14.6244867"><ele>7.4</ele><time>2026-03-25T12:42:13.808Z</time></trkpt><trkpt lat="42.197495" lon="14.6245983"><ele>6.6</ele><time>2026-03-25T12:42:15.808Z</time></trkpt><trkpt lat="42.197455" lon="14.62472"><ele>5.8</ele><time>2026-03-25T12:42:17.808Z</time></trkpt><trkpt lat="42.1974183" lon="14.6248433"><ele>5.0</ele><time>2026-03-25T12:42:19.808Z</time></trkpt><trkpt lat="42.1973817" lon="14.6249567"><ele>5.0</ele><time>2026-03-25T12:42:21.808Z</time></trkpt><trkpt lat="42.19734" lon="14.6250717"><ele>5.0</ele><time>2026-03-25T12:42:23.808Z</time></trkpt><trkpt lat="42.1972967" lon="14.625195"><ele>5.0</ele><time>2026-03-25T12:42:25.809Z</time></trkpt><trkpt lat="42.19725" lon="14.6253133"><ele>5.0</ele><time>2026-03-25T12:42:27.808Z</time></trkpt><trkpt lat="42.1972" lon="14.6254317"><ele>5.0</ele><time>2026-03-25T12:42:29.808Z</time></trkpt><trkpt lat="42.1971567" lon="14.6255467"><ele>5.4</ele><time>2026-03-25T12:42:31.808Z</time></trkpt><trkpt lat="42.19711" lon="14.6256667"><ele>5.8</ele><time>2026-03-25T12:42:33.808Z</time></trkpt><trkpt lat="42.197065" lon="14.6257867"><ele>6.199999999999999</ele><time>2026-03-25T12:42:35.808Z</time></trkpt><trkpt lat="42.1970233" lon="14.6259133"><ele>6.6</ele><time>2026-03-25T12:42:37.808Z</time></trkpt><trkpt lat="42.1969817" lon="14.6260333"><ele>7.0</ele><time>2026-03-25T12:42:39.808Z</time></trkpt><trkpt lat="42.1969417" lon="14.6261517"><ele>5.6</ele><time>2026-03-25T12:42:41.808Z</time></trkpt><trkpt lat="42.1969" lon="14.62627"><ele>4.199999999999999</ele><time>2026-03-25T12:42:43.808Z</time></trkpt><trkpt lat="42.196855" lon="14.626385"><ele>2.8</ele><time>2026-03-25T12:42:45.808Z</time></trkpt><trkpt lat="42.1968133" lon="14.6265017"><ele>1.4</ele><time>2026-03-25T12:42:47.808Z</time></trkpt><trkpt lat="42.1967683" lon="14.62662"><ele>0.0</ele><time>2026-03-25T12:42:49.808Z</time></trkpt><trkpt lat="42.1967283" lon="14.62674"><ele>0.0</ele><time>2026-03-25T12:42:51.808Z</time></trkpt><trkpt lat="42.1966883" lon="14.6268617"><ele>0.0</ele><time>2026-03-25T12:42:53.808Z</time></trkpt><trkpt lat="42.1966483" lon="14.6269817"><ele>0.0</ele><time>2026-03-25T12:42:55.808Z</time></trkpt><trkpt lat="42.1966033" lon="14.6270983"><ele>0.0</ele><time>2026-03-25T12:42:57.808Z</time></trkpt><trkpt lat="42.196565" lon="14.6272167"><ele>0.0</ele><time>2026-03-25T12:42:59.808Z</time></trkpt><trkpt lat="42.196525" lon="14.6273317"><ele>0.8</ele><time>2026-03-25T12:43:01.809Z</time></trkpt><trkpt lat="42.1964833" lon="14.62745"><ele>1.6</ele><time>2026-03-25T12:43:03.808Z</time></trkpt><trkpt lat="42.1964417" lon="14.6275733"><ele>2.4000000000000004</ele><time>2026-03-25T12:43:05.808Z</time></trkpt><trkpt lat="42.1963983" lon="14.627695"><ele>3.2</ele><time>2026-03-25T12:43:07.808Z</time></trkpt><trkpt lat="42.1963583" lon="14.6278117"><ele>4.0</ele><time>2026-03-25T12:43:09.808Z</time></trkpt><trkpt lat="42.19632" lon="14.6279267"><ele>3.9999999999999996</ele><time>2026-03-25T12:43:11.808Z</time></trkpt><trkpt lat="42.196285" lon="14.6280333"><ele>4.0</ele><time>2026-03-25T12:43:13.809Z</time></trkpt><trkpt lat="42.1962483" lon="14.628135"><ele>4.0</ele><time>2026-03-25T12:43:15.809Z</time></trkpt><trkpt lat="42.1962133" lon="14.6282333"><ele>4.0</ele><time>2026-03-25T12:43:17.808Z</time></trkpt><trkpt lat="42.1961767" lon="14.62832"><ele>3.9999999999999996</ele><time>2026-03-25T12:43:19.808Z</time></trkpt><trkpt lat="42.1961467" lon="14.628405"><ele>4.0</ele><time>2026-03-25T12:43:21.808Z</time></trkpt><trkpt lat="42.1961267" lon="14.6284867"><ele>3.9999999999999996</ele><time>2026-03-25T12:43:23.808Z</time></trkpt><trkpt lat="42.196125" lon="14.6286083"><ele>4.0</ele><time>2026-03-25T12:43:26.808Z</time></trkpt><trkpt lat="42.1961117" lon="14.628725"><ele>4.0</ele><time>2026-03-25T12:43:29.808Z</time></trkpt><trkpt lat="42.1960933" lon="14.6288483"><ele>4.0</ele><time>2026-03-25T12:43:32.808Z</time></trkpt><trkpt lat="42.196085" lon="14.6289367"><ele>3.9999999999999996</ele><time>2026-03-25T12:43:34.808Z</time></trkpt><trkpt lat="42.1960817" lon="14.6290267"><ele>4.0</ele><time>2026-03-25T12:43:36.809Z</time></trkpt><trkpt lat="42.196075" lon="14.62914"><ele>4.0</ele><time>2026-03-25T12:43:39.809Z</time></trkpt><trkpt lat="42.1960517" lon="14.6292233"><ele>3.9999999999999996</ele><time>2026-03-25T12:43:42.808Z</time></trkpt><trkpt lat="42.19603" lon="14.62931"><ele>4.0</ele><time>2026-03-25T12:43:46.808Z</time></trkpt><trkpt lat="42.1959967" lon="14.6294017"><ele>4.0</ele><time>2026-03-25T12:43:51.809Z</time></trkpt><trkpt lat="42.1959517" lon="14.6294767"><ele>3.9999999999999996</ele><time>2026-03-25T12:43:54.808Z</time></trkpt><trkpt lat="42.1959283" lon="14.6295767"><ele>4.0</ele><time>2026-03-25T12:43:57.809Z</time></trkpt><trkpt lat="42.1959217" lon="14.62968"><ele>4.0</ele><time>2026-03-25T12:44:01.808Z</time></trkpt><trkpt lat="42.1958833" lon="14.6297483"><ele>3.8571428571428568</ele><time>2026-03-25T12:47:06.808Z</time></trkpt><trkpt lat="42.1959067" lon="14.6298317"><ele>3.714285714285714</ele><time>2026-03-25T12:53:13.808Z</time></trkpt><trkpt lat="42.1958583" lon="14.62989"><ele>3.571428571428571</ele><time>2026-03-25T13:02:25.809Z</time></trkpt><trkpt lat="42.1958267" lon="14.6299667"><ele>3.4285714285714284</ele><time>2026-03-25T13:02:30.809Z</time></trkpt><trkpt lat="42.1958433" lon="14.6298817"><ele>3.2857142857142856</ele><time>2026-03-25T13:02:45.809Z</time></trkpt><trkpt lat="42.1958567" lon="14.6297967"><ele>3.1428571428571423</ele><time>2026-03-25T13:02:50.809Z</time></trkpt><trkpt lat="42.1958817" lon="14.6296983"><ele>3.0</ele><time>2026-03-25T13:02:55.809Z</time></trkpt><trkpt lat="42.195915" lon="14.6296117"><ele>3.0</ele><time>2026-03-25T13:03:00.809Z</time></trkpt><trkpt lat="42.1959517" lon="14.629515"><ele>3.0</ele><time>2026-03-25T13:03:05.809Z</time></trkpt><trkpt lat="42.19599" lon="14.6294433"><ele>3.0</ele><time>2026-03-25T13:03:08.809Z</time></trkpt><trkpt lat="42.1960367" lon="14.62934"><ele>3.0</ele><time>2026-03-25T13:03:11.809Z</time></trkpt><trkpt lat="42.1960633" lon="14.6292517"><ele>3.0</ele><time>2026-03-25T13:03:13.809Z</time></trkpt><trkpt lat="42.19608" lon="14.6291517"><ele>3.0</ele><time>2026-03-25T13:03:15.809Z</time></trkpt><trkpt lat="42.19609" lon="14.629045"><ele>3.1428571428571423</ele><time>2026-03-25T13:03:17.81Z</time></trkpt><trkpt lat="42.1961017" lon="14.6289533"><ele>3.2857142857142856</ele><time>2026-03-25T13:03:19.809Z</time></trkpt><trkpt lat="42.1961083" lon="14.628865"><ele>3.4285714285714284</ele><time>2026-03-25T13:03:21.809Z</time></trkpt><trkpt lat="42.1961133" lon="14.6287783"><ele>3.571428571428571</ele><time>2026-03-25T13:03:23.809Z</time></trkpt><trkpt lat="42.1961317" lon="14.6286567"><ele>3.714285714285714</ele><time>2026-03-25T13:03:26.809Z</time></trkpt><trkpt lat="42.1961433" lon="14.62855"><ele>3.8571428571428568</ele><time>2026-03-25T13:03:29.81Z</time></trkpt><trkpt lat="42.19617" lon="14.6284567"><ele>4.0</ele><time>2026-03-25T13:03:32.809Z</time></trkpt><trkpt lat="42.1962117" lon="14.62834"><ele>3.9999999999999996</ele><time>2026-03-25T13:03:35.81Z</time></trkpt><trkpt lat="42.19624" lon="14.628255"><ele>4.0</ele><time>2026-03-25T13:03:37.81Z</time></trkpt><trkpt lat="42.1962717" lon="14.6281583"><ele>4.0</ele><time>2026-03-25T13:03:39.81Z</time></trkpt><trkpt lat="42.19631" lon="14.62805"><ele>4.0</ele><time>2026-03-25T13:03:41.809Z</time></trkpt><trkpt lat="42.1963483" lon="14.627955"><ele>3.9999999999999996</ele><time>2026-03-25T13:03:43.81Z</time></trkpt><trkpt lat="42.1963883" lon="14.6278433"><ele>4.0</ele><time>2026-03-25T13:03:45.809Z</time></trkpt><trkpt lat="42.1964283" lon="14.627735"><ele>3.9999999999999996</ele><time>2026-03-25T13:03:47.809Z</time></trkpt><trkpt lat="42.1964667" lon="14.627625"><ele>4.0</ele><time>2026-03-25T13:03:49.809Z</time></trkpt><trkpt lat="42.196505" lon="14.6275183"><ele>4.0</ele><time>2026-03-25T13:03:51.809Z</time></trkpt><trkpt lat="42.1965417" lon="14.6274133"><ele>4.0</ele><time>2026-03-25T13:03:53.81Z</time></trkpt><trkpt lat="42.1965733" lon="14.6273067"><ele>3.9999999999999996</ele><time>2026-03-25T13:03:55.809Z</time></trkpt><trkpt lat="42.19661" lon="14.62719"><ele>4.0</ele><time>2026-03-25T13:03:57.809Z</time></trkpt><trkpt lat="42.1966533" lon="14.6270833"><ele>3.6666666666666665</ele><time>2026-03-25T13:03:59.809Z</time></trkpt><trkpt lat="42.19669" lon="14.6269783"><ele>3.333333333333333</ele><time>2026-03-25T13:04:01.809Z</time></trkpt><trkpt lat="42.196725" lon="14.6268833"><ele>3.0</ele><time>2026-03-25T13:04:03.809Z</time></trkpt><trkpt lat="42.1967617" lon="14.6267817"><ele>2.6666666666666665</ele><time>2026-03-25T13:04:05.809Z</time></trkpt><trkpt lat="42.196795" lon="14.62668"><ele>2.333333333333333</ele><time>2026-03-25T13:04:07.809Z</time></trkpt><trkpt lat="42.1968283" lon="14.6265767"><ele>2.0</ele><time>2026-03-25T13:04:09.809Z</time></trkpt><trkpt lat="42.1968667" lon="14.626475"><ele>1.6666666666666665</ele><time>2026-03-25T13:04:11.81Z</time></trkpt><trkpt lat="42.1969017" lon="14.6263683"><ele>1.3333333333333333</ele><time>2026-03-25T13:04:13.809Z</time></trkpt><trkpt lat="42.1969333" lon="14.6262567"><ele>1.0</ele><time>2026-03-25T13:04:15.81Z</time></trkpt><trkpt lat="42.19697" lon="14.626155"><ele>0.6666666666666666</ele><time>2026-03-25T13:04:17.809Z</time></trkpt><trkpt lat="42.1970067" lon="14.6260567"><ele>0.3333333333333333</ele><time>2026-03-25T13:04:19.809Z</time></trkpt><trkpt lat="42.19704" lon="14.6259567"><ele>0.0</ele><time>2026-03-25T13:04:21.81Z</time></trkpt><trkpt lat="42.1970767" lon="14.62586"><ele>1.1666666666666667</ele><time>2026-03-25T13:04:23.809Z</time></trkpt><trkpt lat="42.1971117" lon="14.62576"><ele>2.3333333333333335</ele><time>2026-03-25T13:04:25.809Z</time></trkpt><trkpt lat="42.1971467" lon="14.6256617"><ele>3.5</ele><time>2026-03-25T13:04:27.809Z</time></trkpt><trkpt lat="42.1971817" lon="14.625565"><ele>4.666666666666667</ele><time>2026-03-25T13:04:29.809Z</time></trkpt><trkpt lat="42.1972167" lon="14.62546"><ele>5.833333333333334</ele><time>2026-03-25T13:04:31.809Z</time></trkpt><trkpt lat="42.197255" lon="14.6253717"><ele>7.0</ele><time>2026-03-25T13:04:33.809Z</time></trkpt><trkpt lat="42.1972883" lon="14.6252783"><ele>6.666666666666667</ele><time>2026-03-25T13:04:35.809Z</time></trkpt><trkpt lat="42.1973183" lon="14.6251883"><ele>6.333333333333334</ele><time>2026-03-25T13:04:37.809Z</time></trkpt><trkpt lat="42.197355" lon="14.6251033"><ele>6.0</ele><time>2026-03-25T13:04:39.81Z</time></trkpt><trkpt lat="42.197395" lon="14.624995"><ele>5.666666666666667</ele><time>2026-03-25T13:04:41.809Z</time></trkpt><trkpt lat="42.1974283" lon="14.6248933"><ele>5.333333333333334</ele><time>2026-03-25T13:04:43.81Z</time></trkpt><trkpt lat="42.1974617" lon="14.6247883"><ele>5.0</ele><time>2026-03-25T13:04:45.809Z</time></trkpt><trkpt lat="42.1974917" lon="14.6246917"><ele>5.0</ele><time>2026-03-25T13:04:47.809Z</time></trkpt><trkpt lat="42.197525" lon="14.624595"><ele>5.0</ele><time>2026-03-25T13:04:49.81Z</time></trkpt><trkpt lat="42.1975667" lon="14.6244883"><ele>5.0</ele><time>2026-03-25T13:04:51.809Z</time></trkpt><trkpt lat="42.1976033" lon="14.6243833"><ele>5.0</ele><time>2026-03-25T13:04:53.809Z</time></trkpt><trkpt lat="42.197635" lon="14.6242817"><ele>5.0</ele><time>2026-03-25T13:04:55.809Z</time></trkpt><trkpt lat="42.1976617" lon="14.6241833"><ele>5.0</ele><time>2026-03-25T13:04:57.809Z</time></trkpt><trkpt lat="42.1976967" lon="14.624085"><ele>5.666666666666667</ele><time>2026-03-25T13:04:59.809Z</time></trkpt><trkpt lat="42.1977317" lon="14.6239783"><ele>6.333333333333334</ele><time>2026-03-25T13:05:01.809Z</time></trkpt><trkpt lat="42.1977633" lon="14.6238717"><ele>7.0</ele><time>2026-03-25T13:05:03.809Z</time></trkpt><trkpt lat="42.1977933" lon="14.6237583"><ele>7.666666666666667</ele><time>2026-03-25T13:05:05.809Z</time></trkpt><trkpt lat="42.1978233" lon="14.623645"><ele>8.333333333333334</ele><time>2026-03-25T13:05:07.809Z</time></trkpt><trkpt lat="42.1978533" lon="14.6235417"><ele>9.0</ele><time>2026-03-25T13:05:09.809Z</time></trkpt><trkpt lat="42.1978817" lon="14.6234417"><ele>9.333333333333334</ele><time>2026-03-25T13:05:11.809Z</time></trkpt><trkpt lat="42.1979133" lon="14.6233267"><ele>9.666666666666666</ele><time>2026-03-25T13:05:13.81Z</time></trkpt><trkpt lat="42.1979417" lon="14.6232333"><ele>10.0</ele><time>2026-03-25T13:05:15.809Z</time></trkpt><trkpt lat="42.1979733" lon="14.6231367"><ele>10.333333333333332</ele><time>2026-03-25T13:05:17.809Z</time></trkpt><trkpt lat="42.198005" lon="14.623035"><ele>10.666666666666666</ele><time>2026-03-25T13:05:19.81Z</time></trkpt><trkpt lat="42.19804" lon="14.6229267"><ele>11.0</ele><time>2026-03-25T13:05:21.809Z</time></trkpt><trkpt lat="42.19807" lon="14.62281"><ele>11.5</ele><time>2026-03-25T13:05:23.809Z</time></trkpt><trkpt lat="42.1980983" lon="14.622695"><ele>12.0</ele><time>2026-03-25T13:05:25.809Z</time></trkpt><trkpt lat="42.1981233" lon="14.6225783"><ele>12.5</ele><time>2026-03-25T13:05:27.809Z</time></trkpt><trkpt lat="42.1981567" lon="14.6224833"><ele>13.0</ele><time>2026-03-25T13:05:29.809Z</time></trkpt><trkpt lat="42.1981867" lon="14.6223767"><ele>13.500000000000002</ele><time>2026-03-25T13:05:31.809Z</time></trkpt><trkpt lat="42.198215" lon="14.622285"><ele>14.0</ele><time>2026-03-25T13:05:33.81Z</time></trkpt><trkpt lat="42.1982433" lon="14.6221833"><ele>13.000000000000002</ele><time>2026-03-25T13:05:35.809Z</time></trkpt><trkpt lat="42.198275" lon="14.6220817"><ele>12.0</ele><time>2026-03-25T13:05:37.809Z</time></trkpt><trkpt lat="42.198305" lon="14.6219817"><ele>11.0</ele><time>2026-03-25T13:05:39.809Z</time></trkpt><trkpt lat="42.1983367" lon="14.6218667"><ele>10.0</ele><time>2026-03-25T13:05:41.809Z</time></trkpt><trkpt lat="42.19837" lon="14.6217633"><ele>9.0</ele><time>2026-03-25T13:05:43.809Z</time></trkpt><trkpt lat="42.1984" lon="14.6216583"><ele>8.0</ele><time>2026-03-25T13:05:45.809Z</time></trkpt><trkpt lat="42.1984317" lon="14.6215517"><ele>8.0</ele><time>2026-03-25T13:05:47.809Z</time></trkpt><trkpt lat="42.1984667" lon="14.6214417"><ele>8.0</ele><time>2026-03-25T13:05:49.81Z</time></trkpt><trkpt lat="42.1984983" lon="14.6213183"><ele>8.0</ele><time>2026-03-25T13:05:51.81Z</time></trkpt><trkpt lat="42.1985317" lon="14.6211967"><ele>8.0</ele><time>2026-03-25T13:05:53.809Z</time></trkpt><trkpt lat="42.1985683" lon="14.62108"><ele>8.0</ele><time>2026-03-25T13:05:55.81Z</time></trkpt><trkpt lat="42.1986033" lon="14.6209617"><ele>8.200000000000001</ele><time>2026-03-25T13:05:57.809Z</time></trkpt><trkpt lat="42.1986367" lon="14.620835"><ele>8.4</ele><time>2026-03-25T13:05:59.809Z</time></trkpt><trkpt lat="42.1986717" lon="14.620715"><ele>8.600000000000001</ele><time>2026-03-25T13:06:01.81Z</time></trkpt><trkpt lat="42.1987067" lon="14.6206"><ele>8.8</ele><time>2026-03-25T13:06:03.809Z</time></trkpt><trkpt lat="42.1987433" lon="14.6204883"><ele>9.0</ele><time>2026-03-25T13:06:05.809Z</time></trkpt><trkpt lat="42.1987767" lon="14.6203717"><ele>9.0</ele><time>2026-03-25T13:06:07.81Z</time></trkpt><trkpt lat="42.19881" lon="14.6202583"><ele>9.0</ele><time>2026-03-25T13:06:09.809Z</time></trkpt><trkpt lat="42.1988433" lon="14.6201367"><ele>9.0</ele><time>2026-03-25T13:06:11.809Z</time></trkpt><trkpt lat="42.1988783" lon="14.6200183"><ele>9.0</ele><time>2026-03-25T13:06:13.81Z</time></trkpt><trkpt lat="42.1989117" lon="14.6199033"><ele>9.0</ele><time>2026-03-25T13:06:15.809Z</time></trkpt><trkpt lat="42.198945" lon="14.619785"><ele>9.0</ele><time>2026-03-25T13:06:17.809Z</time></trkpt><trkpt lat="42.19898" lon="14.6196667"><ele>9.0</ele><time>2026-03-25T13:06:19.809Z</time></trkpt><trkpt lat="42.1990217" lon="14.6195483"><ele>9.0</ele><time>2026-03-25T13:06:21.809Z</time></trkpt><trkpt lat="42.1990583" lon="14.619425"><ele>9.0</ele><time>2026-03-25T13:06:23.81Z</time></trkpt><trkpt lat="42.1990933" lon="14.6193083"><ele>9.0</ele><time>2026-03-25T13:06:25.809Z</time></trkpt><trkpt lat="42.1991267" lon="14.61919"><ele>7.8</ele><time>2026-03-25T13:06:27.809Z</time></trkpt><trkpt lat="42.1991633" lon="14.6190683"><ele>6.6000000000000005</ele><time>2026-03-25T13:06:29.809Z</time></trkpt><trkpt lat="42.199195" lon="14.61896"><ele>5.4</ele><time>2026-03-25T13:06:31.809Z</time></trkpt><trkpt lat="42.19922" lon="14.618845"><ele>4.2</ele><time>2026-03-25T13:06:33.81Z</time></trkpt><trkpt lat="42.1992533" lon="14.6187317"><ele>3.0</ele><time>2026-03-25T13:06:35.809Z</time></trkpt><trkpt lat="42.1993033" lon="14.6186217"><ele>3.0</ele><time>2026-03-25T13:06:37.809Z</time></trkpt><trkpt lat="42.1993567" lon="14.6184967"><ele>3.0</ele><time>2026-03-25T13:06:39.809Z</time></trkpt><trkpt lat="42.1994067" lon="14.6183667"><ele>3.0</ele><time>2026-03-25T13:06:41.809Z</time></trkpt><trkpt lat="42.1994467" lon="14.618245"><ele>3.0</ele><time>2026-03-25T13:06:43.81Z</time></trkpt><trkpt lat="42.1994917" lon="14.6181167"><ele>3.0</ele><time>2026-03-25T13:06:45.809Z</time></trkpt><trkpt lat="42.1995333" lon="14.6179967"><ele>3.0</ele><time>2026-03-25T13:06:47.809Z</time></trkpt><trkpt lat="42.1995767" lon="14.6178617"><ele>3.0</ele><time>2026-03-25T13:06:49.809Z</time></trkpt><trkpt lat="42.1996217" lon="14.6177533"><ele>3.0</ele><time>2026-03-25T13:06:51.81Z</time></trkpt><trkpt lat="42.1996633" lon="14.6176333"><ele>3.0</ele><time>2026-03-25T13:06:53.809Z</time></trkpt><trkpt lat="42.1997033" lon="14.617505"><ele>3.0</ele><time>2026-03-25T13:06:55.809Z</time></trkpt><trkpt lat="42.1997467" lon="14.61738"><ele>2.6</ele><time>2026-03-25T13:06:57.81Z</time></trkpt><trkpt lat="42.1997867" lon="14.617255"><ele>2.1999999999999997</ele><time>2026-03-25T13:06:59.809Z</time></trkpt><trkpt lat="42.1998267" lon="14.61713"><ele>1.8</ele><time>2026-03-25T13:07:01.809Z</time></trkpt><trkpt lat="42.1998683" lon="14.6170133"><ele>1.4</ele><time>2026-03-25T13:07:03.809Z</time></trkpt><trkpt lat="42.1999067" lon="14.6169017"><ele>1.0</ele><time>2026-03-25T13:07:05.809Z</time></trkpt><trkpt lat="42.1999467" lon="14.616785"><ele>1.0</ele><time>2026-03-25T13:07:07.809Z</time></trkpt><trkpt lat="42.199985" lon="14.6166633"><ele>1.0</ele><time>2026-03-25T13:07:09.809Z</time></trkpt><trkpt lat="42.2000267" lon="14.6165483"><ele>1.0</ele><time>2026-03-25T13:07:11.809Z</time></trkpt><trkpt lat="42.2000683" lon="14.61644"><ele>1.0</ele><time>2026-03-25T13:07:13.809Z</time></trkpt><trkpt lat="42.2001133" lon="14.6163233"><ele>1.0</ele><time>2026-03-25T13:07:15.81Z</time></trkpt><trkpt lat="42.2001517" lon="14.6162033"><ele>1.6</ele><time>2026-03-25T13:07:17.809Z</time></trkpt><trkpt lat="42.2001867" lon="14.6160767"><ele>2.2</ele><time>2026-03-25T13:07:19.809Z</time></trkpt><trkpt lat="42.20023" lon="14.615965"><ele>2.8000000000000003</ele><time>2026-03-25T13:07:21.81Z</time></trkpt><trkpt lat="42.2002717" lon="14.6158467"><ele>3.4000000000000004</ele><time>2026-03-25T13:07:23.81Z</time></trkpt><trkpt lat="42.200315" lon="14.6157233"><ele>4.0</ele><time>2026-03-25T13:07:25.809Z</time></trkpt><trkpt lat="42.2003633" lon="14.6156067"><ele>4.0</ele><time>2026-03-25T13:07:27.81Z</time></trkpt><trkpt lat="42.2004167" lon="14.6154967"><ele>4.0</ele><time>2026-03-25T13:07:29.809Z</time></trkpt><trkpt lat="42.2004667" lon="14.6153917"><ele>4.0</ele><time>2026-03-25T13:07:31.809Z</time></trkpt><trkpt lat="42.2005183" lon="14.61529"><ele>4.0</ele><time>2026-03-25T13:07:33.809Z</time></trkpt><trkpt lat="42.2005783" lon="14.6152033"><ele>4.0</ele><time>2026-03-25T13:07:35.809Z</time></trkpt><trkpt lat="42.2006417" lon="14.6151017"><ele>3.8000000000000003</ele><time>2026-03-25T13:07:37.809Z</time></trkpt><trkpt lat="42.200685" lon="14.6149683"><ele>3.6000000000000005</ele><time>2026-03-25T13:07:39.809Z</time></trkpt><trkpt lat="42.2006917" lon="14.61482"><ele>3.4</ele><time>2026-03-25T13:07:41.809Z</time></trkpt><trkpt lat="42.2006883" lon="14.61467"><ele>3.2</ele><time>2026-03-25T13:07:43.809Z</time></trkpt><trkpt lat="42.2007033" lon="14.6145417"><ele>3.0</ele><time>2026-03-25T13:07:45.809Z</time></trkpt><trkpt lat="42.20073" lon="14.6144133"><ele>3.4</ele><time>2026-03-25T13:07:47.81Z</time></trkpt><trkpt lat="42.200775" lon="14.614295"><ele>3.8</ele><time>2026-03-25T13:07:49.809Z</time></trkpt><trkpt lat="42.2008167" lon="14.6141733"><ele>4.2</ele><time>2026-03-25T13:07:51.809Z</time></trkpt><trkpt lat="42.2008467" lon="14.6140417"><ele>4.6</ele><time>2026-03-25T13:07:53.809Z</time></trkpt><trkpt lat="42.2008717" lon="14.6139183"><ele>5.0</ele><time>2026-03-25T13:07:55.809Z</time></trkpt><trkpt lat="42.200905" lon="14.6137917"><ele>5.0</ele><time>2026-03-25T13:07:57.809Z</time></trkpt><trkpt lat="42.2009433" lon="14.6136667"><ele>5.0</ele><time>2026-03-25T13:07:59.809Z</time></trkpt><trkpt lat="42.2009817" lon="14.6135433"><ele>5.0</ele><time>2026-03-25T13:08:01.809Z</time></trkpt><trkpt lat="42.20102" lon="14.613415"><ele>5.0</ele><time>2026-03-25T13:08:03.81Z</time></trkpt><trkpt lat="42.2010583" lon="14.61329"><ele>5.0</ele><time>2026-03-25T13:08:05.81Z</time></trkpt><trkpt lat="42.201105" lon="14.6131567"><ele>5.25</ele><time>2026-03-25T13:08:07.809Z</time></trkpt><trkpt lat="42.2011483" lon="14.6130217"><ele>5.5</ele><time>2026-03-25T13:08:09.81Z</time></trkpt><trkpt lat="42.20119" lon="14.61288"><ele>5.75</ele><time>2026-03-25T13:08:11.809Z</time></trkpt><trkpt lat="42.201235" lon="14.6127333"><ele>6.0</ele><time>2026-03-25T13:08:13.809Z</time></trkpt><trkpt lat="42.201275" lon="14.61258"><ele>6.0</ele><time>2026-03-25T13:08:15.809Z</time></trkpt><trkpt lat="42.2013183" lon="14.612435"><ele>6.0</ele><time>2026-03-25T13:08:17.81Z</time></trkpt><trkpt lat="42.2013633" lon="14.6122833"><ele>6.0</ele><time>2026-03-25T13:08:19.81Z</time></trkpt><trkpt lat="42.2014117" lon="14.612135"><ele>6.0</ele><time>2026-03-25T13:08:21.809Z</time></trkpt><trkpt lat="42.201455" lon="14.611995"><ele>5.8</ele><time>2026-03-25T13:08:23.809Z</time></trkpt><trkpt lat="42.2015" lon="14.6118567"><ele>5.6</ele><time>2026-03-25T13:08:25.809Z</time></trkpt><trkpt lat="42.201545" lon="14.6117267"><ele>5.4</ele><time>2026-03-25T13:08:27.81Z</time></trkpt><trkpt lat="42.2015883" lon="14.61159"><ele>5.2</ele><time>2026-03-25T13:08:29.809Z</time></trkpt><trkpt lat="42.2016333" lon="14.6114583"><ele>5.0</ele><time>2026-03-25T13:08:31.809Z</time></trkpt><trkpt lat="42.2016783" lon="14.6113267"><ele>5.0</ele><time>2026-03-25T13:08:33.809Z</time></trkpt><trkpt lat="42.201725" lon="14.6111967"><ele>5.0</ele><time>2026-03-25T13:08:35.809Z</time></trkpt><trkpt lat="42.201765" lon="14.6110617"><ele>5.0</ele><time>2026-03-25T13:08:37.809Z</time></trkpt><trkpt lat="42.2018083" lon="14.6109133"><ele>5.0</ele><time>2026-03-25T13:08:39.809Z</time></trkpt><trkpt lat="42.2018517" lon="14.610775"><ele>5.0</ele><time>2026-03-25T13:08:41.809Z</time></trkpt><trkpt lat="42.2018983" lon="14.6106467"><ele>5.0</ele><time>2026-03-25T13:08:43.809Z</time></trkpt><trkpt lat="42.2019417" lon="14.61052"><ele>5.0</ele><time>2026-03-25T13:08:45.809Z</time></trkpt><trkpt lat="42.20196" lon="14.6103817"><ele>5.0</ele><time>2026-03-25T13:08:47.809Z</time></trkpt><trkpt lat="42.2019617" lon="14.6102417"><ele>5.0</ele><time>2026-03-25T13:08:49.809Z</time></trkpt><trkpt lat="42.2019633" lon="14.6101233"><ele>5.0</ele><time>2026-03-25T13:08:51.809Z</time></trkpt><trkpt lat="42.2019633" lon="14.6100217"><ele>4.666666666666667</ele><time>2026-03-25T13:08:53.81Z</time></trkpt><trkpt lat="42.2019633" lon="14.609915"><ele>4.333333333333334</ele><time>2026-03-25T13:08:55.809Z</time></trkpt><trkpt lat="42.2019883" lon="14.60982"><ele>4.0</ele><time>2026-03-25T13:08:57.809Z</time></trkpt><trkpt lat="42.2020283" lon="14.609715"><ele>3.666666666666667</ele><time>2026-03-25T13:08:59.809Z</time></trkpt><trkpt lat="42.2020767" lon="14.6096117"><ele>3.3333333333333335</ele><time>2026-03-25T13:09:01.809Z</time></trkpt><trkpt lat="42.20212" lon="14.609505"><ele>3.0</ele><time>2026-03-25T13:09:03.809Z</time></trkpt><trkpt lat="42.202165" lon="14.6094033"><ele>3.0</ele><time>2026-03-25T13:09:05.81Z</time></trkpt><trkpt lat="42.2022167" lon="14.6092917"><ele>3.0</ele><time>2026-03-25T13:09:07.809Z</time></trkpt><trkpt lat="42.2022667" lon="14.6091617"><ele>3.0</ele><time>2026-03-25T13:09:09.809Z</time></trkpt><trkpt lat="42.202315" lon="14.6090383"><ele>3.0</ele><time>2026-03-25T13:09:11.81Z</time></trkpt><trkpt lat="42.2023617" lon="14.6089283"><ele>3.0</ele><time>2026-03-25T13:09:13.809Z</time></trkpt><trkpt lat="42.202405" lon="14.6088233"><ele>3.2</ele><time>2026-03-25T13:09:15.809Z</time></trkpt><trkpt lat="42.2024467" lon="14.6087183"><ele>3.4</ele><time>2026-03-25T13:09:17.809Z</time></trkpt><trkpt lat="42.2024933" lon="14.6086083"><ele>3.6000000000000005</ele><time>2026-03-25T13:09:19.809Z</time></trkpt><trkpt lat="42.20254" lon="14.60849"><ele>3.8000000000000003</ele><time>2026-03-25T13:09:21.81Z</time></trkpt><trkpt lat="42.2025883" lon="14.608365"><ele>4.0</ele><time>2026-03-25T13:09:23.81Z</time></trkpt><trkpt lat="42.2026317" lon="14.6082517"><ele>4.0</ele><time>2026-03-25T13:09:25.81Z</time></trkpt><trkpt lat="42.2026833" lon="14.6081433"><ele>4.0</ele><time>2026-03-25T13:09:27.809Z</time></trkpt><trkpt lat="42.20274" lon="14.608015"><ele>4.0</ele><time>2026-03-25T13:09:29.809Z</time></trkpt><trkpt lat="42.2027917" lon="14.6078967"><ele>4.0</ele><time>2026-03-25T13:09:31.81Z</time></trkpt><trkpt lat="42.202845" lon="14.6077833"><ele>4.0</ele><time>2026-03-25T13:09:33.809Z</time></trkpt><trkpt lat="42.2028983" lon="14.6076617"><ele>3.8000000000000003</ele><time>2026-03-25T13:09:35.809Z</time></trkpt><trkpt lat="42.2029533" lon="14.6075383"><ele>3.6000000000000005</ele><time>2026-03-25T13:09:37.809Z</time></trkpt><trkpt lat="42.20301" lon="14.6074217"><ele>3.4</ele><time>2026-03-25T13:09:39.809Z</time></trkpt><trkpt lat="42.2030583" lon="14.6072983"><ele>3.2</ele><time>2026-03-25T13:09:41.809Z</time></trkpt><trkpt lat="42.2031067" lon="14.6071683"><ele>3.0</ele><time>2026-03-25T13:09:43.809Z</time></trkpt><trkpt lat="42.20316" lon="14.6070433"><ele>2.6</ele><time>2026-03-25T13:09:45.809Z</time></trkpt><trkpt lat="42.20322" lon="14.60692"><ele>2.1999999999999997</ele><time>2026-03-25T13:09:47.809Z</time></trkpt><trkpt lat="42.2032667" lon="14.6068017"><ele>1.8</ele><time>2026-03-25T13:09:49.809Z</time></trkpt><trkpt lat="42.2033133" lon="14.6066933"><ele>1.4</ele><time>2026-03-25T13:09:51.809Z</time></trkpt><trkpt lat="42.2033567" lon="14.6065867"><ele>1.0</ele><time>2026-03-25T13:09:53.809Z</time></trkpt><trkpt lat="42.203405" lon="14.6064783"><ele>1.0</ele><time>2026-03-25T13:09:55.809Z</time></trkpt><trkpt lat="42.2034483" lon="14.60637"><ele>1.0</ele><time>2026-03-25T13:09:57.809Z</time></trkpt><trkpt lat="42.203495" lon="14.60626"><ele>1.0</ele><time>2026-03-25T13:09:59.81Z</time></trkpt><trkpt lat="42.20354" lon="14.60615"><ele>1.0</ele><time>2026-03-25T13:10:01.809Z</time></trkpt><trkpt lat="42.20359" lon="14.6060533"><ele>1.0</ele><time>2026-03-25T13:10:03.809Z</time></trkpt><trkpt lat="42.2036417" lon="14.60595"><ele>0.8</ele><time>2026-03-25T13:10:05.809Z</time></trkpt><trkpt lat="42.20369" lon="14.6058417"><ele>0.6000000000000001</ele><time>2026-03-25T13:10:07.809Z</time></trkpt><trkpt lat="42.20374" lon="14.60572"><ele>0.4</ele><time>2026-03-25T13:10:09.809Z</time></trkpt><trkpt lat="42.2037933" lon="14.6055933"><ele>0.2</ele><time>2026-03-25T13:10:11.81Z</time></trkpt><trkpt lat="42.2038483" lon="14.6054767"><ele>0.0</ele><time>2026-03-25T13:10:13.809Z</time></trkpt><trkpt lat="42.2039017" lon="14.6053567"><ele>0.2</ele><time>2026-03-25T13:10:15.809Z</time></trkpt><trkpt lat="42.2039483" lon="14.6052367"><ele>0.4</ele><time>2026-03-25T13:10:17.809Z</time></trkpt><trkpt lat="42.2040017" lon="14.6051217"><ele>0.6000000000000001</ele><time>2026-03-25T13:10:19.809Z</time></trkpt><trkpt lat="42.2040533" lon="14.6050033"><ele>0.8</ele><time>2026-03-25T13:10:21.809Z</time></trkpt><trkpt lat="42.2041067" lon="14.6048783"><ele>1.0</ele><time>2026-03-25T13:10:23.809Z</time></trkpt><trkpt lat="42.20416" lon="14.60474"><ele>1.0</ele><time>2026-03-25T13:10:25.81Z</time></trkpt><trkpt lat="42.204215" lon="14.6046117"><ele>1.0</ele><time>2026-03-25T13:10:27.81Z</time></trkpt><trkpt lat="42.2042667" lon="14.6044933"><ele>1.0</ele><time>2026-03-25T13:10:29.809Z</time></trkpt><trkpt lat="42.2043233" lon="14.6043617"><ele>1.0</ele><time>2026-03-25T13:10:31.809Z</time></trkpt><trkpt lat="42.2043767" lon="14.6042383"><ele>1.0</ele><time>2026-03-25T13:10:33.81Z</time></trkpt><trkpt lat="42.2044267" lon="14.6041183"><ele>1.0</ele><time>2026-03-25T13:10:35.809Z</time></trkpt><trkpt lat="42.2044783" lon="14.6040083"><ele>1.0</ele><time>2026-03-25T13:10:37.809Z</time></trkpt><trkpt lat="42.20453" lon="14.6038967"><ele>1.0</ele><time>2026-03-25T13:10:39.809Z</time></trkpt><trkpt lat="42.2045867" lon="14.6037817"><ele>1.0</ele><time>2026-03-25T13:10:41.81Z</time></trkpt><trkpt lat="42.2046567" lon="14.6036783"><ele>1.0</ele><time>2026-03-25T13:10:43.809Z</time></trkpt><trkpt lat="42.2047283" lon="14.60357"><ele>1.0</ele><time>2026-03-25T13:10:45.809Z</time></trkpt><trkpt lat="42.2047867" lon="14.6034517"><ele>1.0</ele><time>2026-03-25T13:10:47.809Z</time></trkpt><trkpt lat="42.20483" lon="14.6033333"><ele>1.0</ele><time>2026-03-25T13:10:49.81Z</time></trkpt><trkpt lat="42.2048833" lon="14.6032183"><ele>1.0</ele><time>2026-03-25T13:10:51.809Z</time></trkpt><trkpt lat="42.2049383" lon="14.6030917"><ele>1.0</ele><time>2026-03-25T13:10:53.809Z</time></trkpt><trkpt lat="42.2049683" lon="14.6030167"><ele>1.6</ele><time>2026-03-25T13:10:54.81Z</time></trkpt><trkpt lat="42.2050317" lon="14.6028617"><ele>2.2</ele><time>2026-03-25T13:10:56.809Z</time></trkpt><trkpt lat="42.2050633" lon="14.6027867"><ele>2.8000000000000003</ele><time>2026-03-25T13:10:57.809Z</time></trkpt><trkpt lat="42.20512" lon="14.602645"><ele>3.4000000000000004</ele><time>2026-03-25T13:10:59.809Z</time></trkpt><trkpt lat="42.2051817" lon="14.6025133"><ele>4.0</ele><time>2026-03-25T13:11:01.809Z</time></trkpt><trkpt lat="42.2052367" lon="14.602395"><ele>4.75</ele><time>2026-03-25T13:11:03.809Z</time></trkpt><trkpt lat="42.2052983" lon="14.60227"><ele>5.5</ele><time>2026-03-25T13:11:05.809Z</time></trkpt><trkpt lat="42.2053517" lon="14.6021383"><ele>6.25</ele><time>2026-03-25T13:11:07.809Z</time></trkpt><trkpt lat="42.2054067" lon="14.6020067"><ele>7.0</ele><time>2026-03-25T13:11:09.809Z</time></trkpt><trkpt lat="42.2054667" lon="14.6018717"><ele>8.0</ele><time>2026-03-25T13:11:11.81Z</time></trkpt><trkpt lat="42.2055283" lon="14.6017367"><ele>9.0</ele><time>2026-03-25T13:11:13.809Z</time></trkpt><trkpt lat="42.2055983" lon="14.6015983"><ele>10.0</ele><time>2026-03-25T13:11:15.809Z</time></trkpt><trkpt lat="42.20566" lon="14.6014583"><ele>11.0</ele><time>2026-03-25T13:11:17.809Z</time></trkpt><trkpt lat="42.2057167" lon="14.6013283"><ele>10.25</ele><time>2026-03-25T13:11:19.809Z</time></trkpt><trkpt lat="42.2057767" lon="14.601185"><ele>9.5</ele><time>2026-03-25T13:11:21.81Z</time></trkpt><trkpt lat="42.2058317" lon="14.6010517"><ele>8.75</ele><time>2026-03-25T13:11:23.809Z</time></trkpt><trkpt lat="42.20589" lon="14.6009167"><ele>8.0</ele><time>2026-03-25T13:11:25.809Z</time></trkpt><trkpt lat="42.20595" lon="14.6007867"><ele>8.0</ele><time>2026-03-25T13:11:27.809Z</time></trkpt><trkpt lat="42.2060067" lon="14.6006567"><ele>8.0</ele><time>2026-03-25T13:11:29.809Z</time></trkpt><trkpt lat="42.2060683" lon="14.600525"><ele>8.0</ele><time>2026-03-25T13:11:31.809Z</time></trkpt><trkpt lat="42.2061283" lon="14.6003917"><ele>8.0</ele><time>2026-03-25T13:11:33.809Z</time></trkpt><trkpt lat="42.2061867" lon="14.60025"><ele>8.600000000000001</ele><time>2026-03-25T13:11:35.81Z</time></trkpt><trkpt lat="42.2062433" lon="14.6001183"><ele>9.200000000000001</ele><time>2026-03-25T13:11:37.809Z</time></trkpt><trkpt lat="42.2062983" lon="14.599985"><ele>9.8</ele><time>2026-03-25T13:11:39.809Z</time></trkpt><trkpt lat="42.206355" lon="14.5998583"><ele>10.4</ele><time>2026-03-25T13:11:41.809Z</time></trkpt><trkpt lat="42.20641" lon="14.599725"><ele>11.0</ele><time>2026-03-25T13:11:43.809Z</time></trkpt><trkpt lat="42.206465" lon="14.5996017"><ele>10.4</ele><time>2026-03-25T13:11:45.81Z</time></trkpt><trkpt lat="42.206515" lon="14.59948"><ele>9.8</ele><time>2026-03-25T13:11:47.809Z</time></trkpt><trkpt lat="42.2065617" lon="14.5993567"><ele>9.200000000000001</ele><time>2026-03-25T13:11:49.809Z</time></trkpt><trkpt lat="42.2066167" lon="14.5992333"><ele>8.600000000000001</ele><time>2026-03-25T13:11:51.809Z</time></trkpt><trkpt lat="42.2066733" lon="14.5991133"><ele>8.0</ele><time>2026-03-25T13:11:53.809Z</time></trkpt><trkpt lat="42.2067317" lon="14.5989967"><ele>8.0</ele><time>2026-03-25T13:11:55.809Z</time></trkpt><trkpt lat="42.2067883" lon="14.59887"><ele>8.0</ele><time>2026-03-25T13:11:57.81Z</time></trkpt><trkpt lat="42.2068433" lon="14.5987383"><ele>8.0</ele><time>2026-03-25T13:11:59.809Z</time></trkpt><trkpt lat="42.2068983" lon="14.598615"><ele>8.0</ele><time>2026-03-25T13:12:01.809Z</time></trkpt><trkpt lat="42.2069533" lon="14.598485"><ele>8.0</ele><time>2026-03-25T13:12:03.809Z</time></trkpt><trkpt lat="42.2070083" lon="14.5983583"><ele>9.4</ele><time>2026-03-25T13:12:05.809Z</time></trkpt><trkpt lat="42.207065" lon="14.5982383"><ele>10.8</ele><time>2026-03-25T13:12:07.809Z</time></trkpt><trkpt lat="42.2071167" lon="14.598115"><ele>12.2</ele><time>2026-03-25T13:12:09.809Z</time></trkpt><trkpt lat="42.2071733" lon="14.5979817"><ele>13.6</ele><time>2026-03-25T13:12:11.809Z</time></trkpt><trkpt lat="42.2072267" lon="14.5978533"><ele>15.0</ele><time>2026-03-25T13:12:13.809Z</time></trkpt><trkpt lat="42.2072867" lon="14.597715"><ele>13.4</ele><time>2026-03-25T13:12:15.81Z</time></trkpt><trkpt lat="42.207345" lon="14.5975817"><ele>11.8</ele><time>2026-03-25T13:12:17.809Z</time></trkpt><trkpt lat="42.2073983" lon="14.5974533"><ele>10.2</ele><time>2026-03-25T13:12:19.809Z</time></trkpt><trkpt lat="42.2074517" lon="14.5973317"><ele>8.6</ele><time>2026-03-25T13:12:21.81Z</time></trkpt><trkpt lat="42.2075" lon="14.5972117"><ele>7.0</ele><time>2026-03-25T13:12:23.809Z</time></trkpt><trkpt lat="42.2075517" lon="14.5970883"><ele>8.399999999999999</ele><time>2026-03-25T13:12:25.81Z</time></trkpt><trkpt lat="42.2075967" lon="14.59696"><ele>9.799999999999999</ele><time>2026-03-25T13:12:27.809Z</time></trkpt><trkpt lat="42.2076367" lon="14.59683"><ele>11.2</ele><time>2026-03-25T13:12:29.809Z</time></trkpt><trkpt lat="42.2076917" lon="14.5967"><ele>12.6</ele><time>2026-03-25T13:12:31.809Z</time></trkpt><trkpt lat="42.2077483" lon="14.596575"><ele>14.0</ele><time>2026-03-25T13:12:33.81Z</time></trkpt><trkpt lat="42.2078067" lon="14.59645"><ele>14.0</ele><time>2026-03-25T13:12:35.809Z</time></trkpt><trkpt lat="42.2078617" lon="14.596325"><ele>13.999999999999998</ele><time>2026-03-25T13:12:37.809Z</time></trkpt><trkpt lat="42.20792" lon="14.5962017"><ele>13.999999999999998</ele><time>2026-03-25T13:12:39.809Z</time></trkpt><trkpt lat="42.2079733" lon="14.5960833"><ele>14.0</ele><time>2026-03-25T13:12:41.81Z</time></trkpt><trkpt lat="42.2080283" lon="14.5959717"><ele>14.0</ele><time>2026-03-25T13:12:43.809Z</time></trkpt><trkpt lat="42.2080817" lon="14.5958483"><ele>14.0</ele><time>2026-03-25T13:12:45.809Z</time></trkpt><trkpt lat="42.2081433" lon="14.5957267"><ele>13.999999999999998</ele><time>2026-03-25T13:12:47.809Z</time></trkpt><trkpt lat="42.208205" lon="14.5956067"><ele>13.999999999999998</ele><time>2026-03-25T13:12:49.809Z</time></trkpt><trkpt lat="42.208265" lon="14.5955017"><ele>14.0</ele><time>2026-03-25T13:12:51.809Z</time></trkpt><trkpt lat="42.2083283" lon="14.5953783"><ele>14.0</ele><time>2026-03-25T13:12:53.809Z</time></trkpt><trkpt lat="42.2083917" lon="14.595255"><ele>14.0</ele><time>2026-03-25T13:12:55.809Z</time></trkpt><trkpt lat="42.2084483" lon="14.5951417"><ele>13.999999999999998</ele><time>2026-03-25T13:12:57.81Z</time></trkpt><trkpt lat="42.2085133" lon="14.5950317"><ele>13.999999999999998</ele><time>2026-03-25T13:12:59.809Z</time></trkpt><trkpt lat="42.2085783" lon="14.5949167"><ele>14.0</ele><time>2026-03-25T13:13:01.809Z</time></trkpt><trkpt lat="42.2086433" lon="14.5948133"><ele>14.0</ele><time>2026-03-25T13:13:03.809Z</time></trkpt><trkpt lat="42.2087083" lon="14.5947017"><ele>14.0</ele><time>2026-03-25T13:13:05.809Z</time></trkpt><trkpt lat="42.2087733" lon="14.5945783"><ele>13.999999999999998</ele><time>2026-03-25T13:13:07.809Z</time></trkpt><trkpt lat="42.208835" lon="14.594475"><ele>13.999999999999998</ele><time>2026-03-25T13:13:09.81Z</time></trkpt><trkpt lat="42.2089017" lon="14.5943633"><ele>14.0</ele><time>2026-03-25T13:13:11.809Z</time></trkpt><trkpt lat="42.2089683" lon="14.5942467"><ele>14.0</ele><time>2026-03-25T13:13:13.809Z</time></trkpt><trkpt lat="42.209035" lon="14.5941417"><ele>13.799999999999999</ele><time>2026-03-25T13:13:15.809Z</time></trkpt><trkpt lat="42.2091017" lon="14.5940317"><ele>13.599999999999998</ele><time>2026-03-25T13:13:17.809Z</time></trkpt><trkpt lat="42.2091717" lon="14.5939217"><ele>13.4</ele><time>2026-03-25T13:13:19.81Z</time></trkpt><trkpt lat="42.20924" lon="14.5938133"><ele>13.2</ele><time>2026-03-25T13:13:21.809Z</time></trkpt><trkpt lat="42.20931" lon="14.5936967"><ele>13.0</ele><time>2026-03-25T13:13:23.809Z</time></trkpt><trkpt lat="42.2093733" lon="14.5935833"><ele>13.0</ele><time>2026-03-25T13:13:25.809Z</time></trkpt><trkpt lat="42.2094383" lon="14.59347"><ele>13.0</ele><time>2026-03-25T13:13:27.809Z</time></trkpt><trkpt lat="42.2095" lon="14.59336"><ele>13.0</ele><time>2026-03-25T13:13:29.81Z</time></trkpt><trkpt lat="42.2095617" lon="14.5932517"><ele>13.0</ele><time>2026-03-25T13:13:31.809Z</time></trkpt><trkpt lat="42.20962" lon="14.5931467"><ele>13.0</ele><time>2026-03-25T13:13:33.809Z</time></trkpt><trkpt lat="42.20968" lon="14.59303"><ele>13.0</ele><time>2026-03-25T13:13:35.809Z</time></trkpt><trkpt lat="42.2097483" lon="14.5929083"><ele>13.0</ele><time>2026-03-25T13:13:37.809Z</time></trkpt><trkpt lat="42.2098117" lon="14.592795"><ele>13.0</ele><time>2026-03-25T13:13:39.809Z</time></trkpt><trkpt lat="42.2098767" lon="14.5926883"><ele>13.0</ele><time>2026-03-25T13:13:41.809Z</time></trkpt><trkpt lat="42.2099283" lon="14.59258"><ele>13.0</ele><time>2026-03-25T13:13:43.809Z</time></trkpt><trkpt lat="42.2099867" lon="14.5924733"><ele>13.4</ele><time>2026-03-25T13:13:45.809Z</time></trkpt><trkpt lat="42.2100483" lon="14.5923683"><ele>13.8</ele><time>2026-03-25T13:13:47.81Z</time></trkpt><trkpt lat="42.210105" lon="14.5922583"><ele>14.2</ele><time>2026-03-25T13:13:49.809Z</time></trkpt><trkpt lat="42.2101533" lon="14.59214"><ele>14.6</ele><time>2026-03-25T13:13:51.809Z</time></trkpt><trkpt lat="42.2102017" lon="14.5920217"><ele>15.0</ele><time>2026-03-25T13:13:53.809Z</time></trkpt><trkpt lat="42.21025" lon="14.59191"><ele>15.0</ele><time>2026-03-25T13:13:55.809Z</time></trkpt><trkpt lat="42.2103017" lon="14.591805"><ele>15.0</ele><time>2026-03-25T13:13:57.809Z</time></trkpt><trkpt lat="42.2103633" lon="14.5916933"><ele>15.0</ele><time>2026-03-25T13:13:59.81Z</time></trkpt><trkpt lat="42.210415" lon="14.59158"><ele>15.0</ele><time>2026-03-25T13:14:01.81Z</time></trkpt><trkpt lat="42.2104617" lon="14.591475"><ele>15.0</ele><time>2026-03-25T13:14:03.809Z</time></trkpt><trkpt lat="42.2105033" lon="14.59137"><ele>15.0</ele><time>2026-03-25T13:14:05.809Z</time></trkpt><trkpt lat="42.2105483" lon="14.5912517"><ele>15.0</ele><time>2026-03-25T13:14:07.81Z</time></trkpt><trkpt lat="42.210595" lon="14.5911333"><ele>15.0</ele><time>2026-03-25T13:14:09.809Z</time></trkpt><trkpt lat="42.21064" lon="14.5910117"><ele>15.0</ele><time>2026-03-25T13:14:11.809Z</time></trkpt><trkpt lat="42.210685" lon="14.5908917"><ele>15.0</ele><time>2026-03-25T13:14:13.809Z</time></trkpt><trkpt lat="42.21073" lon="14.5907783"><ele>14.8</ele><time>2026-03-25T13:14:15.809Z</time></trkpt><trkpt lat="42.210775" lon="14.5906633"><ele>14.6</ele><time>2026-03-25T13:14:17.809Z</time></trkpt><trkpt lat="42.2108283" lon="14.59054"><ele>14.399999999999999</ele><time>2026-03-25T13:14:19.809Z</time></trkpt><trkpt lat="42.21088" lon="14.590425"><ele>14.2</ele><time>2026-03-25T13:14:21.809Z</time></trkpt><trkpt lat="42.2109267" lon="14.5903017"><ele>14.0</ele><time>2026-03-25T13:14:23.809Z</time></trkpt><trkpt lat="42.2109717" lon="14.590185"><ele>14.0</ele><time>2026-03-25T13:14:25.809Z</time></trkpt><trkpt lat="42.2110133" lon="14.59007"><ele>13.999999999999998</ele><time>2026-03-25T13:14:27.809Z</time></trkpt><trkpt lat="42.211065" lon="14.5899617"><ele>13.999999999999998</ele><time>2026-03-25T13:14:29.809Z</time></trkpt><trkpt lat="42.21111" lon="14.589845"><ele>14.0</ele><time>2026-03-25T13:14:31.809Z</time></trkpt><trkpt lat="42.21115" lon="14.5897283"><ele>14.0</ele><time>2026-03-25T13:14:33.809Z</time></trkpt><trkpt lat="42.2111967" lon="14.5896067"><ele>16.0</ele><time>2026-03-25T13:14:35.809Z</time></trkpt><trkpt lat="42.2112483" lon="14.589495"><ele>18.0</ele><time>2026-03-25T13:14:37.809Z</time></trkpt><trkpt lat="42.2113" lon="14.5893783"><ele>20.0</ele><time>2026-03-25T13:14:39.809Z</time></trkpt><trkpt lat="42.21134" lon="14.589255"><ele>22.0</ele><time>2026-03-25T13:14:41.81Z</time></trkpt><trkpt lat="42.211385" lon="14.589135"><ele>24.0</ele><time>2026-03-25T13:14:43.809Z</time></trkpt><trkpt lat="42.211435" lon="14.58902"><ele>24.0</ele><time>2026-03-25T13:14:45.809Z</time></trkpt><trkpt lat="42.2114883" lon="14.58891"><ele>24.0</ele><time>2026-03-25T13:14:47.809Z</time></trkpt><trkpt lat="42.211545" lon="14.588805"><ele>24.0</ele><time>2026-03-25T13:14:49.809Z</time></trkpt><trkpt lat="42.2115967" lon="14.5886917"><ele>24.0</ele><time>2026-03-25T13:14:51.81Z</time></trkpt><trkpt lat="42.21165" lon="14.588575"><ele>24.0</ele><time>2026-03-25T13:14:53.809Z</time></trkpt><trkpt lat="42.2117083" lon="14.58846"><ele>22.2</ele><time>2026-03-25T13:14:55.809Z</time></trkpt><trkpt lat="42.2117617" lon="14.5883483"><ele>20.4</ele><time>2026-03-25T13:14:57.809Z</time></trkpt><trkpt lat="42.211815" lon="14.58824"><ele>18.6</ele><time>2026-03-25T13:14:59.81Z</time></trkpt><trkpt lat="42.2118617" lon="14.58814"><ele>16.8</ele><time>2026-03-25T13:15:01.809Z</time></trkpt><trkpt lat="42.2119183" lon="14.5880233"><ele>15.0</ele><time>2026-03-25T13:15:03.81Z</time></trkpt><trkpt lat="42.21197" lon="14.587915"><ele>16.0</ele><time>2026-03-25T13:15:05.809Z</time></trkpt><trkpt lat="42.2120233" lon="14.5877983"><ele>17.0</ele><time>2026-03-25T13:15:07.81Z</time></trkpt><trkpt lat="42.2120783" lon="14.5876817"><ele>18.0</ele><time>2026-03-25T13:15:09.81Z</time></trkpt><trkpt lat="42.2121317" lon="14.587565"><ele>19.0</ele><time>2026-03-25T13:15:11.809Z</time></trkpt><trkpt lat="42.2121883" lon="14.5874467"><ele>20.0</ele><time>2026-03-25T13:15:13.809Z</time></trkpt><trkpt lat="42.21224" lon="14.58733"><ele>20.0</ele><time>2026-03-25T13:15:15.809Z</time></trkpt><trkpt lat="42.2122933" lon="14.5872183"><ele>20.0</ele><time>2026-03-25T13:15:17.809Z</time></trkpt><trkpt lat="42.21235" lon="14.58711"><ele>20.0</ele><time>2026-03-25T13:15:19.81Z</time></trkpt><trkpt lat="42.212405" lon="14.5869967"><ele>20.0</ele><time>2026-03-25T13:15:21.81Z</time></trkpt><trkpt lat="42.2124617" lon="14.58688"><ele>20.0</ele><time>2026-03-25T13:15:23.809Z</time></trkpt><trkpt lat="42.212515" lon="14.586765"><ele>17.8</ele><time>2026-03-25T13:15:25.809Z</time></trkpt><trkpt lat="42.2125733" lon="14.5866533"><ele>15.6</ele><time>2026-03-25T13:15:27.809Z</time></trkpt><trkpt lat="42.21263" lon="14.58654"><ele>13.4</ele><time>2026-03-25T13:15:29.809Z</time></trkpt><trkpt lat="42.2126867" lon="14.5864267"><ele>11.2</ele><time>2026-03-25T13:15:31.809Z</time></trkpt><trkpt lat="42.2127417" lon="14.5863083"><ele>9.0</ele><time>2026-03-25T13:15:33.809Z</time></trkpt><trkpt lat="42.2127983" lon="14.586195"><ele>10.4</ele><time>2026-03-25T13:15:35.809Z</time></trkpt><trkpt lat="42.2128517" lon="14.586085"><ele>11.8</ele><time>2026-03-25T13:15:37.81Z</time></trkpt><trkpt lat="42.2129067" lon="14.5859733"><ele>13.200000000000001</ele><time>2026-03-25T13:15:39.809Z</time></trkpt><trkpt lat="42.2129633" lon="14.585865"><ele>14.600000000000001</ele><time>2026-03-25T13:15:41.809Z</time></trkpt><trkpt lat="42.2130183" lon="14.5857533"><ele>16.0</ele><time>2026-03-25T13:15:43.809Z</time></trkpt><trkpt lat="42.2130717" lon="14.585635"><ele>16.0</ele><time>2026-03-25T13:15:45.809Z</time></trkpt><trkpt lat="42.2131217" lon="14.5855183"><ele>16.0</ele><time>2026-03-25T13:15:47.809Z</time></trkpt><trkpt lat="42.2131783" lon="14.5854083"><ele>16.0</ele><time>2026-03-25T13:15:49.809Z</time></trkpt><trkpt lat="42.2132367" lon="14.5852983"><ele>16.0</ele><time>2026-03-25T13:15:51.81Z</time></trkpt><trkpt lat="42.2133" lon="14.5851867"><ele>16.0</ele><time>2026-03-25T13:15:53.809Z</time></trkpt><trkpt lat="42.2133583" lon="14.5850667"><ele>15.200000000000001</ele><time>2026-03-25T13:15:55.81Z</time></trkpt><trkpt lat="42.2134217" lon="14.58496"><ele>14.400000000000002</ele><time>2026-03-25T13:15:57.81Z</time></trkpt><trkpt lat="42.213485" lon="14.5848467"><ele>13.6</ele><time>2026-03-25T13:15:59.809Z</time></trkpt><trkpt lat="42.2135483" lon="14.584735"><ele>12.8</ele><time>2026-03-25T13:16:01.809Z</time></trkpt><trkpt lat="42.21361" lon="14.5846283"><ele>12.0</ele><time>2026-03-25T13:16:03.809Z</time></trkpt><trkpt lat="42.213675" lon="14.58453"><ele>14.0</ele><time>2026-03-25T13:16:05.81Z</time></trkpt><trkpt lat="42.2137433" lon="14.5844183"><ele>16.0</ele><time>2026-03-25T13:16:07.809Z</time></trkpt><trkpt lat="42.2138017" lon="14.5843167"><ele>18.0</ele><time>2026-03-25T13:16:09.809Z</time></trkpt><trkpt lat="42.21386" lon="14.5842267"><ele>20.0</ele><time>2026-03-25T13:16:11.809Z</time></trkpt><trkpt lat="42.2139217" lon="14.584135"><ele>22.0</ele><time>2026-03-25T13:16:13.809Z</time></trkpt><trkpt lat="42.2139833" lon="14.5840383"><ele>20.6</ele><time>2026-03-25T13:16:15.81Z</time></trkpt><trkpt lat="42.21405" lon="14.583935"><ele>19.200000000000003</ele><time>2026-03-25T13:16:17.81Z</time></trkpt><trkpt lat="42.2141133" lon="14.5838183"><ele>17.8</ele><time>2026-03-25T13:16:19.809Z</time></trkpt><trkpt lat="42.2141767" lon="14.5837167"><ele>16.4</ele><time>2026-03-25T13:16:21.809Z</time></trkpt><trkpt lat="42.214235" lon="14.5836183"><ele>15.0</ele><time>2026-03-25T13:16:23.809Z</time></trkpt><trkpt lat="42.2143017" lon="14.5835183"><ele>15.0</ele><time>2026-03-25T13:16:25.809Z</time></trkpt><trkpt lat="42.214365" lon="14.5834267"><ele>15.0</ele><time>2026-03-25T13:16:27.809Z</time></trkpt><trkpt lat="42.21442" lon="14.5833217"><ele>15.0</ele><time>2026-03-25T13:16:29.809Z</time></trkpt><trkpt lat="42.2144817" lon="14.5832267"><ele>15.0</ele><time>2026-03-25T13:16:31.809Z</time></trkpt><trkpt lat="42.2145367" lon="14.5831333"><ele>15.0</ele><time>2026-03-25T13:16:33.809Z</time></trkpt><trkpt lat="42.21459" lon="14.5830433"><ele>15.0</ele><time>2026-03-25T13:16:35.81Z</time></trkpt><trkpt lat="42.2146433" lon="14.5829533"><ele>15.0</ele><time>2026-03-25T13:16:37.809Z</time></trkpt><trkpt lat="42.2146883" lon="14.5828817"><ele>15.0</ele><time>2026-03-25T13:16:39.809Z</time></trkpt><trkpt lat="42.2147317" lon="14.5828133"><ele>15.0</ele><time>2026-03-25T13:16:41.809Z</time></trkpt><trkpt lat="42.2147733" lon="14.5827417"><ele>15.0</ele><time>2026-03-25T13:16:43.809Z</time></trkpt><trkpt lat="42.2148133" lon="14.582665"><ele>15.0</ele><time>2026-03-25T13:16:45.809Z</time></trkpt><trkpt lat="42.214855" lon="14.58259"><ele>15.0</ele><time>2026-03-25T13:16:47.809Z</time></trkpt><trkpt lat="42.2148967" lon="14.5824917"><ele>14.833333333333334</ele><time>2026-03-25T13:16:49.809Z</time></trkpt><trkpt lat="42.2149367" lon="14.5823783"><ele>14.666666666666668</ele><time>2026-03-25T13:16:51.809Z</time></trkpt><trkpt lat="42.214985" lon="14.5823067"><ele>14.5</ele><time>2026-03-25T13:16:53.809Z</time></trkpt><trkpt lat="42.21504" lon="14.5822483"><ele>14.333333333333334</ele><time>2026-03-25T13:16:55.809Z</time></trkpt><trkpt lat="42.2150867" lon="14.5821717"><ele>14.166666666666668</ele><time>2026-03-25T13:16:57.809Z</time></trkpt><trkpt lat="42.215125" lon="14.5820833"><ele>14.0</ele><time>2026-03-25T13:16:59.809Z</time></trkpt><trkpt lat="42.2151583" lon="14.58199"><ele>14.000000000000002</ele><time>2026-03-25T13:17:01.809Z</time></trkpt><trkpt lat="42.2151917" lon="14.5818983"><ele>14.0</ele><time>2026-03-25T13:17:03.809Z</time></trkpt><trkpt lat="42.2152367" lon="14.5818167"><ele>14.0</ele><time>2026-03-25T13:17:05.809Z</time></trkpt><trkpt lat="42.2152833" lon="14.5817283"><ele>14.0</ele><time>2026-03-25T13:17:07.809Z</time></trkpt><trkpt lat="42.2153317" lon="14.5816317"><ele>14.000000000000002</ele><time>2026-03-25T13:17:09.809Z</time></trkpt><trkpt lat="42.2153833" lon="14.5815317"><ele>14.0</ele><time>2026-03-25T13:17:11.809Z</time></trkpt><trkpt lat="42.21543" lon="14.5814367"><ele>14.000000000000002</ele><time>2026-03-25T13:17:13.809Z</time></trkpt><trkpt lat="42.2154733" lon="14.5813417"><ele>14.0</ele><time>2026-03-25T13:17:15.81Z</time></trkpt><trkpt lat="42.2155217" lon="14.5812467"><ele>14.0</ele><time>2026-03-25T13:17:17.809Z</time></trkpt><trkpt lat="42.2155683" lon="14.5811317"><ele>14.0</ele><time>2026-03-25T13:17:19.809Z</time></trkpt><trkpt lat="42.2156117" lon="14.5810183"><ele>14.000000000000002</ele><time>2026-03-25T13:17:21.809Z</time></trkpt><trkpt lat="42.2156517" lon="14.5809317"><ele>14.0</ele><time>2026-03-25T13:17:23.809Z</time></trkpt><trkpt lat="42.2156933" lon="14.5808483"><ele>14.0</ele><time>2026-03-25T13:17:25.81Z</time></trkpt><trkpt lat="42.215725" lon="14.5807583"><ele>14.0</ele><time>2026-03-25T13:17:27.809Z</time></trkpt><trkpt lat="42.2157567" lon="14.5806667"><ele>14.0</ele><time>2026-03-25T13:17:29.809Z</time></trkpt><trkpt lat="42.215795" lon="14.5805917"><ele>14.0</ele><time>2026-03-25T13:17:31.809Z</time></trkpt><trkpt lat="42.2158383" lon="14.580515"><ele>14.0</ele><time>2026-03-25T13:17:33.809Z</time></trkpt><trkpt lat="42.2158767" lon="14.5804317"><ele>14.0</ele><time>2026-03-25T13:17:35.809Z</time></trkpt><trkpt lat="42.2159167" lon="14.5803467"><ele>14.0</ele><time>2026-03-25T13:17:37.81Z</time></trkpt><trkpt lat="42.2159583" lon="14.580255"><ele>14.000000000000002</ele><time>2026-03-25T13:17:39.809Z</time></trkpt><trkpt lat="42.2159967" lon="14.5801617"><ele>14.0</ele><time>2026-03-25T13:17:41.809Z</time></trkpt><trkpt lat="42.2160367" lon="14.5800733"><ele>14.0</ele><time>2026-03-25T13:17:43.809Z</time></trkpt><trkpt lat="42.2160767" lon="14.57998"><ele>14.0</ele><time>2026-03-25T13:17:45.809Z</time></trkpt><trkpt lat="42.2161167" lon="14.5798883"><ele>14.000000000000002</ele><time>2026-03-25T13:17:47.81Z</time></trkpt><trkpt lat="42.2161583" lon="14.5797883"><ele>14.0</ele><time>2026-03-25T13:17:49.81Z</time></trkpt><trkpt lat="42.2161967" lon="14.5796883"><ele>14.000000000000002</ele><time>2026-03-25T13:17:51.81Z</time></trkpt><trkpt lat="42.2162367" lon="14.5795867"><ele>14.0</ele><time>2026-03-25T13:17:53.809Z</time></trkpt><trkpt lat="42.2162817" lon="14.57949"><ele>14.0</ele><time>2026-03-25T13:17:55.809Z</time></trkpt><trkpt lat="42.2163233" lon="14.57939"><ele>14.0</ele><time>2026-03-25T13:17:57.809Z</time></trkpt><trkpt lat="42.2163617" lon="14.57929"><ele>14.000000000000002</ele><time>2026-03-25T13:17:59.809Z</time></trkpt><trkpt lat="42.2164" lon="14.5791967"><ele>14.0</ele><time>2026-03-25T13:18:01.809Z</time></trkpt><trkpt lat="42.21644" lon="14.5790983"><ele>13.833333333333334</ele><time>2026-03-25T13:18:03.809Z</time></trkpt><trkpt lat="42.2164833" lon="14.5790017"><ele>13.666666666666668</ele><time>2026-03-25T13:18:05.809Z</time></trkpt><trkpt lat="42.2165283" lon="14.578905"><ele>13.5</ele><time>2026-03-25T13:18:07.809Z</time></trkpt><trkpt lat="42.216575" lon="14.5787967"><ele>13.333333333333332</ele><time>2026-03-25T13:18:09.81Z</time></trkpt><trkpt lat="42.216625" lon="14.5786983"><ele>13.166666666666666</ele><time>2026-03-25T13:18:11.809Z</time></trkpt><trkpt lat="42.2166733" lon="14.5786083"><ele>13.0</ele><time>2026-03-25T13:18:13.809Z</time></trkpt><trkpt lat="42.2167233" lon="14.5785067"><ele>12.999999999999998</ele><time>2026-03-25T13:18:15.81Z</time></trkpt><trkpt lat="42.216765" lon="14.5784033"><ele>13.0</ele><time>2026-03-25T13:18:17.809Z</time></trkpt><trkpt lat="42.2168117" lon="14.5783083"><ele>13.0</ele><time>2026-03-25T13:18:19.809Z</time></trkpt><trkpt lat="42.21685" lon="14.5782"><ele>13.0</ele><time>2026-03-25T13:18:21.809Z</time></trkpt><trkpt lat="42.21689" lon="14.5781183"><ele>12.999999999999998</ele><time>2026-03-25T13:18:23.81Z</time></trkpt><trkpt lat="42.216925" lon="14.57804"><ele>13.0</ele><time>2026-03-25T13:18:25.809Z</time></trkpt><trkpt lat="42.2169617" lon="14.5779517"><ele>12.999999999999998</ele><time>2026-03-25T13:18:27.809Z</time></trkpt><trkpt lat="42.2169983" lon="14.5778617"><ele>13.0</ele><time>2026-03-25T13:18:29.809Z</time></trkpt><trkpt lat="42.2170317" lon="14.57776"><ele>13.0</ele><time>2026-03-25T13:18:31.809Z</time></trkpt><trkpt lat="42.21708" lon="14.5776617"><ele>13.0</ele><time>2026-03-25T13:18:33.809Z</time></trkpt><trkpt lat="42.2171383" lon="14.577565"><ele>12.999999999999998</ele><time>2026-03-25T13:18:35.809Z</time></trkpt><trkpt lat="42.217195" lon="14.5774533"><ele>13.0</ele><time>2026-03-25T13:18:37.81Z</time></trkpt><trkpt lat="42.2172567" lon="14.5773267"><ele>12.833333333333332</ele><time>2026-03-25T13:18:39.809Z</time></trkpt><trkpt lat="42.2173" lon="14.5772117"><ele>12.666666666666666</ele><time>2026-03-25T13:18:41.809Z</time></trkpt><trkpt lat="42.2173467" lon="14.5771"><ele>12.5</ele><time>2026-03-25T13:18:43.809Z</time></trkpt><trkpt lat="42.2173883" lon="14.5770033"><ele>12.333333333333332</ele><time>2026-03-25T13:18:45.809Z</time></trkpt><trkpt lat="42.21743" lon="14.5769083"><ele>12.166666666666666</ele><time>2026-03-25T13:18:47.809Z</time></trkpt><trkpt lat="42.2174733" lon="14.5768167"><ele>12.0</ele><time>2026-03-25T13:18:49.809Z</time></trkpt><trkpt lat="42.2175233" lon="14.5767483"><ele>11.999999999999998</ele><time>2026-03-25T13:18:51.809Z</time></trkpt><trkpt lat="42.2175667" lon="14.57666"><ele>12.0</ele><time>2026-03-25T13:18:53.809Z</time></trkpt><trkpt lat="42.217605" lon="14.5765783"><ele>12.0</ele><time>2026-03-25T13:18:55.809Z</time></trkpt><trkpt lat="42.2176333" lon="14.5764917"><ele>12.0</ele><time>2026-03-25T13:18:57.809Z</time></trkpt><trkpt lat="42.217675" lon="14.576405"><ele>12.0</ele><time>2026-03-25T13:18:59.809Z</time></trkpt><trkpt lat="42.2177133" lon="14.57632"><ele>11.999999999999998</ele><time>2026-03-25T13:19:01.809Z</time></trkpt><trkpt lat="42.2177517" lon="14.5762267"><ele>12.0</ele><time>2026-03-25T13:19:03.809Z</time></trkpt><trkpt lat="42.217795" lon="14.57614"><ele>12.57142857142857</ele><time>2026-03-25T13:19:05.809Z</time></trkpt><trkpt lat="42.2178383" lon="14.5760483"><ele>13.142857142857142</ele><time>2026-03-25T13:19:07.809Z</time></trkpt><trkpt lat="42.21788" lon="14.5759667"><ele>13.714285714285714</ele><time>2026-03-25T13:19:09.809Z</time></trkpt><trkpt lat="42.217915" lon="14.575895"><ele>14.285714285714285</ele><time>2026-03-25T13:19:11.809Z</time></trkpt><trkpt lat="42.217955" lon="14.5758217"><ele>14.857142857142856</ele><time>2026-03-25T13:19:13.809Z</time></trkpt><trkpt lat="42.2179983" lon="14.5757417"><ele>15.428571428571427</ele><time>2026-03-25T13:19:15.809Z</time></trkpt><trkpt lat="42.21804" lon="14.5756483"><ele>16.0</ele><time>2026-03-25T13:19:17.809Z</time></trkpt><trkpt lat="42.2180867" lon="14.5755533"><ele>16.0</ele><time>2026-03-25T13:19:19.809Z</time></trkpt><trkpt lat="42.218125" lon="14.5754783"><ele>15.999999999999998</ele><time>2026-03-25T13:19:21.809Z</time></trkpt><trkpt lat="42.2181583" lon="14.5753967"><ele>16.0</ele><time>2026-03-25T13:19:23.81Z</time></trkpt><trkpt lat="42.2181933" lon="14.575315"><ele>16.0</ele><time>2026-03-25T13:19:25.809Z</time></trkpt><trkpt lat="42.218225" lon="14.5752383"><ele>15.999999999999998</ele><time>2026-03-25T13:19:27.809Z</time></trkpt><trkpt lat="42.2182683" lon="14.5751317"><ele>16.0</ele><time>2026-03-25T13:19:30.81Z</time></trkpt><trkpt lat="42.2182633" lon="14.5750283"><ele>16.0</ele><time>2026-03-25T13:19:33.81Z</time></trkpt><trkpt lat="42.218255" lon="14.57492"><ele>15.999999999999998</ele><time>2026-03-25T13:19:36.809Z</time></trkpt><trkpt lat="42.218255" lon="14.5748233"><ele>16.0</ele><time>2026-03-25T13:19:39.809Z</time></trkpt><trkpt lat="42.2182767" lon="14.574735"><ele>16.0</ele><time>2026-03-25T13:19:42.809Z</time></trkpt><trkpt lat="42.2183167" lon="14.5746433"><ele>16.0</ele><time>2026-03-25T13:19:45.809Z</time></trkpt><trkpt lat="42.2183633" lon="14.5745633"><ele>15.999999999999998</ele><time>2026-03-25T13:19:48.809Z</time></trkpt><trkpt lat="42.21841" lon="14.5744783"><ele>16.0</ele><time>2026-03-25T13:19:51.809Z</time></trkpt><trkpt lat="42.2184533" lon="14.5743883"><ele>16.0</ele><time>2026-03-25T13:19:54.809Z</time></trkpt><trkpt lat="42.2184883" lon="14.5743083"><ele>15.999999999999998</ele><time>2026-03-25T13:19:57.809Z</time></trkpt><trkpt lat="42.2185367" lon="14.57423"><ele>16.0</ele><time>2026-03-25T13:20:00.809Z</time></trkpt><trkpt lat="42.2185867" lon="14.57413"><ele>16.0</ele><time>2026-03-25T13:20:03.809Z</time></trkpt><trkpt lat="42.2186267" lon="14.57406"><ele>15.999999999999998</ele><time>2026-03-25T13:20:05.809Z</time></trkpt><trkpt lat="42.21867" lon="14.5739883"><ele>16.0</ele><time>2026-03-25T13:20:07.809Z</time></trkpt><trkpt lat="42.2187067" lon="14.57391"><ele>16.0</ele><time>2026-03-25T13:20:09.81Z</time></trkpt><trkpt lat="42.2187367" lon="14.5738233"><ele>16.0</ele><time>2026-03-25T13:20:12.809Z</time></trkpt><trkpt lat="42.218765" lon="14.5737367"><ele>15.999999999999998</ele><time>2026-03-25T13:20:15.809Z</time></trkpt><trkpt lat="42.2187833" lon="14.57365"><ele>16.0</ele><time>2026-03-25T13:20:19.809Z</time></trkpt><trkpt lat="42.2188217" lon="14.5735733"><ele>16.0</ele><time>2026-03-25T13:20:22.81Z</time></trkpt><trkpt lat="42.2188683" lon="14.5734783"><ele>15.999999999999998</ele><time>2026-03-25T13:20:25.809Z</time></trkpt><trkpt lat="42.2189133" lon="14.5734"><ele>16.0</ele><time>2026-03-25T13:20:28.809Z</time></trkpt><trkpt lat="42.2189517" lon="14.5733217"><ele>16.0</ele><time>2026-03-25T13:20:31.809Z</time></trkpt><trkpt lat="42.2189917" lon="14.573235"><ele>15.571428571428571</ele><time>2026-03-25T13:20:34.809Z</time></trkpt><trkpt lat="42.2190333" lon="14.573145"><ele>15.142857142857142</ele><time>2026-03-25T13:20:37.809Z</time></trkpt><trkpt lat="42.2190733" lon="14.5730467"><ele>14.714285714285714</ele><time>2026-03-25T13:20:40.81Z</time></trkpt><trkpt lat="42.2191217" lon="14.57295"><ele>14.285714285714285</ele><time>2026-03-25T13:20:43.809Z</time></trkpt><trkpt lat="42.21916" lon="14.57288"><ele>13.857142857142858</ele><time>2026-03-25T13:20:45.809Z</time></trkpt><trkpt lat="42.2192033" lon="14.5728067"><ele>13.428571428571427</ele><time>2026-03-25T13:20:47.809Z</time></trkpt><trkpt lat="42.2192367" lon="14.5727333"><ele>13.0</ele><time>2026-03-25T13:20:49.809Z</time></trkpt><trkpt lat="42.219265" lon="14.5726267"><ele>13.0</ele><time>2026-03-25T13:20:52.809Z</time></trkpt><trkpt lat="42.2192683" lon="14.5725333"><ele>13.0</ele><time>2026-03-25T13:20:55.809Z</time></trkpt><trkpt lat="42.2192917" lon="14.5724483"><ele>13.0</ele><time>2026-03-25T13:20:59.809Z</time></trkpt><trkpt lat="42.21936" lon="14.572435"><ele>13.0</ele><time>2026-03-25T13:21:03.809Z</time></trkpt><trkpt lat="42.2194283" lon="14.572385"><ele>13.0</ele><time>2026-03-25T13:21:07.809Z</time></trkpt><trkpt lat="42.2194783" lon="14.572305"><ele>13.0</ele><time>2026-03-25T13:21:10.809Z</time></trkpt><trkpt lat="42.2195133" lon="14.57223"><ele>13.0</ele><time>2026-03-25T13:21:13.809Z</time></trkpt><trkpt lat="42.2195833" lon="14.572215"><ele>13.0</ele><time>2026-03-25T13:21:19.81Z</time></trkpt><trkpt lat="42.2196583" lon="14.5722433"><ele>13.0</ele><time>2026-03-25T13:21:26.809Z</time></trkpt><trkpt lat="42.2196983" lon="14.5721667"><ele>13.0</ele><time>2026-03-25T13:21:30.809Z</time></trkpt><trkpt lat="42.21975" lon="14.5720767"><ele>13.0</ele><time>2026-03-25T13:21:45.81Z</time></trkpt><trkpt lat="42.21979" lon="14.57199"><ele>13.0</ele><time>2026-03-25T13:21:48.809Z</time></trkpt><trkpt lat="42.2198383" lon="14.5719217"><ele>13.0</ele><time>2026-03-25T13:21:51.81Z</time></trkpt><trkpt lat="42.2198767" lon="14.57185"><ele>13.0</ele><time>2026-03-25T13:21:54.809Z</time></trkpt><trkpt lat="42.219905" lon="14.5717633"><ele>13.0</ele><time>2026-03-25T13:21:58.809Z</time></trkpt><trkpt lat="42.2198567" lon="14.5718317"><ele>13.0</ele><time>2026-03-25T13:22:11.809Z</time></trkpt><trkpt lat="42.219815" lon="14.5718983"><ele>13.0</ele><time>2026-03-25T13:22:13.809Z</time></trkpt><trkpt lat="42.219775" lon="14.571975"><ele>13.0</ele><time>2026-03-25T13:22:15.809Z</time></trkpt><trkpt lat="42.2197433" lon="14.57206"><ele>13.0</ele><time>2026-03-25T13:22:17.809Z</time></trkpt><trkpt lat="42.219705" lon="14.572145"><ele>13.0</ele><time>2026-03-25T13:22:19.809Z</time></trkpt><trkpt lat="42.2196667" lon="14.5722167"><ele>13.0</ele><time>2026-03-25T13:22:21.809Z</time></trkpt><trkpt lat="42.2196233" lon="14.5723"><ele>12.999999999999998</ele><time>2026-03-25T13:22:23.809Z</time></trkpt><trkpt lat="42.2195833" lon="14.5723917"><ele>13.0</ele><time>2026-03-25T13:22:25.809Z</time></trkpt><trkpt lat="42.2195417" lon="14.57248"><ele>13.0</ele><time>2026-03-25T13:22:27.809Z</time></trkpt><trkpt lat="42.2194983" lon="14.5725717"><ele>13.0</ele><time>2026-03-25T13:22:29.809Z</time></trkpt><trkpt lat="42.2194517" lon="14.5726633"><ele>12.999999999999998</ele><time>2026-03-25T13:22:31.809Z</time></trkpt><trkpt lat="42.21941" lon="14.5727517"><ele>13.0</ele><time>2026-03-25T13:22:33.809Z</time></trkpt><trkpt lat="42.2193717" lon="14.57284"><ele>12.166666666666666</ele><time>2026-03-25T13:22:35.809Z</time></trkpt><trkpt lat="42.2193283" lon="14.572925"><ele>11.333333333333332</ele><time>2026-03-25T13:22:37.809Z</time></trkpt><trkpt lat="42.2192917" lon="14.5730133"><ele>10.5</ele><time>2026-03-25T13:22:39.809Z</time></trkpt><trkpt lat="42.2192533" lon="14.5731017"><ele>9.666666666666666</ele><time>2026-03-25T13:22:41.809Z</time></trkpt><trkpt lat="42.2192117" lon="14.5731917"><ele>8.833333333333332</ele><time>2026-03-25T13:22:43.81Z</time></trkpt><trkpt lat="42.2191667" lon="14.5732833"><ele>8.0</ele><time>2026-03-25T13:22:45.809Z</time></trkpt><trkpt lat="42.2191233" lon="14.5733767"><ele>7.999999999999999</ele><time>2026-03-25T13:22:47.809Z</time></trkpt><trkpt lat="42.21908" lon="14.5734683"><ele>8.0</ele><time>2026-03-25T13:22:49.809Z</time></trkpt><trkpt lat="42.2190333" lon="14.5735617"><ele>8.0</ele><time>2026-03-25T13:22:51.81Z</time></trkpt><trkpt lat="42.21898" lon="14.57365"><ele>8.0</ele><time>2026-03-25T13:22:53.809Z</time></trkpt><trkpt lat="42.218925" lon="14.5737317"><ele>7.999999999999999</ele><time>2026-03-25T13:22:55.809Z</time></trkpt><trkpt lat="42.2188833" lon="14.5737983"><ele>8.0</ele><time>2026-03-25T13:22:57.809Z</time></trkpt><trkpt lat="42.2188417" lon="14.5738833"><ele>9.333333333333332</ele><time>2026-03-25T13:23:00.809Z</time></trkpt><trkpt lat="42.2187917" lon="14.5739617"><ele>10.666666666666666</ele><time>2026-03-25T13:23:03.809Z</time></trkpt><trkpt lat="42.2187617" lon="14.5740417"><ele>12.0</ele><time>2026-03-25T13:23:06.81Z</time></trkpt><trkpt lat="42.2188233" lon="14.5739833"><ele>13.333333333333332</ele><time>2026-03-25T13:23:42.81Z</time></trkpt><trkpt lat="42.2188683" lon="14.5738983"><ele>14.666666666666666</ele><time>2026-03-25T13:23:45.809Z</time></trkpt><trkpt lat="42.218915" lon="14.57383"><ele>16.0</ele><time>2026-03-25T13:23:48.809Z</time></trkpt><trkpt lat="42.2189833" lon="14.5737367"><ele>14.666666666666666</ele><time>2026-03-25T13:23:51.81Z</time></trkpt><trkpt lat="42.2190333" lon="14.5736433"><ele>13.333333333333332</ele><time>2026-03-25T13:23:54.809Z</time></trkpt><trkpt lat="42.21908" lon="14.5735567"><ele>12.0</ele><time>2026-03-25T13:23:57.809Z</time></trkpt><trkpt lat="42.2191183" lon="14.57346"><ele>10.666666666666666</ele><time>2026-03-25T13:24:00.809Z</time></trkpt><trkpt lat="42.2191633" lon="14.5733667"><ele>9.333333333333332</ele><time>2026-03-25T13:24:03.809Z</time></trkpt><trkpt lat="42.2191933" lon="14.5732767"><ele>8.0</ele><time>2026-03-25T13:24:06.809Z</time></trkpt><trkpt lat="42.219235" lon="14.5731867"><ele>7.999999999999999</ele><time>2026-03-25T13:24:09.809Z</time></trkpt><trkpt lat="42.219275" lon="14.5730767"><ele>8.0</ele><time>2026-03-25T13:24:12.809Z</time></trkpt><trkpt lat="42.2193117" lon="14.5729583"><ele>8.0</ele><time>2026-03-25T13:24:15.809Z</time></trkpt><trkpt lat="42.2193483" lon="14.5728767"><ele>8.0</ele><time>2026-03-25T13:24:17.809Z</time></trkpt><trkpt lat="42.21939" lon="14.5728033"><ele>7.999999999999999</ele><time>2026-03-25T13:24:19.809Z</time></trkpt><trkpt lat="42.2194283" lon="14.5727333"><ele>8.0</ele><time>2026-03-25T13:24:21.809Z</time></trkpt><trkpt lat="42.2194833" lon="14.5726367"><ele>8.833333333333332</ele><time>2026-03-25T13:24:24.809Z</time></trkpt><trkpt lat="42.21954" lon="14.5725383"><ele>9.666666666666666</ele><time>2026-03-25T13:24:27.809Z</time></trkpt><trkpt lat="42.2195833" lon="14.572445"><ele>10.5</ele><time>2026-03-25T13:24:29.809Z</time></trkpt><trkpt lat="42.219625" lon="14.5723483"><ele>11.333333333333332</ele><time>2026-03-25T13:24:31.809Z</time></trkpt><trkpt lat="42.2196633" lon="14.57226"><ele>12.166666666666666</ele><time>2026-03-25T13:24:33.809Z</time></trkpt><trkpt lat="42.2197033" lon="14.572175"><ele>13.0</ele><time>2026-03-25T13:24:35.809Z</time></trkpt><trkpt lat="42.219745" lon="14.5720883"><ele>13.571428571428571</ele><time>2026-03-25T13:24:37.809Z</time></trkpt><trkpt lat="42.2197867" lon="14.5719867"><ele>14.142857142857142</ele><time>2026-03-25T13:24:39.809Z</time></trkpt><trkpt lat="42.2198233" lon="14.57191"><ele>14.714285714285714</ele><time>2026-03-25T13:24:41.809Z</time></trkpt><trkpt lat="42.21985" lon="14.5718117"><ele>15.285714285714285</ele><time>2026-03-25T13:24:43.809Z</time></trkpt><trkpt lat="42.2198883" lon="14.5717383"><ele>15.857142857142858</ele><time>2026-03-25T13:24:45.809Z</time></trkpt><trkpt lat="42.2199217" lon="14.571665"><ele>16.428571428571427</ele><time>2026-03-25T13:24:47.809Z</time></trkpt><trkpt lat="42.2199517" lon="14.5715867"><ele>17.0</ele><time>2026-03-25T13:24:49.809Z</time></trkpt><trkpt lat="42.2199833" lon="14.571505"><ele>16.333333333333336</ele><time>2026-03-25T13:24:51.809Z</time></trkpt><trkpt lat="42.2200167" lon="14.571425"><ele>15.666666666666668</ele><time>2026-03-25T13:24:53.81Z</time></trkpt><trkpt lat="42.2200433" lon="14.571335"><ele>15.0</ele><time>2026-03-25T13:24:55.809Z</time></trkpt><trkpt lat="42.22009" lon="14.5712233"><ele>14.333333333333332</ele><time>2026-03-25T13:24:58.81Z</time></trkpt><trkpt lat="42.220115" lon="14.5711433"><ele>13.666666666666666</ele><time>2026-03-25T13:25:00.809Z</time></trkpt><trkpt lat="42.220145" lon="14.5710667"><ele>13.0</ele><time>2026-03-25T13:25:03.809Z</time></trkpt><trkpt lat="42.2201817" lon="14.5709583"><ele>13.0</ele><time>2026-03-25T13:25:06.81Z</time></trkpt><trkpt lat="42.2202283" lon="14.5708417"><ele>13.0</ele><time>2026-03-25T13:25:30.809Z</time></trkpt><trkpt lat="42.2202633" lon="14.57077"><ele>13.0</ele><time>2026-03-25T13:25:34.809Z</time></trkpt><trkpt lat="42.220295" lon="14.570685"><ele>13.0</ele><time>2026-03-25T13:25:37.81Z</time></trkpt><trkpt lat="42.2203317" lon="14.5705883"><ele>13.0</ele><time>2026-03-25T13:25:40.809Z</time></trkpt><trkpt lat="42.2203567" lon="14.570505"><ele>13.0</ele><time>2026-03-25T13:25:42.809Z</time></trkpt><trkpt lat="42.2203867" lon="14.5704233"><ele>13.0</ele><time>2026-03-25T13:25:44.809Z</time></trkpt><trkpt lat="42.2204117" lon="14.5703433"><ele>13.714285714285714</ele><time>2026-03-25T13:25:46.809Z</time></trkpt><trkpt lat="42.22044" lon="14.5702617"><ele>14.42857142857143</ele><time>2026-03-25T13:25:48.809Z</time></trkpt><trkpt lat="42.2204717" lon="14.5701733"><ele>15.142857142857144</ele><time>2026-03-25T13:25:50.809Z</time></trkpt><trkpt lat="42.2205033" lon="14.5700817"><ele>15.857142857142858</ele><time>2026-03-25T13:25:52.809Z</time></trkpt><trkpt lat="42.2205283" lon="14.569995"><ele>16.571428571428573</ele><time>2026-03-25T13:25:54.81Z</time></trkpt><trkpt lat="42.22055" lon="14.5699"><ele>17.28571428571429</ele><time>2026-03-25T13:25:56.809Z</time></trkpt><trkpt lat="42.22057" lon="14.5698133"><ele>18.0</ele><time>2026-03-25T13:25:58.809Z</time></trkpt><trkpt lat="42.2205917" lon="14.56972"><ele>18.000000000000004</ele><time>2026-03-25T13:26:00.809Z</time></trkpt><trkpt lat="42.2206217" lon="14.569635"><ele>18.0</ele><time>2026-03-25T13:26:02.809Z</time></trkpt><trkpt lat="42.22066" lon="14.5695483"><ele>18.0</ele><time>2026-03-25T13:26:04.809Z</time></trkpt><trkpt lat="42.2206967" lon="14.5694583"><ele>18.0</ele><time>2026-03-25T13:26:06.809Z</time></trkpt><trkpt lat="42.2207333" lon="14.5693817"><ele>18.0</ele><time>2026-03-25T13:26:08.809Z</time></trkpt><trkpt lat="42.220765" lon="14.5692967"><ele>18.000000000000004</ele><time>2026-03-25T13:26:10.81Z</time></trkpt><trkpt lat="42.220795" lon="14.569205"><ele>18.0</ele><time>2026-03-25T13:26:12.81Z</time></trkpt><trkpt lat="42.2208317" lon="14.5691"><ele>17.0</ele><time>2026-03-25T13:26:14.809Z</time></trkpt><trkpt lat="42.2208683" lon="14.5689783"><ele>16.0</ele><time>2026-03-25T13:26:16.809Z</time></trkpt><trkpt lat="42.22091" lon="14.5688617"><ele>15.0</ele><time>2026-03-25T13:26:18.809Z</time></trkpt><trkpt lat="42.22096" lon="14.56875"><ele>14.0</ele><time>2026-03-25T13:26:20.809Z</time></trkpt><trkpt lat="42.221005" lon="14.568635"><ele>13.0</ele><time>2026-03-25T13:26:22.809Z</time></trkpt><trkpt lat="42.22105" lon="14.5685217"><ele>13.0</ele><time>2026-03-25T13:26:24.81Z</time></trkpt><trkpt lat="42.2211" lon="14.5684183"><ele>13.0</ele><time>2026-03-25T13:26:26.809Z</time></trkpt><trkpt lat="42.221145" lon="14.568315"><ele>13.0</ele><time>2026-03-25T13:26:28.809Z</time></trkpt><trkpt lat="42.2211883" lon="14.568215"><ele>13.0</ele><time>2026-03-25T13:26:30.81Z</time></trkpt><trkpt lat="42.22124" lon="14.56811"><ele>13.0</ele><time>2026-03-25T13:26:32.809Z</time></trkpt><trkpt lat="42.22129" lon="14.567995"><ele>13.0</ele><time>2026-03-25T13:26:34.809Z</time></trkpt><trkpt lat="42.2213333" lon="14.5678783"><ele>13.0</ele><time>2026-03-25T13:26:36.809Z</time></trkpt><trkpt lat="42.2213833" lon="14.5677667"><ele>13.0</ele><time>2026-03-25T13:26:38.809Z</time></trkpt><trkpt lat="42.2214383" lon="14.5676467"><ele>13.0</ele><time>2026-03-25T13:26:40.81Z</time></trkpt><trkpt lat="42.2214817" lon="14.56752"><ele>13.0</ele><time>2026-03-25T13:26:42.81Z</time></trkpt><trkpt lat="42.22154" lon="14.5674083"><ele>12.0</ele><time>2026-03-25T13:26:44.809Z</time></trkpt><trkpt lat="42.221605" lon="14.5672967"><ele>11.0</ele><time>2026-03-25T13:26:46.809Z</time></trkpt><trkpt lat="42.2216583" lon="14.56719"><ele>10.0</ele><time>2026-03-25T13:26:48.809Z</time></trkpt><trkpt lat="42.2217167" lon="14.5670783"><ele>9.0</ele><time>2026-03-25T13:26:50.81Z</time></trkpt><trkpt lat="42.2217667" lon="14.56696"><ele>8.0</ele><time>2026-03-25T13:26:52.81Z</time></trkpt><trkpt lat="42.221815" lon="14.5668433"><ele>8.0</ele><time>2026-03-25T13:26:54.81Z</time></trkpt><trkpt lat="42.2218617" lon="14.5667267"><ele>8.0</ele><time>2026-03-25T13:26:56.809Z</time></trkpt><trkpt lat="42.22192" lon="14.5666033"><ele>8.0</ele><time>2026-03-25T13:26:58.81Z</time></trkpt><trkpt lat="42.2219817" lon="14.56648"><ele>8.0</ele><time>2026-03-25T13:27:00.809Z</time></trkpt><trkpt lat="42.222035" lon="14.5663617"><ele>8.0</ele><time>2026-03-25T13:27:02.809Z</time></trkpt><trkpt lat="42.2220967" lon="14.5662317"><ele>7.4</ele><time>2026-03-25T13:27:04.81Z</time></trkpt><trkpt lat="42.222155" lon="14.5661017"><ele>6.800000000000001</ele><time>2026-03-25T13:27:06.809Z</time></trkpt><trkpt lat="42.2222083" lon="14.56599"><ele>6.2</ele><time>2026-03-25T13:27:08.809Z</time></trkpt><trkpt lat="42.2222667" lon="14.5658733"><ele>5.6</ele><time>2026-03-25T13:27:10.81Z</time></trkpt><trkpt lat="42.2223283" lon="14.5657533"><ele>5.0</ele><time>2026-03-25T13:27:12.81Z</time></trkpt><trkpt lat="42.2223867" lon="14.5656283"><ele>5.0</ele><time>2026-03-25T13:27:14.809Z</time></trkpt><trkpt lat="42.2224433" lon="14.565495"><ele>5.0</ele><time>2026-03-25T13:27:16.809Z</time></trkpt><trkpt lat="42.222505" lon="14.5653667"><ele>5.0</ele><time>2026-03-25T13:27:18.809Z</time></trkpt><trkpt lat="42.22256" lon="14.56525"><ele>5.0</ele><time>2026-03-25T13:27:20.809Z</time></trkpt><trkpt lat="42.2226167" lon="14.5651383"><ele>5.0</ele><time>2026-03-25T13:27:22.81Z</time></trkpt><trkpt lat="42.22267" lon="14.5650183"><ele>6.8</ele><time>2026-03-25T13:27:24.809Z</time></trkpt><trkpt lat="42.2227233" lon="14.5648933"><ele>8.6</ele><time>2026-03-25T13:27:26.809Z</time></trkpt><trkpt lat="42.2227783" lon="14.56478"><ele>10.399999999999999</ele><time>2026-03-25T13:27:28.809Z</time></trkpt><trkpt lat="42.2228317" lon="14.56467"><ele>12.2</ele><time>2026-03-25T13:27:30.809Z</time></trkpt><trkpt lat="42.2228867" lon="14.56456"><ele>14.0</ele><time>2026-03-25T13:27:32.81Z</time></trkpt><trkpt lat="42.222945" lon="14.5644467"><ele>14.799999999999999</ele><time>2026-03-25T13:27:34.809Z</time></trkpt><trkpt lat="42.2230033" lon="14.5643267"><ele>15.599999999999998</ele><time>2026-03-25T13:27:36.809Z</time></trkpt><trkpt lat="42.2230617" lon="14.564215"><ele>16.4</ele><time>2026-03-25T13:27:38.809Z</time></trkpt><trkpt lat="42.2231167" lon="14.5640983"><ele>17.2</ele><time>2026-03-25T13:27:40.809Z</time></trkpt><trkpt lat="42.2231717" lon="14.563985"><ele>18.0</ele><time>2026-03-25T13:27:42.809Z</time></trkpt><trkpt lat="42.2232283" lon="14.5638683"><ele>16.2</ele><time>2026-03-25T13:27:44.809Z</time></trkpt><trkpt lat="42.22329" lon="14.5637417"><ele>14.4</ele><time>2026-03-25T13:27:46.809Z</time></trkpt><trkpt lat="42.2233533" lon="14.5636217"><ele>12.600000000000001</ele><time>2026-03-25T13:27:48.809Z</time></trkpt><trkpt lat="42.22341" lon="14.5635"><ele>10.8</ele><time>2026-03-25T13:27:50.809Z</time></trkpt><trkpt lat="42.2234617" lon="14.5633867"><ele>9.0</ele><time>2026-03-25T13:27:52.809Z</time></trkpt><trkpt lat="42.2235167" lon="14.5632683"><ele>9.0</ele><time>2026-03-25T13:27:54.809Z</time></trkpt><trkpt lat="42.2235733" lon="14.5631467"><ele>9.0</ele><time>2026-03-25T13:27:56.809Z</time></trkpt><trkpt lat="42.2236283" lon="14.5630267"><ele>9.0</ele><time>2026-03-25T13:27:58.809Z</time></trkpt><trkpt lat="42.22368" lon="14.5629167"><ele>9.0</ele><time>2026-03-25T13:28:00.809Z</time></trkpt><trkpt lat="42.22373" lon="14.5628017"><ele>9.0</ele><time>2026-03-25T13:28:02.809Z</time></trkpt><trkpt lat="42.2237867" lon="14.5626817"><ele>7.6000000000000005</ele><time>2026-03-25T13:28:04.809Z</time></trkpt><trkpt lat="42.2238433" lon="14.562565"><ele>6.2</ele><time>2026-03-25T13:28:06.809Z</time></trkpt><trkpt lat="42.2238967" lon="14.562445"><ele>4.800000000000001</ele><time>2026-03-25T13:28:08.809Z</time></trkpt><trkpt lat="42.22395" lon="14.5623333"><ele>3.4000000000000004</ele><time>2026-03-25T13:28:10.809Z</time></trkpt><trkpt lat="42.2240017" lon="14.562225"><ele>2.0</ele><time>2026-03-25T13:28:12.809Z</time></trkpt><trkpt lat="42.22406" lon="14.5621083"><ele>3.0</ele><time>2026-03-25T13:28:14.809Z</time></trkpt><trkpt lat="42.22411" lon="14.56199"><ele>4.0</ele><time>2026-03-25T13:28:16.809Z</time></trkpt><trkpt lat="42.2241583" lon="14.5618733"><ele>4.999999999999999</ele><time>2026-03-25T13:28:18.81Z</time></trkpt><trkpt lat="42.22421" lon="14.5617567"><ele>6.0</ele><time>2026-03-25T13:28:20.809Z</time></trkpt><trkpt lat="42.2242533" lon="14.5616567"><ele>7.0</ele><time>2026-03-25T13:28:22.809Z</time></trkpt><trkpt lat="42.2242983" lon="14.561555"><ele>7.0</ele><time>2026-03-25T13:28:24.809Z</time></trkpt><trkpt lat="42.224345" lon="14.561445"><ele>6.999999999999999</ele><time>2026-03-25T13:28:26.809Z</time></trkpt><trkpt lat="42.2243917" lon="14.5613367"><ele>6.999999999999999</ele><time>2026-03-25T13:28:28.809Z</time></trkpt><trkpt lat="42.2244367" lon="14.5612367"><ele>7.0</ele><time>2026-03-25T13:28:30.81Z</time></trkpt><trkpt lat="42.22448" lon="14.5611417"><ele>7.0</ele><time>2026-03-25T13:28:32.809Z</time></trkpt><trkpt lat="42.22453" lon="14.5610333"><ele>8.333333333333334</ele><time>2026-03-25T13:28:34.809Z</time></trkpt><trkpt lat="42.2245717" lon="14.560935"><ele>9.666666666666668</ele><time>2026-03-25T13:28:36.809Z</time></trkpt><trkpt lat="42.224615" lon="14.5608383"><ele>11.0</ele><time>2026-03-25T13:28:39.809Z</time></trkpt><trkpt lat="42.22465" lon="14.560725"><ele>12.333333333333334</ele><time>2026-03-25T13:28:42.809Z</time></trkpt><trkpt lat="42.2246933" lon="14.560625"><ele>13.666666666666666</ele><time>2026-03-25T13:28:44.809Z</time></trkpt><trkpt lat="42.2247367" lon="14.560515"><ele>15.0</ele><time>2026-03-25T13:28:46.809Z</time></trkpt><trkpt lat="42.2247783" lon="14.560395"><ele>13.0</ele><time>2026-03-25T13:28:48.81Z</time></trkpt><trkpt lat="42.2248217" lon="14.5602833"><ele>11.0</ele><time>2026-03-25T13:28:50.809Z</time></trkpt><trkpt lat="42.2248633" lon="14.5601717"><ele>9.0</ele><time>2026-03-25T13:28:52.809Z</time></trkpt><trkpt lat="42.2249083" lon="14.56005"><ele>7.0</ele><time>2026-03-25T13:28:54.809Z</time></trkpt><trkpt lat="42.2249517" lon="14.5599367"><ele>5.0</ele><time>2026-03-25T13:28:56.809Z</time></trkpt><trkpt lat="42.2250033" lon="14.5598"><ele>5.0</ele><time>2026-03-25T13:28:58.81Z</time></trkpt><trkpt lat="42.2250617" lon="14.5596617"><ele>5.0</ele><time>2026-03-25T13:29:00.809Z</time></trkpt><trkpt lat="42.2251183" lon="14.5595383"><ele>5.0</ele><time>2026-03-25T13:29:02.809Z</time></trkpt><trkpt lat="42.2251733" lon="14.5594017"><ele>5.0</ele><time>2026-03-25T13:29:04.81Z</time></trkpt><trkpt lat="42.2252283" lon="14.5592683"><ele>6.0</ele><time>2026-03-25T13:29:06.809Z</time></trkpt><trkpt lat="42.2252783" lon="14.559135"><ele>7.0</ele><time>2026-03-25T13:29:08.809Z</time></trkpt><trkpt lat="42.2253283" lon="14.5590017"><ele>8.0</ele><time>2026-03-25T13:29:10.809Z</time></trkpt><trkpt lat="42.22538" lon="14.55886"><ele>9.0</ele><time>2026-03-25T13:29:12.809Z</time></trkpt><trkpt lat="42.2254333" lon="14.55872"><ele>10.0</ele><time>2026-03-25T13:29:14.809Z</time></trkpt><trkpt lat="42.2254833" lon="14.5585783"><ele>11.0</ele><time>2026-03-25T13:29:16.809Z</time></trkpt><trkpt lat="42.2255383" lon="14.55844"><ele>12.0</ele><time>2026-03-25T13:29:18.81Z</time></trkpt><trkpt lat="42.2255883" lon="14.5583"><ele>13.0</ele><time>2026-03-25T13:29:20.809Z</time></trkpt><trkpt lat="42.2256417" lon="14.5581617"><ele>12.0</ele><time>2026-03-25T13:29:22.809Z</time></trkpt><trkpt lat="42.2256933" lon="14.55802"><ele>11.0</ele><time>2026-03-25T13:29:24.809Z</time></trkpt><trkpt lat="42.2257467" lon="14.5578733"><ele>10.0</ele><time>2026-03-25T13:29:26.809Z</time></trkpt><trkpt lat="42.2258" lon="14.557735"><ele>9.0</ele><time>2026-03-25T13:29:28.809Z</time></trkpt><trkpt lat="42.2258533" lon="14.557595"><ele>9.0</ele><time>2026-03-25T13:29:30.81Z</time></trkpt><trkpt lat="42.225915" lon="14.5574467"><ele>9.0</ele><time>2026-03-25T13:29:32.809Z</time></trkpt><trkpt lat="42.2259433" lon="14.5573633"><ele>9.0</ele><time>2026-03-25T13:29:33.809Z</time></trkpt><trkpt lat="42.2260033" lon="14.5572217"><ele>9.0</ele><time>2026-03-25T13:29:35.809Z</time></trkpt><trkpt lat="42.2260633" lon="14.5570833"><ele>9.0</ele><time>2026-03-25T13:29:37.809Z</time></trkpt><trkpt lat="42.2260933" lon="14.5570067"><ele>10.166666666666666</ele><time>2026-03-25T13:29:38.809Z</time></trkpt><trkpt lat="42.2261233" lon="14.5569267"><ele>11.333333333333332</ele><time>2026-03-25T13:29:39.81Z</time></trkpt><trkpt lat="42.2261533" lon="14.5568517"><ele>12.5</ele><time>2026-03-25T13:29:40.809Z</time></trkpt><trkpt lat="42.2261833" lon="14.556775"><ele>13.666666666666666</ele><time>2026-03-25T13:29:41.809Z</time></trkpt><trkpt lat="42.22624" lon="14.5566267"><ele>14.833333333333332</ele><time>2026-03-25T13:29:43.809Z</time></trkpt><trkpt lat="42.2263017" lon="14.55648"><ele>16.0</ele><time>2026-03-25T13:29:45.809Z</time></trkpt><trkpt lat="42.2263583" lon="14.5563283"><ele>16.0</ele><time>2026-03-25T13:29:47.809Z</time></trkpt><trkpt lat="42.2263883" lon="14.5562533"><ele>16.0</ele><time>2026-03-25T13:29:48.81Z</time></trkpt><trkpt lat="42.2264183" lon="14.5561783"><ele>16.0</ele><time>2026-03-25T13:29:49.809Z</time></trkpt><trkpt lat="42.2264817" lon="14.556035"><ele>16.0</ele><time>2026-03-25T13:29:51.809Z</time></trkpt><trkpt lat="42.2265467" lon="14.55589"><ele>16.0</ele><time>2026-03-25T13:29:53.81Z</time></trkpt><trkpt lat="42.2266083" lon="14.5557617"><ele>15.4</ele><time>2026-03-25T13:29:55.809Z</time></trkpt><trkpt lat="42.2266717" lon="14.5556417"><ele>14.8</ele><time>2026-03-25T13:29:57.81Z</time></trkpt><trkpt lat="42.22673" lon="14.5555283"><ele>14.200000000000001</ele><time>2026-03-25T13:29:59.809Z</time></trkpt><trkpt lat="42.2267883" lon="14.5554133"><ele>13.600000000000001</ele><time>2026-03-25T13:30:01.809Z</time></trkpt><trkpt lat="42.2268533" lon="14.5552833"><ele>13.0</ele><time>2026-03-25T13:30:03.809Z</time></trkpt><trkpt lat="42.2269233" lon="14.5551567"><ele>13.0</ele><time>2026-03-25T13:30:05.81Z</time></trkpt><trkpt lat="42.2269583" lon="14.555085"><ele>13.0</ele><time>2026-03-25T13:30:06.809Z</time></trkpt><trkpt lat="42.2270267" lon="14.5549567"><ele>13.0</ele><time>2026-03-25T13:30:08.81Z</time></trkpt><trkpt lat="42.2271" lon="14.55482"><ele>13.0</ele><time>2026-03-25T13:30:10.809Z</time></trkpt><trkpt lat="42.2271383" lon="14.55475"><ele>13.0</ele><time>2026-03-25T13:30:11.809Z</time></trkpt><trkpt lat="42.2272183" lon="14.5546233"><ele>11.0</ele><time>2026-03-25T13:30:13.809Z</time></trkpt><trkpt lat="42.2272967" lon="14.5545"><ele>9.0</ele><time>2026-03-25T13:30:15.81Z</time></trkpt><trkpt lat="42.2273783" lon="14.55437"><ele>7.0</ele><time>2026-03-25T13:30:17.81Z</time></trkpt><trkpt lat="42.2274617" lon="14.5542533"><ele>5.0</ele><time>2026-03-25T13:30:19.809Z</time></trkpt><trkpt lat="42.22755" lon="14.5541383"><ele>5.0</ele><time>2026-03-25T13:30:21.809Z</time></trkpt><trkpt lat="42.2276333" lon="14.5540217"><ele>5.0</ele><time>2026-03-25T13:30:23.81Z</time></trkpt><trkpt lat="42.2277133" lon="14.553895"><ele>5.0</ele><time>2026-03-25T13:30:25.81Z</time></trkpt><trkpt lat="42.2277933" lon="14.553775"><ele>5.0</ele><time>2026-03-25T13:30:27.809Z</time></trkpt><trkpt lat="42.2278683" lon="14.5536583"><ele>4.5</ele><time>2026-03-25T13:30:29.809Z</time></trkpt><trkpt lat="42.2279417" lon="14.5535383"><ele>4.0</ele><time>2026-03-25T13:30:31.809Z</time></trkpt><trkpt lat="42.228015" lon="14.5534267"><ele>3.5</ele><time>2026-03-25T13:30:33.809Z</time></trkpt><trkpt lat="42.2280833" lon="14.553305"><ele>3.0</ele><time>2026-03-25T13:30:35.809Z</time></trkpt><trkpt lat="42.2281533" lon="14.5531783"><ele>3.0</ele><time>2026-03-25T13:30:37.809Z</time></trkpt><trkpt lat="42.228225" lon="14.55305"><ele>3.0</ele><time>2026-03-25T13:30:39.809Z</time></trkpt><trkpt lat="42.2282983" lon="14.5529317"><ele>3.0</ele><time>2026-03-25T13:30:41.81Z</time></trkpt><trkpt lat="42.22837" lon="14.5528133"><ele>3.0</ele><time>2026-03-25T13:30:43.809Z</time></trkpt><trkpt lat="42.2284417" lon="14.5526933"><ele>3.0</ele><time>2026-03-25T13:30:45.809Z</time></trkpt><trkpt lat="42.2285083" lon="14.5525633"><ele>3.0</ele><time>2026-03-25T13:30:47.809Z</time></trkpt><trkpt lat="42.2285817" lon="14.5524333"><ele>3.0</ele><time>2026-03-25T13:30:49.809Z</time></trkpt><trkpt lat="42.22865" lon="14.5523083"><ele>3.0</ele><time>2026-03-25T13:30:51.809Z</time></trkpt><trkpt lat="42.22872" lon="14.5521917"><ele>3.0</ele><time>2026-03-25T13:30:53.809Z</time></trkpt><trkpt lat="42.2288017" lon="14.5520717"><ele>3.0</ele><time>2026-03-25T13:30:55.809Z</time></trkpt><trkpt lat="42.228865" lon="14.5519517"><ele>3.0</ele><time>2026-03-25T13:30:57.809Z</time></trkpt><trkpt lat="42.228935" lon="14.5518367"><ele>3.0</ele><time>2026-03-25T13:30:59.809Z</time></trkpt><trkpt lat="42.2290067" lon="14.55171"><ele>3.5</ele><time>2026-03-25T13:31:01.81Z</time></trkpt><trkpt lat="42.2290817" lon="14.5515817"><ele>4.0</ele><time>2026-03-25T13:31:03.809Z</time></trkpt><trkpt lat="42.2291533" lon="14.5514583"><ele>4.5</ele><time>2026-03-25T13:31:05.809Z</time></trkpt><trkpt lat="42.22922" lon="14.5513283"><ele>5.0</ele><time>2026-03-25T13:31:07.81Z</time></trkpt><trkpt lat="42.2292917" lon="14.5511983"><ele>5.0</ele><time>2026-03-25T13:31:09.809Z</time></trkpt><trkpt lat="42.2293617" lon="14.5510717"><ele>5.0</ele><time>2026-03-25T13:31:11.809Z</time></trkpt><trkpt lat="42.229435" lon="14.5509533"><ele>5.0</ele><time>2026-03-25T13:31:13.809Z</time></trkpt><trkpt lat="42.2295067" lon="14.550825"><ele>5.0</ele><time>2026-03-25T13:31:15.809Z</time></trkpt><trkpt lat="42.2295733" lon="14.550695"><ele>5.0</ele><time>2026-03-25T13:31:17.809Z</time></trkpt><trkpt lat="42.2296267" lon="14.5505483"><ele>5.0</ele><time>2026-03-25T13:31:19.809Z</time></trkpt><trkpt lat="42.2296817" lon="14.55041"><ele>5.0</ele><time>2026-03-25T13:31:21.809Z</time></trkpt><trkpt lat="42.2297417" lon="14.5502833"><ele>5.0</ele><time>2026-03-25T13:31:23.809Z</time></trkpt><trkpt lat="42.2298133" lon="14.5501667"><ele>4.0</ele><time>2026-03-25T13:31:25.809Z</time></trkpt><trkpt lat="42.2298533" lon="14.5500933"><ele>3.0</ele><time>2026-03-25T13:31:26.809Z</time></trkpt><trkpt lat="42.2299217" lon="14.54997"><ele>2.0</ele><time>2026-03-25T13:31:28.809Z</time></trkpt><trkpt lat="42.22999" lon="14.5498433"><ele>1.0</ele><time>2026-03-25T13:31:30.809Z</time></trkpt><trkpt lat="42.2300667" lon="14.54972"><ele>0.0</ele><time>2026-03-25T13:31:32.809Z</time></trkpt><trkpt lat="42.2301417" lon="14.5496033"><ele>1.0</ele><time>2026-03-25T13:31:34.809Z</time></trkpt><trkpt lat="42.23021" lon="14.549485"><ele>2.0</ele><time>2026-03-25T13:31:36.809Z</time></trkpt><trkpt lat="42.2302783" lon="14.549365"><ele>3.0</ele><time>2026-03-25T13:31:38.809Z</time></trkpt><trkpt lat="42.2303467" lon="14.5492383"><ele>4.0</ele><time>2026-03-25T13:31:40.809Z</time></trkpt><trkpt lat="42.2304167" lon="14.54911"><ele>4.0</ele><time>2026-03-25T13:31:42.81Z</time></trkpt><trkpt lat="42.23048" lon="14.54901"><ele>4.0</ele><time>2026-03-25T13:31:44.809Z</time></trkpt><trkpt lat="42.2305483" lon="14.5488983"><ele>4.0</ele><time>2026-03-25T13:31:46.809Z</time></trkpt><trkpt lat="42.230615" lon="14.5487883"><ele>4.0</ele><time>2026-03-25T13:31:48.809Z</time></trkpt><trkpt lat="42.230685" lon="14.54867"><ele>4.0</ele><time>2026-03-25T13:31:50.81Z</time></trkpt><trkpt lat="42.2307533" lon="14.5485483"><ele>3.75</ele><time>2026-03-25T13:31:52.809Z</time></trkpt><trkpt lat="42.2308283" lon="14.54842"><ele>3.5</ele><time>2026-03-25T13:31:54.809Z</time></trkpt><trkpt lat="42.2308917" lon="14.548305"><ele>3.25</ele><time>2026-03-25T13:31:56.809Z</time></trkpt><trkpt lat="42.2309583" lon="14.548185"><ele>3.0</ele><time>2026-03-25T13:31:58.81Z</time></trkpt><trkpt lat="42.2310317" lon="14.5480567"><ele>3.0</ele><time>2026-03-25T13:32:00.81Z</time></trkpt><trkpt lat="42.2311017" lon="14.5479433"><ele>3.0</ele><time>2026-03-25T13:32:02.809Z</time></trkpt><trkpt lat="42.23117" lon="14.5478283"><ele>3.0</ele><time>2026-03-25T13:32:04.809Z</time></trkpt><trkpt lat="42.231235" lon="14.547715"><ele>3.0</ele><time>2026-03-25T13:32:06.809Z</time></trkpt><trkpt lat="42.2313" lon="14.547605"><ele>3.0</ele><time>2026-03-25T13:32:08.81Z</time></trkpt><trkpt lat="42.231365" lon="14.5474983"><ele>2.75</ele><time>2026-03-25T13:32:10.809Z</time></trkpt><trkpt lat="42.2314367" lon="14.547375"><ele>2.5</ele><time>2026-03-25T13:32:12.809Z</time></trkpt><trkpt lat="42.231505" lon="14.5472467"><ele>2.25</ele><time>2026-03-25T13:32:14.809Z</time></trkpt><trkpt lat="42.23157" lon="14.5471167"><ele>2.0</ele><time>2026-03-25T13:32:16.809Z</time></trkpt><trkpt lat="42.2316433" lon="14.5470083"><ele>2.0</ele><time>2026-03-25T13:32:18.809Z</time></trkpt><trkpt lat="42.2317117" lon="14.5468933"><ele>2.0</ele><time>2026-03-25T13:32:20.809Z</time></trkpt><trkpt lat="42.2317817" lon="14.5467717"><ele>2.0</ele><time>2026-03-25T13:32:22.809Z</time></trkpt><trkpt lat="42.2318517" lon="14.5466617"><ele>2.0</ele><time>2026-03-25T13:32:24.809Z</time></trkpt><trkpt lat="42.2319133" lon="14.5465517"><ele>2.0</ele><time>2026-03-25T13:32:26.809Z</time></trkpt><trkpt lat="42.2319717" lon="14.5464467"><ele>2.0</ele><time>2026-03-25T13:32:28.809Z</time></trkpt><trkpt lat="42.2320367" lon="14.54635"><ele>2.0</ele><time>2026-03-25T13:32:30.809Z</time></trkpt><trkpt lat="42.2320983" lon="14.5462467"><ele>2.0</ele><time>2026-03-25T13:32:32.809Z</time></trkpt><trkpt lat="42.2321583" lon="14.5461367"><ele>2.0</ele><time>2026-03-25T13:32:34.809Z</time></trkpt><trkpt lat="42.2322167" lon="14.546035"><ele>2.0</ele><time>2026-03-25T13:32:36.809Z</time></trkpt><trkpt lat="42.232275" lon="14.545935"><ele>2.0</ele><time>2026-03-25T13:32:38.809Z</time></trkpt><trkpt lat="42.232335" lon="14.545825"><ele>2.0</ele><time>2026-03-25T13:32:40.809Z</time></trkpt><trkpt lat="42.2324" lon="14.545715"><ele>2.0</ele><time>2026-03-25T13:32:42.809Z</time></trkpt><trkpt lat="42.2324633" lon="14.5456067"><ele>2.0</ele><time>2026-03-25T13:32:44.809Z</time></trkpt><trkpt lat="42.232525" lon="14.5454933"><ele>2.0</ele><time>2026-03-25T13:32:46.809Z</time></trkpt><trkpt lat="42.2325867" lon="14.545385"><ele>2.6</ele><time>2026-03-25T13:32:48.809Z</time></trkpt><trkpt lat="42.2326517" lon="14.54528"><ele>3.2</ele><time>2026-03-25T13:32:50.809Z</time></trkpt><trkpt lat="42.232715" lon="14.545175"><ele>3.8</ele><time>2026-03-25T13:32:52.809Z</time></trkpt><trkpt lat="42.2327767" lon="14.5450533"><ele>4.4</ele><time>2026-03-25T13:32:54.809Z</time></trkpt><trkpt lat="42.2328367" lon="14.544945"><ele>5.0</ele><time>2026-03-25T13:32:56.809Z</time></trkpt><trkpt lat="42.2328983" lon="14.5448417"><ele>5.0</ele><time>2026-03-25T13:32:58.81Z</time></trkpt><trkpt lat="42.232955" lon="14.544725"><ele>5.0</ele><time>2026-03-25T13:33:00.81Z</time></trkpt><trkpt lat="42.2330117" lon="14.5446217"><ele>5.0</ele><time>2026-03-25T13:33:02.81Z</time></trkpt><trkpt lat="42.2330633" lon="14.544515"><ele>5.0</ele><time>2026-03-25T13:33:04.81Z</time></trkpt><trkpt lat="42.2331167" lon="14.5444067"><ele>5.0</ele><time>2026-03-25T13:33:06.809Z</time></trkpt><trkpt lat="42.2331667" lon="14.5443083"><ele>4.833333333333334</ele><time>2026-03-25T13:33:08.809Z</time></trkpt><trkpt lat="42.23322" lon="14.5441967"><ele>4.666666666666667</ele><time>2026-03-25T13:33:10.809Z</time></trkpt><trkpt lat="42.2332683" lon="14.5440917"><ele>4.5</ele><time>2026-03-25T13:33:12.809Z</time></trkpt><trkpt lat="42.2333133" lon="14.54399"><ele>4.333333333333333</ele><time>2026-03-25T13:33:14.809Z</time></trkpt><trkpt lat="42.23335" lon="14.5438983"><ele>4.166666666666666</ele><time>2026-03-25T13:33:16.809Z</time></trkpt><trkpt lat="42.233395" lon="14.5438033"><ele>4.0</ele><time>2026-03-25T13:33:18.809Z</time></trkpt><trkpt lat="42.233435" lon="14.543705"><ele>5.166666666666666</ele><time>2026-03-25T13:33:20.809Z</time></trkpt><trkpt lat="42.2334817" lon="14.5436167"><ele>6.333333333333333</ele><time>2026-03-25T13:33:22.809Z</time></trkpt><trkpt lat="42.233515" lon="14.54352"><ele>7.5</ele><time>2026-03-25T13:33:24.809Z</time></trkpt><trkpt lat="42.233535" lon="14.5434183"><ele>8.666666666666666</ele><time>2026-03-25T13:33:26.809Z</time></trkpt><trkpt lat="42.2335467" lon="14.5433183"><ele>9.833333333333332</ele><time>2026-03-25T13:33:28.809Z</time></trkpt><trkpt lat="42.2335533" lon="14.5432183"><ele>11.0</ele><time>2026-03-25T13:33:30.809Z</time></trkpt><trkpt lat="42.233565" lon="14.54311"><ele>11.0</ele><time>2026-03-25T13:33:32.81Z</time></trkpt><trkpt lat="42.2335967" lon="14.5430083"><ele>11.0</ele><time>2026-03-25T13:33:34.81Z</time></trkpt><trkpt lat="42.2336383" lon="14.5429167"><ele>11.0</ele><time>2026-03-25T13:33:36.809Z</time></trkpt><trkpt lat="42.2336767" lon="14.5428417"><ele>11.0</ele><time>2026-03-25T13:33:38.809Z</time></trkpt><trkpt lat="42.2337317" lon="14.5427517"><ele>11.0</ele><time>2026-03-25T13:33:41.809Z</time></trkpt><trkpt lat="42.2337867" lon="14.542655"><ele>11.0</ele><time>2026-03-25T13:33:44.809Z</time></trkpt><trkpt lat="42.2338283" lon="14.5425633"><ele>9.600000000000001</ele><time>2026-03-25T13:33:46.809Z</time></trkpt><trkpt lat="42.233875" lon="14.54248"><ele>8.200000000000001</ele><time>2026-03-25T13:33:48.809Z</time></trkpt><trkpt lat="42.2339083" lon="14.5423917"><ele>6.800000000000001</ele><time>2026-03-25T13:33:50.809Z</time></trkpt><trkpt lat="42.2339467" lon="14.54226"><ele>5.4</ele><time>2026-03-25T13:33:52.809Z</time></trkpt><trkpt lat="42.233995" lon="14.5421417"><ele>4.0</ele><time>2026-03-25T13:33:54.809Z</time></trkpt><trkpt lat="42.2340467" lon="14.5420283"><ele>4.0</ele><time>2026-03-25T13:33:56.81Z</time></trkpt><trkpt lat="42.2341" lon="14.5419183"><ele>4.0</ele><time>2026-03-25T13:33:58.809Z</time></trkpt><trkpt lat="42.2341433" lon="14.5417867"><ele>4.0</ele><time>2026-03-25T13:34:00.809Z</time></trkpt><trkpt lat="42.2341483" lon="14.5416667"><ele>4.0</ele><time>2026-03-25T13:34:02.81Z</time></trkpt><trkpt lat="42.2341017" lon="14.541575"><ele>4.0</ele><time>2026-03-25T13:34:04.809Z</time></trkpt><trkpt lat="42.2340367" lon="14.5415167"><ele>3.9999999999999996</ele><time>2026-03-25T13:34:06.809Z</time></trkpt><trkpt lat="42.2339783" lon="14.541475"><ele>4.0</ele><time>2026-03-25T13:34:08.809Z</time></trkpt><trkpt lat="42.2339367" lon="14.5413733"><ele>4.0</ele><time>2026-03-25T13:34:12.809Z</time></trkpt><trkpt lat="42.233915" lon="14.54128"><ele>4.0</ele><time>2026-03-25T13:34:15.809Z</time></trkpt><trkpt lat="42.2338717" lon="14.541185"><ele>3.9999999999999996</ele><time>2026-03-25T13:34:18.809Z</time></trkpt><trkpt lat="42.2338383" lon="14.54109"><ele>4.0</ele><time>2026-03-25T13:34:21.809Z</time></trkpt><trkpt lat="42.2338233" lon="14.5410017"><ele>5.5</ele><time>2026-03-25T13:34:24.809Z</time></trkpt><trkpt lat="42.2337833" lon="14.5409317"><ele>7.0</ele><time>2026-03-25T13:34:26.809Z</time></trkpt><trkpt lat="42.2337033" lon="14.5408567"><ele>8.5</ele><time>2026-03-25T13:34:29.809Z</time></trkpt><trkpt lat="42.2336267" lon="14.5407733"><ele>10.0</ele><time>2026-03-25T13:34:32.809Z</time></trkpt><trkpt lat="42.23356" lon="14.5407067"><ele>11.499999999999998</ele><time>2026-03-25T13:34:34.809Z</time></trkpt><trkpt lat="42.2335083" lon="14.540645"><ele>13.0</ele><time>2026-03-25T13:34:36.809Z</time></trkpt><trkpt lat="42.2334383" lon="14.5405733"><ele>12.999999999999998</ele><time>2026-03-25T13:34:39.809Z</time></trkpt><trkpt lat="42.2333717" lon="14.5405"><ele>13.0</ele><time>2026-03-25T13:34:42.809Z</time></trkpt><trkpt lat="42.2333267" lon="14.5404117"><ele>13.0</ele><time>2026-03-25T13:34:45.809Z</time></trkpt><trkpt lat="42.23324" lon="14.5403583"><ele>13.0</ele><time>2026-03-25T13:34:48.81Z</time></trkpt><trkpt lat="42.2331817" lon="14.5403033"><ele>12.999999999999998</ele><time>2026-03-25T13:34:50.809Z</time></trkpt><trkpt lat="42.2331317" lon="14.5402"><ele>13.0</ele><time>2026-03-25T13:34:53.809Z</time></trkpt><trkpt lat="42.2330883" lon="14.5400833"><ele>13.166666666666666</ele><time>2026-03-25T13:34:56.809Z</time></trkpt><trkpt lat="42.2330433" lon="14.5399867"><ele>13.333333333333332</ele><time>2026-03-25T13:34:58.809Z</time></trkpt><trkpt lat="42.2329983" lon="14.5398917"><ele>13.5</ele><time>2026-03-25T13:35:00.809Z</time></trkpt><trkpt lat="42.2329483" lon="14.5398067"><ele>13.666666666666668</ele><time>2026-03-25T13:35:02.809Z</time></trkpt><trkpt lat="42.2328883" lon="14.5397333"><ele>13.833333333333334</ele><time>2026-03-25T13:35:04.81Z</time></trkpt><trkpt lat="42.2328567" lon="14.5396383"><ele>14.0</ele><time>2026-03-25T13:35:06.809Z</time></trkpt><trkpt lat="42.2328533" lon="14.5395467"><ele>13.166666666666668</ele><time>2026-03-25T13:35:08.809Z</time></trkpt><trkpt lat="42.2328217" lon="14.5394467"><ele>12.333333333333334</ele><time>2026-03-25T13:35:10.809Z</time></trkpt><trkpt lat="42.2327717" lon="14.5393717"><ele>11.5</ele><time>2026-03-25T13:35:12.809Z</time></trkpt><trkpt lat="42.2327217" lon="14.5392817"><ele>10.666666666666668</ele><time>2026-03-25T13:35:14.809Z</time></trkpt><trkpt lat="42.2326817" lon="14.539215"><ele>9.833333333333334</ele><time>2026-03-25T13:35:16.809Z</time></trkpt><trkpt lat="42.2326317" lon="14.53916"><ele>9.0</ele><time>2026-03-25T13:35:18.81Z</time></trkpt><trkpt lat="42.2325567" lon="14.5390917"><ele>9.0</ele><time>2026-03-25T13:35:21.809Z</time></trkpt><trkpt lat="42.232515" lon="14.539025"><ele>9.0</ele><time>2026-03-25T13:35:23.809Z</time></trkpt><trkpt lat="42.2324567" lon="14.5389233"><ele>9.0</ele><time>2026-03-25T13:35:26.809Z</time></trkpt><trkpt lat="42.23241" lon="14.538835"><ele>9.0</ele><time>2026-03-25T13:35:29.81Z</time></trkpt><trkpt lat="42.23235" lon="14.5387683"><ele>9.0</ele><time>2026-03-25T13:35:32.81Z</time></trkpt><trkpt lat="42.23227" lon="14.5386917"><ele>9.0</ele><time>2026-03-25T13:35:35.81Z</time></trkpt><trkpt lat="42.23223" lon="14.53862"><ele>9.166666666666666</ele><time>2026-03-25T13:35:37.81Z</time></trkpt><trkpt lat="42.2321783" lon="14.5385233"><ele>9.333333333333334</ele><time>2026-03-25T13:35:40.81Z</time></trkpt><trkpt lat="42.2321383" lon="14.5384067"><ele>9.5</ele><time>2026-03-25T13:35:43.81Z</time></trkpt><trkpt lat="42.2321283" lon="14.538295"><ele>9.666666666666668</ele><time>2026-03-25T13:35:46.81Z</time></trkpt><trkpt lat="42.2320817" lon="14.538215"><ele>9.833333333333334</ele><time>2026-03-25T13:35:49.81Z</time></trkpt><trkpt lat="42.2320483" lon="14.5381267"><ele>10.0</ele><time>2026-03-25T13:35:52.81Z</time></trkpt><trkpt lat="42.2320267" lon="14.5380383"><ele>10.0</ele><time>2026-03-25T13:35:55.81Z</time></trkpt><trkpt lat="42.2319883" lon="14.5379667"><ele>10.0</ele><time>2026-03-25T13:35:57.81Z</time></trkpt><trkpt lat="42.2319467" lon="14.5378667"><ele>10.0</ele><time>2026-03-25T13:36:00.81Z</time></trkpt><trkpt lat="42.2319067" lon="14.5377717"><ele>10.0</ele><time>2026-03-25T13:36:03.81Z</time></trkpt><trkpt lat="42.2319083" lon="14.5376683"><ele>10.0</ele><time>2026-03-25T13:36:05.81Z</time></trkpt><trkpt lat="42.2318617" lon="14.53754"><ele>10.0</ele><time>2026-03-25T13:36:07.811Z</time></trkpt><trkpt lat="42.231805" lon="14.5374433"><ele>9.833333333333334</ele><time>2026-03-25T13:36:09.81Z</time></trkpt><trkpt lat="42.2317517" lon="14.5373567"><ele>9.666666666666668</ele><time>2026-03-25T13:36:11.811Z</time></trkpt><trkpt lat="42.23168" lon="14.5372917"><ele>9.5</ele><time>2026-03-25T13:36:13.811Z</time></trkpt><trkpt lat="42.2316133" lon="14.53728"><ele>9.333333333333334</ele><time>2026-03-25T13:36:15.81Z</time></trkpt><trkpt lat="42.2315417" lon="14.537315"><ele>9.166666666666666</ele><time>2026-03-25T13:36:18.81Z</time></trkpt><trkpt lat="42.2314567" lon="14.53735"><ele>9.0</ele><time>2026-03-25T13:36:21.81Z</time></trkpt><trkpt lat="42.23138" lon="14.53743"><ele>9.333333333333334</ele><time>2026-03-25T13:36:23.811Z</time></trkpt><trkpt lat="42.2313367" lon="14.537495"><ele>9.666666666666666</ele><time>2026-03-25T13:36:25.81Z</time></trkpt><trkpt lat="42.2312967" lon="14.53757"><ele>10.0</ele><time>2026-03-25T13:36:27.81Z</time></trkpt><trkpt lat="42.231235" lon="14.5376783"><ele>10.333333333333332</ele><time>2026-03-25T13:36:30.81Z</time></trkpt><trkpt lat="42.2311967" lon="14.53776"><ele>10.666666666666666</ele><time>2026-03-25T13:36:32.81Z</time></trkpt><trkpt lat="42.2311617" lon="14.5378367"><ele>11.0</ele><time>2026-03-25T13:36:34.81Z</time></trkpt><trkpt lat="42.2311433" lon="14.5379433"><ele>11.0</ele><time>2026-03-25T13:36:37.81Z</time></trkpt><trkpt lat="42.2311283" lon="14.5380317"><ele>11.0</ele><time>2026-03-25T13:36:40.81Z</time></trkpt><trkpt lat="42.2310767" lon="14.5379817"><ele>11.0</ele><time>2026-03-25T13:36:50.81Z</time></trkpt><trkpt lat="42.2310067" lon="14.5379267"><ele>11.0</ele><time>2026-03-25T13:36:53.81Z</time></trkpt><trkpt lat="42.2309283" lon="14.5378817"><ele>11.0</ele><time>2026-03-25T13:36:56.81Z</time></trkpt><trkpt lat="42.2308467" lon="14.5378283"><ele>11.0</ele><time>2026-03-25T13:36:59.81Z</time></trkpt><trkpt lat="42.2307717" lon="14.53776"><ele>11.0</ele><time>2026-03-25T13:37:01.811Z</time></trkpt><trkpt lat="42.2307183" lon="14.537685"><ele>11.0</ele><time>2026-03-25T13:37:03.81Z</time></trkpt><trkpt lat="42.23067" lon="14.5375983"><ele>11.0</ele><time>2026-03-25T13:37:05.81Z</time></trkpt><trkpt lat="42.2306233" lon="14.5375183"><ele>11.0</ele><time>2026-03-25T13:37:07.81Z</time></trkpt><trkpt lat="42.2305717" lon="14.5374233"><ele>11.0</ele><time>2026-03-25T13:37:09.81Z</time></trkpt><trkpt lat="42.2304917" lon="14.537325"><ele>11.0</ele><time>2026-03-25T13:37:11.81Z</time></trkpt><trkpt lat="42.2304117" lon="14.53721"><ele>10.8</ele><time>2026-03-25T13:37:13.81Z</time></trkpt><trkpt lat="42.2303483" lon="14.5370967"><ele>10.600000000000001</ele><time>2026-03-25T13:37:15.81Z</time></trkpt><trkpt lat="42.23029" lon="14.53698"><ele>10.4</ele><time>2026-03-25T13:37:17.81Z</time></trkpt><trkpt lat="42.2302333" lon="14.5368617"><ele>10.2</ele><time>2026-03-25T13:37:19.81Z</time></trkpt><trkpt lat="42.2301633" lon="14.5367533"><ele>10.0</ele><time>2026-03-25T13:37:21.81Z</time></trkpt><trkpt lat="42.2300933" lon="14.536655"><ele>10.0</ele><time>2026-03-25T13:37:23.811Z</time></trkpt><trkpt lat="42.2300133" lon="14.5365733"><ele>10.0</ele><time>2026-03-25T13:37:25.81Z</time></trkpt><trkpt lat="42.22994" lon="14.53649"><ele>10.0</ele><time>2026-03-25T13:37:27.81Z</time></trkpt><trkpt lat="42.229875" lon="14.5364183"><ele>10.0</ele><time>2026-03-25T13:37:29.81Z</time></trkpt><trkpt lat="42.2298167" lon="14.5363517"><ele>10.0</ele><time>2026-03-25T13:37:31.81Z</time></trkpt><trkpt lat="42.2297617" lon="14.5362817"><ele>10.0</ele><time>2026-03-25T13:37:33.81Z</time></trkpt><trkpt lat="42.2297117" lon="14.5362117"><ele>9.5</ele><time>2026-03-25T13:37:35.811Z</time></trkpt><trkpt lat="42.2296667" lon="14.5361367"><ele>9.0</ele><time>2026-03-25T13:37:37.81Z</time></trkpt><trkpt lat="42.2296167" lon="14.53605"><ele>8.5</ele><time>2026-03-25T13:37:39.81Z</time></trkpt><trkpt lat="42.22958" lon="14.5359633"><ele>8.0</ele><time>2026-03-25T13:37:41.81Z</time></trkpt><trkpt lat="42.229535" lon="14.5358717"><ele>7.500000000000001</ele><time>2026-03-25T13:37:43.81Z</time></trkpt><trkpt lat="42.2294967" lon="14.5357983"><ele>7.0</ele><time>2026-03-25T13:37:45.81Z</time></trkpt><trkpt lat="42.2294567" lon="14.5356933"><ele>7.0</ele><time>2026-03-25T13:37:47.81Z</time></trkpt><trkpt lat="42.22942" lon="14.535585"><ele>6.999999999999999</ele><time>2026-03-25T13:37:49.81Z</time></trkpt><trkpt lat="42.229385" lon="14.535465"><ele>6.999999999999999</ele><time>2026-03-25T13:37:51.81Z</time></trkpt><trkpt lat="42.2293383" lon="14.53536"><ele>7.0</ele><time>2026-03-25T13:37:53.81Z</time></trkpt><trkpt lat="42.2292767" lon="14.5352667"><ele>7.0</ele><time>2026-03-25T13:37:55.81Z</time></trkpt><trkpt lat="42.2292083" lon="14.5351867"><ele>7.000000000000001</ele><time>2026-03-25T13:37:57.81Z</time></trkpt><trkpt lat="42.2291383" lon="14.5351133"><ele>7.0</ele><time>2026-03-25T13:37:59.81Z</time></trkpt><trkpt lat="42.2290767" lon="14.5350467"><ele>7.0</ele><time>2026-03-25T13:38:01.81Z</time></trkpt><trkpt lat="42.2290217" lon="14.5349783"><ele>7.0</ele><time>2026-03-25T13:38:03.81Z</time></trkpt><trkpt lat="42.22896" lon="14.534905"><ele>7.000000000000001</ele><time>2026-03-25T13:38:05.81Z</time></trkpt><trkpt lat="42.2288883" lon="14.5348417"><ele>7.0</ele><time>2026-03-25T13:38:07.81Z</time></trkpt><trkpt lat="42.2288083" lon="14.5348917"><ele>6.833333333333334</ele><time>2026-03-25T13:38:10.81Z</time></trkpt><trkpt lat="42.2287467" lon="14.534945"><ele>6.666666666666667</ele><time>2026-03-25T13:38:12.81Z</time></trkpt><trkpt lat="42.2286783" lon="14.5350033"><ele>6.5</ele><time>2026-03-25T13:38:15.811Z</time></trkpt><trkpt lat="42.228605" lon="14.5350467"><ele>6.333333333333334</ele><time>2026-03-25T13:38:18.81Z</time></trkpt><trkpt lat="42.2285467" lon="14.5350917"><ele>6.166666666666667</ele><time>2026-03-25T13:38:20.81Z</time></trkpt><trkpt lat="42.228455" lon="14.5351583"><ele>6.0</ele><time>2026-03-25T13:38:22.81Z</time></trkpt><trkpt lat="42.22838" lon="14.53522"><ele>6.0</ele><time>2026-03-25T13:38:24.81Z</time></trkpt><trkpt lat="42.2283083" lon="14.5352883"><ele>6.0</ele><time>2026-03-25T13:38:26.811Z</time></trkpt><trkpt lat="42.22824" lon="14.5353733"><ele>6.0</ele><time>2026-03-25T13:38:28.81Z</time></trkpt><trkpt lat="42.2281917" lon="14.5354583"><ele>6.0</ele><time>2026-03-25T13:38:30.811Z</time></trkpt><trkpt lat="42.2281367" lon="14.5355517"><ele>6.0</ele><time>2026-03-25T13:38:33.81Z</time></trkpt><trkpt lat="42.2280517" lon="14.5355767"><ele>6.0</ele><time>2026-03-25T13:38:36.81Z</time></trkpt><trkpt lat="42.2279767" lon="14.5355817"><ele>8.285714285714285</ele><time>2026-03-25T13:38:39.81Z</time></trkpt><trkpt lat="42.2279033" lon="14.5355883"><ele>10.571428571428571</ele><time>2026-03-25T13:38:42.81Z</time></trkpt><trkpt lat="42.22782" lon="14.5356017"><ele>12.857142857142858</ele><time>2026-03-25T13:38:45.81Z</time></trkpt><trkpt lat="42.227725" lon="14.535595"><ele>15.142857142857142</ele><time>2026-03-25T13:38:48.81Z</time></trkpt><trkpt lat="42.22766" lon="14.5355933"><ele>17.428571428571427</ele><time>2026-03-25T13:38:50.811Z</time></trkpt><trkpt lat="42.2275967" lon="14.5355967"><ele>19.714285714285715</ele><time>2026-03-25T13:38:52.81Z</time></trkpt><trkpt lat="42.2275283" lon="14.5355933"><ele>22.0</ele><time>2026-03-25T13:38:54.81Z</time></trkpt><trkpt lat="42.2274567" lon="14.5356"><ele>22.0</ele><time>2026-03-25T13:38:56.811Z</time></trkpt><trkpt lat="42.2273883" lon="14.53561"><ele>22.0</ele><time>2026-03-25T13:38:58.81Z</time></trkpt><trkpt lat="42.227315" lon="14.535625"><ele>22.0</ele><time>2026-03-25T13:39:00.81Z</time></trkpt><trkpt lat="42.22724" lon="14.53565"><ele>22.0</ele><time>2026-03-25T13:39:02.811Z</time></trkpt><trkpt lat="42.22717" lon="14.535675"><ele>22.0</ele><time>2026-03-25T13:39:04.81Z</time></trkpt><trkpt lat="42.2271" lon="14.5356933"><ele>22.0</ele><time>2026-03-25T13:39:07.81Z</time></trkpt><trkpt lat="42.2270317" lon="14.5357333"><ele>22.0</ele><time>2026-03-25T13:39:10.81Z</time></trkpt><trkpt lat="42.2269717" lon="14.5357767"><ele>23.5</ele><time>2026-03-25T13:39:12.81Z</time></trkpt><trkpt lat="42.226905" lon="14.53584"><ele>25.0</ele><time>2026-03-25T13:39:15.81Z</time></trkpt><trkpt lat="42.226845" lon="14.5358883"><ele>26.5</ele><time>2026-03-25T13:39:18.81Z</time></trkpt><trkpt lat="42.226745" lon="14.535935"><ele>28.0</ele><time>2026-03-25T13:39:21.811Z</time></trkpt><trkpt lat="42.22666" lon="14.53598"><ele>29.500000000000004</ele><time>2026-03-25T13:39:23.811Z</time></trkpt><trkpt lat="42.2265817" lon="14.5360533"><ele>31.0</ele><time>2026-03-25T13:39:26.81Z</time></trkpt><trkpt lat="42.2265267" lon="14.5361117"><ele>31.000000000000004</ele><time>2026-03-25T13:39:29.81Z</time></trkpt><trkpt lat="42.22648" lon="14.536185"><ele>31.0</ele><time>2026-03-25T13:39:32.81Z</time></trkpt><trkpt lat="42.2264217" lon="14.5362733"><ele>31.0</ele><time>2026-03-25T13:39:35.81Z</time></trkpt><trkpt lat="42.226375" lon="14.536335"><ele>31.0</ele><time>2026-03-25T13:39:37.81Z</time></trkpt><trkpt lat="42.2263067" lon="14.5364083"><ele>31.000000000000004</ele><time>2026-03-25T13:39:40.81Z</time></trkpt><trkpt lat="42.22625" lon="14.536465"><ele>31.0</ele><time>2026-03-25T13:39:42.81Z</time></trkpt><trkpt lat="42.2261767" lon="14.5365333"><ele>31.857142857142858</ele><time>2026-03-25T13:39:45.811Z</time></trkpt><trkpt lat="42.226115" lon="14.53661"><ele>32.714285714285715</ele><time>2026-03-25T13:39:48.81Z</time></trkpt><trkpt lat="42.22607" lon="14.536685"><ele>33.57142857142857</ele><time>2026-03-25T13:39:51.81Z</time></trkpt><trkpt lat="42.2260283" lon="14.53676"><ele>34.42857142857143</ele><time>2026-03-25T13:39:54.81Z</time></trkpt><trkpt lat="42.2260033" lon="14.5368467"><ele>35.285714285714285</ele><time>2026-03-25T13:39:57.81Z</time></trkpt><trkpt lat="42.2259783" lon="14.5369417"><ele>36.142857142857146</ele><time>2026-03-25T13:40:00.81Z</time></trkpt><trkpt lat="42.225945" lon="14.5370267"><ele>37.0</ele><time>2026-03-25T13:40:03.81Z</time></trkpt><trkpt lat="42.2259283" lon="14.53712"><ele>38.833333333333336</ele><time>2026-03-25T13:40:07.81Z</time></trkpt><trkpt lat="42.2258767" lon="14.53721"><ele>40.66666666666667</ele><time>2026-03-25T13:40:12.81Z</time></trkpt><trkpt lat="42.2258133" lon="14.53728"><ele>42.5</ele><time>2026-03-25T13:40:16.81Z</time></trkpt><trkpt lat="42.2257433" lon="14.53735"><ele>44.333333333333336</ele><time>2026-03-25T13:40:19.81Z</time></trkpt><trkpt lat="42.2256883" lon="14.5374"><ele>46.166666666666664</ele><time>2026-03-25T13:40:22.81Z</time></trkpt><trkpt lat="42.2256267" lon="14.5374533"><ele>48.0</ele><time>2026-03-25T13:40:25.811Z</time></trkpt><trkpt lat="42.22555" lon="14.5375067"><ele>48.57142857142857</ele><time>2026-03-25T13:40:28.81Z</time></trkpt><trkpt lat="42.2254933" lon="14.5375533"><ele>49.14285714285714</ele><time>2026-03-25T13:40:30.81Z</time></trkpt><trkpt lat="42.2254117" lon="14.537625"><ele>49.71428571428571</ele><time>2026-03-25T13:40:33.81Z</time></trkpt><trkpt lat="42.2253683" lon="14.53769"><ele>50.285714285714285</ele><time>2026-03-25T13:40:35.81Z</time></trkpt><trkpt lat="42.2253333" lon="14.5377633"><ele>50.85714285714286</ele><time>2026-03-25T13:40:38.81Z</time></trkpt><trkpt lat="42.2252817" lon="14.537815"><ele>51.42857142857142</ele><time>2026-03-25T13:40:41.81Z</time></trkpt><trkpt lat="42.2252233" lon="14.5378667"><ele>52.0</ele><time>2026-03-25T13:40:44.81Z</time></trkpt><trkpt lat="42.225185" lon="14.5379483"><ele>53.49999999999999</ele><time>2026-03-25T13:40:46.81Z</time></trkpt><trkpt lat="42.22511" lon="14.538005"><ele>55.0</ele><time>2026-03-25T13:40:49.81Z</time></trkpt><trkpt lat="42.2250183" lon="14.5380483"><ele>56.5</ele><time>2026-03-25T13:40:52.81Z</time></trkpt><trkpt lat="42.22494" lon="14.5380767"><ele>58.0</ele><time>2026-03-25T13:40:55.81Z</time></trkpt><trkpt lat="42.2248783" lon="14.5381067"><ele>59.49999999999999</ele><time>2026-03-25T13:40:58.81Z</time></trkpt><trkpt lat="42.224805" lon="14.5381117"><ele>61.0</ele><time>2026-03-25T13:41:01.81Z</time></trkpt><trkpt lat="42.2247433" lon="14.53809"><ele>61.83333333333333</ele><time>2026-03-25T13:41:03.811Z</time></trkpt><trkpt lat="42.2246633" lon="14.5380683"><ele>62.666666666666664</ele><time>2026-03-25T13:41:05.81Z</time></trkpt><trkpt lat="42.22458" lon="14.538035"><ele>63.5</ele><time>2026-03-25T13:41:07.811Z</time></trkpt><trkpt lat="42.2245067" lon="14.5380017"><ele>64.33333333333333</ele><time>2026-03-25T13:41:09.81Z</time></trkpt><trkpt lat="42.2244367" lon="14.5379783"><ele>65.16666666666667</ele><time>2026-03-25T13:41:11.81Z</time></trkpt><trkpt lat="42.2243583" lon="14.5379483"><ele>66.0</ele><time>2026-03-25T13:41:13.81Z</time></trkpt><trkpt lat="42.2242867" lon="14.5379133"><ele>67.0</ele><time>2026-03-25T13:41:15.81Z</time></trkpt><trkpt lat="42.224225" lon="14.53788"><ele>68.0</ele><time>2026-03-25T13:41:17.81Z</time></trkpt><trkpt lat="42.2241633" lon="14.53785"><ele>69.0</ele><time>2026-03-25T13:41:19.81Z</time></trkpt><trkpt lat="42.2240933" lon="14.5377883"><ele>70.0</ele><time>2026-03-25T13:41:22.81Z</time></trkpt><trkpt lat="42.2240133" lon="14.537705"><ele>71.0</ele><time>2026-03-25T13:41:25.81Z</time></trkpt><trkpt lat="42.22394" lon="14.5376333"><ele>72.0</ele><time>2026-03-25T13:41:28.811Z</time></trkpt><trkpt lat="42.22388" lon="14.5375667"><ele>72.0</ele><time>2026-03-25T13:41:31.81Z</time></trkpt><trkpt lat="42.2238083" lon="14.537505"><ele>72.0</ele><time>2026-03-25T13:41:34.81Z</time></trkpt><trkpt lat="42.22374" lon="14.5374417"><ele>72.0</ele><time>2026-03-25T13:41:37.81Z</time></trkpt><trkpt lat="42.2236833" lon="14.537355"><ele>72.0</ele><time>2026-03-25T13:41:41.81Z</time></trkpt><trkpt lat="42.223625" lon="14.5372817"><ele>72.0</ele><time>2026-03-25T13:41:44.81Z</time></trkpt><trkpt lat="42.2235583" lon="14.537205"><ele>72.0</ele><time>2026-03-25T13:41:47.81Z</time></trkpt><trkpt lat="42.22351" lon="14.5371233"><ele>72.0</ele><time>2026-03-25T13:41:50.81Z</time></trkpt><trkpt lat="42.2234583" lon="14.5370683"><ele>72.0</ele><time>2026-03-25T13:41:52.81Z</time></trkpt><trkpt lat="42.223415" lon="14.5370017"><ele>72.0</ele><time>2026-03-25T13:41:54.81Z</time></trkpt><trkpt lat="42.2233583" lon="14.53693"><ele>72.0</ele><time>2026-03-25T13:41:56.81Z</time></trkpt><trkpt lat="42.2232867" lon="14.5368567"><ele>72.0</ele><time>2026-03-25T13:41:58.811Z</time></trkpt><trkpt lat="42.223215" lon="14.5368"><ele>72.0</ele><time>2026-03-25T13:42:00.811Z</time></trkpt><trkpt lat="42.2231417" lon="14.53674"><ele>72.0</ele><time>2026-03-25T13:42:02.81Z</time></trkpt><trkpt lat="42.2230617" lon="14.5366867"><ele>72.0</ele><time>2026-03-25T13:42:04.81Z</time></trkpt><trkpt lat="42.222995" lon="14.5366367"><ele>72.0</ele><time>2026-03-25T13:42:06.81Z</time></trkpt><trkpt lat="42.222935" lon="14.5365917"><ele>72.0</ele><time>2026-03-25T13:42:08.81Z</time></trkpt><trkpt lat="42.222885" lon="14.536535"><ele>72.0</ele><time>2026-03-25T13:42:11.811Z</time></trkpt><trkpt lat="42.2227933" lon="14.5365483"><ele>72.0</ele><time>2026-03-25T13:42:16.81Z</time></trkpt><trkpt lat="42.2227917" lon="14.536635"><ele>72.0</ele><time>2026-03-25T13:42:21.811Z</time></trkpt><trkpt lat="42.2228367" lon="14.5367067"><ele>72.0</ele><time>2026-03-25T13:42:25.81Z</time></trkpt><trkpt lat="42.2228783" lon="14.5367867"><ele>72.0</ele><time>2026-03-25T13:42:29.81Z</time></trkpt><trkpt lat="42.2229267" lon="14.5368733"><ele>72.0</ele><time>2026-03-25T13:42:32.81Z</time></trkpt><trkpt lat="42.2229667" lon="14.5369883"><ele>72.0</ele><time>2026-03-25T13:42:35.81Z</time></trkpt><trkpt lat="42.2230033" lon="14.537075"><ele>72.0</ele><time>2026-03-25T13:42:37.811Z</time></trkpt><trkpt lat="42.2230333" lon="14.5371667"><ele>72.0</ele><time>2026-03-25T13:42:39.81Z</time></trkpt><trkpt lat="42.2230667" lon="14.5372567"><ele>72.0</ele><time>2026-03-25T13:42:41.81Z</time></trkpt><trkpt lat="42.223105" lon="14.5373417"><ele>72.0</ele><time>2026-03-25T13:42:43.81Z</time></trkpt><trkpt lat="42.22315" lon="14.5374483"><ele>72.0</ele><time>2026-03-25T13:42:46.81Z</time></trkpt><trkpt lat="42.2231917" lon="14.5375367"><ele>72.0</ele><time>2026-03-25T13:42:48.81Z</time></trkpt><trkpt lat="42.22323" lon="14.53763"><ele>72.0</ele><time>2026-03-25T13:42:50.81Z</time></trkpt><trkpt lat="42.223255" lon="14.5377283"><ele>72.0</ele><time>2026-03-25T13:42:52.81Z</time></trkpt><trkpt lat="42.2232717" lon="14.53783"><ele>72.0</ele><time>2026-03-25T13:42:54.811Z</time></trkpt><trkpt lat="42.2232683" lon="14.5379883"><ele>72.0</ele><time>2026-03-25T13:42:57.811Z</time></trkpt><trkpt lat="42.2233183" lon="14.5381267"><ele>72.0</ele><time>2026-03-25T13:42:59.81Z</time></trkpt><trkpt lat="42.223375" lon="14.53823"><ele>72.0</ele><time>2026-03-25T13:43:01.81Z</time></trkpt><trkpt lat="42.22342" lon="14.5383417"><ele>73.0</ele><time>2026-03-25T13:43:03.81Z</time></trkpt><trkpt lat="42.2234867" lon="14.5384583"><ele>74.0</ele><time>2026-03-25T13:43:05.811Z</time></trkpt><trkpt lat="42.2235333" lon="14.5385833"><ele>75.0</ele><time>2026-03-25T13:43:07.81Z</time></trkpt><trkpt lat="42.2235833" lon="14.5387067"><ele>76.0</ele><time>2026-03-25T13:43:09.81Z</time></trkpt><trkpt lat="42.2236283" lon="14.5388233"><ele>77.0</ele><time>2026-03-25T13:43:11.81Z</time></trkpt><trkpt lat="42.2236633" lon="14.53893"><ele>76.83333333333334</ele><time>2026-03-25T13:43:13.81Z</time></trkpt><trkpt lat="42.223695" lon="14.5390367"><ele>76.66666666666667</ele><time>2026-03-25T13:43:15.81Z</time></trkpt><trkpt lat="42.223735" lon="14.53912"><ele>76.5</ele><time>2026-03-25T13:43:17.81Z</time></trkpt><trkpt lat="42.223795" lon="14.5392167"><ele>76.33333333333333</ele><time>2026-03-25T13:43:20.81Z</time></trkpt><trkpt lat="42.2238633" lon="14.53931"><ele>76.16666666666666</ele><time>2026-03-25T13:43:23.811Z</time></trkpt><trkpt lat="42.2239283" lon="14.539375"><ele>76.0</ele><time>2026-03-25T13:43:25.81Z</time></trkpt><trkpt lat="42.2240033" lon="14.5394517"><ele>76.0</ele><time>2026-03-25T13:43:27.81Z</time></trkpt><trkpt lat="42.2240833" lon="14.5395317"><ele>76.0</ele><time>2026-03-25T13:43:29.81Z</time></trkpt><trkpt lat="42.2241517" lon="14.5395833"><ele>76.0</ele><time>2026-03-25T13:43:31.81Z</time></trkpt><trkpt lat="42.2242167" lon="14.5396233"><ele>76.0</ele><time>2026-03-25T13:43:33.811Z</time></trkpt><trkpt lat="42.224305" lon="14.5396833"><ele>76.0</ele><time>2026-03-25T13:43:35.811Z</time></trkpt><trkpt lat="42.2244117" lon="14.5397333"><ele>76.33333333333333</ele><time>2026-03-25T13:43:37.81Z</time></trkpt><trkpt lat="42.2244783" lon="14.5397667"><ele>76.66666666666666</ele><time>2026-03-25T13:43:38.81Z</time></trkpt><trkpt lat="42.22457" lon="14.5398033"><ele>77.0</ele><time>2026-03-25T13:43:40.81Z</time></trkpt><trkpt lat="42.2246333" lon="14.5398333"><ele>77.33333333333333</ele><time>2026-03-25T13:43:42.811Z</time></trkpt><trkpt lat="42.22471" lon="14.53986"><ele>77.66666666666667</ele><time>2026-03-25T13:43:46.81Z</time></trkpt><trkpt lat="42.2247783" lon="14.5398817"><ele>78.0</ele><time>2026-03-25T13:43:49.81Z</time></trkpt><trkpt lat="42.22486" lon="14.5399083"><ele>78.0</ele><time>2026-03-25T13:43:52.81Z</time></trkpt><trkpt lat="42.22493" lon="14.5399367"><ele>78.0</ele><time>2026-03-25T13:43:54.81Z</time></trkpt><trkpt lat="42.2250117" lon="14.539965"><ele>78.0</ele><time>2026-03-25T13:43:57.81Z</time></trkpt><trkpt lat="42.2250767" lon="14.539975"><ele>78.0</ele><time>2026-03-25T13:43:59.81Z</time></trkpt><trkpt lat="42.225165" lon="14.5399767"><ele>78.0</ele><time>2026-03-25T13:44:02.81Z</time></trkpt><trkpt lat="42.22523" lon="14.5399617"><ele>78.0</ele><time>2026-03-25T13:44:04.81Z</time></trkpt><trkpt lat="42.2253067" lon="14.5399283"><ele>78.0</ele><time>2026-03-25T13:44:06.81Z</time></trkpt><trkpt lat="42.22538" lon="14.539885"><ele>78.0</ele><time>2026-03-25T13:44:08.81Z</time></trkpt><trkpt lat="42.2254617" lon="14.5398467"><ele>78.0</ele><time>2026-03-25T13:44:10.81Z</time></trkpt><trkpt lat="42.2255383" lon="14.5397983"><ele>78.0</ele><time>2026-03-25T13:44:12.81Z</time></trkpt><trkpt lat="42.2256217" lon="14.53975"><ele>78.0</ele><time>2026-03-25T13:44:15.81Z</time></trkpt><trkpt lat="42.2256817" lon="14.5397133"><ele>78.0</ele><time>2026-03-25T13:44:17.81Z</time></trkpt><trkpt lat="42.225755" lon="14.5397083"><ele>77.33333333333333</ele><time>2026-03-25T13:44:20.81Z</time></trkpt><trkpt lat="42.22584" lon="14.539745"><ele>76.66666666666667</ele><time>2026-03-25T13:44:23.81Z</time></trkpt><trkpt lat="42.2259033" lon="14.53978"><ele>76.0</ele><time>2026-03-25T13:44:25.81Z</time></trkpt><trkpt lat="42.2259817" lon="14.5398267"><ele>75.33333333333334</ele><time>2026-03-25T13:44:27.81Z</time></trkpt><trkpt lat="42.2260567" lon="14.5398733"><ele>74.66666666666667</ele><time>2026-03-25T13:44:29.81Z</time></trkpt><trkpt lat="42.22612" lon="14.5399033"><ele>74.0</ele><time>2026-03-25T13:44:31.81Z</time></trkpt><trkpt lat="42.2262" lon="14.5399517"><ele>74.0</ele><time>2026-03-25T13:44:34.811Z</time></trkpt><trkpt lat="42.2262617" lon="14.5399867"><ele>74.0</ele><time>2026-03-25T13:44:37.81Z</time></trkpt><trkpt lat="42.22633" lon="14.5400283"><ele>74.0</ele><time>2026-03-25T13:44:39.81Z</time></trkpt><trkpt lat="42.2264167" lon="14.5400533"><ele>74.0</ele><time>2026-03-25T13:44:42.811Z</time></trkpt><trkpt lat="42.2265017" lon="14.5400733"><ele>74.0</ele><time>2026-03-25T13:44:45.81Z</time></trkpt><trkpt lat="42.2265683" lon="14.54009"><ele>74.0</ele><time>2026-03-25T13:44:47.81Z</time></trkpt><trkpt lat="42.2266417" lon="14.5401117"><ele>74.14285714285714</ele><time>2026-03-25T13:44:49.81Z</time></trkpt><trkpt lat="42.2267133" lon="14.54014"><ele>74.28571428571428</ele><time>2026-03-25T13:44:51.81Z</time></trkpt><trkpt lat="42.226775" lon="14.5401717"><ele>74.42857142857142</ele><time>2026-03-25T13:44:53.81Z</time></trkpt><trkpt lat="42.2268333" lon="14.5402067"><ele>74.57142857142857</ele><time>2026-03-25T13:44:55.81Z</time></trkpt><trkpt lat="42.2269033" lon="14.5402467"><ele>74.71428571428571</ele><time>2026-03-25T13:44:57.81Z</time></trkpt><trkpt lat="42.2269733" lon="14.54028"><ele>74.85714285714285</ele><time>2026-03-25T13:44:59.81Z</time></trkpt><trkpt lat="42.2270417" lon="14.5403117"><ele>75.0</ele><time>2026-03-25T13:45:01.811Z</time></trkpt><trkpt lat="42.2271333" lon="14.5403667"><ele>76.5</ele><time>2026-03-25T13:45:04.811Z</time></trkpt><trkpt lat="42.227195" lon="14.5404033"><ele>78.0</ele><time>2026-03-25T13:45:06.81Z</time></trkpt><trkpt lat="42.2272633" lon="14.5404433"><ele>79.5</ele><time>2026-03-25T13:45:08.81Z</time></trkpt><trkpt lat="42.2273317" lon="14.5404783"><ele>81.0</ele><time>2026-03-25T13:45:10.81Z</time></trkpt><trkpt lat="42.22742" lon="14.5405183"><ele>82.5</ele><time>2026-03-25T13:45:13.81Z</time></trkpt><trkpt lat="42.2274817" lon="14.5405617"><ele>84.0</ele><time>2026-03-25T13:45:15.811Z</time></trkpt><trkpt lat="42.2275483" lon="14.540605"><ele>84.0</ele><time>2026-03-25T13:45:17.81Z</time></trkpt><trkpt lat="42.2276183" lon="14.5406567"><ele>84.0</ele><time>2026-03-25T13:45:19.81Z</time></trkpt><trkpt lat="42.2276883" lon="14.54072"><ele>84.0</ele><time>2026-03-25T13:45:21.81Z</time></trkpt><trkpt lat="42.2277483" lon="14.5407733"><ele>84.0</ele><time>2026-03-25T13:45:23.81Z</time></trkpt><trkpt lat="42.2278067" lon="14.540825"><ele>84.0</ele><time>2026-03-25T13:45:25.81Z</time></trkpt><trkpt lat="42.2278817" lon="14.5408817"><ele>84.0</ele><time>2026-03-25T13:45:27.81Z</time></trkpt><trkpt lat="42.227975" lon="14.5409467"><ele>84.0</ele><time>2026-03-25T13:45:29.81Z</time></trkpt><trkpt lat="42.2280833" lon="14.5410017"><ele>84.0</ele><time>2026-03-25T13:45:31.811Z</time></trkpt><trkpt lat="42.2281883" lon="14.541065"><ele>84.0</ele><time>2026-03-25T13:45:33.81Z</time></trkpt><trkpt lat="42.228285" lon="14.54113"><ele>84.0</ele><time>2026-03-25T13:45:35.81Z</time></trkpt><trkpt lat="42.228365" lon="14.54122"><ele>84.0</ele><time>2026-03-25T13:45:37.81Z</time></trkpt><trkpt lat="42.2284267" lon="14.5413283"><ele>84.33333333333333</ele><time>2026-03-25T13:45:39.81Z</time></trkpt><trkpt lat="42.2284667" lon="14.5414117"><ele>84.66666666666667</ele><time>2026-03-25T13:45:41.81Z</time></trkpt><trkpt lat="42.2285133" lon="14.5414867"><ele>85.0</ele><time>2026-03-25T13:45:43.81Z</time></trkpt><trkpt lat="42.2285583" lon="14.5415517"><ele>85.33333333333334</ele><time>2026-03-25T13:45:45.81Z</time></trkpt><trkpt lat="42.2286067" lon="14.5416383"><ele>85.66666666666667</ele><time>2026-03-25T13:45:48.81Z</time></trkpt><trkpt lat="42.22865" lon="14.5417217"><ele>86.0</ele><time>2026-03-25T13:45:51.81Z</time></trkpt><trkpt lat="42.2287117" lon="14.5418133"><ele>86.0</ele><time>2026-03-25T13:45:54.811Z</time></trkpt><trkpt lat="42.22877" lon="14.54189"><ele>86.0</ele><time>2026-03-25T13:45:57.811Z</time></trkpt><trkpt lat="42.2288333" lon="14.5419467"><ele>86.0</ele><time>2026-03-25T13:46:00.811Z</time></trkpt><trkpt lat="42.228885" lon="14.54201"><ele>86.0</ele><time>2026-03-25T13:46:03.81Z</time></trkpt><trkpt lat="42.2289483" lon="14.5420633"><ele>86.0</ele><time>2026-03-25T13:46:05.811Z</time></trkpt><trkpt lat="42.2290167" lon="14.5421317"><ele>86.0</ele><time>2026-03-25T13:46:07.811Z</time></trkpt><trkpt lat="42.2290617" lon="14.542195"><ele>85.8</ele><time>2026-03-25T13:46:09.81Z</time></trkpt><trkpt lat="42.2291167" lon="14.5422517"><ele>85.6</ele><time>2026-03-25T13:46:11.81Z</time></trkpt><trkpt lat="42.2291633" lon="14.5423367"><ele>85.4</ele><time>2026-03-25T13:46:14.81Z</time></trkpt><trkpt lat="42.2291983" lon="14.5424267"><ele>85.2</ele><time>2026-03-25T13:46:16.81Z</time></trkpt><trkpt lat="42.2292917" lon="14.54258"><ele>85.0</ele><time>2026-03-25T13:46:28.811Z</time></trkpt><trkpt lat="42.2293783" lon="14.5425083"><ele>85.0</ele><time>2026-03-25T13:47:33.056Z</time></trkpt><trkpt lat="42.229345" lon="14.5425817"><ele>85.0</ele><time>2026-03-25T13:47:36.309Z</time></trkpt><trkpt lat="42.2292817" lon="14.54262"><ele>85.0</ele><time>2026-03-25T13:47:50.808Z</time></trkpt><trkpt lat="42.2292383" lon="14.5426967"><ele>85.0</ele><time>2026-03-25T13:47:54.808Z</time></trkpt><trkpt lat="42.2291983" lon="14.542765"><ele>85.0</ele><time>2026-03-25T13:47:57.808Z</time></trkpt><trkpt lat="42.229155" lon="14.5428333"><ele>85.0</ele><time>2026-03-25T13:48:00.808Z</time></trkpt><trkpt lat="42.2291033" lon="14.54291"><ele>85.0</ele><time>2026-03-25T13:48:04.809Z</time></trkpt><trkpt lat="42.229035" lon="14.5429633"><ele>85.66666666666666</ele><time>2026-03-25T13:48:07.809Z</time></trkpt><trkpt lat="42.228975" lon="14.543015"><ele>86.33333333333333</ele><time>2026-03-25T13:48:10.808Z</time></trkpt><trkpt lat="42.22892" lon="14.543065"><ele>87.0</ele><time>2026-03-25T13:48:13.808Z</time></trkpt><trkpt lat="42.2288667" lon="14.5431367"><ele>87.66666666666667</ele><time>2026-03-25T13:48:16.808Z</time></trkpt><trkpt lat="42.2287867" lon="14.5432133"><ele>88.33333333333334</ele><time>2026-03-25T13:48:19.808Z</time></trkpt><trkpt lat="42.2287217" lon="14.5432667"><ele>89.0</ele><time>2026-03-25T13:48:21.808Z</time></trkpt><trkpt lat="42.2286433" lon="14.5433367"><ele>89.0</ele><time>2026-03-25T13:48:23.808Z</time></trkpt><trkpt lat="42.2285983" lon="14.5434183"><ele>89.0</ele><time>2026-03-25T13:48:26.808Z</time></trkpt><trkpt lat="42.22856" lon="14.5435167"><ele>89.0</ele><time>2026-03-25T13:48:30.808Z</time></trkpt><trkpt lat="42.2284333" lon="14.5435717"><ele>89.0</ele><time>2026-03-25T13:48:31.808Z</time></trkpt><trkpt lat="42.2283667" lon="14.5436517"><ele>89.0</ele><time>2026-03-25T13:48:34.808Z</time></trkpt><trkpt lat="42.228325" lon="14.543725"><ele>89.0</ele><time>2026-03-25T13:48:37.808Z</time></trkpt><trkpt lat="42.228285" lon="14.5438017"><ele>88.16666666666667</ele><time>2026-03-25T13:48:42.808Z</time></trkpt><trkpt lat="42.2282233" lon="14.5438583"><ele>87.33333333333334</ele><time>2026-03-25T13:48:48.808Z</time></trkpt><trkpt lat="42.22815" lon="14.5438817"><ele>86.5</ele><time>2026-03-25T13:48:51.808Z</time></trkpt><trkpt lat="42.2280517" lon="14.5439117"><ele>85.66666666666667</ele><time>2026-03-25T13:48:54.808Z</time></trkpt><trkpt lat="42.22798" lon="14.5439367"><ele>84.83333333333333</ele><time>2026-03-25T13:48:56.808Z</time></trkpt><trkpt lat="42.2278967" lon="14.54396"><ele>84.0</ele><time>2026-03-25T13:48:58.808Z</time></trkpt><trkpt lat="42.2277783" lon="14.5439867"><ele>84.0</ele><time>2026-03-25T13:49:00.809Z</time></trkpt><trkpt lat="42.2277117" lon="14.5440283"><ele>84.0</ele><time>2026-03-25T13:49:02.808Z</time></trkpt><trkpt lat="42.227625" lon="14.5440783"><ele>84.0</ele><time>2026-03-25T13:49:04.808Z</time></trkpt><trkpt lat="42.227555" lon="14.54419"><ele>84.0</ele><time>2026-03-25T13:49:07.808Z</time></trkpt><trkpt lat="42.2274833" lon="14.5443"><ele>84.0</ele><time>2026-03-25T13:49:09.808Z</time></trkpt><trkpt lat="42.227425" lon="14.5444033"><ele>84.0</ele><time>2026-03-25T13:49:11.808Z</time></trkpt><trkpt lat="42.2273567" lon="14.5445"><ele>84.0</ele><time>2026-03-25T13:49:13.808Z</time></trkpt><trkpt lat="42.227285" lon="14.5445833"><ele>84.0</ele><time>2026-03-25T13:49:15.808Z</time></trkpt><trkpt lat="42.2271933" lon="14.5446667"><ele>84.0</ele><time>2026-03-25T13:49:17.808Z</time></trkpt><trkpt lat="42.227135" lon="14.5447133"><ele>84.0</ele><time>2026-03-25T13:49:18.808Z</time></trkpt><trkpt lat="42.2270667" lon="14.5447867"><ele>85.33333333333333</ele><time>2026-03-25T13:49:20.808Z</time></trkpt><trkpt lat="42.2270017" lon="14.54487"><ele>86.66666666666667</ele><time>2026-03-25T13:49:22.808Z</time></trkpt><trkpt lat="42.226935" lon="14.54495"><ele>88.0</ele><time>2026-03-25T13:49:24.808Z</time></trkpt><trkpt lat="42.22688" lon="14.5450367"><ele>89.33333333333334</ele><time>2026-03-25T13:49:26.808Z</time></trkpt><trkpt lat="42.2268517" lon="14.5451217"><ele>90.66666666666667</ele><time>2026-03-25T13:49:28.809Z</time></trkpt><trkpt lat="42.2267967" lon="14.54524"><ele>92.0</ele><time>2026-03-25T13:49:31.809Z</time></trkpt><trkpt lat="42.22676" lon="14.545315"><ele>93.0</ele><time>2026-03-25T13:49:33.808Z</time></trkpt><trkpt lat="42.22671" lon="14.54541"><ele>94.0</ele><time>2026-03-25T13:49:35.809Z</time></trkpt><trkpt lat="42.22665" lon="14.5454967"><ele>95.0</ele><time>2026-03-25T13:49:37.808Z</time></trkpt><trkpt lat="42.2265867" lon="14.5456033"><ele>96.0</ele><time>2026-03-25T13:49:39.808Z</time></trkpt><trkpt lat="42.2265283" lon="14.5457083"><ele>97.0</ele><time>2026-03-25T13:49:41.809Z</time></trkpt><trkpt lat="42.2264717" lon="14.5458167"><ele>97.0</ele><time>2026-03-25T13:49:43.808Z</time></trkpt><trkpt lat="42.2264117" lon="14.5459283"><ele>97.0</ele><time>2026-03-25T13:49:45.808Z</time></trkpt><trkpt lat="42.2263433" lon="14.5460367"><ele>97.0</ele><time>2026-03-25T13:49:47.809Z</time></trkpt><trkpt lat="42.2262817" lon="14.54615"><ele>97.0</ele><time>2026-03-25T13:49:49.808Z</time></trkpt><trkpt lat="42.2262083" lon="14.5462733"><ele>97.0</ele><time>2026-03-25T13:49:51.808Z</time></trkpt><trkpt lat="42.2261317" lon="14.5463717"><ele>95.66666666666667</ele><time>2026-03-25T13:49:53.808Z</time></trkpt><trkpt lat="42.2260817" lon="14.5464283"><ele>94.33333333333334</ele><time>2026-03-25T13:49:54.809Z</time></trkpt><trkpt lat="42.2260283" lon="14.546485"><ele>93.0</ele><time>2026-03-25T13:49:55.809Z</time></trkpt><trkpt lat="42.2259467" lon="14.5465733"><ele>91.66666666666667</ele><time>2026-03-25T13:49:57.808Z</time></trkpt><trkpt lat="42.22588" lon="14.5466567"><ele>90.33333333333334</ele><time>2026-03-25T13:49:59.808Z</time></trkpt><trkpt lat="42.2258333" lon="14.546725"><ele>89.0</ele><time>2026-03-25T13:50:01.808Z</time></trkpt><trkpt lat="42.2257967" lon="14.546795"><ele>89.0</ele><time>2026-03-25T13:50:03.808Z</time></trkpt><trkpt lat="42.225755" lon="14.546865"><ele>89.0</ele><time>2026-03-25T13:50:05.808Z</time></trkpt><trkpt lat="42.2256917" lon="14.546965"><ele>89.0</ele><time>2026-03-25T13:50:08.808Z</time></trkpt><trkpt lat="42.2256383" lon="14.547045"><ele>89.0</ele><time>2026-03-25T13:50:10.808Z</time></trkpt><trkpt lat="42.2255983" lon="14.5471183"><ele>89.0</ele><time>2026-03-25T13:50:12.808Z</time></trkpt><trkpt lat="42.2255533" lon="14.54719"><ele>89.0</ele><time>2026-03-25T13:50:14.808Z</time></trkpt><trkpt lat="42.225505" lon="14.547265"><ele>90.66666666666667</ele><time>2026-03-25T13:50:16.809Z</time></trkpt><trkpt lat="42.225445" lon="14.5473433"><ele>92.33333333333334</ele><time>2026-03-25T13:50:18.809Z</time></trkpt><trkpt lat="42.2253967" lon="14.54742"><ele>94.0</ele><time>2026-03-25T13:50:20.809Z</time></trkpt><trkpt lat="42.22535" lon="14.5475067"><ele>95.66666666666667</ele><time>2026-03-25T13:50:22.808Z</time></trkpt><trkpt lat="42.2253017" lon="14.5476033"><ele>97.33333333333333</ele><time>2026-03-25T13:50:25.808Z</time></trkpt><trkpt lat="42.2252433" lon="14.5476967"><ele>99.0</ele><time>2026-03-25T13:50:28.808Z</time></trkpt><trkpt lat="42.2251983" lon="14.547795"><ele>97.66666666666667</ele><time>2026-03-25T13:50:31.808Z</time></trkpt><trkpt lat="42.2251467" lon="14.547905"><ele>96.33333333333333</ele><time>2026-03-25T13:50:34.808Z</time></trkpt><trkpt lat="42.225095" lon="14.5479883"><ele>95.0</ele><time>2026-03-25T13:50:36.808Z</time></trkpt><trkpt lat="42.2250483" lon="14.548085"><ele>93.66666666666666</ele><time>2026-03-25T13:50:38.808Z</time></trkpt><trkpt lat="42.225025" lon="14.5481733"><ele>92.33333333333333</ele><time>2026-03-25T13:50:39.808Z</time></trkpt><trkpt lat="42.2249933" lon="14.5483017"><ele>91.0</ele><time>2026-03-25T13:50:41.808Z</time></trkpt><trkpt lat="42.224955" lon="14.5483833"><ele>91.0</ele><time>2026-03-25T13:50:43.808Z</time></trkpt><trkpt lat="42.2249067" lon="14.54849"><ele>91.0</ele><time>2026-03-25T13:50:45.808Z</time></trkpt><trkpt lat="42.2248583" lon="14.548615"><ele>91.0</ele><time>2026-03-25T13:50:47.808Z</time></trkpt><trkpt lat="42.22481" lon="14.5487567"><ele>91.0</ele><time>2026-03-25T13:50:49.808Z</time></trkpt><trkpt lat="42.2247533" lon="14.5488617"><ele>91.0</ele><time>2026-03-25T13:50:51.808Z</time></trkpt><trkpt lat="42.224705" lon="14.5489733"><ele>90.83333333333333</ele><time>2026-03-25T13:50:53.808Z</time></trkpt><trkpt lat="42.2246467" lon="14.54907"><ele>90.66666666666666</ele><time>2026-03-25T13:50:55.808Z</time></trkpt><trkpt lat="42.2245933" lon="14.5491767"><ele>90.5</ele><time>2026-03-25T13:50:57.808Z</time></trkpt><trkpt lat="42.224545" lon="14.5492767"><ele>90.33333333333333</ele><time>2026-03-25T13:50:59.808Z</time></trkpt><trkpt lat="42.2244983" lon="14.54936"><ele>90.16666666666667</ele><time>2026-03-25T13:51:01.808Z</time></trkpt><trkpt lat="42.224455" lon="14.5494383"><ele>90.0</ele><time>2026-03-25T13:51:03.809Z</time></trkpt><trkpt lat="42.2244083" lon="14.5495567"><ele>90.0</ele><time>2026-03-25T13:51:05.808Z</time></trkpt><trkpt lat="42.22435" lon="14.5496633"><ele>90.0</ele><time>2026-03-25T13:51:07.808Z</time></trkpt><trkpt lat="42.2243067" lon="14.5497417"><ele>90.0</ele><time>2026-03-25T13:51:08.808Z</time></trkpt><trkpt lat="42.2242417" lon="14.549835"><ele>90.0</ele><time>2026-03-25T13:51:10.808Z</time></trkpt><trkpt lat="42.2241767" lon="14.5499567"><ele>90.0</ele><time>2026-03-25T13:51:12.808Z</time></trkpt><trkpt lat="42.22411" lon="14.5500483"><ele>90.0</ele><time>2026-03-25T13:51:14.808Z</time></trkpt><trkpt lat="42.2240383" lon="14.550135"><ele>90.0</ele><time>2026-03-25T13:51:16.808Z</time></trkpt><trkpt lat="42.2239633" lon="14.550225"><ele>90.0</ele><time>2026-03-25T13:51:18.808Z</time></trkpt><trkpt lat="42.2238967" lon="14.5503283"><ele>90.0</ele><time>2026-03-25T13:51:20.808Z</time></trkpt><trkpt lat="42.2238517" lon="14.550435"><ele>90.0</ele><time>2026-03-25T13:51:22.808Z</time></trkpt><trkpt lat="42.2238383" lon="14.55053"><ele>92.4</ele><time>2026-03-25T13:51:24.808Z</time></trkpt><trkpt lat="42.2238433" lon="14.550655"><ele>94.8</ele><time>2026-03-25T13:51:27.809Z</time></trkpt><trkpt lat="42.2238117" lon="14.5507683"><ele>97.19999999999999</ele><time>2026-03-25T13:51:29.808Z</time></trkpt><trkpt lat="42.2237817" lon="14.55086"><ele>99.6</ele><time>2026-03-25T13:51:31.808Z</time></trkpt><trkpt lat="42.2237167" lon="14.5509817"><ele>102.0</ele><time>2026-03-25T13:51:33.808Z</time></trkpt><trkpt lat="42.22365" lon="14.5510983"><ele>102.0</ele><time>2026-03-25T13:51:35.809Z</time></trkpt><trkpt lat="42.223595" lon="14.5512067"><ele>102.0</ele><time>2026-03-25T13:51:37.808Z</time></trkpt><trkpt lat="42.2235183" lon="14.55133"><ele>102.0</ele><time>2026-03-25T13:51:39.808Z</time></trkpt><trkpt lat="42.22346" lon="14.5514483"><ele>102.0</ele><time>2026-03-25T13:51:41.808Z</time></trkpt><trkpt lat="42.2234183" lon="14.5515283"><ele>102.0</ele><time>2026-03-25T13:51:42.808Z</time></trkpt><trkpt lat="42.223375" lon="14.551595"><ele>102.6</ele><time>2026-03-25T13:51:43.809Z</time></trkpt><trkpt lat="42.2233267" lon="14.5516817"><ele>103.19999999999999</ele><time>2026-03-25T13:51:45.808Z</time></trkpt><trkpt lat="42.2232767" lon="14.5517817"><ele>103.8</ele><time>2026-03-25T13:51:47.808Z</time></trkpt><trkpt lat="42.223215" lon="14.551905"><ele>104.4</ele><time>2026-03-25T13:51:49.808Z</time></trkpt><trkpt lat="42.2231667" lon="14.5520133"><ele>105.0</ele><time>2026-03-25T13:51:51.808Z</time></trkpt><trkpt lat="42.2231117" lon="14.5521517"><ele>105.0</ele><time>2026-03-25T13:51:53.808Z</time></trkpt><trkpt lat="42.2230783" lon="14.5522267"><ele>105.0</ele><time>2026-03-25T13:51:54.808Z</time></trkpt><trkpt lat="42.2230183" lon="14.5523617"><ele>105.0</ele><time>2026-03-25T13:51:56.809Z</time></trkpt><trkpt lat="42.2229567" lon="14.5524717"><ele>105.0</ele><time>2026-03-25T13:51:58.808Z</time></trkpt><trkpt lat="42.222915" lon="14.5525733"><ele>105.0</ele><time>2026-03-25T13:52:00.808Z</time></trkpt><trkpt lat="42.2228767" lon="14.5526667"><ele>105.0</ele><time>2026-03-25T13:52:02.808Z</time></trkpt><trkpt lat="42.2228467" lon="14.55279"><ele>103.8</ele><time>2026-03-25T13:52:05.808Z</time></trkpt><trkpt lat="42.222795" lon="14.5529183"><ele>102.6</ele><time>2026-03-25T13:52:07.808Z</time></trkpt><trkpt lat="42.2227633" lon="14.553045"><ele>101.4</ele><time>2026-03-25T13:52:09.808Z</time></trkpt><trkpt lat="42.2227233" lon="14.55314"><ele>100.2</ele><time>2026-03-25T13:52:10.808Z</time></trkpt><trkpt lat="42.222695" lon="14.5532583"><ele>99.0</ele><time>2026-03-25T13:52:11.808Z</time></trkpt><trkpt lat="42.2226717" lon="14.5534033"><ele>99.0</ele><time>2026-03-25T13:52:13.808Z</time></trkpt><trkpt lat="42.22263" lon="14.5535883"><ele>99.0</ele><time>2026-03-25T13:52:15.808Z</time></trkpt><trkpt lat="42.2226117" lon="14.55377"><ele>99.0</ele><time>2026-03-25T13:52:17.809Z</time></trkpt><trkpt lat="42.2226167" lon="14.5539533"><ele>99.0</ele><time>2026-03-25T13:52:19.808Z</time></trkpt><trkpt lat="42.2226217" lon="14.55411"><ele>98.28571428571429</ele><time>2026-03-25T13:52:20.809Z</time></trkpt><trkpt lat="42.2226283" lon="14.5542033"><ele>97.57142857142857</ele><time>2026-03-25T13:52:21.808Z</time></trkpt><trkpt lat="42.2226233" lon="14.55429"><ele>96.85714285714286</ele><time>2026-03-25T13:52:22.808Z</time></trkpt><trkpt lat="42.222615" lon="14.5543783"><ele>96.14285714285714</ele><time>2026-03-25T13:52:23.808Z</time></trkpt><trkpt lat="42.222615" lon="14.55448"><ele>95.42857142857142</ele><time>2026-03-25T13:52:24.808Z</time></trkpt><trkpt lat="42.2226083" lon="14.554575"><ele>94.71428571428571</ele><time>2026-03-25T13:52:25.808Z</time></trkpt><trkpt lat="42.2225967" lon="14.5546817"><ele>94.0</ele><time>2026-03-25T13:52:26.808Z</time></trkpt><trkpt lat="42.2225817" lon="14.5547717"><ele>93.16666666666666</ele><time>2026-03-25T13:52:27.808Z</time></trkpt><trkpt lat="42.222585" lon="14.55487"><ele>92.33333333333333</ele><time>2026-03-25T13:52:28.808Z</time></trkpt><trkpt lat="42.2225933" lon="14.5549933"><ele>91.5</ele><time>2026-03-25T13:52:29.808Z</time></trkpt><trkpt lat="42.222595" lon="14.5550833"><ele>90.66666666666667</ele><time>2026-03-25T13:52:30.809Z</time></trkpt><trkpt lat="42.22258" lon="14.555225"><ele>89.83333333333334</ele><time>2026-03-25T13:52:32.808Z</time></trkpt><trkpt lat="42.2225717" lon="14.5553267"><ele>89.0</ele><time>2026-03-25T13:52:33.808Z</time></trkpt><trkpt lat="42.2225633" lon="14.5554517"><ele>88.0</ele><time>2026-03-25T13:52:34.809Z</time></trkpt><trkpt lat="42.22252" lon="14.5556033"><ele>87.0</ele><time>2026-03-25T13:52:36.808Z</time></trkpt><trkpt lat="42.2224817" lon="14.5557033"><ele>86.0</ele><time>2026-03-25T13:52:38.808Z</time></trkpt><trkpt lat="42.2224483" lon="14.5558267"><ele>85.0</ele><time>2026-03-25T13:52:40.808Z</time></trkpt><trkpt lat="42.2223783" lon="14.5559367"><ele>84.0</ele><time>2026-03-25T13:52:42.808Z</time></trkpt><trkpt lat="42.2223217" lon="14.556025"><ele>84.0</ele><time>2026-03-25T13:52:44.808Z</time></trkpt><trkpt lat="42.2222517" lon="14.55613"><ele>84.0</ele><time>2026-03-25T13:52:46.808Z</time></trkpt><trkpt lat="42.22217" lon="14.5562367"><ele>84.0</ele><time>2026-03-25T13:52:48.808Z</time></trkpt><trkpt lat="42.22212" lon="14.55629"><ele>84.0</ele><time>2026-03-25T13:52:49.808Z</time></trkpt><trkpt lat="42.222055" lon="14.55637"><ele>84.0</ele><time>2026-03-25T13:52:51.809Z</time></trkpt><trkpt lat="42.2219967" lon="14.5564517"><ele>84.0</ele><time>2026-03-25T13:52:53.808Z</time></trkpt><trkpt lat="42.2219233" lon="14.55656"><ele>84.0</ele><time>2026-03-25T13:52:55.808Z</time></trkpt><trkpt lat="42.2218533" lon="14.5566767"><ele>84.0</ele><time>2026-03-25T13:52:57.808Z</time></trkpt><trkpt lat="42.2217833" lon="14.5567983"><ele>84.0</ele><time>2026-03-25T13:52:59.808Z</time></trkpt><trkpt lat="42.2217517" lon="14.556875"><ele>84.0</ele><time>2026-03-25T13:53:00.808Z</time></trkpt><trkpt lat="42.22174" lon="14.557"><ele>81.60000000000001</ele><time>2026-03-25T13:53:03.808Z</time></trkpt><trkpt lat="42.2217333" lon="14.557095"><ele>79.2</ele><time>2026-03-25T13:53:05.809Z</time></trkpt><trkpt lat="42.2216933" lon="14.5572283"><ele>76.80000000000001</ele><time>2026-03-25T13:53:07.808Z</time></trkpt><trkpt lat="42.2216767" lon="14.5573133"><ele>74.4</ele><time>2026-03-25T13:53:08.809Z</time></trkpt><trkpt lat="42.2216317" lon="14.5574517"><ele>72.0</ele><time>2026-03-25T13:53:10.808Z</time></trkpt><trkpt lat="42.2216067" lon="14.5576167"><ele>72.0</ele><time>2026-03-25T13:53:12.809Z</time></trkpt><trkpt lat="42.221585" lon="14.5578"><ele>72.0</ele><time>2026-03-25T13:53:14.808Z</time></trkpt><trkpt lat="42.221575" lon="14.557885"><ele>72.0</ele><time>2026-03-25T13:53:15.808Z</time></trkpt><trkpt lat="42.2215617" lon="14.558055"><ele>72.0</ele><time>2026-03-25T13:53:17.809Z</time></trkpt><trkpt lat="42.2215433" lon="14.5581983"><ele>72.0</ele><time>2026-03-25T13:53:19.808Z</time></trkpt><trkpt lat="42.2215183" lon="14.5583367"><ele>71.5</ele><time>2026-03-25T13:53:21.808Z</time></trkpt><trkpt lat="42.2214983" lon="14.5584933"><ele>71.0</ele><time>2026-03-25T13:53:23.808Z</time></trkpt><trkpt lat="42.2214883" lon="14.5585833"><ele>70.5</ele><time>2026-03-25T13:53:24.808Z</time></trkpt><trkpt lat="42.2214817" lon="14.5586783"><ele>70.0</ele><time>2026-03-25T13:53:25.808Z</time></trkpt><trkpt lat="42.22147" lon="14.5587667"><ele>69.5</ele><time>2026-03-25T13:53:26.808Z</time></trkpt><trkpt lat="42.2214683" lon="14.5588633"><ele>69.0</ele><time>2026-03-25T13:53:27.808Z</time></trkpt><trkpt lat="42.221465" lon="14.5589583"><ele>69.60000000000001</ele><time>2026-03-25T13:53:28.808Z</time></trkpt><trkpt lat="42.2214617" lon="14.5590533"><ele>70.2</ele><time>2026-03-25T13:53:29.808Z</time></trkpt><trkpt lat="42.2214633" lon="14.5592517"><ele>70.80000000000001</ele><time>2026-03-25T13:53:31.808Z</time></trkpt><trkpt lat="42.2214533" lon="14.5594017"><ele>71.4</ele><time>2026-03-25T13:53:32.808Z</time></trkpt><trkpt lat="42.221435" lon="14.55954"><ele>72.0</ele><time>2026-03-25T13:53:33.808Z</time></trkpt><trkpt lat="42.2214183" lon="14.5596433"><ele>72.0</ele><time>2026-03-25T13:53:34.808Z</time></trkpt><trkpt lat="42.2214" lon="14.5597433"><ele>72.0</ele><time>2026-03-25T13:53:35.808Z</time></trkpt><trkpt lat="42.221395" lon="14.55984"><ele>72.0</ele><time>2026-03-25T13:53:36.809Z</time></trkpt><trkpt lat="42.2213917" lon="14.55997"><ele>72.0</ele><time>2026-03-25T13:53:37.808Z</time></trkpt><trkpt lat="42.2213717" lon="14.56006"><ele>72.0</ele><time>2026-03-25T13:53:38.809Z</time></trkpt><trkpt lat="42.221345" lon="14.56017"><ele>72.0</ele><time>2026-03-25T13:53:39.808Z</time></trkpt><trkpt lat="42.2212983" lon="14.5602717"><ele>72.0</ele><time>2026-03-25T13:53:40.808Z</time></trkpt><trkpt lat="42.2212633" lon="14.5603433"><ele>72.0</ele><time>2026-03-25T13:53:41.808Z</time></trkpt><trkpt lat="42.2212217" lon="14.5604083"><ele>72.0</ele><time>2026-03-25T13:53:42.809Z</time></trkpt><trkpt lat="42.2211967" lon="14.5605083"><ele>72.0</ele><time>2026-03-25T13:53:43.808Z</time></trkpt><trkpt lat="42.2211533" lon="14.5606067"><ele>72.0</ele><time>2026-03-25T13:53:44.808Z</time></trkpt><trkpt lat="42.2211217" lon="14.5606933"><ele>72.0</ele><time>2026-03-25T13:53:45.808Z</time></trkpt><trkpt lat="42.2210617" lon="14.56082"><ele>70.6</ele><time>2026-03-25T13:53:47.809Z</time></trkpt><trkpt lat="42.221035" lon="14.5609283"><ele>69.2</ele><time>2026-03-25T13:53:49.808Z</time></trkpt><trkpt lat="42.2209967" lon="14.5610333"><ele>67.8</ele><time>2026-03-25T13:53:51.808Z</time></trkpt><trkpt lat="42.22095" lon="14.561135"><ele>66.4</ele><time>2026-03-25T13:53:53.808Z</time></trkpt><trkpt lat="42.2209083" lon="14.5612267"><ele>65.0</ele><time>2026-03-25T13:53:55.808Z</time></trkpt><trkpt lat="42.220845" lon="14.5613567"><ele>65.8</ele><time>2026-03-25T13:53:57.808Z</time></trkpt><trkpt lat="42.2208033" lon="14.5614617"><ele>66.6</ele><time>2026-03-25T13:53:58.809Z</time></trkpt><trkpt lat="42.220755" lon="14.56152"><ele>67.4</ele><time>2026-03-25T13:54:00.808Z</time></trkpt><trkpt lat="42.2206683" lon="14.5616317"><ele>68.2</ele><time>2026-03-25T13:54:03.808Z</time></trkpt><trkpt lat="42.220615" lon="14.56176"><ele>69.0</ele><time>2026-03-25T13:54:05.809Z</time></trkpt><trkpt lat="42.2205633" lon="14.561875"><ele>69.0</ele><time>2026-03-25T13:54:07.808Z</time></trkpt><trkpt lat="42.2205033" lon="14.5619767"><ele>69.0</ele><time>2026-03-25T13:54:09.808Z</time></trkpt><trkpt lat="42.2204367" lon="14.5620817"><ele>69.0</ele><time>2026-03-25T13:54:11.808Z</time></trkpt><trkpt lat="42.22037" lon="14.5621883"><ele>69.0</ele><time>2026-03-25T13:54:13.808Z</time></trkpt><trkpt lat="42.2203117" lon="14.562295"><ele>69.0</ele><time>2026-03-25T13:54:15.808Z</time></trkpt><trkpt lat="42.220255" lon="14.5623983"><ele>68.16666666666667</ele><time>2026-03-25T13:54:17.809Z</time></trkpt><trkpt lat="42.2202167" lon="14.5624967"><ele>67.33333333333333</ele><time>2026-03-25T13:54:19.808Z</time></trkpt><trkpt lat="42.2201883" lon="14.5625967"><ele>66.5</ele><time>2026-03-25T13:54:21.808Z</time></trkpt><trkpt lat="42.220155" lon="14.5626917"><ele>65.66666666666666</ele><time>2026-03-25T13:54:23.808Z</time></trkpt><trkpt lat="42.22012" lon="14.5627817"><ele>64.83333333333333</ele><time>2026-03-25T13:54:25.809Z</time></trkpt><trkpt lat="42.22009" lon="14.5628733"><ele>64.0</ele><time>2026-03-25T13:54:27.808Z</time></trkpt><trkpt lat="42.220065" lon="14.5629667"><ele>63.400000000000006</ele><time>2026-03-25T13:54:29.808Z</time></trkpt><trkpt lat="42.2200383" lon="14.5631083"><ele>62.800000000000004</ele><time>2026-03-25T13:54:31.808Z</time></trkpt><trkpt lat="42.2200017" lon="14.563245"><ele>62.199999999999996</ele><time>2026-03-25T13:54:33.809Z</time></trkpt><trkpt lat="42.2199717" lon="14.5633283"><ele>61.599999999999994</ele><time>2026-03-25T13:54:34.809Z</time></trkpt><trkpt lat="42.2199333" lon="14.5634433"><ele>61.0</ele><time>2026-03-25T13:54:36.808Z</time></trkpt><trkpt lat="42.2199" lon="14.5635767"><ele>60.4</ele><time>2026-03-25T13:54:38.808Z</time></trkpt><trkpt lat="42.2198583" lon="14.5637117"><ele>59.8</ele><time>2026-03-25T13:54:40.808Z</time></trkpt><trkpt lat="42.21981" lon="14.5638417"><ele>59.199999999999996</ele><time>2026-03-25T13:54:42.809Z</time></trkpt><trkpt lat="42.21977" lon="14.563955"><ele>58.599999999999994</ele><time>2026-03-25T13:54:43.808Z</time></trkpt><trkpt lat="42.2197183" lon="14.5641"><ele>58.0</ele><time>2026-03-25T13:54:45.808Z</time></trkpt><trkpt lat="42.2196967" lon="14.5641917"><ele>59.2</ele><time>2026-03-25T13:54:46.809Z</time></trkpt><trkpt lat="42.2196767" lon="14.56428"><ele>60.4</ele><time>2026-03-25T13:54:47.808Z</time></trkpt><trkpt lat="42.2196067" lon="14.5644083"><ele>61.60000000000001</ele><time>2026-03-25T13:54:49.808Z</time></trkpt><trkpt lat="42.219545" lon="14.56455"><ele>62.800000000000004</ele><time>2026-03-25T13:54:51.808Z</time></trkpt><trkpt lat="42.2195117" lon="14.5646283"><ele>64.0</ele><time>2026-03-25T13:54:52.808Z</time></trkpt><trkpt lat="42.2194667" lon="14.5647617"><ele>63.99999999999999</ele><time>2026-03-25T13:54:54.808Z</time></trkpt><trkpt lat="42.21943" lon="14.5648933"><ele>64.0</ele><time>2026-03-25T13:54:56.808Z</time></trkpt><trkpt lat="42.2193917" lon="14.5650033"><ele>64.0</ele><time>2026-03-25T13:54:58.808Z</time></trkpt><trkpt lat="42.2193433" lon="14.56511"><ele>64.0</ele><time>2026-03-25T13:55:00.808Z</time></trkpt><trkpt lat="42.2193017" lon="14.565205"><ele>63.99999999999999</ele><time>2026-03-25T13:55:02.808Z</time></trkpt><trkpt lat="42.2192683" lon="14.5652967"><ele>64.0</ele><time>2026-03-25T13:55:04.808Z</time></trkpt><trkpt lat="42.2192417" lon="14.565375"><ele>63.166666666666664</ele><time>2026-03-25T13:55:06.808Z</time></trkpt><trkpt lat="42.2192117" lon="14.565455"><ele>62.33333333333333</ele><time>2026-03-25T13:55:08.808Z</time></trkpt><trkpt lat="42.21915" lon="14.565545"><ele>61.5</ele><time>2026-03-25T13:55:11.809Z</time></trkpt><trkpt lat="42.2190967" lon="14.565615"><ele>60.66666666666667</ele><time>2026-03-25T13:55:13.81Z</time></trkpt><trkpt lat="42.2190517" lon="14.5656967"><ele>59.833333333333336</ele><time>2026-03-25T13:55:15.809Z</time></trkpt><trkpt lat="42.219005" lon="14.5657683"><ele>59.0</ele><time>2026-03-25T13:55:17.81Z</time></trkpt><trkpt lat="42.2189483" lon="14.565855"><ele>61.0</ele><time>2026-03-25T13:55:19.809Z</time></trkpt><trkpt lat="42.2188733" lon="14.56597"><ele>63.00000000000001</ele><time>2026-03-25T13:55:21.809Z</time></trkpt><trkpt lat="42.2188" lon="14.5660817"><ele>65.0</ele><time>2026-03-25T13:55:23.81Z</time></trkpt><trkpt lat="42.218735" lon="14.5662067"><ele>67.0</ele><time>2026-03-25T13:55:25.809Z</time></trkpt><trkpt lat="42.2186767" lon="14.5663217"><ele>69.0</ele><time>2026-03-25T13:55:27.809Z</time></trkpt><trkpt lat="42.2186183" lon="14.56642"><ele>69.0</ele><time>2026-03-25T13:55:29.809Z</time></trkpt><trkpt lat="42.2185517" lon="14.5664867"><ele>69.0</ele><time>2026-03-25T13:55:31.809Z</time></trkpt><trkpt lat="42.2185017" lon="14.5665533"><ele>69.0</ele><time>2026-03-25T13:55:33.809Z</time></trkpt><trkpt lat="42.2184267" lon="14.56664"><ele>69.0</ele><time>2026-03-25T13:55:35.81Z</time></trkpt><trkpt lat="42.2183433" lon="14.5667567"><ele>69.0</ele><time>2026-03-25T13:55:37.809Z</time></trkpt><trkpt lat="42.2183083" lon="14.5668283"><ele>69.0</ele><time>2026-03-25T13:55:38.81Z</time></trkpt><trkpt lat="42.2182717" lon="14.5669233"><ele>66.0</ele><time>2026-03-25T13:55:39.809Z</time></trkpt><trkpt lat="42.218245" lon="14.5671567"><ele>63.0</ele><time>2026-03-25T13:55:41.809Z</time></trkpt><trkpt lat="42.2182117" lon="14.5672967"><ele>60.0</ele><time>2026-03-25T13:55:43.809Z</time></trkpt><trkpt lat="42.218175" lon="14.5674267"><ele>57.0</ele><time>2026-03-25T13:55:45.809Z</time></trkpt><trkpt lat="42.2181583" lon="14.5675817"><ele>60.8</ele><time>2026-03-25T13:55:47.809Z</time></trkpt><trkpt lat="42.218145" lon="14.5677267"><ele>64.6</ele><time>2026-03-25T13:55:49.809Z</time></trkpt><trkpt lat="42.2181133" lon="14.567875"><ele>68.39999999999999</ele><time>2026-03-25T13:55:51.809Z</time></trkpt><trkpt lat="42.21809" lon="14.5679667"><ele>72.2</ele><time>2026-03-25T13:55:52.81Z</time></trkpt><trkpt lat="42.218035" lon="14.56811"><ele>76.0</ele><time>2026-03-25T13:55:54.81Z</time></trkpt><trkpt lat="42.21801" lon="14.5682083"><ele>76.0</ele><time>2026-03-25T13:55:55.809Z</time></trkpt><trkpt lat="42.2179767" lon="14.5682967"><ele>76.0</ele><time>2026-03-25T13:55:56.809Z</time></trkpt><trkpt lat="42.2179067" lon="14.5684383"><ele>76.0</ele><time>2026-03-25T13:55:58.809Z</time></trkpt><trkpt lat="42.217845" lon="14.5685633"><ele>76.0</ele><time>2026-03-25T13:56:00.809Z</time></trkpt><trkpt lat="42.217785" lon="14.56867"><ele>76.0</ele><time>2026-03-25T13:56:02.809Z</time></trkpt><trkpt lat="42.2177433" lon="14.5687767"><ele>73.5</ele><time>2026-03-25T13:56:04.809Z</time></trkpt><trkpt lat="42.2177083" lon="14.5688733"><ele>71.0</ele><time>2026-03-25T13:56:06.809Z</time></trkpt><trkpt lat="42.21767" lon="14.5689683"><ele>68.5</ele><time>2026-03-25T13:56:08.809Z</time></trkpt><trkpt lat="42.2176383" lon="14.5690517"><ele>66.0</ele><time>2026-03-25T13:56:10.809Z</time></trkpt><trkpt lat="42.217595" lon="14.5691217"><ele>63.49999999999999</ele><time>2026-03-25T13:56:12.809Z</time></trkpt><trkpt lat="42.2175483" lon="14.5692067"><ele>61.0</ele><time>2026-03-25T13:56:15.809Z</time></trkpt><trkpt lat="42.2174833" lon="14.569305"><ele>61.0</ele><time>2026-03-25T13:56:18.809Z</time></trkpt><trkpt lat="42.217435" lon="14.5693867"><ele>61.0</ele><time>2026-03-25T13:56:20.809Z</time></trkpt><trkpt lat="42.21735" lon="14.56949"><ele>61.0</ele><time>2026-03-25T13:56:22.809Z</time></trkpt><trkpt lat="42.2172317" lon="14.569615"><ele>61.0</ele><time>2026-03-25T13:56:24.809Z</time></trkpt><trkpt lat="42.2171583" lon="14.5697283"><ele>63.599999999999994</ele><time>2026-03-25T13:56:26.809Z</time></trkpt><trkpt lat="42.2171133" lon="14.5697917"><ele>66.19999999999999</ele><time>2026-03-25T13:56:27.809Z</time></trkpt><trkpt lat="42.2170683" lon="14.5698567"><ele>68.80000000000001</ele><time>2026-03-25T13:56:28.809Z</time></trkpt><trkpt lat="42.2169983" lon="14.5699233"><ele>71.4</ele><time>2026-03-25T13:56:29.809Z</time></trkpt><trkpt lat="42.2169167" lon="14.57005"><ele>74.0</ele><time>2026-03-25T13:56:31.809Z</time></trkpt><trkpt lat="42.216805" lon="14.5701617"><ele>74.0</ele><time>2026-03-25T13:56:32.809Z</time></trkpt><trkpt lat="42.2167233" lon="14.5703083"><ele>74.0</ele><time>2026-03-25T13:56:34.81Z</time></trkpt><trkpt lat="42.2166783" lon="14.5704317"><ele>74.0</ele><time>2026-03-25T13:56:36.809Z</time></trkpt><trkpt lat="42.21668" lon="14.5705583"><ele>74.0</ele><time>2026-03-25T13:56:38.81Z</time></trkpt><trkpt lat="42.21669" lon="14.57072"><ele>72.33333333333334</ele><time>2026-03-25T13:56:40.809Z</time></trkpt><trkpt lat="42.21669" lon="14.5708117"><ele>70.66666666666667</ele><time>2026-03-25T13:56:41.809Z</time></trkpt><trkpt lat="42.2166933" lon="14.5709"><ele>69.0</ele><time>2026-03-25T13:56:42.81Z</time></trkpt><trkpt lat="42.2166883" lon="14.571"><ele>67.33333333333333</ele><time>2026-03-25T13:56:43.809Z</time></trkpt><trkpt lat="42.216685" lon="14.571105"><ele>65.66666666666666</ele><time>2026-03-25T13:56:44.81Z</time></trkpt><trkpt lat="42.2166833" lon="14.5712667"><ele>64.0</ele><time>2026-03-25T13:56:46.809Z</time></trkpt><trkpt lat="42.216675" lon="14.57138"><ele>63.2</ele><time>2026-03-25T13:56:47.809Z</time></trkpt><trkpt lat="42.216675" lon="14.5714867"><ele>62.400000000000006</ele><time>2026-03-25T13:56:48.809Z</time></trkpt><trkpt lat="42.2166667" lon="14.5716483"><ele>61.6</ele><time>2026-03-25T13:56:50.809Z</time></trkpt><trkpt lat="42.2166667" lon="14.571735"><ele>60.8</ele><time>2026-03-25T13:56:51.809Z</time></trkpt><trkpt lat="42.2166683" lon="14.5718733"><ele>60.0</ele><time>2026-03-25T13:56:53.809Z</time></trkpt><trkpt lat="42.2166633" lon="14.5720167"><ele>58.833333333333336</ele><time>2026-03-25T13:56:55.809Z</time></trkpt><trkpt lat="42.2166567" lon="14.5721517"><ele>57.66666666666667</ele><time>2026-03-25T13:56:57.809Z</time></trkpt><trkpt lat="42.21664" lon="14.5722883"><ele>56.5</ele><time>2026-03-25T13:56:59.809Z</time></trkpt><trkpt lat="42.21663" lon="14.57241"><ele>55.333333333333336</ele><time>2026-03-25T13:57:01.809Z</time></trkpt><trkpt lat="42.2166033" lon="14.572515"><ele>54.16666666666667</ele><time>2026-03-25T13:57:03.809Z</time></trkpt><trkpt lat="42.21657" lon="14.5725883"><ele>53.0</ele><time>2026-03-25T13:57:05.81Z</time></trkpt><trkpt lat="42.2165233" lon="14.57267"><ele>53.0</ele><time>2026-03-25T13:57:08.809Z</time></trkpt><trkpt lat="42.21649" lon="14.5727667"><ele>53.0</ele><time>2026-03-25T13:57:11.809Z</time></trkpt><trkpt lat="42.2164317" lon="14.5728617"><ele>53.0</ele><time>2026-03-25T13:57:14.809Z</time></trkpt><trkpt lat="42.21638" lon="14.5729233"><ele>53.0</ele><time>2026-03-25T13:57:16.809Z</time></trkpt><trkpt lat="42.2163417" lon="14.573"><ele>53.0</ele><time>2026-03-25T13:57:18.809Z</time></trkpt><trkpt lat="42.2162917" lon="14.5730583"><ele>53.0</ele><time>2026-03-25T13:57:20.81Z</time></trkpt><trkpt lat="42.2162317" lon="14.5731167"><ele>53.0</ele><time>2026-03-25T13:57:22.809Z</time></trkpt><trkpt lat="42.216175" lon="14.5732017"><ele>54.4</ele><time>2026-03-25T13:57:24.809Z</time></trkpt><trkpt lat="42.2161217" lon="14.573335"><ele>55.8</ele><time>2026-03-25T13:57:26.809Z</time></trkpt><trkpt lat="42.2160867" lon="14.5734117"><ele>57.2</ele><time>2026-03-25T13:57:27.809Z</time></trkpt><trkpt lat="42.2160467" lon="14.573485"><ele>58.6</ele><time>2026-03-25T13:57:28.81Z</time></trkpt><trkpt lat="42.2159733" lon="14.573605"><ele>60.0</ele><time>2026-03-25T13:57:30.809Z</time></trkpt><trkpt lat="42.2159183" lon="14.5737267"><ele>60.0</ele><time>2026-03-25T13:57:32.809Z</time></trkpt><trkpt lat="42.215885" lon="14.5738167"><ele>60.0</ele><time>2026-03-25T13:57:34.809Z</time></trkpt><trkpt lat="42.215865" lon="14.5739133"><ele>60.0</ele><time>2026-03-25T13:57:36.809Z</time></trkpt><trkpt lat="42.215845" lon="14.5740183"><ele>60.0</ele><time>2026-03-25T13:57:38.809Z</time></trkpt><trkpt lat="42.2158233" lon="14.5741333"><ele>60.0</ele><time>2026-03-25T13:57:40.81Z</time></trkpt><trkpt lat="42.2157933" lon="14.5742717"><ele>60.0</ele><time>2026-03-25T13:57:42.809Z</time></trkpt><trkpt lat="42.2157617" lon="14.5744167"><ele>57.8</ele><time>2026-03-25T13:57:44.81Z</time></trkpt><trkpt lat="42.215725" lon="14.5745617"><ele>55.6</ele><time>2026-03-25T13:57:46.809Z</time></trkpt><trkpt lat="42.2156883" lon="14.574695"><ele>53.400000000000006</ele><time>2026-03-25T13:57:48.81Z</time></trkpt><trkpt lat="42.2156467" lon="14.5748167"><ele>51.2</ele><time>2026-03-25T13:57:50.809Z</time></trkpt><trkpt lat="42.21559" lon="14.5749467"><ele>49.0</ele><time>2026-03-25T13:57:52.809Z</time></trkpt><trkpt lat="42.2155217" lon="14.57508"><ele>51.0</ele><time>2026-03-25T13:57:54.81Z</time></trkpt><trkpt lat="42.215455" lon="14.5751967"><ele>53.0</ele><time>2026-03-25T13:57:56.809Z</time></trkpt><trkpt lat="42.215385" lon="14.5753017"><ele>55.00000000000001</ele><time>2026-03-25T13:57:58.809Z</time></trkpt><trkpt lat="42.215305" lon="14.57537"><ele>57.0</ele><time>2026-03-25T13:58:00.809Z</time></trkpt><trkpt lat="42.21524" lon="14.5754233"><ele>59.0</ele><time>2026-03-25T13:58:02.809Z</time></trkpt><trkpt lat="42.2151933" lon="14.5754867"><ele>59.00000000000001</ele><time>2026-03-25T13:58:04.809Z</time></trkpt><trkpt lat="42.2151567" lon="14.5755667"><ele>59.0</ele><time>2026-03-25T13:58:06.809Z</time></trkpt><trkpt lat="42.2151167" lon="14.5756767"><ele>59.0</ele><time>2026-03-25T13:58:08.809Z</time></trkpt><trkpt lat="42.2150683" lon="14.57579"><ele>59.0</ele><time>2026-03-25T13:58:10.809Z</time></trkpt><trkpt lat="42.21503" lon="14.5759"><ele>59.00000000000001</ele><time>2026-03-25T13:58:12.809Z</time></trkpt><trkpt lat="42.2150067" lon="14.5759933"><ele>59.0</ele><time>2026-03-25T13:58:14.81Z</time></trkpt><trkpt lat="42.2149783" lon="14.576105"><ele>57.16666666666667</ele><time>2026-03-25T13:58:16.809Z</time></trkpt><trkpt lat="42.2149433" lon="14.5762"><ele>55.333333333333336</ele><time>2026-03-25T13:58:18.809Z</time></trkpt><trkpt lat="42.2149183" lon="14.57628"><ele>53.5</ele><time>2026-03-25T13:58:20.809Z</time></trkpt><trkpt lat="42.2148867" lon="14.5763933"><ele>51.66666666666667</ele><time>2026-03-25T13:58:23.809Z</time></trkpt><trkpt lat="42.214855" lon="14.5764817"><ele>49.833333333333336</ele><time>2026-03-25T13:58:25.809Z</time></trkpt><trkpt lat="42.21482" lon="14.5765967"><ele>48.0</ele><time>2026-03-25T13:58:27.809Z</time></trkpt><trkpt lat="42.2148033" lon="14.5767433"><ele>51.8</ele><time>2026-03-25T13:58:29.81Z</time></trkpt><trkpt lat="42.2147867" lon="14.5768967"><ele>55.599999999999994</ele><time>2026-03-25T13:58:31.81Z</time></trkpt><trkpt lat="42.214745" lon="14.5770583"><ele>59.400000000000006</ele><time>2026-03-25T13:58:33.81Z</time></trkpt><trkpt lat="42.2147033" lon="14.5772183"><ele>63.2</ele><time>2026-03-25T13:58:35.809Z</time></trkpt><trkpt lat="42.214685" lon="14.5773067"><ele>67.0</ele><time>2026-03-25T13:58:36.809Z</time></trkpt><trkpt lat="42.2146683" lon="14.5773983"><ele>67.0</ele><time>2026-03-25T13:58:37.81Z</time></trkpt><trkpt lat="42.214645" lon="14.577515"><ele>67.0</ele><time>2026-03-25T13:58:38.809Z</time></trkpt><trkpt lat="42.2146167" lon="14.5776267"><ele>67.0</ele><time>2026-03-25T13:58:39.81Z</time></trkpt><trkpt lat="42.21459" lon="14.5777267"><ele>67.0</ele><time>2026-03-25T13:58:40.809Z</time></trkpt><trkpt lat="42.214555" lon="14.5778217"><ele>67.0</ele><time>2026-03-25T13:58:41.809Z</time></trkpt><trkpt lat="42.2145233" lon="14.577915"><ele>67.0</ele><time>2026-03-25T13:58:42.809Z</time></trkpt><trkpt lat="42.2144933" lon="14.5779967"><ele>65.2</ele><time>2026-03-25T13:58:43.81Z</time></trkpt><trkpt lat="42.21443" lon="14.578125"><ele>63.400000000000006</ele><time>2026-03-25T13:58:45.81Z</time></trkpt><trkpt lat="42.2143767" lon="14.5782233"><ele>61.599999999999994</ele><time>2026-03-25T13:58:47.809Z</time></trkpt><trkpt lat="42.214335" lon="14.5783383"><ele>59.8</ele><time>2026-03-25T13:58:49.809Z</time></trkpt><trkpt lat="42.2143067" lon="14.5784933"><ele>58.0</ele><time>2026-03-25T13:58:51.809Z</time></trkpt><trkpt lat="42.214285" lon="14.5785933"><ele>56.2</ele><time>2026-03-25T13:58:52.809Z</time></trkpt><trkpt lat="42.2142567" lon="14.5787517"><ele>54.4</ele><time>2026-03-25T13:58:54.809Z</time></trkpt><trkpt lat="42.2142167" lon="14.578875"><ele>52.6</ele><time>2026-03-25T13:58:56.809Z</time></trkpt><trkpt lat="42.2141817" lon="14.57898"><ele>50.800000000000004</ele><time>2026-03-25T13:58:58.81Z</time></trkpt><trkpt lat="42.2141433" lon="14.5790783"><ele>49.0</ele><time>2026-03-25T13:59:00.81Z</time></trkpt><trkpt lat="42.2141383" lon="14.579165"><ele>48.99999999999999</ele><time>2026-03-25T13:59:02.81Z</time></trkpt><trkpt lat="42.2141133" lon="14.5792783"><ele>49.0</ele><time>2026-03-25T13:59:04.809Z</time></trkpt><trkpt lat="42.2140833" lon="14.579375"><ele>49.0</ele><time>2026-03-25T13:59:06.809Z</time></trkpt><trkpt lat="42.21407" lon="14.5794783"><ele>49.0</ele><time>2026-03-25T13:59:08.809Z</time></trkpt><trkpt lat="42.2140333" lon="14.579585"><ele>48.99999999999999</ele><time>2026-03-25T13:59:10.809Z</time></trkpt><trkpt lat="42.2139983" lon="14.579695"><ele>49.0</ele><time>2026-03-25T13:59:12.809Z</time></trkpt><trkpt lat="42.2139717" lon="14.5798483"><ele>49.0</ele><time>2026-03-25T13:59:14.809Z</time></trkpt><trkpt lat="42.21393" lon="14.5800017"><ele>49.0</ele><time>2026-03-25T13:59:16.809Z</time></trkpt><trkpt lat="42.21389" lon="14.58015"><ele>49.0</ele><time>2026-03-25T13:59:18.809Z</time></trkpt><trkpt lat="42.2138633" lon="14.5802983"><ele>49.0</ele><time>2026-03-25T13:59:20.809Z</time></trkpt><trkpt lat="42.21385" lon="14.580445"><ele>48.99999999999999</ele><time>2026-03-25T13:59:22.809Z</time></trkpt><trkpt lat="42.213845" lon="14.5806067"><ele>49.0</ele><time>2026-03-25T13:59:24.809Z</time></trkpt><trkpt lat="42.2138317" lon="14.58069"><ele>49.0</ele><time>2026-03-25T13:59:25.809Z</time></trkpt><trkpt lat="42.2138133" lon="14.580825"><ele>49.0</ele><time>2026-03-25T13:59:27.809Z</time></trkpt><trkpt lat="42.2137717" lon="14.5809417"><ele>48.99999999999999</ele><time>2026-03-25T13:59:29.81Z</time></trkpt><trkpt lat="42.2137517" lon="14.58103"><ele>49.0</ele><time>2026-03-25T13:59:31.809Z</time></trkpt><trkpt lat="42.213745" lon="14.581125"><ele>47.42857142857143</ele><time>2026-03-25T13:59:33.809Z</time></trkpt><trkpt lat="42.2137433" lon="14.5812383"><ele>45.85714285714286</ele><time>2026-03-25T13:59:35.809Z</time></trkpt><trkpt lat="42.2137483" lon="14.5813317"><ele>44.285714285714285</ele><time>2026-03-25T13:59:37.809Z</time></trkpt><trkpt lat="42.2137483" lon="14.58142"><ele>42.714285714285715</ele><time>2026-03-25T13:59:39.809Z</time></trkpt><trkpt lat="42.213745" lon="14.5815083"><ele>41.142857142857146</ele><time>2026-03-25T13:59:41.809Z</time></trkpt><trkpt lat="42.213735" lon="14.5816033"><ele>39.57142857142857</ele><time>2026-03-25T13:59:44.809Z</time></trkpt><trkpt lat="42.2137617" lon="14.5816917"><ele>38.0</ele><time>2026-03-25T13:59:52.81Z</time></trkpt><trkpt lat="42.21379" lon="14.58178"><ele>38.0</ele><time>2026-03-25T14:00:01.809Z</time></trkpt><trkpt lat="42.2138633" lon="14.5818433"><ele>38.0</ele><time>2026-03-25T14:00:04.809Z</time></trkpt><trkpt lat="42.2139233" lon="14.58189"><ele>38.0</ele><time>2026-03-25T14:00:06.809Z</time></trkpt><trkpt lat="42.21399" lon="14.581945"><ele>38.0</ele><time>2026-03-25T14:00:08.809Z</time></trkpt><trkpt lat="42.2140617" lon="14.582015"><ele>38.0</ele><time>2026-03-25T14:00:10.809Z</time></trkpt><trkpt lat="42.2141217" lon="14.5820533"><ele>38.0</ele><time>2026-03-25T14:00:12.809Z</time></trkpt><trkpt lat="42.214155" lon="14.5821333"><ele>34.83333333333333</ele><time>2026-03-25T14:00:15.809Z</time></trkpt><trkpt lat="42.214125" lon="14.5822267"><ele>31.666666666666664</ele><time>2026-03-25T14:00:18.809Z</time></trkpt><trkpt lat="42.21411" lon="14.5823183"><ele>28.5</ele><time>2026-03-25T14:00:20.809Z</time></trkpt><trkpt lat="42.2140983" lon="14.5824217"><ele>25.333333333333332</ele><time>2026-03-25T14:00:22.809Z</time></trkpt><trkpt lat="42.2141633" lon="14.582495"><ele>22.166666666666664</ele><time>2026-03-25T14:00:25.809Z</time></trkpt><trkpt lat="42.2142267" lon="14.582445"><ele>19.0</ele><time>2026-03-25T14:00:27.809Z</time></trkpt><trkpt lat="42.214295" lon="14.5824017"><ele>19.0</ele><time>2026-03-25T14:00:29.809Z</time></trkpt><trkpt lat="42.214425" lon="14.5824267"><ele>19.0</ele><time>2026-03-25T14:00:31.809Z</time></trkpt><trkpt lat="42.2144983" lon="14.58247"><ele>19.0</ele><time>2026-03-25T14:00:32.809Z</time></trkpt><trkpt lat="42.2145567" lon="14.5825233"><ele>19.0</ele><time>2026-03-25T14:00:33.809Z</time></trkpt><trkpt lat="42.2146133" lon="14.5825617"><ele>19.0</ele><time>2026-03-25T14:00:34.81Z</time></trkpt><trkpt lat="42.214715" lon="14.5825917"><ele>19.0</ele><time>2026-03-25T14:00:36.81Z</time></trkpt><trkpt lat="42.2148" lon="14.58257"><ele>19.0</ele><time>2026-03-25T14:00:38.809Z</time></trkpt><trkpt lat="42.214875" lon="14.582535"><ele>19.0</ele><time>2026-03-25T14:00:41.809Z</time></trkpt><trkpt lat="42.2148017" lon="14.5825917"><ele>19.0</ele><time>2026-03-25T14:00:46.81Z</time></trkpt><trkpt lat="42.2147483" lon="14.5826533"><ele>19.0</ele><time>2026-03-25T14:00:48.809Z</time></trkpt><trkpt lat="42.214695" lon="14.582735"><ele>19.0</ele><time>2026-03-25T14:00:50.81Z</time></trkpt><trkpt lat="42.2146433" lon="14.5828267"><ele>19.0</ele><time>2026-03-25T14:00:52.809Z</time></trkpt><trkpt lat="42.2145883" lon="14.582925"><ele>18.2</ele><time>2026-03-25T14:00:54.809Z</time></trkpt><trkpt lat="42.21452" lon="14.5830267"><ele>17.4</ele><time>2026-03-25T14:00:56.809Z</time></trkpt><trkpt lat="42.2144567" lon="14.5831283"><ele>16.6</ele><time>2026-03-25T14:00:58.809Z</time></trkpt><trkpt lat="42.2143917" lon="14.5832317"><ele>15.8</ele><time>2026-03-25T14:01:00.809Z</time></trkpt><trkpt lat="42.2143267" lon="14.5833333"><ele>15.0</ele><time>2026-03-25T14:01:02.809Z</time></trkpt><trkpt lat="42.2142617" lon="14.5834483"><ele>15.0</ele><time>2026-03-25T14:01:04.809Z</time></trkpt><trkpt lat="42.2141933" lon="14.583565"><ele>15.0</ele><time>2026-03-25T14:01:06.809Z</time></trkpt><trkpt lat="42.214115" lon="14.5836767"><ele>15.0</ele><time>2026-03-25T14:01:08.809Z</time></trkpt><trkpt lat="42.2140283" lon="14.5837933"><ele>15.0</ele><time>2026-03-25T14:01:10.809Z</time></trkpt><trkpt lat="42.213955" lon="14.5838933"><ele>16.75</ele><time>2026-03-25T14:01:12.809Z</time></trkpt><trkpt lat="42.213885" lon="14.583995"><ele>18.5</ele><time>2026-03-25T14:01:14.809Z</time></trkpt><trkpt lat="42.2138117" lon="14.58411"><ele>20.25</ele><time>2026-03-25T14:01:16.809Z</time></trkpt><trkpt lat="42.21374" lon="14.5842367"><ele>22.0</ele><time>2026-03-25T14:01:18.809Z</time></trkpt><trkpt lat="42.2136633" lon="14.5843683"><ele>22.0</ele><time>2026-03-25T14:01:20.809Z</time></trkpt><trkpt lat="42.213625" lon="14.5844367"><ele>22.0</ele><time>2026-03-25T14:01:21.809Z</time></trkpt><trkpt lat="42.2135567" lon="14.5845533"><ele>22.0</ele><time>2026-03-25T14:01:23.809Z</time></trkpt><trkpt lat="42.2134883" lon="14.58467"><ele>22.0</ele><time>2026-03-25T14:01:25.809Z</time></trkpt><trkpt lat="42.21341" lon="14.5847833"><ele>22.0</ele><time>2026-03-25T14:01:27.809Z</time></trkpt><trkpt lat="42.2133417" lon="14.5849083"><ele>22.0</ele><time>2026-03-25T14:01:29.809Z</time></trkpt><trkpt lat="42.2132783" lon="14.5850333"><ele>22.0</ele><time>2026-03-25T14:01:31.809Z</time></trkpt><trkpt lat="42.21322" lon="14.58514"><ele>22.0</ele><time>2026-03-25T14:01:33.81Z</time></trkpt><trkpt lat="42.213155" lon="14.58525"><ele>22.0</ele><time>2026-03-25T14:01:35.809Z</time></trkpt><trkpt lat="42.213085" lon="14.5853733"><ele>22.0</ele><time>2026-03-25T14:01:37.81Z</time></trkpt><trkpt lat="42.2130233" lon="14.5854967"><ele>20.5</ele><time>2026-03-25T14:01:39.809Z</time></trkpt><trkpt lat="42.2129633" lon="14.5856283"><ele>19.0</ele><time>2026-03-25T14:01:41.81Z</time></trkpt><trkpt lat="42.212905" lon="14.5857667"><ele>17.5</ele><time>2026-03-25T14:01:43.809Z</time></trkpt><trkpt lat="42.212855" lon="14.5859067"><ele>16.0</ele><time>2026-03-25T14:01:45.81Z</time></trkpt><trkpt lat="42.2128017" lon="14.5860317"><ele>16.0</ele><time>2026-03-25T14:01:47.809Z</time></trkpt><trkpt lat="42.2127483" lon="14.5861533"><ele>16.0</ele><time>2026-03-25T14:01:49.809Z</time></trkpt><trkpt lat="42.212695" lon="14.5862683"><ele>16.0</ele><time>2026-03-25T14:01:51.809Z</time></trkpt><trkpt lat="42.2126483" lon="14.5863933"><ele>16.0</ele><time>2026-03-25T14:01:53.809Z</time></trkpt><trkpt lat="42.2126" lon="14.5865067"><ele>16.0</ele><time>2026-03-25T14:01:55.809Z</time></trkpt><trkpt lat="42.2125483" lon="14.58662"><ele>16.8</ele><time>2026-03-25T14:01:57.809Z</time></trkpt><trkpt lat="42.212495" lon="14.5867367"><ele>17.6</ele><time>2026-03-25T14:01:59.809Z</time></trkpt><trkpt lat="42.2124383" lon="14.58685"><ele>18.4</ele><time>2026-03-25T14:02:01.809Z</time></trkpt><trkpt lat="42.2123717" lon="14.5869483"><ele>19.2</ele><time>2026-03-25T14:02:03.809Z</time></trkpt><trkpt lat="42.2123083" lon="14.587065"><ele>20.0</ele><time>2026-03-25T14:02:05.81Z</time></trkpt><trkpt lat="42.2122483" lon="14.5871917"><ele>20.0</ele><time>2026-03-25T14:02:07.809Z</time></trkpt><trkpt lat="42.2121883" lon="14.5873183"><ele>20.0</ele><time>2026-03-25T14:02:09.809Z</time></trkpt><trkpt lat="42.212135" lon="14.5874467"><ele>20.0</ele><time>2026-03-25T14:02:11.81Z</time></trkpt><trkpt lat="42.212075" lon="14.587575"><ele>20.0</ele><time>2026-03-25T14:02:13.809Z</time></trkpt><trkpt lat="42.2120117" lon="14.5877033"><ele>20.0</ele><time>2026-03-25T14:02:15.809Z</time></trkpt><trkpt lat="42.211945" lon="14.5878283"><ele>18.75</ele><time>2026-03-25T14:02:17.81Z</time></trkpt><trkpt lat="42.21188" lon="14.5879633"><ele>17.5</ele><time>2026-03-25T14:02:19.809Z</time></trkpt><trkpt lat="42.2118133" lon="14.5880983"><ele>16.25</ele><time>2026-03-25T14:02:21.809Z</time></trkpt><trkpt lat="42.21176" lon="14.5882333"><ele>15.0</ele><time>2026-03-25T14:02:23.809Z</time></trkpt><trkpt lat="42.2117033" lon="14.5883583"><ele>15.0</ele><time>2026-03-25T14:02:25.81Z</time></trkpt><trkpt lat="42.211645" lon="14.5884767"><ele>15.0</ele><time>2026-03-25T14:02:27.809Z</time></trkpt><trkpt lat="42.211585" lon="14.588605"><ele>15.0</ele><time>2026-03-25T14:02:29.809Z</time></trkpt><trkpt lat="42.2115267" lon="14.5887383"><ele>15.0</ele><time>2026-03-25T14:02:31.809Z</time></trkpt><trkpt lat="42.211475" lon="14.5888717"><ele>15.0</ele><time>2026-03-25T14:02:33.809Z</time></trkpt><trkpt lat="42.2114183" lon="14.5890067"><ele>14.8</ele><time>2026-03-25T14:02:35.809Z</time></trkpt><trkpt lat="42.2113767" lon="14.5890783"><ele>14.6</ele><time>2026-03-25T14:02:36.81Z</time></trkpt><trkpt lat="42.2113133" lon="14.58922"><ele>14.399999999999999</ele><time>2026-03-25T14:02:38.809Z</time></trkpt><trkpt lat="42.21126" lon="14.58936"><ele>14.2</ele><time>2026-03-25T14:02:40.809Z</time></trkpt><trkpt lat="42.2111983" lon="14.5894983"><ele>14.0</ele><time>2026-03-25T14:02:42.809Z</time></trkpt><trkpt lat="42.2111383" lon="14.5896367"><ele>14.0</ele><time>2026-03-25T14:02:44.809Z</time></trkpt><trkpt lat="42.2110783" lon="14.5897817"><ele>14.0</ele><time>2026-03-25T14:02:46.809Z</time></trkpt><trkpt lat="42.2110217" lon="14.5899233"><ele>14.0</ele><time>2026-03-25T14:02:48.809Z</time></trkpt><trkpt lat="42.21097" lon="14.5900533"><ele>14.0</ele><time>2026-03-25T14:02:50.809Z</time></trkpt><trkpt lat="42.2109167" lon="14.5901883"><ele>14.0</ele><time>2026-03-25T14:02:52.809Z</time></trkpt><trkpt lat="42.210865" lon="14.5903233"><ele>14.0</ele><time>2026-03-25T14:02:54.809Z</time></trkpt><trkpt lat="42.2108117" lon="14.5904633"><ele>14.0</ele><time>2026-03-25T14:02:56.809Z</time></trkpt><trkpt lat="42.2107583" lon="14.5906017"><ele>14.0</ele><time>2026-03-25T14:02:58.809Z</time></trkpt><trkpt lat="42.210705" lon="14.5907367"><ele>14.25</ele><time>2026-03-25T14:03:00.809Z</time></trkpt><trkpt lat="42.210655" lon="14.590875"><ele>14.5</ele><time>2026-03-25T14:03:02.81Z</time></trkpt><trkpt lat="42.2106033" lon="14.5910083"><ele>14.75</ele><time>2026-03-25T14:03:04.809Z</time></trkpt><trkpt lat="42.210545" lon="14.5911417"><ele>15.0</ele><time>2026-03-25T14:03:06.809Z</time></trkpt><trkpt lat="42.21049" lon="14.5912767"><ele>15.0</ele><time>2026-03-25T14:03:08.81Z</time></trkpt><trkpt lat="42.2104333" lon="14.5914067"><ele>15.0</ele><time>2026-03-25T14:03:10.809Z</time></trkpt><trkpt lat="42.2103767" lon="14.5915367"><ele>15.0</ele><time>2026-03-25T14:03:12.809Z</time></trkpt><trkpt lat="42.2103133" lon="14.59167"><ele>15.0</ele><time>2026-03-25T14:03:14.809Z</time></trkpt><trkpt lat="42.210245" lon="14.5917967"><ele>15.0</ele><time>2026-03-25T14:03:16.809Z</time></trkpt><trkpt lat="42.21018" lon="14.59193"><ele>15.0</ele><time>2026-03-25T14:03:18.809Z</time></trkpt><trkpt lat="42.2101167" lon="14.5920583"><ele>15.0</ele><time>2026-03-25T14:03:20.81Z</time></trkpt><trkpt lat="42.21006" lon="14.5921883"><ele>15.0</ele><time>2026-03-25T14:03:22.809Z</time></trkpt><trkpt lat="42.210005" lon="14.5923267"><ele>14.5</ele><time>2026-03-25T14:03:24.809Z</time></trkpt><trkpt lat="42.2099417" lon="14.59246"><ele>14.0</ele><time>2026-03-25T14:03:26.809Z</time></trkpt><trkpt lat="42.2098767" lon="14.5925833"><ele>13.5</ele><time>2026-03-25T14:03:28.809Z</time></trkpt><trkpt lat="42.2098017" lon="14.592705"><ele>13.0</ele><time>2026-03-25T14:03:30.81Z</time></trkpt><trkpt lat="42.2097283" lon="14.59284"><ele>13.0</ele><time>2026-03-25T14:03:32.809Z</time></trkpt><trkpt lat="42.2096583" lon="14.5929617"><ele>13.0</ele><time>2026-03-25T14:03:34.809Z</time></trkpt><trkpt lat="42.20959" lon="14.5930833"><ele>13.0</ele><time>2026-03-25T14:03:36.809Z</time></trkpt><trkpt lat="42.2095217" lon="14.5932083"><ele>13.0</ele><time>2026-03-25T14:03:38.809Z</time></trkpt><trkpt lat="42.209455" lon="14.5933367"><ele>13.0</ele><time>2026-03-25T14:03:40.81Z</time></trkpt><trkpt lat="42.2093817" lon="14.593455"><ele>13.0</ele><time>2026-03-25T14:03:42.81Z</time></trkpt><trkpt lat="42.20931" lon="14.59358"><ele>13.0</ele><time>2026-03-25T14:03:44.809Z</time></trkpt><trkpt lat="42.20924" lon="14.59371"><ele>13.0</ele><time>2026-03-25T14:03:46.809Z</time></trkpt><trkpt lat="42.2091717" lon="14.59384"><ele>14.25</ele><time>2026-03-25T14:03:48.809Z</time></trkpt><trkpt lat="42.2091" lon="14.59397"><ele>15.5</ele><time>2026-03-25T14:03:50.809Z</time></trkpt><trkpt lat="42.2090283" lon="14.5941"><ele>16.75</ele><time>2026-03-25T14:03:52.809Z</time></trkpt><trkpt lat="42.2089583" lon="14.5942283"><ele>18.0</ele><time>2026-03-25T14:03:54.81Z</time></trkpt><trkpt lat="42.2088783" lon="14.594355"><ele>18.0</ele><time>2026-03-25T14:03:56.81Z</time></trkpt><trkpt lat="42.2088" lon="14.5944817"><ele>18.0</ele><time>2026-03-25T14:03:58.809Z</time></trkpt><trkpt lat="42.2087167" lon="14.5946083"><ele>18.0</ele><time>2026-03-25T14:04:00.809Z</time></trkpt><trkpt lat="42.2086417" lon="14.5947383"><ele>18.0</ele><time>2026-03-25T14:04:02.809Z</time></trkpt><trkpt lat="42.2085683" lon="14.5948667"><ele>17.2</ele><time>2026-03-25T14:04:04.809Z</time></trkpt><trkpt lat="42.2085017" lon="14.5949983"><ele>16.4</ele><time>2026-03-25T14:04:06.809Z</time></trkpt><trkpt lat="42.2084367" lon="14.5951367"><ele>15.599999999999998</ele><time>2026-03-25T14:04:08.81Z</time></trkpt><trkpt lat="42.2083983" lon="14.595205"><ele>14.799999999999999</ele><time>2026-03-25T14:04:09.809Z</time></trkpt><trkpt lat="42.2083267" lon="14.595335"><ele>14.0</ele><time>2026-03-25T14:04:11.809Z</time></trkpt><trkpt lat="42.208255" lon="14.5954617"><ele>14.799999999999999</ele><time>2026-03-25T14:04:13.809Z</time></trkpt><trkpt lat="42.2081783" lon="14.595595"><ele>15.599999999999998</ele><time>2026-03-25T14:04:15.809Z</time></trkpt><trkpt lat="42.2081033" lon="14.5957167"><ele>16.4</ele><time>2026-03-25T14:04:17.81Z</time></trkpt><trkpt lat="42.2080483" lon="14.5958367"><ele>17.2</ele><time>2026-03-25T14:04:19.809Z</time></trkpt><trkpt lat="42.2079983" lon="14.5959517"><ele>18.0</ele><time>2026-03-25T14:04:21.809Z</time></trkpt><trkpt lat="42.20794" lon="14.59608"><ele>17.0</ele><time>2026-03-25T14:04:23.809Z</time></trkpt><trkpt lat="42.2078767" lon="14.596205"><ele>16.0</ele><time>2026-03-25T14:04:25.809Z</time></trkpt><trkpt lat="42.2078167" lon="14.596335"><ele>15.0</ele><time>2026-03-25T14:04:27.81Z</time></trkpt><trkpt lat="42.2077617" lon="14.596465"><ele>14.0</ele><time>2026-03-25T14:04:29.809Z</time></trkpt><trkpt lat="42.2076983" lon="14.5966017"><ele>14.0</ele><time>2026-03-25T14:04:31.809Z</time></trkpt><trkpt lat="42.2076383" lon="14.59673"><ele>13.999999999999998</ele><time>2026-03-25T14:04:33.809Z</time></trkpt><trkpt lat="42.2075883" lon="14.59686"><ele>13.999999999999998</ele><time>2026-03-25T14:04:35.809Z</time></trkpt><trkpt lat="42.2075417" lon="14.596975"><ele>14.0</ele><time>2026-03-25T14:04:37.809Z</time></trkpt><trkpt lat="42.207495" lon="14.5970883"><ele>14.0</ele><time>2026-03-25T14:04:39.809Z</time></trkpt><trkpt lat="42.2074617" lon="14.5971983"><ele>15.0</ele><time>2026-03-25T14:04:41.809Z</time></trkpt><trkpt lat="42.2074167" lon="14.5972883"><ele>15.999999999999998</ele><time>2026-03-25T14:04:43.81Z</time></trkpt><trkpt lat="42.20737" lon="14.5973917"><ele>17.0</ele><time>2026-03-25T14:04:45.81Z</time></trkpt><trkpt lat="42.2073217" lon="14.5975067"><ele>18.0</ele><time>2026-03-25T14:04:47.809Z</time></trkpt><trkpt lat="42.2072817" lon="14.5976167"><ele>19.0</ele><time>2026-03-25T14:04:49.809Z</time></trkpt><trkpt lat="42.20723" lon="14.5977317"><ele>18.0</ele><time>2026-03-25T14:04:51.809Z</time></trkpt><trkpt lat="42.2071767" lon="14.597855"><ele>17.0</ele><time>2026-03-25T14:04:53.81Z</time></trkpt><trkpt lat="42.207115" lon="14.597985"><ele>16.0</ele><time>2026-03-25T14:04:55.81Z</time></trkpt><trkpt lat="42.2070533" lon="14.5981133"><ele>15.0</ele><time>2026-03-25T14:04:57.81Z</time></trkpt><trkpt lat="42.2069883" lon="14.5982467"><ele>15.0</ele><time>2026-03-25T14:04:59.809Z</time></trkpt><trkpt lat="42.2069317" lon="14.59838"><ele>15.0</ele><time>2026-03-25T14:05:01.809Z</time></trkpt><trkpt lat="42.2068733" lon="14.5985117"><ele>15.0</ele><time>2026-03-25T14:05:03.809Z</time></trkpt><trkpt lat="42.2068167" lon="14.5986517"><ele>15.0</ele><time>2026-03-25T14:05:05.81Z</time></trkpt><trkpt lat="42.2067583" lon="14.59879"><ele>13.25</ele><time>2026-03-25T14:05:07.809Z</time></trkpt><trkpt lat="42.2067033" lon="14.5989367"><ele>11.5</ele><time>2026-03-25T14:05:09.81Z</time></trkpt><trkpt lat="42.2066467" lon="14.5990733"><ele>9.75</ele><time>2026-03-25T14:05:11.809Z</time></trkpt><trkpt lat="42.2065883" lon="14.5992067"><ele>8.0</ele><time>2026-03-25T14:05:13.809Z</time></trkpt><trkpt lat="42.2065333" lon="14.5993383"><ele>8.600000000000001</ele><time>2026-03-25T14:05:15.81Z</time></trkpt><trkpt lat="42.2064817" lon="14.5994733"><ele>9.200000000000001</ele><time>2026-03-25T14:05:17.81Z</time></trkpt><trkpt lat="42.2064283" lon="14.5996083"><ele>9.8</ele><time>2026-03-25T14:05:19.809Z</time></trkpt><trkpt lat="42.2063717" lon="14.5997383"><ele>10.4</ele><time>2026-03-25T14:05:21.809Z</time></trkpt><trkpt lat="42.2063133" lon="14.599865"><ele>11.0</ele><time>2026-03-25T14:05:23.809Z</time></trkpt><trkpt lat="42.2062567" lon="14.599995"><ele>11.0</ele><time>2026-03-25T14:05:25.81Z</time></trkpt><trkpt lat="42.2061983" lon="14.6001233"><ele>11.0</ele><time>2026-03-25T14:05:27.809Z</time></trkpt><trkpt lat="42.20614" lon="14.6002533"><ele>11.0</ele><time>2026-03-25T14:05:29.809Z</time></trkpt><trkpt lat="42.2060783" lon="14.600385"><ele>11.0</ele><time>2026-03-25T14:05:31.809Z</time></trkpt><trkpt lat="42.2060233" lon="14.6005233"><ele>10.25</ele><time>2026-03-25T14:05:33.81Z</time></trkpt><trkpt lat="42.2059667" lon="14.6006567"><ele>9.5</ele><time>2026-03-25T14:05:35.809Z</time></trkpt><trkpt lat="42.205915" lon="14.600785"><ele>8.75</ele><time>2026-03-25T14:05:37.81Z</time></trkpt><trkpt lat="42.2058583" lon="14.6009133"><ele>8.0</ele><time>2026-03-25T14:05:39.81Z</time></trkpt><trkpt lat="42.2058" lon="14.6010517"><ele>8.75</ele><time>2026-03-25T14:05:41.809Z</time></trkpt><trkpt lat="42.2057333" lon="14.601175"><ele>9.5</ele><time>2026-03-25T14:05:43.809Z</time></trkpt><trkpt lat="42.2056767" lon="14.6013083"><ele>10.25</ele><time>2026-03-25T14:05:45.809Z</time></trkpt><trkpt lat="42.20562" lon="14.6014433"><ele>11.0</ele><time>2026-03-25T14:05:47.809Z</time></trkpt><trkpt lat="42.2055583" lon="14.60158"><ele>11.0</ele><time>2026-03-25T14:05:49.809Z</time></trkpt><trkpt lat="42.2055" lon="14.60171"><ele>11.0</ele><time>2026-03-25T14:05:51.809Z</time></trkpt><trkpt lat="42.2054417" lon="14.60183"><ele>11.0</ele><time>2026-03-25T14:05:53.809Z</time></trkpt><trkpt lat="42.2053833" lon="14.6019583"><ele>11.0</ele><time>2026-03-25T14:05:55.809Z</time></trkpt><trkpt lat="42.205325" lon="14.602085"><ele>11.0</ele><time>2026-03-25T14:05:57.81Z</time></trkpt><trkpt lat="42.205265" lon="14.6022083"><ele>10.200000000000001</ele><time>2026-03-25T14:05:59.81Z</time></trkpt><trkpt lat="42.2052067" lon="14.60233"><ele>9.4</ele><time>2026-03-25T14:06:01.811Z</time></trkpt><trkpt lat="42.2051483" lon="14.60246"><ele>8.6</ele><time>2026-03-25T14:06:03.81Z</time></trkpt><trkpt lat="42.2050917" lon="14.6025917"><ele>7.8</ele><time>2026-03-25T14:06:05.811Z</time></trkpt><trkpt lat="42.2050367" lon="14.602725"><ele>7.0</ele><time>2026-03-25T14:06:07.811Z</time></trkpt><trkpt lat="42.2049817" lon="14.602855"><ele>6.3999999999999995</ele><time>2026-03-25T14:06:09.81Z</time></trkpt><trkpt lat="42.204925" lon="14.6029817"><ele>5.799999999999999</ele><time>2026-03-25T14:06:11.81Z</time></trkpt><trkpt lat="42.2048683" lon="14.603115"><ele>5.2</ele><time>2026-03-25T14:06:13.81Z</time></trkpt><trkpt lat="42.2048117" lon="14.6032417"><ele>4.6</ele><time>2026-03-25T14:06:15.811Z</time></trkpt><trkpt lat="42.2047567" lon="14.6033667"><ele>4.0</ele><time>2026-03-25T14:06:17.81Z</time></trkpt><trkpt lat="42.2047" lon="14.6034867"><ele>3.4000000000000004</ele><time>2026-03-25T14:06:19.81Z</time></trkpt><trkpt lat="42.2046367" lon="14.6035917"><ele>2.8000000000000003</ele><time>2026-03-25T14:06:21.81Z</time></trkpt><trkpt lat="42.2045717" lon="14.603695"><ele>2.2</ele><time>2026-03-25T14:06:23.81Z</time></trkpt><trkpt lat="42.2045117" lon="14.60382"><ele>1.6</ele><time>2026-03-25T14:06:25.81Z</time></trkpt><trkpt lat="42.2044583" lon="14.6039483"><ele>1.0</ele><time>2026-03-25T14:06:27.81Z</time></trkpt><trkpt lat="42.204405" lon="14.6040833"><ele>1.0</ele><time>2026-03-25T14:06:29.811Z</time></trkpt><trkpt lat="42.2043567" lon="14.6042067"><ele>1.0</ele><time>2026-03-25T14:06:31.811Z</time></trkpt><trkpt lat="42.2043133" lon="14.6043367"><ele>1.0</ele><time>2026-03-25T14:06:33.81Z</time></trkpt><trkpt lat="42.2042633" lon="14.6044667"><ele>1.0</ele><time>2026-03-25T14:06:35.81Z</time></trkpt><trkpt lat="42.20421" lon="14.6045817"><ele>1.0</ele><time>2026-03-25T14:06:37.81Z</time></trkpt><trkpt lat="42.2041633" lon="14.6047017"><ele>1.0</ele><time>2026-03-25T14:06:39.81Z</time></trkpt><trkpt lat="42.20411" lon="14.6048217"><ele>1.0</ele><time>2026-03-25T14:06:41.811Z</time></trkpt><trkpt lat="42.20406" lon="14.604935"><ele>1.0</ele><time>2026-03-25T14:06:43.81Z</time></trkpt><trkpt lat="42.2040083" lon="14.6050517"><ele>1.0</ele><time>2026-03-25T14:06:45.81Z</time></trkpt><trkpt lat="42.2039567" lon="14.60517"><ele>1.0</ele><time>2026-03-25T14:06:47.81Z</time></trkpt><trkpt lat="42.2039083" lon="14.60528"><ele>0.8</ele><time>2026-03-25T14:06:49.81Z</time></trkpt><trkpt lat="42.2038583" lon="14.60539"><ele>0.6000000000000001</ele><time>2026-03-25T14:06:51.81Z</time></trkpt><trkpt lat="42.203805" lon="14.6055133"><ele>0.4</ele><time>2026-03-25T14:06:53.81Z</time></trkpt><trkpt lat="42.2037567" lon="14.6056333"><ele>0.2</ele><time>2026-03-25T14:06:55.81Z</time></trkpt><trkpt lat="42.203705" lon="14.60574"><ele>0.0</ele><time>2026-03-25T14:06:57.811Z</time></trkpt><trkpt lat="42.2036567" lon="14.6058467"><ele>0.0</ele><time>2026-03-25T14:06:59.81Z</time></trkpt><trkpt lat="42.203605" lon="14.6059567"><ele>0.0</ele><time>2026-03-25T14:07:01.81Z</time></trkpt><trkpt lat="42.2035517" lon="14.6060783"><ele>0.0</ele><time>2026-03-25T14:07:03.81Z</time></trkpt><trkpt lat="42.2035017" lon="14.6061917"><ele>0.0</ele><time>2026-03-25T14:07:05.81Z</time></trkpt><trkpt lat="42.2034483" lon="14.6063133"><ele>0.0</ele><time>2026-03-25T14:07:07.81Z</time></trkpt><trkpt lat="42.2033917" lon="14.6064383"><ele>0.2</ele><time>2026-03-25T14:07:09.81Z</time></trkpt><trkpt lat="42.20334" lon="14.6065667"><ele>0.4</ele><time>2026-03-25T14:07:11.81Z</time></trkpt><trkpt lat="42.20329" lon="14.6066883"><ele>0.6000000000000001</ele><time>2026-03-25T14:07:13.81Z</time></trkpt><trkpt lat="42.2032383" lon="14.60681"><ele>0.8</ele><time>2026-03-25T14:07:15.81Z</time></trkpt><trkpt lat="42.2031833" lon="14.606935"><ele>1.0</ele><time>2026-03-25T14:07:17.81Z</time></trkpt><trkpt lat="42.20313" lon="14.6070617"><ele>1.4</ele><time>2026-03-25T14:07:19.81Z</time></trkpt><trkpt lat="42.203075" lon="14.6071833"><ele>1.8</ele><time>2026-03-25T14:07:21.81Z</time></trkpt><trkpt lat="42.20302" lon="14.6073083"><ele>2.1999999999999997</ele><time>2026-03-25T14:07:23.81Z</time></trkpt><trkpt lat="42.2029617" lon="14.60743"><ele>2.6</ele><time>2026-03-25T14:07:25.81Z</time></trkpt><trkpt lat="42.202905" lon="14.6075467"><ele>3.0</ele><time>2026-03-25T14:07:27.811Z</time></trkpt><trkpt lat="42.20285" lon="14.6076767"><ele>3.0</ele><time>2026-03-25T14:07:29.81Z</time></trkpt><trkpt lat="42.2028" lon="14.607815"><ele>3.0</ele><time>2026-03-25T14:07:31.81Z</time></trkpt><trkpt lat="42.20274" lon="14.6079383"><ele>3.0</ele><time>2026-03-25T14:07:33.81Z</time></trkpt><trkpt lat="42.2026867" lon="14.6080583"><ele>3.0</ele><time>2026-03-25T14:07:35.811Z</time></trkpt><trkpt lat="42.2026317" lon="14.6081883"><ele>3.0</ele><time>2026-03-25T14:07:37.811Z</time></trkpt><trkpt lat="42.2025783" lon="14.608325"><ele>3.0</ele><time>2026-03-25T14:07:39.81Z</time></trkpt><trkpt lat="42.202525" lon="14.6084517"><ele>3.0</ele><time>2026-03-25T14:07:41.81Z</time></trkpt><trkpt lat="42.202475" lon="14.6085883"><ele>3.0</ele><time>2026-03-25T14:07:43.81Z</time></trkpt><trkpt lat="42.202415" lon="14.60872"><ele>3.0</ele><time>2026-03-25T14:07:45.81Z</time></trkpt><trkpt lat="42.2023667" lon="14.608845"><ele>3.0</ele><time>2026-03-25T14:07:47.811Z</time></trkpt><trkpt lat="42.2023167" lon="14.6089683"><ele>3.0</ele><time>2026-03-25T14:07:49.81Z</time></trkpt><trkpt lat="42.2022667" lon="14.6090867"><ele>3.0</ele><time>2026-03-25T14:07:51.81Z</time></trkpt><trkpt lat="42.2022217" lon="14.60921"><ele>3.0</ele><time>2026-03-25T14:07:53.81Z</time></trkpt><trkpt lat="42.2021717" lon="14.609325"><ele>3.0</ele><time>2026-03-25T14:07:55.81Z</time></trkpt><trkpt lat="42.202125" lon="14.60943"><ele>3.0</ele><time>2026-03-25T14:07:57.81Z</time></trkpt><trkpt lat="42.2020717" lon="14.6095483"><ele>3.0</ele><time>2026-03-25T14:07:59.811Z</time></trkpt><trkpt lat="42.2020333" lon="14.609665"><ele>3.0</ele><time>2026-03-25T14:08:01.81Z</time></trkpt><trkpt lat="42.201985" lon="14.609775"><ele>3.0</ele><time>2026-03-25T14:08:03.81Z</time></trkpt><trkpt lat="42.201955" lon="14.6098967"><ele>3.0</ele><time>2026-03-25T14:08:05.81Z</time></trkpt><trkpt lat="42.20194" lon="14.6100283"><ele>3.0</ele><time>2026-03-25T14:08:07.81Z</time></trkpt><trkpt lat="42.2019383" lon="14.6101817"><ele>3.0</ele><time>2026-03-25T14:08:09.81Z</time></trkpt><trkpt lat="42.2019333" lon="14.61027"><ele>3.0</ele><time>2026-03-25T14:08:10.81Z</time></trkpt><trkpt lat="42.2019317" lon="14.6103617"><ele>3.0</ele><time>2026-03-25T14:08:11.81Z</time></trkpt><trkpt lat="42.20193" lon="14.6104533"><ele>3.0</ele><time>2026-03-25T14:08:12.81Z</time></trkpt><trkpt lat="42.2019133" lon="14.61054"><ele>3.0</ele><time>2026-03-25T14:08:13.811Z</time></trkpt><trkpt lat="42.20188" lon="14.6106183"><ele>3.0</ele><time>2026-03-25T14:08:14.81Z</time></trkpt><trkpt lat="42.2018217" lon="14.6107633"><ele>3.4</ele><time>2026-03-25T14:08:16.81Z</time></trkpt><trkpt lat="42.2017733" lon="14.610895"><ele>3.8</ele><time>2026-03-25T14:08:18.81Z</time></trkpt><trkpt lat="42.2017317" lon="14.6110217"><ele>4.2</ele><time>2026-03-25T14:08:20.81Z</time></trkpt><trkpt lat="42.2016917" lon="14.6111617"><ele>4.6</ele><time>2026-03-25T14:08:22.81Z</time></trkpt><trkpt lat="42.2016517" lon="14.6113033"><ele>5.0</ele><time>2026-03-25T14:08:24.81Z</time></trkpt><trkpt lat="42.201595" lon="14.6114317"><ele>5.0</ele><time>2026-03-25T14:08:26.81Z</time></trkpt><trkpt lat="42.2015567" lon="14.6115667"><ele>5.0</ele><time>2026-03-25T14:08:28.81Z</time></trkpt><trkpt lat="42.20151" lon="14.6117033"><ele>5.0</ele><time>2026-03-25T14:08:30.81Z</time></trkpt><trkpt lat="42.2014617" lon="14.61183"><ele>5.0</ele><time>2026-03-25T14:08:32.81Z</time></trkpt><trkpt lat="42.2014233" lon="14.6119633"><ele>5.0</ele><time>2026-03-25T14:08:34.811Z</time></trkpt><trkpt lat="42.2013833" lon="14.61209"><ele>5.25</ele><time>2026-03-25T14:08:36.81Z</time></trkpt><trkpt lat="42.2013433" lon="14.6122383"><ele>5.5</ele><time>2026-03-25T14:08:38.81Z</time></trkpt><trkpt lat="42.2013067" lon="14.612385"><ele>5.75</ele><time>2026-03-25T14:08:40.81Z</time></trkpt><trkpt lat="42.2012633" lon="14.612535"><ele>6.0</ele><time>2026-03-25T14:08:42.811Z</time></trkpt><trkpt lat="42.20122" lon="14.6126733"><ele>6.0</ele><time>2026-03-25T14:08:44.81Z</time></trkpt><trkpt lat="42.201175" lon="14.6128217"><ele>6.0</ele><time>2026-03-25T14:08:46.81Z</time></trkpt><trkpt lat="42.2011333" lon="14.612975"><ele>6.0</ele><time>2026-03-25T14:08:48.81Z</time></trkpt><trkpt lat="42.2010833" lon="14.6131233"><ele>6.0</ele><time>2026-03-25T14:08:50.81Z</time></trkpt><trkpt lat="42.2010583" lon="14.6132017"><ele>6.0</ele><time>2026-03-25T14:08:51.81Z</time></trkpt><trkpt lat="42.2010317" lon="14.61328"><ele>6.25</ele><time>2026-03-25T14:08:52.81Z</time></trkpt><trkpt lat="42.2009867" lon="14.6134283"><ele>6.5</ele><time>2026-03-25T14:08:54.81Z</time></trkpt><trkpt lat="42.2009367" lon="14.6135717"><ele>6.75</ele><time>2026-03-25T14:08:56.81Z</time></trkpt><trkpt lat="42.2008917" lon="14.61372"><ele>7.0</ele><time>2026-03-25T14:08:58.811Z</time></trkpt><trkpt lat="42.2008483" lon="14.6138617"><ele>6.6</ele><time>2026-03-25T14:09:00.81Z</time></trkpt><trkpt lat="42.2008133" lon="14.6140017"><ele>6.199999999999999</ele><time>2026-03-25T14:09:02.811Z</time></trkpt><trkpt lat="42.2007767" lon="14.61415"><ele>5.8</ele><time>2026-03-25T14:09:04.81Z</time></trkpt><trkpt lat="42.2007317" lon="14.6143017"><ele>5.4</ele><time>2026-03-25T14:09:06.811Z</time></trkpt><trkpt lat="42.2007033" lon="14.6143817"><ele>5.0</ele><time>2026-03-25T14:09:07.811Z</time></trkpt><trkpt lat="42.2006817" lon="14.6144617"><ele>5.8</ele><time>2026-03-25T14:09:08.811Z</time></trkpt><trkpt lat="42.2006567" lon="14.6146183"><ele>6.6</ele><time>2026-03-25T14:09:10.81Z</time></trkpt><trkpt lat="42.20065" lon="14.6147683"><ele>7.4</ele><time>2026-03-25T14:09:12.81Z</time></trkpt><trkpt lat="42.2006433" lon="14.614905"><ele>8.2</ele><time>2026-03-25T14:09:14.81Z</time></trkpt><trkpt lat="42.200605" lon="14.6150283"><ele>9.0</ele><time>2026-03-25T14:09:16.81Z</time></trkpt><trkpt lat="42.200555" lon="14.6151433"><ele>9.0</ele><time>2026-03-25T14:09:18.81Z</time></trkpt><trkpt lat="42.2005033" lon="14.61524"><ele>9.0</ele><time>2026-03-25T14:09:20.81Z</time></trkpt><trkpt lat="42.2004433" lon="14.6153417"><ele>9.0</ele><time>2026-03-25T14:09:22.81Z</time></trkpt><trkpt lat="42.2003667" lon="14.6154617"><ele>9.0</ele><time>2026-03-25T14:09:24.81Z</time></trkpt><trkpt lat="42.2002983" lon="14.6155917"><ele>9.0</ele><time>2026-03-25T14:09:26.81Z</time></trkpt><trkpt lat="42.20025" lon="14.6157417"><ele>8.166666666666666</ele><time>2026-03-25T14:09:28.81Z</time></trkpt><trkpt lat="42.2002067" lon="14.6158967"><ele>7.333333333333333</ele><time>2026-03-25T14:09:30.811Z</time></trkpt><trkpt lat="42.200155" lon="14.616045"><ele>6.5</ele><time>2026-03-25T14:09:32.81Z</time></trkpt><trkpt lat="42.2001283" lon="14.6161233"><ele>5.666666666666666</ele><time>2026-03-25T14:09:33.81Z</time></trkpt><trkpt lat="42.2000983" lon="14.6162"><ele>4.833333333333333</ele><time>2026-03-25T14:09:34.81Z</time></trkpt><trkpt lat="42.20007" lon="14.6162767"><ele>4.0</ele><time>2026-03-25T14:09:35.81Z</time></trkpt><trkpt lat="42.2000183" lon="14.616425"><ele>4.5</ele><time>2026-03-25T14:09:37.81Z</time></trkpt><trkpt lat="42.1999717" lon="14.6165783"><ele>5.0</ele><time>2026-03-25T14:09:39.81Z</time></trkpt><trkpt lat="42.1999233" lon="14.6167317"><ele>5.5</ele><time>2026-03-25T14:09:41.81Z</time></trkpt><trkpt lat="42.1998717" lon="14.6168767"><ele>6.0</ele><time>2026-03-25T14:09:43.81Z</time></trkpt><trkpt lat="42.199825" lon="14.61702"><ele>6.0</ele><time>2026-03-25T14:09:45.81Z</time></trkpt><trkpt lat="42.1997817" lon="14.6171717"><ele>6.0</ele><time>2026-03-25T14:09:47.811Z</time></trkpt><trkpt lat="42.199755" lon="14.6172517"><ele>6.0</ele><time>2026-03-25T14:09:48.81Z</time></trkpt><trkpt lat="42.1997317" lon="14.6173333"><ele>6.0</ele><time>2026-03-25T14:09:49.81Z</time></trkpt><trkpt lat="42.1997017" lon="14.6174133"><ele>6.0</ele><time>2026-03-25T14:09:50.811Z</time></trkpt><trkpt lat="42.1996717" lon="14.6174933"><ele>6.0</ele><time>2026-03-25T14:09:51.81Z</time></trkpt><trkpt lat="42.1996433" lon="14.617575"><ele>6.0</ele><time>2026-03-25T14:09:52.81Z</time></trkpt><trkpt lat="42.199615" lon="14.617655"><ele>6.0</ele><time>2026-03-25T14:09:53.81Z</time></trkpt><trkpt lat="42.1995867" lon="14.6177367"><ele>6.0</ele><time>2026-03-25T14:09:54.811Z</time></trkpt><trkpt lat="42.1995367" lon="14.6178867"><ele>6.0</ele><time>2026-03-25T14:09:56.81Z</time></trkpt><trkpt lat="42.1994817" lon="14.6180417"><ele>6.0</ele><time>2026-03-25T14:09:58.81Z</time></trkpt><trkpt lat="42.199455" lon="14.6181217"><ele>6.0</ele><time>2026-03-25T14:09:59.811Z</time></trkpt><trkpt lat="42.199425" lon="14.6181983"><ele>5.25</ele><time>2026-03-25T14:10:00.81Z</time></trkpt><trkpt lat="42.199365" lon="14.6183467"><ele>4.5</ele><time>2026-03-25T14:10:02.81Z</time></trkpt><trkpt lat="42.1993117" lon="14.6184883"><ele>3.75</ele><time>2026-03-25T14:10:04.81Z</time></trkpt><trkpt lat="42.199255" lon="14.6186333"><ele>3.0</ele><time>2026-03-25T14:10:06.81Z</time></trkpt><trkpt lat="42.1992167" lon="14.6187883"><ele>2.8571428571428568</ele><time>2026-03-25T14:10:08.811Z</time></trkpt><trkpt lat="42.1991717" lon="14.6189333"><ele>2.7142857142857144</ele><time>2026-03-25T14:10:10.81Z</time></trkpt><trkpt lat="42.1991467" lon="14.6190117"><ele>2.571428571428571</ele><time>2026-03-25T14:10:11.81Z</time></trkpt><trkpt lat="42.1991233" lon="14.6190917"><ele>2.4285714285714284</ele><time>2026-03-25T14:10:12.811Z</time></trkpt><trkpt lat="42.199095" lon="14.6191733"><ele>2.2857142857142856</ele><time>2026-03-25T14:10:13.811Z</time></trkpt><trkpt lat="42.1990683" lon="14.6192533"><ele>2.142857142857143</ele><time>2026-03-25T14:10:14.81Z</time></trkpt><trkpt lat="42.1990417" lon="14.6193317"><ele>2.0</ele><time>2026-03-25T14:10:15.81Z</time></trkpt><trkpt lat="42.19899" lon="14.61948"><ele>3.1666666666666665</ele><time>2026-03-25T14:10:17.81Z</time></trkpt><trkpt lat="42.19894" lon="14.61963"><ele>4.333333333333333</ele><time>2026-03-25T14:10:19.81Z</time></trkpt><trkpt lat="42.1989167" lon="14.619715"><ele>5.5</ele><time>2026-03-25T14:10:20.81Z</time></trkpt><trkpt lat="42.1988917" lon="14.6197967"><ele>6.666666666666667</ele><time>2026-03-25T14:10:21.81Z</time></trkpt><trkpt lat="42.1988683" lon="14.6198767"><ele>7.833333333333333</ele><time>2026-03-25T14:10:22.81Z</time></trkpt><trkpt lat="42.1988433" lon="14.61996"><ele>9.0</ele><time>2026-03-25T14:10:23.81Z</time></trkpt><trkpt lat="42.1988183" lon="14.620045"><ele>9.000000000000002</ele><time>2026-03-25T14:10:24.81Z</time></trkpt><trkpt lat="42.198795" lon="14.620125"><ele>9.0</ele><time>2026-03-25T14:10:25.811Z</time></trkpt><trkpt lat="42.1987717" lon="14.6202083"><ele>9.0</ele><time>2026-03-25T14:10:26.81Z</time></trkpt><trkpt lat="42.19875" lon="14.62029"><ele>9.0</ele><time>2026-03-25T14:10:27.81Z</time></trkpt><trkpt lat="42.198725" lon="14.62037"><ele>9.0</ele><time>2026-03-25T14:10:28.81Z</time></trkpt><trkpt lat="42.1987033" lon="14.6204517"><ele>9.000000000000002</ele><time>2026-03-25T14:10:29.81Z</time></trkpt><trkpt lat="42.1986633" lon="14.6206067"><ele>9.0</ele><time>2026-03-25T14:10:31.811Z</time></trkpt><trkpt lat="42.1986433" lon="14.6206883"><ele>9.0</ele><time>2026-03-25T14:10:32.81Z</time></trkpt><trkpt lat="42.1986217" lon="14.6207683"><ele>9.0</ele><time>2026-03-25T14:10:33.811Z</time></trkpt><trkpt lat="42.1986" lon="14.6208483"><ele>9.0</ele><time>2026-03-25T14:10:34.81Z</time></trkpt><trkpt lat="42.1985567" lon="14.6210033"><ele>9.0</ele><time>2026-03-25T14:10:36.81Z</time></trkpt><trkpt lat="42.1985067" lon="14.62115"><ele>9.0</ele><time>2026-03-25T14:10:38.81Z</time></trkpt><trkpt lat="42.198465" lon="14.6212983"><ele>8.75</ele><time>2026-03-25T14:10:40.81Z</time></trkpt><trkpt lat="42.1984183" lon="14.6214533"><ele>8.5</ele><time>2026-03-25T14:10:42.81Z</time></trkpt><trkpt lat="42.198375" lon="14.6216117"><ele>8.25</ele><time>2026-03-25T14:10:44.81Z</time></trkpt><trkpt lat="42.1983283" lon="14.6217583"><ele>8.0</ele><time>2026-03-25T14:10:46.81Z</time></trkpt><trkpt lat="42.198285" lon="14.6219117"><ele>7.0</ele><time>2026-03-25T14:10:48.81Z</time></trkpt><trkpt lat="42.198245" lon="14.6220683"><ele>6.0</ele><time>2026-03-25T14:10:50.81Z</time></trkpt><trkpt lat="42.1982033" lon="14.6222217"><ele>5.0</ele><time>2026-03-25T14:10:52.81Z</time></trkpt><trkpt lat="42.19816" lon="14.6223783"><ele>4.0</ele><time>2026-03-25T14:10:54.81Z</time></trkpt><trkpt lat="42.1981067" lon="14.6225267"><ele>5.75</ele><time>2026-03-25T14:10:56.81Z</time></trkpt><trkpt lat="42.1980633" lon="14.6226733"><ele>7.5</ele><time>2026-03-25T14:10:58.81Z</time></trkpt><trkpt lat="42.1980133" lon="14.6228133"><ele>9.25</ele><time>2026-03-25T14:11:00.811Z</time></trkpt><trkpt lat="42.1979683" lon="14.622955"><ele>11.0</ele><time>2026-03-25T14:11:02.81Z</time></trkpt><trkpt lat="42.1979283" lon="14.6230983"><ele>11.0</ele><time>2026-03-25T14:11:04.81Z</time></trkpt><trkpt lat="42.1978917" lon="14.6232417"><ele>11.0</ele><time>2026-03-25T14:11:06.81Z</time></trkpt><trkpt lat="42.19786" lon="14.62339"><ele>11.0</ele><time>2026-03-25T14:11:08.81Z</time></trkpt><trkpt lat="42.19782" lon="14.623535"><ele>11.0</ele><time>2026-03-25T14:11:10.811Z</time></trkpt><trkpt lat="42.1977717" lon="14.6236783"><ele>10.600000000000001</ele><time>2026-03-25T14:11:12.81Z</time></trkpt><trkpt lat="42.1977367" lon="14.6238167"><ele>10.200000000000001</ele><time>2026-03-25T14:11:14.81Z</time></trkpt><trkpt lat="42.1976983" lon="14.6239583"><ele>9.8</ele><time>2026-03-25T14:11:16.811Z</time></trkpt><trkpt lat="42.1976567" lon="14.6241067"><ele>9.4</ele><time>2026-03-25T14:11:18.81Z</time></trkpt><trkpt lat="42.1976133" lon="14.6242433"><ele>9.0</ele><time>2026-03-25T14:11:20.81Z</time></trkpt><trkpt lat="42.1975683" lon="14.6243817"><ele>8.0</ele><time>2026-03-25T14:11:22.81Z</time></trkpt><trkpt lat="42.1975117" lon="14.6245283"><ele>7.0</ele><time>2026-03-25T14:11:24.81Z</time></trkpt><trkpt lat="42.197465" lon="14.6246767"><ele>6.0</ele><time>2026-03-25T14:11:26.81Z</time></trkpt><trkpt lat="42.197415" lon="14.6248233"><ele>5.0</ele><time>2026-03-25T14:11:28.811Z</time></trkpt><trkpt lat="42.1973667" lon="14.62497"><ele>5.5</ele><time>2026-03-25T14:11:30.81Z</time></trkpt><trkpt lat="42.1973217" lon="14.625105"><ele>6.0</ele><time>2026-03-25T14:11:32.81Z</time></trkpt><trkpt lat="42.1972683" lon="14.625245"><ele>6.5</ele><time>2026-03-25T14:11:34.81Z</time></trkpt><trkpt lat="42.1972183" lon="14.6253883"><ele>7.0</ele><time>2026-03-25T14:11:36.81Z</time></trkpt><trkpt lat="42.1971633" lon="14.6255267"><ele>7.0</ele><time>2026-03-25T14:11:38.81Z</time></trkpt><trkpt lat="42.1971233" lon="14.62567"><ele>6.999999999999999</ele><time>2026-03-25T14:11:40.811Z</time></trkpt><trkpt lat="42.1970783" lon="14.6258067"><ele>6.999999999999999</ele><time>2026-03-25T14:11:42.811Z</time></trkpt><trkpt lat="42.197025" lon="14.6259317"><ele>7.0</ele><time>2026-03-25T14:11:44.811Z</time></trkpt><trkpt lat="42.1969767" lon="14.6260683"><ele>7.0</ele><time>2026-03-25T14:11:46.811Z</time></trkpt><trkpt lat="42.1969233" lon="14.626205"><ele>5.25</ele><time>2026-03-25T14:11:48.81Z</time></trkpt><trkpt lat="42.1968717" lon="14.6263483"><ele>3.5</ele><time>2026-03-25T14:11:50.81Z</time></trkpt><trkpt lat="42.196825" lon="14.6264867"><ele>1.75</ele><time>2026-03-25T14:11:52.81Z</time></trkpt><trkpt lat="42.1967733" lon="14.6266333"><ele>0.0</ele><time>2026-03-25T14:11:54.81Z</time></trkpt><trkpt lat="42.1967233" lon="14.6267767"><ele>0.0</ele><time>2026-03-25T14:11:56.81Z</time></trkpt><trkpt lat="42.1966717" lon="14.626915"><ele>0.0</ele><time>2026-03-25T14:11:58.81Z</time></trkpt><trkpt lat="42.1966183" lon="14.6270567"><ele>0.0</ele><time>2026-03-25T14:12:00.811Z</time></trkpt><trkpt lat="42.1965633" lon="14.627205"><ele>0.0</ele><time>2026-03-25T14:12:02.81Z</time></trkpt><trkpt lat="42.196535" lon="14.6272833"><ele>0.0</ele><time>2026-03-25T14:12:03.811Z</time></trkpt><trkpt lat="42.1964833" lon="14.6274367"><ele>1.0</ele><time>2026-03-25T14:12:05.81Z</time></trkpt><trkpt lat="42.196435" lon="14.62759"><ele>2.0</ele><time>2026-03-25T14:12:07.81Z</time></trkpt><trkpt lat="42.1963783" lon="14.627735"><ele>3.0</ele><time>2026-03-25T14:12:09.81Z</time></trkpt><trkpt lat="42.1963267" lon="14.6278783"><ele>4.0</ele><time>2026-03-25T14:12:11.81Z</time></trkpt><trkpt lat="42.196285" lon="14.6280217"><ele>3.9999999999999996</ele><time>2026-03-25T14:12:13.81Z</time></trkpt><trkpt lat="42.1962467" lon="14.6281583"><ele>4.0</ele><time>2026-03-25T14:12:15.81Z</time></trkpt><trkpt lat="42.1962133" lon="14.6282667"><ele>4.0</ele><time>2026-03-25T14:12:17.81Z</time></trkpt><trkpt lat="42.1961833" lon="14.62837"><ele>4.0</ele><time>2026-03-25T14:12:19.81Z</time></trkpt><trkpt lat="42.1961567" lon="14.628455"><ele>3.9999999999999996</ele><time>2026-03-25T14:12:21.81Z</time></trkpt><trkpt lat="42.1961333" lon="14.628545"><ele>4.0</ele><time>2026-03-25T14:12:23.811Z</time></trkpt><trkpt lat="42.1961033" lon="14.6286433"><ele>3.9999999999999996</ele><time>2026-03-25T14:12:25.81Z</time></trkpt><trkpt lat="42.196085" lon="14.6287417"><ele>4.0</ele><time>2026-03-25T14:12:27.81Z</time></trkpt><trkpt lat="42.1960667" lon="14.6288467"><ele>4.0</ele><time>2026-03-25T14:12:29.81Z</time></trkpt><trkpt lat="42.1960617" lon="14.628965"><ele>4.0</ele><time>2026-03-25T14:12:31.81Z</time></trkpt><trkpt lat="42.1960683" lon="14.6290767"><ele>3.9999999999999996</ele><time>2026-03-25T14:12:33.81Z</time></trkpt><trkpt lat="42.1960583" lon="14.629165"><ele>4.0</ele><time>2026-03-25T14:12:35.811Z</time></trkpt><trkpt lat="42.196035" lon="14.62925"><ele>3.9999999999999996</ele><time>2026-03-25T14:12:37.81Z</time></trkpt><trkpt lat="42.1960017" lon="14.6293417"><ele>4.0</ele><time>2026-03-25T14:12:39.81Z</time></trkpt><trkpt lat="42.19595" lon="14.6294117"><ele>4.0</ele><time>2026-03-25T14:12:41.81Z</time></trkpt><trkpt lat="42.1959133" lon="14.629505"><ele>4.0</ele><time>2026-03-25T14:12:43.811Z</time></trkpt><trkpt lat="42.195885" lon="14.6296167"><ele>3.9999999999999996</ele><time>2026-03-25T14:12:45.81Z</time></trkpt><trkpt lat="42.195855" lon="14.629725"><ele>4.0</ele><time>2026-03-25T14:12:47.81Z</time></trkpt><trkpt lat="42.195825" lon="14.6298333"><ele>3.9999999999999996</ele><time>2026-03-25T14:12:49.81Z</time></trkpt><trkpt lat="42.1957933" lon="14.6299417"><ele>4.0</ele><time>2026-03-25T14:12:51.81Z</time></trkpt><trkpt lat="42.1957633" lon="14.6300533"><ele>4.0</ele><time>2026-03-25T14:12:53.81Z</time></trkpt><trkpt lat="42.1957333" lon="14.6301633"><ele>4.0</ele><time>2026-03-25T14:12:55.81Z</time></trkpt><trkpt lat="42.195705" lon="14.6302767"><ele>3.9999999999999996</ele><time>2026-03-25T14:12:57.81Z</time></trkpt><trkpt lat="42.195675" lon="14.6303883"><ele>4.0</ele><time>2026-03-25T14:12:59.811Z</time></trkpt><trkpt lat="42.1956433" lon="14.6305"><ele>3.9999999999999996</ele><time>2026-03-25T14:13:01.81Z</time></trkpt><trkpt lat="42.1956083" lon="14.63061"><ele>4.0</ele><time>2026-03-25T14:13:03.81Z</time></trkpt><trkpt lat="42.195575" lon="14.6307267"><ele>4.0</ele><time>2026-03-25T14:13:05.81Z</time></trkpt><trkpt lat="42.1955483" lon="14.630825"><ele>4.0</ele><time>2026-03-25T14:13:07.81Z</time></trkpt><trkpt lat="42.19552" lon="14.6309083"><ele>3.9999999999999996</ele><time>2026-03-25T14:13:09.81Z</time></trkpt><trkpt lat="42.1954917" lon="14.631"><ele>4.0</ele><time>2026-03-25T14:13:11.81Z</time></trkpt><trkpt lat="42.1954667" lon="14.6311033"><ele>3.9999999999999996</ele><time>2026-03-25T14:13:13.81Z</time></trkpt><trkpt lat="42.1954333" lon="14.6312067"><ele>4.0</ele><time>2026-03-25T14:13:15.81Z</time></trkpt><trkpt lat="42.1954033" lon="14.6313083"><ele>4.0</ele><time>2026-03-25T14:13:17.81Z</time></trkpt><trkpt lat="42.1953783" lon="14.6314033"><ele>4.0</ele><time>2026-03-25T14:13:19.81Z</time></trkpt><trkpt lat="42.19535" lon="14.6315117"><ele>3.9999999999999996</ele><time>2026-03-25T14:13:21.811Z</time></trkpt><trkpt lat="42.1953083" lon="14.6316383"><ele>4.0</ele><time>2026-03-25T14:13:23.81Z</time></trkpt><trkpt lat="42.1952633" lon="14.6317533"><ele>4.0</ele><time>2026-03-25T14:13:25.81Z</time></trkpt><trkpt lat="42.19522" lon="14.6318783"><ele>4.0</ele><time>2026-03-25T14:13:27.81Z</time></trkpt><trkpt lat="42.1951833" lon="14.6320067"><ele>4.0</ele><time>2026-03-25T14:13:29.811Z</time></trkpt><trkpt lat="42.1951483" lon="14.6321467"><ele>4.0</ele><time>2026-03-25T14:13:31.811Z</time></trkpt><trkpt lat="42.195115" lon="14.6322767"><ele>4.0</ele><time>2026-03-25T14:13:33.81Z</time></trkpt><trkpt lat="42.1950867" lon="14.632365"><ele>4.166666666666666</ele><time>2026-03-25T14:13:35.81Z</time></trkpt><trkpt lat="42.1950583" lon="14.6324633"><ele>4.333333333333333</ele><time>2026-03-25T14:13:38.81Z</time></trkpt><trkpt lat="42.1950333" lon="14.6325717"><ele>4.5</ele><time>2026-03-25T14:13:41.81Z</time></trkpt><trkpt lat="42.195" lon="14.6326833"><ele>4.666666666666667</ele><time>2026-03-25T14:13:44.81Z</time></trkpt><trkpt lat="42.1949667" lon="14.6327917"><ele>4.833333333333334</ele><time>2026-03-25T14:13:47.81Z</time></trkpt><trkpt lat="42.1950283" lon="14.632685"><ele>5.0</ele><time>2026-03-25T14:14:53.88Z</time></trkpt><trkpt lat="42.19491" lon="14.6327517"><ele>5.166666666666667</ele><time>2026-03-25T14:14:57.31Z</time></trkpt><trkpt lat="42.19493" lon="14.6328417"><ele>5.333333333333334</ele><time>2026-03-25T14:15:11.811Z</time></trkpt><trkpt lat="42.1949367" lon="14.6329767"><ele>5.5</ele><time>2026-03-25T14:16:55.807Z</time></trkpt><trkpt lat="42.1949083" lon="14.633065"><ele>5.666666666666667</ele><time>2026-03-25T14:16:59.808Z</time></trkpt><trkpt lat="42.19488" lon="14.63315"><ele>5.833333333333333</ele><time>2026-03-25T14:17:02.807Z</time></trkpt><trkpt lat="42.19485" lon="14.6332467"><ele>6.0</ele><time>2026-03-25T14:17:05.807Z</time></trkpt><trkpt lat="42.194815" lon="14.6333383"><ele>6.0</ele><time>2026-03-25T14:17:07.807Z</time></trkpt><trkpt lat="42.194785" lon="14.6334367"><ele>6.0</ele><time>2026-03-25T14:17:09.807Z</time></trkpt><trkpt lat="42.1947567" lon="14.6335417"><ele>6.0</ele><time>2026-03-25T14:17:11.807Z</time></trkpt><trkpt lat="42.19473" lon="14.6336467"><ele>6.0</ele><time>2026-03-25T14:17:13.807Z</time></trkpt><trkpt lat="42.1947017" lon="14.6337567"><ele>6.0</ele><time>2026-03-25T14:17:15.807Z</time></trkpt><trkpt lat="42.194675" lon="14.633855"><ele>6.0</ele><time>2026-03-25T14:17:17.807Z</time></trkpt><trkpt lat="42.194645" lon="14.6339433"><ele>5.666666666666667</ele><time>2026-03-25T14:17:19.807Z</time></trkpt><trkpt lat="42.1946067" lon="14.63402"><ele>5.333333333333333</ele><time>2026-03-25T14:17:21.807Z</time></trkpt><trkpt lat="42.1945733" lon="14.634115"><ele>5.0</ele><time>2026-03-25T14:17:23.807Z</time></trkpt><trkpt lat="42.1945433" lon="14.6342167"><ele>4.666666666666666</ele><time>2026-03-25T14:17:25.807Z</time></trkpt><trkpt lat="42.19452" lon="14.6343217"><ele>4.333333333333333</ele><time>2026-03-25T14:17:27.807Z</time></trkpt><trkpt lat="42.19449" lon="14.634415"><ele>4.0</ele><time>2026-03-25T14:17:29.807Z</time></trkpt><trkpt lat="42.1944617" lon="14.6345033"><ele>3.6666666666666665</ele><time>2026-03-25T14:17:31.807Z</time></trkpt><trkpt lat="42.1944283" lon="14.6345917"><ele>3.333333333333333</ele><time>2026-03-25T14:17:33.807Z</time></trkpt><trkpt lat="42.1943967" lon="14.634695"><ele>3.0</ele><time>2026-03-25T14:17:35.808Z</time></trkpt><trkpt lat="42.1943633" lon="14.6347933"><ele>2.6666666666666665</ele><time>2026-03-25T14:17:37.807Z</time></trkpt><trkpt lat="42.1943283" lon="14.634885"><ele>2.333333333333333</ele><time>2026-03-25T14:17:39.807Z</time></trkpt><trkpt lat="42.1943167" lon="14.634985"><ele>2.0</ele><time>2026-03-25T14:17:41.807Z</time></trkpt><trkpt lat="42.1942783" lon="14.6350917"><ele>2.0</ele><time>2026-03-25T14:17:43.807Z</time></trkpt><trkpt lat="42.1942333" lon="14.6351833"><ele>1.9999999999999998</ele><time>2026-03-25T14:17:45.808Z</time></trkpt><trkpt lat="42.1942167" lon="14.6352833"><ele>2.0</ele><time>2026-03-25T14:17:47.807Z</time></trkpt><trkpt lat="42.1941967" lon="14.635365"><ele>2.0</ele><time>2026-03-25T14:17:49.807Z</time></trkpt><trkpt lat="42.1941717" lon="14.6354517"><ele>1.9999999999999998</ele><time>2026-03-25T14:17:51.807Z</time></trkpt><trkpt lat="42.19415" lon="14.6355517"><ele>2.0</ele><time>2026-03-25T14:17:53.807Z</time></trkpt><trkpt lat="42.1941183" lon="14.6356517"><ele>2.0</ele><time>2026-03-25T14:17:55.807Z</time></trkpt><trkpt lat="42.1940917" lon="14.6357467"><ele>1.9999999999999998</ele><time>2026-03-25T14:17:57.808Z</time></trkpt><trkpt lat="42.1940667" lon="14.6358417"><ele>2.0</ele><time>2026-03-25T14:17:59.807Z</time></trkpt><trkpt lat="42.194035" lon="14.635935"><ele>2.0</ele><time>2026-03-25T14:18:01.807Z</time></trkpt><trkpt lat="42.194005" lon="14.636035"><ele>2.0</ele><time>2026-03-25T14:18:03.807Z</time></trkpt><trkpt lat="42.1939733" lon="14.6361433"><ele>1.9999999999999998</ele><time>2026-03-25T14:18:05.808Z</time></trkpt><trkpt lat="42.193945" lon="14.6362517"><ele>2.0</ele><time>2026-03-25T14:18:07.807Z</time></trkpt><trkpt lat="42.1939117" lon="14.63637"><ele>1.9999999999999998</ele><time>2026-03-25T14:18:09.807Z</time></trkpt><trkpt lat="42.1938767" lon="14.6364867"><ele>2.0</ele><time>2026-03-25T14:18:11.808Z</time></trkpt><trkpt lat="42.1938533" lon="14.6365967"><ele>2.0</ele><time>2026-03-25T14:18:13.807Z</time></trkpt><trkpt lat="42.1938133" lon="14.6367"><ele>2.0</ele><time>2026-03-25T14:18:15.808Z</time></trkpt><trkpt lat="42.193785" lon="14.6368083"><ele>1.9999999999999998</ele><time>2026-03-25T14:18:17.807Z</time></trkpt><trkpt lat="42.1937583" lon="14.6369083"><ele>2.0</ele><time>2026-03-25T14:18:19.808Z</time></trkpt><trkpt lat="42.1937283" lon="14.6370033"><ele>1.8</ele><time>2026-03-25T14:18:21.807Z</time></trkpt><trkpt lat="42.19369" lon="14.6371233"><ele>1.6</ele><time>2026-03-25T14:18:23.807Z</time></trkpt><trkpt lat="42.1936583" lon="14.6372283"><ele>1.4000000000000001</ele><time>2026-03-25T14:18:25.808Z</time></trkpt><trkpt lat="42.193635" lon="14.6373333"><ele>1.2000000000000002</ele><time>2026-03-25T14:18:27.807Z</time></trkpt><trkpt lat="42.1935983" lon="14.6374517"><ele>1.0</ele><time>2026-03-25T14:18:29.807Z</time></trkpt><trkpt lat="42.193565" lon="14.63757"><ele>1.0</ele><time>2026-03-25T14:18:31.807Z</time></trkpt><trkpt lat="42.1935333" lon="14.637685"><ele>1.0</ele><time>2026-03-25T14:18:33.807Z</time></trkpt><trkpt lat="42.1935067" lon="14.6378083"><ele>1.0</ele><time>2026-03-25T14:18:35.807Z</time></trkpt><trkpt lat="42.1934783" lon="14.6379267"><ele>1.0</ele><time>2026-03-25T14:18:37.807Z</time></trkpt><trkpt lat="42.193445" lon="14.6380333"><ele>1.0</ele><time>2026-03-25T14:18:39.807Z</time></trkpt><trkpt lat="42.193405" lon="14.6381417"><ele>1.0</ele><time>2026-03-25T14:18:41.808Z</time></trkpt><trkpt lat="42.1933717" lon="14.6382683"><ele>1.0</ele><time>2026-03-25T14:18:43.807Z</time></trkpt><trkpt lat="42.1933433" lon="14.6383867"><ele>1.0</ele><time>2026-03-25T14:18:45.807Z</time></trkpt><trkpt lat="42.1933083" lon="14.6385"><ele>1.0</ele><time>2026-03-25T14:18:47.807Z</time></trkpt><trkpt lat="42.19327" lon="14.6386117"><ele>1.0</ele><time>2026-03-25T14:18:49.807Z</time></trkpt><trkpt lat="42.193235" lon="14.6387233"><ele>0.9999999999999999</ele><time>2026-03-25T14:18:51.807Z</time></trkpt><trkpt lat="42.1932067" lon="14.6388317"><ele>1.0</ele><time>2026-03-25T14:18:53.807Z</time></trkpt><trkpt lat="42.1931867" lon="14.6389317"><ele>1.0</ele><time>2026-03-25T14:18:55.807Z</time></trkpt><trkpt lat="42.1931617" lon="14.6390333"><ele>1.0</ele><time>2026-03-25T14:18:57.808Z</time></trkpt><trkpt lat="42.19314" lon="14.6391417"><ele>0.9999999999999999</ele><time>2026-03-25T14:18:59.807Z</time></trkpt><trkpt lat="42.1931167" lon="14.63924"><ele>1.0</ele><time>2026-03-25T14:19:01.807Z</time></trkpt><trkpt lat="42.1930917" lon="14.6393233"><ele>0.9999999999999999</ele><time>2026-03-25T14:19:03.807Z</time></trkpt><trkpt lat="42.1930683" lon="14.63942"><ele>1.0</ele><time>2026-03-25T14:19:05.807Z</time></trkpt><trkpt lat="42.1930483" lon="14.6395217"><ele>1.0</ele><time>2026-03-25T14:19:07.807Z</time></trkpt><trkpt lat="42.1930233" lon="14.6396267"><ele>1.0</ele><time>2026-03-25T14:19:09.807Z</time></trkpt><trkpt lat="42.1929917" lon="14.6397367"><ele>0.9999999999999999</ele><time>2026-03-25T14:19:11.807Z</time></trkpt><trkpt lat="42.192965" lon="14.6398517"><ele>1.0</ele><time>2026-03-25T14:19:13.808Z</time></trkpt><trkpt lat="42.192935" lon="14.6399633"><ele>0.8</ele><time>2026-03-25T14:19:15.808Z</time></trkpt><trkpt lat="42.192905" lon="14.64008"><ele>0.6000000000000001</ele><time>2026-03-25T14:19:17.807Z</time></trkpt><trkpt lat="42.1928733" lon="14.6402017"><ele>0.4</ele><time>2026-03-25T14:19:19.807Z</time></trkpt><trkpt lat="42.19284" lon="14.6403217"><ele>0.2</ele><time>2026-03-25T14:19:21.808Z</time></trkpt><trkpt lat="42.1928067" lon="14.6404417"><ele>0.0</ele><time>2026-03-25T14:19:23.807Z</time></trkpt><trkpt lat="42.1927783" lon="14.6405733"><ele>0.0</ele><time>2026-03-25T14:19:25.807Z</time></trkpt><trkpt lat="42.192745" lon="14.6407033"><ele>0.0</ele><time>2026-03-25T14:19:27.807Z</time></trkpt><trkpt lat="42.192715" lon="14.6408467"><ele>0.0</ele><time>2026-03-25T14:19:29.808Z</time></trkpt><trkpt lat="42.1926867" lon="14.641"><ele>0.0</ele><time>2026-03-25T14:19:31.808Z</time></trkpt><trkpt lat="42.1926583" lon="14.6411417"><ele>0.0</ele><time>2026-03-25T14:19:33.807Z</time></trkpt><trkpt lat="42.19262" lon="14.6412867"><ele>0.0</ele><time>2026-03-25T14:19:35.807Z</time></trkpt><trkpt lat="42.192585" lon="14.6414333"><ele>0.0</ele><time>2026-03-25T14:19:37.807Z</time></trkpt><trkpt lat="42.1925467" lon="14.6415767"><ele>0.0</ele><time>2026-03-25T14:19:39.807Z</time></trkpt><trkpt lat="42.1925083" lon="14.6417167"><ele>0.0</ele><time>2026-03-25T14:19:41.807Z</time></trkpt><trkpt lat="42.192475" lon="14.6418483"><ele>0.0</ele><time>2026-03-25T14:19:43.807Z</time></trkpt><trkpt lat="42.1924433" lon="14.641985"><ele>0.0</ele><time>2026-03-25T14:19:45.807Z</time></trkpt><trkpt lat="42.1924167" lon="14.6421283"><ele>0.0</ele><time>2026-03-25T14:19:47.807Z</time></trkpt><trkpt lat="42.1923883" lon="14.64226"><ele>0.0</ele><time>2026-03-25T14:19:49.807Z</time></trkpt><trkpt lat="42.1923517" lon="14.6423717"><ele>0.0</ele><time>2026-03-25T14:19:51.807Z</time></trkpt><trkpt lat="42.1923033" lon="14.6424633"><ele>0.0</ele><time>2026-03-25T14:19:53.807Z</time></trkpt><trkpt lat="42.1922317" lon="14.642545"><ele>0.0</ele><time>2026-03-25T14:19:55.807Z</time></trkpt><trkpt lat="42.1921583" lon="14.6426317"><ele>0.0</ele><time>2026-03-25T14:19:57.808Z</time></trkpt><trkpt lat="42.1920933" lon="14.642725"><ele>0.0</ele><time>2026-03-25T14:19:59.807Z</time></trkpt><trkpt lat="42.19203" lon="14.64281"><ele>0.0</ele><time>2026-03-25T14:20:01.807Z</time></trkpt><trkpt lat="42.191965" lon="14.6428983"><ele>0.0</ele><time>2026-03-25T14:20:03.808Z</time></trkpt><trkpt lat="42.191895" lon="14.6429833"><ele>0.0</ele><time>2026-03-25T14:20:05.807Z</time></trkpt><trkpt lat="42.1918167" lon="14.6430683"><ele>0.0</ele><time>2026-03-25T14:20:07.808Z</time></trkpt><trkpt lat="42.1917317" lon="14.643155"><ele>0.0</ele><time>2026-03-25T14:20:09.807Z</time></trkpt><trkpt lat="42.1916517" lon="14.6432267"><ele>0.0</ele><time>2026-03-25T14:20:11.807Z</time></trkpt><trkpt lat="42.19157" lon="14.643325"><ele>0.0</ele><time>2026-03-25T14:20:13.807Z</time></trkpt><trkpt lat="42.1915017" lon="14.6434217"><ele>0.4</ele><time>2026-03-25T14:20:15.807Z</time></trkpt><trkpt lat="42.19144" lon="14.6435233"><ele>0.8</ele><time>2026-03-25T14:20:17.808Z</time></trkpt><trkpt lat="42.1913767" lon="14.64363"><ele>1.2000000000000002</ele><time>2026-03-25T14:20:19.807Z</time></trkpt><trkpt lat="42.1913217" lon="14.6437367"><ele>1.6</ele><time>2026-03-25T14:20:21.807Z</time></trkpt><trkpt lat="42.1912683" lon="14.6438483"><ele>2.0</ele><time>2026-03-25T14:20:23.807Z</time></trkpt><trkpt lat="42.19122" lon="14.6439533"><ele>1.9999999999999998</ele><time>2026-03-25T14:20:25.807Z</time></trkpt><trkpt lat="42.191165" lon="14.6440583"><ele>2.0</ele><time>2026-03-25T14:20:27.808Z</time></trkpt><trkpt lat="42.1911033" lon="14.64415"><ele>2.0</ele><time>2026-03-25T14:20:29.808Z</time></trkpt><trkpt lat="42.19104" lon="14.644235"><ele>2.0</ele><time>2026-03-25T14:20:31.807Z</time></trkpt><trkpt lat="42.1909683" lon="14.6443067"><ele>1.9999999999999998</ele><time>2026-03-25T14:20:33.807Z</time></trkpt><trkpt lat="42.1908933" lon="14.6443517"><ele>2.0</ele><time>2026-03-25T14:20:35.808Z</time></trkpt><trkpt lat="42.19081" lon="14.6443833"><ele>2.0</ele><time>2026-03-25T14:20:37.807Z</time></trkpt><trkpt lat="42.1907217" lon="14.6444117"><ele>2.0</ele><time>2026-03-25T14:20:39.807Z</time></trkpt><trkpt lat="42.1906317" lon="14.6444483"><ele>2.0</ele><time>2026-03-25T14:20:41.807Z</time></trkpt><trkpt lat="42.1905417" lon="14.644475"><ele>2.0</ele><time>2026-03-25T14:20:43.807Z</time></trkpt><trkpt lat="42.1904467" lon="14.6445083"><ele>2.0</ele><time>2026-03-25T14:20:45.807Z</time></trkpt><trkpt lat="42.1903567" lon="14.6445383"><ele>2.1666666666666665</ele><time>2026-03-25T14:20:47.808Z</time></trkpt><trkpt lat="42.1902667" lon="14.644565"><ele>2.333333333333333</ele><time>2026-03-25T14:20:49.807Z</time></trkpt><trkpt lat="42.190175" lon="14.644585"><ele>2.5</ele><time>2026-03-25T14:20:51.807Z</time></trkpt><trkpt lat="42.1900817" lon="14.644585"><ele>2.6666666666666665</ele><time>2026-03-25T14:20:53.807Z</time></trkpt><trkpt lat="42.1899933" lon="14.6445667"><ele>2.8333333333333335</ele><time>2026-03-25T14:20:55.807Z</time></trkpt><trkpt lat="42.1899233" lon="14.64453"><ele>3.0</ele><time>2026-03-25T14:20:57.807Z</time></trkpt><trkpt lat="42.1898467" lon="14.6444717"><ele>2.6666666666666665</ele><time>2026-03-25T14:20:59.808Z</time></trkpt><trkpt lat="42.189775" lon="14.644425"><ele>2.3333333333333335</ele><time>2026-03-25T14:21:00.807Z</time></trkpt><trkpt lat="42.1897" lon="14.644415"><ele>2.0</ele><time>2026-03-25T14:21:01.807Z</time></trkpt><trkpt lat="42.189645" lon="14.6444583"><ele>1.6666666666666665</ele><time>2026-03-25T14:21:02.807Z</time></trkpt><trkpt lat="42.189565" lon="14.64451"><ele>1.3333333333333333</ele><time>2026-03-25T14:21:04.807Z</time></trkpt><trkpt lat="42.1894967" lon="14.64455"><ele>1.0</ele><time>2026-03-25T14:21:06.808Z</time></trkpt><trkpt lat="42.18942" lon="14.64459"><ele>0.9999999999999999</ele><time>2026-03-25T14:21:08.808Z</time></trkpt><trkpt lat="42.1893383" lon="14.6446183"><ele>1.0</ele><time>2026-03-25T14:21:10.807Z</time></trkpt><trkpt lat="42.1892517" lon="14.64463"><ele>1.0</ele><time>2026-03-25T14:21:12.807Z</time></trkpt><trkpt lat="42.1891617" lon="14.644635"><ele>1.0</ele><time>2026-03-25T14:21:14.807Z</time></trkpt><trkpt lat="42.1890717" lon="14.6446383"><ele>0.9999999999999999</ele><time>2026-03-25T14:21:16.807Z</time></trkpt><trkpt lat="42.1889933" lon="14.6446417"><ele>1.0</ele><time>2026-03-25T14:21:18.807Z</time></trkpt><trkpt lat="42.1889183" lon="14.6446217"><ele>1.1666666666666665</ele><time>2026-03-25T14:21:20.808Z</time></trkpt><trkpt lat="42.188865" lon="14.64457"><ele>1.3333333333333333</ele><time>2026-03-25T14:21:22.807Z</time></trkpt><trkpt lat="42.1888483" lon="14.644455"><ele>1.5</ele><time>2026-03-25T14:21:25.807Z</time></trkpt><trkpt lat="42.188865" lon="14.644345"><ele>1.6666666666666665</ele><time>2026-03-25T14:21:27.807Z</time></trkpt><trkpt lat="42.1888883" lon="14.6442267"><ele>1.8333333333333333</ele><time>2026-03-25T14:21:29.807Z</time></trkpt><trkpt lat="42.188915" lon="14.6441017"><ele>2.0</ele><time>2026-03-25T14:21:31.807Z</time></trkpt><trkpt lat="42.18894" lon="14.6439817"><ele>2.0</ele><time>2026-03-25T14:21:33.808Z</time></trkpt><trkpt lat="42.1889617" lon="14.6438667"><ele>2.0</ele><time>2026-03-25T14:21:35.807Z</time></trkpt><trkpt lat="42.1889833" lon="14.6437433"><ele>2.0</ele><time>2026-03-25T14:21:37.807Z</time></trkpt><trkpt lat="42.1890033" lon="14.6436133"><ele>2.0</ele><time>2026-03-25T14:21:39.807Z</time></trkpt><trkpt lat="42.1890267" lon="14.6434683"><ele>2.0</ele><time>2026-03-25T14:21:41.807Z</time></trkpt><trkpt lat="42.189045" lon="14.6433433"><ele>1.8</ele><time>2026-03-25T14:21:43.807Z</time></trkpt><trkpt lat="42.189075" lon="14.6432217"><ele>1.6</ele><time>2026-03-25T14:21:45.807Z</time></trkpt><trkpt lat="42.1891133" lon="14.64309"><ele>1.4000000000000001</ele><time>2026-03-25T14:21:47.807Z</time></trkpt><trkpt lat="42.1891417" lon="14.64296"><ele>1.2000000000000002</ele><time>2026-03-25T14:21:49.807Z</time></trkpt><trkpt lat="42.18917" lon="14.642835"><ele>1.0</ele><time>2026-03-25T14:21:51.807Z</time></trkpt><trkpt lat="42.1891917" lon="14.6427133"><ele>0.8333333333333333</ele><time>2026-03-25T14:21:53.807Z</time></trkpt><trkpt lat="42.1892117" lon="14.6425917"><ele>0.6666666666666666</ele><time>2026-03-25T14:21:55.807Z</time></trkpt><trkpt lat="42.189225" lon="14.64248"><ele>0.5</ele><time>2026-03-25T14:21:57.807Z</time></trkpt><trkpt lat="42.189225" lon="14.6423717"><ele>0.3333333333333333</ele><time>2026-03-25T14:21:59.807Z</time></trkpt><trkpt lat="42.189235" lon="14.642245"><ele>0.16666666666666666</ele><time>2026-03-25T14:22:01.807Z</time></trkpt><trkpt lat="42.18925" lon="14.6421217"><ele>0.0</ele><time>2026-03-25T14:22:03.807Z</time></trkpt><trkpt lat="42.18926" lon="14.6419983"><ele>0.0</ele><time>2026-03-25T14:22:05.808Z</time></trkpt><trkpt lat="42.189265" lon="14.6418633"><ele>0.0</ele><time>2026-03-25T14:22:07.807Z</time></trkpt><trkpt lat="42.189295" lon="14.6417333"><ele>0.0</ele><time>2026-03-25T14:22:09.807Z</time></trkpt><trkpt lat="42.1893367" lon="14.6416083"><ele>0.0</ele><time>2026-03-25T14:22:11.807Z</time></trkpt><trkpt lat="42.189385" lon="14.6414933"><ele>0.0</ele><time>2026-03-25T14:22:13.807Z</time></trkpt><trkpt lat="42.1894483" lon="14.641395"><ele>0.0</ele><time>2026-03-25T14:22:15.808Z</time></trkpt><trkpt lat="42.1895117" lon="14.6412983"><ele>0.0</ele><time>2026-03-25T14:22:17.807Z</time></trkpt><trkpt lat="42.1895767" lon="14.641195"><ele>0.0</ele><time>2026-03-25T14:22:19.807Z</time></trkpt><trkpt lat="42.1896417" lon="14.6411167"><ele>0.0</ele><time>2026-03-25T14:22:21.807Z</time></trkpt><trkpt lat="42.1897167" lon="14.6410217"><ele>0.0</ele><time>2026-03-25T14:22:23.807Z</time></trkpt><trkpt lat="42.18979" lon="14.6409183"><ele>0.2</ele><time>2026-03-25T14:22:25.808Z</time></trkpt><trkpt lat="42.1898617" lon="14.6408333"><ele>0.4</ele><time>2026-03-25T14:22:27.807Z</time></trkpt><trkpt lat="42.1899483" lon="14.6408083"><ele>0.6000000000000001</ele><time>2026-03-25T14:22:29.807Z</time></trkpt><trkpt lat="42.190055" lon="14.6408483"><ele>0.8</ele><time>2026-03-25T14:22:31.807Z</time></trkpt><trkpt lat="42.1901617" lon="14.6408917"><ele>1.0</ele><time>2026-03-25T14:22:33.808Z</time></trkpt><trkpt lat="42.1902617" lon="14.64091"><ele>1.0</ele><time>2026-03-25T14:22:35.807Z</time></trkpt><trkpt lat="42.1903367" lon="14.6408483"><ele>1.0</ele><time>2026-03-25T14:22:37.807Z</time></trkpt><trkpt lat="42.19037" lon="14.640725"><ele>1.0</ele><time>2026-03-25T14:22:39.807Z</time></trkpt><trkpt lat="42.1903983" lon="14.64058"><ele>1.0</ele><time>2026-03-25T14:22:41.807Z</time></trkpt><trkpt lat="42.1904267" lon="14.6404333"><ele>1.0</ele><time>2026-03-25T14:22:43.808Z</time></trkpt><trkpt lat="42.190455" lon="14.640275"><ele>1.0</ele><time>2026-03-25T14:22:45.807Z</time></trkpt><trkpt lat="42.1904667" lon="14.6401867"><ele>1.0</ele><time>2026-03-25T14:22:46.807Z</time></trkpt><trkpt lat="42.1904983" lon="14.6400467"><ele>1.0</ele><time>2026-03-25T14:22:48.807Z</time></trkpt><trkpt lat="42.1905267" lon="14.6399167"><ele>1.0</ele><time>2026-03-25T14:22:50.807Z</time></trkpt><trkpt lat="42.1905483" lon="14.6397917"><ele>1.0</ele><time>2026-03-25T14:22:52.807Z</time></trkpt><trkpt lat="42.1905733" lon="14.639655"><ele>1.0</ele><time>2026-03-25T14:22:54.807Z</time></trkpt><trkpt lat="42.1906067" lon="14.6395083"><ele>1.0</ele><time>2026-03-25T14:22:56.807Z</time></trkpt><trkpt lat="42.1906417" lon="14.6393817"><ele>1.0</ele><time>2026-03-25T14:22:58.807Z</time></trkpt><trkpt lat="42.1907117" lon="14.6393017"><ele>1.0</ele><time>2026-03-25T14:23:00.808Z</time></trkpt><trkpt lat="42.1907917" lon="14.63929"><ele>1.0</ele><time>2026-03-25T14:23:02.807Z</time></trkpt><trkpt lat="42.1908633" lon="14.63932"><ele>0.9999999999999999</ele><time>2026-03-25T14:23:04.807Z</time></trkpt><trkpt lat="42.1909283" lon="14.6393683"><ele>1.0</ele><time>2026-03-25T14:23:06.808Z</time></trkpt><trkpt lat="42.19097" lon="14.63945"><ele>1.0</ele><time>2026-03-25T14:23:08.807Z</time></trkpt><trkpt lat="42.1909967" lon="14.6395317"><ele>1.0</ele><time>2026-03-25T14:23:10.807Z</time></trkpt><trkpt lat="42.19099" lon="14.639625"><ele>0.9999999999999999</ele><time>2026-03-25T14:23:14.807Z</time></trkpt><trkpt lat="42.1909933" lon="14.63951"><ele>1.0</ele><time>2026-03-25T14:24:55.809Z</time></trkpt><trkpt lat="42.190955" lon="14.6394083"><ele>0.9999999999999999</ele><time>2026-03-25T14:24:58.809Z</time></trkpt><trkpt lat="42.1908917" lon="14.6393333"><ele>1.0</ele><time>2026-03-25T14:25:01.81Z</time></trkpt><trkpt lat="42.190825" lon="14.639285"><ele>1.0</ele><time>2026-03-25T14:25:04.809Z</time></trkpt><trkpt lat="42.19076" lon="14.639265"><ele>1.0</ele><time>2026-03-25T14:25:07.809Z</time></trkpt><trkpt lat="42.190695" lon="14.6393033"><ele>0.9999999999999999</ele><time>2026-03-25T14:25:10.809Z</time></trkpt><trkpt lat="42.1906483" lon="14.63939"><ele>1.0</ele><time>2026-03-25T14:25:13.81Z</time></trkpt><trkpt lat="42.1906167" lon="14.6394833"><ele>0.9999999999999999</ele><time>2026-03-25T14:25:15.81Z</time></trkpt><trkpt lat="42.1905917" lon="14.6395867"><ele>1.0</ele><time>2026-03-25T14:25:17.809Z</time></trkpt><trkpt lat="42.1905667" lon="14.6396917"><ele>1.0</ele><time>2026-03-25T14:25:19.809Z</time></trkpt><trkpt lat="42.19054" lon="14.6397883"><ele>1.0</ele><time>2026-03-25T14:25:21.809Z</time></trkpt><trkpt lat="42.1905133" lon="14.639885"><ele>0.9999999999999999</ele><time>2026-03-25T14:25:23.809Z</time></trkpt><trkpt lat="42.19049" lon="14.6399783"><ele>1.0</ele><time>2026-03-25T14:25:25.81Z</time></trkpt><trkpt lat="42.1904667" lon="14.6400783"><ele>1.0</ele><time>2026-03-25T14:25:27.809Z</time></trkpt><trkpt lat="42.1904433" lon="14.64017"><ele>0.9999999999999999</ele><time>2026-03-25T14:25:29.809Z</time></trkpt><trkpt lat="42.1904233" lon="14.6402633"><ele>1.0</ele><time>2026-03-25T14:25:31.809Z</time></trkpt><trkpt lat="42.1904083" lon="14.6403567"><ele>1.0</ele><time>2026-03-25T14:25:33.809Z</time></trkpt><trkpt lat="42.190395" lon="14.6404467"><ele>0.9999999999999999</ele><time>2026-03-25T14:25:35.81Z</time></trkpt><trkpt lat="42.1903767" lon="14.6405417"><ele>1.0</ele><time>2026-03-25T14:25:37.809Z</time></trkpt><trkpt lat="42.19036" lon="14.6406317"><ele>1.0</ele><time>2026-03-25T14:25:39.809Z</time></trkpt><trkpt lat="42.1903367" lon="14.6407133"><ele>0.9999999999999999</ele><time>2026-03-25T14:25:41.809Z</time></trkpt><trkpt lat="42.19029" lon="14.640805"><ele>1.0</ele><time>2026-03-25T14:25:44.809Z</time></trkpt><trkpt lat="42.1902083" lon="14.6408517"><ele>1.0</ele><time>2026-03-25T14:25:47.81Z</time></trkpt><trkpt lat="42.19013" lon="14.640835"><ele>1.0</ele><time>2026-03-25T14:25:49.809Z</time></trkpt><trkpt lat="42.19005" lon="14.640805"><ele>0.9999999999999999</ele><time>2026-03-25T14:25:51.809Z</time></trkpt><trkpt lat="42.1899667" lon="14.64077"><ele>1.0</ele><time>2026-03-25T14:25:53.809Z</time></trkpt><trkpt lat="42.1898833" lon="14.6407567"><ele>1.0</ele><time>2026-03-25T14:25:55.809Z</time></trkpt><trkpt lat="42.189805" lon="14.6408067"><ele>1.0</ele><time>2026-03-25T14:25:57.809Z</time></trkpt><trkpt lat="42.1897333" lon="14.6408983"><ele>1.0</ele><time>2026-03-25T14:25:59.809Z</time></trkpt><trkpt lat="42.1896567" lon="14.6410017"><ele>1.0</ele><time>2026-03-25T14:26:01.809Z</time></trkpt><trkpt lat="42.18958" lon="14.6411133"><ele>1.0</ele><time>2026-03-25T14:26:03.809Z</time></trkpt><trkpt lat="42.189505" lon="14.6412283"><ele>0.8</ele><time>2026-03-25T14:26:05.809Z</time></trkpt><trkpt lat="42.189435" lon="14.6413433"><ele>0.6000000000000001</ele><time>2026-03-25T14:26:07.81Z</time></trkpt><trkpt lat="42.1893683" lon="14.641455"><ele>0.4</ele><time>2026-03-25T14:26:09.809Z</time></trkpt><trkpt lat="42.1893133" lon="14.6415733"><ele>0.2</ele><time>2026-03-25T14:26:11.809Z</time></trkpt><trkpt lat="42.18927" lon="14.6417033"><ele>0.0</ele><time>2026-03-25T14:26:13.809Z</time></trkpt><trkpt lat="42.189255" lon="14.6418367"><ele>0.0</ele><time>2026-03-25T14:26:15.809Z</time></trkpt><trkpt lat="42.1892417" lon="14.64197"><ele>0.0</ele><time>2026-03-25T14:26:17.809Z</time></trkpt><trkpt lat="42.1892317" lon="14.6421033"><ele>0.0</ele><time>2026-03-25T14:26:19.809Z</time></trkpt><trkpt lat="42.1892217" lon="14.642225"><ele>0.0</ele><time>2026-03-25T14:26:21.809Z</time></trkpt><trkpt lat="42.1892067" lon="14.6423583"><ele>0.0</ele><time>2026-03-25T14:26:23.809Z</time></trkpt><trkpt lat="42.1891917" lon="14.6424917"><ele>0.0</ele><time>2026-03-25T14:26:25.809Z</time></trkpt><trkpt lat="42.1891733" lon="14.6426233"><ele>0.0</ele><time>2026-03-25T14:26:27.809Z</time></trkpt><trkpt lat="42.1891483" lon="14.64275"><ele>0.0</ele><time>2026-03-25T14:26:29.81Z</time></trkpt><trkpt lat="42.1891217" lon="14.6428733"><ele>0.0</ele><time>2026-03-25T14:26:31.809Z</time></trkpt><trkpt lat="42.1890933" lon="14.6429983"><ele>0.0</ele><time>2026-03-25T14:26:33.809Z</time></trkpt><trkpt lat="42.1890667" lon="14.6431233"><ele>0.2</ele><time>2026-03-25T14:26:35.809Z</time></trkpt><trkpt lat="42.1890417" lon="14.6432533"><ele>0.4</ele><time>2026-03-25T14:26:37.809Z</time></trkpt><trkpt lat="42.1890167" lon="14.6433833"><ele>0.6000000000000001</ele><time>2026-03-25T14:26:39.81Z</time></trkpt><trkpt lat="42.1889933" lon="14.6435117"><ele>0.8</ele><time>2026-03-25T14:26:41.809Z</time></trkpt><trkpt lat="42.1889667" lon="14.6436333"><ele>1.0</ele><time>2026-03-25T14:26:43.809Z</time></trkpt><trkpt lat="42.18894" lon="14.6437567"><ele>1.4</ele><time>2026-03-25T14:26:45.809Z</time></trkpt><trkpt lat="42.1889167" lon="14.6438817"><ele>1.8</ele><time>2026-03-25T14:26:47.809Z</time></trkpt><trkpt lat="42.1888867" lon="14.644005"><ele>2.1999999999999997</ele><time>2026-03-25T14:26:49.809Z</time></trkpt><trkpt lat="42.188855" lon="14.6441283"><ele>2.6</ele><time>2026-03-25T14:26:51.809Z</time></trkpt><trkpt lat="42.18883" lon="14.6442517"><ele>3.0</ele><time>2026-03-25T14:26:53.809Z</time></trkpt><trkpt lat="42.188805" lon="14.6443667"><ele>2.8333333333333335</ele><time>2026-03-25T14:26:55.809Z</time></trkpt><trkpt lat="42.1887817" lon="14.6444733"><ele>2.6666666666666665</ele><time>2026-03-25T14:26:57.809Z</time></trkpt><trkpt lat="42.1887583" lon="14.6445633"><ele>2.5</ele><time>2026-03-25T14:26:59.809Z</time></trkpt><trkpt lat="42.18869" lon="14.6446083"><ele>2.333333333333333</ele><time>2026-03-25T14:27:01.809Z</time></trkpt><trkpt lat="42.188595" lon="14.6446283"><ele>2.1666666666666665</ele><time>2026-03-25T14:27:03.809Z</time></trkpt><trkpt lat="42.1884917" lon="14.64464"><ele>2.0</ele><time>2026-03-25T14:27:05.809Z</time></trkpt><trkpt lat="42.18838" lon="14.64465"><ele>2.0</ele><time>2026-03-25T14:27:07.809Z</time></trkpt><trkpt lat="42.1882633" lon="14.6446617"><ele>2.0</ele><time>2026-03-25T14:27:09.809Z</time></trkpt><trkpt lat="42.1881467" lon="14.6446667"><ele>2.0</ele><time>2026-03-25T14:27:11.81Z</time></trkpt><trkpt lat="42.1880317" lon="14.644665"><ele>2.0</ele><time>2026-03-25T14:27:13.809Z</time></trkpt><trkpt lat="42.1879167" lon="14.644665"><ele>2.2</ele><time>2026-03-25T14:27:15.809Z</time></trkpt><trkpt lat="42.1878083" lon="14.6446617"><ele>2.4000000000000004</ele><time>2026-03-25T14:27:17.81Z</time></trkpt><trkpt lat="42.1877067" lon="14.6446517"><ele>2.5999999999999996</ele><time>2026-03-25T14:27:19.809Z</time></trkpt><trkpt lat="42.187615" lon="14.6446433"><ele>2.8</ele><time>2026-03-25T14:27:21.81Z</time></trkpt><trkpt lat="42.18753" lon="14.644685"><ele>3.0</ele><time>2026-03-25T14:27:23.809Z</time></trkpt><trkpt lat="42.1874967" lon="14.6448083"><ele>3.0</ele><time>2026-03-25T14:27:25.809Z</time></trkpt><trkpt lat="42.1874883" lon="14.64492"><ele>3.0</ele><time>2026-03-25T14:27:27.809Z</time></trkpt><trkpt lat="42.1874717" lon="14.645025"><ele>3.0</ele><time>2026-03-25T14:27:29.809Z</time></trkpt><trkpt lat="42.187445" lon="14.6451317"><ele>3.0</ele><time>2026-03-25T14:27:31.809Z</time></trkpt><trkpt lat="42.187415" lon="14.64526"><ele>3.0</ele><time>2026-03-25T14:27:33.809Z</time></trkpt><trkpt lat="42.1873667" lon="14.6454067"><ele>2.8</ele><time>2026-03-25T14:27:35.809Z</time></trkpt><trkpt lat="42.1873283" lon="14.6455433"><ele>2.5999999999999996</ele><time>2026-03-25T14:27:37.809Z</time></trkpt><trkpt lat="42.1873017" lon="14.6456717"><ele>2.4000000000000004</ele><time>2026-03-25T14:27:39.809Z</time></trkpt><trkpt lat="42.18726" lon="14.645805"><ele>2.2</ele><time>2026-03-25T14:27:41.809Z</time></trkpt><trkpt lat="42.1872217" lon="14.6459267"><ele>2.0</ele><time>2026-03-25T14:27:43.809Z</time></trkpt><trkpt lat="42.1872067" lon="14.64601"><ele>1.9999999999999998</ele><time>2026-03-25T14:27:45.809Z</time></trkpt><trkpt lat="42.1872" lon="14.6461217"><ele>2.0</ele><time>2026-03-25T14:27:48.809Z</time></trkpt><trkpt lat="42.1871767" lon="14.64622"><ele>2.0</ele><time>2026-03-25T14:27:50.809Z</time></trkpt><trkpt lat="42.1871567" lon="14.6463383"><ele>2.0</ele><time>2026-03-25T14:27:52.809Z</time></trkpt><trkpt lat="42.18715" lon="14.6464467"><ele>1.9999999999999998</ele><time>2026-03-25T14:27:54.809Z</time></trkpt><trkpt lat="42.1871117" lon="14.64655"><ele>2.0</ele><time>2026-03-25T14:27:57.809Z</time></trkpt><trkpt lat="42.18705" lon="14.6465717"><ele>2.0</ele><time>2026-03-25T14:27:59.809Z</time></trkpt><trkpt lat="42.186975" lon="14.6465833"><ele>2.0</ele><time>2026-03-25T14:28:01.809Z</time></trkpt><trkpt lat="42.1868883" lon="14.6466017"><ele>2.0</ele><time>2026-03-25T14:28:03.81Z</time></trkpt><trkpt lat="42.1867967" lon="14.6466267"><ele>2.0</ele><time>2026-03-25T14:28:05.809Z</time></trkpt><trkpt lat="42.1866967" lon="14.6466583"><ele>2.0</ele><time>2026-03-25T14:28:07.809Z</time></trkpt><trkpt lat="42.1866017" lon="14.646705"><ele>2.0</ele><time>2026-03-25T14:28:09.809Z</time></trkpt><trkpt lat="42.1865217" lon="14.64675"><ele>2.0</ele><time>2026-03-25T14:28:11.809Z</time></trkpt><trkpt lat="42.1864383" lon="14.646775"><ele>2.0</ele><time>2026-03-25T14:28:13.809Z</time></trkpt><trkpt lat="42.18634" lon="14.64681"><ele>2.0</ele><time>2026-03-25T14:28:15.809Z</time></trkpt><trkpt lat="42.1862417" lon="14.6468417"><ele>2.0</ele><time>2026-03-25T14:28:17.809Z</time></trkpt><trkpt lat="42.186145" lon="14.6468917"><ele>2.0</ele><time>2026-03-25T14:28:19.809Z</time></trkpt><trkpt lat="42.1860517" lon="14.6469467"><ele>2.0</ele><time>2026-03-25T14:28:21.809Z</time></trkpt><trkpt lat="42.1859517" lon="14.647"><ele>2.0</ele><time>2026-03-25T14:28:23.809Z</time></trkpt><trkpt lat="42.1858517" lon="14.647045"><ele>2.0</ele><time>2026-03-25T14:28:25.809Z</time></trkpt><trkpt lat="42.18574" lon="14.6471033"><ele>2.0</ele><time>2026-03-25T14:28:27.809Z</time></trkpt><trkpt lat="42.18564" lon="14.6471667"><ele>2.2</ele><time>2026-03-25T14:28:29.809Z</time></trkpt><trkpt lat="42.18554" lon="14.6472383"><ele>2.4000000000000004</ele><time>2026-03-25T14:28:31.809Z</time></trkpt><trkpt lat="42.1854383" lon="14.6473217"><ele>2.5999999999999996</ele><time>2026-03-25T14:28:33.809Z</time></trkpt><trkpt lat="42.1853467" lon="14.647395"><ele>2.8</ele><time>2026-03-25T14:28:35.809Z</time></trkpt><trkpt lat="42.1852583" lon="14.6474583"><ele>3.0</ele><time>2026-03-25T14:28:37.81Z</time></trkpt><trkpt lat="42.18517" lon="14.6475383"><ele>3.0</ele><time>2026-03-25T14:28:39.809Z</time></trkpt><trkpt lat="42.18508" lon="14.6476183"><ele>3.0</ele><time>2026-03-25T14:28:41.809Z</time></trkpt><trkpt lat="42.184985" lon="14.64769"><ele>3.0</ele><time>2026-03-25T14:28:43.81Z</time></trkpt><trkpt lat="42.1849017" lon="14.647775"><ele>3.0</ele><time>2026-03-25T14:28:45.81Z</time></trkpt><trkpt lat="42.1848233" lon="14.6478617"><ele>3.0</ele><time>2026-03-25T14:28:47.809Z</time></trkpt><trkpt lat="42.1847517" lon="14.6479233"><ele>3.0</ele><time>2026-03-25T14:28:49.81Z</time></trkpt><trkpt lat="42.184675" lon="14.648005"><ele>3.0</ele><time>2026-03-25T14:28:51.81Z</time></trkpt><trkpt lat="42.18459" lon="14.6481"><ele>3.0</ele><time>2026-03-25T14:28:53.809Z</time></trkpt><trkpt lat="42.1845067" lon="14.648195"><ele>3.0</ele><time>2026-03-25T14:28:55.81Z</time></trkpt><trkpt lat="42.1844117" lon="14.64828"><ele>3.0</ele><time>2026-03-25T14:28:57.81Z</time></trkpt><trkpt lat="42.1843183" lon="14.6483717"><ele>3.0</ele><time>2026-03-25T14:28:59.809Z</time></trkpt><trkpt lat="42.1842317" lon="14.648465"><ele>3.0</ele><time>2026-03-25T14:29:01.809Z</time></trkpt><trkpt lat="42.184145" lon="14.6485617"><ele>3.0</ele><time>2026-03-25T14:29:03.809Z</time></trkpt><trkpt lat="42.1840583" lon="14.6486583"><ele>3.0</ele><time>2026-03-25T14:29:05.81Z</time></trkpt><trkpt lat="42.1839683" lon="14.6487533"><ele>3.25</ele><time>2026-03-25T14:29:07.81Z</time></trkpt><trkpt lat="42.1838767" lon="14.64885"><ele>3.5</ele><time>2026-03-25T14:29:09.809Z</time></trkpt><trkpt lat="42.1837867" lon="14.6489433"><ele>3.75</ele><time>2026-03-25T14:29:11.809Z</time></trkpt><trkpt lat="42.1837" lon="14.64903"><ele>4.0</ele><time>2026-03-25T14:29:13.809Z</time></trkpt><trkpt lat="42.1836067" lon="14.6491133"><ele>4.0</ele><time>2026-03-25T14:29:15.809Z</time></trkpt><trkpt lat="42.183515" lon="14.6492033"><ele>4.0</ele><time>2026-03-25T14:29:17.809Z</time></trkpt><trkpt lat="42.1834183" lon="14.6492917"><ele>4.0</ele><time>2026-03-25T14:29:19.81Z</time></trkpt><trkpt lat="42.1833217" lon="14.6493883"><ele>4.0</ele><time>2026-03-25T14:29:21.809Z</time></trkpt><trkpt lat="42.1832183" lon="14.6494783"><ele>4.2</ele><time>2026-03-25T14:29:23.809Z</time></trkpt><trkpt lat="42.1831233" lon="14.6495567"><ele>4.4</ele><time>2026-03-25T14:29:25.81Z</time></trkpt><trkpt lat="42.1830267" lon="14.6496283"><ele>4.6</ele><time>2026-03-25T14:29:27.809Z</time></trkpt><trkpt lat="42.1829317" lon="14.6496917"><ele>4.8</ele><time>2026-03-25T14:29:29.809Z</time></trkpt><trkpt lat="42.18284" lon="14.649765"><ele>5.0</ele><time>2026-03-25T14:29:31.809Z</time></trkpt><trkpt lat="42.182745" lon="14.649845"><ele>5.0</ele><time>2026-03-25T14:29:33.809Z</time></trkpt><trkpt lat="42.1826483" lon="14.6499067"><ele>5.0</ele><time>2026-03-25T14:29:35.809Z</time></trkpt><trkpt lat="42.1825333" lon="14.6499583"><ele>5.0</ele><time>2026-03-25T14:29:37.809Z</time></trkpt><trkpt lat="42.1824683" lon="14.64998"><ele>5.0</ele><time>2026-03-25T14:29:38.809Z</time></trkpt><trkpt lat="42.182405" lon="14.649995"><ele>5.0</ele><time>2026-03-25T14:29:39.809Z</time></trkpt><trkpt lat="42.1823433" lon="14.6500167"><ele>5.0</ele><time>2026-03-25T14:29:40.809Z</time></trkpt><trkpt lat="42.1822267" lon="14.650025"><ele>5.0</ele><time>2026-03-25T14:29:42.809Z</time></trkpt><trkpt lat="42.1821617" lon="14.6500283"><ele>5.0</ele><time>2026-03-25T14:29:43.809Z</time></trkpt><trkpt lat="42.1820483" lon="14.650025"><ele>5.0</ele><time>2026-03-25T14:29:45.809Z</time></trkpt><trkpt lat="42.1819517" lon="14.650005"><ele>5.0</ele><time>2026-03-25T14:29:47.809Z</time></trkpt><trkpt lat="42.18185" lon="14.6499683"><ele>5.0</ele><time>2026-03-25T14:29:49.809Z</time></trkpt><trkpt lat="42.18175" lon="14.649925"><ele>5.0</ele><time>2026-03-25T14:29:51.81Z</time></trkpt><trkpt lat="42.181645" lon="14.649865"><ele>5.0</ele><time>2026-03-25T14:29:53.809Z</time></trkpt><trkpt lat="42.18154" lon="14.6498083"><ele>5.0</ele><time>2026-03-25T14:29:55.809Z</time></trkpt><trkpt lat="42.1814417" lon="14.649745"><ele>5.0</ele><time>2026-03-25T14:29:57.809Z</time></trkpt><trkpt lat="42.1813533" lon="14.6496683"><ele>5.0</ele><time>2026-03-25T14:29:59.809Z</time></trkpt><trkpt lat="42.181275" lon="14.6495733"><ele>5.2</ele><time>2026-03-25T14:30:01.81Z</time></trkpt><trkpt lat="42.181205" lon="14.6494733"><ele>5.4</ele><time>2026-03-25T14:30:03.809Z</time></trkpt><trkpt lat="42.1811417" lon="14.64938"><ele>5.6</ele><time>2026-03-25T14:30:05.809Z</time></trkpt><trkpt lat="42.181085" lon="14.6492917"><ele>5.8</ele><time>2026-03-25T14:30:07.809Z</time></trkpt><trkpt lat="42.1810233" lon="14.6491933"><ele>6.0</ele><time>2026-03-25T14:30:09.809Z</time></trkpt><trkpt lat="42.1809583" lon="14.6491033"><ele>6.0</ele><time>2026-03-25T14:30:11.809Z</time></trkpt><trkpt lat="42.1809117" lon="14.6490033"><ele>6.0</ele><time>2026-03-25T14:30:13.809Z</time></trkpt><trkpt lat="42.1808583" lon="14.6488983"><ele>6.0</ele><time>2026-03-25T14:30:15.809Z</time></trkpt><trkpt lat="42.18081" lon="14.6487783"><ele>6.0</ele><time>2026-03-25T14:30:17.809Z</time></trkpt><trkpt lat="42.1807383" lon="14.6486633"><ele>6.0</ele><time>2026-03-25T14:30:19.809Z</time></trkpt><trkpt lat="42.18066" lon="14.6485433"><ele>6.199999999999999</ele><time>2026-03-25T14:30:21.809Z</time></trkpt><trkpt lat="42.1805883" lon="14.648425"><ele>6.3999999999999995</ele><time>2026-03-25T14:30:23.809Z</time></trkpt><trkpt lat="42.1805217" lon="14.6483167"><ele>6.6</ele><time>2026-03-25T14:30:25.809Z</time></trkpt><trkpt lat="42.1804617" lon="14.6482167"><ele>6.8</ele><time>2026-03-25T14:30:27.81Z</time></trkpt><trkpt lat="42.1804117" lon="14.6481267"><ele>7.0</ele><time>2026-03-25T14:30:29.809Z</time></trkpt><trkpt lat="42.1803517" lon="14.6480467"><ele>7.0</ele><time>2026-03-25T14:30:31.809Z</time></trkpt><trkpt lat="42.180295" lon="14.6479767"><ele>6.999999999999999</ele><time>2026-03-25T14:30:33.809Z</time></trkpt><trkpt lat="42.1802317" lon="14.6478933"><ele>6.999999999999999</ele><time>2026-03-25T14:30:35.81Z</time></trkpt><trkpt lat="42.1801567" lon="14.6477833"><ele>7.0</ele><time>2026-03-25T14:30:37.809Z</time></trkpt><trkpt lat="42.18006" lon="14.6476867"><ele>7.0</ele><time>2026-03-25T14:30:39.809Z</time></trkpt><trkpt lat="42.1799983" lon="14.6476333"><ele>7.000000000000001</ele><time>2026-03-25T14:30:41.809Z</time></trkpt><trkpt lat="42.17994" lon="14.6475933"><ele>7.0</ele><time>2026-03-25T14:30:44.809Z</time></trkpt><trkpt lat="42.1798717" lon="14.6475183"><ele>7.0</ele><time>2026-03-25T14:30:47.809Z</time></trkpt><trkpt lat="42.1797933" lon="14.6474483"><ele>7.0</ele><time>2026-03-25T14:30:50.809Z</time></trkpt><trkpt lat="42.1797267" lon="14.64737"><ele>7.000000000000001</ele><time>2026-03-25T14:30:52.809Z</time></trkpt><trkpt lat="42.17964" lon="14.6473033"><ele>7.0</ele><time>2026-03-25T14:30:54.809Z</time></trkpt><trkpt lat="42.1795467" lon="14.647235"><ele>6.833333333333334</ele><time>2026-03-25T14:30:56.81Z</time></trkpt><trkpt lat="42.1794517" lon="14.647165"><ele>6.666666666666667</ele><time>2026-03-25T14:30:58.809Z</time></trkpt><trkpt lat="42.1793633" lon="14.6471017"><ele>6.5</ele><time>2026-03-25T14:31:00.809Z</time></trkpt><trkpt lat="42.1793" lon="14.6470517"><ele>6.333333333333334</ele><time>2026-03-25T14:31:02.809Z</time></trkpt><trkpt lat="42.1792333" lon="14.647015"><ele>6.166666666666667</ele><time>2026-03-25T14:31:04.809Z</time></trkpt><trkpt lat="42.17915" lon="14.646995"><ele>6.0</ele><time>2026-03-25T14:31:06.809Z</time></trkpt><trkpt lat="42.1790883" lon="14.6469717"><ele>6.199999999999999</ele><time>2026-03-25T14:31:08.809Z</time></trkpt><trkpt lat="42.1789983" lon="14.6469283"><ele>6.3999999999999995</ele><time>2026-03-25T14:31:11.809Z</time></trkpt><trkpt lat="42.1789217" lon="14.6469083"><ele>6.6</ele><time>2026-03-25T14:31:13.809Z</time></trkpt><trkpt lat="42.1788333" lon="14.64686"><ele>6.8</ele><time>2026-03-25T14:31:15.809Z</time></trkpt><trkpt lat="42.1787383" lon="14.6468217"><ele>7.0</ele><time>2026-03-25T14:31:17.809Z</time></trkpt><trkpt lat="42.178645" lon="14.646805"><ele>7.0</ele><time>2026-03-25T14:31:19.809Z</time></trkpt><trkpt lat="42.1785433" lon="14.6467733"><ele>7.0</ele><time>2026-03-25T14:31:21.81Z</time></trkpt><trkpt lat="42.178425" lon="14.6467283"><ele>7.0</ele><time>2026-03-25T14:31:23.809Z</time></trkpt><trkpt lat="42.1783083" lon="14.6467033"><ele>7.0</ele><time>2026-03-25T14:31:25.809Z</time></trkpt><trkpt lat="42.1782" lon="14.6466833"><ele>6.8</ele><time>2026-03-25T14:31:27.809Z</time></trkpt><trkpt lat="42.1780967" lon="14.6466567"><ele>6.6</ele><time>2026-03-25T14:31:29.81Z</time></trkpt><trkpt lat="42.1779867" lon="14.6466067"><ele>6.3999999999999995</ele><time>2026-03-25T14:31:31.809Z</time></trkpt><trkpt lat="42.177905" lon="14.6465617"><ele>6.199999999999999</ele><time>2026-03-25T14:31:33.809Z</time></trkpt><trkpt lat="42.1778267" lon="14.6465067"><ele>6.0</ele><time>2026-03-25T14:31:35.809Z</time></trkpt><trkpt lat="42.1777433" lon="14.6464483"><ele>6.0</ele><time>2026-03-25T14:31:37.809Z</time></trkpt><trkpt lat="42.1776467" lon="14.64638"><ele>6.0</ele><time>2026-03-25T14:31:39.809Z</time></trkpt><trkpt lat="42.1775517" lon="14.64629"><ele>6.0</ele><time>2026-03-25T14:31:41.809Z</time></trkpt><trkpt lat="42.17747" lon="14.646185"><ele>6.0</ele><time>2026-03-25T14:31:43.81Z</time></trkpt><trkpt lat="42.1774017" lon="14.6460667"><ele>6.0</ele><time>2026-03-25T14:31:45.809Z</time></trkpt><trkpt lat="42.1773333" lon="14.6459483"><ele>6.25</ele><time>2026-03-25T14:31:47.809Z</time></trkpt><trkpt lat="42.177275" lon="14.6458183"><ele>6.5</ele><time>2026-03-25T14:31:49.809Z</time></trkpt><trkpt lat="42.1772233" lon="14.64568"><ele>6.75</ele><time>2026-03-25T14:31:51.809Z</time></trkpt><trkpt lat="42.17718" lon="14.6455367"><ele>7.0</ele><time>2026-03-25T14:31:53.809Z</time></trkpt><trkpt lat="42.17714" lon="14.645385"><ele>7.25</ele><time>2026-03-25T14:31:55.809Z</time></trkpt><trkpt lat="42.1770967" lon="14.6452317"><ele>7.5</ele><time>2026-03-25T14:31:57.809Z</time></trkpt><trkpt lat="42.1770567" lon="14.6450733"><ele>7.75</ele><time>2026-03-25T14:31:59.809Z</time></trkpt><trkpt lat="42.1770183" lon="14.6449233"><ele>8.0</ele><time>2026-03-25T14:32:01.809Z</time></trkpt><trkpt lat="42.1769733" lon="14.6447783"><ele>8.0</ele><time>2026-03-25T14:32:03.809Z</time></trkpt><trkpt lat="42.1769267" lon="14.6446283"><ele>8.0</ele><time>2026-03-25T14:32:05.809Z</time></trkpt><trkpt lat="42.1769033" lon="14.6445483"><ele>8.0</ele><time>2026-03-25T14:32:06.809Z</time></trkpt><trkpt lat="42.1768583" lon="14.6443967"><ele>8.0</ele><time>2026-03-25T14:32:08.81Z</time></trkpt><trkpt lat="42.176815" lon="14.644255"><ele>8.0</ele><time>2026-03-25T14:32:10.809Z</time></trkpt><trkpt lat="42.1767633" lon="14.6441083"><ele>8.25</ele><time>2026-03-25T14:32:12.809Z</time></trkpt><trkpt lat="42.1767183" lon="14.6439617"><ele>8.5</ele><time>2026-03-25T14:32:14.81Z</time></trkpt><trkpt lat="42.1766783" lon="14.6438133"><ele>8.75</ele><time>2026-03-25T14:32:16.809Z</time></trkpt><trkpt lat="42.17663" lon="14.6436733"><ele>9.0</ele><time>2026-03-25T14:32:18.809Z</time></trkpt><trkpt lat="42.1765883" lon="14.64352"><ele>9.4</ele><time>2026-03-25T14:32:20.809Z</time></trkpt><trkpt lat="42.1765433" lon="14.6433867"><ele>9.8</ele><time>2026-03-25T14:32:22.809Z</time></trkpt><trkpt lat="42.1765133" lon="14.643295"><ele>10.200000000000001</ele><time>2026-03-25T14:32:24.81Z</time></trkpt><trkpt lat="42.1764733" lon="14.6431733"><ele>10.600000000000001</ele><time>2026-03-25T14:32:27.81Z</time></trkpt><trkpt lat="42.1764167" lon="14.6430633"><ele>11.0</ele><time>2026-03-25T14:32:29.809Z</time></trkpt><trkpt lat="42.1763533" lon="14.6429517"><ele>11.0</ele><time>2026-03-25T14:32:31.809Z</time></trkpt><trkpt lat="42.176285" lon="14.6428367"><ele>11.0</ele><time>2026-03-25T14:32:33.809Z</time></trkpt><trkpt lat="42.1762317" lon="14.6427183"><ele>11.0</ele><time>2026-03-25T14:32:35.809Z</time></trkpt><trkpt lat="42.176165" lon="14.6425933"><ele>11.0</ele><time>2026-03-25T14:32:37.809Z</time></trkpt><trkpt lat="42.176095" lon="14.6424567"><ele>11.0</ele><time>2026-03-25T14:32:39.809Z</time></trkpt><trkpt lat="42.1760233" lon="14.6423283"><ele>11.0</ele><time>2026-03-25T14:32:41.809Z</time></trkpt><trkpt lat="42.1759533" lon="14.6422067"><ele>11.0</ele><time>2026-03-25T14:32:43.809Z</time></trkpt><trkpt lat="42.1758683" lon="14.6420867"><ele>11.0</ele><time>2026-03-25T14:32:45.809Z</time></trkpt><trkpt lat="42.1758233" lon="14.6420267"><ele>11.0</ele><time>2026-03-25T14:32:46.809Z</time></trkpt><trkpt lat="42.1757333" lon="14.64192"><ele>11.0</ele><time>2026-03-25T14:32:48.809Z</time></trkpt><trkpt lat="42.17564" lon="14.641815"><ele>11.200000000000001</ele><time>2026-03-25T14:32:50.809Z</time></trkpt><trkpt lat="42.17559" lon="14.64176"><ele>11.4</ele><time>2026-03-25T14:32:51.809Z</time></trkpt><trkpt lat="42.1754917" lon="14.64166"><ele>11.6</ele><time>2026-03-25T14:32:53.809Z</time></trkpt><trkpt lat="42.1754417" lon="14.6416083"><ele>11.8</ele><time>2026-03-25T14:32:54.809Z</time></trkpt><trkpt lat="42.1753467" lon="14.6415067"><ele>12.0</ele><time>2026-03-25T14:32:56.809Z</time></trkpt><trkpt lat="42.1752483" lon="14.6414117"><ele>12.0</ele><time>2026-03-25T14:32:58.809Z</time></trkpt><trkpt lat="42.175145" lon="14.64132"><ele>12.0</ele><time>2026-03-25T14:33:00.81Z</time></trkpt><trkpt lat="42.175045" lon="14.64124"><ele>12.0</ele><time>2026-03-25T14:33:02.809Z</time></trkpt><trkpt lat="42.1749467" lon="14.64116"><ele>12.0</ele><time>2026-03-25T14:33:04.81Z</time></trkpt><trkpt lat="42.17485" lon="14.641085"><ele>11.8</ele><time>2026-03-25T14:33:06.809Z</time></trkpt><trkpt lat="42.1747467" lon="14.64103"><ele>11.6</ele><time>2026-03-25T14:33:08.81Z</time></trkpt><trkpt lat="42.1746517" lon="14.64098"><ele>11.4</ele><time>2026-03-25T14:33:10.809Z</time></trkpt><trkpt lat="42.1745617" lon="14.6409333"><ele>11.200000000000001</ele><time>2026-03-25T14:33:12.809Z</time></trkpt><trkpt lat="42.1744767" lon="14.6408983"><ele>11.0</ele><time>2026-03-25T14:33:14.809Z</time></trkpt><trkpt lat="42.1744" lon="14.640865"><ele>11.0</ele><time>2026-03-25T14:33:16.809Z</time></trkpt><trkpt lat="42.1743367" lon="14.640835"><ele>11.0</ele><time>2026-03-25T14:33:18.809Z</time></trkpt><trkpt lat="42.17426" lon="14.64081"><ele>11.0</ele><time>2026-03-25T14:33:20.81Z</time></trkpt><trkpt lat="42.1741717" lon="14.6407833"><ele>11.0</ele><time>2026-03-25T14:33:22.81Z</time></trkpt><trkpt lat="42.1740783" lon="14.6407533"><ele>11.0</ele><time>2026-03-25T14:33:24.809Z</time></trkpt><trkpt lat="42.1739817" lon="14.64072"><ele>11.0</ele><time>2026-03-25T14:33:26.809Z</time></trkpt><trkpt lat="42.173885" lon="14.6407017"><ele>11.200000000000001</ele><time>2026-03-25T14:33:28.809Z</time></trkpt><trkpt lat="42.1737783" lon="14.6406867"><ele>11.4</ele><time>2026-03-25T14:33:30.809Z</time></trkpt><trkpt lat="42.17368" lon="14.6406617"><ele>11.6</ele><time>2026-03-25T14:33:32.809Z</time></trkpt><trkpt lat="42.173575" lon="14.6406417"><ele>11.8</ele><time>2026-03-25T14:33:34.81Z</time></trkpt><trkpt lat="42.17347" lon="14.640625"><ele>12.0</ele><time>2026-03-25T14:33:36.809Z</time></trkpt><trkpt lat="42.1733633" lon="14.64062"><ele>12.0</ele><time>2026-03-25T14:33:38.809Z</time></trkpt><trkpt lat="42.1732567" lon="14.640615"><ele>12.0</ele><time>2026-03-25T14:33:40.809Z</time></trkpt><trkpt lat="42.1731483" lon="14.6406217"><ele>12.0</ele><time>2026-03-25T14:33:42.809Z</time></trkpt><trkpt lat="42.1730533" lon="14.6406217"><ele>12.0</ele><time>2026-03-25T14:33:44.809Z</time></trkpt><trkpt lat="42.1729683" lon="14.64063"><ele>12.0</ele><time>2026-03-25T14:33:46.809Z</time></trkpt><trkpt lat="42.1728983" lon="14.640645"><ele>12.333333333333334</ele><time>2026-03-25T14:33:48.809Z</time></trkpt><trkpt lat="42.1728183" lon="14.6406367"><ele>12.666666666666668</ele><time>2026-03-25T14:33:51.81Z</time></trkpt><trkpt lat="42.17275" lon="14.640645"><ele>13.0</ele><time>2026-03-25T14:33:53.809Z</time></trkpt><trkpt lat="42.1726583" lon="14.6406433"><ele>13.333333333333334</ele><time>2026-03-25T14:33:56.809Z</time></trkpt><trkpt lat="42.17258" lon="14.64066"><ele>13.666666666666668</ele><time>2026-03-25T14:33:58.81Z</time></trkpt><trkpt lat="42.1725" lon="14.640685"><ele>14.0</ele><time>2026-03-25T14:34:00.809Z</time></trkpt><trkpt lat="42.1724317" lon="14.6407033"><ele>14.0</ele><time>2026-03-25T14:34:02.809Z</time></trkpt><trkpt lat="42.172365" lon="14.640725"><ele>14.0</ele><time>2026-03-25T14:34:04.809Z</time></trkpt><trkpt lat="42.172305" lon="14.6407517"><ele>14.0</ele><time>2026-03-25T14:34:06.809Z</time></trkpt><trkpt lat="42.17222" lon="14.6407883"><ele>14.0</ele><time>2026-03-25T14:34:09.809Z</time></trkpt><trkpt lat="42.1721533" lon="14.6408017"><ele>14.0</ele><time>2026-03-25T14:34:11.809Z</time></trkpt><trkpt lat="42.17208" lon="14.640825"><ele>14.0</ele><time>2026-03-25T14:34:13.809Z</time></trkpt><trkpt lat="42.172015" lon="14.6408483"><ele>14.0</ele><time>2026-03-25T14:34:15.809Z</time></trkpt><trkpt lat="42.1719433" lon="14.64087"><ele>14.000000000000002</ele><time>2026-03-25T14:34:17.809Z</time></trkpt><trkpt lat="42.1718667" lon="14.6409067"><ele>14.0</ele><time>2026-03-25T14:34:19.809Z</time></trkpt><trkpt lat="42.17178" lon="14.64094"><ele>14.0</ele><time>2026-03-25T14:34:21.809Z</time></trkpt><trkpt lat="42.171695" lon="14.6409867"><ele>14.0</ele><time>2026-03-25T14:34:23.809Z</time></trkpt><trkpt lat="42.1716233" lon="14.64104"><ele>14.000000000000002</ele><time>2026-03-25T14:34:25.809Z</time></trkpt><trkpt lat="42.171545" lon="14.6410883"><ele>14.0</ele><time>2026-03-25T14:34:27.809Z</time></trkpt><trkpt lat="42.1714617" lon="14.641135"><ele>13.799999999999999</ele><time>2026-03-25T14:34:29.81Z</time></trkpt><trkpt lat="42.1713783" lon="14.6411967"><ele>13.599999999999998</ele><time>2026-03-25T14:34:31.81Z</time></trkpt><trkpt lat="42.1712967" lon="14.6412583"><ele>13.4</ele><time>2026-03-25T14:34:33.809Z</time></trkpt><trkpt lat="42.1712167" lon="14.6413183"><ele>13.2</ele><time>2026-03-25T14:34:35.81Z</time></trkpt><trkpt lat="42.1711317" lon="14.6413683"><ele>13.0</ele><time>2026-03-25T14:34:37.809Z</time></trkpt><trkpt lat="42.1710383" lon="14.6414117"><ele>12.999999999999998</ele><time>2026-03-25T14:34:39.81Z</time></trkpt><trkpt lat="42.1709567" lon="14.64147"><ele>13.0</ele><time>2026-03-25T14:34:41.81Z</time></trkpt><trkpt lat="42.1708867" lon="14.64153"><ele>13.0</ele><time>2026-03-25T14:34:43.809Z</time></trkpt><trkpt lat="42.1708183" lon="14.641585"><ele>13.0</ele><time>2026-03-25T14:34:45.809Z</time></trkpt><trkpt lat="42.17074" lon="14.6416167"><ele>12.999999999999998</ele><time>2026-03-25T14:34:47.809Z</time></trkpt><trkpt lat="42.1706783" lon="14.6416517"><ele>13.0</ele><time>2026-03-25T14:34:49.809Z</time></trkpt><trkpt lat="42.1706217" lon="14.641695"><ele>12.833333333333332</ele><time>2026-03-25T14:36:10.809Z</time></trkpt><trkpt lat="42.1705417" lon="14.6417583"><ele>12.666666666666666</ele><time>2026-03-25T14:36:42.809Z</time></trkpt><trkpt lat="42.170485" lon="14.6417983"><ele>12.5</ele><time>2026-03-25T14:36:46.809Z</time></trkpt><trkpt lat="42.17042" lon="14.64182"><ele>12.333333333333332</ele><time>2026-03-25T14:36:50.81Z</time></trkpt><trkpt lat="42.1703617" lon="14.64186"><ele>12.166666666666666</ele><time>2026-03-25T14:36:53.809Z</time></trkpt><trkpt lat="42.1702917" lon="14.6419117"><ele>12.0</ele><time>2026-03-25T14:36:56.809Z</time></trkpt><trkpt lat="42.1702167" lon="14.6419583"><ele>12.0</ele><time>2026-03-25T14:36:59.809Z</time></trkpt><trkpt lat="42.170135" lon="14.64202"><ele>12.0</ele><time>2026-03-25T14:37:02.809Z</time></trkpt><trkpt lat="42.1700783" lon="14.6420633"><ele>12.0</ele><time>2026-03-25T14:37:04.809Z</time></trkpt><trkpt lat="42.1700167" lon="14.6421083"><ele>12.0</ele><time>2026-03-25T14:37:06.809Z</time></trkpt><trkpt lat="42.1699567" lon="14.6421517"><ele>12.0</ele><time>2026-03-25T14:37:08.809Z</time></trkpt><trkpt lat="42.16988" lon="14.642205"><ele>12.0</ele><time>2026-03-25T14:37:11.809Z</time></trkpt><trkpt lat="42.1698" lon="14.6422683"><ele>12.166666666666666</ele><time>2026-03-25T14:37:14.809Z</time></trkpt><trkpt lat="42.169735" lon="14.64232"><ele>12.333333333333332</ele><time>2026-03-25T14:37:16.809Z</time></trkpt><trkpt lat="42.1696717" lon="14.6423783"><ele>12.5</ele><time>2026-03-25T14:37:18.809Z</time></trkpt><trkpt lat="42.1696033" lon="14.6424283"><ele>12.666666666666666</ele><time>2026-03-25T14:37:20.81Z</time></trkpt><trkpt lat="42.1695383" lon="14.6424683"><ele>12.833333333333332</ele><time>2026-03-25T14:37:22.81Z</time></trkpt><trkpt lat="42.1694717" lon="14.6425183"><ele>13.0</ele><time>2026-03-25T14:37:24.809Z</time></trkpt><trkpt lat="42.1693967" lon="14.6425733"><ele>13.0</ele><time>2026-03-25T14:37:26.809Z</time></trkpt><trkpt lat="42.16932" lon="14.6426333"><ele>13.0</ele><time>2026-03-25T14:37:28.809Z</time></trkpt><trkpt lat="42.16924" lon="14.642695"><ele>13.0</ele><time>2026-03-25T14:37:30.809Z</time></trkpt><trkpt lat="42.169155" lon="14.6427633"><ele>13.0</ele><time>2026-03-25T14:37:32.81Z</time></trkpt><trkpt lat="42.1690733" lon="14.6428183"><ele>13.0</ele><time>2026-03-25T14:37:34.809Z</time></trkpt><trkpt lat="42.16899" lon="14.6428667"><ele>13.2</ele><time>2026-03-25T14:37:36.809Z</time></trkpt><trkpt lat="42.1689033" lon="14.6429183"><ele>13.4</ele><time>2026-03-25T14:37:38.809Z</time></trkpt><trkpt lat="42.168815" lon="14.6429683"><ele>13.599999999999998</ele><time>2026-03-25T14:37:40.809Z</time></trkpt><trkpt lat="42.1687367" lon="14.643015"><ele>13.799999999999999</ele><time>2026-03-25T14:37:42.809Z</time></trkpt><trkpt lat="42.168655" lon="14.6430583"><ele>14.0</ele><time>2026-03-25T14:37:44.809Z</time></trkpt><trkpt lat="42.1685733" lon="14.643105"><ele>14.000000000000002</ele><time>2026-03-25T14:37:46.81Z</time></trkpt><trkpt lat="42.1684883" lon="14.6431517"><ele>14.0</ele><time>2026-03-25T14:37:48.809Z</time></trkpt><trkpt lat="42.1684083" lon="14.6431933"><ele>14.0</ele><time>2026-03-25T14:37:50.809Z</time></trkpt><trkpt lat="42.168325" lon="14.6432283"><ele>14.0</ele><time>2026-03-25T14:37:52.809Z</time></trkpt><trkpt lat="42.1682417" lon="14.643255"><ele>14.000000000000002</ele><time>2026-03-25T14:37:54.809Z</time></trkpt><trkpt lat="42.1681533" lon="14.64327"><ele>14.0</ele><time>2026-03-25T14:37:56.809Z</time></trkpt><trkpt lat="42.16806" lon="14.6432833"><ele>14.0</ele><time>2026-03-25T14:37:58.809Z</time></trkpt><trkpt lat="42.167965" lon="14.643295"><ele>13.999999999999998</ele><time>2026-03-25T14:38:00.809Z</time></trkpt><trkpt lat="42.16787" lon="14.6433067"><ele>13.999999999999998</ele><time>2026-03-25T14:38:02.809Z</time></trkpt><trkpt lat="42.1677733" lon="14.6433133"><ele>14.0</ele><time>2026-03-25T14:38:04.809Z</time></trkpt><trkpt lat="42.16768" lon="14.6433233"><ele>14.0</ele><time>2026-03-25T14:38:06.809Z</time></trkpt><trkpt lat="42.167585" lon="14.643325"><ele>14.0</ele><time>2026-03-25T14:38:08.81Z</time></trkpt><trkpt lat="42.167485" lon="14.64333"><ele>13.999999999999998</ele><time>2026-03-25T14:38:10.809Z</time></trkpt><trkpt lat="42.1673833" lon="14.6433283"><ele>13.999999999999998</ele><time>2026-03-25T14:38:12.809Z</time></trkpt><trkpt lat="42.167265" lon="14.64333"><ele>14.0</ele><time>2026-03-25T14:38:14.809Z</time></trkpt><trkpt lat="42.1671567" lon="14.6433167"><ele>14.0</ele><time>2026-03-25T14:38:16.809Z</time></trkpt><trkpt lat="42.1670517" lon="14.643305"><ele>14.399999999999999</ele><time>2026-03-25T14:38:18.81Z</time></trkpt><trkpt lat="42.16695" lon="14.6432883"><ele>14.799999999999999</ele><time>2026-03-25T14:38:20.809Z</time></trkpt><trkpt lat="42.16685" lon="14.64328"><ele>15.200000000000001</ele><time>2026-03-25T14:38:22.809Z</time></trkpt><trkpt lat="42.1667517" lon="14.643275"><ele>15.600000000000001</ele><time>2026-03-25T14:38:24.809Z</time></trkpt><trkpt lat="42.166645" lon="14.64327"><ele>16.0</ele><time>2026-03-25T14:38:26.81Z</time></trkpt><trkpt lat="42.1665467" lon="14.643265"><ele>16.2</ele><time>2026-03-25T14:38:28.809Z</time></trkpt><trkpt lat="42.1664517" lon="14.643255"><ele>16.400000000000002</ele><time>2026-03-25T14:38:30.809Z</time></trkpt><trkpt lat="42.1663567" lon="14.643245"><ele>16.6</ele><time>2026-03-25T14:38:32.809Z</time></trkpt><trkpt lat="42.1662633" lon="14.643245"><ele>16.8</ele><time>2026-03-25T14:38:34.81Z</time></trkpt><trkpt lat="42.16617" lon="14.6432383"><ele>17.0</ele><time>2026-03-25T14:38:36.809Z</time></trkpt><trkpt lat="42.1660817" lon="14.64322"><ele>17.0</ele><time>2026-03-25T14:38:38.809Z</time></trkpt><trkpt lat="42.1659917" lon="14.6432167"><ele>17.0</ele><time>2026-03-25T14:38:40.809Z</time></trkpt><trkpt lat="42.1658983" lon="14.64322"><ele>17.0</ele><time>2026-03-25T14:38:42.809Z</time></trkpt><trkpt lat="42.16581" lon="14.6432317"><ele>17.0</ele><time>2026-03-25T14:38:44.81Z</time></trkpt><trkpt lat="42.165715" lon="14.6432367"><ele>17.0</ele><time>2026-03-25T14:38:46.809Z</time></trkpt><trkpt lat="42.1656233" lon="14.6432483"><ele>17.0</ele><time>2026-03-25T14:38:48.81Z</time></trkpt><trkpt lat="42.1655333" lon="14.6432467"><ele>17.0</ele><time>2026-03-25T14:38:50.809Z</time></trkpt><trkpt lat="42.1654417" lon="14.643255"><ele>17.0</ele><time>2026-03-25T14:38:52.809Z</time></trkpt><trkpt lat="42.1653483" lon="14.6432567"><ele>17.0</ele><time>2026-03-25T14:38:54.809Z</time></trkpt><trkpt lat="42.1652533" lon="14.6432533"><ele>17.0</ele><time>2026-03-25T14:38:56.809Z</time></trkpt><trkpt lat="42.1651733" lon="14.6432483"><ele>17.0</ele><time>2026-03-25T14:38:58.809Z</time></trkpt><trkpt lat="42.165105" lon="14.64324"><ele>17.0</ele><time>2026-03-25T14:39:00.809Z</time></trkpt><trkpt lat="42.1650367" lon="14.64324"><ele>17.0</ele><time>2026-03-25T14:39:02.809Z</time></trkpt><trkpt lat="42.16496" lon="14.643225"><ele>17.0</ele><time>2026-03-25T14:39:04.809Z</time></trkpt><trkpt lat="42.1648817" lon="14.643215"><ele>17.0</ele><time>2026-03-25T14:39:06.809Z</time></trkpt><trkpt lat="42.1648" lon="14.6432067"><ele>17.0</ele><time>2026-03-25T14:39:08.809Z</time></trkpt><trkpt lat="42.1647183" lon="14.643205"><ele>17.166666666666668</ele><time>2026-03-25T14:39:10.809Z</time></trkpt><trkpt lat="42.164645" lon="14.6431967"><ele>17.333333333333336</ele><time>2026-03-25T14:39:12.809Z</time></trkpt><trkpt lat="42.1645817" lon="14.6431867"><ele>17.5</ele><time>2026-03-25T14:39:14.809Z</time></trkpt><trkpt lat="42.1645017" lon="14.6431967"><ele>17.666666666666668</ele><time>2026-03-25T14:39:17.809Z</time></trkpt><trkpt lat="42.1644233" lon="14.6432267"><ele>17.833333333333332</ele><time>2026-03-25T14:39:20.809Z</time></trkpt><trkpt lat="42.164345" lon="14.6433"><ele>18.0</ele><time>2026-03-25T14:39:23.809Z</time></trkpt><trkpt lat="42.1642683" lon="14.64334"><ele>18.0</ele><time>2026-03-25T14:39:25.81Z</time></trkpt><trkpt lat="42.1641933" lon="14.6433467"><ele>18.0</ele><time>2026-03-25T14:39:27.809Z</time></trkpt><trkpt lat="42.16411" lon="14.6433617"><ele>18.0</ele><time>2026-03-25T14:39:30.809Z</time></trkpt><trkpt lat="42.164045" lon="14.6433617"><ele>18.0</ele><time>2026-03-25T14:39:33.809Z</time></trkpt><trkpt lat="42.1639517" lon="14.6433783"><ele>18.0</ele><time>2026-03-25T14:39:42.81Z</time></trkpt><trkpt lat="42.1638767" lon="14.64336"><ele>18.0</ele><time>2026-03-25T14:39:45.809Z</time></trkpt><trkpt lat="42.1638" lon="14.6433483"><ele>17.833333333333332</ele><time>2026-03-25T14:39:48.809Z</time></trkpt><trkpt lat="42.163725" lon="14.6433767"><ele>17.666666666666668</ele><time>2026-03-25T14:39:52.809Z</time></trkpt><trkpt lat="42.1636583" lon="14.6434283"><ele>17.5</ele><time>2026-03-25T14:39:55.809Z</time></trkpt><trkpt lat="42.1635933" lon="14.6434917"><ele>17.333333333333336</ele><time>2026-03-25T14:39:57.809Z</time></trkpt><trkpt lat="42.1635467" lon="14.6435533"><ele>17.166666666666668</ele><time>2026-03-25T14:39:59.809Z</time></trkpt><trkpt lat="42.16349" lon="14.6436067"><ele>17.0</ele><time>2026-03-25T14:40:01.809Z</time></trkpt><trkpt lat="42.1634233" lon="14.64368"><ele>17.0</ele><time>2026-03-25T14:40:03.809Z</time></trkpt><trkpt lat="42.1633733" lon="14.6437533"><ele>17.0</ele><time>2026-03-25T14:40:05.809Z</time></trkpt><trkpt lat="42.1632967" lon="14.6437867"><ele>17.0</ele><time>2026-03-25T14:40:08.809Z</time></trkpt><trkpt lat="42.16322" lon="14.6437683"><ele>17.0</ele><time>2026-03-25T14:40:11.809Z</time></trkpt><trkpt lat="42.1631333" lon="14.6437517"><ele>17.0</ele><time>2026-03-25T14:40:14.809Z</time></trkpt><trkpt lat="42.16306" lon="14.6437233"><ele>17.0</ele><time>2026-03-25T14:40:16.809Z</time></trkpt><trkpt lat="42.16299" lon="14.6436833"><ele>17.285714285714285</ele><time>2026-03-25T14:40:18.809Z</time></trkpt><trkpt lat="42.1629367" lon="14.6436267"><ele>17.57142857142857</ele><time>2026-03-25T14:40:20.809Z</time></trkpt><trkpt lat="42.1628617" lon="14.6435983"><ele>17.857142857142854</ele><time>2026-03-25T14:40:23.809Z</time></trkpt><trkpt lat="42.1628" lon="14.6436283"><ele>18.142857142857142</ele><time>2026-03-25T14:40:28.81Z</time></trkpt><trkpt lat="42.1627333" lon="14.643655"><ele>18.42857142857143</ele><time>2026-03-25T14:40:32.81Z</time></trkpt><trkpt lat="42.162635" lon="14.643645"><ele>18.71428571428571</ele><time>2026-03-25T14:40:35.809Z</time></trkpt><trkpt lat="42.1625717" lon="14.6436317"><ele>19.0</ele><time>2026-03-25T14:40:37.809Z</time></trkpt><trkpt lat="42.1625117" lon="14.6436033"><ele>19.0</ele><time>2026-03-25T14:40:39.809Z</time></trkpt><trkpt lat="42.1624367" lon="14.6435383"><ele>19.0</ele><time>2026-03-25T14:40:42.81Z</time></trkpt><trkpt lat="42.1623667" lon="14.643485"><ele>19.0</ele><time>2026-03-25T14:40:45.809Z</time></trkpt><trkpt lat="42.162295" lon="14.6434133"><ele>19.0</ele><time>2026-03-25T14:40:48.809Z</time></trkpt><trkpt lat="42.1622167" lon="14.64334"><ele>19.0</ele><time>2026-03-25T14:40:51.809Z</time></trkpt><trkpt lat="42.162165" lon="14.643285"><ele>19.0</ele><time>2026-03-25T14:40:53.809Z</time></trkpt><trkpt lat="42.1621033" lon="14.6431933"><ele>19.0</ele><time>2026-03-25T14:40:56.809Z</time></trkpt><trkpt lat="42.1620383" lon="14.6431033"><ele>19.0</ele><time>2026-03-25T14:40:59.809Z</time></trkpt><trkpt lat="42.1619883" lon="14.6430067"><ele>19.0</ele><time>2026-03-25T14:41:02.809Z</time></trkpt><trkpt lat="42.1619383" lon="14.64294"><ele>19.0</ele><time>2026-03-25T14:41:05.809Z</time></trkpt><trkpt lat="42.1618633" lon="14.6429017"><ele>19.0</ele><time>2026-03-25T14:41:08.81Z</time></trkpt><trkpt lat="42.1617867" lon="14.6428583"><ele>19.0</ele><time>2026-03-25T14:41:11.809Z</time></trkpt><trkpt lat="42.1617083" lon="14.6428183"><ele>19.142857142857142</ele><time>2026-03-25T14:41:14.81Z</time></trkpt><trkpt lat="42.1616367" lon="14.64279"><ele>19.28571428571429</ele><time>2026-03-25T14:41:17.809Z</time></trkpt><trkpt lat="42.1615583" lon="14.642745"><ele>19.42857142857143</ele><time>2026-03-25T14:41:20.809Z</time></trkpt><trkpt lat="42.1614867" lon="14.64271"><ele>19.57142857142857</ele><time>2026-03-25T14:41:23.809Z</time></trkpt><trkpt lat="42.161485" lon="14.6426083"><ele>19.714285714285715</ele><time>2026-03-25T14:41:28.809Z</time></trkpt><trkpt lat="42.1615333" lon="14.642545"><ele>19.857142857142858</ele><time>2026-03-25T14:41:30.809Z</time></trkpt><trkpt lat="42.1615733" lon="14.642475"><ele>20.0</ele><time>2026-03-25T14:41:32.809Z</time></trkpt><trkpt lat="42.1616217" lon="14.6423767"><ele>20.0</ele><time>2026-03-25T14:41:35.809Z</time></trkpt><trkpt lat="42.1616433" lon="14.642285"><ele>20.0</ele><time>2026-03-25T14:41:37.81Z</time></trkpt><trkpt lat="42.16166" lon="14.6421633"><ele>20.0</ele><time>2026-03-25T14:41:40.809Z</time></trkpt><trkpt lat="42.161635" lon="14.642045"><ele>20.0</ele><time>2026-03-25T14:41:43.809Z</time></trkpt><trkpt lat="42.16157" lon="14.642015"><ele>20.0</ele><time>2026-03-25T14:41:46.809Z</time></trkpt><trkpt lat="42.1615167" lon="14.6421133"><ele>20.0</ele><time>2026-03-25T14:41:49.809Z</time></trkpt><trkpt lat="42.16149" lon="14.6422183"><ele>20.0</ele><time>2026-03-25T14:41:51.809Z</time></trkpt><trkpt lat="42.1614467" lon="14.642315"><ele>20.0</ele><time>2026-03-25T14:41:53.809Z</time></trkpt><trkpt lat="42.1614017" lon="14.6423933"><ele>20.0</ele><time>2026-03-25T14:41:55.809Z</time></trkpt><trkpt lat="42.1613517" lon="14.642465"><ele>20.0</ele><time>2026-03-25T14:41:57.81Z</time></trkpt><trkpt lat="42.1613" lon="14.64253"><ele>20.0</ele><time>2026-03-25T14:41:59.81Z</time></trkpt><trkpt lat="42.1612367" lon="14.6426033"><ele>20.0</ele><time>2026-03-25T14:42:01.81Z</time></trkpt><trkpt lat="42.1611717" lon="14.6426933"><ele>19.8</ele><time>2026-03-25T14:42:03.809Z</time></trkpt><trkpt lat="42.1611233" lon="14.6428033"><ele>19.6</ele><time>2026-03-25T14:42:05.809Z</time></trkpt><trkpt lat="42.1610917" lon="14.642925"><ele>19.4</ele><time>2026-03-25T14:42:07.809Z</time></trkpt><trkpt lat="42.1610717" lon="14.6430467"><ele>19.2</ele><time>2026-03-25T14:42:09.809Z</time></trkpt><trkpt lat="42.16106" lon="14.643155"><ele>19.0</ele><time>2026-03-25T14:42:11.809Z</time></trkpt><trkpt lat="42.1610483" lon="14.64327"><ele>19.0</ele><time>2026-03-25T14:42:13.81Z</time></trkpt><trkpt lat="42.161035" lon="14.6433567"><ele>19.0</ele><time>2026-03-25T14:42:15.809Z</time></trkpt><trkpt lat="42.1610117" lon="14.643455"><ele>19.0</ele><time>2026-03-25T14:42:17.809Z</time></trkpt><trkpt lat="42.1609933" lon="14.6435683"><ele>19.0</ele><time>2026-03-25T14:42:19.809Z</time></trkpt><trkpt lat="42.1609833" lon="14.6436817"><ele>19.0</ele><time>2026-03-25T14:42:21.81Z</time></trkpt><trkpt lat="42.16095" lon="14.6438"><ele>19.0</ele><time>2026-03-25T14:42:23.809Z</time></trkpt><trkpt lat="42.1609083" lon="14.6439283"><ele>18.71428571428571</ele><time>2026-03-25T14:42:25.809Z</time></trkpt><trkpt lat="42.1608667" lon="14.6439967"><ele>18.42857142857143</ele><time>2026-03-25T14:42:27.81Z</time></trkpt><trkpt lat="42.16082" lon="14.644065"><ele>18.142857142857142</ele><time>2026-03-25T14:42:31.81Z</time></trkpt><trkpt lat="42.1607483" lon="14.6440583"><ele>17.857142857142854</ele><time>2026-03-25T14:42:33.809Z</time></trkpt><trkpt lat="42.16067" lon="14.64408"><ele>17.57142857142857</ele><time>2026-03-25T14:42:35.81Z</time></trkpt><trkpt lat="42.1605933" lon="14.6441133"><ele>17.285714285714285</ele><time>2026-03-25T14:42:37.809Z</time></trkpt><trkpt lat="42.160525" lon="14.6441467"><ele>17.0</ele><time>2026-03-25T14:42:39.809Z</time></trkpt><trkpt lat="42.1604533" lon="14.644185"><ele>16.833333333333336</ele><time>2026-03-25T14:42:41.81Z</time></trkpt><trkpt lat="42.1603717" lon="14.6442383"><ele>16.666666666666668</ele><time>2026-03-25T14:42:43.809Z</time></trkpt><trkpt lat="42.1602867" lon="14.6442783"><ele>16.5</ele><time>2026-03-25T14:42:45.809Z</time></trkpt><trkpt lat="42.1601967" lon="14.64431"><ele>16.333333333333332</ele><time>2026-03-25T14:42:47.809Z</time></trkpt><trkpt lat="42.1601117" lon="14.6443483"><ele>16.166666666666664</ele><time>2026-03-25T14:42:49.809Z</time></trkpt><trkpt lat="42.160035" lon="14.6443917"><ele>16.0</ele><time>2026-03-25T14:42:51.809Z</time></trkpt><trkpt lat="42.1599683" lon="14.6444333"><ele>16.5</ele><time>2026-03-25T14:42:53.809Z</time></trkpt><trkpt lat="42.159895" lon="14.6445017"><ele>17.0</ele><time>2026-03-25T14:42:55.81Z</time></trkpt><trkpt lat="42.1598367" lon="14.6445717"><ele>17.5</ele><time>2026-03-25T14:42:57.809Z</time></trkpt><trkpt lat="42.1597833" lon="14.6446217"><ele>18.0</ele><time>2026-03-25T14:42:59.809Z</time></trkpt><trkpt lat="42.159705" lon="14.6446533"><ele>18.5</ele><time>2026-03-25T14:43:02.809Z</time></trkpt><trkpt lat="42.1596333" lon="14.64468"><ele>19.0</ele><time>2026-03-25T14:43:05.809Z</time></trkpt><trkpt lat="42.1595533" lon="14.6446467"><ele>19.0</ele><time>2026-03-25T14:43:08.809Z</time></trkpt><trkpt lat="42.15949" lon="14.6446017"><ele>19.0</ele><time>2026-03-25T14:43:10.81Z</time></trkpt><trkpt lat="42.1594183" lon="14.6445583"><ele>19.0</ele><time>2026-03-25T14:43:12.809Z</time></trkpt><trkpt lat="42.15934" lon="14.6445167"><ele>19.0</ele><time>2026-03-25T14:43:14.809Z</time></trkpt><trkpt lat="42.1592617" lon="14.6444717"><ele>19.0</ele><time>2026-03-25T14:43:16.81Z</time></trkpt><trkpt lat="42.15918" lon="14.644425"><ele>19.0</ele><time>2026-03-25T14:43:18.81Z</time></trkpt><trkpt lat="42.1591133" lon="14.64438"><ele>18.833333333333332</ele><time>2026-03-25T14:43:20.809Z</time></trkpt><trkpt lat="42.159055" lon="14.64432"><ele>18.666666666666664</ele><time>2026-03-25T14:43:23.809Z</time></trkpt><trkpt lat="42.159005" lon="14.6442217"><ele>18.5</ele><time>2026-03-25T14:43:26.809Z</time></trkpt><trkpt lat="42.15897" lon="14.6441283"><ele>18.333333333333332</ele><time>2026-03-25T14:43:28.809Z</time></trkpt><trkpt lat="42.15894" lon="14.644045"><ele>18.166666666666668</ele><time>2026-03-25T14:43:30.809Z</time></trkpt><trkpt lat="42.158905" lon="14.64397"><ele>18.0</ele><time>2026-03-25T14:43:34.809Z</time></trkpt><trkpt lat="42.1588233" lon="14.64395"><ele>18.0</ele><time>2026-03-25T14:43:38.81Z</time></trkpt><trkpt lat="42.1587367" lon="14.6439717"><ele>18.0</ele><time>2026-03-25T14:43:41.809Z</time></trkpt><trkpt lat="42.1586617" lon="14.6439933"><ele>18.0</ele><time>2026-03-25T14:43:43.809Z</time></trkpt><trkpt lat="42.158585" lon="14.6440167"><ele>18.0</ele><time>2026-03-25T14:43:45.809Z</time></trkpt><trkpt lat="42.1585117" lon="14.6440383"><ele>18.0</ele><time>2026-03-25T14:43:47.81Z</time></trkpt><trkpt lat="42.158435" lon="14.6440617"><ele>18.0</ele><time>2026-03-25T14:43:49.809Z</time></trkpt><trkpt lat="42.1583533" lon="14.6440867"><ele>18.0</ele><time>2026-03-25T14:43:51.81Z</time></trkpt><trkpt lat="42.1582567" lon="14.6441233"><ele>18.0</ele><time>2026-03-25T14:43:53.809Z</time></trkpt><trkpt lat="42.15817" lon="14.6441567"><ele>18.0</ele><time>2026-03-25T14:43:55.809Z</time></trkpt><trkpt lat="42.1580867" lon="14.6441867"><ele>18.0</ele><time>2026-03-25T14:43:57.809Z</time></trkpt><trkpt lat="42.1580083" lon="14.6442183"><ele>18.0</ele><time>2026-03-25T14:43:59.809Z</time></trkpt><trkpt lat="42.157935" lon="14.6442517"><ele>18.0</ele><time>2026-03-25T14:44:01.809Z</time></trkpt><trkpt lat="42.1578567" lon="14.6442767"><ele>18.166666666666668</ele><time>2026-03-25T14:44:03.81Z</time></trkpt><trkpt lat="42.1577733" lon="14.6443067"><ele>18.333333333333332</ele><time>2026-03-25T14:44:05.809Z</time></trkpt><trkpt lat="42.15769" lon="14.6443317"><ele>18.5</ele><time>2026-03-25T14:44:07.809Z</time></trkpt><trkpt lat="42.1576117" lon="14.6443583"><ele>18.666666666666664</ele><time>2026-03-25T14:44:09.81Z</time></trkpt><trkpt lat="42.1575383" lon="14.644385"><ele>18.833333333333332</ele><time>2026-03-25T14:44:11.81Z</time></trkpt><trkpt lat="42.1574517" lon="14.644405"><ele>19.0</ele><time>2026-03-25T14:44:14.809Z</time></trkpt><trkpt lat="42.1573617" lon="14.644445"><ele>19.428571428571427</ele><time>2026-03-25T14:44:17.809Z</time></trkpt><trkpt lat="42.1572983" lon="14.64445"><ele>19.857142857142858</ele><time>2026-03-25T14:44:20.809Z</time></trkpt><trkpt lat="42.1572633" lon="14.64437"><ele>20.285714285714285</ele><time>2026-03-25T14:44:25.809Z</time></trkpt><trkpt lat="42.1571967" lon="14.6443267"><ele>20.714285714285715</ele><time>2026-03-25T14:44:29.809Z</time></trkpt><trkpt lat="42.1571517" lon="14.6442633"><ele>21.142857142857142</ele><time>2026-03-25T14:44:32.809Z</time></trkpt><trkpt lat="42.15718" lon="14.644155"><ele>21.571428571428573</ele><time>2026-03-25T14:44:36.809Z</time></trkpt><trkpt lat="42.1572017" lon="14.6440467"><ele>22.0</ele><time>2026-03-25T14:44:39.809Z</time></trkpt><trkpt lat="42.1571783" lon="14.6439533"><ele>22.0</ele><time>2026-03-25T14:44:42.809Z</time></trkpt><trkpt lat="42.1571417" lon="14.6438133"><ele>22.0</ele><time>2026-03-25T14:44:44.81Z</time></trkpt><trkpt lat="42.157095" lon="14.6437317"><ele>22.0</ele><time>2026-03-25T14:44:47.809Z</time></trkpt><trkpt lat="42.1571017" lon="14.6436367"><ele>22.0</ele><time>2026-03-25T14:44:51.809Z</time></trkpt><trkpt lat="42.1571133" lon="14.6435517"><ele>22.0</ele><time>2026-03-25T14:44:54.809Z</time></trkpt><trkpt lat="42.15715" lon="14.64346"><ele>22.0</ele><time>2026-03-25T14:44:57.809Z</time></trkpt><trkpt lat="42.1571867" lon="14.64339"><ele>22.0</ele><time>2026-03-25T14:44:59.809Z</time></trkpt><trkpt lat="42.1572283" lon="14.6433183"><ele>22.0</ele><time>2026-03-25T14:45:01.809Z</time></trkpt><trkpt lat="42.1572867" lon="14.643225"><ele>22.0</ele><time>2026-03-25T14:45:04.809Z</time></trkpt><trkpt lat="42.1573333" lon="14.6431283"><ele>22.0</ele><time>2026-03-25T14:45:06.809Z</time></trkpt><trkpt lat="42.1573733" lon="14.6430417"><ele>22.0</ele><time>2026-03-25T14:45:08.809Z</time></trkpt><trkpt lat="42.1573933" lon="14.6429533"><ele>22.0</ele><time>2026-03-25T14:45:10.809Z</time></trkpt><trkpt lat="42.1573783" lon="14.6428267"><ele>22.0</ele><time>2026-03-25T14:45:13.809Z</time></trkpt><trkpt lat="42.1573433" lon="14.642755"><ele>22.0</ele><time>2026-03-25T14:45:16.81Z</time></trkpt><trkpt lat="42.1573367" lon="14.642655"><ele>22.0</ele><time>2026-03-25T14:45:19.809Z</time></trkpt><trkpt lat="42.15733" lon="14.6425633"><ele>22.0</ele><time>2026-03-25T14:45:23.81Z</time></trkpt><trkpt lat="42.1574133" lon="14.6425367"><ele>22.0</ele><time>2026-03-25T14:45:28.809Z</time></trkpt><trkpt lat="42.1574567" lon="14.642475"><ele>22.0</ele><time>2026-03-25T14:45:34.809Z</time></trkpt><trkpt lat="42.1573917" lon="14.6424567"><ele>22.0</ele><time>2026-03-25T14:46:02.809Z</time></trkpt><trkpt lat="42.15733" lon="14.6424083"><ele>21.833333333333332</ele><time>2026-03-25T14:46:10.809Z</time></trkpt><trkpt lat="42.1573083" lon="14.6423067"><ele>21.666666666666664</ele><time>2026-03-25T14:46:14.809Z</time></trkpt><trkpt lat="42.1572917" lon="14.6422017"><ele>21.5</ele><time>2026-03-25T14:46:17.809Z</time></trkpt><trkpt lat="42.1572767" lon="14.642085"><ele>21.333333333333332</ele><time>2026-03-25T14:46:20.809Z</time></trkpt><trkpt lat="42.1572633" lon="14.64198"><ele>21.166666666666668</ele><time>2026-03-25T14:46:23.809Z</time></trkpt><trkpt lat="42.1572517" lon="14.6418733"><ele>21.0</ele><time>2026-03-25T14:46:26.809Z</time></trkpt><trkpt lat="42.1572383" lon="14.6417567"><ele>20.857142857142858</ele><time>2026-03-25T14:46:29.809Z</time></trkpt><trkpt lat="42.1572317" lon="14.6416717"><ele>20.714285714285715</ele><time>2026-03-25T14:46:31.81Z</time></trkpt><trkpt lat="42.1572233" lon="14.6415867"><ele>20.57142857142857</ele><time>2026-03-25T14:46:33.81Z</time></trkpt><trkpt lat="42.157215" lon="14.6414783"><ele>20.42857142857143</ele><time>2026-03-25T14:46:36.809Z</time></trkpt><trkpt lat="42.1572017" lon="14.641355"><ele>20.285714285714285</ele><time>2026-03-25T14:46:39.809Z</time></trkpt><trkpt lat="42.1571833" lon="14.641255"><ele>20.142857142857142</ele><time>2026-03-25T14:46:42.809Z</time></trkpt><trkpt lat="42.1571817" lon="14.6411683"><ele>20.0</ele><time>2026-03-25T14:46:46.809Z</time></trkpt><trkpt lat="42.1571583" lon="14.6410783"><ele>20.57142857142857</ele><time>2026-03-25T14:47:32.809Z</time></trkpt><trkpt lat="42.157145" lon="14.6409817"><ele>21.142857142857142</ele><time>2026-03-25T14:47:36.809Z</time></trkpt><trkpt lat="42.1571317" lon="14.6408833"><ele>21.714285714285715</ele><time>2026-03-25T14:47:39.809Z</time></trkpt><trkpt lat="42.15712" lon="14.6407917"><ele>22.285714285714285</ele><time>2026-03-25T14:47:43.809Z</time></trkpt><trkpt lat="42.157105" lon="14.640675"><ele>22.857142857142858</ele><time>2026-03-25T14:47:46.809Z</time></trkpt><trkpt lat="42.1570883" lon="14.64059"><ele>23.428571428571427</ele><time>2026-03-25T14:47:48.809Z</time></trkpt><trkpt lat="42.15707" lon="14.640495"><ele>24.0</ele><time>2026-03-25T14:47:50.809Z</time></trkpt><trkpt lat="42.1570583" lon="14.64039"><ele>24.142857142857142</ele><time>2026-03-25T14:47:52.809Z</time></trkpt><trkpt lat="42.1570467" lon="14.6402867"><ele>24.285714285714285</ele><time>2026-03-25T14:47:54.809Z</time></trkpt><trkpt lat="42.15704" lon="14.6401867"><ele>24.42857142857143</ele><time>2026-03-25T14:47:56.809Z</time></trkpt><trkpt lat="42.15703" lon="14.64009"><ele>24.57142857142857</ele><time>2026-03-25T14:47:58.809Z</time></trkpt><trkpt lat="42.157015" lon="14.63999"><ele>24.714285714285715</ele><time>2026-03-25T14:48:00.809Z</time></trkpt><trkpt lat="42.157005" lon="14.6398917"><ele>24.857142857142858</ele><time>2026-03-25T14:48:02.809Z</time></trkpt><trkpt lat="42.1569917" lon="14.639795"><ele>25.0</ele><time>2026-03-25T14:48:04.81Z</time></trkpt><trkpt lat="42.1569767" lon="14.6396983"><ele>25.000000000000004</ele><time>2026-03-25T14:48:06.809Z</time></trkpt><trkpt lat="42.156965" lon="14.6396067"><ele>25.0</ele><time>2026-03-25T14:48:08.809Z</time></trkpt><trkpt lat="42.1569483" lon="14.63951"><ele>25.0</ele><time>2026-03-25T14:48:10.809Z</time></trkpt><trkpt lat="42.1569333" lon="14.6394167"><ele>25.0</ele><time>2026-03-25T14:48:12.809Z</time></trkpt><trkpt lat="42.156925" lon="14.6393217"><ele>25.0</ele><time>2026-03-25T14:48:14.81Z</time></trkpt><trkpt lat="42.1569133" lon="14.63923"><ele>25.000000000000004</ele><time>2026-03-25T14:48:16.809Z</time></trkpt><trkpt lat="42.1568983" lon="14.6391367"><ele>25.0</ele><time>2026-03-25T14:48:18.809Z</time></trkpt><trkpt lat="42.156885" lon="14.6390417"><ele>25.000000000000004</ele><time>2026-03-25T14:48:20.809Z</time></trkpt><trkpt lat="42.156875" lon="14.6389467"><ele>25.0</ele><time>2026-03-25T14:48:22.809Z</time></trkpt><trkpt lat="42.156865" lon="14.6388483"><ele>25.0</ele><time>2026-03-25T14:48:24.809Z</time></trkpt><trkpt lat="42.1568517" lon="14.6387517"><ele>25.0</ele><time>2026-03-25T14:48:26.809Z</time></trkpt><trkpt lat="42.15684" lon="14.63863"><ele>25.000000000000004</ele><time>2026-03-25T14:48:29.809Z</time></trkpt><trkpt lat="42.1568233" lon="14.6385417"><ele>25.0</ele><time>2026-03-25T14:48:31.809Z</time></trkpt><trkpt lat="42.15681" lon="14.6384267"><ele>25.42857142857143</ele><time>2026-03-25T14:48:34.809Z</time></trkpt><trkpt lat="42.15679" lon="14.63831"><ele>25.857142857142858</ele><time>2026-03-25T14:48:37.809Z</time></trkpt><trkpt lat="42.1567583" lon="14.6382183"><ele>26.285714285714285</ele><time>2026-03-25T14:48:40.81Z</time></trkpt><trkpt lat="42.1566967" lon="14.6381983"><ele>26.714285714285715</ele><time>2026-03-25T14:48:43.809Z</time></trkpt><trkpt lat="42.1566067" lon="14.6382217"><ele>27.142857142857142</ele><time>2026-03-25T14:48:46.809Z</time></trkpt><trkpt lat="42.1565433" lon="14.6382383"><ele>27.571428571428573</ele><time>2026-03-25T14:48:48.809Z</time></trkpt><trkpt lat="42.1564817" lon="14.6382583"><ele>28.0</ele><time>2026-03-25T14:48:50.81Z</time></trkpt><trkpt lat="42.1563917" lon="14.638285"><ele>29.000000000000004</ele><time>2026-03-25T14:48:53.809Z</time></trkpt><trkpt lat="42.156315" lon="14.6383217"><ele>30.0</ele><time>2026-03-25T14:48:56.809Z</time></trkpt><trkpt lat="42.1562383" lon="14.6383533"><ele>31.0</ele><time>2026-03-25T14:48:59.809Z</time></trkpt><trkpt lat="42.1562917" lon="14.6382733"><ele>32.0</ele><time>2026-03-25T14:49:07.809Z</time></trkpt><trkpt lat="42.1563667" lon="14.63825"><ele>33.0</ele><time>2026-03-25T14:49:09.809Z</time></trkpt><trkpt lat="42.156445" lon="14.63822"><ele>34.0</ele><time>2026-03-25T14:49:11.809Z</time></trkpt><trkpt lat="42.1565333" lon="14.6381833"><ele>32.8</ele><time>2026-03-25T14:49:13.809Z</time></trkpt><trkpt lat="42.156635" lon="14.6381417"><ele>31.599999999999998</ele><time>2026-03-25T14:49:15.809Z</time></trkpt><trkpt lat="42.1567367" lon="14.6381033"><ele>30.4</ele><time>2026-03-25T14:49:17.809Z</time></trkpt><trkpt lat="42.1568367" lon="14.6380733"><ele>29.2</ele><time>2026-03-25T14:49:19.809Z</time></trkpt><trkpt lat="42.1569333" lon="14.638045"><ele>28.0</ele><time>2026-03-25T14:49:21.809Z</time></trkpt><trkpt lat="42.1570283" lon="14.6380217"><ele>28.000000000000004</ele><time>2026-03-25T14:49:23.81Z</time></trkpt><trkpt lat="42.1571217" lon="14.6379967"><ele>28.0</ele><time>2026-03-25T14:49:25.809Z</time></trkpt><trkpt lat="42.15721" lon="14.6379717"><ele>28.0</ele><time>2026-03-25T14:49:27.81Z</time></trkpt><trkpt lat="42.1572983" lon="14.6379583"><ele>28.0</ele><time>2026-03-25T14:49:29.81Z</time></trkpt><trkpt lat="42.1573817" lon="14.637955"><ele>28.000000000000004</ele><time>2026-03-25T14:49:31.809Z</time></trkpt><trkpt lat="42.1574683" lon="14.6379433"><ele>28.0</ele><time>2026-03-25T14:49:33.809Z</time></trkpt><trkpt lat="42.1575567" lon="14.6379333"><ele>27.599999999999998</ele><time>2026-03-25T14:49:35.809Z</time></trkpt><trkpt lat="42.1576517" lon="14.6379317"><ele>27.199999999999996</ele><time>2026-03-25T14:49:37.809Z</time></trkpt><trkpt lat="42.1577483" lon="14.6379383"><ele>26.8</ele><time>2026-03-25T14:49:39.809Z</time></trkpt><trkpt lat="42.157835" lon="14.63793"><ele>26.4</ele><time>2026-03-25T14:49:41.809Z</time></trkpt><trkpt lat="42.1579233" lon="14.6379417"><ele>26.0</ele><time>2026-03-25T14:49:43.81Z</time></trkpt><trkpt lat="42.15801" lon="14.6379633"><ele>26.0</ele><time>2026-03-25T14:49:45.809Z</time></trkpt><trkpt lat="42.1581067" lon="14.63798"><ele>26.0</ele><time>2026-03-25T14:49:47.809Z</time></trkpt><trkpt lat="42.1581917" lon="14.63799"><ele>26.0</ele><time>2026-03-25T14:49:49.81Z</time></trkpt><trkpt lat="42.1582767" lon="14.6380083"><ele>26.0</ele><time>2026-03-25T14:49:51.81Z</time></trkpt><trkpt lat="42.1583717" lon="14.638025"><ele>26.0</ele><time>2026-03-25T14:49:53.809Z</time></trkpt><trkpt lat="42.158475" lon="14.6380517"><ele>26.0</ele><time>2026-03-25T14:49:55.81Z</time></trkpt><trkpt lat="42.15857" lon="14.6380833"><ele>26.0</ele><time>2026-03-25T14:49:57.809Z</time></trkpt><trkpt lat="42.1586617" lon="14.638115"><ele>26.0</ele><time>2026-03-25T14:49:59.81Z</time></trkpt><trkpt lat="42.15875" lon="14.638145"><ele>26.0</ele><time>2026-03-25T14:50:01.809Z</time></trkpt><trkpt lat="42.158835" lon="14.6381717"><ele>26.0</ele><time>2026-03-25T14:50:03.809Z</time></trkpt><trkpt lat="42.1589317" lon="14.6382133"><ele>25.999999999999996</ele><time>2026-03-25T14:50:05.809Z</time></trkpt><trkpt lat="42.1590233" lon="14.6382617"><ele>26.0</ele><time>2026-03-25T14:50:07.809Z</time></trkpt><trkpt lat="42.1591033" lon="14.6383083"><ele>26.0</ele><time>2026-03-25T14:50:09.809Z</time></trkpt><trkpt lat="42.1591717" lon="14.638345"><ele>26.0</ele><time>2026-03-25T14:50:11.809Z</time></trkpt><trkpt lat="42.1592317" lon="14.6383783"><ele>25.999999999999996</ele><time>2026-03-25T14:50:13.809Z</time></trkpt><trkpt lat="42.1593083" lon="14.6384167"><ele>26.0</ele><time>2026-03-25T14:50:16.809Z</time></trkpt><trkpt lat="42.15939" lon="14.63846"><ele>26.285714285714285</ele><time>2026-03-25T14:50:19.809Z</time></trkpt><trkpt lat="42.1594483" lon="14.638495"><ele>26.571428571428573</ele><time>2026-03-25T14:50:21.809Z</time></trkpt><trkpt lat="42.1595233" lon="14.6385433"><ele>26.857142857142858</ele><time>2026-03-25T14:50:24.809Z</time></trkpt><trkpt lat="42.1594917" lon="14.6384533"><ele>27.142857142857142</ele><time>2026-03-25T14:50:50.809Z</time></trkpt><trkpt lat="42.1594267" lon="14.6383867"><ele>27.42857142857143</ele><time>2026-03-25T14:50:53.809Z</time></trkpt><trkpt lat="42.1594717" lon="14.6383167"><ele>27.714285714285715</ele><time>2026-03-25T14:50:57.809Z</time></trkpt><trkpt lat="42.1595433" lon="14.638305"><ele>28.0</ele><time>2026-03-25T14:51:00.809Z</time></trkpt><trkpt lat="42.1596333" lon="14.6383133"><ele>28.000000000000004</ele><time>2026-03-25T14:51:03.809Z</time></trkpt><trkpt lat="42.1596983" lon="14.63832"><ele>28.0</ele><time>2026-03-25T14:51:05.809Z</time></trkpt><trkpt lat="42.1597817" lon="14.63827"><ele>28.0</ele><time>2026-03-25T14:51:08.809Z</time></trkpt><trkpt lat="42.159825" lon="14.6381967"><ele>28.0</ele><time>2026-03-25T14:51:10.809Z</time></trkpt><trkpt lat="42.1598683" lon="14.638115"><ele>28.000000000000004</ele><time>2026-03-25T14:51:12.809Z</time></trkpt><trkpt lat="42.15992" lon="14.6380183"><ele>28.0</ele><time>2026-03-25T14:51:14.809Z</time></trkpt><trkpt lat="42.1599683" lon="14.6379217"><ele>29.0</ele><time>2026-03-25T14:51:16.81Z</time></trkpt><trkpt lat="42.1600333" lon="14.6377967"><ele>29.999999999999996</ele><time>2026-03-25T14:51:18.809Z</time></trkpt><trkpt lat="42.16009" lon="14.637685"><ele>30.999999999999996</ele><time>2026-03-25T14:51:20.81Z</time></trkpt><trkpt lat="42.1601367" lon="14.63758"><ele>32.0</ele><time>2026-03-25T14:51:22.81Z</time></trkpt><trkpt lat="42.1601817" lon="14.637485"><ele>33.0</ele><time>2026-03-25T14:51:24.809Z</time></trkpt><trkpt lat="42.1602283" lon="14.637395"><ele>33.0</ele><time>2026-03-25T14:51:26.809Z</time></trkpt><trkpt lat="42.16028" lon="14.6373033"><ele>33.0</ele><time>2026-03-25T14:51:28.81Z</time></trkpt><trkpt lat="42.1603267" lon="14.6372033"><ele>33.0</ele><time>2026-03-25T14:51:30.809Z</time></trkpt><trkpt lat="42.1603783" lon="14.6371067"><ele>33.0</ele><time>2026-03-25T14:51:32.809Z</time></trkpt><trkpt lat="42.1604267" lon="14.6370133"><ele>33.0</ele><time>2026-03-25T14:51:34.809Z</time></trkpt><trkpt lat="42.1604683" lon="14.6369183"><ele>33.0</ele><time>2026-03-25T14:51:36.809Z</time></trkpt><trkpt lat="42.1605117" lon="14.636825"><ele>32.666666666666664</ele><time>2026-03-25T14:51:38.809Z</time></trkpt><trkpt lat="42.160545" lon="14.636725"><ele>32.333333333333336</ele><time>2026-03-25T14:51:40.809Z</time></trkpt><trkpt lat="42.1605567" lon="14.636615"><ele>32.0</ele><time>2026-03-25T14:51:43.809Z</time></trkpt><trkpt lat="42.1605517" lon="14.6364917"><ele>31.666666666666668</ele><time>2026-03-25T14:51:46.809Z</time></trkpt><trkpt lat="42.1605417" lon="14.6363967"><ele>31.333333333333336</ele><time>2026-03-25T14:51:48.809Z</time></trkpt><trkpt lat="42.1605183" lon="14.6363167"><ele>31.0</ele><time>2026-03-25T14:51:51.809Z</time></trkpt><trkpt lat="42.1604617" lon="14.636245"><ele>31.000000000000004</ele><time>2026-03-25T14:51:56.809Z</time></trkpt><trkpt lat="42.1604067" lon="14.6361867"><ele>31.0</ele><time>2026-03-25T14:51:59.809Z</time></trkpt><trkpt lat="42.1603483" lon="14.6361533"><ele>31.0</ele><time>2026-03-25T14:52:01.81Z</time></trkpt><trkpt lat="42.1602783" lon="14.6360933"><ele>31.0</ele><time>2026-03-25T14:52:04.81Z</time></trkpt><trkpt lat="42.160225" lon="14.6360367"><ele>31.000000000000004</ele><time>2026-03-25T14:52:06.809Z</time></trkpt><trkpt lat="42.160165" lon="14.635965"><ele>31.0</ele><time>2026-03-25T14:52:08.809Z</time></trkpt><trkpt lat="42.1600983" lon="14.6358733"><ele>31.200000000000003</ele><time>2026-03-25T14:52:10.809Z</time></trkpt><trkpt lat="42.16003" lon="14.6357683"><ele>31.400000000000002</ele><time>2026-03-25T14:52:12.809Z</time></trkpt><trkpt lat="42.1599617" lon="14.6356717"><ele>31.6</ele><time>2026-03-25T14:52:14.809Z</time></trkpt><trkpt lat="42.1598933" lon="14.635585"><ele>31.8</ele><time>2026-03-25T14:52:16.809Z</time></trkpt><trkpt lat="42.1598267" lon="14.6355067"><ele>32.0</ele><time>2026-03-25T14:52:18.809Z</time></trkpt><trkpt lat="42.159765" lon="14.635425"><ele>31.57142857142857</ele><time>2026-03-25T14:52:20.809Z</time></trkpt><trkpt lat="42.15971" lon="14.6353483"><ele>31.14285714285714</ele><time>2026-03-25T14:52:22.81Z</time></trkpt><trkpt lat="42.1596667" lon="14.6352667"><ele>30.714285714285715</ele><time>2026-03-25T14:52:24.81Z</time></trkpt><trkpt lat="42.159615" lon="14.6351767"><ele>30.285714285714285</ele><time>2026-03-25T14:52:26.809Z</time></trkpt><trkpt lat="42.15957" lon="14.63511"><ele>29.857142857142858</ele><time>2026-03-25T14:52:30.81Z</time></trkpt><trkpt lat="42.1595217" lon="14.6350417"><ele>29.42857142857143</ele><time>2026-03-25T14:52:33.809Z</time></trkpt><trkpt lat="42.1594883" lon="14.6349683"><ele>29.000000000000004</ele><time>2026-03-25T14:52:35.81Z</time></trkpt><trkpt lat="42.1594417" lon="14.6348833"><ele>28.999999999999996</ele><time>2026-03-25T14:52:37.809Z</time></trkpt><trkpt lat="42.1593833" lon="14.634795"><ele>29.0</ele><time>2026-03-25T14:52:39.809Z</time></trkpt><trkpt lat="42.1593217" lon="14.6347133"><ele>29.0</ele><time>2026-03-25T14:52:41.809Z</time></trkpt><trkpt lat="42.1592667" lon="14.634635"><ele>29.0</ele><time>2026-03-25T14:52:43.809Z</time></trkpt><trkpt lat="42.1592267" lon="14.6345683"><ele>28.999999999999996</ele><time>2026-03-25T14:52:45.809Z</time></trkpt><trkpt lat="42.15918" lon="14.6344983"><ele>29.0</ele><time>2026-03-25T14:52:48.809Z</time></trkpt><trkpt lat="42.1591283" lon="14.634435"><ele>29.000000000000004</ele><time>2026-03-25T14:52:51.809Z</time></trkpt><trkpt lat="42.1590767" lon="14.63436"><ele>29.0</ele><time>2026-03-25T14:52:54.809Z</time></trkpt><trkpt lat="42.159025" lon="14.63426"><ele>29.000000000000004</ele><time>2026-03-25T14:52:57.809Z</time></trkpt><trkpt lat="42.15899" lon="14.6341867"><ele>29.000000000000004</ele><time>2026-03-25T14:52:59.81Z</time></trkpt><trkpt lat="42.1589683" lon="14.6341033"><ele>29.0</ele><time>2026-03-25T14:53:01.809Z</time></trkpt><trkpt lat="42.1589717" lon="14.6340083"><ele>29.000000000000004</ele><time>2026-03-25T14:53:03.809Z</time></trkpt><trkpt lat="42.158975" lon="14.633905"><ele>29.000000000000004</ele><time>2026-03-25T14:53:05.809Z</time></trkpt><trkpt lat="42.1589817" lon="14.6337883"><ele>29.0</ele><time>2026-03-25T14:53:07.809Z</time></trkpt><trkpt lat="42.1589783" lon="14.63366"><ele>29.0</ele><time>2026-03-25T14:53:09.809Z</time></trkpt><trkpt lat="42.1589617" lon="14.633525"><ele>29.0</ele><time>2026-03-25T14:53:11.809Z</time></trkpt><trkpt lat="42.1589467" lon="14.633405"><ele>29.0</ele><time>2026-03-25T14:53:13.809Z</time></trkpt><trkpt lat="42.15892" lon="14.6332867"><ele>29.0</ele><time>2026-03-25T14:53:15.809Z</time></trkpt><trkpt lat="42.1588883" lon="14.6331683"><ele>29.4</ele><time>2026-03-25T14:53:17.809Z</time></trkpt><trkpt lat="42.1588617" lon="14.6330483"><ele>29.799999999999997</ele><time>2026-03-25T14:53:19.81Z</time></trkpt><trkpt lat="42.1588283" lon="14.6329317"><ele>30.200000000000003</ele><time>2026-03-25T14:53:21.809Z</time></trkpt><trkpt lat="42.158795" lon="14.6328117"><ele>30.6</ele><time>2026-03-25T14:53:23.81Z</time></trkpt><trkpt lat="42.1587617" lon="14.63269"><ele>31.0</ele><time>2026-03-25T14:53:25.809Z</time></trkpt><trkpt lat="42.1587433" lon="14.6325583"><ele>31.200000000000003</ele><time>2026-03-25T14:53:27.809Z</time></trkpt><trkpt lat="42.1587183" lon="14.63243"><ele>31.400000000000002</ele><time>2026-03-25T14:53:29.809Z</time></trkpt><trkpt lat="42.1586867" lon="14.63231"><ele>31.6</ele><time>2026-03-25T14:53:31.809Z</time></trkpt><trkpt lat="42.1586483" lon="14.6321917"><ele>31.8</ele><time>2026-03-25T14:53:33.809Z</time></trkpt><trkpt lat="42.1586167" lon="14.6320717"><ele>32.0</ele><time>2026-03-25T14:53:35.809Z</time></trkpt><trkpt lat="42.158585" lon="14.631945"><ele>32.800000000000004</ele><time>2026-03-25T14:53:37.81Z</time></trkpt><trkpt lat="42.1585617" lon="14.631825"><ele>33.6</ele><time>2026-03-25T14:53:39.809Z</time></trkpt><trkpt lat="42.1585283" lon="14.6317033"><ele>34.400000000000006</ele><time>2026-03-25T14:53:41.809Z</time></trkpt><trkpt lat="42.1584933" lon="14.63158"><ele>35.2</ele><time>2026-03-25T14:53:43.81Z</time></trkpt><trkpt lat="42.158465" lon="14.6314583"><ele>36.0</ele><time>2026-03-25T14:53:45.809Z</time></trkpt><trkpt lat="42.1584383" lon="14.6313283"><ele>36.0</ele><time>2026-03-25T14:53:47.809Z</time></trkpt><trkpt lat="42.15841" lon="14.6312067"><ele>36.0</ele><time>2026-03-25T14:53:49.809Z</time></trkpt><trkpt lat="42.158385" lon="14.6310867"><ele>36.0</ele><time>2026-03-25T14:53:51.809Z</time></trkpt><trkpt lat="42.158365" lon="14.6309683"><ele>36.0</ele><time>2026-03-25T14:53:53.809Z</time></trkpt><trkpt lat="42.1583283" lon="14.6308417"><ele>36.0</ele><time>2026-03-25T14:53:55.809Z</time></trkpt><trkpt lat="42.1582917" lon="14.6307017"><ele>35.75</ele><time>2026-03-25T14:53:57.809Z</time></trkpt><trkpt lat="42.1582517" lon="14.630565"><ele>35.5</ele><time>2026-03-25T14:53:59.809Z</time></trkpt><trkpt lat="42.1582233" lon="14.63042"><ele>35.25</ele><time>2026-03-25T14:54:01.809Z</time></trkpt><trkpt lat="42.15817" lon="14.630275"><ele>35.0</ele><time>2026-03-25T14:54:03.809Z</time></trkpt><trkpt lat="42.1581117" lon="14.6301367"><ele>35.0</ele><time>2026-03-25T14:54:05.809Z</time></trkpt><trkpt lat="42.1580667" lon="14.6300733"><ele>35.0</ele><time>2026-03-25T14:54:06.809Z</time></trkpt><trkpt lat="42.1579817" lon="14.6299533"><ele>35.0</ele><time>2026-03-25T14:54:08.81Z</time></trkpt><trkpt lat="42.1579" lon="14.6298267"><ele>35.0</ele><time>2026-03-25T14:54:10.809Z</time></trkpt><trkpt lat="42.1578283" lon="14.6297133"><ele>35.0</ele><time>2026-03-25T14:54:12.809Z</time></trkpt><trkpt lat="42.1577517" lon="14.6296217"><ele>35.0</ele><time>2026-03-25T14:54:14.81Z</time></trkpt><trkpt lat="42.1576617" lon="14.6295017"><ele>35.0</ele><time>2026-03-25T14:54:16.81Z</time></trkpt><trkpt lat="42.1576233" lon="14.62943"><ele>35.0</ele><time>2026-03-25T14:54:17.809Z</time></trkpt><trkpt lat="42.1575717" lon="14.6292883"><ele>35.0</ele><time>2026-03-25T14:54:19.809Z</time></trkpt><trkpt lat="42.1575267" lon="14.6291333"><ele>35.0</ele><time>2026-03-25T14:54:21.81Z</time></trkpt><trkpt lat="42.1575017" lon="14.6290517"><ele>35.5</ele><time>2026-03-25T14:54:22.81Z</time></trkpt><trkpt lat="42.1574533" lon="14.6289"><ele>36.0</ele><time>2026-03-25T14:54:24.809Z</time></trkpt><trkpt lat="42.1574133" lon="14.6287483"><ele>36.5</ele><time>2026-03-25T14:54:26.81Z</time></trkpt><trkpt lat="42.1573617" lon="14.6285967"><ele>37.0</ele><time>2026-03-25T14:54:28.809Z</time></trkpt><trkpt lat="42.1572967" lon="14.628455"><ele>37.0</ele><time>2026-03-25T14:54:30.809Z</time></trkpt><trkpt lat="42.1572533" lon="14.628305"><ele>37.0</ele><time>2026-03-25T14:54:32.809Z</time></trkpt><trkpt lat="42.15723" lon="14.62815"><ele>37.0</ele><time>2026-03-25T14:54:34.809Z</time></trkpt><trkpt lat="42.1572033" lon="14.628"><ele>37.0</ele><time>2026-03-25T14:54:36.81Z</time></trkpt><trkpt lat="42.1571667" lon="14.627845"><ele>37.16666666666667</ele><time>2026-03-25T14:54:38.81Z</time></trkpt><trkpt lat="42.1571183" lon="14.6276983"><ele>37.333333333333336</ele><time>2026-03-25T14:54:40.81Z</time></trkpt><trkpt lat="42.1570667" lon="14.6275917"><ele>37.5</ele><time>2026-03-25T14:54:42.809Z</time></trkpt><trkpt lat="42.1570583" lon="14.6274767"><ele>37.666666666666664</ele><time>2026-03-25T14:54:45.809Z</time></trkpt><trkpt lat="42.157075" lon="14.6273867"><ele>37.83333333333333</ele><time>2026-03-25T14:54:48.809Z</time></trkpt><trkpt lat="42.1571067" lon="14.6273033"><ele>38.0</ele><time>2026-03-25T14:54:52.809Z</time></trkpt><trkpt lat="42.1570933" lon="14.62721"><ele>38.0</ele><time>2026-03-25T14:54:56.809Z</time></trkpt><trkpt lat="42.1571367" lon="14.6271317"><ele>38.0</ele><time>2026-03-25T14:55:02.81Z</time></trkpt><trkpt lat="42.1571833" lon="14.6270733"><ele>38.0</ele><time>2026-03-25T14:55:06.809Z</time></trkpt><trkpt lat="42.1572333" lon="14.627"><ele>38.0</ele><time>2026-03-25T14:55:10.809Z</time></trkpt><trkpt lat="42.1572867" lon="14.62692"><ele>38.0</ele><time>2026-03-25T14:55:14.809Z</time></trkpt><trkpt lat="42.1573333" lon="14.62684"><ele>38.0</ele><time>2026-03-25T14:55:18.809Z</time></trkpt><trkpt lat="42.1573933" lon="14.62676"><ele>38.0</ele><time>2026-03-25T14:55:22.809Z</time></trkpt><trkpt lat="42.1574383" lon="14.6266967"><ele>40.42857142857142</ele><time>2026-03-25T14:55:25.809Z</time></trkpt><trkpt lat="42.1574933" lon="14.6266217"><ele>42.85714285714286</ele><time>2026-03-25T14:55:29.809Z</time></trkpt><trkpt lat="42.1575417" lon="14.6265567"><ele>45.285714285714285</ele><time>2026-03-25T14:55:33.809Z</time></trkpt><trkpt lat="42.157595" lon="14.6265033"><ele>47.71428571428571</ele><time>2026-03-25T14:55:37.809Z</time></trkpt><trkpt lat="42.1576533" lon="14.6264483"><ele>50.14285714285714</ele><time>2026-03-25T14:55:42.809Z</time></trkpt><trkpt lat="42.15771" lon="14.62638"><ele>52.57142857142857</ele><time>2026-03-25T14:55:47.81Z</time></trkpt><trkpt lat="42.1577433" lon="14.62629"><ele>55.0</ele><time>2026-03-25T14:55:52.809Z</time></trkpt><trkpt lat="42.157795" lon="14.6262217"><ele>54.99999999999999</ele><time>2026-03-25T14:55:57.809Z</time></trkpt><trkpt lat="42.15784" lon="14.6261617"><ele>55.0</ele><time>2026-03-25T14:56:01.809Z</time></trkpt><trkpt lat="42.1578933" lon="14.62609"><ele>55.0</ele><time>2026-03-25T14:56:05.809Z</time></trkpt><trkpt lat="42.1579283" lon="14.6260033"><ele>55.0</ele><time>2026-03-25T14:56:09.81Z</time></trkpt><trkpt lat="42.157965" lon="14.6259133"><ele>55.0</ele><time>2026-03-25T14:56:13.809Z</time></trkpt><trkpt lat="42.1580117" lon="14.6258433"><ele>54.99999999999999</ele><time>2026-03-25T14:56:17.81Z</time></trkpt><trkpt lat="42.15806" lon="14.62578"><ele>55.0</ele><time>2026-03-25T14:56:21.81Z</time></trkpt><trkpt lat="42.158105" lon="14.6257"><ele>56.42857142857142</ele><time>2026-03-25T14:56:26.81Z</time></trkpt><trkpt lat="42.15815" lon="14.62562"><ele>57.85714285714286</ele><time>2026-03-25T14:56:31.811Z</time></trkpt><trkpt lat="42.15819" lon="14.625535"><ele>59.28571428571429</ele><time>2026-03-25T14:56:36.81Z</time></trkpt><trkpt lat="42.15824" lon="14.6254733"><ele>60.714285714285715</ele><time>2026-03-25T14:56:41.81Z</time></trkpt><trkpt lat="42.1583117" lon="14.6254733"><ele>62.142857142857146</ele><time>2026-03-25T14:56:47.81Z</time></trkpt><trkpt lat="42.1583733" lon="14.6255017"><ele>63.57142857142858</ele><time>2026-03-25T14:56:52.81Z</time></trkpt><trkpt lat="42.158435" lon="14.625555"><ele>65.0</ele><time>2026-03-25T14:56:57.81Z</time></trkpt><trkpt lat="42.15849" lon="14.6256167"><ele>66.85714285714286</ele><time>2026-03-25T14:57:02.81Z</time></trkpt><trkpt lat="42.1585533" lon="14.6256633"><ele>68.71428571428572</ele><time>2026-03-25T14:57:06.81Z</time></trkpt><trkpt lat="42.1586283" lon="14.6256883"><ele>70.57142857142858</ele><time>2026-03-25T14:57:10.81Z</time></trkpt><trkpt lat="42.1587017" lon="14.625735"><ele>72.42857142857143</ele><time>2026-03-25T14:57:14.81Z</time></trkpt><trkpt lat="42.1587583" lon="14.62579"><ele>74.28571428571428</ele><time>2026-03-25T14:57:17.81Z</time></trkpt><trkpt lat="42.1588117" lon="14.6258467"><ele>76.14285714285715</ele><time>2026-03-25T14:57:20.81Z</time></trkpt><trkpt lat="42.1588667" lon="14.6259017"><ele>78.0</ele><time>2026-03-25T14:57:23.81Z</time></trkpt><trkpt lat="42.1589283" lon="14.62596"><ele>78.0</ele><time>2026-03-25T14:57:26.811Z</time></trkpt><trkpt lat="42.1589933" lon="14.62601"><ele>78.0</ele><time>2026-03-25T14:57:29.81Z</time></trkpt><trkpt lat="42.159065" lon="14.6260383"><ele>78.0</ele><time>2026-03-25T14:57:33.811Z</time></trkpt><trkpt lat="42.1591283" lon="14.6260217"><ele>78.0</ele><time>2026-03-25T14:57:36.81Z</time></trkpt><trkpt lat="42.1592017" lon="14.6260033"><ele>78.0</ele><time>2026-03-25T14:57:39.811Z</time></trkpt><trkpt lat="42.15929" lon="14.6259683"><ele>78.0</ele><time>2026-03-25T14:57:42.811Z</time></trkpt><trkpt lat="42.15938" lon="14.62595"><ele>79.57142857142857</ele><time>2026-03-25T14:57:45.81Z</time></trkpt><trkpt lat="42.159445" lon="14.6259417"><ele>81.14285714285714</ele><time>2026-03-25T14:57:47.81Z</time></trkpt><trkpt lat="42.159515" lon="14.6259267"><ele>82.71428571428571</ele><time>2026-03-25T14:57:49.81Z</time></trkpt><trkpt lat="42.159585" lon="14.62591"><ele>84.28571428571428</ele><time>2026-03-25T14:57:51.81Z</time></trkpt><trkpt lat="42.1596567" lon="14.625895"><ele>85.85714285714286</ele><time>2026-03-25T14:57:53.811Z</time></trkpt><trkpt lat="42.159725" lon="14.62589"><ele>87.42857142857142</ele><time>2026-03-25T14:57:55.81Z</time></trkpt><trkpt lat="42.1597983" lon="14.6258967"><ele>89.0</ele><time>2026-03-25T14:57:57.81Z</time></trkpt><trkpt lat="42.159865" lon="14.6258967"><ele>89.33333333333334</ele><time>2026-03-25T14:57:59.811Z</time></trkpt><trkpt lat="42.1599367" lon="14.6259017"><ele>89.66666666666667</ele><time>2026-03-25T14:58:01.81Z</time></trkpt><trkpt lat="42.160025" lon="14.625915"><ele>90.0</ele><time>2026-03-25T14:58:04.81Z</time></trkpt><trkpt lat="42.1601133" lon="14.62592"><ele>90.33333333333333</ele><time>2026-03-25T14:58:07.811Z</time></trkpt><trkpt lat="42.16019" lon="14.6259117"><ele>90.66666666666666</ele><time>2026-03-25T14:58:10.81Z</time></trkpt><trkpt lat="42.16026" lon="14.6259183"><ele>91.0</ele><time>2026-03-25T14:58:13.811Z</time></trkpt><trkpt lat="42.1603417" lon="14.625925"><ele>91.0</ele><time>2026-03-25T14:58:16.81Z</time></trkpt><trkpt lat="42.1604233" lon="14.6259133"><ele>91.0</ele><time>2026-03-25T14:58:19.811Z</time></trkpt><trkpt lat="42.1604917" lon="14.6259267"><ele>91.0</ele><time>2026-03-25T14:58:22.81Z</time></trkpt><trkpt lat="42.1605417" lon="14.626015"><ele>91.0</ele><time>2026-03-25T14:58:25.81Z</time></trkpt><trkpt lat="42.1605733" lon="14.6261033"><ele>91.0</ele><time>2026-03-25T14:58:27.811Z</time></trkpt><trkpt lat="42.1605983" lon="14.6261817"><ele>91.0</ele><time>2026-03-25T14:58:29.81Z</time></trkpt><trkpt lat="42.1606417" lon="14.6262567"><ele>91.0</ele><time>2026-03-25T14:58:32.81Z</time></trkpt><trkpt lat="42.1607167" lon="14.62629"><ele>91.0</ele><time>2026-03-25T14:58:36.81Z</time></trkpt><trkpt lat="42.160785" lon="14.6262267"><ele>91.0</ele><time>2026-03-25T14:58:39.81Z</time></trkpt><trkpt lat="42.1608583" lon="14.6261417"><ele>91.0</ele><time>2026-03-25T14:58:42.811Z</time></trkpt><trkpt lat="42.1609133" lon="14.6260817"><ele>91.0</ele><time>2026-03-25T14:58:44.81Z</time></trkpt><trkpt lat="42.1609783" lon="14.6260183"><ele>91.0</ele><time>2026-03-25T14:58:46.811Z</time></trkpt><trkpt lat="42.161045" lon="14.6259467"><ele>91.0</ele><time>2026-03-25T14:58:48.81Z</time></trkpt><trkpt lat="42.1611083" lon="14.6258767"><ele>91.66666666666666</ele><time>2026-03-25T14:58:50.81Z</time></trkpt><trkpt lat="42.16117" lon="14.6258167"><ele>92.33333333333333</ele><time>2026-03-25T14:58:52.81Z</time></trkpt><trkpt lat="42.1612283" lon="14.62576"><ele>93.0</ele><time>2026-03-25T14:58:54.81Z</time></trkpt><trkpt lat="42.1612883" lon="14.6257033"><ele>93.66666666666667</ele><time>2026-03-25T14:58:56.81Z</time></trkpt><trkpt lat="42.16135" lon="14.62565"><ele>94.33333333333334</ele><time>2026-03-25T14:58:58.81Z</time></trkpt><trkpt lat="42.161405" lon="14.6255967"><ele>95.0</ele><time>2026-03-25T14:59:00.81Z</time></trkpt><trkpt lat="42.1614783" lon="14.6255267"><ele>95.0</ele><time>2026-03-25T14:59:03.811Z</time></trkpt><trkpt lat="42.161545" lon="14.625475"><ele>95.0</ele><time>2026-03-25T14:59:07.81Z</time></trkpt><trkpt lat="42.1615867" lon="14.6255467"><ele>95.0</ele><time>2026-03-25T14:59:10.81Z</time></trkpt><trkpt lat="42.161605" lon="14.6256533"><ele>95.0</ele><time>2026-03-25T14:59:12.81Z</time></trkpt><trkpt lat="42.161615" lon="14.6257817"><ele>95.0</ele><time>2026-03-25T14:59:14.811Z</time></trkpt><trkpt lat="42.1616383" lon="14.6259183"><ele>95.0</ele><time>2026-03-25T14:59:16.81Z</time></trkpt><trkpt lat="42.1616583" lon="14.6260583"><ele>94.0</ele><time>2026-03-25T14:59:18.81Z</time></trkpt><trkpt lat="42.1616783" lon="14.62618"><ele>93.0</ele><time>2026-03-25T14:59:20.81Z</time></trkpt><trkpt lat="42.161695" lon="14.626305"><ele>92.0</ele><time>2026-03-25T14:59:22.81Z</time></trkpt><trkpt lat="42.1617167" lon="14.6264533"><ele>91.0</ele><time>2026-03-25T14:59:24.81Z</time></trkpt><trkpt lat="42.16174" lon="14.6265967"><ele>90.0</ele><time>2026-03-25T14:59:26.81Z</time></trkpt><trkpt lat="42.1617567" lon="14.626745"><ele>90.0</ele><time>2026-03-25T14:59:28.81Z</time></trkpt><trkpt lat="42.1617583" lon="14.6269033"><ele>90.0</ele><time>2026-03-25T14:59:30.81Z</time></trkpt><trkpt lat="42.1617717" lon="14.62705"><ele>90.0</ele><time>2026-03-25T14:59:32.81Z</time></trkpt><trkpt lat="42.161795" lon="14.6271883"><ele>90.0</ele><time>2026-03-25T14:59:34.81Z</time></trkpt><trkpt lat="42.1618333" lon="14.6273117"><ele>90.0</ele><time>2026-03-25T14:59:36.81Z</time></trkpt><trkpt lat="42.1618783" lon="14.6274267"><ele>89.6</ele><time>2026-03-25T14:59:38.81Z</time></trkpt><trkpt lat="42.1619033" lon="14.62755"><ele>89.2</ele><time>2026-03-25T14:59:40.81Z</time></trkpt><trkpt lat="42.1619283" lon="14.6276983"><ele>88.80000000000001</ele><time>2026-03-25T14:59:42.81Z</time></trkpt><trkpt lat="42.161955" lon="14.62786"><ele>88.4</ele><time>2026-03-25T14:59:44.811Z</time></trkpt><trkpt lat="42.16197" lon="14.6279433"><ele>88.0</ele><time>2026-03-25T14:59:45.81Z</time></trkpt><trkpt lat="42.1619833" lon="14.6280267"><ele>87.60000000000001</ele><time>2026-03-25T14:59:46.81Z</time></trkpt><trkpt lat="42.1619983" lon="14.6281117"><ele>87.2</ele><time>2026-03-25T14:59:47.81Z</time></trkpt><trkpt lat="42.1620117" lon="14.628195"><ele>86.8</ele><time>2026-03-25T14:59:48.81Z</time></trkpt><trkpt lat="42.1620383" lon="14.62836"><ele>86.4</ele><time>2026-03-25T14:59:50.811Z</time></trkpt><trkpt lat="42.1620617" lon="14.6285183"><ele>86.0</ele><time>2026-03-25T14:59:52.81Z</time></trkpt><trkpt lat="42.1620883" lon="14.62868"><ele>85.75</ele><time>2026-03-25T14:59:54.81Z</time></trkpt><trkpt lat="42.162115" lon="14.6288367"><ele>85.5</ele><time>2026-03-25T14:59:56.81Z</time></trkpt><trkpt lat="42.16214" lon="14.6289933"><ele>85.25</ele><time>2026-03-25T14:59:58.81Z</time></trkpt><trkpt lat="42.1621633" lon="14.62914"><ele>85.0</ele><time>2026-03-25T15:00:00.81Z</time></trkpt><trkpt lat="42.1621917" lon="14.6292833"><ele>85.0</ele><time>2026-03-25T15:00:02.81Z</time></trkpt><trkpt lat="42.1622133" lon="14.6294283"><ele>85.0</ele><time>2026-03-25T15:00:04.81Z</time></trkpt><trkpt lat="42.162225" lon="14.629575"><ele>85.0</ele><time>2026-03-25T15:00:06.81Z</time></trkpt><trkpt lat="42.1622517" lon="14.6297233"><ele>85.0</ele><time>2026-03-25T15:00:08.81Z</time></trkpt><trkpt lat="42.1623133" lon="14.62983"><ele>85.0</ele><time>2026-03-25T15:00:10.81Z</time></trkpt><trkpt lat="42.16241" lon="14.6298583"><ele>84.0</ele><time>2026-03-25T15:00:12.81Z</time></trkpt><trkpt lat="42.1625033" lon="14.6298367"><ele>83.0</ele><time>2026-03-25T15:00:14.81Z</time></trkpt><trkpt lat="42.1626" lon="14.62982"><ele>82.0</ele><time>2026-03-25T15:00:16.81Z</time></trkpt><trkpt lat="42.1626733" lon="14.6298233"><ele>81.0</ele><time>2026-03-25T15:00:18.81Z</time></trkpt><trkpt lat="42.16272" lon="14.62993"><ele>80.0</ele><time>2026-03-25T15:00:20.81Z</time></trkpt><trkpt lat="42.1627583" lon="14.6300833"><ele>80.0</ele><time>2026-03-25T15:00:22.81Z</time></trkpt><trkpt lat="42.1628117" lon="14.630225"><ele>80.0</ele><time>2026-03-25T15:00:24.81Z</time></trkpt><trkpt lat="42.1628567" lon="14.63036"><ele>80.0</ele><time>2026-03-25T15:00:26.81Z</time></trkpt><trkpt lat="42.1628967" lon="14.6304867"><ele>80.0</ele><time>2026-03-25T15:00:28.811Z</time></trkpt><trkpt lat="42.1629033" lon="14.6306167"><ele>80.0</ele><time>2026-03-25T15:00:30.81Z</time></trkpt><trkpt lat="42.1628767" lon="14.6307367"><ele>78.6</ele><time>2026-03-25T15:00:32.81Z</time></trkpt><trkpt lat="42.1628533" lon="14.6308783"><ele>77.2</ele><time>2026-03-25T15:00:34.81Z</time></trkpt><trkpt lat="42.16286" lon="14.6310283"><ele>75.8</ele><time>2026-03-25T15:00:36.811Z</time></trkpt><trkpt lat="42.1628817" lon="14.6311083"><ele>74.4</ele><time>2026-03-25T15:00:37.81Z</time></trkpt><trkpt lat="42.1629667" lon="14.6312317"><ele>73.0</ele><time>2026-03-25T15:00:39.81Z</time></trkpt><trkpt lat="42.16304" lon="14.631315"><ele>71.5</ele><time>2026-03-25T15:00:41.81Z</time></trkpt><trkpt lat="42.1630983" lon="14.631395"><ele>70.0</ele><time>2026-03-25T15:00:44.81Z</time></trkpt><trkpt lat="42.163105" lon="14.6314933"><ele>68.5</ele><time>2026-03-25T15:00:48.81Z</time></trkpt><trkpt lat="42.1631583" lon="14.6316167"><ele>67.0</ele><time>2026-03-25T15:01:31.811Z</time></trkpt><trkpt lat="42.1632267" lon="14.6315717"><ele>65.5</ele><time>2026-03-25T15:01:35.81Z</time></trkpt><trkpt lat="42.163295" lon="14.631525"><ele>64.0</ele><time>2026-03-25T15:01:39.81Z</time></trkpt><trkpt lat="42.1634083" lon="14.6314783"><ele>63.83333333333333</ele><time>2026-03-25T15:01:49.81Z</time></trkpt><trkpt lat="42.1635017" lon="14.63149"><ele>63.666666666666664</ele><time>2026-03-25T15:01:51.81Z</time></trkpt><trkpt lat="42.1635633" lon="14.6315283"><ele>63.5</ele><time>2026-03-25T15:01:52.811Z</time></trkpt><trkpt lat="42.16365" lon="14.63159"><ele>63.33333333333333</ele><time>2026-03-25T15:01:54.81Z</time></trkpt><trkpt lat="42.1637117" lon="14.631655"><ele>63.166666666666664</ele><time>2026-03-25T15:01:57.811Z</time></trkpt><trkpt lat="42.16378" lon="14.631725"><ele>63.0</ele><time>2026-03-25T15:02:00.81Z</time></trkpt><trkpt lat="42.1638317" lon="14.631775"><ele>63.0</ele><time>2026-03-25T15:02:02.81Z</time></trkpt><trkpt lat="42.163905" lon="14.631805"><ele>63.0</ele><time>2026-03-25T15:02:04.81Z</time></trkpt><trkpt lat="42.163995" lon="14.6318483"><ele>63.0</ele><time>2026-03-25T15:02:07.81Z</time></trkpt><trkpt lat="42.1640633" lon="14.6318733"><ele>63.0</ele><time>2026-03-25T15:02:09.81Z</time></trkpt><trkpt lat="42.1641283" lon="14.6319033"><ele>63.0</ele><time>2026-03-25T15:02:11.81Z</time></trkpt><trkpt lat="42.1642" lon="14.6319367"><ele>63.0</ele><time>2026-03-25T15:02:13.81Z</time></trkpt><trkpt lat="42.1642717" lon="14.6319683"><ele>61.333333333333336</ele><time>2026-03-25T15:02:15.81Z</time></trkpt><trkpt lat="42.164355" lon="14.6320117"><ele>59.66666666666667</ele><time>2026-03-25T15:02:17.811Z</time></trkpt><trkpt lat="42.1644367" lon="14.6320767"><ele>58.0</ele><time>2026-03-25T15:02:19.811Z</time></trkpt><trkpt lat="42.16452" lon="14.6321117"><ele>56.333333333333336</ele><time>2026-03-25T15:02:21.81Z</time></trkpt><trkpt lat="42.1646067" lon="14.6321117"><ele>54.66666666666667</ele><time>2026-03-25T15:02:23.811Z</time></trkpt><trkpt lat="42.1646917" lon="14.6320933"><ele>53.0</ele><time>2026-03-25T15:02:25.81Z</time></trkpt><trkpt lat="42.1647683" lon="14.6320733"><ele>53.0</ele><time>2026-03-25T15:02:27.81Z</time></trkpt><trkpt lat="42.1648433" lon="14.632035"><ele>53.0</ele><time>2026-03-25T15:02:29.81Z</time></trkpt><trkpt lat="42.1649217" lon="14.6319733"><ele>53.0</ele><time>2026-03-25T15:02:31.81Z</time></trkpt><trkpt lat="42.1650017" lon="14.631895"><ele>53.0</ele><time>2026-03-25T15:02:33.81Z</time></trkpt><trkpt lat="42.165085" lon="14.6318283"><ele>53.0</ele><time>2026-03-25T15:02:35.81Z</time></trkpt><trkpt lat="42.1651717" lon="14.6317733"><ele>54.00000000000001</ele><time>2026-03-25T15:02:37.81Z</time></trkpt><trkpt lat="42.1652433" lon="14.6317567"><ele>55.0</ele><time>2026-03-25T15:02:39.811Z</time></trkpt><trkpt lat="42.1653033" lon="14.6317917"><ele>56.0</ele><time>2026-03-25T15:02:41.81Z</time></trkpt><trkpt lat="42.1653483" lon="14.6319167"><ele>57.0</ele><time>2026-03-25T15:02:44.81Z</time></trkpt><trkpt lat="42.1653917" lon="14.6320433"><ele>58.00000000000001</ele><time>2026-03-25T15:02:46.81Z</time></trkpt><trkpt lat="42.16542" lon="14.6321217"><ele>59.0</ele><time>2026-03-25T15:02:47.81Z</time></trkpt><trkpt lat="42.165455" lon="14.632205"><ele>57.00000000000001</ele><time>2026-03-25T15:02:48.811Z</time></trkpt><trkpt lat="42.1654867" lon="14.632295"><ele>55.0</ele><time>2026-03-25T15:02:49.81Z</time></trkpt><trkpt lat="42.1655183" lon="14.63239"><ele>53.0</ele><time>2026-03-25T15:02:50.81Z</time></trkpt><trkpt lat="42.16555" lon="14.6324817"><ele>51.0</ele><time>2026-03-25T15:02:51.81Z</time></trkpt><trkpt lat="42.1655767" lon="14.6325683"><ele>49.0</ele><time>2026-03-25T15:02:52.81Z</time></trkpt><trkpt lat="42.1656" lon="14.6326483"><ele>47.0</ele><time>2026-03-25T15:02:53.81Z</time></trkpt><trkpt lat="42.1656517" lon="14.6328"><ele>45.8</ele><time>2026-03-25T15:02:55.81Z</time></trkpt><trkpt lat="42.1656983" lon="14.6329467"><ele>44.6</ele><time>2026-03-25T15:02:57.81Z</time></trkpt><trkpt lat="42.16574" lon="14.6330767"><ele>43.4</ele><time>2026-03-25T15:02:59.811Z</time></trkpt><trkpt lat="42.1657867" lon="14.633175"><ele>42.199999999999996</ele><time>2026-03-25T15:03:01.81Z</time></trkpt><trkpt lat="42.16585" lon="14.6332267"><ele>41.0</ele><time>2026-03-25T15:03:03.81Z</time></trkpt><trkpt lat="42.1659383" lon="14.6332383"><ele>41.0</ele><time>2026-03-25T15:03:05.81Z</time></trkpt><trkpt lat="42.16603" lon="14.6332367"><ele>41.0</ele><time>2026-03-25T15:03:07.81Z</time></trkpt><trkpt lat="42.166125" lon="14.6332383"><ele>41.0</ele><time>2026-03-25T15:03:09.81Z</time></trkpt><trkpt lat="42.166225" lon="14.63323"><ele>41.0</ele><time>2026-03-25T15:03:11.811Z</time></trkpt><trkpt lat="42.16632" lon="14.6332217"><ele>41.0</ele><time>2026-03-25T15:03:13.81Z</time></trkpt><trkpt lat="42.16642" lon="14.6332183"><ele>41.0</ele><time>2026-03-25T15:03:15.81Z</time></trkpt><trkpt lat="42.1665217" lon="14.6332167"><ele>41.0</ele><time>2026-03-25T15:03:17.81Z</time></trkpt><trkpt lat="42.166625" lon="14.6332117"><ele>41.0</ele><time>2026-03-25T15:03:19.81Z</time></trkpt><trkpt lat="42.1667233" lon="14.633205"><ele>41.0</ele><time>2026-03-25T15:03:21.811Z</time></trkpt><trkpt lat="42.1668267" lon="14.633195"><ele>41.0</ele><time>2026-03-25T15:03:23.811Z</time></trkpt><trkpt lat="42.1669267" lon="14.63318"><ele>40.8</ele><time>2026-03-25T15:03:25.81Z</time></trkpt><trkpt lat="42.16702" lon="14.6331633"><ele>40.599999999999994</ele><time>2026-03-25T15:03:27.81Z</time></trkpt><trkpt lat="42.167115" lon="14.6331533"><ele>40.4</ele><time>2026-03-25T15:03:29.811Z</time></trkpt><trkpt lat="42.16721" lon="14.6331467"><ele>40.2</ele><time>2026-03-25T15:03:31.81Z</time></trkpt><trkpt lat="42.1672983" lon="14.6331383"><ele>40.0</ele><time>2026-03-25T15:03:33.81Z</time></trkpt><trkpt lat="42.1673817" lon="14.6331317"><ele>39.66666666666667</ele><time>2026-03-25T15:03:35.81Z</time></trkpt><trkpt lat="42.1674633" lon="14.63313"><ele>39.333333333333336</ele><time>2026-03-25T15:03:37.811Z</time></trkpt><trkpt lat="42.167555" lon="14.6331183"><ele>39.0</ele><time>2026-03-25T15:03:39.81Z</time></trkpt><trkpt lat="42.1676533" lon="14.6331033"><ele>38.666666666666664</ele><time>2026-03-25T15:03:41.81Z</time></trkpt><trkpt lat="42.1677283" lon="14.6330983"><ele>38.33333333333333</ele><time>2026-03-25T15:03:43.81Z</time></trkpt><trkpt lat="42.1677833" lon="14.63318"><ele>38.0</ele><time>2026-03-25T15:03:46.811Z</time></trkpt><trkpt lat="42.1678117" lon="14.6332617"><ele>38.0</ele><time>2026-03-25T15:03:48.81Z</time></trkpt><trkpt lat="42.1678383" lon="14.6333517"><ele>38.0</ele><time>2026-03-25T15:03:50.81Z</time></trkpt><trkpt lat="42.1678767" lon="14.6334517"><ele>38.0</ele><time>2026-03-25T15:03:52.811Z</time></trkpt><trkpt lat="42.1679217" lon="14.6335683"><ele>38.0</ele><time>2026-03-25T15:03:54.81Z</time></trkpt><trkpt lat="42.167965" lon="14.6336833"><ele>38.0</ele><time>2026-03-25T15:03:56.81Z</time></trkpt><trkpt lat="42.1679983" lon="14.63381"><ele>38.0</ele><time>2026-03-25T15:03:58.81Z</time></trkpt><trkpt lat="42.1680133" lon="14.6339383"><ele>37.714285714285715</ele><time>2026-03-25T15:04:00.81Z</time></trkpt><trkpt lat="42.1680167" lon="14.6340517"><ele>37.42857142857143</ele><time>2026-03-25T15:04:02.81Z</time></trkpt><trkpt lat="42.168045" lon="14.6341367"><ele>37.142857142857146</ele><time>2026-03-25T15:04:04.81Z</time></trkpt><trkpt lat="42.1681033" lon="14.6341767"><ele>36.85714285714286</ele><time>2026-03-25T15:04:06.81Z</time></trkpt><trkpt lat="42.168165" lon="14.6342183"><ele>36.57142857142857</ele><time>2026-03-25T15:04:09.811Z</time></trkpt><trkpt lat="42.1682133" lon="14.6341483"><ele>36.28571428571429</ele><time>2026-03-25T15:04:14.81Z</time></trkpt><trkpt lat="42.1682217" lon="14.6340417"><ele>36.0</ele><time>2026-03-25T15:04:17.81Z</time></trkpt><trkpt lat="42.16823" lon="14.6339317"><ele>36.142857142857146</ele><time>2026-03-25T15:04:21.81Z</time></trkpt><trkpt lat="42.1682267" lon="14.633835"><ele>36.285714285714285</ele><time>2026-03-25T15:04:24.81Z</time></trkpt><trkpt lat="42.1682233" lon="14.63374"><ele>36.42857142857143</ele><time>2026-03-25T15:04:27.81Z</time></trkpt><trkpt lat="42.1682217" lon="14.633645"><ele>36.57142857142857</ele><time>2026-03-25T15:04:30.81Z</time></trkpt><trkpt lat="42.1682483" lon="14.6335533"><ele>36.714285714285715</ele><time>2026-03-25T15:04:35.81Z</time></trkpt><trkpt lat="42.168245" lon="14.6334517"><ele>36.85714285714286</ele><time>2026-03-25T15:04:39.81Z</time></trkpt><trkpt lat="42.16823" lon="14.6333383"><ele>37.0</ele><time>2026-03-25T15:04:45.81Z</time></trkpt><trkpt lat="42.16822" lon="14.6332467"><ele>37.0</ele><time>2026-03-25T15:04:48.81Z</time></trkpt><trkpt lat="42.1681967" lon="14.6331533"><ele>37.0</ele><time>2026-03-25T15:04:51.81Z</time></trkpt><trkpt lat="42.1681783" lon="14.6330583"><ele>37.0</ele><time>2026-03-25T15:04:54.811Z</time></trkpt><trkpt lat="42.1681617" lon="14.632965"><ele>37.0</ele><time>2026-03-25T15:04:57.811Z</time></trkpt><trkpt lat="42.1681467" lon="14.632875"><ele>37.0</ele><time>2026-03-25T15:05:00.81Z</time></trkpt><trkpt lat="42.1681367" lon="14.63278"><ele>37.0</ele><time>2026-03-25T15:05:03.81Z</time></trkpt><trkpt lat="42.1681183" lon="14.63268"><ele>37.0</ele><time>2026-03-25T15:05:06.81Z</time></trkpt><trkpt lat="42.16809" lon="14.6325883"><ele>37.285714285714285</ele><time>2026-03-25T15:05:09.81Z</time></trkpt><trkpt lat="42.1680867" lon="14.6324817"><ele>37.57142857142857</ele><time>2026-03-25T15:05:13.811Z</time></trkpt><trkpt lat="42.1680783" lon="14.6323883"><ele>37.85714285714286</ele><time>2026-03-25T15:05:16.81Z</time></trkpt><trkpt lat="42.1680517" lon="14.6323017"><ele>38.14285714285714</ele><time>2026-03-25T15:05:19.811Z</time></trkpt><trkpt lat="42.1680117" lon="14.6322183"><ele>38.42857142857142</ele><time>2026-03-25T15:05:22.81Z</time></trkpt><trkpt lat="42.1679783" lon="14.6321283"><ele>38.714285714285715</ele><time>2026-03-25T15:05:25.81Z</time></trkpt><trkpt lat="42.1679517" lon="14.6320333"><ele>39.0</ele><time>2026-03-25T15:05:28.81Z</time></trkpt><trkpt lat="42.1679333" lon="14.6319517"><ele>39.57142857142858</ele><time>2026-03-25T15:05:31.81Z</time></trkpt><trkpt lat="42.1678883" lon="14.631885"><ele>40.14285714285714</ele><time>2026-03-25T15:05:35.81Z</time></trkpt><trkpt lat="42.1678317" lon="14.63183"><ele>40.714285714285715</ele><time>2026-03-25T15:05:39.81Z</time></trkpt><trkpt lat="42.1678233" lon="14.6317433"><ele>41.28571428571429</ele><time>2026-03-25T15:05:44.81Z</time></trkpt><trkpt lat="42.16783" lon="14.6316417"><ele>41.85714285714286</ele><time>2026-03-25T15:05:49.81Z</time></trkpt><trkpt lat="42.1678217" lon="14.6315433"><ele>42.42857142857143</ele><time>2026-03-25T15:05:52.81Z</time></trkpt><trkpt lat="42.1678083" lon="14.63145"><ele>43.0</ele><time>2026-03-25T15:05:55.81Z</time></trkpt><trkpt lat="42.1678067" lon="14.631355"><ele>43.00000000000001</ele><time>2026-03-25T15:05:58.811Z</time></trkpt><trkpt lat="42.1677967" lon="14.63126"><ele>43.0</ele><time>2026-03-25T15:06:01.81Z</time></trkpt><trkpt lat="42.16778" lon="14.6311517"><ele>43.0</ele><time>2026-03-25T15:06:05.81Z</time></trkpt><trkpt lat="42.1677767" lon="14.63106"><ele>43.0</ele><time>2026-03-25T15:06:07.81Z</time></trkpt><trkpt lat="42.1677667" lon="14.6309617"><ele>43.0</ele><time>2026-03-25T15:06:10.81Z</time></trkpt><trkpt lat="42.1677483" lon="14.63086"><ele>43.00000000000001</ele><time>2026-03-25T15:06:13.81Z</time></trkpt><trkpt lat="42.1677417" lon="14.6307733"><ele>43.0</ele><time>2026-03-25T15:06:16.811Z</time></trkpt><trkpt lat="42.1677333" lon="14.6306817"><ele>44.16666666666667</ele><time>2026-03-25T15:06:19.81Z</time></trkpt><trkpt lat="42.1677267" lon="14.63056"><ele>45.333333333333336</ele><time>2026-03-25T15:06:23.81Z</time></trkpt><trkpt lat="42.1677283" lon="14.6304717"><ele>46.5</ele><time>2026-03-25T15:06:25.81Z</time></trkpt><trkpt lat="42.1677433" lon="14.6303533"><ele>47.66666666666667</ele><time>2026-03-25T15:06:28.81Z</time></trkpt><trkpt lat="42.1677683" lon="14.63024"><ele>48.833333333333336</ele><time>2026-03-25T15:06:31.811Z</time></trkpt><trkpt lat="42.1678083" lon="14.6301333"><ele>50.0</ele><time>2026-03-25T15:06:34.81Z</time></trkpt><trkpt lat="42.1678317" lon="14.630025"><ele>51.42857142857143</ele><time>2026-03-25T15:06:37.81Z</time></trkpt><trkpt lat="42.1678433" lon="14.6299267"><ele>52.85714285714286</ele><time>2026-03-25T15:06:40.81Z</time></trkpt><trkpt lat="42.167865" lon="14.629825"><ele>54.28571428571429</ele><time>2026-03-25T15:06:44.81Z</time></trkpt><trkpt lat="42.16788" lon="14.629725"><ele>55.714285714285715</ele><time>2026-03-25T15:06:47.811Z</time></trkpt><trkpt lat="42.1678967" lon="14.6296383"><ele>57.14285714285714</ele><time>2026-03-25T15:06:50.81Z</time></trkpt><trkpt lat="42.167905" lon="14.6295467"><ele>58.57142857142858</ele><time>2026-03-25T15:06:53.811Z</time></trkpt><trkpt lat="42.1679183" lon="14.629455"><ele>60.0</ele><time>2026-03-25T15:06:57.81Z</time></trkpt><trkpt lat="42.1679483" lon="14.6293567"><ele>61.57142857142857</ele><time>2026-03-25T15:07:01.81Z</time></trkpt><trkpt lat="42.1679933" lon="14.629285"><ele>63.14285714285714</ele><time>2026-03-25T15:07:05.811Z</time></trkpt><trkpt lat="42.1680583" lon="14.629245"><ele>64.71428571428571</ele><time>2026-03-25T15:07:09.81Z</time></trkpt><trkpt lat="42.1681283" lon="14.6291967"><ele>66.28571428571428</ele><time>2026-03-25T15:07:13.811Z</time></trkpt><trkpt lat="42.1681833" lon="14.6291467"><ele>67.85714285714285</ele><time>2026-03-25T15:07:16.81Z</time></trkpt><trkpt lat="42.1682383" lon="14.6290833"><ele>69.42857142857143</ele><time>2026-03-25T15:07:19.811Z</time></trkpt><trkpt lat="42.1682933" lon="14.62902"><ele>71.0</ele><time>2026-03-25T15:07:22.81Z</time></trkpt><trkpt lat="42.168345" lon="14.6289517"><ele>71.14285714285714</ele><time>2026-03-25T15:07:25.81Z</time></trkpt><trkpt lat="42.1683817" lon="14.62887"><ele>71.28571428571428</ele><time>2026-03-25T15:07:28.81Z</time></trkpt><trkpt lat="42.1684233" lon="14.6287967"><ele>71.42857142857143</ele><time>2026-03-25T15:07:31.81Z</time></trkpt><trkpt lat="42.1684817" lon="14.6287317"><ele>71.57142857142857</ele><time>2026-03-25T15:07:35.81Z</time></trkpt><trkpt lat="42.1685283" lon="14.6286717"><ele>71.71428571428572</ele><time>2026-03-25T15:07:38.81Z</time></trkpt><trkpt lat="42.168585" lon="14.6285983"><ele>71.85714285714286</ele><time>2026-03-25T15:07:42.81Z</time></trkpt><trkpt lat="42.1686267" lon="14.6285167"><ele>72.0</ele><time>2026-03-25T15:07:46.81Z</time></trkpt><trkpt lat="42.1686933" lon="14.62845"><ele>73.14285714285715</ele><time>2026-03-25T15:07:49.81Z</time></trkpt><trkpt lat="42.1687533" lon="14.6283717"><ele>74.28571428571429</ele><time>2026-03-25T15:07:52.81Z</time></trkpt><trkpt lat="42.1688067" lon="14.6283117"><ele>75.42857142857143</ele><time>2026-03-25T15:07:55.81Z</time></trkpt><trkpt lat="42.1688517" lon="14.6282417"><ele>76.57142857142858</ele><time>2026-03-25T15:07:58.81Z</time></trkpt><trkpt lat="42.1688967" lon="14.6281817"><ele>77.71428571428572</ele><time>2026-03-25T15:08:01.81Z</time></trkpt><trkpt lat="42.1689517" lon="14.6280883"><ele>78.85714285714286</ele><time>2026-03-25T15:08:04.81Z</time></trkpt><trkpt lat="42.16899" lon="14.6280117"><ele>80.0</ele><time>2026-03-25T15:08:06.81Z</time></trkpt><trkpt lat="42.1690217" lon="14.627935"><ele>80.66666666666667</ele><time>2026-03-25T15:08:08.811Z</time></trkpt><trkpt lat="42.1690683" lon="14.6278517"><ele>81.33333333333334</ele><time>2026-03-25T15:08:11.81Z</time></trkpt><trkpt lat="42.1691217" lon="14.627755"><ele>82.0</ele><time>2026-03-25T15:08:14.811Z</time></trkpt><trkpt lat="42.16917" lon="14.6276767"><ele>82.66666666666667</ele><time>2026-03-25T15:08:17.811Z</time></trkpt><trkpt lat="42.1692133" lon="14.6275983"><ele>83.33333333333333</ele><time>2026-03-25T15:08:20.81Z</time></trkpt><trkpt lat="42.1692567" lon="14.627495"><ele>84.0</ele><time>2026-03-25T15:08:23.81Z</time></trkpt><trkpt lat="42.169285" lon="14.6274117"><ele>84.85714285714286</ele><time>2026-03-25T15:08:25.81Z</time></trkpt><trkpt lat="42.16931" lon="14.6273183"><ele>85.71428571428572</ele><time>2026-03-25T15:08:27.811Z</time></trkpt><trkpt lat="42.169335" lon="14.6272133"><ele>86.57142857142857</ele><time>2026-03-25T15:08:29.81Z</time></trkpt><trkpt lat="42.1693483" lon="14.6271217"><ele>87.42857142857143</ele><time>2026-03-25T15:08:31.81Z</time></trkpt><trkpt lat="42.1693633" lon="14.62703"><ele>88.28571428571429</ele><time>2026-03-25T15:08:33.81Z</time></trkpt><trkpt lat="42.1693883" lon="14.62695"><ele>89.14285714285714</ele><time>2026-03-25T15:08:35.811Z</time></trkpt><trkpt lat="42.16942" lon="14.626865"><ele>90.0</ele><time>2026-03-25T15:08:37.81Z</time></trkpt><trkpt lat="42.1694567" lon="14.6267767"><ele>90.83333333333333</ele><time>2026-03-25T15:08:39.81Z</time></trkpt><trkpt lat="42.1694917" lon="14.6266767"><ele>91.66666666666667</ele><time>2026-03-25T15:08:41.81Z</time></trkpt><trkpt lat="42.1695383" lon="14.6265717"><ele>92.5</ele><time>2026-03-25T15:08:43.81Z</time></trkpt><trkpt lat="42.1695783" lon="14.62648"><ele>93.33333333333334</ele><time>2026-03-25T15:08:45.81Z</time></trkpt><trkpt lat="42.1696183" lon="14.6263933"><ele>94.16666666666667</ele><time>2026-03-25T15:08:47.81Z</time></trkpt><trkpt lat="42.16966" lon="14.626325"><ele>95.0</ele><time>2026-03-25T15:08:49.811Z</time></trkpt><trkpt lat="42.1697333" lon="14.6262483"><ele>95.0</ele><time>2026-03-25T15:08:52.81Z</time></trkpt><trkpt lat="42.169785" lon="14.6261933"><ele>95.0</ele><time>2026-03-25T15:08:54.81Z</time></trkpt><trkpt lat="42.169845" lon="14.6261533"><ele>95.0</ele><time>2026-03-25T15:08:56.81Z</time></trkpt><trkpt lat="42.1699017" lon="14.626115"><ele>95.0</ele><time>2026-03-25T15:08:58.81Z</time></trkpt><trkpt lat="42.1699633" lon="14.62607"><ele>95.0</ele><time>2026-03-25T15:09:00.81Z</time></trkpt><trkpt lat="42.170025" lon="14.6260017"><ele>95.0</ele><time>2026-03-25T15:09:02.81Z</time></trkpt><trkpt lat="42.1700983" lon="14.62591"><ele>95.0</ele><time>2026-03-25T15:09:05.811Z</time></trkpt><trkpt lat="42.1701433" lon="14.6258133"><ele>95.33333333333334</ele><time>2026-03-25T15:09:07.81Z</time></trkpt><trkpt lat="42.170175" lon="14.62571"><ele>95.66666666666667</ele><time>2026-03-25T15:09:09.81Z</time></trkpt><trkpt lat="42.1702067" lon="14.6255983"><ele>96.0</ele><time>2026-03-25T15:09:11.811Z</time></trkpt><trkpt lat="42.1702283" lon="14.62549"><ele>96.33333333333334</ele><time>2026-03-25T15:09:13.81Z</time></trkpt><trkpt lat="42.1702533" lon="14.6253733"><ele>96.66666666666667</ele><time>2026-03-25T15:09:15.81Z</time></trkpt><trkpt lat="42.17027" lon="14.6252733"><ele>97.0</ele><time>2026-03-25T15:09:17.81Z</time></trkpt><trkpt lat="42.1702917" lon="14.6251617"><ele>97.42857142857143</ele><time>2026-03-25T15:09:19.81Z</time></trkpt><trkpt lat="42.170315" lon="14.6250583"><ele>97.85714285714286</ele><time>2026-03-25T15:09:21.81Z</time></trkpt><trkpt lat="42.17033" lon="14.624955"><ele>98.28571428571429</ele><time>2026-03-25T15:09:23.81Z</time></trkpt><trkpt lat="42.1703467" lon="14.6248667"><ele>98.71428571428572</ele><time>2026-03-25T15:09:25.81Z</time></trkpt><trkpt lat="42.1703667" lon="14.6247767"><ele>99.14285714285714</ele><time>2026-03-25T15:09:27.811Z</time></trkpt><trkpt lat="42.1703883" lon="14.62469"><ele>99.57142857142858</ele><time>2026-03-25T15:09:29.81Z</time></trkpt><trkpt lat="42.1704133" lon="14.6246033"><ele>100.0</ele><time>2026-03-25T15:09:31.81Z</time></trkpt><trkpt lat="42.1704367" lon="14.6245067"><ele>100.42857142857143</ele><time>2026-03-25T15:09:33.81Z</time></trkpt><trkpt lat="42.1704533" lon="14.6244167"><ele>100.85714285714286</ele><time>2026-03-25T15:09:35.81Z</time></trkpt><trkpt lat="42.1704767" lon="14.62432"><ele>101.28571428571428</ele><time>2026-03-25T15:09:37.81Z</time></trkpt><trkpt lat="42.1704983" lon="14.6242267"><ele>101.71428571428572</ele><time>2026-03-25T15:09:39.81Z</time></trkpt><trkpt lat="42.170525" lon="14.6241233"><ele>102.14285714285714</ele><time>2026-03-25T15:09:41.811Z</time></trkpt><trkpt lat="42.170555" lon="14.6240283"><ele>102.57142857142857</ele><time>2026-03-25T15:09:43.811Z</time></trkpt><trkpt lat="42.1705867" lon="14.6239483"><ele>103.0</ele><time>2026-03-25T15:09:45.81Z</time></trkpt><trkpt lat="42.17062" lon="14.6238433"><ele>103.00000000000001</ele><time>2026-03-25T15:09:48.811Z</time></trkpt><trkpt lat="42.170645" lon="14.6237467"><ele>103.0</ele><time>2026-03-25T15:09:51.81Z</time></trkpt><trkpt lat="42.1706733" lon="14.6236367"><ele>103.0</ele><time>2026-03-25T15:09:54.81Z</time></trkpt><trkpt lat="42.1707483" lon="14.62366"><ele>103.0</ele><time>2026-03-25T15:09:58.81Z</time></trkpt><trkpt lat="42.1708217" lon="14.6237017"><ele>103.00000000000001</ele><time>2026-03-25T15:10:01.81Z</time></trkpt><trkpt lat="42.170915" lon="14.62373"><ele>103.0</ele><time>2026-03-25T15:10:04.811Z</time></trkpt><trkpt lat="42.17098" lon="14.6237483"><ele>102.83333333333334</ele><time>2026-03-25T15:10:06.81Z</time></trkpt><trkpt lat="42.17104" lon="14.6237883"><ele>102.66666666666667</ele><time>2026-03-25T15:10:08.81Z</time></trkpt><trkpt lat="42.1711067" lon="14.623825"><ele>102.5</ele><time>2026-03-25T15:10:10.81Z</time></trkpt><trkpt lat="42.171175" lon="14.62387"><ele>102.33333333333334</ele><time>2026-03-25T15:10:12.81Z</time></trkpt><trkpt lat="42.1712617" lon="14.6239033"><ele>102.16666666666667</ele><time>2026-03-25T15:10:14.81Z</time></trkpt><trkpt lat="42.171345" lon="14.6239467"><ele>102.0</ele><time>2026-03-25T15:10:16.81Z</time></trkpt><trkpt lat="42.1714267" lon="14.624"><ele>102.0</ele><time>2026-03-25T15:10:18.81Z</time></trkpt><trkpt lat="42.1715133" lon="14.6240617"><ele>102.0</ele><time>2026-03-25T15:10:20.81Z</time></trkpt><trkpt lat="42.1715983" lon="14.6241217"><ele>102.0</ele><time>2026-03-25T15:10:22.81Z</time></trkpt><trkpt lat="42.1716933" lon="14.624185"><ele>102.0</ele><time>2026-03-25T15:10:24.81Z</time></trkpt><trkpt lat="42.1717867" lon="14.6242433"><ele>102.0</ele><time>2026-03-25T15:10:26.81Z</time></trkpt><trkpt lat="42.171875" lon="14.6243017"><ele>101.39999999999999</ele><time>2026-03-25T15:10:28.811Z</time></trkpt><trkpt lat="42.1719767" lon="14.624375"><ele>100.8</ele><time>2026-03-25T15:10:30.81Z</time></trkpt><trkpt lat="42.1720733" lon="14.62445"><ele>100.2</ele><time>2026-03-25T15:10:32.81Z</time></trkpt><trkpt lat="42.1721717" lon="14.6245083"><ele>99.6</ele><time>2026-03-25T15:10:34.81Z</time></trkpt><trkpt lat="42.1722567" lon="14.62455"><ele>99.0</ele><time>2026-03-25T15:10:36.811Z</time></trkpt><trkpt lat="42.172345" lon="14.6245617"><ele>98.42857142857143</ele><time>2026-03-25T15:10:38.811Z</time></trkpt><trkpt lat="42.1724217" lon="14.6245467"><ele>97.85714285714285</ele><time>2026-03-25T15:10:40.81Z</time></trkpt><trkpt lat="42.1724933" lon="14.6245283"><ele>97.28571428571428</ele><time>2026-03-25T15:10:42.81Z</time></trkpt><trkpt lat="42.1725583" lon="14.6245033"><ele>96.71428571428572</ele><time>2026-03-25T15:10:44.81Z</time></trkpt><trkpt lat="42.1726267" lon="14.6244867"><ele>96.14285714285714</ele><time>2026-03-25T15:10:47.81Z</time></trkpt><trkpt lat="42.1726917" lon="14.6244583"><ele>95.57142857142857</ele><time>2026-03-25T15:10:50.81Z</time></trkpt><trkpt lat="42.17277" lon="14.6244433"><ele>95.0</ele><time>2026-03-25T15:10:53.81Z</time></trkpt><trkpt lat="42.17284" lon="14.6244467"><ele>94.85714285714286</ele><time>2026-03-25T15:10:55.811Z</time></trkpt><trkpt lat="42.1729067" lon="14.6244367"><ele>94.71428571428572</ele><time>2026-03-25T15:10:57.81Z</time></trkpt><trkpt lat="42.172985" lon="14.624415"><ele>94.57142857142857</ele><time>2026-03-25T15:11:01.81Z</time></trkpt><trkpt lat="42.1730633" lon="14.62437"><ele>94.42857142857143</ele><time>2026-03-25T15:11:04.811Z</time></trkpt><trkpt lat="42.1731183" lon="14.6243283"><ele>94.28571428571428</ele><time>2026-03-25T15:11:06.81Z</time></trkpt><trkpt lat="42.1731767" lon="14.6242817"><ele>94.14285714285714</ele><time>2026-03-25T15:11:08.81Z</time></trkpt><trkpt lat="42.17322" lon="14.6242167"><ele>94.0</ele><time>2026-03-25T15:11:10.81Z</time></trkpt><trkpt lat="42.1732883" lon="14.624135"><ele>93.16666666666666</ele><time>2026-03-25T15:11:13.81Z</time></trkpt><trkpt lat="42.1733367" lon="14.6240783"><ele>92.33333333333333</ele><time>2026-03-25T15:11:15.81Z</time></trkpt><trkpt lat="42.1734017" lon="14.62403"><ele>91.5</ele><time>2026-03-25T15:11:18.81Z</time></trkpt><trkpt lat="42.1734733" lon="14.623965"><ele>90.66666666666667</ele><time>2026-03-25T15:11:22.811Z</time></trkpt><trkpt lat="42.1735033" lon="14.6238817"><ele>89.83333333333334</ele><time>2026-03-25T15:11:24.81Z</time></trkpt><trkpt lat="42.1735283" lon="14.623775"><ele>89.0</ele><time>2026-03-25T15:11:26.81Z</time></trkpt><trkpt lat="42.173565" lon="14.623635"><ele>88.4</ele><time>2026-03-25T15:11:28.81Z</time></trkpt><trkpt lat="42.1735933" lon="14.62349"><ele>87.80000000000001</ele><time>2026-03-25T15:11:30.811Z</time></trkpt><trkpt lat="42.17361" lon="14.6233583"><ele>87.19999999999999</ele><time>2026-03-25T15:11:32.81Z</time></trkpt><trkpt lat="42.1736383" lon="14.6232433"><ele>86.6</ele><time>2026-03-25T15:11:34.81Z</time></trkpt><trkpt lat="42.17366" lon="14.6231317"><ele>86.0</ele><time>2026-03-25T15:11:36.81Z</time></trkpt><trkpt lat="42.1736833" lon="14.6230283"><ele>86.0</ele><time>2026-03-25T15:11:38.81Z</time></trkpt><trkpt lat="42.1737067" lon="14.6229333"><ele>86.0</ele><time>2026-03-25T15:11:40.81Z</time></trkpt><trkpt lat="42.1737317" lon="14.622855"><ele>86.0</ele><time>2026-03-25T15:11:42.81Z</time></trkpt><trkpt lat="42.1737733" lon="14.6227733"><ele>86.0</ele><time>2026-03-25T15:11:45.81Z</time></trkpt><trkpt lat="42.1738283" lon="14.622695"><ele>86.0</ele><time>2026-03-25T15:12:11.81Z</time></trkpt><trkpt lat="42.1738983" lon="14.62263"><ele>86.0</ele><time>2026-03-25T15:12:14.81Z</time></trkpt><trkpt lat="42.1739617" lon="14.6225733"><ele>83.16666666666667</ele><time>2026-03-25T15:12:16.811Z</time></trkpt><trkpt lat="42.1740233" lon="14.6225383"><ele>80.33333333333334</ele><time>2026-03-25T15:12:18.81Z</time></trkpt><trkpt lat="42.1740933" lon="14.6224983"><ele>77.5</ele><time>2026-03-25T15:12:20.81Z</time></trkpt><trkpt lat="42.17416" lon="14.62245"><ele>74.66666666666667</ele><time>2026-03-25T15:12:22.811Z</time></trkpt><trkpt lat="42.174235" lon="14.6223917"><ele>71.83333333333333</ele><time>2026-03-25T15:12:25.811Z</time></trkpt><trkpt lat="42.1742817" lon="14.6223"><ele>69.0</ele><time>2026-03-25T15:12:28.81Z</time></trkpt><trkpt lat="42.1743217" lon="14.6222333"><ele>69.0</ele><time>2026-03-25T15:12:30.81Z</time></trkpt><trkpt lat="42.1743633" lon="14.6221433"><ele>69.0</ele><time>2026-03-25T15:12:33.81Z</time></trkpt><trkpt lat="42.1744067" lon="14.6220483"><ele>69.0</ele><time>2026-03-25T15:12:36.811Z</time></trkpt><trkpt lat="42.17444" lon="14.6219567"><ele>69.0</ele><time>2026-03-25T15:12:39.811Z</time></trkpt><trkpt lat="42.1744683" lon="14.62186"><ele>69.0</ele><time>2026-03-25T15:12:43.811Z</time></trkpt><trkpt lat="42.1745133" lon="14.6217417"><ele>69.0</ele><time>2026-03-25T15:12:52.811Z</time></trkpt><trkpt lat="42.174585" lon="14.6217083"><ele>70.0</ele><time>2026-03-25T15:12:57.811Z</time></trkpt><trkpt lat="42.1746683" lon="14.6216883"><ele>71.0</ele><time>2026-03-25T15:13:01.811Z</time></trkpt><trkpt lat="42.1747283" lon="14.6216533"><ele>72.0</ele><time>2026-03-25T15:13:04.811Z</time></trkpt><trkpt lat="42.1748133" lon="14.621515"><ele>73.0</ele><time>2026-03-25T15:14:09.09Z</time></trkpt><trkpt lat="42.174875" lon="14.6214833"><ele>74.0</ele><time>2026-03-25T15:15:47.809Z</time></trkpt><trkpt lat="42.1749367" lon="14.621445"><ele>75.0</ele><time>2026-03-25T15:15:51.809Z</time></trkpt><trkpt lat="42.174995" lon="14.621395"><ele>76.66666666666667</ele><time>2026-03-25T15:15:55.809Z</time></trkpt><trkpt lat="42.17503" lon="14.621305"><ele>78.33333333333333</ele><time>2026-03-25T15:16:00.809Z</time></trkpt><trkpt lat="42.1749883" lon="14.6212267"><ele>80.0</ele><time>2026-03-25T15:16:03.81Z</time></trkpt><trkpt lat="42.1749183" lon="14.621155"><ele>81.66666666666666</ele><time>2026-03-25T15:16:06.809Z</time></trkpt><trkpt lat="42.1748417" lon="14.6210883"><ele>83.33333333333333</ele><time>2026-03-25T15:16:09.809Z</time></trkpt><trkpt lat="42.1747867" lon="14.6210417"><ele>85.0</ele><time>2026-03-25T15:16:11.809Z</time></trkpt><trkpt lat="42.1747317" lon="14.620995"><ele>85.0</ele><time>2026-03-25T15:16:13.809Z</time></trkpt><trkpt lat="42.1746633" lon="14.6209617"><ele>85.0</ele><time>2026-03-25T15:16:15.809Z</time></trkpt><trkpt lat="42.1745867" lon="14.6209083"><ele>85.0</ele><time>2026-03-25T15:16:18.81Z</time></trkpt><trkpt lat="42.17453" lon="14.6208683"><ele>85.0</ele><time>2026-03-25T15:16:21.809Z</time></trkpt><trkpt lat="42.1744667" lon="14.62082"><ele>85.0</ele><time>2026-03-25T15:16:24.809Z</time></trkpt><trkpt lat="42.1743917" lon="14.6207783"><ele>85.0</ele><time>2026-03-25T15:16:27.809Z</time></trkpt><trkpt lat="42.17433" lon="14.62072"><ele>85.0</ele><time>2026-03-25T15:16:30.81Z</time></trkpt><trkpt lat="42.1742767" lon="14.6206267"><ele>85.0</ele><time>2026-03-25T15:16:33.809Z</time></trkpt><trkpt lat="42.1742233" lon="14.62054"><ele>85.0</ele><time>2026-03-25T15:16:36.809Z</time></trkpt><trkpt lat="42.17417" lon="14.62045"><ele>85.0</ele><time>2026-03-25T15:16:39.809Z</time></trkpt><trkpt lat="42.1741267" lon="14.62036"><ele>85.0</ele><time>2026-03-25T15:16:42.809Z</time></trkpt><trkpt lat="42.1740933" lon="14.6202583"><ele>85.0</ele><time>2026-03-25T15:16:45.809Z</time></trkpt><trkpt lat="42.1740783" lon="14.6201567"><ele>84.16666666666666</ele><time>2026-03-25T15:16:48.809Z</time></trkpt><trkpt lat="42.174065" lon="14.6200333"><ele>83.33333333333333</ele><time>2026-03-25T15:16:51.809Z</time></trkpt><trkpt lat="42.1740567" lon="14.61991"><ele>82.5</ele><time>2026-03-25T15:16:54.809Z</time></trkpt><trkpt lat="42.17405" lon="14.6198"><ele>81.66666666666667</ele><time>2026-03-25T15:16:57.809Z</time></trkpt><trkpt lat="42.174025" lon="14.61972"><ele>80.83333333333334</ele><time>2026-03-25T15:16:59.809Z</time></trkpt><trkpt lat="42.1740017" lon="14.6196367"><ele>80.0</ele><time>2026-03-25T15:17:01.809Z</time></trkpt><trkpt lat="42.1739667" lon="14.6195317"><ele>81.16666666666667</ele><time>2026-03-25T15:17:04.809Z</time></trkpt><trkpt lat="42.1739217" lon="14.6194167"><ele>82.33333333333334</ele><time>2026-03-25T15:17:07.809Z</time></trkpt><trkpt lat="42.1738917" lon="14.6193383"><ele>83.5</ele><time>2026-03-25T15:17:09.809Z</time></trkpt><trkpt lat="42.1738583" lon="14.6192567"><ele>84.66666666666667</ele><time>2026-03-25T15:17:11.809Z</time></trkpt><trkpt lat="42.173825" lon="14.61918"><ele>85.83333333333333</ele><time>2026-03-25T15:17:13.81Z</time></trkpt><trkpt lat="42.1737817" lon="14.6191133"><ele>87.0</ele><time>2026-03-25T15:17:15.809Z</time></trkpt><trkpt lat="42.1737317" lon="14.6190133"><ele>87.0</ele><time>2026-03-25T15:17:18.809Z</time></trkpt><trkpt lat="42.1736833" lon="14.6189083"><ele>87.0</ele><time>2026-03-25T15:17:21.809Z</time></trkpt><trkpt lat="42.1736417" lon="14.6188417"><ele>87.0</ele><time>2026-03-25T15:17:23.81Z</time></trkpt><trkpt lat="42.1735867" lon="14.6187417"><ele>87.0</ele><time>2026-03-25T15:17:26.809Z</time></trkpt><trkpt lat="42.1735467" lon="14.6186733"><ele>87.0</ele><time>2026-03-25T15:17:28.809Z</time></trkpt><trkpt lat="42.1734867" lon="14.6185783"><ele>87.0</ele><time>2026-03-25T15:17:31.81Z</time></trkpt><trkpt lat="42.173445" lon="14.61851"><ele>87.16666666666667</ele><time>2026-03-25T15:17:33.809Z</time></trkpt><trkpt lat="42.173395" lon="14.6184117"><ele>87.33333333333333</ele><time>2026-03-25T15:17:36.809Z</time></trkpt><trkpt lat="42.1733383" lon="14.6183133"><ele>87.5</ele><time>2026-03-25T15:17:39.809Z</time></trkpt><trkpt lat="42.1733017" lon="14.6182417"><ele>87.66666666666666</ele><time>2026-03-25T15:17:41.809Z</time></trkpt><trkpt lat="42.1732617" lon="14.6181683"><ele>87.83333333333333</ele><time>2026-03-25T15:17:43.809Z</time></trkpt><trkpt lat="42.1732233" lon="14.6180833"><ele>88.0</ele><time>2026-03-25T15:17:45.809Z</time></trkpt><trkpt lat="42.1731833" lon="14.6180117"><ele>88.0</ele><time>2026-03-25T15:17:47.809Z</time></trkpt><trkpt lat="42.1731433" lon="14.617945"><ele>88.0</ele><time>2026-03-25T15:17:49.809Z</time></trkpt><trkpt lat="42.1731067" lon="14.617875"><ele>88.0</ele><time>2026-03-25T15:17:51.81Z</time></trkpt><trkpt lat="42.17307" lon="14.6178033"><ele>88.0</ele><time>2026-03-25T15:17:53.809Z</time></trkpt><trkpt lat="42.1730083" lon="14.61771"><ele>88.0</ele><time>2026-03-25T15:17:56.809Z</time></trkpt><trkpt lat="42.1729717" lon="14.61764"><ele>88.0</ele><time>2026-03-25T15:17:58.809Z</time></trkpt><trkpt lat="42.1729433" lon="14.617545"><ele>88.0</ele><time>2026-03-25T15:18:01.809Z</time></trkpt><trkpt lat="42.17298" lon="14.6174617"><ele>89.66666666666666</ele><time>2026-03-25T15:18:04.809Z</time></trkpt><trkpt lat="42.1730317" lon="14.6174"><ele>91.33333333333333</ele><time>2026-03-25T15:18:06.81Z</time></trkpt><trkpt lat="42.17307" lon="14.6173133"><ele>93.0</ele><time>2026-03-25T15:18:09.809Z</time></trkpt><trkpt lat="42.1730633" lon="14.6172117"><ele>94.66666666666666</ele><time>2026-03-25T15:18:11.809Z</time></trkpt><trkpt lat="42.1730217" lon="14.6171167"><ele>96.33333333333333</ele><time>2026-03-25T15:18:13.809Z</time></trkpt><trkpt lat="42.172975" lon="14.6170283"><ele>98.0</ele><time>2026-03-25T15:18:15.81Z</time></trkpt><trkpt lat="42.17293" lon="14.61694"><ele>98.83333333333333</ele><time>2026-03-25T15:18:17.809Z</time></trkpt><trkpt lat="42.172885" lon="14.6168417"><ele>99.66666666666666</ele><time>2026-03-25T15:18:19.809Z</time></trkpt><trkpt lat="42.172835" lon="14.6167583"><ele>100.5</ele><time>2026-03-25T15:18:21.809Z</time></trkpt><trkpt lat="42.1727767" lon="14.6166533"><ele>101.33333333333334</ele><time>2026-03-25T15:18:23.809Z</time></trkpt><trkpt lat="42.1727217" lon="14.6165517"><ele>102.16666666666667</ele><time>2026-03-25T15:18:25.809Z</time></trkpt><trkpt lat="42.1726583" lon="14.61646"><ele>103.0</ele><time>2026-03-25T15:18:27.809Z</time></trkpt><trkpt lat="42.1725917" lon="14.6163567"><ele>103.0</ele><time>2026-03-25T15:18:29.809Z</time></trkpt><trkpt lat="42.1725283" lon="14.6162617"><ele>103.0</ele><time>2026-03-25T15:18:31.809Z</time></trkpt><trkpt lat="42.17248" lon="14.6161667"><ele>103.0</ele><time>2026-03-25T15:18:33.809Z</time></trkpt><trkpt lat="42.1724383" lon="14.61606"><ele>103.0</ele><time>2026-03-25T15:18:35.809Z</time></trkpt><trkpt lat="42.1723867" lon="14.61596"><ele>103.0</ele><time>2026-03-25T15:18:37.81Z</time></trkpt><trkpt lat="42.17233" lon="14.6158567"><ele>102.83333333333334</ele><time>2026-03-25T15:18:39.809Z</time></trkpt><trkpt lat="42.1722733" lon="14.61576"><ele>102.66666666666667</ele><time>2026-03-25T15:18:41.809Z</time></trkpt><trkpt lat="42.17222" lon="14.6156617"><ele>102.5</ele><time>2026-03-25T15:18:43.81Z</time></trkpt><trkpt lat="42.1721717" lon="14.6155833"><ele>102.33333333333334</ele><time>2026-03-25T15:18:45.81Z</time></trkpt><trkpt lat="42.1721183" lon="14.615475"><ele>102.16666666666667</ele><time>2026-03-25T15:18:48.809Z</time></trkpt><trkpt lat="42.1720833" lon="14.6153983"><ele>102.0</ele><time>2026-03-25T15:18:50.809Z</time></trkpt><trkpt lat="42.172055" lon="14.61532"><ele>102.57142857142857</ele><time>2026-03-25T15:18:52.809Z</time></trkpt><trkpt lat="42.1720367" lon="14.6152317"><ele>103.14285714285714</ele><time>2026-03-25T15:18:54.809Z</time></trkpt><trkpt lat="42.1720583" lon="14.61514"><ele>103.71428571428572</ele><time>2026-03-25T15:18:56.809Z</time></trkpt><trkpt lat="42.17209" lon="14.6150633"><ele>104.28571428571428</ele><time>2026-03-25T15:18:58.809Z</time></trkpt><trkpt lat="42.1721183" lon="14.61496"><ele>104.85714285714285</ele><time>2026-03-25T15:19:01.81Z</time></trkpt><trkpt lat="42.1721367" lon="14.6148783"><ele>105.42857142857143</ele><time>2026-03-25T15:19:03.809Z</time></trkpt><trkpt lat="42.1721433" lon="14.6147783"><ele>106.0</ele><time>2026-03-25T15:19:07.809Z</time></trkpt><trkpt lat="42.17208" lon="14.61473"><ele>106.0</ele><time>2026-03-25T15:19:10.81Z</time></trkpt><trkpt lat="42.172015" lon="14.614705"><ele>106.0</ele><time>2026-03-25T15:19:12.809Z</time></trkpt><trkpt lat="42.1719533" lon="14.6146733"><ele>106.0</ele><time>2026-03-25T15:19:14.809Z</time></trkpt><trkpt lat="42.1719033" lon="14.6146017"><ele>106.0</ele><time>2026-03-25T15:19:16.809Z</time></trkpt><trkpt lat="42.17183" lon="14.61456"><ele>106.0</ele><time>2026-03-25T15:19:18.809Z</time></trkpt><trkpt lat="42.1717533" lon="14.6145433"><ele>106.0</ele><time>2026-03-25T15:19:20.809Z</time></trkpt><trkpt lat="42.171685" lon="14.6145283"><ele>106.0</ele><time>2026-03-25T15:19:22.809Z</time></trkpt><trkpt lat="42.17162" lon="14.614515"><ele>106.00000000000001</ele><time>2026-03-25T15:19:24.809Z</time></trkpt><trkpt lat="42.1715383" lon="14.6144933"><ele>106.0</ele><time>2026-03-25T15:19:26.809Z</time></trkpt><trkpt lat="42.1714433" lon="14.6144767"><ele>106.0</ele><time>2026-03-25T15:19:28.809Z</time></trkpt><trkpt lat="42.1713583" lon="14.6144517"><ele>106.0</ele><time>2026-03-25T15:19:30.809Z</time></trkpt><trkpt lat="42.1712767" lon="14.61443"><ele>106.00000000000001</ele><time>2026-03-25T15:19:32.81Z</time></trkpt><trkpt lat="42.1711933" lon="14.614405"><ele>106.0</ele><time>2026-03-25T15:19:34.809Z</time></trkpt><trkpt lat="42.1711067" lon="14.6143833"><ele>105.83333333333334</ele><time>2026-03-25T15:19:36.809Z</time></trkpt><trkpt lat="42.1710167" lon="14.61437"><ele>105.66666666666667</ele><time>2026-03-25T15:19:38.81Z</time></trkpt><trkpt lat="42.1709433" lon="14.6143483"><ele>105.5</ele><time>2026-03-25T15:19:40.809Z</time></trkpt><trkpt lat="42.1708817" lon="14.6143283"><ele>105.33333333333334</ele><time>2026-03-25T15:19:42.809Z</time></trkpt><trkpt lat="42.1708117" lon="14.6143117"><ele>105.16666666666667</ele><time>2026-03-25T15:19:44.809Z</time></trkpt><trkpt lat="42.1707367" lon="14.6142933"><ele>105.0</ele><time>2026-03-25T15:19:46.809Z</time></trkpt><trkpt lat="42.170655" lon="14.6142617"><ele>106.0</ele><time>2026-03-25T15:19:48.809Z</time></trkpt><trkpt lat="42.1705917" lon="14.6142"><ele>107.0</ele><time>2026-03-25T15:19:50.809Z</time></trkpt><trkpt lat="42.1705633" lon="14.6140983"><ele>108.0</ele><time>2026-03-25T15:19:52.809Z</time></trkpt><trkpt lat="42.170525" lon="14.6140083"><ele>109.0</ele><time>2026-03-25T15:19:54.809Z</time></trkpt><trkpt lat="42.17049" lon="14.6139217"><ele>110.0</ele><time>2026-03-25T15:19:56.809Z</time></trkpt><trkpt lat="42.1705183" lon="14.6138383"><ele>111.0</ele><time>2026-03-25T15:19:59.809Z</time></trkpt><trkpt lat="42.1706" lon="14.613805"><ele>111.0</ele><time>2026-03-25T15:20:03.809Z</time></trkpt><trkpt lat="42.1706617" lon="14.6137867"><ele>111.0</ele><time>2026-03-25T15:20:05.809Z</time></trkpt><trkpt lat="42.170735" lon="14.613795"><ele>111.0</ele><time>2026-03-25T15:20:07.809Z</time></trkpt><trkpt lat="42.1708133" lon="14.613815"><ele>111.0</ele><time>2026-03-25T15:20:09.81Z</time></trkpt><trkpt lat="42.1708833" lon="14.6138333"><ele>111.0</ele><time>2026-03-25T15:20:11.81Z</time></trkpt><trkpt lat="42.1709483" lon="14.6137983"><ele>111.0</ele><time>2026-03-25T15:20:15.809Z</time></trkpt><trkpt lat="42.170925" lon="14.613685"><ele>111.0</ele><time>2026-03-25T15:20:45.809Z</time></trkpt><trkpt lat="42.170875" lon="14.6136"><ele>110.33333333333333</ele><time>2026-03-25T15:20:48.81Z</time></trkpt><trkpt lat="42.1708017" lon="14.61353"><ele>109.66666666666666</ele><time>2026-03-25T15:20:51.809Z</time></trkpt><trkpt lat="42.1707383" lon="14.6134683"><ele>109.0</ele><time>2026-03-25T15:20:53.809Z</time></trkpt><trkpt lat="42.1706683" lon="14.6133917"><ele>108.33333333333333</ele><time>2026-03-25T15:20:55.809Z</time></trkpt><trkpt lat="42.170595" lon="14.6133233"><ele>107.66666666666666</ele><time>2026-03-25T15:20:57.81Z</time></trkpt><trkpt lat="42.1705267" lon="14.613265"><ele>107.0</ele><time>2026-03-25T15:20:59.809Z</time></trkpt><trkpt lat="42.1704567" lon="14.6132167"><ele>107.00000000000001</ele><time>2026-03-25T15:21:01.809Z</time></trkpt><trkpt lat="42.1703917" lon="14.6131783"><ele>107.0</ele><time>2026-03-25T15:21:03.809Z</time></trkpt><trkpt lat="42.1703283" lon="14.6131417"><ele>107.0</ele><time>2026-03-25T15:21:05.809Z</time></trkpt><trkpt lat="42.1702667" lon="14.6130983"><ele>107.0</ele><time>2026-03-25T15:21:07.809Z</time></trkpt><trkpt lat="42.1702017" lon="14.613065"><ele>107.0</ele><time>2026-03-25T15:21:09.809Z</time></trkpt><trkpt lat="42.1701367" lon="14.6130267"><ele>107.00000000000001</ele><time>2026-03-25T15:21:11.809Z</time></trkpt><trkpt lat="42.17007" lon="14.61299"><ele>107.0</ele><time>2026-03-25T15:21:13.809Z</time></trkpt><trkpt lat="42.1700033" lon="14.6129467"><ele>107.00000000000001</ele><time>2026-03-25T15:21:15.809Z</time></trkpt><trkpt lat="42.169945" lon="14.6129033"><ele>107.0</ele><time>2026-03-25T15:21:17.809Z</time></trkpt><trkpt lat="42.16988" lon="14.612865"><ele>107.0</ele><time>2026-03-25T15:21:19.809Z</time></trkpt><trkpt lat="42.1698267" lon="14.6128183"><ele>107.0</ele><time>2026-03-25T15:21:21.809Z</time></trkpt><trkpt lat="42.16976" lon="14.612765"><ele>107.0</ele><time>2026-03-25T15:21:23.809Z</time></trkpt><trkpt lat="42.1696933" lon="14.6127333"><ele>107.00000000000001</ele><time>2026-03-25T15:21:25.809Z</time></trkpt><trkpt lat="42.1696167" lon="14.6126983"><ele>107.0</ele><time>2026-03-25T15:21:27.809Z</time></trkpt><trkpt lat="42.1695517" lon="14.612665"><ele>106.14285714285715</ele><time>2026-03-25T15:21:29.81Z</time></trkpt><trkpt lat="42.1694883" lon="14.6126233"><ele>105.28571428571429</ele><time>2026-03-25T15:21:32.809Z</time></trkpt><trkpt lat="42.169425" lon="14.612555"><ele>104.42857142857143</ele><time>2026-03-25T15:21:36.809Z</time></trkpt><trkpt lat="42.16936" lon="14.6125183"><ele>103.57142857142858</ele><time>2026-03-25T15:21:39.809Z</time></trkpt><trkpt lat="42.1692917" lon="14.6125067"><ele>102.71428571428571</ele><time>2026-03-25T15:21:43.809Z</time></trkpt><trkpt lat="42.16924" lon="14.61258"><ele>101.85714285714286</ele><time>2026-03-25T15:21:49.809Z</time></trkpt><trkpt lat="42.16919" lon="14.6126533"><ele>101.0</ele><time>2026-03-25T15:21:54.809Z</time></trkpt><trkpt lat="42.16914" lon="14.6127067"><ele>101.0</ele><time>2026-03-25T15:21:58.809Z</time></trkpt><trkpt lat="42.169065" lon="14.6126467"><ele>101.0</ele><time>2026-03-25T15:22:03.809Z</time></trkpt><trkpt lat="42.168995" lon="14.6125817"><ele>101.0</ele><time>2026-03-25T15:22:05.809Z</time></trkpt><trkpt lat="42.1689" lon="14.6125367"><ele>101.0</ele><time>2026-03-25T15:22:07.809Z</time></trkpt><trkpt lat="42.1687733" lon="14.6125167"><ele>101.0</ele><time>2026-03-25T15:22:09.809Z</time></trkpt><trkpt lat="42.1686633" lon="14.6125117"><ele>101.71428571428571</ele><time>2026-03-25T15:22:11.81Z</time></trkpt><trkpt lat="42.168565" lon="14.612505"><ele>102.42857142857142</ele><time>2026-03-25T15:22:13.809Z</time></trkpt><trkpt lat="42.1684983" lon="14.612495"><ele>103.14285714285714</ele><time>2026-03-25T15:22:15.809Z</time></trkpt><trkpt lat="42.168435" lon="14.6124883"><ele>103.85714285714286</ele><time>2026-03-25T15:22:17.809Z</time></trkpt><trkpt lat="42.1683567" lon="14.6124733"><ele>104.57142857142857</ele><time>2026-03-25T15:22:20.81Z</time></trkpt><trkpt lat="42.1682867" lon="14.6124683"><ele>105.28571428571429</ele><time>2026-03-25T15:22:23.809Z</time></trkpt><trkpt lat="42.1682183" lon="14.612445"><ele>106.0</ele><time>2026-03-25T15:22:26.809Z</time></trkpt><trkpt lat="42.1681583" lon="14.6123717"><ele>107.00000000000001</ele><time>2026-03-25T15:22:29.809Z</time></trkpt><trkpt lat="42.1681267" lon="14.6122833"><ele>108.0</ele><time>2026-03-25T15:22:32.809Z</time></trkpt><trkpt lat="42.168055" lon="14.612245"><ele>109.0</ele><time>2026-03-25T15:22:36.809Z</time></trkpt><trkpt lat="42.1679817" lon="14.6122167"><ele>110.0</ele><time>2026-03-25T15:22:39.81Z</time></trkpt><trkpt lat="42.1679017" lon="14.6121883"><ele>111.00000000000001</ele><time>2026-03-25T15:22:42.809Z</time></trkpt><trkpt lat="42.1678333" lon="14.6121667"><ele>112.0</ele><time>2026-03-25T15:22:45.809Z</time></trkpt><trkpt lat="42.1677633" lon="14.612135"><ele>112.00000000000001</ele><time>2026-03-25T15:22:48.809Z</time></trkpt><trkpt lat="42.167695" lon="14.6120967"><ele>112.0</ele><time>2026-03-25T15:22:51.809Z</time></trkpt><trkpt lat="42.167615" lon="14.6120683"><ele>112.0</ele><time>2026-03-25T15:22:54.809Z</time></trkpt><trkpt lat="42.1675283" lon="14.6120467"><ele>112.0</ele><time>2026-03-25T15:22:57.809Z</time></trkpt><trkpt lat="42.1674517" lon="14.61204"><ele>112.00000000000001</ele><time>2026-03-25T15:23:00.809Z</time></trkpt><trkpt lat="42.1673833" lon="14.6120533"><ele>112.0</ele><time>2026-03-25T15:23:02.81Z</time></trkpt><trkpt lat="42.16739" lon="14.6121433"><ele>112.0</ele><time>2026-03-25T15:23:05.809Z</time></trkpt><trkpt lat="42.167435" lon="14.6122517"><ele>112.0</ele><time>2026-03-25T15:23:08.809Z</time></trkpt><trkpt lat="42.167475" lon="14.6123233"><ele>112.0</ele><time>2026-03-25T15:23:10.809Z</time></trkpt><trkpt lat="42.1675217" lon="14.6123883"><ele>112.0</ele><time>2026-03-25T15:23:13.809Z</time></trkpt><trkpt lat="42.1675467" lon="14.612475"><ele>112.0</ele><time>2026-03-25T15:23:22.809Z</time></trkpt><trkpt lat="42.1675867" lon="14.6125417"><ele>112.0</ele><time>2026-03-25T15:23:30.809Z</time></trkpt><trkpt lat="42.167605" lon="14.6126233"><ele>112.0</ele><time>2026-03-25T15:23:53.809Z</time></trkpt><trkpt lat="42.1676617" lon="14.61272"><ele>112.0</ele><time>2026-03-25T15:23:56.81Z</time></trkpt><trkpt lat="42.16771" lon="14.612795"><ele>112.0</ele><time>2026-03-25T15:23:59.81Z</time></trkpt><trkpt lat="42.1677583" lon="14.6128783"><ele>112.0</ele><time>2026-03-25T15:24:02.809Z</time></trkpt><trkpt lat="42.1678033" lon="14.6129717"><ele>112.0</ele><time>2026-03-25T15:24:05.81Z</time></trkpt><trkpt lat="42.1678333" lon="14.613065"><ele>112.0</ele><time>2026-03-25T15:24:08.809Z</time></trkpt><trkpt lat="42.16786" lon="14.6131467"><ele>112.0</ele><time>2026-03-25T15:24:12.809Z</time></trkpt><trkpt lat="42.167795" lon="14.6131283"><ele>112.0</ele><time>2026-03-25T15:24:32.809Z</time></trkpt><trkpt lat="42.1677683" lon="14.6130333"><ele>112.0</ele><time>2026-03-25T15:24:37.809Z</time></trkpt><trkpt lat="42.1677083" lon="14.613"><ele>112.0</ele><time>2026-03-25T15:24:42.81Z</time></trkpt><trkpt lat="42.167665" lon="14.6129317"><ele>112.0</ele><time>2026-03-25T15:24:46.809Z</time></trkpt><trkpt lat="42.1676383" lon="14.6128483"><ele>112.0</ele><time>2026-03-25T15:24:50.809Z</time></trkpt><trkpt lat="42.16759" lon="14.612775"><ele>112.0</ele><time>2026-03-25T15:24:55.809Z</time></trkpt><trkpt lat="42.1675717" lon="14.6126833"><ele>112.0</ele><time>2026-03-25T15:25:00.809Z</time></trkpt><trkpt lat="42.16753" lon="14.6126167"><ele>112.0</ele><time>2026-03-25T15:25:10.81Z</time></trkpt><trkpt lat="42.167465" lon="14.61259"><ele>112.0</ele><time>2026-03-25T15:25:16.81Z</time></trkpt><trkpt lat="42.1674" lon="14.6125667"><ele>112.0</ele><time>2026-03-25T15:25:20.81Z</time></trkpt><trkpt lat="42.1673267" lon="14.6125583"><ele>112.0</ele><time>2026-03-25T15:25:24.81Z</time></trkpt><trkpt lat="42.167245" lon="14.6125367"><ele>112.0</ele><time>2026-03-25T15:25:28.81Z</time></trkpt><trkpt lat="42.1671733" lon="14.6125433"><ele>112.0</ele><time>2026-03-25T15:25:32.81Z</time></trkpt><trkpt lat="42.1671" lon="14.612545"><ele>112.0</ele><time>2026-03-25T15:25:36.81Z</time></trkpt><trkpt lat="42.1670333" lon="14.6125333"><ele>112.0</ele><time>2026-03-25T15:25:41.811Z</time></trkpt><trkpt lat="42.1669583" lon="14.6125367"><ele>112.66666666666667</ele><time>2026-03-25T15:25:45.81Z</time></trkpt><trkpt lat="42.1668667" lon="14.6125733"><ele>113.33333333333334</ele><time>2026-03-25T15:26:16.81Z</time></trkpt><trkpt lat="42.16684" lon="14.6126533"><ele>114.0</ele><time>2026-03-25T15:26:20.81Z</time></trkpt><trkpt lat="42.1668233" lon="14.6127583"><ele>114.66666666666666</ele><time>2026-03-25T15:26:24.81Z</time></trkpt><trkpt lat="42.1668233" lon="14.6128533"><ele>115.33333333333333</ele><time>2026-03-25T15:26:28.81Z</time></trkpt><trkpt lat="42.1668517" lon="14.612945"><ele>116.0</ele><time>2026-03-25T15:26:32.81Z</time></trkpt><trkpt lat="42.1668667" lon="14.61304"><ele>116.33333333333333</ele><time>2026-03-25T15:26:38.81Z</time></trkpt><trkpt lat="42.1669183" lon="14.6130933"><ele>116.66666666666666</ele><time>2026-03-25T15:26:42.81Z</time></trkpt><trkpt lat="42.16697" lon="14.6131833"><ele>117.0</ele><time>2026-03-25T15:26:47.81Z</time></trkpt><trkpt lat="42.167025" lon="14.61327"><ele>117.33333333333334</ele><time>2026-03-25T15:26:51.81Z</time></trkpt><trkpt lat="42.1670567" lon="14.61336"><ele>117.66666666666667</ele><time>2026-03-25T15:26:54.81Z</time></trkpt><trkpt lat="42.16708" lon="14.6134517"><ele>118.0</ele><time>2026-03-25T15:26:58.811Z</time></trkpt><trkpt lat="42.1671483" lon="14.6135217"><ele>118.0</ele><time>2026-03-25T15:27:23.81Z</time></trkpt><trkpt lat="42.1672217" lon="14.6135483"><ele>118.0</ele><time>2026-03-25T15:27:28.81Z</time></trkpt><trkpt lat="42.167295" lon="14.6135783"><ele>118.0</ele><time>2026-03-25T15:27:33.81Z</time></trkpt><trkpt lat="42.16736" lon="14.613585"><ele>118.0</ele><time>2026-03-25T15:27:40.81Z</time></trkpt><trkpt lat="42.1674333" lon="14.6135883"><ele>118.0</ele><time>2026-03-25T15:27:55.811Z</time></trkpt><trkpt lat="42.1674983" lon="14.6135633"><ele>118.0</ele><time>2026-03-25T15:27:58.81Z</time></trkpt><trkpt lat="42.1675633" lon="14.6135367"><ele>118.0</ele><time>2026-03-25T15:28:01.81Z</time></trkpt><trkpt lat="42.1676333" lon="14.6135217"><ele>117.57142857142857</ele><time>2026-03-25T15:28:04.81Z</time></trkpt><trkpt lat="42.16771" lon="14.613505"><ele>117.14285714285714</ele><time>2026-03-25T15:28:10.81Z</time></trkpt><trkpt lat="42.16778" lon="14.6134883"><ele>116.71428571428571</ele><time>2026-03-25T15:28:14.81Z</time></trkpt><trkpt lat="42.1678217" lon="14.6133983"><ele>116.28571428571428</ele><time>2026-03-25T15:28:19.81Z</time></trkpt><trkpt lat="42.167835" lon="14.6133017"><ele>115.85714285714286</ele><time>2026-03-25T15:28:22.81Z</time></trkpt><trkpt lat="42.1679017" lon="14.613275"><ele>115.42857142857142</ele><time>2026-03-25T15:28:26.81Z</time></trkpt><trkpt lat="42.1679217" lon="14.6133617"><ele>114.99999999999999</ele><time>2026-03-25T15:28:31.811Z</time></trkpt><trkpt lat="42.1679683" lon="14.6134667"><ele>114.99999999999999</ele><time>2026-03-25T15:28:34.81Z</time></trkpt><trkpt lat="42.16802" lon="14.6135267"><ele>115.0</ele><time>2026-03-25T15:28:36.81Z</time></trkpt><trkpt lat="42.1680767" lon="14.6135783"><ele>114.99999999999999</ele><time>2026-03-25T15:28:38.81Z</time></trkpt><trkpt lat="42.1681383" lon="14.6136317"><ele>114.99999999999999</ele><time>2026-03-25T15:28:40.81Z</time></trkpt><trkpt lat="42.1682033" lon="14.6136817"><ele>115.0</ele><time>2026-03-25T15:28:42.81Z</time></trkpt><trkpt lat="42.1682717" lon="14.6137317"><ele>114.99999999999999</ele><time>2026-03-25T15:28:44.81Z</time></trkpt><trkpt lat="42.1683417" lon="14.6137833"><ele>114.99999999999999</ele><time>2026-03-25T15:28:46.81Z</time></trkpt><trkpt lat="42.1683967" lon="14.613845"><ele>114.83333333333334</ele><time>2026-03-25T15:28:48.81Z</time></trkpt><trkpt lat="42.1684433" lon="14.6139317"><ele>114.66666666666667</ele><time>2026-03-25T15:28:51.81Z</time></trkpt><trkpt lat="42.1683883" lon="14.61399"><ele>114.5</ele><time>2026-03-25T15:28:57.811Z</time></trkpt><trkpt lat="42.1683033" lon="14.61399"><ele>114.33333333333334</ele><time>2026-03-25T15:29:00.81Z</time></trkpt><trkpt lat="42.168205" lon="14.6140083"><ele>114.16666666666667</ele><time>2026-03-25T15:29:03.811Z</time></trkpt><trkpt lat="42.1681233" lon="14.6140433"><ele>114.0</ele><time>2026-03-25T15:29:05.81Z</time></trkpt><trkpt lat="42.168045" lon="14.6140617"><ele>114.33333333333333</ele><time>2026-03-25T15:29:07.811Z</time></trkpt><trkpt lat="42.1679783" lon="14.614065"><ele>114.66666666666666</ele><time>2026-03-25T15:29:09.81Z</time></trkpt><trkpt lat="42.1679017" lon="14.61408"><ele>115.0</ele><time>2026-03-25T15:29:11.81Z</time></trkpt><trkpt lat="42.1678167" lon="14.6140933"><ele>115.33333333333333</ele><time>2026-03-25T15:29:13.811Z</time></trkpt><trkpt lat="42.1677167" lon="14.614115"><ele>115.66666666666666</ele><time>2026-03-25T15:29:15.81Z</time></trkpt><trkpt lat="42.16761" lon="14.6141267"><ele>116.0</ele><time>2026-03-25T15:29:17.81Z</time></trkpt><trkpt lat="42.1675067" lon="14.6141467"><ele>115.99999999999999</ele><time>2026-03-25T15:29:19.81Z</time></trkpt><trkpt lat="42.1674167" lon="14.6141583"><ele>116.0</ele><time>2026-03-25T15:29:21.811Z</time></trkpt><trkpt lat="42.16734" lon="14.6141317"><ele>116.0</ele><time>2026-03-25T15:29:23.811Z</time></trkpt><trkpt lat="42.1672983" lon="14.6140583"><ele>116.0</ele><time>2026-03-25T15:29:25.81Z</time></trkpt><trkpt lat="42.1672683" lon="14.6139533"><ele>115.99999999999999</ele><time>2026-03-25T15:29:27.81Z</time></trkpt><trkpt lat="42.167245" lon="14.613865"><ele>116.0</ele><time>2026-03-25T15:29:29.81Z</time></trkpt><trkpt lat="42.16721" lon="14.6137517"><ele>116.33333333333333</ele><time>2026-03-25T15:29:32.811Z</time></trkpt><trkpt lat="42.1671667" lon="14.613665"><ele>116.66666666666666</ele><time>2026-03-25T15:29:35.81Z</time></trkpt><trkpt lat="42.16712" lon="14.613595"><ele>117.0</ele><time>2026-03-25T15:29:37.811Z</time></trkpt><trkpt lat="42.1670667" lon="14.6135267"><ele>117.33333333333334</ele><time>2026-03-25T15:29:39.81Z</time></trkpt><trkpt lat="42.16701" lon="14.61346"><ele>117.66666666666667</ele><time>2026-03-25T15:29:41.81Z</time></trkpt><trkpt lat="42.1669633" lon="14.61336"><ele>118.0</ele><time>2026-03-25T15:29:43.81Z</time></trkpt><trkpt lat="42.16691" lon="14.6132767"><ele>118.00000000000001</ele><time>2026-03-25T15:29:45.811Z</time></trkpt><trkpt lat="42.16687" lon="14.6131783"><ele>118.0</ele><time>2026-03-25T15:29:47.811Z</time></trkpt><trkpt lat="42.1668433" lon="14.613075"><ele>118.0</ele><time>2026-03-25T15:29:49.81Z</time></trkpt><trkpt lat="42.1668233" lon="14.6129933"><ele>118.0</ele><time>2026-03-25T15:29:51.81Z</time></trkpt><trkpt lat="42.1668117" lon="14.612895"><ele>118.00000000000001</ele><time>2026-03-25T15:29:54.81Z</time></trkpt><trkpt lat="42.1668067" lon="14.6128067"><ele>118.0</ele><time>2026-03-25T15:29:56.81Z</time></trkpt><trkpt lat="42.1667967" lon="14.612685"><ele>117.71428571428571</ele><time>2026-03-25T15:29:59.811Z</time></trkpt><trkpt lat="42.1667917" lon="14.6125983"><ele>117.42857142857144</ele><time>2026-03-25T15:30:02.81Z</time></trkpt><trkpt lat="42.1668" lon="14.6124883"><ele>117.14285714285715</ele><time>2026-03-25T15:30:05.81Z</time></trkpt><trkpt lat="42.1667967" lon="14.6123817"><ele>116.85714285714286</ele><time>2026-03-25T15:30:08.81Z</time></trkpt><trkpt lat="42.1667917" lon="14.6122967"><ele>116.57142857142858</ele><time>2026-03-25T15:30:10.81Z</time></trkpt><trkpt lat="42.1667783" lon="14.6122067"><ele>116.2857142857143</ele><time>2026-03-25T15:30:12.81Z</time></trkpt><trkpt lat="42.1667533" lon="14.6121117"><ele>116.00000000000001</ele><time>2026-03-25T15:30:14.81Z</time></trkpt><trkpt lat="42.1667067" lon="14.61201"><ele>115.66666666666666</ele><time>2026-03-25T15:30:17.81Z</time></trkpt><trkpt lat="42.1666667" lon="14.6119183"><ele>115.33333333333333</ele><time>2026-03-25T15:30:20.81Z</time></trkpt><trkpt lat="42.1666233" lon="14.61182"><ele>115.0</ele><time>2026-03-25T15:30:23.811Z</time></trkpt><trkpt lat="42.1665733" lon="14.61171"><ele>114.66666666666666</ele><time>2026-03-25T15:30:26.81Z</time></trkpt><trkpt lat="42.16653" lon="14.6116267"><ele>114.33333333333333</ele><time>2026-03-25T15:30:28.81Z</time></trkpt><trkpt lat="42.1664833" lon="14.6115283"><ele>114.0</ele><time>2026-03-25T15:30:30.81Z</time></trkpt><trkpt lat="42.166415" lon="14.6114033"><ele>114.0</ele><time>2026-03-25T15:30:32.81Z</time></trkpt><trkpt lat="42.1663633" lon="14.6112883"><ele>114.0</ele><time>2026-03-25T15:30:34.811Z</time></trkpt><trkpt lat="42.1663017" lon="14.61117"><ele>114.0</ele><time>2026-03-25T15:30:36.81Z</time></trkpt><trkpt lat="42.166255" lon="14.6110533"><ele>114.0</ele><time>2026-03-25T15:30:38.81Z</time></trkpt><trkpt lat="42.1662217" lon="14.610925"><ele>114.0</ele><time>2026-03-25T15:30:40.811Z</time></trkpt><trkpt lat="42.1661833" lon="14.610805"><ele>112.4</ele><time>2026-03-25T15:30:42.81Z</time></trkpt><trkpt lat="42.1661483" lon="14.6106733"><ele>110.80000000000001</ele><time>2026-03-25T15:30:44.81Z</time></trkpt><trkpt lat="42.1661333" lon="14.6105283"><ele>109.19999999999999</ele><time>2026-03-25T15:30:46.81Z</time></trkpt><trkpt lat="42.166135" lon="14.61037"><ele>107.6</ele><time>2026-03-25T15:30:48.81Z</time></trkpt><trkpt lat="42.1661417" lon="14.6102467"><ele>106.0</ele><time>2026-03-25T15:30:50.81Z</time></trkpt><trkpt lat="42.16613" lon="14.6101317"><ele>104.19999999999999</ele><time>2026-03-25T15:30:52.811Z</time></trkpt><trkpt lat="42.1661133" lon="14.61"><ele>102.39999999999999</ele><time>2026-03-25T15:30:54.81Z</time></trkpt><trkpt lat="42.1660983" lon="14.6098617"><ele>100.6</ele><time>2026-03-25T15:30:56.81Z</time></trkpt><trkpt lat="42.1660783" lon="14.6097183"><ele>98.8</ele><time>2026-03-25T15:30:58.81Z</time></trkpt><trkpt lat="42.1660533" lon="14.6095767"><ele>97.0</ele><time>2026-03-25T15:31:00.81Z</time></trkpt><trkpt lat="42.1660267" lon="14.6094283"><ele>95.0</ele><time>2026-03-25T15:31:02.81Z</time></trkpt><trkpt lat="42.1659867" lon="14.6092683"><ele>93.0</ele><time>2026-03-25T15:31:04.811Z</time></trkpt><trkpt lat="42.1659483" lon="14.6091883"><ele>91.0</ele><time>2026-03-25T15:31:05.81Z</time></trkpt><trkpt lat="42.1659133" lon="14.6091117"><ele>89.0</ele><time>2026-03-25T15:31:06.81Z</time></trkpt><trkpt lat="42.16585" lon="14.6089783"><ele>87.0</ele><time>2026-03-25T15:31:08.81Z</time></trkpt><trkpt lat="42.16579" lon="14.608865"><ele>87.0</ele><time>2026-03-25T15:31:10.81Z</time></trkpt><trkpt lat="42.165745" lon="14.6087683"><ele>87.0</ele><time>2026-03-25T15:31:12.81Z</time></trkpt><trkpt lat="42.1657083" lon="14.608685"><ele>87.0</ele><time>2026-03-25T15:31:14.81Z</time></trkpt><trkpt lat="42.1656733" lon="14.608605"><ele>87.0</ele><time>2026-03-25T15:31:16.81Z</time></trkpt><trkpt lat="42.16564" lon="14.6085183"><ele>87.0</ele><time>2026-03-25T15:31:18.81Z</time></trkpt><trkpt lat="42.1656067" lon="14.6084417"><ele>87.0</ele><time>2026-03-25T15:31:20.81Z</time></trkpt><trkpt lat="42.1655717" lon="14.6083617"><ele>87.0</ele><time>2026-03-25T15:31:22.81Z</time></trkpt><trkpt lat="42.1655417" lon="14.6082417"><ele>87.0</ele><time>2026-03-25T15:31:25.81Z</time></trkpt><trkpt lat="42.1655233" lon="14.6081417"><ele>87.0</ele><time>2026-03-25T15:31:28.81Z</time></trkpt><trkpt lat="42.16551" lon="14.6080567"><ele>87.0</ele><time>2026-03-25T15:31:31.81Z</time></trkpt><trkpt lat="42.1655017" lon="14.60795"><ele>87.0</ele><time>2026-03-25T15:31:34.81Z</time></trkpt><trkpt lat="42.1654867" lon="14.6078417"><ele>87.0</ele><time>2026-03-25T15:31:37.81Z</time></trkpt><trkpt lat="42.1654233" lon="14.60777"><ele>87.0</ele><time>2026-03-25T15:31:40.811Z</time></trkpt><trkpt lat="42.1653683" lon="14.6077267"><ele>87.0</ele><time>2026-03-25T15:31:43.81Z</time></trkpt><trkpt lat="42.1653117" lon="14.6076767"><ele>87.83333333333333</ele><time>2026-03-25T15:31:46.81Z</time></trkpt><trkpt lat="42.1652517" lon="14.6076283"><ele>88.66666666666667</ele><time>2026-03-25T15:31:49.81Z</time></trkpt><trkpt lat="42.1651817" lon="14.6075867"><ele>89.5</ele><time>2026-03-25T15:31:52.81Z</time></trkpt><trkpt lat="42.1651" lon="14.6075433"><ele>90.33333333333334</ele><time>2026-03-25T15:31:55.81Z</time></trkpt><trkpt lat="42.1650217" lon="14.6075033"><ele>91.16666666666667</ele><time>2026-03-25T15:31:58.81Z</time></trkpt><trkpt lat="42.1649417" lon="14.6074633"><ele>92.0</ele><time>2026-03-25T15:32:01.81Z</time></trkpt><trkpt lat="42.1648633" lon="14.6074183"><ele>94.0</ele><time>2026-03-25T15:32:04.81Z</time></trkpt><trkpt lat="42.1647883" lon="14.6073733"><ele>96.0</ele><time>2026-03-25T15:32:07.81Z</time></trkpt><trkpt lat="42.164705" lon="14.6073417"><ele>98.0</ele><time>2026-03-25T15:32:10.81Z</time></trkpt><trkpt lat="42.1646433" lon="14.6073217"><ele>100.0</ele><time>2026-03-25T15:32:12.81Z</time></trkpt><trkpt lat="42.1645817" lon="14.6073017"><ele>101.99999999999999</ele><time>2026-03-25T15:32:14.81Z</time></trkpt><trkpt lat="42.1645017" lon="14.6072717"><ele>104.0</ele><time>2026-03-25T15:32:17.81Z</time></trkpt><trkpt lat="42.16443" lon="14.6072417"><ele>104.0</ele><time>2026-03-25T15:32:20.81Z</time></trkpt><trkpt lat="42.1643617" lon="14.60721"><ele>104.0</ele><time>2026-03-25T15:32:23.81Z</time></trkpt><trkpt lat="42.1643" lon="14.60718"><ele>104.0</ele><time>2026-03-25T15:32:26.81Z</time></trkpt><trkpt lat="42.164235" lon="14.6071617"><ele>104.0</ele><time>2026-03-25T15:32:29.81Z</time></trkpt><trkpt lat="42.1641633" lon="14.6071433"><ele>104.0</ele><time>2026-03-25T15:32:32.81Z</time></trkpt><trkpt lat="42.16409" lon="14.60712"><ele>104.0</ele><time>2026-03-25T15:32:37.811Z</time></trkpt><trkpt lat="42.16402" lon="14.607095"><ele>104.0</ele><time>2026-03-25T15:32:42.81Z</time></trkpt><trkpt lat="42.1639417" lon="14.6070717"><ele>105.99999999999999</ele><time>2026-03-25T15:32:46.811Z</time></trkpt><trkpt lat="42.1638533" lon="14.6070417"><ele>108.0</ele><time>2026-03-25T15:32:51.81Z</time></trkpt><trkpt lat="42.1637967" lon="14.6069983"><ele>110.0</ele><time>2026-03-25T15:32:54.811Z</time></trkpt><trkpt lat="42.1637383" lon="14.606935"><ele>112.0</ele><time>2026-03-25T15:32:57.81Z</time></trkpt><trkpt lat="42.1636783" lon="14.606875"><ele>113.99999999999999</ele><time>2026-03-25T15:33:00.81Z</time></trkpt><trkpt lat="42.16363" lon="14.606805"><ele>116.0</ele><time>2026-03-25T15:33:03.81Z</time></trkpt><trkpt lat="42.1635533" lon="14.60675"><ele>117.00000000000001</ele><time>2026-03-25T15:33:06.81Z</time></trkpt><trkpt lat="42.1634967" lon="14.6066967"><ele>118.0</ele><time>2026-03-25T15:33:08.81Z</time></trkpt><trkpt lat="42.1634333" lon="14.6066417"><ele>119.00000000000001</ele><time>2026-03-25T15:33:10.81Z</time></trkpt><trkpt lat="42.1633667" lon="14.6065833"><ele>120.00000000000001</ele><time>2026-03-25T15:33:12.81Z</time></trkpt><trkpt lat="42.163305" lon="14.6065267"><ele>121.0</ele><time>2026-03-25T15:33:14.81Z</time></trkpt><trkpt lat="42.163245" lon="14.6064717"><ele>122.00000000000001</ele><time>2026-03-25T15:33:16.81Z</time></trkpt><trkpt lat="42.1631817" lon="14.6064183"><ele>123.00000000000001</ele><time>2026-03-25T15:33:18.81Z</time></trkpt><trkpt lat="42.1631217" lon="14.606375"><ele>123.42857142857144</ele><time>2026-03-25T15:33:20.81Z</time></trkpt><trkpt lat="42.1630667" lon="14.6063233"><ele>123.85714285714286</ele><time>2026-03-25T15:33:22.81Z</time></trkpt><trkpt lat="42.1630083" lon="14.60627"><ele>124.28571428571429</ele><time>2026-03-25T15:33:24.81Z</time></trkpt><trkpt lat="42.1629533" lon="14.6062117"><ele>124.71428571428572</ele><time>2026-03-25T15:33:26.81Z</time></trkpt><trkpt lat="42.162895" lon="14.6061433"><ele>125.14285714285714</ele><time>2026-03-25T15:33:28.81Z</time></trkpt><trkpt lat="42.1628483" lon="14.6060817"><ele>125.57142857142857</ele><time>2026-03-25T15:33:30.81Z</time></trkpt><trkpt lat="42.1627967" lon="14.6060183"><ele>126.0</ele><time>2026-03-25T15:33:32.81Z</time></trkpt><trkpt lat="42.1627467" lon="14.6059533"><ele>126.0</ele><time>2026-03-25T15:33:34.811Z</time></trkpt><trkpt lat="42.1626917" lon="14.6058717"><ele>126.0</ele><time>2026-03-25T15:33:40.81Z</time></trkpt><trkpt lat="42.1626417" lon="14.605795"><ele>126.0</ele><time>2026-03-25T15:33:43.81Z</time></trkpt><trkpt lat="42.1625783" lon="14.60573"><ele>126.0</ele><time>2026-03-25T15:33:47.81Z</time></trkpt><trkpt lat="42.1625083" lon="14.6056467"><ele>126.0</ele><time>2026-03-25T15:33:50.81Z</time></trkpt><trkpt lat="42.16245" lon="14.6055933"><ele>126.0</ele><time>2026-03-25T15:33:52.81Z</time></trkpt><trkpt lat="42.1623933" lon="14.6055217"><ele>126.33333333333333</ele><time>2026-03-25T15:33:55.811Z</time></trkpt><trkpt lat="42.1623367" lon="14.6054517"><ele>126.66666666666666</ele><time>2026-03-25T15:33:57.81Z</time></trkpt><trkpt lat="42.1622733" lon="14.6053817"><ele>127.0</ele><time>2026-03-25T15:33:59.81Z</time></trkpt><trkpt lat="42.1622083" lon="14.605315"><ele>127.33333333333333</ele><time>2026-03-25T15:34:01.811Z</time></trkpt><trkpt lat="42.1621367" lon="14.605255"><ele>127.66666666666666</ele><time>2026-03-25T15:34:03.811Z</time></trkpt><trkpt lat="42.1620733" lon="14.6052"><ele>128.0</ele><time>2026-03-25T15:34:05.81Z</time></trkpt><trkpt lat="42.1620033" lon="14.6051467"><ele>127.99999999999999</ele><time>2026-03-25T15:34:07.81Z</time></trkpt><trkpt lat="42.16194" lon="14.6050967"><ele>128.0</ele><time>2026-03-25T15:34:09.811Z</time></trkpt><trkpt lat="42.1618633" lon="14.605045"><ele>128.0</ele><time>2026-03-25T15:34:11.81Z</time></trkpt><trkpt lat="42.1617967" lon="14.6049967"><ele>128.0</ele><time>2026-03-25T15:34:13.81Z</time></trkpt><trkpt lat="42.161725" lon="14.6049633"><ele>127.99999999999999</ele><time>2026-03-25T15:34:15.81Z</time></trkpt><trkpt lat="42.1616517" lon="14.6049383"><ele>128.0</ele><time>2026-03-25T15:34:17.81Z</time></trkpt><trkpt lat="42.161585" lon="14.6049267"><ele>128.5</ele><time>2026-03-25T15:34:19.811Z</time></trkpt><trkpt lat="42.16152" lon="14.60491"><ele>129.0</ele><time>2026-03-25T15:34:21.81Z</time></trkpt><trkpt lat="42.161455" lon="14.6048583"><ele>129.5</ele><time>2026-03-25T15:34:23.81Z</time></trkpt><trkpt lat="42.1613767" lon="14.6047933"><ele>130.0</ele><time>2026-03-25T15:34:25.81Z</time></trkpt><trkpt lat="42.1612967" lon="14.6047383"><ele>130.5</ele><time>2026-03-25T15:34:27.81Z</time></trkpt><trkpt lat="42.16121" lon="14.6046633"><ele>131.0</ele><time>2026-03-25T15:34:29.81Z</time></trkpt><trkpt lat="42.1611217" lon="14.604575"><ele>131.0</ele><time>2026-03-25T15:34:31.81Z</time></trkpt><trkpt lat="42.161025" lon="14.6044983"><ele>131.0</ele><time>2026-03-25T15:34:33.81Z</time></trkpt><trkpt lat="42.1609267" lon="14.6044333"><ele>131.0</ele><time>2026-03-25T15:34:35.81Z</time></trkpt><trkpt lat="42.16084" lon="14.60438"><ele>131.0</ele><time>2026-03-25T15:34:37.81Z</time></trkpt><trkpt lat="42.16077" lon="14.6043317"><ele>131.0</ele><time>2026-03-25T15:34:39.811Z</time></trkpt><trkpt lat="42.1606983" lon="14.6042867"><ele>131.6</ele><time>2026-03-25T15:34:41.81Z</time></trkpt><trkpt lat="42.16062" lon="14.6042317"><ele>132.2</ele><time>2026-03-25T15:34:43.811Z</time></trkpt><trkpt lat="42.1605617" lon="14.6041467"><ele>132.8</ele><time>2026-03-25T15:34:45.81Z</time></trkpt><trkpt lat="42.1605617" lon="14.6040167"><ele>133.4</ele><time>2026-03-25T15:34:47.811Z</time></trkpt><trkpt lat="42.1606117" lon="14.6039"><ele>134.0</ele><time>2026-03-25T15:34:49.81Z</time></trkpt><trkpt lat="42.1606617" lon="14.6037783"><ele>133.6</ele><time>2026-03-25T15:34:51.811Z</time></trkpt><trkpt lat="42.1607067" lon="14.603655"><ele>133.2</ele><time>2026-03-25T15:34:53.811Z</time></trkpt><trkpt lat="42.1607433" lon="14.6035367"><ele>132.79999999999998</ele><time>2026-03-25T15:34:55.81Z</time></trkpt><trkpt lat="42.1607967" lon="14.6034267"><ele>132.4</ele><time>2026-03-25T15:34:57.811Z</time></trkpt><trkpt lat="42.160855" lon="14.6033233"><ele>132.0</ele><time>2026-03-25T15:34:59.81Z</time></trkpt><trkpt lat="42.1609017" lon="14.603205"><ele>132.0</ele><time>2026-03-25T15:35:01.81Z</time></trkpt><trkpt lat="42.1609267" lon="14.6030867"><ele>132.0</ele><time>2026-03-25T15:35:03.811Z</time></trkpt><trkpt lat="42.1609033" lon="14.6029683"><ele>132.0</ele><time>2026-03-25T15:35:05.81Z</time></trkpt><trkpt lat="42.160855" lon="14.602865"><ele>132.0</ele><time>2026-03-25T15:35:07.811Z</time></trkpt><trkpt lat="42.16078" lon="14.6027833"><ele>132.0</ele><time>2026-03-25T15:35:09.81Z</time></trkpt><trkpt lat="42.1606983" lon="14.6027033"><ele>132.16666666666666</ele><time>2026-03-25T15:35:11.81Z</time></trkpt><trkpt lat="42.1606183" lon="14.602645"><ele>132.33333333333334</ele><time>2026-03-25T15:35:13.81Z</time></trkpt><trkpt lat="42.1605433" lon="14.6025883"><ele>132.5</ele><time>2026-03-25T15:35:15.81Z</time></trkpt><trkpt lat="42.1604683" lon="14.6025417"><ele>132.66666666666669</ele><time>2026-03-25T15:35:17.81Z</time></trkpt><trkpt lat="42.1603867" lon="14.6025"><ele>132.83333333333334</ele><time>2026-03-25T15:35:19.811Z</time></trkpt><trkpt lat="42.1603067" lon="14.602475"><ele>133.0</ele><time>2026-03-25T15:35:21.81Z</time></trkpt><trkpt lat="42.1602367" lon="14.6024667"><ele>133.0</ele><time>2026-03-25T15:35:23.81Z</time></trkpt><trkpt lat="42.1601483" lon="14.6024583"><ele>133.0</ele><time>2026-03-25T15:35:26.81Z</time></trkpt><trkpt lat="42.16008" lon="14.6024183"><ele>133.0</ele><time>2026-03-25T15:35:28.81Z</time></trkpt><trkpt lat="42.1600017" lon="14.6023817"><ele>133.0</ele><time>2026-03-25T15:35:30.81Z</time></trkpt><trkpt lat="42.1599133" lon="14.60234"><ele>133.0</ele><time>2026-03-25T15:35:32.81Z</time></trkpt><trkpt lat="42.15983" lon="14.6022867"><ele>133.0</ele><time>2026-03-25T15:35:34.81Z</time></trkpt><trkpt lat="42.15974" lon="14.6022283"><ele>133.16666666666669</ele><time>2026-03-25T15:35:36.811Z</time></trkpt><trkpt lat="42.1596417" lon="14.6021733"><ele>133.33333333333334</ele><time>2026-03-25T15:35:38.81Z</time></trkpt><trkpt lat="42.159555" lon="14.6021267"><ele>133.5</ele><time>2026-03-25T15:35:40.81Z</time></trkpt><trkpt lat="42.1594883" lon="14.6020817"><ele>133.66666666666666</ele><time>2026-03-25T15:35:42.81Z</time></trkpt><trkpt lat="42.1594217" lon="14.6020433"><ele>133.83333333333331</ele><time>2026-03-25T15:35:44.81Z</time></trkpt><trkpt lat="42.159335" lon="14.60201"><ele>134.0</ele><time>2026-03-25T15:35:46.81Z</time></trkpt><trkpt lat="42.1592567" lon="14.6019617"><ele>134.0</ele><time>2026-03-25T15:35:48.81Z</time></trkpt><trkpt lat="42.159175" lon="14.6018733"><ele>134.0</ele><time>2026-03-25T15:35:50.81Z</time></trkpt><trkpt lat="42.1590883" lon="14.60176"><ele>134.0</ele><time>2026-03-25T15:35:52.81Z</time></trkpt><trkpt lat="42.1590217" lon="14.60166"><ele>134.0</ele><time>2026-03-25T15:35:54.81Z</time></trkpt><trkpt lat="42.15897" lon="14.6015633"><ele>134.0</ele><time>2026-03-25T15:35:57.811Z</time></trkpt><trkpt lat="42.1589283" lon="14.6014817"><ele>134.66666666666666</ele><time>2026-03-25T15:36:00.81Z</time></trkpt><trkpt lat="42.15889" lon="14.601365"><ele>135.33333333333331</ele><time>2026-03-25T15:36:03.81Z</time></trkpt><trkpt lat="42.1588933" lon="14.60128"><ele>136.0</ele><time>2026-03-25T15:36:05.811Z</time></trkpt><trkpt lat="42.158895" lon="14.6011833"><ele>136.66666666666666</ele><time>2026-03-25T15:36:07.81Z</time></trkpt><trkpt lat="42.1588833" lon="14.6010717"><ele>137.33333333333334</ele><time>2026-03-25T15:36:09.81Z</time></trkpt><trkpt lat="42.1588467" lon="14.6009667"><ele>138.0</ele><time>2026-03-25T15:36:11.81Z</time></trkpt><trkpt lat="42.1588017" lon="14.600885"><ele>138.16666666666666</ele><time>2026-03-25T15:36:13.81Z</time></trkpt><trkpt lat="42.1587517" lon="14.60083"><ele>138.33333333333334</ele><time>2026-03-25T15:36:15.81Z</time></trkpt><trkpt lat="42.158695" lon="14.6007833"><ele>138.5</ele><time>2026-03-25T15:36:17.81Z</time></trkpt><trkpt lat="42.1586267" lon="14.60073"><ele>138.66666666666669</ele><time>2026-03-25T15:36:19.81Z</time></trkpt><trkpt lat="42.1585633" lon="14.60067"><ele>138.83333333333334</ele><time>2026-03-25T15:36:21.811Z</time></trkpt><trkpt lat="42.1584983" lon="14.6005917"><ele>139.0</ele><time>2026-03-25T15:36:23.81Z</time></trkpt><trkpt lat="42.1584317" lon="14.6005083"><ele>139.0</ele><time>2026-03-25T15:36:25.81Z</time></trkpt><trkpt lat="42.1583617" lon="14.6004217"><ele>139.0</ele><time>2026-03-25T15:36:27.81Z</time></trkpt><trkpt lat="42.1582983" lon="14.6003417"><ele>139.0</ele><time>2026-03-25T15:36:29.81Z</time></trkpt><trkpt lat="42.1582317" lon="14.6002583"><ele>139.0</ele><time>2026-03-25T15:36:31.811Z</time></trkpt><trkpt lat="42.1581517" lon="14.6001767"><ele>139.0</ele><time>2026-03-25T15:36:33.81Z</time></trkpt><trkpt lat="42.1580467" lon="14.6001217"><ele>139.33333333333334</ele><time>2026-03-25T15:36:35.811Z</time></trkpt><trkpt lat="42.1579633" lon="14.60012"><ele>139.66666666666669</ele><time>2026-03-25T15:36:37.81Z</time></trkpt><trkpt lat="42.1578633" lon="14.60015"><ele>140.0</ele><time>2026-03-25T15:36:39.81Z</time></trkpt><trkpt lat="42.1578" lon="14.600165"><ele>140.33333333333334</ele><time>2026-03-25T15:36:40.81Z</time></trkpt><trkpt lat="42.1576983" lon="14.600155"><ele>140.66666666666666</ele><time>2026-03-25T15:36:42.81Z</time></trkpt><trkpt lat="42.1576083" lon="14.6001133"><ele>141.0</ele><time>2026-03-25T15:36:44.811Z</time></trkpt><trkpt lat="42.15753" lon="14.6000417"><ele>141.0</ele><time>2026-03-25T15:36:46.81Z</time></trkpt><trkpt lat="42.15744" lon="14.5999483"><ele>141.0</ele><time>2026-03-25T15:36:48.81Z</time></trkpt><trkpt lat="42.1573667" lon="14.59986"><ele>141.0</ele><time>2026-03-25T15:36:50.81Z</time></trkpt><trkpt lat="42.1573117" lon="14.5997817"><ele>141.0</ele><time>2026-03-25T15:36:52.81Z</time></trkpt><trkpt lat="42.1572483" lon="14.59968"><ele>141.0</ele><time>2026-03-25T15:36:54.81Z</time></trkpt><trkpt lat="42.1571767" lon="14.5995933"><ele>141.6</ele><time>2026-03-25T15:36:56.81Z</time></trkpt><trkpt lat="42.157095" lon="14.5995"><ele>142.2</ele><time>2026-03-25T15:36:58.81Z</time></trkpt><trkpt lat="42.1570083" lon="14.59942"><ele>142.8</ele><time>2026-03-25T15:37:00.81Z</time></trkpt><trkpt lat="42.156915" lon="14.59935"><ele>143.4</ele><time>2026-03-25T15:37:02.81Z</time></trkpt><trkpt lat="42.156835" lon="14.59928"><ele>144.0</ele><time>2026-03-25T15:37:04.811Z</time></trkpt><trkpt lat="42.1567683" lon="14.5992"><ele>144.0</ele><time>2026-03-25T15:37:06.81Z</time></trkpt><trkpt lat="42.156705" lon="14.5991017"><ele>144.0</ele><time>2026-03-25T15:37:08.81Z</time></trkpt><trkpt lat="42.15663" lon="14.5990067"><ele>144.0</ele><time>2026-03-25T15:37:10.81Z</time></trkpt><trkpt lat="42.1565733" lon="14.5989183"><ele>144.0</ele><time>2026-03-25T15:37:12.81Z</time></trkpt><trkpt lat="42.1565067" lon="14.59881"><ele>144.0</ele><time>2026-03-25T15:37:14.81Z</time></trkpt><trkpt lat="42.15644" lon="14.5987067"><ele>144.66666666666666</ele><time>2026-03-25T15:37:16.81Z</time></trkpt><trkpt lat="42.1563883" lon="14.5986067"><ele>145.33333333333334</ele><time>2026-03-25T15:37:18.811Z</time></trkpt><trkpt lat="42.1563367" lon="14.598515"><ele>146.0</ele><time>2026-03-25T15:37:20.81Z</time></trkpt><trkpt lat="42.15628" lon="14.5984317"><ele>146.66666666666669</ele><time>2026-03-25T15:37:22.81Z</time></trkpt><trkpt lat="42.1562217" lon="14.5983517"><ele>147.33333333333334</ele><time>2026-03-25T15:37:24.811Z</time></trkpt><trkpt lat="42.1561717" lon="14.5982767"><ele>148.0</ele><time>2026-03-25T15:37:26.81Z</time></trkpt><trkpt lat="42.1561267" lon="14.5982"><ele>148.0</ele><time>2026-03-25T15:37:28.81Z</time></trkpt><trkpt lat="42.1560767" lon="14.598115"><ele>148.0</ele><time>2026-03-25T15:37:30.81Z</time></trkpt><trkpt lat="42.1560283" lon="14.598055"><ele>148.0</ele><time>2026-03-25T15:37:32.81Z</time></trkpt><trkpt lat="42.15598" lon="14.5979867"><ele>148.0</ele><time>2026-03-25T15:37:34.81Z</time></trkpt><trkpt lat="42.1559117" lon="14.5979"><ele>148.0</ele><time>2026-03-25T15:37:36.811Z</time></trkpt><trkpt lat="42.1558417" lon="14.5978183"><ele>148.0</ele><time>2026-03-25T15:37:38.81Z</time></trkpt><trkpt lat="42.1557733" lon="14.5977367"><ele>148.0</ele><time>2026-03-25T15:37:40.81Z</time></trkpt><trkpt lat="42.1557033" lon="14.5976633"><ele>148.0</ele><time>2026-03-25T15:37:42.81Z</time></trkpt><trkpt lat="42.155625" lon="14.597585"><ele>148.0</ele><time>2026-03-25T15:37:44.81Z</time></trkpt><trkpt lat="42.1555467" lon="14.5975083"><ele>148.0</ele><time>2026-03-25T15:37:46.811Z</time></trkpt><trkpt lat="42.1554833" lon="14.5974317"><ele>148.0</ele><time>2026-03-25T15:37:48.811Z</time></trkpt><trkpt lat="42.1554317" lon="14.59738"><ele>148.0</ele><time>2026-03-25T15:37:50.811Z</time></trkpt><trkpt lat="42.1553683" lon="14.5973117"><ele>148.0</ele><time>2026-03-25T15:37:53.812Z</time></trkpt><trkpt lat="42.1552933" lon="14.597255"><ele>148.0</ele><time>2026-03-25T15:37:55.811Z</time></trkpt><trkpt lat="42.1552183" lon="14.5971733"><ele>148.0</ele><time>2026-03-25T15:37:57.811Z</time></trkpt><trkpt lat="42.1551417" lon="14.59705"><ele>148.0</ele><time>2026-03-25T15:37:59.811Z</time></trkpt><trkpt lat="42.1551067" lon="14.5969733"><ele>148.0</ele><time>2026-03-25T15:38:00.811Z</time></trkpt><trkpt lat="42.1550717" lon="14.5969"><ele>148.0</ele><time>2026-03-25T15:38:01.811Z</time></trkpt><trkpt lat="42.1550233" lon="14.5967367"><ele>148.20000000000002</ele><time>2026-03-25T15:38:03.811Z</time></trkpt><trkpt lat="42.1550133" lon="14.5966483"><ele>148.4</ele><time>2026-03-25T15:38:04.811Z</time></trkpt><trkpt lat="42.1550367" lon="14.59649"><ele>148.60000000000002</ele><time>2026-03-25T15:38:06.811Z</time></trkpt><trkpt lat="42.1550683" lon="14.5963533"><ele>148.8</ele><time>2026-03-25T15:38:08.812Z</time></trkpt><trkpt lat="42.155095" lon="14.5962283"><ele>149.0</ele><time>2026-03-25T15:38:10.811Z</time></trkpt><trkpt lat="42.155125" lon="14.5961083"><ele>149.0</ele><time>2026-03-25T15:38:12.811Z</time></trkpt><trkpt lat="42.1551683" lon="14.596"><ele>149.0</ele><time>2026-03-25T15:38:14.811Z</time></trkpt><trkpt lat="42.155205" lon="14.595875"><ele>149.0</ele><time>2026-03-25T15:38:16.811Z</time></trkpt><trkpt lat="42.15524" lon="14.5957467"><ele>149.0</ele><time>2026-03-25T15:38:18.811Z</time></trkpt><trkpt lat="42.1552533" lon="14.5956"><ele>149.0</ele><time>2026-03-25T15:38:20.811Z</time></trkpt><trkpt lat="42.15525" lon="14.595445"><ele>149.6</ele><time>2026-03-25T15:38:22.811Z</time></trkpt><trkpt lat="42.1552233" lon="14.5952967"><ele>150.2</ele><time>2026-03-25T15:38:24.811Z</time></trkpt><trkpt lat="42.1551817" lon="14.5951483"><ele>150.79999999999998</ele><time>2026-03-25T15:38:26.811Z</time></trkpt><trkpt lat="42.1551417" lon="14.5950117"><ele>151.4</ele><time>2026-03-25T15:38:28.811Z</time></trkpt><trkpt lat="42.1551083" lon="14.5949033"><ele>152.0</ele><time>2026-03-25T15:38:30.811Z</time></trkpt><trkpt lat="42.1550733" lon="14.5948083"><ele>152.0</ele><time>2026-03-25T15:38:32.811Z</time></trkpt><trkpt lat="42.155025" lon="14.59471"><ele>152.0</ele><time>2026-03-25T15:38:34.811Z</time></trkpt><trkpt lat="42.1549667" lon="14.594605"><ele>152.0</ele><time>2026-03-25T15:38:36.812Z</time></trkpt><trkpt lat="42.154895" lon="14.5944817"><ele>152.0</ele><time>2026-03-25T15:38:38.811Z</time></trkpt><trkpt lat="42.1548183" lon="14.5943633"><ele>152.0</ele><time>2026-03-25T15:38:40.811Z</time></trkpt><trkpt lat="42.1547517" lon="14.594245"><ele>153.0</ele><time>2026-03-25T15:38:42.811Z</time></trkpt><trkpt lat="42.15468" lon="14.5941267"><ele>154.0</ele><time>2026-03-25T15:38:44.811Z</time></trkpt><trkpt lat="42.15462" lon="14.5940067"><ele>155.0</ele><time>2026-03-25T15:38:46.811Z</time></trkpt><trkpt lat="42.1545717" lon="14.593875"><ele>156.0</ele><time>2026-03-25T15:38:48.811Z</time></trkpt><trkpt lat="42.1545267" lon="14.5937517"><ele>157.0</ele><time>2026-03-25T15:38:50.811Z</time></trkpt><trkpt lat="42.1544933" lon="14.59361"><ele>157.2</ele><time>2026-03-25T15:38:52.811Z</time></trkpt><trkpt lat="42.1544667" lon="14.5934867"><ele>157.39999999999998</ele><time>2026-03-25T15:38:54.812Z</time></trkpt><trkpt lat="42.15444" lon="14.5933583"><ele>157.60000000000002</ele><time>2026-03-25T15:38:56.811Z</time></trkpt><trkpt lat="42.1544183" lon="14.59322"><ele>157.8</ele><time>2026-03-25T15:38:58.811Z</time></trkpt><trkpt lat="42.15439" lon="14.5930767"><ele>158.0</ele><time>2026-03-25T15:39:00.811Z</time></trkpt><trkpt lat="42.1543617" lon="14.5929333"><ele>158.4</ele><time>2026-03-25T15:39:02.812Z</time></trkpt><trkpt lat="42.154335" lon="14.5928033"><ele>158.8</ele><time>2026-03-25T15:39:04.811Z</time></trkpt><trkpt lat="42.154315" lon="14.5926817"><ele>159.2</ele><time>2026-03-25T15:39:06.811Z</time></trkpt><trkpt lat="42.1542883" lon="14.592555"><ele>159.6</ele><time>2026-03-25T15:39:08.812Z</time></trkpt><trkpt lat="42.15426" lon="14.5924283"><ele>160.0</ele><time>2026-03-25T15:39:10.811Z</time></trkpt><trkpt lat="42.1542283" lon="14.5923033"><ele>160.0</ele><time>2026-03-25T15:39:12.811Z</time></trkpt><trkpt lat="42.154195" lon="14.5921767"><ele>160.0</ele><time>2026-03-25T15:39:14.811Z</time></trkpt><trkpt lat="42.154155" lon="14.59204"><ele>160.0</ele><time>2026-03-25T15:39:16.811Z</time></trkpt><trkpt lat="42.154105" lon="14.591915"><ele>160.0</ele><time>2026-03-25T15:39:18.812Z</time></trkpt><trkpt lat="42.1540533" lon="14.591785"><ele>160.0</ele><time>2026-03-25T15:39:20.811Z</time></trkpt><trkpt lat="42.1540017" lon="14.591655"><ele>160.8</ele><time>2026-03-25T15:39:22.812Z</time></trkpt><trkpt lat="42.1539467" lon="14.5915283"><ele>161.6</ele><time>2026-03-25T15:39:24.811Z</time></trkpt><trkpt lat="42.1538967" lon="14.5914033"><ele>162.39999999999998</ele><time>2026-03-25T15:39:26.811Z</time></trkpt><trkpt lat="42.15385" lon="14.5912683"><ele>163.2</ele><time>2026-03-25T15:39:28.811Z</time></trkpt><trkpt lat="42.15381" lon="14.591145"><ele>164.0</ele><time>2026-03-25T15:39:30.811Z</time></trkpt><trkpt lat="42.153775" lon="14.5910317"><ele>164.0</ele><time>2026-03-25T15:39:32.811Z</time></trkpt><trkpt lat="42.1537367" lon="14.5909167"><ele>164.0</ele><time>2026-03-25T15:39:34.811Z</time></trkpt><trkpt lat="42.1536917" lon="14.5907933"><ele>164.0</ele><time>2026-03-25T15:39:36.811Z</time></trkpt><trkpt lat="42.1536433" lon="14.590675"><ele>164.0</ele><time>2026-03-25T15:39:38.811Z</time></trkpt><trkpt lat="42.153595" lon="14.5905567"><ele>164.0</ele><time>2026-03-25T15:39:40.811Z</time></trkpt><trkpt lat="42.153545" lon="14.590445"><ele>164.0</ele><time>2026-03-25T15:39:42.811Z</time></trkpt><trkpt lat="42.1535083" lon="14.5903583"><ele>164.0</ele><time>2026-03-25T15:39:44.812Z</time></trkpt><trkpt lat="42.1534617" lon="14.5902583"><ele>164.0</ele><time>2026-03-25T15:39:47.811Z</time></trkpt><trkpt lat="42.1534567" lon="14.5901683"><ele>164.0</ele><time>2026-03-25T15:39:52.811Z</time></trkpt><trkpt lat="42.1534233" lon="14.59008"><ele>164.0</ele><time>2026-03-25T15:39:57.811Z</time></trkpt><trkpt lat="42.15334" lon="14.5900083"><ele>164.0</ele><time>2026-03-25T15:40:00.811Z</time></trkpt><trkpt lat="42.1532933" lon="14.5899183"><ele>164.5</ele><time>2026-03-25T15:40:02.811Z</time></trkpt><trkpt lat="42.1532433" lon="14.589825"><ele>165.0</ele><time>2026-03-25T15:40:04.811Z</time></trkpt><trkpt lat="42.153205" lon="14.5897167"><ele>165.5</ele><time>2026-03-25T15:40:06.811Z</time></trkpt><trkpt lat="42.1531683" lon="14.5896067"><ele>166.0</ele><time>2026-03-25T15:40:08.811Z</time></trkpt><trkpt lat="42.1531367" lon="14.58951"><ele>166.5</ele><time>2026-03-25T15:40:10.811Z</time></trkpt><trkpt lat="42.1530983" lon="14.5894033"><ele>167.0</ele><time>2026-03-25T15:40:12.811Z</time></trkpt><trkpt lat="42.1530583" lon="14.5893067"><ele>167.5</ele><time>2026-03-25T15:40:14.811Z</time></trkpt><trkpt lat="42.15302" lon="14.5892083"><ele>168.0</ele><time>2026-03-25T15:40:16.811Z</time></trkpt><trkpt lat="42.1529867" lon="14.589115"><ele>168.5</ele><time>2026-03-25T15:40:18.812Z</time></trkpt><trkpt lat="42.1529517" lon="14.5890133"><ele>169.0</ele><time>2026-03-25T15:40:20.811Z</time></trkpt><trkpt lat="42.1529083" lon="14.5888967"><ele>169.5</ele><time>2026-03-25T15:40:22.812Z</time></trkpt><trkpt lat="42.1528733" lon="14.58879"><ele>170.0</ele><time>2026-03-25T15:40:24.811Z</time></trkpt><trkpt lat="42.15283" lon="14.588685"><ele>170.5</ele><time>2026-03-25T15:40:26.811Z</time></trkpt><trkpt lat="42.1527867" lon="14.5885667"><ele>171.0</ele><time>2026-03-25T15:40:28.811Z</time></trkpt><trkpt lat="42.1527533" lon="14.5884567"><ele>171.5</ele><time>2026-03-25T15:40:30.812Z</time></trkpt><trkpt lat="42.1527183" lon="14.5883583"><ele>172.0</ele><time>2026-03-25T15:40:32.811Z</time></trkpt><trkpt lat="42.1526783" lon="14.588265"><ele>172.5</ele><time>2026-03-25T15:40:34.811Z</time></trkpt><trkpt lat="42.1526283" lon="14.588155"><ele>173.0</ele><time>2026-03-25T15:40:36.811Z</time></trkpt><trkpt lat="42.15259" lon="14.588035"><ele>173.0</ele><time>2026-03-25T15:40:38.811Z</time></trkpt><trkpt lat="42.152555" lon="14.5879183"><ele>173.0</ele><time>2026-03-25T15:40:40.811Z</time></trkpt><trkpt lat="42.15252" lon="14.5877933"><ele>173.0</ele><time>2026-03-25T15:40:42.811Z</time></trkpt><trkpt lat="42.152485" lon="14.58767"><ele>173.0</ele><time>2026-03-25T15:40:44.811Z</time></trkpt><trkpt lat="42.1524483" lon="14.5875567"><ele>173.0</ele><time>2026-03-25T15:40:46.811Z</time></trkpt><trkpt lat="42.1524067" lon="14.5874383"><ele>174.2</ele><time>2026-03-25T15:40:48.812Z</time></trkpt><trkpt lat="42.1523717" lon="14.5873317"><ele>175.4</ele><time>2026-03-25T15:40:50.811Z</time></trkpt><trkpt lat="42.1523317" lon="14.587245"><ele>176.6</ele><time>2026-03-25T15:40:53.812Z</time></trkpt><trkpt lat="42.1522417" lon="14.5872583"><ele>177.79999999999998</ele><time>2026-03-25T15:40:56.811Z</time></trkpt><trkpt lat="42.15215" lon="14.5872983"><ele>179.0</ele><time>2026-03-25T15:40:58.811Z</time></trkpt><trkpt lat="42.1520467" lon="14.5873433"><ele>179.0</ele><time>2026-03-25T15:41:00.811Z</time></trkpt><trkpt lat="42.15194" lon="14.58738"><ele>179.0</ele><time>2026-03-25T15:41:02.812Z</time></trkpt><trkpt lat="42.1518333" lon="14.587435"><ele>179.0</ele><time>2026-03-25T15:41:04.811Z</time></trkpt><trkpt lat="42.1517333" lon="14.58749"><ele>179.0</ele><time>2026-03-25T15:41:06.811Z</time></trkpt><trkpt lat="42.15166" lon="14.5875417"><ele>179.0</ele><time>2026-03-25T15:41:08.811Z</time></trkpt><trkpt lat="42.1515833" lon="14.5875883"><ele>179.33333333333331</ele><time>2026-03-25T15:41:10.811Z</time></trkpt><trkpt lat="42.1515017" lon="14.5876383"><ele>179.66666666666666</ele><time>2026-03-25T15:41:12.812Z</time></trkpt><trkpt lat="42.1514217" lon="14.587675"><ele>180.0</ele><time>2026-03-25T15:41:14.811Z</time></trkpt><trkpt lat="42.151335" lon="14.5877133"><ele>180.33333333333334</ele><time>2026-03-25T15:41:16.811Z</time></trkpt><trkpt lat="42.151265" lon="14.5877467"><ele>180.66666666666669</ele><time>2026-03-25T15:41:18.811Z</time></trkpt><trkpt lat="42.1512083" lon="14.5877883"><ele>181.0</ele><time>2026-03-25T15:41:21.812Z</time></trkpt><trkpt lat="42.15114" lon="14.58781"><ele>180.4</ele><time>2026-03-25T15:41:24.811Z</time></trkpt><trkpt lat="42.1510767" lon="14.5878467"><ele>179.8</ele><time>2026-03-25T15:41:26.811Z</time></trkpt><trkpt lat="42.1509617" lon="14.5878833"><ele>179.20000000000002</ele><time>2026-03-25T15:41:28.812Z</time></trkpt><trkpt lat="42.150845" lon="14.5879183"><ele>178.60000000000002</ele><time>2026-03-25T15:41:30.811Z</time></trkpt><trkpt lat="42.1507417" lon="14.5879533"><ele>178.0</ele><time>2026-03-25T15:41:32.812Z</time></trkpt><trkpt lat="42.150655" lon="14.5879917"><ele>178.0</ele><time>2026-03-25T15:41:34.811Z</time></trkpt><trkpt lat="42.1505667" lon="14.5880383"><ele>178.0</ele><time>2026-03-25T15:41:36.812Z</time></trkpt><trkpt lat="42.15046" lon="14.5880767"><ele>178.0</ele><time>2026-03-25T15:41:38.811Z</time></trkpt><trkpt lat="42.1503833" lon="14.5880967"><ele>178.0</ele><time>2026-03-25T15:41:40.811Z</time></trkpt><trkpt lat="42.1503217" lon="14.5880483"><ele>178.0</ele><time>2026-03-25T15:41:43.811Z</time></trkpt><trkpt lat="42.1503117" lon="14.58794"><ele>178.0</ele><time>2026-03-25T15:41:45.811Z</time></trkpt><trkpt lat="42.1502833" lon="14.58785"><ele>178.66666666666669</ele><time>2026-03-25T15:41:47.811Z</time></trkpt><trkpt lat="42.1502183" lon="14.5878283"><ele>179.33333333333334</ele><time>2026-03-25T15:41:49.811Z</time></trkpt><trkpt lat="42.150135" lon="14.587825"><ele>180.0</ele><time>2026-03-25T15:41:51.811Z</time></trkpt><trkpt lat="42.1500433" lon="14.5878017"><ele>180.66666666666666</ele><time>2026-03-25T15:41:54.811Z</time></trkpt><trkpt lat="42.1499683" lon="14.58778"><ele>181.33333333333331</ele><time>2026-03-25T15:41:56.812Z</time></trkpt><trkpt lat="42.1498833" lon="14.587775"><ele>182.0</ele><time>2026-03-25T15:41:58.811Z</time></trkpt><trkpt lat="42.1497917" lon="14.5877733"><ele>182.0</ele><time>2026-03-25T15:42:00.811Z</time></trkpt><trkpt lat="42.149715" lon="14.5877617"><ele>182.0</ele><time>2026-03-25T15:42:02.812Z</time></trkpt><trkpt lat="42.14961" lon="14.5877633"><ele>182.0</ele><time>2026-03-25T15:42:04.811Z</time></trkpt><trkpt lat="42.14951" lon="14.5877683"><ele>182.0</ele><time>2026-03-25T15:42:06.811Z</time></trkpt><trkpt lat="42.1494283" lon="14.58777"><ele>182.0</ele><time>2026-03-25T15:42:08.811Z</time></trkpt><trkpt lat="42.149345" lon="14.587765"><ele>182.0</ele><time>2026-03-25T15:42:10.811Z</time></trkpt><trkpt lat="42.1492817" lon="14.5877517"><ele>182.0</ele><time>2026-03-25T15:42:12.811Z</time></trkpt><trkpt lat="42.1492017" lon="14.587755"><ele>182.0</ele><time>2026-03-25T15:42:14.811Z</time></trkpt><trkpt lat="42.149125" lon="14.58776"><ele>182.0</ele><time>2026-03-25T15:42:16.811Z</time></trkpt><trkpt lat="42.14906" lon="14.5877583"><ele>182.0</ele><time>2026-03-25T15:42:18.811Z</time></trkpt><trkpt lat="42.148985" lon="14.5877517"><ele>182.0</ele><time>2026-03-25T15:42:20.812Z</time></trkpt><trkpt lat="42.1489117" lon="14.5877317"><ele>182.0</ele><time>2026-03-25T15:42:22.811Z</time></trkpt><trkpt lat="42.1488533" lon="14.5876883"><ele>182.0</ele><time>2026-03-25T15:42:24.811Z</time></trkpt><trkpt lat="42.148815" lon="14.5876067"><ele>182.0</ele><time>2026-03-25T15:42:26.812Z</time></trkpt><trkpt lat="42.1488033" lon="14.5875217"><ele>182.0</ele><time>2026-03-25T15:42:28.811Z</time></trkpt><trkpt lat="42.1488017" lon="14.5874317"><ele>182.0</ele><time>2026-03-25T15:42:30.812Z</time></trkpt><trkpt lat="42.14881" lon="14.587335"><ele>182.0</ele><time>2026-03-25T15:42:32.811Z</time></trkpt><trkpt lat="42.14882" lon="14.5872183"><ele>182.0</ele><time>2026-03-25T15:42:34.811Z</time></trkpt><trkpt lat="42.1488267" lon="14.5871217"><ele>182.0</ele><time>2026-03-25T15:42:36.811Z</time></trkpt><trkpt lat="42.1488267" lon="14.5870267"><ele>182.0</ele><time>2026-03-25T15:42:38.811Z</time></trkpt><trkpt lat="42.1487517" lon="14.5869517"><ele>182.0</ele><time>2026-03-25T15:42:41.811Z</time></trkpt><trkpt lat="42.1486683" lon="14.5869233"><ele>182.0</ele><time>2026-03-25T15:42:43.812Z</time></trkpt><trkpt lat="42.148605" lon="14.5868717"><ele>182.0</ele><time>2026-03-25T15:42:46.811Z</time></trkpt><trkpt lat="42.1485983" lon="14.5867617"><ele>182.0</ele><time>2026-03-25T15:42:49.811Z</time></trkpt><trkpt lat="42.1486017" lon="14.5866517"><ele>182.0</ele><time>2026-03-25T15:42:51.812Z</time></trkpt><trkpt lat="42.1486167" lon="14.586555"><ele>182.0</ele><time>2026-03-25T15:42:53.811Z</time></trkpt><trkpt lat="42.1486433" lon="14.58644"><ele>182.0</ele><time>2026-03-25T15:42:55.811Z</time></trkpt><trkpt lat="42.1486667" lon="14.586325"><ele>182.0</ele><time>2026-03-25T15:42:57.811Z</time></trkpt><trkpt lat="42.1486917" lon="14.586215"><ele>182.0</ele><time>2026-03-25T15:42:59.811Z</time></trkpt><trkpt lat="42.1487117" lon="14.586115"><ele>182.0</ele><time>2026-03-25T15:43:01.812Z</time></trkpt><trkpt lat="42.1487217" lon="14.5860167"><ele>182.0</ele><time>2026-03-25T15:43:03.811Z</time></trkpt><trkpt lat="42.1487717" lon="14.5859417"><ele>182.0</ele><time>2026-03-25T15:43:07.812Z</time></trkpt><trkpt lat="42.1488567" lon="14.5859117"><ele>181.5</ele><time>2026-03-25T15:43:10.811Z</time></trkpt><trkpt lat="42.1488933" lon="14.5858067"><ele>181.0</ele><time>2026-03-25T15:43:12.812Z</time></trkpt><trkpt lat="42.1489267" lon="14.585695"><ele>180.5</ele><time>2026-03-25T15:43:14.811Z</time></trkpt><trkpt lat="42.148955" lon="14.5855867"><ele>180.0</ele><time>2026-03-25T15:43:16.811Z</time></trkpt><trkpt lat="42.14897" lon="14.5854817"><ele>179.5</ele><time>2026-03-25T15:43:18.811Z</time></trkpt><trkpt lat="42.1489983" lon="14.5853883"><ele>179.0</ele><time>2026-03-25T15:43:21.812Z</time></trkpt><trkpt lat="42.14905" lon="14.5853033"><ele>182.0</ele><time>2026-03-25T15:43:24.811Z</time></trkpt><trkpt lat="42.1490683" lon="14.58521"><ele>185.0</ele><time>2026-03-25T15:43:26.812Z</time></trkpt><trkpt lat="42.149075" lon="14.5851017"><ele>188.0</ele><time>2026-03-25T15:43:28.811Z</time></trkpt><trkpt lat="42.1490817" lon="14.58498"><ele>191.0</ele><time>2026-03-25T15:43:30.811Z</time></trkpt><trkpt lat="42.14911" lon="14.5848917"><ele>194.00000000000003</ele><time>2026-03-25T15:43:32.812Z</time></trkpt><trkpt lat="42.1491433" lon="14.5848033"><ele>197.0</ele><time>2026-03-25T15:43:34.811Z</time></trkpt><trkpt lat="42.1491767" lon="14.5847183"><ele>197.00000000000003</ele><time>2026-03-25T15:43:36.811Z</time></trkpt><trkpt lat="42.149195" lon="14.5846233"><ele>197.0</ele><time>2026-03-25T15:43:38.811Z</time></trkpt><trkpt lat="42.1492183" lon="14.58454"><ele>197.0</ele><time>2026-03-25T15:43:40.811Z</time></trkpt><trkpt lat="42.1492267" lon="14.5844183"><ele>197.0</ele><time>2026-03-25T15:43:43.811Z</time></trkpt><trkpt lat="42.1492417" lon="14.5843317"><ele>197.00000000000003</ele><time>2026-03-25T15:43:45.811Z</time></trkpt><trkpt lat="42.149265" lon="14.5842183"><ele>197.0</ele><time>2026-03-25T15:43:48.811Z</time></trkpt><trkpt lat="42.1492917" lon="14.584135"><ele>196.50000000000003</ele><time>2026-03-25T15:43:50.811Z</time></trkpt><trkpt lat="42.1493083" lon="14.5840117"><ele>196.0</ele><time>2026-03-25T15:43:52.811Z</time></trkpt><trkpt lat="42.14931" lon="14.583905"><ele>195.5</ele><time>2026-03-25T15:43:54.811Z</time></trkpt><trkpt lat="42.1493167" lon="14.5837867"><ele>195.0</ele><time>2026-03-25T15:43:56.811Z</time></trkpt><trkpt lat="42.1493317" lon="14.5836467"><ele>194.50000000000003</ele><time>2026-03-25T15:43:58.811Z</time></trkpt><trkpt lat="42.1493267" lon="14.583535"><ele>194.0</ele><time>2026-03-25T15:44:00.811Z</time></trkpt><trkpt lat="42.1493333" lon="14.5834383"><ele>194.00000000000003</ele><time>2026-03-25T15:44:02.812Z</time></trkpt><trkpt lat="42.14935" lon="14.5833433"><ele>194.0</ele><time>2026-03-25T15:44:04.812Z</time></trkpt><trkpt lat="42.1493867" lon="14.583235"><ele>194.0</ele><time>2026-03-25T15:44:06.811Z</time></trkpt><trkpt lat="42.14942" lon="14.583115"><ele>194.0</ele><time>2026-03-25T15:44:08.811Z</time></trkpt><trkpt lat="42.1494433" lon="14.58301"><ele>194.00000000000003</ele><time>2026-03-25T15:44:10.812Z</time></trkpt><trkpt lat="42.14947" lon="14.582895"><ele>194.0</ele><time>2026-03-25T15:44:12.811Z</time></trkpt><trkpt lat="42.14949" lon="14.5827817"><ele>195.39999999999998</ele><time>2026-03-25T15:44:14.812Z</time></trkpt><trkpt lat="42.149505" lon="14.582665"><ele>196.8</ele><time>2026-03-25T15:44:16.811Z</time></trkpt><trkpt lat="42.149515" lon="14.5825283"><ele>198.2</ele><time>2026-03-25T15:44:18.811Z</time></trkpt><trkpt lat="42.1494617" lon="14.5824333"><ele>199.60000000000002</ele><time>2026-03-25T15:44:20.812Z</time></trkpt><trkpt lat="42.1494067" lon="14.582355"><ele>201.0</ele><time>2026-03-25T15:44:22.811Z</time></trkpt><trkpt lat="42.1493467" lon="14.5822583"><ele>201.0</ele><time>2026-03-25T15:44:24.811Z</time></trkpt><trkpt lat="42.1492917" lon="14.5821817"><ele>201.0</ele><time>2026-03-25T15:44:26.812Z</time></trkpt><trkpt lat="42.149235" lon="14.5821117"><ele>201.0</ele><time>2026-03-25T15:44:28.811Z</time></trkpt><trkpt lat="42.149185" lon="14.58204"><ele>201.0</ele><time>2026-03-25T15:44:30.812Z</time></trkpt><trkpt lat="42.1491333" lon="14.5819467"><ele>201.0</ele><time>2026-03-25T15:44:32.811Z</time></trkpt><trkpt lat="42.14907" lon="14.5818533"><ele>201.0</ele><time>2026-03-25T15:44:34.811Z</time></trkpt><trkpt lat="42.1490083" lon="14.581755"><ele>201.66666666666666</ele><time>2026-03-25T15:44:36.812Z</time></trkpt><trkpt lat="42.1489583" lon="14.5816567"><ele>202.33333333333331</ele><time>2026-03-25T15:44:38.811Z</time></trkpt><trkpt lat="42.1489083" lon="14.5815567"><ele>203.0</ele><time>2026-03-25T15:44:40.812Z</time></trkpt><trkpt lat="42.1488733" lon="14.5814483"><ele>203.66666666666666</ele><time>2026-03-25T15:44:42.811Z</time></trkpt><trkpt lat="42.148865" lon="14.581335"><ele>204.33333333333331</ele><time>2026-03-25T15:44:44.811Z</time></trkpt><trkpt lat="42.148865" lon="14.5812317"><ele>205.0</ele><time>2026-03-25T15:44:46.812Z</time></trkpt><trkpt lat="42.148845" lon="14.581115"><ele>204.99999999999997</ele><time>2026-03-25T15:44:48.811Z</time></trkpt><trkpt lat="42.1488317" lon="14.5810067"><ele>205.0</ele><time>2026-03-25T15:44:50.811Z</time></trkpt><trkpt lat="42.148825" lon="14.58088"><ele>205.0</ele><time>2026-03-25T15:44:52.811Z</time></trkpt><trkpt lat="42.148815" lon="14.5807533"><ele>205.0</ele><time>2026-03-25T15:44:54.811Z</time></trkpt><trkpt lat="42.148815" lon="14.5806433"><ele>204.99999999999997</ele><time>2026-03-25T15:44:56.811Z</time></trkpt><trkpt lat="42.14881" lon="14.580535"><ele>205.0</ele><time>2026-03-25T15:44:58.811Z</time></trkpt><trkpt lat="42.14879" lon="14.5804267"><ele>206.4</ele><time>2026-03-25T15:45:00.811Z</time></trkpt><trkpt lat="42.1487767" lon="14.5803183"><ele>207.8</ele><time>2026-03-25T15:45:02.811Z</time></trkpt><trkpt lat="42.14878" lon="14.5801967"><ele>209.2</ele><time>2026-03-25T15:45:04.811Z</time></trkpt><trkpt lat="42.14877" lon="14.5800733"><ele>210.6</ele><time>2026-03-25T15:45:06.811Z</time></trkpt><trkpt lat="42.1487667" lon="14.5799567"><ele>212.0</ele><time>2026-03-25T15:45:08.811Z</time></trkpt><trkpt lat="42.1487767" lon="14.57979"><ele>212.00000000000003</ele><time>2026-03-25T15:45:10.811Z</time></trkpt><trkpt lat="42.1487717" lon="14.5797017"><ele>212.0</ele><time>2026-03-25T15:45:11.811Z</time></trkpt><trkpt lat="42.148765" lon="14.5796133"><ele>212.0</ele><time>2026-03-25T15:45:12.812Z</time></trkpt><trkpt lat="42.1487583" lon="14.5794683"><ele>212.0</ele><time>2026-03-25T15:45:14.811Z</time></trkpt><trkpt lat="42.1487583" lon="14.5793333"><ele>212.00000000000003</ele><time>2026-03-25T15:45:16.811Z</time></trkpt><trkpt lat="42.1487567" lon="14.5792083"><ele>212.0</ele><time>2026-03-25T15:45:18.811Z</time></trkpt><trkpt lat="42.148735" lon="14.579075"><ele>212.16666666666669</ele><time>2026-03-25T15:45:20.811Z</time></trkpt><trkpt lat="42.148735" lon="14.5789617"><ele>212.33333333333334</ele><time>2026-03-25T15:45:22.811Z</time></trkpt><trkpt lat="42.14873" lon="14.5788667"><ele>212.5</ele><time>2026-03-25T15:45:24.811Z</time></trkpt><trkpt lat="42.1487267" lon="14.5787717"><ele>212.66666666666669</ele><time>2026-03-25T15:45:27.811Z</time></trkpt><trkpt lat="42.1487917" lon="14.5787283"><ele>212.83333333333334</ele><time>2026-03-25T15:45:30.811Z</time></trkpt><trkpt lat="42.1488767" lon="14.57872"><ele>213.0</ele><time>2026-03-25T15:45:33.811Z</time></trkpt><trkpt lat="42.14896" lon="14.5787133"><ele>213.0</ele><time>2026-03-25T15:45:36.811Z</time></trkpt><trkpt lat="42.1490367" lon="14.5787067"><ele>213.0</ele><time>2026-03-25T15:45:39.811Z</time></trkpt><trkpt lat="42.1491117" lon="14.578695"><ele>213.0</ele><time>2026-03-25T15:45:42.811Z</time></trkpt><trkpt lat="42.1491917" lon="14.5786883"><ele>213.0</ele><time>2026-03-25T15:45:45.811Z</time></trkpt><trkpt lat="42.14927" lon="14.578675"><ele>213.0</ele><time>2026-03-25T15:45:48.811Z</time></trkpt><trkpt lat="42.1493533" lon="14.578645"><ele>213.0</ele><time>2026-03-25T15:45:51.811Z</time></trkpt><trkpt lat="42.14942" lon="14.578615"><ele>214.5</ele><time>2026-03-25T15:45:53.811Z</time></trkpt><trkpt lat="42.14949" lon="14.5785783"><ele>216.0</ele><time>2026-03-25T15:45:55.811Z</time></trkpt><trkpt lat="42.1495517" lon="14.5785467"><ele>217.5</ele><time>2026-03-25T15:45:57.811Z</time></trkpt><trkpt lat="42.1496417" lon="14.5785183"><ele>219.0</ele><time>2026-03-25T15:46:00.811Z</time></trkpt><trkpt lat="42.1497117" lon="14.5784817"><ele>220.5</ele><time>2026-03-25T15:46:02.811Z</time></trkpt><trkpt lat="42.1497867" lon="14.5784117"><ele>222.0</ele><time>2026-03-25T15:46:04.811Z</time></trkpt><trkpt lat="42.1498667" lon="14.5783617"><ele>221.39999999999998</ele><time>2026-03-25T15:46:06.811Z</time></trkpt><trkpt lat="42.1499517" lon="14.5783133"><ele>220.79999999999998</ele><time>2026-03-25T15:46:08.811Z</time></trkpt><trkpt lat="42.15005" lon="14.5783167"><ele>220.2</ele><time>2026-03-25T15:46:10.811Z</time></trkpt><trkpt lat="42.1501383" lon="14.5783733"><ele>219.6</ele><time>2026-03-25T15:46:12.811Z</time></trkpt><trkpt lat="42.1501917" lon="14.5784883"><ele>219.0</ele><time>2026-03-25T15:46:14.811Z</time></trkpt><trkpt lat="42.1501933" lon="14.57863"><ele>219.0</ele><time>2026-03-25T15:46:16.811Z</time></trkpt><trkpt lat="42.15019" lon="14.57877"><ele>216.0</ele><time>2026-03-25T15:46:18.811Z</time></trkpt><trkpt lat="42.1501883" lon="14.578905"><ele>216.0</ele><time>2026-03-25T15:46:20.812Z</time></trkpt></trkseg></trk></gpx>